<?xml version="1.0" encoding="UTF-8"?>
<gpx version="1.1" creator="https://www.youtrack.es" xsi:schemaLocation="http://www.topografix.com/GPX/1/1 http://www.topografix.com/GPX/1/1/gpx.xsd http://www.garmin.com/xmlschemas/GpxExtensions/v3 http://www.garmin.com/xmlschemas/GpxExtensionsv3.xsd http://www.garmin.com/xmlschemas/TrackPointExtension/v1 http://www.garmin.com/xmlschemas/TrackPointExtensionv1.xsd" xmlns:gpxtpx="http://www.garmin.com/xmlschemas/TrackPointExtension/v1" xmlns:gpxx="http://www.garmin.com/xmlschemas/GpxExtensions/v3" xmlns:xsi="http://www.w3.org/2001/XMLSchema-instance">
  <metadata>
    <link href="https://www.youtrack.es">
      <text>YouTrack.es</text>
    </link>
    <time>2026-05-08T06:25:23Z</time>
  </metadata>
  <trk>
    <src>https://www.youtrack.es</src>
    <link href="https://www.youtrack.es/ruta/8138-cm-phrao-chiang-dao-3009-cm">
      <text>YouTrack.es</text>
    </link>
    <trkseg>
      <trkpt lat="18.80889" lon="99.01139">
        <time>2019-09-06T05:30:46Z</time>
      </trkpt>
      <trkpt lat="18.80891" lon="99.01139">
        <time>2019-09-06T05:30:47Z</time>
      </trkpt>
      <trkpt lat="18.80893" lon="99.0114">
        <time>2019-09-06T05:30:48Z</time>
      </trkpt>
      <trkpt lat="18.80895" lon="99.01141">
        <time>2019-09-06T05:30:49Z</time>
      </trkpt>
      <trkpt lat="18.80898" lon="99.01141">
        <time>2019-09-06T05:30:50Z</time>
      </trkpt>
      <trkpt lat="18.809" lon="99.01142">
        <time>2019-09-06T05:30:51Z</time>
      </trkpt>
      <trkpt lat="18.80904" lon="99.01144">
        <time>2019-09-06T05:30:52Z</time>
      </trkpt>
      <trkpt lat="18.80906" lon="99.01144">
        <time>2019-09-06T05:30:53Z</time>
      </trkpt>
      <trkpt lat="18.80907" lon="99.01145">
        <time>2019-09-06T05:30:54Z</time>
      </trkpt>
      <trkpt lat="18.80909" lon="99.01146">
        <time>2019-09-06T05:30:55Z</time>
      </trkpt>
      <trkpt lat="18.80911" lon="99.01146">
        <time>2019-09-06T05:30:56Z</time>
      </trkpt>
      <trkpt lat="18.80914" lon="99.01146">
        <time>2019-09-06T05:30:57Z</time>
      </trkpt>
      <trkpt lat="18.80916" lon="99.01146">
        <time>2019-09-06T05:30:58Z</time>
      </trkpt>
      <trkpt lat="18.80917" lon="99.01145">
        <time>2019-09-06T05:30:59Z</time>
      </trkpt>
      <trkpt lat="18.80918" lon="99.01142">
        <time>2019-09-06T05:31:00Z</time>
      </trkpt>
      <trkpt lat="18.80919" lon="99.01139">
        <time>2019-09-06T05:31:01Z</time>
      </trkpt>
      <trkpt lat="18.80919" lon="99.01136">
        <time>2019-09-06T05:31:02Z</time>
      </trkpt>
      <trkpt lat="18.80919" lon="99.01134">
        <time>2019-09-06T05:31:03Z</time>
      </trkpt>
      <trkpt lat="18.8092" lon="99.01131">
        <time>2019-09-06T05:31:04Z</time>
      </trkpt>
      <trkpt lat="18.80919" lon="99.01127">
        <time>2019-09-06T05:31:05Z</time>
      </trkpt>
      <trkpt lat="18.80918" lon="99.01124">
        <time>2019-09-06T05:31:06Z</time>
      </trkpt>
      <trkpt lat="18.8093" lon="99.0109">
        <time>2019-09-06T05:31:07Z</time>
      </trkpt>
      <trkpt lat="18.80936" lon="99.01084">
        <time>2019-09-06T05:31:08Z</time>
      </trkpt>
      <trkpt lat="18.80943" lon="99.0108">
        <time>2019-09-06T05:31:09Z</time>
      </trkpt>
      <trkpt lat="18.80954" lon="99.0108">
        <time>2019-09-06T05:31:10Z</time>
      </trkpt>
      <trkpt lat="18.80964" lon="99.0108">
        <time>2019-09-06T05:31:11Z</time>
      </trkpt>
      <trkpt lat="18.80971" lon="99.01082">
        <time>2019-09-06T05:31:12Z</time>
      </trkpt>
      <trkpt lat="18.80979" lon="99.01082">
        <time>2019-09-06T05:31:13Z</time>
      </trkpt>
      <trkpt lat="18.80988" lon="99.01082">
        <time>2019-09-06T05:31:14Z</time>
      </trkpt>
      <trkpt lat="18.80999" lon="99.01083">
        <time>2019-09-06T05:31:15Z</time>
      </trkpt>
      <trkpt lat="18.8101" lon="99.01087">
        <time>2019-09-06T05:31:16Z</time>
      </trkpt>
      <trkpt lat="18.81022" lon="99.0109">
        <time>2019-09-06T05:31:17Z</time>
      </trkpt>
      <trkpt lat="18.81032" lon="99.01086">
        <time>2019-09-06T05:31:18Z</time>
      </trkpt>
      <trkpt lat="18.81044" lon="99.01086">
        <time>2019-09-06T05:31:19Z</time>
      </trkpt>
      <trkpt lat="18.81056" lon="99.01085">
        <time>2019-09-06T05:31:20Z</time>
      </trkpt>
      <trkpt lat="18.81072" lon="99.01085">
        <time>2019-09-06T05:31:21Z</time>
      </trkpt>
      <trkpt lat="18.81086" lon="99.01087">
        <time>2019-09-06T05:31:22Z</time>
      </trkpt>
      <trkpt lat="18.81104" lon="99.0109">
        <time>2019-09-06T05:31:23Z</time>
      </trkpt>
      <trkpt lat="18.8112" lon="99.01092">
        <time>2019-09-06T05:31:24Z</time>
      </trkpt>
      <trkpt lat="18.81139" lon="99.01097">
        <time>2019-09-06T05:31:25Z</time>
      </trkpt>
      <trkpt lat="18.81155" lon="99.01098">
        <time>2019-09-06T05:31:26Z</time>
      </trkpt>
      <trkpt lat="18.81172" lon="99.01101">
        <time>2019-09-06T05:31:27Z</time>
      </trkpt>
      <trkpt lat="18.81187" lon="99.011">
        <time>2019-09-06T05:31:28Z</time>
      </trkpt>
      <trkpt lat="18.81204" lon="99.011">
        <time>2019-09-06T05:31:29Z</time>
      </trkpt>
      <trkpt lat="18.81221" lon="99.01101">
        <time>2019-09-06T05:31:30Z</time>
      </trkpt>
      <trkpt lat="18.81236" lon="99.01102">
        <time>2019-09-06T05:31:31Z</time>
      </trkpt>
      <trkpt lat="18.8125" lon="99.01102">
        <time>2019-09-06T05:31:32Z</time>
      </trkpt>
      <trkpt lat="18.81264" lon="99.01102">
        <time>2019-09-06T05:31:33Z</time>
      </trkpt>
      <trkpt lat="18.81277" lon="99.01103">
        <time>2019-09-06T05:31:34Z</time>
      </trkpt>
      <trkpt lat="18.81291" lon="99.01107">
        <time>2019-09-06T05:31:35Z</time>
      </trkpt>
      <trkpt lat="18.81306" lon="99.01112">
        <time>2019-09-06T05:31:36Z</time>
      </trkpt>
      <trkpt lat="18.81322" lon="99.01113">
        <time>2019-09-06T05:31:37Z</time>
      </trkpt>
      <trkpt lat="18.81341" lon="99.01115">
        <time>2019-09-06T05:31:38Z</time>
      </trkpt>
      <trkpt lat="18.81352" lon="99.01117">
        <time>2019-09-06T05:31:39Z</time>
      </trkpt>
      <trkpt lat="18.81373" lon="99.01117">
        <time>2019-09-06T05:31:40Z</time>
      </trkpt>
      <trkpt lat="18.81391" lon="99.01119">
        <time>2019-09-06T05:31:41Z</time>
      </trkpt>
      <trkpt lat="18.81409" lon="99.01122">
        <time>2019-09-06T05:31:42Z</time>
      </trkpt>
      <trkpt lat="18.81426" lon="99.01123">
        <time>2019-09-06T05:31:43Z</time>
      </trkpt>
      <trkpt lat="18.81446" lon="99.01125">
        <time>2019-09-06T05:31:44Z</time>
      </trkpt>
      <trkpt lat="18.81464" lon="99.01125">
        <time>2019-09-06T05:31:45Z</time>
      </trkpt>
      <trkpt lat="18.81483" lon="99.01126">
        <time>2019-09-06T05:31:46Z</time>
      </trkpt>
      <trkpt lat="18.81501" lon="99.01128">
        <time>2019-09-06T05:31:47Z</time>
      </trkpt>
      <trkpt lat="18.8152" lon="99.01131">
        <time>2019-09-06T05:31:48Z</time>
      </trkpt>
      <trkpt lat="18.81538" lon="99.01131">
        <time>2019-09-06T05:31:49Z</time>
      </trkpt>
      <trkpt lat="18.81556" lon="99.01132">
        <time>2019-09-06T05:31:50Z</time>
      </trkpt>
      <trkpt lat="18.81575" lon="99.01135">
        <time>2019-09-06T05:31:51Z</time>
      </trkpt>
      <trkpt lat="18.81594" lon="99.01138">
        <time>2019-09-06T05:31:52Z</time>
      </trkpt>
      <trkpt lat="18.81613" lon="99.0114">
        <time>2019-09-06T05:31:53Z</time>
      </trkpt>
      <trkpt lat="18.8163" lon="99.01138">
        <time>2019-09-06T05:31:54Z</time>
      </trkpt>
      <trkpt lat="18.8165" lon="99.01142">
        <time>2019-09-06T05:31:55Z</time>
      </trkpt>
      <trkpt lat="18.81667" lon="99.0114">
        <time>2019-09-06T05:31:56Z</time>
      </trkpt>
      <trkpt lat="18.81686" lon="99.01139">
        <time>2019-09-06T05:31:57Z</time>
      </trkpt>
      <trkpt lat="18.81706" lon="99.01141">
        <time>2019-09-06T05:31:58Z</time>
      </trkpt>
      <trkpt lat="18.81725" lon="99.01142">
        <time>2019-09-06T05:31:59Z</time>
      </trkpt>
      <trkpt lat="18.81744" lon="99.01143">
        <time>2019-09-06T05:32:00Z</time>
      </trkpt>
      <trkpt lat="18.81762" lon="99.01145">
        <time>2019-09-06T05:32:01Z</time>
      </trkpt>
      <trkpt lat="18.8178" lon="99.01146">
        <time>2019-09-06T05:32:02Z</time>
      </trkpt>
      <trkpt lat="18.81799" lon="99.01146">
        <time>2019-09-06T05:32:03Z</time>
      </trkpt>
      <trkpt lat="18.81818" lon="99.01149">
        <time>2019-09-06T05:32:04Z</time>
      </trkpt>
      <trkpt lat="18.81837" lon="99.0115">
        <time>2019-09-06T05:32:05Z</time>
      </trkpt>
      <trkpt lat="18.81855" lon="99.01151">
        <time>2019-09-06T05:32:06Z</time>
      </trkpt>
      <trkpt lat="18.81873" lon="99.0115">
        <time>2019-09-06T05:32:07Z</time>
      </trkpt>
      <trkpt lat="18.81892" lon="99.01151">
        <time>2019-09-06T05:32:08Z</time>
      </trkpt>
      <trkpt lat="18.81911" lon="99.01153">
        <time>2019-09-06T05:32:09Z</time>
      </trkpt>
      <trkpt lat="18.8193" lon="99.01154">
        <time>2019-09-06T05:32:10Z</time>
      </trkpt>
      <trkpt lat="18.81949" lon="99.01157">
        <time>2019-09-06T05:32:11Z</time>
      </trkpt>
      <trkpt lat="18.81967" lon="99.01157">
        <time>2019-09-06T05:32:12Z</time>
      </trkpt>
      <trkpt lat="18.81988" lon="99.01161">
        <time>2019-09-06T05:32:13Z</time>
      </trkpt>
      <trkpt lat="18.82006" lon="99.01161">
        <time>2019-09-06T05:32:14Z</time>
      </trkpt>
      <trkpt lat="18.82026" lon="99.01164">
        <time>2019-09-06T05:32:15Z</time>
      </trkpt>
      <trkpt lat="18.82046" lon="99.01167">
        <time>2019-09-06T05:32:16Z</time>
      </trkpt>
      <trkpt lat="18.82066" lon="99.01168">
        <time>2019-09-06T05:32:17Z</time>
      </trkpt>
      <trkpt lat="18.82085" lon="99.01168">
        <time>2019-09-06T05:32:18Z</time>
      </trkpt>
      <trkpt lat="18.82103" lon="99.01168">
        <time>2019-09-06T05:32:19Z</time>
      </trkpt>
      <trkpt lat="18.8212" lon="99.01169">
        <time>2019-09-06T05:32:20Z</time>
      </trkpt>
      <trkpt lat="18.82137" lon="99.01171">
        <time>2019-09-06T05:32:21Z</time>
      </trkpt>
      <trkpt lat="18.82152" lon="99.01172">
        <time>2019-09-06T05:32:22Z</time>
      </trkpt>
      <trkpt lat="18.82167" lon="99.01174">
        <time>2019-09-06T05:32:23Z</time>
      </trkpt>
      <trkpt lat="18.82181" lon="99.01175">
        <time>2019-09-06T05:32:24Z</time>
      </trkpt>
      <trkpt lat="18.82196" lon="99.01176">
        <time>2019-09-06T05:32:25Z</time>
      </trkpt>
      <trkpt lat="18.82208" lon="99.01175">
        <time>2019-09-06T05:32:26Z</time>
      </trkpt>
      <trkpt lat="18.82217" lon="99.01174">
        <time>2019-09-06T05:32:27Z</time>
      </trkpt>
      <trkpt lat="18.82227" lon="99.01175">
        <time>2019-09-06T05:32:28Z</time>
      </trkpt>
      <trkpt lat="18.82236" lon="99.01176">
        <time>2019-09-06T05:32:29Z</time>
      </trkpt>
      <trkpt lat="18.82243" lon="99.01176">
        <time>2019-09-06T05:32:30Z</time>
      </trkpt>
      <trkpt lat="18.8225" lon="99.01177">
        <time>2019-09-06T05:32:31Z</time>
      </trkpt>
      <trkpt lat="18.8226" lon="99.01179">
        <time>2019-09-06T05:32:32Z</time>
      </trkpt>
      <trkpt lat="18.82267" lon="99.01178">
        <time>2019-09-06T05:32:33Z</time>
      </trkpt>
      <trkpt lat="18.82274" lon="99.01177">
        <time>2019-09-06T05:32:34Z</time>
      </trkpt>
      <trkpt lat="18.82282" lon="99.01177">
        <time>2019-09-06T05:32:35Z</time>
      </trkpt>
      <trkpt lat="18.82288" lon="99.01172">
        <time>2019-09-06T05:32:36Z</time>
      </trkpt>
      <trkpt lat="18.82291" lon="99.01163">
        <time>2019-09-06T05:32:37Z</time>
      </trkpt>
      <trkpt lat="18.82294" lon="99.01156">
        <time>2019-09-06T05:32:38Z</time>
      </trkpt>
      <trkpt lat="18.82295" lon="99.01143">
        <time>2019-09-06T05:32:39Z</time>
      </trkpt>
      <trkpt lat="18.82298" lon="99.0113">
        <time>2019-09-06T05:32:40Z</time>
      </trkpt>
      <trkpt lat="18.82297" lon="99.01116">
        <time>2019-09-06T05:32:41Z</time>
      </trkpt>
      <trkpt lat="18.82297" lon="99.01101">
        <time>2019-09-06T05:32:42Z</time>
      </trkpt>
      <trkpt lat="18.82298" lon="99.01083">
        <time>2019-09-06T05:32:43Z</time>
      </trkpt>
      <trkpt lat="18.82298" lon="99.01065">
        <time>2019-09-06T05:32:44Z</time>
      </trkpt>
      <trkpt lat="18.82299" lon="99.01046">
        <time>2019-09-06T05:32:45Z</time>
      </trkpt>
      <trkpt lat="18.823" lon="99.01029">
        <time>2019-09-06T05:32:46Z</time>
      </trkpt>
      <trkpt lat="18.82304" lon="99.01012">
        <time>2019-09-06T05:32:47Z</time>
      </trkpt>
      <trkpt lat="18.82307" lon="99.00998">
        <time>2019-09-06T05:32:48Z</time>
      </trkpt>
      <trkpt lat="18.82311" lon="99.00983">
        <time>2019-09-06T05:32:49Z</time>
      </trkpt>
      <trkpt lat="18.82316" lon="99.00969">
        <time>2019-09-06T05:32:50Z</time>
      </trkpt>
      <trkpt lat="18.8232" lon="99.00955">
        <time>2019-09-06T05:32:51Z</time>
      </trkpt>
      <trkpt lat="18.82325" lon="99.00942">
        <time>2019-09-06T05:32:52Z</time>
      </trkpt>
      <trkpt lat="18.82332" lon="99.0093">
        <time>2019-09-06T05:32:53Z</time>
      </trkpt>
      <trkpt lat="18.82339" lon="99.0092">
        <time>2019-09-06T05:32:54Z</time>
      </trkpt>
      <trkpt lat="18.82345" lon="99.0091">
        <time>2019-09-06T05:32:55Z</time>
      </trkpt>
      <trkpt lat="18.82352" lon="99.00899">
        <time>2019-09-06T05:32:56Z</time>
      </trkpt>
      <trkpt lat="18.82359" lon="99.00888">
        <time>2019-09-06T05:32:57Z</time>
      </trkpt>
      <trkpt lat="18.82366" lon="99.00878">
        <time>2019-09-06T05:32:58Z</time>
      </trkpt>
      <trkpt lat="18.82374" lon="99.00866">
        <time>2019-09-06T05:32:59Z</time>
      </trkpt>
      <trkpt lat="18.82382" lon="99.00853">
        <time>2019-09-06T05:33:00Z</time>
      </trkpt>
      <trkpt lat="18.82393" lon="99.0084">
        <time>2019-09-06T05:33:01Z</time>
      </trkpt>
      <trkpt lat="18.82403" lon="99.00827">
        <time>2019-09-06T05:33:02Z</time>
      </trkpt>
      <trkpt lat="18.82414" lon="99.00813">
        <time>2019-09-06T05:33:03Z</time>
      </trkpt>
      <trkpt lat="18.82427" lon="99.00801">
        <time>2019-09-06T05:33:04Z</time>
      </trkpt>
      <trkpt lat="18.8244" lon="99.00789">
        <time>2019-09-06T05:33:05Z</time>
      </trkpt>
      <trkpt lat="18.82455" lon="99.00778">
        <time>2019-09-06T05:33:06Z</time>
      </trkpt>
      <trkpt lat="18.82467" lon="99.0077">
        <time>2019-09-06T05:33:07Z</time>
      </trkpt>
      <trkpt lat="18.82479" lon="99.00763">
        <time>2019-09-06T05:33:08Z</time>
      </trkpt>
      <trkpt lat="18.82489" lon="99.00757">
        <time>2019-09-06T05:33:09Z</time>
      </trkpt>
      <trkpt lat="18.82499" lon="99.00753">
        <time>2019-09-06T05:33:10Z</time>
      </trkpt>
      <trkpt lat="18.8251" lon="99.00747">
        <time>2019-09-06T05:33:11Z</time>
      </trkpt>
      <trkpt lat="18.82521" lon="99.00742">
        <time>2019-09-06T05:33:12Z</time>
      </trkpt>
      <trkpt lat="18.82531" lon="99.00738">
        <time>2019-09-06T05:33:13Z</time>
      </trkpt>
      <trkpt lat="18.82542" lon="99.00734">
        <time>2019-09-06T05:33:14Z</time>
      </trkpt>
      <trkpt lat="18.82554" lon="99.0073">
        <time>2019-09-06T05:33:15Z</time>
      </trkpt>
      <trkpt lat="18.82566" lon="99.00727">
        <time>2019-09-06T05:33:16Z</time>
      </trkpt>
      <trkpt lat="18.82577" lon="99.00722">
        <time>2019-09-06T05:33:17Z</time>
      </trkpt>
      <trkpt lat="18.8259" lon="99.00717">
        <time>2019-09-06T05:33:18Z</time>
      </trkpt>
      <trkpt lat="18.82601" lon="99.00711">
        <time>2019-09-06T05:33:19Z</time>
      </trkpt>
      <trkpt lat="18.82619" lon="99.00704">
        <time>2019-09-06T05:33:20Z</time>
      </trkpt>
      <trkpt lat="18.82637" lon="99.00698">
        <time>2019-09-06T05:33:21Z</time>
      </trkpt>
      <trkpt lat="18.82652" lon="99.00689">
        <time>2019-09-06T05:33:22Z</time>
      </trkpt>
      <trkpt lat="18.82671" lon="99.00681">
        <time>2019-09-06T05:33:23Z</time>
      </trkpt>
      <trkpt lat="18.8269" lon="99.00674">
        <time>2019-09-06T05:33:24Z</time>
      </trkpt>
      <trkpt lat="18.82709" lon="99.00666">
        <time>2019-09-06T05:33:25Z</time>
      </trkpt>
      <trkpt lat="18.82727" lon="99.00659">
        <time>2019-09-06T05:33:26Z</time>
      </trkpt>
      <trkpt lat="18.82746" lon="99.00651">
        <time>2019-09-06T05:33:27Z</time>
      </trkpt>
      <trkpt lat="18.82765" lon="99.00644">
        <time>2019-09-06T05:33:28Z</time>
      </trkpt>
      <trkpt lat="18.82784" lon="99.00637">
        <time>2019-09-06T05:33:29Z</time>
      </trkpt>
      <trkpt lat="18.82803" lon="99.00628">
        <time>2019-09-06T05:33:30Z</time>
      </trkpt>
      <trkpt lat="18.82822" lon="99.0062">
        <time>2019-09-06T05:33:31Z</time>
      </trkpt>
      <trkpt lat="18.82841" lon="99.00613">
        <time>2019-09-06T05:33:32Z</time>
      </trkpt>
      <trkpt lat="18.82861" lon="99.00605">
        <time>2019-09-06T05:33:33Z</time>
      </trkpt>
      <trkpt lat="18.8288" lon="99.00597">
        <time>2019-09-06T05:33:34Z</time>
      </trkpt>
      <trkpt lat="18.82898" lon="99.00588">
        <time>2019-09-06T05:33:35Z</time>
      </trkpt>
      <trkpt lat="18.82916" lon="99.0058">
        <time>2019-09-06T05:33:36Z</time>
      </trkpt>
      <trkpt lat="18.82933" lon="99.00572">
        <time>2019-09-06T05:33:37Z</time>
      </trkpt>
      <trkpt lat="18.82952" lon="99.00566">
        <time>2019-09-06T05:33:38Z</time>
      </trkpt>
      <trkpt lat="18.82968" lon="99.00559">
        <time>2019-09-06T05:33:39Z</time>
      </trkpt>
      <trkpt lat="18.82987" lon="99.00549">
        <time>2019-09-06T05:33:40Z</time>
      </trkpt>
      <trkpt lat="18.83006" lon="99.00539">
        <time>2019-09-06T05:33:41Z</time>
      </trkpt>
      <trkpt lat="18.83026" lon="99.00528">
        <time>2019-09-06T05:33:42Z</time>
      </trkpt>
      <trkpt lat="18.83044" lon="99.00516">
        <time>2019-09-06T05:33:43Z</time>
      </trkpt>
      <trkpt lat="18.83064" lon="99.00504">
        <time>2019-09-06T05:33:44Z</time>
      </trkpt>
      <trkpt lat="18.83085" lon="99.00493">
        <time>2019-09-06T05:33:45Z</time>
      </trkpt>
      <trkpt lat="18.83106" lon="99.00482">
        <time>2019-09-06T05:33:46Z</time>
      </trkpt>
      <trkpt lat="18.83125" lon="99.00471">
        <time>2019-09-06T05:33:47Z</time>
      </trkpt>
      <trkpt lat="18.83142" lon="99.00462">
        <time>2019-09-06T05:33:48Z</time>
      </trkpt>
      <trkpt lat="18.83162" lon="99.0045">
        <time>2019-09-06T05:33:49Z</time>
      </trkpt>
      <trkpt lat="18.83181" lon="99.0044">
        <time>2019-09-06T05:33:50Z</time>
      </trkpt>
      <trkpt lat="18.83202" lon="99.00429">
        <time>2019-09-06T05:33:51Z</time>
      </trkpt>
      <trkpt lat="18.83221" lon="99.00418">
        <time>2019-09-06T05:33:52Z</time>
      </trkpt>
      <trkpt lat="18.83241" lon="99.00408">
        <time>2019-09-06T05:33:53Z</time>
      </trkpt>
      <trkpt lat="18.83262" lon="99.00398">
        <time>2019-09-06T05:33:54Z</time>
      </trkpt>
      <trkpt lat="18.83278" lon="99.00388">
        <time>2019-09-06T05:33:55Z</time>
      </trkpt>
      <trkpt lat="18.83298" lon="99.00377">
        <time>2019-09-06T05:33:56Z</time>
      </trkpt>
      <trkpt lat="18.83317" lon="99.00366">
        <time>2019-09-06T05:33:57Z</time>
      </trkpt>
      <trkpt lat="18.83334" lon="99.00356">
        <time>2019-09-06T05:33:58Z</time>
      </trkpt>
      <trkpt lat="18.83352" lon="99.00346">
        <time>2019-09-06T05:33:59Z</time>
      </trkpt>
      <trkpt lat="18.8337" lon="99.00337">
        <time>2019-09-06T05:34:00Z</time>
      </trkpt>
      <trkpt lat="18.83389" lon="99.00328">
        <time>2019-09-06T05:34:01Z</time>
      </trkpt>
      <trkpt lat="18.83406" lon="99.00318">
        <time>2019-09-06T05:34:02Z</time>
      </trkpt>
      <trkpt lat="18.83421" lon="99.00309">
        <time>2019-09-06T05:34:03Z</time>
      </trkpt>
      <trkpt lat="18.8344" lon="99.00301">
        <time>2019-09-06T05:34:04Z</time>
      </trkpt>
      <trkpt lat="18.83455" lon="99.00293">
        <time>2019-09-06T05:34:05Z</time>
      </trkpt>
      <trkpt lat="18.83472" lon="99.00285">
        <time>2019-09-06T05:34:06Z</time>
      </trkpt>
      <trkpt lat="18.83489" lon="99.00275">
        <time>2019-09-06T05:34:07Z</time>
      </trkpt>
      <trkpt lat="18.83506" lon="99.00265">
        <time>2019-09-06T05:34:08Z</time>
      </trkpt>
      <trkpt lat="18.83526" lon="99.00257">
        <time>2019-09-06T05:34:09Z</time>
      </trkpt>
      <trkpt lat="18.83545" lon="99.00247">
        <time>2019-09-06T05:34:10Z</time>
      </trkpt>
      <trkpt lat="18.83562" lon="99.00237">
        <time>2019-09-06T05:34:11Z</time>
      </trkpt>
      <trkpt lat="18.83581" lon="99.00225">
        <time>2019-09-06T05:34:12Z</time>
      </trkpt>
      <trkpt lat="18.83599" lon="99.00214">
        <time>2019-09-06T05:34:13Z</time>
      </trkpt>
      <trkpt lat="18.83618" lon="99.00201">
        <time>2019-09-06T05:34:14Z</time>
      </trkpt>
      <trkpt lat="18.83637" lon="99.00189">
        <time>2019-09-06T05:34:15Z</time>
      </trkpt>
      <trkpt lat="18.83656" lon="99.00178">
        <time>2019-09-06T05:34:16Z</time>
      </trkpt>
      <trkpt lat="18.83673" lon="99.00165">
        <time>2019-09-06T05:34:17Z</time>
      </trkpt>
      <trkpt lat="18.8369" lon="99.00152">
        <time>2019-09-06T05:34:18Z</time>
      </trkpt>
      <trkpt lat="18.83709" lon="99.0014">
        <time>2019-09-06T05:34:19Z</time>
      </trkpt>
      <trkpt lat="18.83728" lon="99.00126">
        <time>2019-09-06T05:34:20Z</time>
      </trkpt>
      <trkpt lat="18.83746" lon="99.00113">
        <time>2019-09-06T05:34:21Z</time>
      </trkpt>
      <trkpt lat="18.83764" lon="99.001">
        <time>2019-09-06T05:34:22Z</time>
      </trkpt>
      <trkpt lat="18.83781" lon="99.00085">
        <time>2019-09-06T05:34:23Z</time>
      </trkpt>
      <trkpt lat="18.83798" lon="99.00071">
        <time>2019-09-06T05:34:24Z</time>
      </trkpt>
      <trkpt lat="18.83816" lon="99.00057">
        <time>2019-09-06T05:34:25Z</time>
      </trkpt>
      <trkpt lat="18.83834" lon="99.00041">
        <time>2019-09-06T05:34:26Z</time>
      </trkpt>
      <trkpt lat="18.83851" lon="99.00026">
        <time>2019-09-06T05:34:27Z</time>
      </trkpt>
      <trkpt lat="18.83867" lon="99.00012">
        <time>2019-09-06T05:34:28Z</time>
      </trkpt>
      <trkpt lat="18.83884" lon="98.99997">
        <time>2019-09-06T05:34:29Z</time>
      </trkpt>
      <trkpt lat="18.83901" lon="98.99983">
        <time>2019-09-06T05:34:30Z</time>
      </trkpt>
      <trkpt lat="18.83919" lon="98.99968">
        <time>2019-09-06T05:34:31Z</time>
      </trkpt>
      <trkpt lat="18.83936" lon="98.99953">
        <time>2019-09-06T05:34:32Z</time>
      </trkpt>
      <trkpt lat="18.83953" lon="98.99938">
        <time>2019-09-06T05:34:33Z</time>
      </trkpt>
      <trkpt lat="18.83971" lon="98.99923">
        <time>2019-09-06T05:34:34Z</time>
      </trkpt>
      <trkpt lat="18.83987" lon="98.99908">
        <time>2019-09-06T05:34:35Z</time>
      </trkpt>
      <trkpt lat="18.84004" lon="98.99893">
        <time>2019-09-06T05:34:36Z</time>
      </trkpt>
      <trkpt lat="18.84019" lon="98.99879">
        <time>2019-09-06T05:34:37Z</time>
      </trkpt>
      <trkpt lat="18.84037" lon="98.99864">
        <time>2019-09-06T05:34:38Z</time>
      </trkpt>
      <trkpt lat="18.84052" lon="98.99851">
        <time>2019-09-06T05:34:39Z</time>
      </trkpt>
      <trkpt lat="18.8407" lon="98.99838">
        <time>2019-09-06T05:34:40Z</time>
      </trkpt>
      <trkpt lat="18.84086" lon="98.99824">
        <time>2019-09-06T05:34:41Z</time>
      </trkpt>
      <trkpt lat="18.841" lon="98.99811">
        <time>2019-09-06T05:34:42Z</time>
      </trkpt>
      <trkpt lat="18.84117" lon="98.99798">
        <time>2019-09-06T05:34:43Z</time>
      </trkpt>
      <trkpt lat="18.84133" lon="98.99785">
        <time>2019-09-06T05:34:44Z</time>
      </trkpt>
      <trkpt lat="18.84149" lon="98.9977">
        <time>2019-09-06T05:34:45Z</time>
      </trkpt>
      <trkpt lat="18.84166" lon="98.99756">
        <time>2019-09-06T05:34:46Z</time>
      </trkpt>
      <trkpt lat="18.84184" lon="98.99743">
        <time>2019-09-06T05:34:47Z</time>
      </trkpt>
      <trkpt lat="18.842" lon="98.99729">
        <time>2019-09-06T05:34:49Z</time>
      </trkpt>
      <trkpt lat="18.84214" lon="98.99715">
        <time>2019-09-06T05:34:49Z</time>
      </trkpt>
      <trkpt lat="18.8423" lon="98.99702">
        <time>2019-09-06T05:34:50Z</time>
      </trkpt>
      <trkpt lat="18.84247" lon="98.99688">
        <time>2019-09-06T05:34:51Z</time>
      </trkpt>
      <trkpt lat="18.84264" lon="98.99674">
        <time>2019-09-06T05:34:52Z</time>
      </trkpt>
      <trkpt lat="18.8428" lon="98.99659">
        <time>2019-09-06T05:34:53Z</time>
      </trkpt>
      <trkpt lat="18.84297" lon="98.99644">
        <time>2019-09-06T05:34:54Z</time>
      </trkpt>
      <trkpt lat="18.84313" lon="98.99628">
        <time>2019-09-06T05:34:55Z</time>
      </trkpt>
      <trkpt lat="18.84329" lon="98.99613">
        <time>2019-09-06T05:34:56Z</time>
      </trkpt>
      <trkpt lat="18.84346" lon="98.99597">
        <time>2019-09-06T05:34:57Z</time>
      </trkpt>
      <trkpt lat="18.84363" lon="98.99582">
        <time>2019-09-06T05:34:58Z</time>
      </trkpt>
      <trkpt lat="18.84381" lon="98.99568">
        <time>2019-09-06T05:34:59Z</time>
      </trkpt>
      <trkpt lat="18.84397" lon="98.99553">
        <time>2019-09-06T05:35:00Z</time>
      </trkpt>
      <trkpt lat="18.84414" lon="98.99537">
        <time>2019-09-06T05:35:01Z</time>
      </trkpt>
      <trkpt lat="18.84432" lon="98.99523">
        <time>2019-09-06T05:35:02Z</time>
      </trkpt>
      <trkpt lat="18.84447" lon="98.99508">
        <time>2019-09-06T05:35:03Z</time>
      </trkpt>
      <trkpt lat="18.84465" lon="98.99493">
        <time>2019-09-06T05:35:04Z</time>
      </trkpt>
      <trkpt lat="18.84482" lon="98.99478">
        <time>2019-09-06T05:35:05Z</time>
      </trkpt>
      <trkpt lat="18.845" lon="98.99462">
        <time>2019-09-06T05:35:06Z</time>
      </trkpt>
      <trkpt lat="18.84513" lon="98.99447">
        <time>2019-09-06T05:35:07Z</time>
      </trkpt>
      <trkpt lat="18.84529" lon="98.9943">
        <time>2019-09-06T05:35:08Z</time>
      </trkpt>
      <trkpt lat="18.84545" lon="98.99413">
        <time>2019-09-06T05:35:09Z</time>
      </trkpt>
      <trkpt lat="18.84553" lon="98.99398">
        <time>2019-09-06T05:35:10Z</time>
      </trkpt>
      <trkpt lat="18.84568" lon="98.9938">
        <time>2019-09-06T05:35:11Z</time>
      </trkpt>
      <trkpt lat="18.84577" lon="98.99361">
        <time>2019-09-06T05:35:12Z</time>
      </trkpt>
      <trkpt lat="18.8459" lon="98.99341">
        <time>2019-09-06T05:35:13Z</time>
      </trkpt>
      <trkpt lat="18.84602" lon="98.99321">
        <time>2019-09-06T05:35:14Z</time>
      </trkpt>
      <trkpt lat="18.84611" lon="98.99299">
        <time>2019-09-06T05:35:15Z</time>
      </trkpt>
      <trkpt lat="18.8462" lon="98.99277">
        <time>2019-09-06T05:35:16Z</time>
      </trkpt>
      <trkpt lat="18.84626" lon="98.99255">
        <time>2019-09-06T05:35:17Z</time>
      </trkpt>
      <trkpt lat="18.84633" lon="98.99232">
        <time>2019-09-06T05:35:18Z</time>
      </trkpt>
      <trkpt lat="18.84638" lon="98.99209">
        <time>2019-09-06T05:35:19Z</time>
      </trkpt>
      <trkpt lat="18.84645" lon="98.99185">
        <time>2019-09-06T05:35:20Z</time>
      </trkpt>
      <trkpt lat="18.8465" lon="98.99162">
        <time>2019-09-06T05:35:21Z</time>
      </trkpt>
      <trkpt lat="18.84653" lon="98.9914">
        <time>2019-09-06T05:35:22Z</time>
      </trkpt>
      <trkpt lat="18.84651" lon="98.9912">
        <time>2019-09-06T05:35:23Z</time>
      </trkpt>
      <trkpt lat="18.84651" lon="98.99095">
        <time>2019-09-06T05:35:24Z</time>
      </trkpt>
      <trkpt lat="18.84652" lon="98.99065">
        <time>2019-09-06T05:35:25Z</time>
      </trkpt>
      <trkpt lat="18.84648" lon="98.99043">
        <time>2019-09-06T05:35:26Z</time>
      </trkpt>
      <trkpt lat="18.84645" lon="98.99016">
        <time>2019-09-06T05:35:27Z</time>
      </trkpt>
      <trkpt lat="18.84642" lon="98.98994">
        <time>2019-09-06T05:35:28Z</time>
      </trkpt>
      <trkpt lat="18.84636" lon="98.9897">
        <time>2019-09-06T05:35:29Z</time>
      </trkpt>
      <trkpt lat="18.84633" lon="98.98943">
        <time>2019-09-06T05:35:30Z</time>
      </trkpt>
      <trkpt lat="18.84625" lon="98.9892">
        <time>2019-09-06T05:35:31Z</time>
      </trkpt>
      <trkpt lat="18.84611" lon="98.98904">
        <time>2019-09-06T05:35:32Z</time>
      </trkpt>
      <trkpt lat="18.84604" lon="98.98883">
        <time>2019-09-06T05:35:33Z</time>
      </trkpt>
      <trkpt lat="18.84593" lon="98.98869">
        <time>2019-09-06T05:35:34Z</time>
      </trkpt>
      <trkpt lat="18.8458" lon="98.9885">
        <time>2019-09-06T05:35:35Z</time>
      </trkpt>
      <trkpt lat="18.84572" lon="98.98825">
        <time>2019-09-06T05:35:36Z</time>
      </trkpt>
      <trkpt lat="18.84564" lon="98.98804">
        <time>2019-09-06T05:35:37Z</time>
      </trkpt>
      <trkpt lat="18.84553" lon="98.98785">
        <time>2019-09-06T05:35:38Z</time>
      </trkpt>
      <trkpt lat="18.84542" lon="98.98768">
        <time>2019-09-06T05:35:39Z</time>
      </trkpt>
      <trkpt lat="18.84534" lon="98.9875">
        <time>2019-09-06T05:35:40Z</time>
      </trkpt>
      <trkpt lat="18.84523" lon="98.98734">
        <time>2019-09-06T05:35:41Z</time>
      </trkpt>
      <trkpt lat="18.84516" lon="98.98715">
        <time>2019-09-06T05:35:42Z</time>
      </trkpt>
      <trkpt lat="18.84508" lon="98.98693">
        <time>2019-09-06T05:35:43Z</time>
      </trkpt>
      <trkpt lat="18.84496" lon="98.98682">
        <time>2019-09-06T05:35:44Z</time>
      </trkpt>
      <trkpt lat="18.84486" lon="98.98664">
        <time>2019-09-06T05:35:45Z</time>
      </trkpt>
      <trkpt lat="18.84476" lon="98.98644">
        <time>2019-09-06T05:35:46Z</time>
      </trkpt>
      <trkpt lat="18.84468" lon="98.98624">
        <time>2019-09-06T05:35:47Z</time>
      </trkpt>
      <trkpt lat="18.84458" lon="98.98604">
        <time>2019-09-06T05:35:48Z</time>
      </trkpt>
      <trkpt lat="18.84449" lon="98.98583">
        <time>2019-09-06T05:35:49Z</time>
      </trkpt>
      <trkpt lat="18.8444" lon="98.98563">
        <time>2019-09-06T05:35:50Z</time>
      </trkpt>
      <trkpt lat="18.8443" lon="98.98543">
        <time>2019-09-06T05:35:51Z</time>
      </trkpt>
      <trkpt lat="18.84419" lon="98.98521">
        <time>2019-09-06T05:35:52Z</time>
      </trkpt>
      <trkpt lat="18.84409" lon="98.98501">
        <time>2019-09-06T05:35:53Z</time>
      </trkpt>
      <trkpt lat="18.84399" lon="98.98479">
        <time>2019-09-06T05:35:54Z</time>
      </trkpt>
      <trkpt lat="18.84389" lon="98.98459">
        <time>2019-09-06T05:35:55Z</time>
      </trkpt>
      <trkpt lat="18.84379" lon="98.9844">
        <time>2019-09-06T05:35:56Z</time>
      </trkpt>
      <trkpt lat="18.84369" lon="98.9842">
        <time>2019-09-06T05:35:57Z</time>
      </trkpt>
      <trkpt lat="18.84358" lon="98.98399">
        <time>2019-09-06T05:35:58Z</time>
      </trkpt>
      <trkpt lat="18.84348" lon="98.98379">
        <time>2019-09-06T05:35:59Z</time>
      </trkpt>
      <trkpt lat="18.84338" lon="98.98358">
        <time>2019-09-06T05:36:00Z</time>
      </trkpt>
      <trkpt lat="18.84327" lon="98.98338">
        <time>2019-09-06T05:36:01Z</time>
      </trkpt>
      <trkpt lat="18.84318" lon="98.98317">
        <time>2019-09-06T05:36:02Z</time>
      </trkpt>
      <trkpt lat="18.84307" lon="98.98297">
        <time>2019-09-06T05:36:03Z</time>
      </trkpt>
      <trkpt lat="18.84297" lon="98.98277">
        <time>2019-09-06T05:36:04Z</time>
      </trkpt>
      <trkpt lat="18.84287" lon="98.98257">
        <time>2019-09-06T05:36:05Z</time>
      </trkpt>
      <trkpt lat="18.84277" lon="98.98238">
        <time>2019-09-06T05:36:06Z</time>
      </trkpt>
      <trkpt lat="18.84264" lon="98.98221">
        <time>2019-09-06T05:36:07Z</time>
      </trkpt>
      <trkpt lat="18.84255" lon="98.982">
        <time>2019-09-06T05:36:08Z</time>
      </trkpt>
      <trkpt lat="18.84248" lon="98.98179">
        <time>2019-09-06T05:36:09Z</time>
      </trkpt>
      <trkpt lat="18.84238" lon="98.98158">
        <time>2019-09-06T05:36:10Z</time>
      </trkpt>
      <trkpt lat="18.84228" lon="98.98143">
        <time>2019-09-06T05:36:11Z</time>
      </trkpt>
      <trkpt lat="18.84217" lon="98.98122">
        <time>2019-09-06T05:36:12Z</time>
      </trkpt>
      <trkpt lat="18.84206" lon="98.98101">
        <time>2019-09-06T05:36:13Z</time>
      </trkpt>
      <trkpt lat="18.84193" lon="98.98081">
        <time>2019-09-06T05:36:14Z</time>
      </trkpt>
      <trkpt lat="18.84182" lon="98.9806">
        <time>2019-09-06T05:36:15Z</time>
      </trkpt>
      <trkpt lat="18.84172" lon="98.98038">
        <time>2019-09-06T05:36:16Z</time>
      </trkpt>
      <trkpt lat="18.84161" lon="98.98016">
        <time>2019-09-06T05:36:17Z</time>
      </trkpt>
      <trkpt lat="18.84147" lon="98.97997">
        <time>2019-09-06T05:36:18Z</time>
      </trkpt>
      <trkpt lat="18.84137" lon="98.9798">
        <time>2019-09-06T05:36:19Z</time>
      </trkpt>
      <trkpt lat="18.84125" lon="98.97963">
        <time>2019-09-06T05:36:20Z</time>
      </trkpt>
      <trkpt lat="18.84113" lon="98.97943">
        <time>2019-09-06T05:36:21Z</time>
      </trkpt>
      <trkpt lat="18.84102" lon="98.97922">
        <time>2019-09-06T05:36:22Z</time>
      </trkpt>
      <trkpt lat="18.84092" lon="98.97899">
        <time>2019-09-06T05:36:23Z</time>
      </trkpt>
      <trkpt lat="18.84083" lon="98.97881">
        <time>2019-09-06T05:36:24Z</time>
      </trkpt>
      <trkpt lat="18.84074" lon="98.97862">
        <time>2019-09-06T05:36:25Z</time>
      </trkpt>
      <trkpt lat="18.84066" lon="98.97839">
        <time>2019-09-06T05:36:26Z</time>
      </trkpt>
      <trkpt lat="18.84059" lon="98.97818">
        <time>2019-09-06T05:36:27Z</time>
      </trkpt>
      <trkpt lat="18.84053" lon="98.97798">
        <time>2019-09-06T05:36:28Z</time>
      </trkpt>
      <trkpt lat="18.84047" lon="98.97776">
        <time>2019-09-06T05:36:29Z</time>
      </trkpt>
      <trkpt lat="18.84043" lon="98.97753">
        <time>2019-09-06T05:36:30Z</time>
      </trkpt>
      <trkpt lat="18.84038" lon="98.97732">
        <time>2019-09-06T05:36:31Z</time>
      </trkpt>
      <trkpt lat="18.84032" lon="98.97714">
        <time>2019-09-06T05:36:32Z</time>
      </trkpt>
      <trkpt lat="18.84028" lon="98.97689">
        <time>2019-09-06T05:36:33Z</time>
      </trkpt>
      <trkpt lat="18.84026" lon="98.97669">
        <time>2019-09-06T05:36:34Z</time>
      </trkpt>
      <trkpt lat="18.8402" lon="98.97654">
        <time>2019-09-06T05:36:35Z</time>
      </trkpt>
      <trkpt lat="18.84017" lon="98.97634">
        <time>2019-09-06T05:36:36Z</time>
      </trkpt>
      <trkpt lat="18.84013" lon="98.97616">
        <time>2019-09-06T05:36:37Z</time>
      </trkpt>
      <trkpt lat="18.84009" lon="98.97599">
        <time>2019-09-06T05:36:38Z</time>
      </trkpt>
      <trkpt lat="18.84006" lon="98.97582">
        <time>2019-09-06T05:36:39Z</time>
      </trkpt>
      <trkpt lat="18.84004" lon="98.97568">
        <time>2019-09-06T05:36:40Z</time>
      </trkpt>
      <trkpt lat="18.83999" lon="98.9756">
        <time>2019-09-06T05:36:41Z</time>
      </trkpt>
      <trkpt lat="18.83996" lon="98.97548">
        <time>2019-09-06T05:36:42Z</time>
      </trkpt>
      <trkpt lat="18.83991" lon="98.97538">
        <time>2019-09-06T05:36:43Z</time>
      </trkpt>
      <trkpt lat="18.83988" lon="98.97524">
        <time>2019-09-06T05:36:44Z</time>
      </trkpt>
      <trkpt lat="18.83984" lon="98.97516">
        <time>2019-09-06T05:36:45Z</time>
      </trkpt>
      <trkpt lat="18.8398" lon="98.97505">
        <time>2019-09-06T05:36:46Z</time>
      </trkpt>
      <trkpt lat="18.83979" lon="98.97492">
        <time>2019-09-06T05:36:47Z</time>
      </trkpt>
      <trkpt lat="18.83978" lon="98.97484">
        <time>2019-09-06T05:36:48Z</time>
      </trkpt>
      <trkpt lat="18.83975" lon="98.97478">
        <time>2019-09-06T05:36:49Z</time>
      </trkpt>
      <trkpt lat="18.83975" lon="98.97469">
        <time>2019-09-06T05:36:50Z</time>
      </trkpt>
      <trkpt lat="18.83974" lon="98.97466">
        <time>2019-09-06T05:36:51Z</time>
      </trkpt>
      <trkpt lat="18.83972" lon="98.97468">
        <time>2019-09-06T05:36:52Z</time>
      </trkpt>
      <trkpt lat="18.83971" lon="98.97465">
        <time>2019-09-06T05:36:53Z</time>
      </trkpt>
      <trkpt lat="18.83971" lon="98.97462">
        <time>2019-09-06T05:36:54Z</time>
      </trkpt>
      <trkpt lat="18.8397" lon="98.97459">
        <time>2019-09-06T05:36:55Z</time>
      </trkpt>
      <trkpt lat="18.83968" lon="98.97456">
        <time>2019-09-06T05:36:56Z</time>
      </trkpt>
      <trkpt lat="18.83968" lon="98.9745">
        <time>2019-09-06T05:36:57Z</time>
      </trkpt>
      <trkpt lat="18.83968" lon="98.97445">
        <time>2019-09-06T05:36:58Z</time>
      </trkpt>
      <trkpt lat="18.83968" lon="98.97438">
        <time>2019-09-06T05:36:59Z</time>
      </trkpt>
      <trkpt lat="18.83967" lon="98.97429">
        <time>2019-09-06T05:37:00Z</time>
      </trkpt>
      <trkpt lat="18.83966" lon="98.97423">
        <time>2019-09-06T05:37:01Z</time>
      </trkpt>
      <trkpt lat="18.83966" lon="98.97416">
        <time>2019-09-06T05:37:02Z</time>
      </trkpt>
      <trkpt lat="18.83966" lon="98.97411">
        <time>2019-09-06T05:37:03Z</time>
      </trkpt>
      <trkpt lat="18.83967" lon="98.97407">
        <time>2019-09-06T05:37:04Z</time>
      </trkpt>
      <trkpt lat="18.83969" lon="98.97401">
        <time>2019-09-06T05:37:05Z</time>
      </trkpt>
      <trkpt lat="18.83971" lon="98.97396">
        <time>2019-09-06T05:37:06Z</time>
      </trkpt>
      <trkpt lat="18.83974" lon="98.97393">
        <time>2019-09-06T05:37:07Z</time>
      </trkpt>
      <trkpt lat="18.83977" lon="98.97388">
        <time>2019-09-06T05:37:08Z</time>
      </trkpt>
      <trkpt lat="18.83982" lon="98.97384">
        <time>2019-09-06T05:37:09Z</time>
      </trkpt>
      <trkpt lat="18.83987" lon="98.97379">
        <time>2019-09-06T05:37:10Z</time>
      </trkpt>
      <trkpt lat="18.83992" lon="98.97375">
        <time>2019-09-06T05:37:11Z</time>
      </trkpt>
      <trkpt lat="18.84" lon="98.97372">
        <time>2019-09-06T05:37:12Z</time>
      </trkpt>
      <trkpt lat="18.84008" lon="98.97367">
        <time>2019-09-06T05:37:13Z</time>
      </trkpt>
      <trkpt lat="18.84019" lon="98.97363">
        <time>2019-09-06T05:37:14Z</time>
      </trkpt>
      <trkpt lat="18.84027" lon="98.9736">
        <time>2019-09-06T05:37:15Z</time>
      </trkpt>
      <trkpt lat="18.84036" lon="98.97357">
        <time>2019-09-06T05:37:16Z</time>
      </trkpt>
      <trkpt lat="18.84044" lon="98.97354">
        <time>2019-09-06T05:37:17Z</time>
      </trkpt>
      <trkpt lat="18.84052" lon="98.97351">
        <time>2019-09-06T05:37:18Z</time>
      </trkpt>
      <trkpt lat="18.84059" lon="98.97347">
        <time>2019-09-06T05:37:19Z</time>
      </trkpt>
      <trkpt lat="18.84066" lon="98.97342">
        <time>2019-09-06T05:37:20Z</time>
      </trkpt>
      <trkpt lat="18.84077" lon="98.97338">
        <time>2019-09-06T05:37:21Z</time>
      </trkpt>
      <trkpt lat="18.84085" lon="98.97333">
        <time>2019-09-06T05:37:22Z</time>
      </trkpt>
      <trkpt lat="18.84096" lon="98.9733">
        <time>2019-09-06T05:37:23Z</time>
      </trkpt>
      <trkpt lat="18.84105" lon="98.97327">
        <time>2019-09-06T05:37:25Z</time>
      </trkpt>
      <trkpt lat="18.84114" lon="98.97324">
        <time>2019-09-06T05:37:25Z</time>
      </trkpt>
      <trkpt lat="18.84123" lon="98.9732">
        <time>2019-09-06T05:37:26Z</time>
      </trkpt>
      <trkpt lat="18.84131" lon="98.97318">
        <time>2019-09-06T05:37:27Z</time>
      </trkpt>
      <trkpt lat="18.84141" lon="98.97314">
        <time>2019-09-06T05:37:28Z</time>
      </trkpt>
      <trkpt lat="18.84149" lon="98.97311">
        <time>2019-09-06T05:37:29Z</time>
      </trkpt>
      <trkpt lat="18.84157" lon="98.97308">
        <time>2019-09-06T05:37:30Z</time>
      </trkpt>
      <trkpt lat="18.84166" lon="98.97304">
        <time>2019-09-06T05:37:31Z</time>
      </trkpt>
      <trkpt lat="18.84174" lon="98.97301">
        <time>2019-09-06T05:37:32Z</time>
      </trkpt>
      <trkpt lat="18.84185" lon="98.97297">
        <time>2019-09-06T05:37:33Z</time>
      </trkpt>
      <trkpt lat="18.84194" lon="98.97294">
        <time>2019-09-06T05:37:34Z</time>
      </trkpt>
      <trkpt lat="18.84203" lon="98.97291">
        <time>2019-09-06T05:37:35Z</time>
      </trkpt>
      <trkpt lat="18.84215" lon="98.97286">
        <time>2019-09-06T05:37:36Z</time>
      </trkpt>
      <trkpt lat="18.84226" lon="98.97281">
        <time>2019-09-06T05:37:37Z</time>
      </trkpt>
      <trkpt lat="18.84237" lon="98.97278">
        <time>2019-09-06T05:37:38Z</time>
      </trkpt>
      <trkpt lat="18.84246" lon="98.97274">
        <time>2019-09-06T05:37:39Z</time>
      </trkpt>
      <trkpt lat="18.84255" lon="98.97271">
        <time>2019-09-06T05:37:40Z</time>
      </trkpt>
      <trkpt lat="18.84266" lon="98.97267">
        <time>2019-09-06T05:37:41Z</time>
      </trkpt>
      <trkpt lat="18.84275" lon="98.97263">
        <time>2019-09-06T05:37:42Z</time>
      </trkpt>
      <trkpt lat="18.84284" lon="98.97259">
        <time>2019-09-06T05:37:43Z</time>
      </trkpt>
      <trkpt lat="18.84295" lon="98.97254">
        <time>2019-09-06T05:37:44Z</time>
      </trkpt>
      <trkpt lat="18.84306" lon="98.9725">
        <time>2019-09-06T05:37:45Z</time>
      </trkpt>
      <trkpt lat="18.84319" lon="98.97246">
        <time>2019-09-06T05:37:46Z</time>
      </trkpt>
      <trkpt lat="18.8433" lon="98.97241">
        <time>2019-09-06T05:37:47Z</time>
      </trkpt>
      <trkpt lat="18.84341" lon="98.97237">
        <time>2019-09-06T05:37:48Z</time>
      </trkpt>
      <trkpt lat="18.84354" lon="98.9723">
        <time>2019-09-06T05:37:49Z</time>
      </trkpt>
      <trkpt lat="18.84366" lon="98.97225">
        <time>2019-09-06T05:37:50Z</time>
      </trkpt>
      <trkpt lat="18.84379" lon="98.97219">
        <time>2019-09-06T05:37:51Z</time>
      </trkpt>
      <trkpt lat="18.84393" lon="98.97214">
        <time>2019-09-06T05:37:52Z</time>
      </trkpt>
      <trkpt lat="18.84407" lon="98.97209">
        <time>2019-09-06T05:37:53Z</time>
      </trkpt>
      <trkpt lat="18.84422" lon="98.97203">
        <time>2019-09-06T05:37:54Z</time>
      </trkpt>
      <trkpt lat="18.84436" lon="98.97196">
        <time>2019-09-06T05:37:55Z</time>
      </trkpt>
      <trkpt lat="18.84454" lon="98.97188">
        <time>2019-09-06T05:37:56Z</time>
      </trkpt>
      <trkpt lat="18.84474" lon="98.97182">
        <time>2019-09-06T05:37:57Z</time>
      </trkpt>
      <trkpt lat="18.84493" lon="98.97176">
        <time>2019-09-06T05:37:58Z</time>
      </trkpt>
      <trkpt lat="18.8451" lon="98.97169">
        <time>2019-09-06T05:37:59Z</time>
      </trkpt>
      <trkpt lat="18.84526" lon="98.97163">
        <time>2019-09-06T05:38:00Z</time>
      </trkpt>
      <trkpt lat="18.84542" lon="98.97157">
        <time>2019-09-06T05:38:01Z</time>
      </trkpt>
      <trkpt lat="18.84557" lon="98.97149">
        <time>2019-09-06T05:38:02Z</time>
      </trkpt>
      <trkpt lat="18.84574" lon="98.97142">
        <time>2019-09-06T05:38:03Z</time>
      </trkpt>
      <trkpt lat="18.84589" lon="98.97135">
        <time>2019-09-06T05:38:04Z</time>
      </trkpt>
      <trkpt lat="18.84607" lon="98.97128">
        <time>2019-09-06T05:38:05Z</time>
      </trkpt>
      <trkpt lat="18.84624" lon="98.97122">
        <time>2019-09-06T05:38:06Z</time>
      </trkpt>
      <trkpt lat="18.8464" lon="98.97115">
        <time>2019-09-06T05:38:07Z</time>
      </trkpt>
      <trkpt lat="18.84655" lon="98.9711">
        <time>2019-09-06T05:38:08Z</time>
      </trkpt>
      <trkpt lat="18.84669" lon="98.97103">
        <time>2019-09-06T05:38:09Z</time>
      </trkpt>
      <trkpt lat="18.84683" lon="98.97098">
        <time>2019-09-06T05:38:10Z</time>
      </trkpt>
      <trkpt lat="18.84697" lon="98.97093">
        <time>2019-09-06T05:38:11Z</time>
      </trkpt>
      <trkpt lat="18.84711" lon="98.97087">
        <time>2019-09-06T05:38:12Z</time>
      </trkpt>
      <trkpt lat="18.84725" lon="98.97082">
        <time>2019-09-06T05:38:13Z</time>
      </trkpt>
      <trkpt lat="18.8474" lon="98.97076">
        <time>2019-09-06T05:38:14Z</time>
      </trkpt>
      <trkpt lat="18.84754" lon="98.97071">
        <time>2019-09-06T05:38:15Z</time>
      </trkpt>
      <trkpt lat="18.84769" lon="98.97065">
        <time>2019-09-06T05:38:16Z</time>
      </trkpt>
      <trkpt lat="18.84783" lon="98.9706">
        <time>2019-09-06T05:38:17Z</time>
      </trkpt>
      <trkpt lat="18.84797" lon="98.97055">
        <time>2019-09-06T05:38:18Z</time>
      </trkpt>
      <trkpt lat="18.84809" lon="98.9705">
        <time>2019-09-06T05:38:19Z</time>
      </trkpt>
      <trkpt lat="18.8482" lon="98.97045">
        <time>2019-09-06T05:38:20Z</time>
      </trkpt>
      <trkpt lat="18.84831" lon="98.97042">
        <time>2019-09-06T05:38:21Z</time>
      </trkpt>
      <trkpt lat="18.84841" lon="98.97038">
        <time>2019-09-06T05:38:22Z</time>
      </trkpt>
      <trkpt lat="18.84852" lon="98.97034">
        <time>2019-09-06T05:38:23Z</time>
      </trkpt>
      <trkpt lat="18.84864" lon="98.9703">
        <time>2019-09-06T05:38:24Z</time>
      </trkpt>
      <trkpt lat="18.84874" lon="98.97025">
        <time>2019-09-06T05:38:25Z</time>
      </trkpt>
      <trkpt lat="18.84885" lon="98.97022">
        <time>2019-09-06T05:38:26Z</time>
      </trkpt>
      <trkpt lat="18.84896" lon="98.97019">
        <time>2019-09-06T05:38:27Z</time>
      </trkpt>
      <trkpt lat="18.84908" lon="98.97015">
        <time>2019-09-06T05:38:28Z</time>
      </trkpt>
      <trkpt lat="18.84916" lon="98.97012">
        <time>2019-09-06T05:38:29Z</time>
      </trkpt>
      <trkpt lat="18.84925" lon="98.97008">
        <time>2019-09-06T05:38:30Z</time>
      </trkpt>
      <trkpt lat="18.84933" lon="98.97004">
        <time>2019-09-06T05:38:31Z</time>
      </trkpt>
      <trkpt lat="18.84944" lon="98.97001">
        <time>2019-09-06T05:38:32Z</time>
      </trkpt>
      <trkpt lat="18.84953" lon="98.96998">
        <time>2019-09-06T05:38:33Z</time>
      </trkpt>
      <trkpt lat="18.8496" lon="98.96995">
        <time>2019-09-06T05:38:34Z</time>
      </trkpt>
      <trkpt lat="18.84965" lon="98.96992">
        <time>2019-09-06T05:38:35Z</time>
      </trkpt>
      <trkpt lat="18.84975" lon="98.96989">
        <time>2019-09-06T05:38:36Z</time>
      </trkpt>
      <trkpt lat="18.84985" lon="98.96985">
        <time>2019-09-06T05:38:37Z</time>
      </trkpt>
      <trkpt lat="18.84995" lon="98.96982">
        <time>2019-09-06T05:38:38Z</time>
      </trkpt>
      <trkpt lat="18.85006" lon="98.96978">
        <time>2019-09-06T05:38:39Z</time>
      </trkpt>
      <trkpt lat="18.85017" lon="98.96973">
        <time>2019-09-06T05:38:40Z</time>
      </trkpt>
      <trkpt lat="18.8503" lon="98.96966">
        <time>2019-09-06T05:38:41Z</time>
      </trkpt>
      <trkpt lat="18.85042" lon="98.9696">
        <time>2019-09-06T05:38:42Z</time>
      </trkpt>
      <trkpt lat="18.85054" lon="98.96953">
        <time>2019-09-06T05:38:43Z</time>
      </trkpt>
      <trkpt lat="18.85067" lon="98.96948">
        <time>2019-09-06T05:38:44Z</time>
      </trkpt>
      <trkpt lat="18.8508" lon="98.96943">
        <time>2019-09-06T05:38:45Z</time>
      </trkpt>
      <trkpt lat="18.85091" lon="98.96938">
        <time>2019-09-06T05:38:46Z</time>
      </trkpt>
      <trkpt lat="18.851" lon="98.96933">
        <time>2019-09-06T05:38:47Z</time>
      </trkpt>
      <trkpt lat="18.8511" lon="98.9693">
        <time>2019-09-06T05:38:48Z</time>
      </trkpt>
      <trkpt lat="18.8512" lon="98.96927">
        <time>2019-09-06T05:38:49Z</time>
      </trkpt>
      <trkpt lat="18.8513" lon="98.96924">
        <time>2019-09-06T05:38:50Z</time>
      </trkpt>
      <trkpt lat="18.85141" lon="98.96919">
        <time>2019-09-06T05:38:51Z</time>
      </trkpt>
      <trkpt lat="18.85154" lon="98.96915">
        <time>2019-09-06T05:38:52Z</time>
      </trkpt>
      <trkpt lat="18.85169" lon="98.9691">
        <time>2019-09-06T05:38:53Z</time>
      </trkpt>
      <trkpt lat="18.85184" lon="98.96905">
        <time>2019-09-06T05:38:54Z</time>
      </trkpt>
      <trkpt lat="18.85201" lon="98.96899">
        <time>2019-09-06T05:38:55Z</time>
      </trkpt>
      <trkpt lat="18.85218" lon="98.96894">
        <time>2019-09-06T05:38:56Z</time>
      </trkpt>
      <trkpt lat="18.85236" lon="98.96887">
        <time>2019-09-06T05:38:57Z</time>
      </trkpt>
      <trkpt lat="18.85253" lon="98.96881">
        <time>2019-09-06T05:38:58Z</time>
      </trkpt>
      <trkpt lat="18.85271" lon="98.96876">
        <time>2019-09-06T05:38:59Z</time>
      </trkpt>
      <trkpt lat="18.85287" lon="98.9687">
        <time>2019-09-06T05:39:00Z</time>
      </trkpt>
      <trkpt lat="18.85302" lon="98.96866">
        <time>2019-09-06T05:39:01Z</time>
      </trkpt>
      <trkpt lat="18.85317" lon="98.96861">
        <time>2019-09-06T05:39:02Z</time>
      </trkpt>
      <trkpt lat="18.85332" lon="98.96855">
        <time>2019-09-06T05:39:03Z</time>
      </trkpt>
      <trkpt lat="18.85347" lon="98.96849">
        <time>2019-09-06T05:39:04Z</time>
      </trkpt>
      <trkpt lat="18.85362" lon="98.96843">
        <time>2019-09-06T05:39:05Z</time>
      </trkpt>
      <trkpt lat="18.85377" lon="98.96837">
        <time>2019-09-06T05:39:06Z</time>
      </trkpt>
      <trkpt lat="18.85392" lon="98.96832">
        <time>2019-09-06T05:39:07Z</time>
      </trkpt>
      <trkpt lat="18.85408" lon="98.96827">
        <time>2019-09-06T05:39:08Z</time>
      </trkpt>
      <trkpt lat="18.85424" lon="98.96821">
        <time>2019-09-06T05:39:09Z</time>
      </trkpt>
      <trkpt lat="18.85439" lon="98.96816">
        <time>2019-09-06T05:39:10Z</time>
      </trkpt>
      <trkpt lat="18.85454" lon="98.96811">
        <time>2019-09-06T05:39:11Z</time>
      </trkpt>
      <trkpt lat="18.85467" lon="98.96806">
        <time>2019-09-06T05:39:12Z</time>
      </trkpt>
      <trkpt lat="18.85481" lon="98.96801">
        <time>2019-09-06T05:39:13Z</time>
      </trkpt>
      <trkpt lat="18.85494" lon="98.96797">
        <time>2019-09-06T05:39:14Z</time>
      </trkpt>
      <trkpt lat="18.85508" lon="98.96793">
        <time>2019-09-06T05:39:15Z</time>
      </trkpt>
      <trkpt lat="18.85521" lon="98.96789">
        <time>2019-09-06T05:39:16Z</time>
      </trkpt>
      <trkpt lat="18.85535" lon="98.96785">
        <time>2019-09-06T05:39:17Z</time>
      </trkpt>
      <trkpt lat="18.85547" lon="98.96782">
        <time>2019-09-06T05:39:18Z</time>
      </trkpt>
      <trkpt lat="18.85558" lon="98.96778">
        <time>2019-09-06T05:39:19Z</time>
      </trkpt>
      <trkpt lat="18.85569" lon="98.96775">
        <time>2019-09-06T05:39:20Z</time>
      </trkpt>
      <trkpt lat="18.85581" lon="98.96771">
        <time>2019-09-06T05:39:21Z</time>
      </trkpt>
      <trkpt lat="18.85593" lon="98.96767">
        <time>2019-09-06T05:39:22Z</time>
      </trkpt>
      <trkpt lat="18.85605" lon="98.96763">
        <time>2019-09-06T05:39:23Z</time>
      </trkpt>
      <trkpt lat="18.85618" lon="98.96759">
        <time>2019-09-06T05:39:24Z</time>
      </trkpt>
      <trkpt lat="18.85631" lon="98.96754">
        <time>2019-09-06T05:39:25Z</time>
      </trkpt>
      <trkpt lat="18.85645" lon="98.9675">
        <time>2019-09-06T05:39:26Z</time>
      </trkpt>
      <trkpt lat="18.85659" lon="98.96746">
        <time>2019-09-06T05:39:27Z</time>
      </trkpt>
      <trkpt lat="18.85672" lon="98.96742">
        <time>2019-09-06T05:39:28Z</time>
      </trkpt>
      <trkpt lat="18.85686" lon="98.96737">
        <time>2019-09-06T05:39:29Z</time>
      </trkpt>
      <trkpt lat="18.85699" lon="98.96733">
        <time>2019-09-06T05:39:30Z</time>
      </trkpt>
      <trkpt lat="18.85713" lon="98.96729">
        <time>2019-09-06T05:39:31Z</time>
      </trkpt>
      <trkpt lat="18.85728" lon="98.96725">
        <time>2019-09-06T05:39:32Z</time>
      </trkpt>
      <trkpt lat="18.85743" lon="98.96721">
        <time>2019-09-06T05:39:33Z</time>
      </trkpt>
      <trkpt lat="18.85757" lon="98.96717">
        <time>2019-09-06T05:39:34Z</time>
      </trkpt>
      <trkpt lat="18.8577" lon="98.96713">
        <time>2019-09-06T05:39:35Z</time>
      </trkpt>
      <trkpt lat="18.85785" lon="98.96708">
        <time>2019-09-06T05:39:36Z</time>
      </trkpt>
      <trkpt lat="18.85801" lon="98.96703">
        <time>2019-09-06T05:39:37Z</time>
      </trkpt>
      <trkpt lat="18.85816" lon="98.96697">
        <time>2019-09-06T05:39:38Z</time>
      </trkpt>
      <trkpt lat="18.85831" lon="98.96693">
        <time>2019-09-06T05:39:39Z</time>
      </trkpt>
      <trkpt lat="18.85846" lon="98.96687">
        <time>2019-09-06T05:39:40Z</time>
      </trkpt>
      <trkpt lat="18.85861" lon="98.96682">
        <time>2019-09-06T05:39:41Z</time>
      </trkpt>
      <trkpt lat="18.85878" lon="98.96676">
        <time>2019-09-06T05:39:42Z</time>
      </trkpt>
      <trkpt lat="18.85893" lon="98.96672">
        <time>2019-09-06T05:39:43Z</time>
      </trkpt>
      <trkpt lat="18.85909" lon="98.96666">
        <time>2019-09-06T05:39:44Z</time>
      </trkpt>
      <trkpt lat="18.85926" lon="98.96662">
        <time>2019-09-06T05:39:45Z</time>
      </trkpt>
      <trkpt lat="18.85942" lon="98.96657">
        <time>2019-09-06T05:39:46Z</time>
      </trkpt>
      <trkpt lat="18.85958" lon="98.96652">
        <time>2019-09-06T05:39:47Z</time>
      </trkpt>
      <trkpt lat="18.85975" lon="98.96645">
        <time>2019-09-06T05:39:48Z</time>
      </trkpt>
      <trkpt lat="18.85995" lon="98.96638">
        <time>2019-09-06T05:39:49Z</time>
      </trkpt>
      <trkpt lat="18.86014" lon="98.96632">
        <time>2019-09-06T05:39:50Z</time>
      </trkpt>
      <trkpt lat="18.86033" lon="98.96626">
        <time>2019-09-06T05:39:51Z</time>
      </trkpt>
      <trkpt lat="18.86054" lon="98.9662">
        <time>2019-09-06T05:39:52Z</time>
      </trkpt>
      <trkpt lat="18.86075" lon="98.96614">
        <time>2019-09-06T05:39:53Z</time>
      </trkpt>
      <trkpt lat="18.86096" lon="98.96609">
        <time>2019-09-06T05:39:54Z</time>
      </trkpt>
      <trkpt lat="18.86117" lon="98.96603">
        <time>2019-09-06T05:39:55Z</time>
      </trkpt>
      <trkpt lat="18.86138" lon="98.96596">
        <time>2019-09-06T05:39:56Z</time>
      </trkpt>
      <trkpt lat="18.86159" lon="98.96589">
        <time>2019-09-06T05:39:57Z</time>
      </trkpt>
      <trkpt lat="18.86179" lon="98.96581">
        <time>2019-09-06T05:39:58Z</time>
      </trkpt>
      <trkpt lat="18.862" lon="98.96574">
        <time>2019-09-06T05:39:59Z</time>
      </trkpt>
      <trkpt lat="18.86221" lon="98.96566">
        <time>2019-09-06T05:40:00Z</time>
      </trkpt>
      <trkpt lat="18.86242" lon="98.9656">
        <time>2019-09-06T05:40:01Z</time>
      </trkpt>
      <trkpt lat="18.86262" lon="98.96553">
        <time>2019-09-06T05:40:02Z</time>
      </trkpt>
      <trkpt lat="18.86282" lon="98.96546">
        <time>2019-09-06T05:40:03Z</time>
      </trkpt>
      <trkpt lat="18.86301" lon="98.96539">
        <time>2019-09-06T05:40:04Z</time>
      </trkpt>
      <trkpt lat="18.86321" lon="98.96532">
        <time>2019-09-06T05:40:05Z</time>
      </trkpt>
      <trkpt lat="18.86341" lon="98.96525">
        <time>2019-09-06T05:40:06Z</time>
      </trkpt>
      <trkpt lat="18.86361" lon="98.96518">
        <time>2019-09-06T05:40:07Z</time>
      </trkpt>
      <trkpt lat="18.86382" lon="98.96511">
        <time>2019-09-06T05:40:08Z</time>
      </trkpt>
      <trkpt lat="18.86402" lon="98.96505">
        <time>2019-09-06T05:40:09Z</time>
      </trkpt>
      <trkpt lat="18.86423" lon="98.96499">
        <time>2019-09-06T05:40:10Z</time>
      </trkpt>
      <trkpt lat="18.86443" lon="98.96492">
        <time>2019-09-06T05:40:11Z</time>
      </trkpt>
      <trkpt lat="18.86463" lon="98.96486">
        <time>2019-09-06T05:40:12Z</time>
      </trkpt>
      <trkpt lat="18.86484" lon="98.96479">
        <time>2019-09-06T05:40:13Z</time>
      </trkpt>
      <trkpt lat="18.86505" lon="98.96473">
        <time>2019-09-06T05:40:14Z</time>
      </trkpt>
      <trkpt lat="18.86525" lon="98.96467">
        <time>2019-09-06T05:40:15Z</time>
      </trkpt>
      <trkpt lat="18.86545" lon="98.9646">
        <time>2019-09-06T05:40:16Z</time>
      </trkpt>
      <trkpt lat="18.86567" lon="98.96454">
        <time>2019-09-06T05:40:17Z</time>
      </trkpt>
      <trkpt lat="18.86588" lon="98.96447">
        <time>2019-09-06T05:40:18Z</time>
      </trkpt>
      <trkpt lat="18.8661" lon="98.9644">
        <time>2019-09-06T05:40:19Z</time>
      </trkpt>
      <trkpt lat="18.8663" lon="98.96434">
        <time>2019-09-06T05:40:20Z</time>
      </trkpt>
      <trkpt lat="18.86651" lon="98.96428">
        <time>2019-09-06T05:40:21Z</time>
      </trkpt>
      <trkpt lat="18.86672" lon="98.96421">
        <time>2019-09-06T05:40:22Z</time>
      </trkpt>
      <trkpt lat="18.86693" lon="98.96415">
        <time>2019-09-06T05:40:23Z</time>
      </trkpt>
      <trkpt lat="18.86714" lon="98.96409">
        <time>2019-09-06T05:40:24Z</time>
      </trkpt>
      <trkpt lat="18.86734" lon="98.96403">
        <time>2019-09-06T05:40:25Z</time>
      </trkpt>
      <trkpt lat="18.86755" lon="98.96396">
        <time>2019-09-06T05:40:26Z</time>
      </trkpt>
      <trkpt lat="18.86776" lon="98.9639">
        <time>2019-09-06T05:40:27Z</time>
      </trkpt>
      <trkpt lat="18.86797" lon="98.96384">
        <time>2019-09-06T05:40:28Z</time>
      </trkpt>
      <trkpt lat="18.86822" lon="98.96389">
        <time>2019-09-06T05:40:29Z</time>
      </trkpt>
      <trkpt lat="18.86839" lon="98.96388">
        <time>2019-09-06T05:40:30Z</time>
      </trkpt>
      <trkpt lat="18.86865" lon="98.96385">
        <time>2019-09-06T05:40:31Z</time>
      </trkpt>
      <trkpt lat="18.86883" lon="98.9638">
        <time>2019-09-06T05:40:32Z</time>
      </trkpt>
      <trkpt lat="18.86899" lon="98.96375">
        <time>2019-09-06T05:40:33Z</time>
      </trkpt>
      <trkpt lat="18.86921" lon="98.96371">
        <time>2019-09-06T05:40:34Z</time>
      </trkpt>
      <trkpt lat="18.86942" lon="98.96366">
        <time>2019-09-06T05:40:35Z</time>
      </trkpt>
      <trkpt lat="18.86963" lon="98.96361">
        <time>2019-09-06T05:40:36Z</time>
      </trkpt>
      <trkpt lat="18.86985" lon="98.96357">
        <time>2019-09-06T05:40:37Z</time>
      </trkpt>
      <trkpt lat="18.87005" lon="98.96352">
        <time>2019-09-06T05:40:38Z</time>
      </trkpt>
      <trkpt lat="18.87027" lon="98.96347">
        <time>2019-09-06T05:40:39Z</time>
      </trkpt>
      <trkpt lat="18.87049" lon="98.96343">
        <time>2019-09-06T05:40:40Z</time>
      </trkpt>
      <trkpt lat="18.87071" lon="98.96339">
        <time>2019-09-06T05:40:41Z</time>
      </trkpt>
      <trkpt lat="18.87092" lon="98.96335">
        <time>2019-09-06T05:40:42Z</time>
      </trkpt>
      <trkpt lat="18.87114" lon="98.9633">
        <time>2019-09-06T05:40:43Z</time>
      </trkpt>
      <trkpt lat="18.87135" lon="98.96326">
        <time>2019-09-06T05:40:44Z</time>
      </trkpt>
      <trkpt lat="18.87158" lon="98.96323">
        <time>2019-09-06T05:40:45Z</time>
      </trkpt>
      <trkpt lat="18.87179" lon="98.96318">
        <time>2019-09-06T05:40:46Z</time>
      </trkpt>
      <trkpt lat="18.872" lon="98.96313">
        <time>2019-09-06T05:40:47Z</time>
      </trkpt>
      <trkpt lat="18.87221" lon="98.96309">
        <time>2019-09-06T05:40:48Z</time>
      </trkpt>
      <trkpt lat="18.87243" lon="98.96305">
        <time>2019-09-06T05:40:49Z</time>
      </trkpt>
      <trkpt lat="18.87264" lon="98.963">
        <time>2019-09-06T05:40:50Z</time>
      </trkpt>
      <trkpt lat="18.87286" lon="98.96296">
        <time>2019-09-06T05:40:51Z</time>
      </trkpt>
      <trkpt lat="18.87307" lon="98.96291">
        <time>2019-09-06T05:40:52Z</time>
      </trkpt>
      <trkpt lat="18.87329" lon="98.96287">
        <time>2019-09-06T05:40:53Z</time>
      </trkpt>
      <trkpt lat="18.8735" lon="98.96282">
        <time>2019-09-06T05:40:54Z</time>
      </trkpt>
      <trkpt lat="18.87372" lon="98.96278">
        <time>2019-09-06T05:40:55Z</time>
      </trkpt>
      <trkpt lat="18.87395" lon="98.96273">
        <time>2019-09-06T05:40:56Z</time>
      </trkpt>
      <trkpt lat="18.87418" lon="98.96269">
        <time>2019-09-06T05:40:57Z</time>
      </trkpt>
      <trkpt lat="18.87439" lon="98.96264">
        <time>2019-09-06T05:40:58Z</time>
      </trkpt>
      <trkpt lat="18.87459" lon="98.96259">
        <time>2019-09-06T05:40:59Z</time>
      </trkpt>
      <trkpt lat="18.87479" lon="98.96256">
        <time>2019-09-06T05:41:00Z</time>
      </trkpt>
      <trkpt lat="18.875" lon="98.96252">
        <time>2019-09-06T05:41:01Z</time>
      </trkpt>
      <trkpt lat="18.87521" lon="98.96246">
        <time>2019-09-06T05:41:02Z</time>
      </trkpt>
      <trkpt lat="18.87543" lon="98.96242">
        <time>2019-09-06T05:41:03Z</time>
      </trkpt>
      <trkpt lat="18.87564" lon="98.96238">
        <time>2019-09-06T05:41:04Z</time>
      </trkpt>
      <trkpt lat="18.87586" lon="98.96233">
        <time>2019-09-06T05:41:05Z</time>
      </trkpt>
      <trkpt lat="18.87607" lon="98.96228">
        <time>2019-09-06T05:41:06Z</time>
      </trkpt>
      <trkpt lat="18.87629" lon="98.96224">
        <time>2019-09-06T05:41:07Z</time>
      </trkpt>
      <trkpt lat="18.87651" lon="98.96217">
        <time>2019-09-06T05:41:08Z</time>
      </trkpt>
      <trkpt lat="18.87673" lon="98.96211">
        <time>2019-09-06T05:41:09Z</time>
      </trkpt>
      <trkpt lat="18.87695" lon="98.96204">
        <time>2019-09-06T05:41:10Z</time>
      </trkpt>
      <trkpt lat="18.87718" lon="98.96197">
        <time>2019-09-06T05:41:11Z</time>
      </trkpt>
      <trkpt lat="18.8774" lon="98.9619">
        <time>2019-09-06T05:41:12Z</time>
      </trkpt>
      <trkpt lat="18.87763" lon="98.96182">
        <time>2019-09-06T05:41:13Z</time>
      </trkpt>
      <trkpt lat="18.87785" lon="98.96173">
        <time>2019-09-06T05:41:14Z</time>
      </trkpt>
      <trkpt lat="18.87807" lon="98.96164">
        <time>2019-09-06T05:41:15Z</time>
      </trkpt>
      <trkpt lat="18.87827" lon="98.96153">
        <time>2019-09-06T05:41:16Z</time>
      </trkpt>
      <trkpt lat="18.87848" lon="98.96142">
        <time>2019-09-06T05:41:17Z</time>
      </trkpt>
      <trkpt lat="18.87867" lon="98.96131">
        <time>2019-09-06T05:41:18Z</time>
      </trkpt>
      <trkpt lat="18.87887" lon="98.9612">
        <time>2019-09-06T05:41:19Z</time>
      </trkpt>
      <trkpt lat="18.87908" lon="98.96109">
        <time>2019-09-06T05:41:20Z</time>
      </trkpt>
      <trkpt lat="18.87925" lon="98.96099">
        <time>2019-09-06T05:41:21Z</time>
      </trkpt>
      <trkpt lat="18.87947" lon="98.96088">
        <time>2019-09-06T05:41:22Z</time>
      </trkpt>
      <trkpt lat="18.87968" lon="98.96076">
        <time>2019-09-06T05:41:23Z</time>
      </trkpt>
      <trkpt lat="18.87988" lon="98.96064">
        <time>2019-09-06T05:41:24Z</time>
      </trkpt>
      <trkpt lat="18.88008" lon="98.96053">
        <time>2019-09-06T05:41:25Z</time>
      </trkpt>
      <trkpt lat="18.88028" lon="98.9604">
        <time>2019-09-06T05:41:26Z</time>
      </trkpt>
      <trkpt lat="18.88048" lon="98.96029">
        <time>2019-09-06T05:41:27Z</time>
      </trkpt>
      <trkpt lat="18.88067" lon="98.96015">
        <time>2019-09-06T05:41:28Z</time>
      </trkpt>
      <trkpt lat="18.88086" lon="98.96003">
        <time>2019-09-06T05:41:29Z</time>
      </trkpt>
      <trkpt lat="18.88107" lon="98.95991">
        <time>2019-09-06T05:41:30Z</time>
      </trkpt>
      <trkpt lat="18.88127" lon="98.95979">
        <time>2019-09-06T05:41:31Z</time>
      </trkpt>
      <trkpt lat="18.88145" lon="98.95966">
        <time>2019-09-06T05:41:32Z</time>
      </trkpt>
      <trkpt lat="18.88164" lon="98.95955">
        <time>2019-09-06T05:41:33Z</time>
      </trkpt>
      <trkpt lat="18.88184" lon="98.95943">
        <time>2019-09-06T05:41:34Z</time>
      </trkpt>
      <trkpt lat="18.88203" lon="98.95932">
        <time>2019-09-06T05:41:35Z</time>
      </trkpt>
      <trkpt lat="18.88222" lon="98.9592">
        <time>2019-09-06T05:41:36Z</time>
      </trkpt>
      <trkpt lat="18.88241" lon="98.95908">
        <time>2019-09-06T05:41:37Z</time>
      </trkpt>
      <trkpt lat="18.88256" lon="98.95897">
        <time>2019-09-06T05:41:38Z</time>
      </trkpt>
      <trkpt lat="18.88273" lon="98.95888">
        <time>2019-09-06T05:41:39Z</time>
      </trkpt>
      <trkpt lat="18.88288" lon="98.95878">
        <time>2019-09-06T05:41:40Z</time>
      </trkpt>
      <trkpt lat="18.88305" lon="98.95867">
        <time>2019-09-06T05:41:41Z</time>
      </trkpt>
      <trkpt lat="18.88322" lon="98.95856">
        <time>2019-09-06T05:41:42Z</time>
      </trkpt>
      <trkpt lat="18.88339" lon="98.95845">
        <time>2019-09-06T05:41:43Z</time>
      </trkpt>
      <trkpt lat="18.88357" lon="98.95833">
        <time>2019-09-06T05:41:44Z</time>
      </trkpt>
      <trkpt lat="18.88375" lon="98.95822">
        <time>2019-09-06T05:41:45Z</time>
      </trkpt>
      <trkpt lat="18.88393" lon="98.95809">
        <time>2019-09-06T05:41:46Z</time>
      </trkpt>
      <trkpt lat="18.88411" lon="98.95797">
        <time>2019-09-06T05:41:47Z</time>
      </trkpt>
      <trkpt lat="18.88429" lon="98.95785">
        <time>2019-09-06T05:41:48Z</time>
      </trkpt>
      <trkpt lat="18.88447" lon="98.95773">
        <time>2019-09-06T05:41:49Z</time>
      </trkpt>
      <trkpt lat="18.88467" lon="98.95761">
        <time>2019-09-06T05:41:50Z</time>
      </trkpt>
      <trkpt lat="18.88483" lon="98.95748">
        <time>2019-09-06T05:41:51Z</time>
      </trkpt>
      <trkpt lat="18.88499" lon="98.95737">
        <time>2019-09-06T05:41:52Z</time>
      </trkpt>
      <trkpt lat="18.88514" lon="98.95726">
        <time>2019-09-06T05:41:53Z</time>
      </trkpt>
      <trkpt lat="18.8853" lon="98.95715">
        <time>2019-09-06T05:41:54Z</time>
      </trkpt>
      <trkpt lat="18.88538" lon="98.95707">
        <time>2019-09-06T05:41:55Z</time>
      </trkpt>
      <trkpt lat="18.88548" lon="98.95699">
        <time>2019-09-06T05:41:56Z</time>
      </trkpt>
      <trkpt lat="18.88559" lon="98.95691">
        <time>2019-09-06T05:41:57Z</time>
      </trkpt>
      <trkpt lat="18.88571" lon="98.95683">
        <time>2019-09-06T05:41:58Z</time>
      </trkpt>
      <trkpt lat="18.88583" lon="98.95675">
        <time>2019-09-06T05:41:59Z</time>
      </trkpt>
      <trkpt lat="18.88596" lon="98.95666">
        <time>2019-09-06T05:42:00Z</time>
      </trkpt>
      <trkpt lat="18.88608" lon="98.95657">
        <time>2019-09-06T05:42:01Z</time>
      </trkpt>
      <trkpt lat="18.8862" lon="98.95649">
        <time>2019-09-06T05:42:02Z</time>
      </trkpt>
      <trkpt lat="18.88634" lon="98.9564">
        <time>2019-09-06T05:42:03Z</time>
      </trkpt>
      <trkpt lat="18.88648" lon="98.95633">
        <time>2019-09-06T05:42:04Z</time>
      </trkpt>
      <trkpt lat="18.8866" lon="98.95624">
        <time>2019-09-06T05:42:05Z</time>
      </trkpt>
      <trkpt lat="18.8867" lon="98.95616">
        <time>2019-09-06T05:42:06Z</time>
      </trkpt>
      <trkpt lat="18.88683" lon="98.95608">
        <time>2019-09-06T05:42:07Z</time>
      </trkpt>
      <trkpt lat="18.88697" lon="98.95599">
        <time>2019-09-06T05:42:08Z</time>
      </trkpt>
      <trkpt lat="18.88711" lon="98.9559">
        <time>2019-09-06T05:42:09Z</time>
      </trkpt>
      <trkpt lat="18.88725" lon="98.9558">
        <time>2019-09-06T05:42:10Z</time>
      </trkpt>
      <trkpt lat="18.88738" lon="98.9557">
        <time>2019-09-06T05:42:11Z</time>
      </trkpt>
      <trkpt lat="18.88752" lon="98.95559">
        <time>2019-09-06T05:42:12Z</time>
      </trkpt>
      <trkpt lat="18.88767" lon="98.95547">
        <time>2019-09-06T05:42:13Z</time>
      </trkpt>
      <trkpt lat="18.88784" lon="98.95537">
        <time>2019-09-06T05:42:14Z</time>
      </trkpt>
      <trkpt lat="18.888" lon="98.95526">
        <time>2019-09-06T05:42:15Z</time>
      </trkpt>
      <trkpt lat="18.88817" lon="98.95516">
        <time>2019-09-06T05:42:16Z</time>
      </trkpt>
      <trkpt lat="18.88834" lon="98.95507">
        <time>2019-09-06T05:42:17Z</time>
      </trkpt>
      <trkpt lat="18.88852" lon="98.95499">
        <time>2019-09-06T05:42:18Z</time>
      </trkpt>
      <trkpt lat="18.88871" lon="98.9549">
        <time>2019-09-06T05:42:19Z</time>
      </trkpt>
      <trkpt lat="18.88889" lon="98.95482">
        <time>2019-09-06T05:42:20Z</time>
      </trkpt>
      <trkpt lat="18.88908" lon="98.95474">
        <time>2019-09-06T05:42:21Z</time>
      </trkpt>
      <trkpt lat="18.88928" lon="98.95466">
        <time>2019-09-06T05:42:22Z</time>
      </trkpt>
      <trkpt lat="18.88947" lon="98.95458">
        <time>2019-09-06T05:42:23Z</time>
      </trkpt>
      <trkpt lat="18.88966" lon="98.9545">
        <time>2019-09-06T05:42:24Z</time>
      </trkpt>
      <trkpt lat="18.88983" lon="98.95441">
        <time>2019-09-06T05:42:25Z</time>
      </trkpt>
      <trkpt lat="18.89" lon="98.95433">
        <time>2019-09-06T05:42:26Z</time>
      </trkpt>
      <trkpt lat="18.89017" lon="98.95426">
        <time>2019-09-06T05:42:27Z</time>
      </trkpt>
      <trkpt lat="18.89028" lon="98.9542">
        <time>2019-09-06T05:42:28Z</time>
      </trkpt>
      <trkpt lat="18.89041" lon="98.95414">
        <time>2019-09-06T05:42:29Z</time>
      </trkpt>
      <trkpt lat="18.89053" lon="98.95408">
        <time>2019-09-06T05:42:30Z</time>
      </trkpt>
      <trkpt lat="18.89065" lon="98.95403">
        <time>2019-09-06T05:42:31Z</time>
      </trkpt>
      <trkpt lat="18.8908" lon="98.95397">
        <time>2019-09-06T05:42:32Z</time>
      </trkpt>
      <trkpt lat="18.89096" lon="98.95392">
        <time>2019-09-06T05:42:33Z</time>
      </trkpt>
      <trkpt lat="18.89112" lon="98.95386">
        <time>2019-09-06T05:42:34Z</time>
      </trkpt>
      <trkpt lat="18.89129" lon="98.95378">
        <time>2019-09-06T05:42:35Z</time>
      </trkpt>
      <trkpt lat="18.89145" lon="98.9537">
        <time>2019-09-06T05:42:36Z</time>
      </trkpt>
      <trkpt lat="18.89162" lon="98.95362">
        <time>2019-09-06T05:42:37Z</time>
      </trkpt>
      <trkpt lat="18.89179" lon="98.95354">
        <time>2019-09-06T05:42:38Z</time>
      </trkpt>
      <trkpt lat="18.89196" lon="98.95347">
        <time>2019-09-06T05:42:39Z</time>
      </trkpt>
      <trkpt lat="18.89214" lon="98.9534">
        <time>2019-09-06T05:42:40Z</time>
      </trkpt>
      <trkpt lat="18.89232" lon="98.95333">
        <time>2019-09-06T05:42:41Z</time>
      </trkpt>
      <trkpt lat="18.89249" lon="98.95325">
        <time>2019-09-06T05:42:42Z</time>
      </trkpt>
      <trkpt lat="18.89268" lon="98.95317">
        <time>2019-09-06T05:42:43Z</time>
      </trkpt>
      <trkpt lat="18.89286" lon="98.95309">
        <time>2019-09-06T05:42:44Z</time>
      </trkpt>
      <trkpt lat="18.89307" lon="98.95302">
        <time>2019-09-06T05:42:45Z</time>
      </trkpt>
      <trkpt lat="18.89328" lon="98.95295">
        <time>2019-09-06T05:42:46Z</time>
      </trkpt>
      <trkpt lat="18.89348" lon="98.95289">
        <time>2019-09-06T05:42:47Z</time>
      </trkpt>
      <trkpt lat="18.89369" lon="98.95282">
        <time>2019-09-06T05:42:48Z</time>
      </trkpt>
      <trkpt lat="18.8939" lon="98.95276">
        <time>2019-09-06T05:42:49Z</time>
      </trkpt>
      <trkpt lat="18.89412" lon="98.95269">
        <time>2019-09-06T05:42:50Z</time>
      </trkpt>
      <trkpt lat="18.89434" lon="98.95263">
        <time>2019-09-06T05:42:51Z</time>
      </trkpt>
      <trkpt lat="18.89453" lon="98.95256">
        <time>2019-09-06T05:42:52Z</time>
      </trkpt>
      <trkpt lat="18.89473" lon="98.9525">
        <time>2019-09-06T05:42:53Z</time>
      </trkpt>
      <trkpt lat="18.89493" lon="98.95243">
        <time>2019-09-06T05:42:54Z</time>
      </trkpt>
      <trkpt lat="18.89513" lon="98.95237">
        <time>2019-09-06T05:42:55Z</time>
      </trkpt>
      <trkpt lat="18.89534" lon="98.95231">
        <time>2019-09-06T05:42:56Z</time>
      </trkpt>
      <trkpt lat="18.89553" lon="98.95224">
        <time>2019-09-06T05:42:57Z</time>
      </trkpt>
      <trkpt lat="18.89571" lon="98.95219">
        <time>2019-09-06T05:42:58Z</time>
      </trkpt>
      <trkpt lat="18.89588" lon="98.95214">
        <time>2019-09-06T05:42:59Z</time>
      </trkpt>
      <trkpt lat="18.89603" lon="98.95208">
        <time>2019-09-06T05:43:00Z</time>
      </trkpt>
      <trkpt lat="18.89619" lon="98.95202">
        <time>2019-09-06T05:43:01Z</time>
      </trkpt>
      <trkpt lat="18.89635" lon="98.95197">
        <time>2019-09-06T05:43:02Z</time>
      </trkpt>
      <trkpt lat="18.89652" lon="98.95192">
        <time>2019-09-06T05:43:03Z</time>
      </trkpt>
      <trkpt lat="18.89668" lon="98.95187">
        <time>2019-09-06T05:43:04Z</time>
      </trkpt>
      <trkpt lat="18.89682" lon="98.95181">
        <time>2019-09-06T05:43:05Z</time>
      </trkpt>
      <trkpt lat="18.89699" lon="98.95176">
        <time>2019-09-06T05:43:06Z</time>
      </trkpt>
      <trkpt lat="18.89715" lon="98.9517">
        <time>2019-09-06T05:43:07Z</time>
      </trkpt>
      <trkpt lat="18.89731" lon="98.95165">
        <time>2019-09-06T05:43:08Z</time>
      </trkpt>
      <trkpt lat="18.89748" lon="98.9516">
        <time>2019-09-06T05:43:09Z</time>
      </trkpt>
      <trkpt lat="18.89764" lon="98.95154">
        <time>2019-09-06T05:43:10Z</time>
      </trkpt>
      <trkpt lat="18.89781" lon="98.95149">
        <time>2019-09-06T05:43:11Z</time>
      </trkpt>
      <trkpt lat="18.89798" lon="98.95144">
        <time>2019-09-06T05:43:12Z</time>
      </trkpt>
      <trkpt lat="18.89814" lon="98.95138">
        <time>2019-09-06T05:43:13Z</time>
      </trkpt>
      <trkpt lat="18.89831" lon="98.95132">
        <time>2019-09-06T05:43:14Z</time>
      </trkpt>
      <trkpt lat="18.89849" lon="98.95127">
        <time>2019-09-06T05:43:15Z</time>
      </trkpt>
      <trkpt lat="18.89866" lon="98.95122">
        <time>2019-09-06T05:43:16Z</time>
      </trkpt>
      <trkpt lat="18.89883" lon="98.95116">
        <time>2019-09-06T05:43:17Z</time>
      </trkpt>
      <trkpt lat="18.899" lon="98.9511">
        <time>2019-09-06T05:43:18Z</time>
      </trkpt>
      <trkpt lat="18.89917" lon="98.95103">
        <time>2019-09-06T05:43:19Z</time>
      </trkpt>
      <trkpt lat="18.89934" lon="98.95097">
        <time>2019-09-06T05:43:20Z</time>
      </trkpt>
      <trkpt lat="18.89951" lon="98.95091">
        <time>2019-09-06T05:43:21Z</time>
      </trkpt>
      <trkpt lat="18.89969" lon="98.95084">
        <time>2019-09-06T05:43:22Z</time>
      </trkpt>
      <trkpt lat="18.89985" lon="98.95078">
        <time>2019-09-06T05:43:23Z</time>
      </trkpt>
      <trkpt lat="18.90002" lon="98.95073">
        <time>2019-09-06T05:43:24Z</time>
      </trkpt>
      <trkpt lat="18.90016" lon="98.95067">
        <time>2019-09-06T05:43:25Z</time>
      </trkpt>
      <trkpt lat="18.9003" lon="98.95062">
        <time>2019-09-06T05:43:26Z</time>
      </trkpt>
      <trkpt lat="18.90046" lon="98.95057">
        <time>2019-09-06T05:43:27Z</time>
      </trkpt>
      <trkpt lat="18.90063" lon="98.95052">
        <time>2019-09-06T05:43:28Z</time>
      </trkpt>
      <trkpt lat="18.90079" lon="98.95047">
        <time>2019-09-06T05:43:29Z</time>
      </trkpt>
      <trkpt lat="18.90095" lon="98.95042">
        <time>2019-09-06T05:43:30Z</time>
      </trkpt>
      <trkpt lat="18.90109" lon="98.95038">
        <time>2019-09-06T05:43:31Z</time>
      </trkpt>
      <trkpt lat="18.90123" lon="98.95034">
        <time>2019-09-06T05:43:32Z</time>
      </trkpt>
      <trkpt lat="18.90136" lon="98.95029">
        <time>2019-09-06T05:43:33Z</time>
      </trkpt>
      <trkpt lat="18.90149" lon="98.95025">
        <time>2019-09-06T05:43:34Z</time>
      </trkpt>
      <trkpt lat="18.90162" lon="98.9502">
        <time>2019-09-06T05:43:35Z</time>
      </trkpt>
      <trkpt lat="18.90175" lon="98.95017">
        <time>2019-09-06T05:43:36Z</time>
      </trkpt>
      <trkpt lat="18.90188" lon="98.95012">
        <time>2019-09-06T05:43:37Z</time>
      </trkpt>
      <trkpt lat="18.90201" lon="98.95008">
        <time>2019-09-06T05:43:38Z</time>
      </trkpt>
      <trkpt lat="18.90213" lon="98.95004">
        <time>2019-09-06T05:43:39Z</time>
      </trkpt>
      <trkpt lat="18.90225" lon="98.95">
        <time>2019-09-06T05:43:40Z</time>
      </trkpt>
      <trkpt lat="18.90237" lon="98.94996">
        <time>2019-09-06T05:43:41Z</time>
      </trkpt>
      <trkpt lat="18.9025" lon="98.94992">
        <time>2019-09-06T05:43:42Z</time>
      </trkpt>
      <trkpt lat="18.90261" lon="98.94988">
        <time>2019-09-06T05:43:43Z</time>
      </trkpt>
      <trkpt lat="18.90272" lon="98.94986">
        <time>2019-09-06T05:43:44Z</time>
      </trkpt>
      <trkpt lat="18.90281" lon="98.94982">
        <time>2019-09-06T05:43:45Z</time>
      </trkpt>
      <trkpt lat="18.90291" lon="98.94978">
        <time>2019-09-06T05:43:46Z</time>
      </trkpt>
      <trkpt lat="18.90301" lon="98.94973">
        <time>2019-09-06T05:43:47Z</time>
      </trkpt>
      <trkpt lat="18.90313" lon="98.9497">
        <time>2019-09-06T05:43:48Z</time>
      </trkpt>
      <trkpt lat="18.90324" lon="98.94966">
        <time>2019-09-06T05:43:49Z</time>
      </trkpt>
      <trkpt lat="18.90338" lon="98.94962">
        <time>2019-09-06T05:43:50Z</time>
      </trkpt>
      <trkpt lat="18.90353" lon="98.94957">
        <time>2019-09-06T05:43:51Z</time>
      </trkpt>
      <trkpt lat="18.90367" lon="98.94952">
        <time>2019-09-06T05:43:52Z</time>
      </trkpt>
      <trkpt lat="18.90383" lon="98.94946">
        <time>2019-09-06T05:43:53Z</time>
      </trkpt>
      <trkpt lat="18.904" lon="98.9494">
        <time>2019-09-06T05:43:54Z</time>
      </trkpt>
      <trkpt lat="18.90417" lon="98.94934">
        <time>2019-09-06T05:43:55Z</time>
      </trkpt>
      <trkpt lat="18.90432" lon="98.94928">
        <time>2019-09-06T05:43:56Z</time>
      </trkpt>
      <trkpt lat="18.90446" lon="98.94922">
        <time>2019-09-06T05:43:57Z</time>
      </trkpt>
      <trkpt lat="18.90462" lon="98.94917">
        <time>2019-09-06T05:43:58Z</time>
      </trkpt>
      <trkpt lat="18.90474" lon="98.94913">
        <time>2019-09-06T05:43:59Z</time>
      </trkpt>
      <trkpt lat="18.90487" lon="98.94908">
        <time>2019-09-06T05:44:00Z</time>
      </trkpt>
      <trkpt lat="18.90498" lon="98.94904">
        <time>2019-09-06T05:44:01Z</time>
      </trkpt>
      <trkpt lat="18.90508" lon="98.949">
        <time>2019-09-06T05:44:02Z</time>
      </trkpt>
      <trkpt lat="18.90518" lon="98.94896">
        <time>2019-09-06T05:44:03Z</time>
      </trkpt>
      <trkpt lat="18.90529" lon="98.94892">
        <time>2019-09-06T05:44:04Z</time>
      </trkpt>
      <trkpt lat="18.90538" lon="98.94888">
        <time>2019-09-06T05:44:05Z</time>
      </trkpt>
      <trkpt lat="18.90549" lon="98.94883">
        <time>2019-09-06T05:44:06Z</time>
      </trkpt>
      <trkpt lat="18.90559" lon="98.94879">
        <time>2019-09-06T05:44:07Z</time>
      </trkpt>
      <trkpt lat="18.90573" lon="98.94874">
        <time>2019-09-06T05:44:08Z</time>
      </trkpt>
      <trkpt lat="18.90585" lon="98.94868">
        <time>2019-09-06T05:44:09Z</time>
      </trkpt>
      <trkpt lat="18.90596" lon="98.94864">
        <time>2019-09-06T05:44:10Z</time>
      </trkpt>
      <trkpt lat="18.90607" lon="98.9486">
        <time>2019-09-06T05:44:11Z</time>
      </trkpt>
      <trkpt lat="18.90616" lon="98.94857">
        <time>2019-09-06T05:44:12Z</time>
      </trkpt>
      <trkpt lat="18.90624" lon="98.94853">
        <time>2019-09-06T05:44:13Z</time>
      </trkpt>
      <trkpt lat="18.90632" lon="98.94851">
        <time>2019-09-06T05:44:14Z</time>
      </trkpt>
      <trkpt lat="18.90639" lon="98.94848">
        <time>2019-09-06T05:44:15Z</time>
      </trkpt>
      <trkpt lat="18.90646" lon="98.94846">
        <time>2019-09-06T05:44:16Z</time>
      </trkpt>
      <trkpt lat="18.90653" lon="98.94843">
        <time>2019-09-06T05:44:17Z</time>
      </trkpt>
      <trkpt lat="18.9066" lon="98.9484">
        <time>2019-09-06T05:44:18Z</time>
      </trkpt>
      <trkpt lat="18.90665" lon="98.94837">
        <time>2019-09-06T05:44:19Z</time>
      </trkpt>
      <trkpt lat="18.90669" lon="98.94835">
        <time>2019-09-06T05:44:20Z</time>
      </trkpt>
      <trkpt lat="18.90674" lon="98.94832">
        <time>2019-09-06T05:44:21Z</time>
      </trkpt>
      <trkpt lat="18.90679" lon="98.9483">
        <time>2019-09-06T05:44:22Z</time>
      </trkpt>
      <trkpt lat="18.90684" lon="98.94827">
        <time>2019-09-06T05:44:23Z</time>
      </trkpt>
      <trkpt lat="18.90691" lon="98.94824">
        <time>2019-09-06T05:44:24Z</time>
      </trkpt>
      <trkpt lat="18.90697" lon="98.94823">
        <time>2019-09-06T05:44:25Z</time>
      </trkpt>
      <trkpt lat="18.90703" lon="98.9482">
        <time>2019-09-06T05:44:26Z</time>
      </trkpt>
      <trkpt lat="18.9071" lon="98.94818">
        <time>2019-09-06T05:44:27Z</time>
      </trkpt>
      <trkpt lat="18.90716" lon="98.94816">
        <time>2019-09-06T05:44:28Z</time>
      </trkpt>
      <trkpt lat="18.90722" lon="98.94813">
        <time>2019-09-06T05:44:29Z</time>
      </trkpt>
      <trkpt lat="18.90727" lon="98.94813">
        <time>2019-09-06T05:44:30Z</time>
      </trkpt>
      <trkpt lat="18.90731" lon="98.94811">
        <time>2019-09-06T05:44:31Z</time>
      </trkpt>
      <trkpt lat="18.90736" lon="98.94809">
        <time>2019-09-06T05:44:32Z</time>
      </trkpt>
      <trkpt lat="18.90742" lon="98.94806">
        <time>2019-09-06T05:44:33Z</time>
      </trkpt>
      <trkpt lat="18.90747" lon="98.94804">
        <time>2019-09-06T05:44:34Z</time>
      </trkpt>
      <trkpt lat="18.90752" lon="98.94801">
        <time>2019-09-06T05:44:35Z</time>
      </trkpt>
      <trkpt lat="18.90758" lon="98.94798">
        <time>2019-09-06T05:44:36Z</time>
      </trkpt>
      <trkpt lat="18.90765" lon="98.94796">
        <time>2019-09-06T05:44:37Z</time>
      </trkpt>
      <trkpt lat="18.90772" lon="98.94797">
        <time>2019-09-06T05:44:38Z</time>
      </trkpt>
      <trkpt lat="18.90778" lon="98.94798">
        <time>2019-09-06T05:44:39Z</time>
      </trkpt>
      <trkpt lat="18.90782" lon="98.948">
        <time>2019-09-06T05:44:40Z</time>
      </trkpt>
      <trkpt lat="18.90786" lon="98.94801">
        <time>2019-09-06T05:44:41Z</time>
      </trkpt>
      <trkpt lat="18.90791" lon="98.94813">
        <time>2019-09-06T05:44:42Z</time>
      </trkpt>
      <trkpt lat="18.90794" lon="98.94822">
        <time>2019-09-06T05:44:43Z</time>
      </trkpt>
      <trkpt lat="18.908" lon="98.94834">
        <time>2019-09-06T05:44:44Z</time>
      </trkpt>
      <trkpt lat="18.90805" lon="98.94843">
        <time>2019-09-06T05:44:45Z</time>
      </trkpt>
      <trkpt lat="18.90812" lon="98.94855">
        <time>2019-09-06T05:44:46Z</time>
      </trkpt>
      <trkpt lat="18.90819" lon="98.94866">
        <time>2019-09-06T05:44:47Z</time>
      </trkpt>
      <trkpt lat="18.90826" lon="98.94878">
        <time>2019-09-06T05:44:48Z</time>
      </trkpt>
      <trkpt lat="18.90834" lon="98.94892">
        <time>2019-09-06T05:44:49Z</time>
      </trkpt>
      <trkpt lat="18.90841" lon="98.94906">
        <time>2019-09-06T05:44:50Z</time>
      </trkpt>
      <trkpt lat="18.90849" lon="98.9492">
        <time>2019-09-06T05:44:51Z</time>
      </trkpt>
      <trkpt lat="18.90857" lon="98.94934">
        <time>2019-09-06T05:44:52Z</time>
      </trkpt>
      <trkpt lat="18.90865" lon="98.94948">
        <time>2019-09-06T05:44:53Z</time>
      </trkpt>
      <trkpt lat="18.90873" lon="98.94963">
        <time>2019-09-06T05:44:54Z</time>
      </trkpt>
      <trkpt lat="18.90881" lon="98.94979">
        <time>2019-09-06T05:44:55Z</time>
      </trkpt>
      <trkpt lat="18.90889" lon="98.94993">
        <time>2019-09-06T05:44:56Z</time>
      </trkpt>
      <trkpt lat="18.90897" lon="98.95009">
        <time>2019-09-06T05:44:58Z</time>
      </trkpt>
      <trkpt lat="18.90905" lon="98.95023">
        <time>2019-09-06T05:44:58Z</time>
      </trkpt>
      <trkpt lat="18.90912" lon="98.95037">
        <time>2019-09-06T05:44:59Z</time>
      </trkpt>
      <trkpt lat="18.9092" lon="98.95051">
        <time>2019-09-06T05:45:00Z</time>
      </trkpt>
      <trkpt lat="18.90928" lon="98.95065">
        <time>2019-09-06T05:45:01Z</time>
      </trkpt>
      <trkpt lat="18.90937" lon="98.9508">
        <time>2019-09-06T05:45:02Z</time>
      </trkpt>
      <trkpt lat="18.90945" lon="98.95095">
        <time>2019-09-06T05:45:03Z</time>
      </trkpt>
      <trkpt lat="18.90954" lon="98.95109">
        <time>2019-09-06T05:45:04Z</time>
      </trkpt>
      <trkpt lat="18.90962" lon="98.95124">
        <time>2019-09-06T05:45:05Z</time>
      </trkpt>
      <trkpt lat="18.90969" lon="98.95138">
        <time>2019-09-06T05:45:06Z</time>
      </trkpt>
      <trkpt lat="18.90977" lon="98.95151">
        <time>2019-09-06T05:45:07Z</time>
      </trkpt>
      <trkpt lat="18.90984" lon="98.95164">
        <time>2019-09-06T05:45:08Z</time>
      </trkpt>
      <trkpt lat="18.90992" lon="98.95179">
        <time>2019-09-06T05:45:09Z</time>
      </trkpt>
      <trkpt lat="18.91" lon="98.95196">
        <time>2019-09-06T05:45:10Z</time>
      </trkpt>
      <trkpt lat="18.91009" lon="98.9521">
        <time>2019-09-06T05:45:11Z</time>
      </trkpt>
      <trkpt lat="18.91018" lon="98.95226">
        <time>2019-09-06T05:45:12Z</time>
      </trkpt>
      <trkpt lat="18.91026" lon="98.95241">
        <time>2019-09-06T05:45:13Z</time>
      </trkpt>
      <trkpt lat="18.91035" lon="98.95256">
        <time>2019-09-06T05:45:14Z</time>
      </trkpt>
      <trkpt lat="18.91044" lon="98.95271">
        <time>2019-09-06T05:45:15Z</time>
      </trkpt>
      <trkpt lat="18.91052" lon="98.95284">
        <time>2019-09-06T05:45:16Z</time>
      </trkpt>
      <trkpt lat="18.91061" lon="98.95297">
        <time>2019-09-06T05:45:17Z</time>
      </trkpt>
      <trkpt lat="18.91069" lon="98.9531">
        <time>2019-09-06T05:45:18Z</time>
      </trkpt>
      <trkpt lat="18.91077" lon="98.95324">
        <time>2019-09-06T05:45:19Z</time>
      </trkpt>
      <trkpt lat="18.91085" lon="98.95339">
        <time>2019-09-06T05:45:20Z</time>
      </trkpt>
      <trkpt lat="18.91094" lon="98.95355">
        <time>2019-09-06T05:45:21Z</time>
      </trkpt>
      <trkpt lat="18.91103" lon="98.9537">
        <time>2019-09-06T05:45:22Z</time>
      </trkpt>
      <trkpt lat="18.91112" lon="98.95386">
        <time>2019-09-06T05:45:23Z</time>
      </trkpt>
      <trkpt lat="18.91121" lon="98.95402">
        <time>2019-09-06T05:45:24Z</time>
      </trkpt>
      <trkpt lat="18.9113" lon="98.95417">
        <time>2019-09-06T05:45:25Z</time>
      </trkpt>
      <trkpt lat="18.9114" lon="98.95434">
        <time>2019-09-06T05:45:26Z</time>
      </trkpt>
      <trkpt lat="18.91149" lon="98.95452">
        <time>2019-09-06T05:45:27Z</time>
      </trkpt>
      <trkpt lat="18.91158" lon="98.9547">
        <time>2019-09-06T05:45:28Z</time>
      </trkpt>
      <trkpt lat="18.91169" lon="98.95487">
        <time>2019-09-06T05:45:29Z</time>
      </trkpt>
      <trkpt lat="18.9118" lon="98.95504">
        <time>2019-09-06T05:45:30Z</time>
      </trkpt>
      <trkpt lat="18.91191" lon="98.95521">
        <time>2019-09-06T05:45:31Z</time>
      </trkpt>
      <trkpt lat="18.91203" lon="98.95539">
        <time>2019-09-06T05:45:32Z</time>
      </trkpt>
      <trkpt lat="18.91215" lon="98.95556">
        <time>2019-09-06T05:45:33Z</time>
      </trkpt>
      <trkpt lat="18.91228" lon="98.95574">
        <time>2019-09-06T05:45:34Z</time>
      </trkpt>
      <trkpt lat="18.91241" lon="98.95591">
        <time>2019-09-06T05:45:35Z</time>
      </trkpt>
      <trkpt lat="18.91254" lon="98.95609">
        <time>2019-09-06T05:45:36Z</time>
      </trkpt>
      <trkpt lat="18.91266" lon="98.95626">
        <time>2019-09-06T05:45:37Z</time>
      </trkpt>
      <trkpt lat="18.91279" lon="98.95644">
        <time>2019-09-06T05:45:38Z</time>
      </trkpt>
      <trkpt lat="18.91291" lon="98.95661">
        <time>2019-09-06T05:45:39Z</time>
      </trkpt>
      <trkpt lat="18.91305" lon="98.95679">
        <time>2019-09-06T05:45:40Z</time>
      </trkpt>
      <trkpt lat="18.91318" lon="98.95696">
        <time>2019-09-06T05:45:41Z</time>
      </trkpt>
      <trkpt lat="18.9133" lon="98.95714">
        <time>2019-09-06T05:45:42Z</time>
      </trkpt>
      <trkpt lat="18.91343" lon="98.95732">
        <time>2019-09-06T05:45:43Z</time>
      </trkpt>
      <trkpt lat="18.91356" lon="98.9575">
        <time>2019-09-06T05:45:44Z</time>
      </trkpt>
      <trkpt lat="18.91368" lon="98.95767">
        <time>2019-09-06T05:45:45Z</time>
      </trkpt>
      <trkpt lat="18.9138" lon="98.95784">
        <time>2019-09-06T05:45:46Z</time>
      </trkpt>
      <trkpt lat="18.91391" lon="98.958">
        <time>2019-09-06T05:45:47Z</time>
      </trkpt>
      <trkpt lat="18.91403" lon="98.95818">
        <time>2019-09-06T05:45:48Z</time>
      </trkpt>
      <trkpt lat="18.91415" lon="98.95836">
        <time>2019-09-06T05:45:49Z</time>
      </trkpt>
      <trkpt lat="18.91426" lon="98.95852">
        <time>2019-09-06T05:45:50Z</time>
      </trkpt>
      <trkpt lat="18.91439" lon="98.9587">
        <time>2019-09-06T05:45:51Z</time>
      </trkpt>
      <trkpt lat="18.91451" lon="98.95887">
        <time>2019-09-06T05:45:52Z</time>
      </trkpt>
      <trkpt lat="18.91462" lon="98.95904">
        <time>2019-09-06T05:45:53Z</time>
      </trkpt>
      <trkpt lat="18.91475" lon="98.95922">
        <time>2019-09-06T05:45:54Z</time>
      </trkpt>
      <trkpt lat="18.91487" lon="98.9594">
        <time>2019-09-06T05:45:55Z</time>
      </trkpt>
      <trkpt lat="18.915" lon="98.95957">
        <time>2019-09-06T05:45:56Z</time>
      </trkpt>
      <trkpt lat="18.91512" lon="98.95974">
        <time>2019-09-06T05:45:57Z</time>
      </trkpt>
      <trkpt lat="18.91523" lon="98.95991">
        <time>2019-09-06T05:45:58Z</time>
      </trkpt>
      <trkpt lat="18.91535" lon="98.96007">
        <time>2019-09-06T05:45:59Z</time>
      </trkpt>
      <trkpt lat="18.91547" lon="98.96024">
        <time>2019-09-06T05:46:00Z</time>
      </trkpt>
      <trkpt lat="18.91558" lon="98.96042">
        <time>2019-09-06T05:46:01Z</time>
      </trkpt>
      <trkpt lat="18.9157" lon="98.96059">
        <time>2019-09-06T05:46:02Z</time>
      </trkpt>
      <trkpt lat="18.91582" lon="98.96077">
        <time>2019-09-06T05:46:03Z</time>
      </trkpt>
      <trkpt lat="18.91594" lon="98.96095">
        <time>2019-09-06T05:46:04Z</time>
      </trkpt>
      <trkpt lat="18.91605" lon="98.96115">
        <time>2019-09-06T05:46:05Z</time>
      </trkpt>
      <trkpt lat="18.91616" lon="98.96133">
        <time>2019-09-06T05:46:06Z</time>
      </trkpt>
      <trkpt lat="18.91625" lon="98.96154">
        <time>2019-09-06T05:46:07Z</time>
      </trkpt>
      <trkpt lat="18.91632" lon="98.96175">
        <time>2019-09-06T05:46:08Z</time>
      </trkpt>
      <trkpt lat="18.91639" lon="98.96197">
        <time>2019-09-06T05:46:09Z</time>
      </trkpt>
      <trkpt lat="18.91643" lon="98.96218">
        <time>2019-09-06T05:46:10Z</time>
      </trkpt>
      <trkpt lat="18.91647" lon="98.96242">
        <time>2019-09-06T05:46:11Z</time>
      </trkpt>
      <trkpt lat="18.9165" lon="98.96264">
        <time>2019-09-06T05:46:12Z</time>
      </trkpt>
      <trkpt lat="18.91653" lon="98.96286">
        <time>2019-09-06T05:46:13Z</time>
      </trkpt>
      <trkpt lat="18.91655" lon="98.9631">
        <time>2019-09-06T05:46:14Z</time>
      </trkpt>
      <trkpt lat="18.91658" lon="98.96332">
        <time>2019-09-06T05:46:15Z</time>
      </trkpt>
      <trkpt lat="18.9166" lon="98.96355">
        <time>2019-09-06T05:46:16Z</time>
      </trkpt>
      <trkpt lat="18.91663" lon="98.96378">
        <time>2019-09-06T05:46:17Z</time>
      </trkpt>
      <trkpt lat="18.91665" lon="98.96401">
        <time>2019-09-06T05:46:18Z</time>
      </trkpt>
      <trkpt lat="18.91668" lon="98.96425">
        <time>2019-09-06T05:46:19Z</time>
      </trkpt>
      <trkpt lat="18.91671" lon="98.96448">
        <time>2019-09-06T05:46:20Z</time>
      </trkpt>
      <trkpt lat="18.91674" lon="98.9647">
        <time>2019-09-06T05:46:21Z</time>
      </trkpt>
      <trkpt lat="18.91677" lon="98.96491">
        <time>2019-09-06T05:46:22Z</time>
      </trkpt>
      <trkpt lat="18.91679" lon="98.96511">
        <time>2019-09-06T05:46:23Z</time>
      </trkpt>
      <trkpt lat="18.9168" lon="98.96531">
        <time>2019-09-06T05:46:24Z</time>
      </trkpt>
      <trkpt lat="18.91683" lon="98.96551">
        <time>2019-09-06T05:46:25Z</time>
      </trkpt>
      <trkpt lat="18.91685" lon="98.96571">
        <time>2019-09-06T05:46:26Z</time>
      </trkpt>
      <trkpt lat="18.91687" lon="98.96591">
        <time>2019-09-06T05:46:27Z</time>
      </trkpt>
      <trkpt lat="18.91689" lon="98.96612">
        <time>2019-09-06T05:46:28Z</time>
      </trkpt>
      <trkpt lat="18.91691" lon="98.96633">
        <time>2019-09-06T05:46:29Z</time>
      </trkpt>
      <trkpt lat="18.91693" lon="98.96655">
        <time>2019-09-06T05:46:30Z</time>
      </trkpt>
      <trkpt lat="18.91695" lon="98.96677">
        <time>2019-09-06T05:46:31Z</time>
      </trkpt>
      <trkpt lat="18.91697" lon="98.96699">
        <time>2019-09-06T05:46:32Z</time>
      </trkpt>
      <trkpt lat="18.917" lon="98.96721">
        <time>2019-09-06T05:46:33Z</time>
      </trkpt>
      <trkpt lat="18.91702" lon="98.96743">
        <time>2019-09-06T05:46:34Z</time>
      </trkpt>
      <trkpt lat="18.91705" lon="98.96762">
        <time>2019-09-06T05:46:35Z</time>
      </trkpt>
      <trkpt lat="18.91708" lon="98.96783">
        <time>2019-09-06T05:46:36Z</time>
      </trkpt>
      <trkpt lat="18.9171" lon="98.96804">
        <time>2019-09-06T05:46:37Z</time>
      </trkpt>
      <trkpt lat="18.91713" lon="98.96825">
        <time>2019-09-06T05:46:38Z</time>
      </trkpt>
      <trkpt lat="18.91715" lon="98.96844">
        <time>2019-09-06T05:46:39Z</time>
      </trkpt>
      <trkpt lat="18.91718" lon="98.96863">
        <time>2019-09-06T05:46:40Z</time>
      </trkpt>
      <trkpt lat="18.9172" lon="98.96884">
        <time>2019-09-06T05:46:41Z</time>
      </trkpt>
      <trkpt lat="18.91722" lon="98.96904">
        <time>2019-09-06T05:46:42Z</time>
      </trkpt>
      <trkpt lat="18.91724" lon="98.96923">
        <time>2019-09-06T05:46:43Z</time>
      </trkpt>
      <trkpt lat="18.91726" lon="98.96943">
        <time>2019-09-06T05:46:44Z</time>
      </trkpt>
      <trkpt lat="18.91729" lon="98.96963">
        <time>2019-09-06T05:46:45Z</time>
      </trkpt>
      <trkpt lat="18.91732" lon="98.96982">
        <time>2019-09-06T05:46:46Z</time>
      </trkpt>
      <trkpt lat="18.91735" lon="98.97004">
        <time>2019-09-06T05:46:47Z</time>
      </trkpt>
      <trkpt lat="18.91738" lon="98.97025">
        <time>2019-09-06T05:46:49Z</time>
      </trkpt>
      <trkpt lat="18.9174" lon="98.97046">
        <time>2019-09-06T05:46:49Z</time>
      </trkpt>
      <trkpt lat="18.91743" lon="98.97068">
        <time>2019-09-06T05:46:50Z</time>
      </trkpt>
      <trkpt lat="18.91746" lon="98.9709">
        <time>2019-09-06T05:46:51Z</time>
      </trkpt>
      <trkpt lat="18.91748" lon="98.97113">
        <time>2019-09-06T05:46:52Z</time>
      </trkpt>
      <trkpt lat="18.9175" lon="98.97136">
        <time>2019-09-06T05:46:53Z</time>
      </trkpt>
      <trkpt lat="18.91753" lon="98.97159">
        <time>2019-09-06T05:46:54Z</time>
      </trkpt>
      <trkpt lat="18.91755" lon="98.97181">
        <time>2019-09-06T05:46:55Z</time>
      </trkpt>
      <trkpt lat="18.91757" lon="98.97203">
        <time>2019-09-06T05:46:56Z</time>
      </trkpt>
      <trkpt lat="18.9176" lon="98.97222">
        <time>2019-09-06T05:46:57Z</time>
      </trkpt>
      <trkpt lat="18.91761" lon="98.9724">
        <time>2019-09-06T05:46:58Z</time>
      </trkpt>
      <trkpt lat="18.91763" lon="98.97255">
        <time>2019-09-06T05:46:59Z</time>
      </trkpt>
      <trkpt lat="18.91764" lon="98.97271">
        <time>2019-09-06T05:47:00Z</time>
      </trkpt>
      <trkpt lat="18.91766" lon="98.97286">
        <time>2019-09-06T05:47:01Z</time>
      </trkpt>
      <trkpt lat="18.91767" lon="98.97301">
        <time>2019-09-06T05:47:02Z</time>
      </trkpt>
      <trkpt lat="18.91768" lon="98.97316">
        <time>2019-09-06T05:47:03Z</time>
      </trkpt>
      <trkpt lat="18.91769" lon="98.97331">
        <time>2019-09-06T05:47:04Z</time>
      </trkpt>
      <trkpt lat="18.91772" lon="98.97344">
        <time>2019-09-06T05:47:05Z</time>
      </trkpt>
      <trkpt lat="18.91774" lon="98.9736">
        <time>2019-09-06T05:47:06Z</time>
      </trkpt>
      <trkpt lat="18.91775" lon="98.97375">
        <time>2019-09-06T05:47:07Z</time>
      </trkpt>
      <trkpt lat="18.91776" lon="98.9739">
        <time>2019-09-06T05:47:08Z</time>
      </trkpt>
      <trkpt lat="18.91778" lon="98.97404">
        <time>2019-09-06T05:47:09Z</time>
      </trkpt>
      <trkpt lat="18.9178" lon="98.97418">
        <time>2019-09-06T05:47:10Z</time>
      </trkpt>
      <trkpt lat="18.91781" lon="98.97432">
        <time>2019-09-06T05:47:11Z</time>
      </trkpt>
      <trkpt lat="18.91782" lon="98.97445">
        <time>2019-09-06T05:47:12Z</time>
      </trkpt>
      <trkpt lat="18.91783" lon="98.97459">
        <time>2019-09-06T05:47:13Z</time>
      </trkpt>
      <trkpt lat="18.91785" lon="98.97472">
        <time>2019-09-06T05:47:14Z</time>
      </trkpt>
      <trkpt lat="18.91787" lon="98.97486">
        <time>2019-09-06T05:47:15Z</time>
      </trkpt>
      <trkpt lat="18.91788" lon="98.975">
        <time>2019-09-06T05:47:16Z</time>
      </trkpt>
      <trkpt lat="18.9179" lon="98.97514">
        <time>2019-09-06T05:47:17Z</time>
      </trkpt>
      <trkpt lat="18.91792" lon="98.97528">
        <time>2019-09-06T05:47:18Z</time>
      </trkpt>
      <trkpt lat="18.91793" lon="98.97541">
        <time>2019-09-06T05:47:19Z</time>
      </trkpt>
      <trkpt lat="18.91795" lon="98.97555">
        <time>2019-09-06T05:47:20Z</time>
      </trkpt>
      <trkpt lat="18.91797" lon="98.97568">
        <time>2019-09-06T05:47:21Z</time>
      </trkpt>
      <trkpt lat="18.91799" lon="98.97584">
        <time>2019-09-06T05:47:22Z</time>
      </trkpt>
      <trkpt lat="18.91801" lon="98.97598">
        <time>2019-09-06T05:47:23Z</time>
      </trkpt>
      <trkpt lat="18.91803" lon="98.97614">
        <time>2019-09-06T05:47:24Z</time>
      </trkpt>
      <trkpt lat="18.91804" lon="98.9763">
        <time>2019-09-06T05:47:25Z</time>
      </trkpt>
      <trkpt lat="18.91806" lon="98.97646">
        <time>2019-09-06T05:47:26Z</time>
      </trkpt>
      <trkpt lat="18.91807" lon="98.97661">
        <time>2019-09-06T05:47:27Z</time>
      </trkpt>
      <trkpt lat="18.91809" lon="98.97676">
        <time>2019-09-06T05:47:28Z</time>
      </trkpt>
      <trkpt lat="18.9181" lon="98.97691">
        <time>2019-09-06T05:47:29Z</time>
      </trkpt>
      <trkpt lat="18.91813" lon="98.97707">
        <time>2019-09-06T05:47:30Z</time>
      </trkpt>
      <trkpt lat="18.91815" lon="98.97724">
        <time>2019-09-06T05:47:31Z</time>
      </trkpt>
      <trkpt lat="18.91817" lon="98.97742">
        <time>2019-09-06T05:47:32Z</time>
      </trkpt>
      <trkpt lat="18.91818" lon="98.97762">
        <time>2019-09-06T05:47:33Z</time>
      </trkpt>
      <trkpt lat="18.9182" lon="98.97781">
        <time>2019-09-06T05:47:34Z</time>
      </trkpt>
      <trkpt lat="18.91823" lon="98.97801">
        <time>2019-09-06T05:47:35Z</time>
      </trkpt>
      <trkpt lat="18.91826" lon="98.97821">
        <time>2019-09-06T05:47:36Z</time>
      </trkpt>
      <trkpt lat="18.91828" lon="98.9784">
        <time>2019-09-06T05:47:37Z</time>
      </trkpt>
      <trkpt lat="18.9183" lon="98.97858">
        <time>2019-09-06T05:47:38Z</time>
      </trkpt>
      <trkpt lat="18.91833" lon="98.97875">
        <time>2019-09-06T05:47:39Z</time>
      </trkpt>
      <trkpt lat="18.91834" lon="98.97892">
        <time>2019-09-06T05:47:40Z</time>
      </trkpt>
      <trkpt lat="18.91835" lon="98.97907">
        <time>2019-09-06T05:47:41Z</time>
      </trkpt>
      <trkpt lat="18.91836" lon="98.97922">
        <time>2019-09-06T05:47:42Z</time>
      </trkpt>
      <trkpt lat="18.91838" lon="98.97935">
        <time>2019-09-06T05:47:43Z</time>
      </trkpt>
      <trkpt lat="18.9184" lon="98.97948">
        <time>2019-09-06T05:47:44Z</time>
      </trkpt>
      <trkpt lat="18.91841" lon="98.97961">
        <time>2019-09-06T05:47:45Z</time>
      </trkpt>
      <trkpt lat="18.91843" lon="98.97974">
        <time>2019-09-06T05:47:46Z</time>
      </trkpt>
      <trkpt lat="18.91844" lon="98.97987">
        <time>2019-09-06T05:47:47Z</time>
      </trkpt>
      <trkpt lat="18.91846" lon="98.98">
        <time>2019-09-06T05:47:48Z</time>
      </trkpt>
      <trkpt lat="18.91848" lon="98.98015">
        <time>2019-09-06T05:47:49Z</time>
      </trkpt>
      <trkpt lat="18.91849" lon="98.98031">
        <time>2019-09-06T05:47:50Z</time>
      </trkpt>
      <trkpt lat="18.91851" lon="98.98047">
        <time>2019-09-06T05:47:51Z</time>
      </trkpt>
      <trkpt lat="18.91853" lon="98.98064">
        <time>2019-09-06T05:47:52Z</time>
      </trkpt>
      <trkpt lat="18.91856" lon="98.98083">
        <time>2019-09-06T05:47:53Z</time>
      </trkpt>
      <trkpt lat="18.91859" lon="98.98103">
        <time>2019-09-06T05:47:54Z</time>
      </trkpt>
      <trkpt lat="18.91862" lon="98.98122">
        <time>2019-09-06T05:47:55Z</time>
      </trkpt>
      <trkpt lat="18.91863" lon="98.98143">
        <time>2019-09-06T05:47:56Z</time>
      </trkpt>
      <trkpt lat="18.91866" lon="98.98165">
        <time>2019-09-06T05:47:57Z</time>
      </trkpt>
      <trkpt lat="18.91868" lon="98.98185">
        <time>2019-09-06T05:47:58Z</time>
      </trkpt>
      <trkpt lat="18.9187" lon="98.98206">
        <time>2019-09-06T05:47:59Z</time>
      </trkpt>
      <trkpt lat="18.91872" lon="98.98228">
        <time>2019-09-06T05:48:00Z</time>
      </trkpt>
      <trkpt lat="18.91875" lon="98.9825">
        <time>2019-09-06T05:48:01Z</time>
      </trkpt>
      <trkpt lat="18.91877" lon="98.98274">
        <time>2019-09-06T05:48:02Z</time>
      </trkpt>
      <trkpt lat="18.91879" lon="98.98296">
        <time>2019-09-06T05:48:03Z</time>
      </trkpt>
      <trkpt lat="18.91882" lon="98.98319">
        <time>2019-09-06T05:48:04Z</time>
      </trkpt>
      <trkpt lat="18.91884" lon="98.9834">
        <time>2019-09-06T05:48:05Z</time>
      </trkpt>
      <trkpt lat="18.91887" lon="98.98363">
        <time>2019-09-06T05:48:06Z</time>
      </trkpt>
      <trkpt lat="18.91891" lon="98.98385">
        <time>2019-09-06T05:48:07Z</time>
      </trkpt>
      <trkpt lat="18.91893" lon="98.98409">
        <time>2019-09-06T05:48:08Z</time>
      </trkpt>
      <trkpt lat="18.91895" lon="98.98431">
        <time>2019-09-06T05:48:09Z</time>
      </trkpt>
      <trkpt lat="18.91897" lon="98.98454">
        <time>2019-09-06T05:48:10Z</time>
      </trkpt>
      <trkpt lat="18.919" lon="98.98476">
        <time>2019-09-06T05:48:11Z</time>
      </trkpt>
      <trkpt lat="18.91903" lon="98.98499">
        <time>2019-09-06T05:48:12Z</time>
      </trkpt>
      <trkpt lat="18.91905" lon="98.98521">
        <time>2019-09-06T05:48:13Z</time>
      </trkpt>
      <trkpt lat="18.91907" lon="98.98543">
        <time>2019-09-06T05:48:14Z</time>
      </trkpt>
      <trkpt lat="18.9191" lon="98.98566">
        <time>2019-09-06T05:48:15Z</time>
      </trkpt>
      <trkpt lat="18.91912" lon="98.98588">
        <time>2019-09-06T05:48:16Z</time>
      </trkpt>
      <trkpt lat="18.91915" lon="98.9861">
        <time>2019-09-06T05:48:17Z</time>
      </trkpt>
      <trkpt lat="18.91917" lon="98.98633">
        <time>2019-09-06T05:48:18Z</time>
      </trkpt>
      <trkpt lat="18.91919" lon="98.98656">
        <time>2019-09-06T05:48:19Z</time>
      </trkpt>
      <trkpt lat="18.91922" lon="98.98678">
        <time>2019-09-06T05:48:20Z</time>
      </trkpt>
      <trkpt lat="18.91925" lon="98.98699">
        <time>2019-09-06T05:48:21Z</time>
      </trkpt>
      <trkpt lat="18.91927" lon="98.9872">
        <time>2019-09-06T05:48:22Z</time>
      </trkpt>
      <trkpt lat="18.9193" lon="98.98741">
        <time>2019-09-06T05:48:23Z</time>
      </trkpt>
      <trkpt lat="18.91932" lon="98.98763">
        <time>2019-09-06T05:48:24Z</time>
      </trkpt>
      <trkpt lat="18.91936" lon="98.98784">
        <time>2019-09-06T05:48:25Z</time>
      </trkpt>
      <trkpt lat="18.91938" lon="98.98807">
        <time>2019-09-06T05:48:26Z</time>
      </trkpt>
      <trkpt lat="18.91941" lon="98.98829">
        <time>2019-09-06T05:48:27Z</time>
      </trkpt>
      <trkpt lat="18.91945" lon="98.98851">
        <time>2019-09-06T05:48:28Z</time>
      </trkpt>
      <trkpt lat="18.91948" lon="98.98874">
        <time>2019-09-06T05:48:29Z</time>
      </trkpt>
      <trkpt lat="18.91951" lon="98.98896">
        <time>2019-09-06T05:48:30Z</time>
      </trkpt>
      <trkpt lat="18.91954" lon="98.98918">
        <time>2019-09-06T05:48:31Z</time>
      </trkpt>
      <trkpt lat="18.91958" lon="98.98939">
        <time>2019-09-06T05:48:32Z</time>
      </trkpt>
      <trkpt lat="18.9196" lon="98.98962">
        <time>2019-09-06T05:48:33Z</time>
      </trkpt>
      <trkpt lat="18.91964" lon="98.98984">
        <time>2019-09-06T05:48:34Z</time>
      </trkpt>
      <trkpt lat="18.91968" lon="98.99006">
        <time>2019-09-06T05:48:35Z</time>
      </trkpt>
      <trkpt lat="18.91974" lon="98.99027">
        <time>2019-09-06T05:48:36Z</time>
      </trkpt>
      <trkpt lat="18.91981" lon="98.99048">
        <time>2019-09-06T05:48:37Z</time>
      </trkpt>
      <trkpt lat="18.9199" lon="98.99068">
        <time>2019-09-06T05:48:38Z</time>
      </trkpt>
      <trkpt lat="18.91998" lon="98.99089">
        <time>2019-09-06T05:48:39Z</time>
      </trkpt>
      <trkpt lat="18.92006" lon="98.99107">
        <time>2019-09-06T05:48:40Z</time>
      </trkpt>
      <trkpt lat="18.92014" lon="98.99123">
        <time>2019-09-06T05:48:41Z</time>
      </trkpt>
      <trkpt lat="18.92021" lon="98.99138">
        <time>2019-09-06T05:48:42Z</time>
      </trkpt>
      <trkpt lat="18.92027" lon="98.9915">
        <time>2019-09-06T05:48:43Z</time>
      </trkpt>
      <trkpt lat="18.92032" lon="98.9916">
        <time>2019-09-06T05:48:44Z</time>
      </trkpt>
      <trkpt lat="18.92036" lon="98.99169">
        <time>2019-09-06T05:48:45Z</time>
      </trkpt>
      <trkpt lat="18.9204" lon="98.99177">
        <time>2019-09-06T05:48:46Z</time>
      </trkpt>
      <trkpt lat="18.92044" lon="98.99186">
        <time>2019-09-06T05:48:47Z</time>
      </trkpt>
      <trkpt lat="18.92051" lon="98.99196">
        <time>2019-09-06T05:48:48Z</time>
      </trkpt>
      <trkpt lat="18.92057" lon="98.99208">
        <time>2019-09-06T05:48:49Z</time>
      </trkpt>
      <trkpt lat="18.92063" lon="98.99219">
        <time>2019-09-06T05:48:50Z</time>
      </trkpt>
      <trkpt lat="18.92069" lon="98.99231">
        <time>2019-09-06T05:48:51Z</time>
      </trkpt>
      <trkpt lat="18.92077" lon="98.99245">
        <time>2019-09-06T05:48:52Z</time>
      </trkpt>
      <trkpt lat="18.92084" lon="98.99258">
        <time>2019-09-06T05:48:53Z</time>
      </trkpt>
      <trkpt lat="18.92091" lon="98.99273">
        <time>2019-09-06T05:48:54Z</time>
      </trkpt>
      <trkpt lat="18.92098" lon="98.99287">
        <time>2019-09-06T05:48:55Z</time>
      </trkpt>
      <trkpt lat="18.92106" lon="98.99301">
        <time>2019-09-06T05:48:56Z</time>
      </trkpt>
      <trkpt lat="18.92113" lon="98.99315">
        <time>2019-09-06T05:48:57Z</time>
      </trkpt>
      <trkpt lat="18.92121" lon="98.99329">
        <time>2019-09-06T05:48:58Z</time>
      </trkpt>
      <trkpt lat="18.92128" lon="98.99343">
        <time>2019-09-06T05:48:59Z</time>
      </trkpt>
      <trkpt lat="18.92134" lon="98.99355">
        <time>2019-09-06T05:49:00Z</time>
      </trkpt>
      <trkpt lat="18.9214" lon="98.99366">
        <time>2019-09-06T05:49:01Z</time>
      </trkpt>
      <trkpt lat="18.92145" lon="98.99373">
        <time>2019-09-06T05:49:02Z</time>
      </trkpt>
      <trkpt lat="18.9215" lon="98.99382">
        <time>2019-09-06T05:49:03Z</time>
      </trkpt>
      <trkpt lat="18.92155" lon="98.99391">
        <time>2019-09-06T05:49:04Z</time>
      </trkpt>
      <trkpt lat="18.9216" lon="98.994">
        <time>2019-09-06T05:49:05Z</time>
      </trkpt>
      <trkpt lat="18.92164" lon="98.99407">
        <time>2019-09-06T05:49:06Z</time>
      </trkpt>
      <trkpt lat="18.92168" lon="98.99414">
        <time>2019-09-06T05:49:07Z</time>
      </trkpt>
      <trkpt lat="18.92172" lon="98.9942">
        <time>2019-09-06T05:49:08Z</time>
      </trkpt>
      <trkpt lat="18.92178" lon="98.99426">
        <time>2019-09-06T05:49:09Z</time>
      </trkpt>
      <trkpt lat="18.92185" lon="98.99429">
        <time>2019-09-06T05:49:10Z</time>
      </trkpt>
      <trkpt lat="18.92194" lon="98.99427">
        <time>2019-09-06T05:49:11Z</time>
      </trkpt>
      <trkpt lat="18.92202" lon="98.99423">
        <time>2019-09-06T05:49:12Z</time>
      </trkpt>
      <trkpt lat="18.92213" lon="98.99418">
        <time>2019-09-06T05:49:13Z</time>
      </trkpt>
      <trkpt lat="18.92226" lon="98.99412">
        <time>2019-09-06T05:49:14Z</time>
      </trkpt>
      <trkpt lat="18.9224" lon="98.99404">
        <time>2019-09-06T05:49:15Z</time>
      </trkpt>
      <trkpt lat="18.92256" lon="98.99396">
        <time>2019-09-06T05:49:16Z</time>
      </trkpt>
      <trkpt lat="18.92272" lon="98.99387">
        <time>2019-09-06T05:49:17Z</time>
      </trkpt>
      <trkpt lat="18.92291" lon="98.99378">
        <time>2019-09-06T05:49:18Z</time>
      </trkpt>
      <trkpt lat="18.92309" lon="98.99369">
        <time>2019-09-06T05:49:19Z</time>
      </trkpt>
      <trkpt lat="18.92329" lon="98.99358">
        <time>2019-09-06T05:49:20Z</time>
      </trkpt>
      <trkpt lat="18.92348" lon="98.99347">
        <time>2019-09-06T05:49:21Z</time>
      </trkpt>
      <trkpt lat="18.92368" lon="98.99336">
        <time>2019-09-06T05:49:22Z</time>
      </trkpt>
      <trkpt lat="18.92387" lon="98.99325">
        <time>2019-09-06T05:49:23Z</time>
      </trkpt>
      <trkpt lat="18.92408" lon="98.99313">
        <time>2019-09-06T05:49:24Z</time>
      </trkpt>
      <trkpt lat="18.92429" lon="98.99302">
        <time>2019-09-06T05:49:25Z</time>
      </trkpt>
      <trkpt lat="18.92451" lon="98.99291">
        <time>2019-09-06T05:49:26Z</time>
      </trkpt>
      <trkpt lat="18.92472" lon="98.99281">
        <time>2019-09-06T05:49:27Z</time>
      </trkpt>
      <trkpt lat="18.92494" lon="98.9927">
        <time>2019-09-06T05:49:28Z</time>
      </trkpt>
      <trkpt lat="18.92515" lon="98.99259">
        <time>2019-09-06T05:49:29Z</time>
      </trkpt>
      <trkpt lat="18.92536" lon="98.99247">
        <time>2019-09-06T05:49:30Z</time>
      </trkpt>
      <trkpt lat="18.92556" lon="98.99235">
        <time>2019-09-06T05:49:31Z</time>
      </trkpt>
      <trkpt lat="18.92576" lon="98.99223">
        <time>2019-09-06T05:49:32Z</time>
      </trkpt>
      <trkpt lat="18.92598" lon="98.9921">
        <time>2019-09-06T05:49:33Z</time>
      </trkpt>
      <trkpt lat="18.92618" lon="98.99198">
        <time>2019-09-06T05:49:34Z</time>
      </trkpt>
      <trkpt lat="18.92638" lon="98.99188">
        <time>2019-09-06T05:49:35Z</time>
      </trkpt>
      <trkpt lat="18.92657" lon="98.99177">
        <time>2019-09-06T05:49:36Z</time>
      </trkpt>
      <trkpt lat="18.92678" lon="98.99167">
        <time>2019-09-06T05:49:37Z</time>
      </trkpt>
      <trkpt lat="18.92698" lon="98.99155">
        <time>2019-09-06T05:49:38Z</time>
      </trkpt>
      <trkpt lat="18.92718" lon="98.99145">
        <time>2019-09-06T05:49:39Z</time>
      </trkpt>
      <trkpt lat="18.9274" lon="98.99134">
        <time>2019-09-06T05:49:40Z</time>
      </trkpt>
      <trkpt lat="18.92761" lon="98.99123">
        <time>2019-09-06T05:49:41Z</time>
      </trkpt>
      <trkpt lat="18.92779" lon="98.99111">
        <time>2019-09-06T05:49:42Z</time>
      </trkpt>
      <trkpt lat="18.92821" lon="98.99086">
        <time>2019-09-06T05:49:44Z</time>
      </trkpt>
      <trkpt lat="18.92842" lon="98.99075">
        <time>2019-09-06T05:49:45Z</time>
      </trkpt>
      <trkpt lat="18.92863" lon="98.99064">
        <time>2019-09-06T05:49:46Z</time>
      </trkpt>
      <trkpt lat="18.92882" lon="98.99054">
        <time>2019-09-06T05:49:47Z</time>
      </trkpt>
      <trkpt lat="18.92902" lon="98.99045">
        <time>2019-09-06T05:49:48Z</time>
      </trkpt>
      <trkpt lat="18.92922" lon="98.99036">
        <time>2019-09-06T05:49:49Z</time>
      </trkpt>
      <trkpt lat="18.92941" lon="98.99027">
        <time>2019-09-06T05:49:50Z</time>
      </trkpt>
      <trkpt lat="18.92959" lon="98.99017">
        <time>2019-09-06T05:49:51Z</time>
      </trkpt>
      <trkpt lat="18.92978" lon="98.99009">
        <time>2019-09-06T05:49:52Z</time>
      </trkpt>
      <trkpt lat="18.92997" lon="98.99">
        <time>2019-09-06T05:49:53Z</time>
      </trkpt>
      <trkpt lat="18.93017" lon="98.98993">
        <time>2019-09-06T05:49:54Z</time>
      </trkpt>
      <trkpt lat="18.93035" lon="98.98986">
        <time>2019-09-06T05:49:55Z</time>
      </trkpt>
      <trkpt lat="18.93054" lon="98.98977">
        <time>2019-09-06T05:49:56Z</time>
      </trkpt>
      <trkpt lat="18.93074" lon="98.98967">
        <time>2019-09-06T05:49:57Z</time>
      </trkpt>
      <trkpt lat="18.93094" lon="98.98959">
        <time>2019-09-06T05:49:58Z</time>
      </trkpt>
      <trkpt lat="18.93114" lon="98.98951">
        <time>2019-09-06T05:49:59Z</time>
      </trkpt>
      <trkpt lat="18.93131" lon="98.98944">
        <time>2019-09-06T05:50:00Z</time>
      </trkpt>
      <trkpt lat="18.93148" lon="98.98938">
        <time>2019-09-06T05:50:01Z</time>
      </trkpt>
      <trkpt lat="18.93165" lon="98.98931">
        <time>2019-09-06T05:50:02Z</time>
      </trkpt>
      <trkpt lat="18.93183" lon="98.98924">
        <time>2019-09-06T05:50:03Z</time>
      </trkpt>
      <trkpt lat="18.932" lon="98.98918">
        <time>2019-09-06T05:50:04Z</time>
      </trkpt>
      <trkpt lat="18.93215" lon="98.98911">
        <time>2019-09-06T05:50:05Z</time>
      </trkpt>
      <trkpt lat="18.93232" lon="98.98905">
        <time>2019-09-06T05:50:06Z</time>
      </trkpt>
      <trkpt lat="18.93249" lon="98.98899">
        <time>2019-09-06T05:50:07Z</time>
      </trkpt>
      <trkpt lat="18.93265" lon="98.98891">
        <time>2019-09-06T05:50:08Z</time>
      </trkpt>
      <trkpt lat="18.9328" lon="98.98884">
        <time>2019-09-06T05:50:09Z</time>
      </trkpt>
      <trkpt lat="18.93297" lon="98.98876">
        <time>2019-09-06T05:50:10Z</time>
      </trkpt>
      <trkpt lat="18.93313" lon="98.98869">
        <time>2019-09-06T05:50:11Z</time>
      </trkpt>
      <trkpt lat="18.9333" lon="98.98863">
        <time>2019-09-06T05:50:12Z</time>
      </trkpt>
      <trkpt lat="18.93346" lon="98.98858">
        <time>2019-09-06T05:50:13Z</time>
      </trkpt>
      <trkpt lat="18.93362" lon="98.98851">
        <time>2019-09-06T05:50:14Z</time>
      </trkpt>
      <trkpt lat="18.93378" lon="98.98845">
        <time>2019-09-06T05:50:15Z</time>
      </trkpt>
      <trkpt lat="18.93395" lon="98.98837">
        <time>2019-09-06T05:50:16Z</time>
      </trkpt>
      <trkpt lat="18.93413" lon="98.9883">
        <time>2019-09-06T05:50:17Z</time>
      </trkpt>
      <trkpt lat="18.93431" lon="98.98824">
        <time>2019-09-06T05:50:18Z</time>
      </trkpt>
      <trkpt lat="18.93448" lon="98.98817">
        <time>2019-09-06T05:50:19Z</time>
      </trkpt>
      <trkpt lat="18.93466" lon="98.98809">
        <time>2019-09-06T05:50:20Z</time>
      </trkpt>
      <trkpt lat="18.93484" lon="98.98802">
        <time>2019-09-06T05:50:21Z</time>
      </trkpt>
      <trkpt lat="18.935" lon="98.98795">
        <time>2019-09-06T05:50:22Z</time>
      </trkpt>
      <trkpt lat="18.93517" lon="98.98788">
        <time>2019-09-06T05:50:23Z</time>
      </trkpt>
      <trkpt lat="18.93534" lon="98.98779">
        <time>2019-09-06T05:50:24Z</time>
      </trkpt>
      <trkpt lat="18.93551" lon="98.98772">
        <time>2019-09-06T05:50:25Z</time>
      </trkpt>
      <trkpt lat="18.93569" lon="98.98766">
        <time>2019-09-06T05:50:26Z</time>
      </trkpt>
      <trkpt lat="18.93586" lon="98.98759">
        <time>2019-09-06T05:50:27Z</time>
      </trkpt>
      <trkpt lat="18.93603" lon="98.98752">
        <time>2019-09-06T05:50:28Z</time>
      </trkpt>
      <trkpt lat="18.9362" lon="98.98745">
        <time>2019-09-06T05:50:29Z</time>
      </trkpt>
      <trkpt lat="18.93637" lon="98.98739">
        <time>2019-09-06T05:50:30Z</time>
      </trkpt>
      <trkpt lat="18.93654" lon="98.98733">
        <time>2019-09-06T05:50:31Z</time>
      </trkpt>
      <trkpt lat="18.93672" lon="98.98726">
        <time>2019-09-06T05:50:32Z</time>
      </trkpt>
      <trkpt lat="18.93688" lon="98.98718">
        <time>2019-09-06T05:50:33Z</time>
      </trkpt>
      <trkpt lat="18.93707" lon="98.98713">
        <time>2019-09-06T05:50:34Z</time>
      </trkpt>
      <trkpt lat="18.93722" lon="98.98708">
        <time>2019-09-06T05:50:35Z</time>
      </trkpt>
      <trkpt lat="18.93739" lon="98.987">
        <time>2019-09-06T05:50:36Z</time>
      </trkpt>
      <trkpt lat="18.93759" lon="98.98694">
        <time>2019-09-06T05:50:37Z</time>
      </trkpt>
      <trkpt lat="18.93778" lon="98.98686">
        <time>2019-09-06T05:50:38Z</time>
      </trkpt>
      <trkpt lat="18.93797" lon="98.98678">
        <time>2019-09-06T05:50:39Z</time>
      </trkpt>
      <trkpt lat="18.93815" lon="98.98672">
        <time>2019-09-06T05:50:40Z</time>
      </trkpt>
      <trkpt lat="18.93832" lon="98.98664">
        <time>2019-09-06T05:50:41Z</time>
      </trkpt>
      <trkpt lat="18.9385" lon="98.98657">
        <time>2019-09-06T05:50:42Z</time>
      </trkpt>
      <trkpt lat="18.93865" lon="98.98649">
        <time>2019-09-06T05:50:43Z</time>
      </trkpt>
      <trkpt lat="18.93883" lon="98.98642">
        <time>2019-09-06T05:50:44Z</time>
      </trkpt>
      <trkpt lat="18.93899" lon="98.98635">
        <time>2019-09-06T05:50:45Z</time>
      </trkpt>
      <trkpt lat="18.93916" lon="98.98627">
        <time>2019-09-06T05:50:46Z</time>
      </trkpt>
      <trkpt lat="18.93934" lon="98.9862">
        <time>2019-09-06T05:50:47Z</time>
      </trkpt>
      <trkpt lat="18.9395" lon="98.98613">
        <time>2019-09-06T05:50:48Z</time>
      </trkpt>
      <trkpt lat="18.93968" lon="98.98606">
        <time>2019-09-06T05:50:49Z</time>
      </trkpt>
      <trkpt lat="18.93985" lon="98.98598">
        <time>2019-09-06T05:50:50Z</time>
      </trkpt>
      <trkpt lat="18.94002" lon="98.98591">
        <time>2019-09-06T05:50:51Z</time>
      </trkpt>
      <trkpt lat="18.94019" lon="98.98584">
        <time>2019-09-06T05:50:52Z</time>
      </trkpt>
      <trkpt lat="18.94036" lon="98.98576">
        <time>2019-09-06T05:50:53Z</time>
      </trkpt>
      <trkpt lat="18.94053" lon="98.98569">
        <time>2019-09-06T05:50:54Z</time>
      </trkpt>
      <trkpt lat="18.9407" lon="98.98563">
        <time>2019-09-06T05:50:55Z</time>
      </trkpt>
      <trkpt lat="18.94086" lon="98.98556">
        <time>2019-09-06T05:50:56Z</time>
      </trkpt>
      <trkpt lat="18.94102" lon="98.9855">
        <time>2019-09-06T05:50:57Z</time>
      </trkpt>
      <trkpt lat="18.94119" lon="98.98543">
        <time>2019-09-06T05:50:58Z</time>
      </trkpt>
      <trkpt lat="18.94138" lon="98.98536">
        <time>2019-09-06T05:50:59Z</time>
      </trkpt>
      <trkpt lat="18.94155" lon="98.98529">
        <time>2019-09-06T05:51:00Z</time>
      </trkpt>
      <trkpt lat="18.94173" lon="98.98522">
        <time>2019-09-06T05:51:01Z</time>
      </trkpt>
      <trkpt lat="18.9419" lon="98.98514">
        <time>2019-09-06T05:51:02Z</time>
      </trkpt>
      <trkpt lat="18.94205" lon="98.98507">
        <time>2019-09-06T05:51:03Z</time>
      </trkpt>
      <trkpt lat="18.94222" lon="98.985">
        <time>2019-09-06T05:51:04Z</time>
      </trkpt>
      <trkpt lat="18.94239" lon="98.98493">
        <time>2019-09-06T05:51:05Z</time>
      </trkpt>
      <trkpt lat="18.94256" lon="98.98486">
        <time>2019-09-06T05:51:06Z</time>
      </trkpt>
      <trkpt lat="18.94273" lon="98.98479">
        <time>2019-09-06T05:51:07Z</time>
      </trkpt>
      <trkpt lat="18.94291" lon="98.98472">
        <time>2019-09-06T05:51:08Z</time>
      </trkpt>
      <trkpt lat="18.94308" lon="98.98465">
        <time>2019-09-06T05:51:09Z</time>
      </trkpt>
      <trkpt lat="18.94324" lon="98.98459">
        <time>2019-09-06T05:51:10Z</time>
      </trkpt>
      <trkpt lat="18.94341" lon="98.98453">
        <time>2019-09-06T05:51:11Z</time>
      </trkpt>
      <trkpt lat="18.94357" lon="98.98449">
        <time>2019-09-06T05:51:12Z</time>
      </trkpt>
      <trkpt lat="18.94374" lon="98.98443">
        <time>2019-09-06T05:51:13Z</time>
      </trkpt>
      <trkpt lat="18.9439" lon="98.98439">
        <time>2019-09-06T05:51:14Z</time>
      </trkpt>
      <trkpt lat="18.94407" lon="98.98434">
        <time>2019-09-06T05:51:15Z</time>
      </trkpt>
      <trkpt lat="18.94422" lon="98.9843">
        <time>2019-09-06T05:51:16Z</time>
      </trkpt>
      <trkpt lat="18.94437" lon="98.98426">
        <time>2019-09-06T05:51:17Z</time>
      </trkpt>
      <trkpt lat="18.94453" lon="98.98424">
        <time>2019-09-06T05:51:18Z</time>
      </trkpt>
      <trkpt lat="18.9447" lon="98.98421">
        <time>2019-09-06T05:51:19Z</time>
      </trkpt>
      <trkpt lat="18.94487" lon="98.98418">
        <time>2019-09-06T05:51:20Z</time>
      </trkpt>
      <trkpt lat="18.94504" lon="98.98416">
        <time>2019-09-06T05:51:21Z</time>
      </trkpt>
      <trkpt lat="18.94521" lon="98.98414">
        <time>2019-09-06T05:51:22Z</time>
      </trkpt>
      <trkpt lat="18.94542" lon="98.98412">
        <time>2019-09-06T05:51:23Z</time>
      </trkpt>
      <trkpt lat="18.94563" lon="98.98412">
        <time>2019-09-06T05:51:24Z</time>
      </trkpt>
      <trkpt lat="18.94584" lon="98.9841">
        <time>2019-09-06T05:51:25Z</time>
      </trkpt>
      <trkpt lat="18.94608" lon="98.98408">
        <time>2019-09-06T05:51:26Z</time>
      </trkpt>
      <trkpt lat="18.9463" lon="98.98407">
        <time>2019-09-06T05:51:27Z</time>
      </trkpt>
      <trkpt lat="18.94654" lon="98.98407">
        <time>2019-09-06T05:51:28Z</time>
      </trkpt>
      <trkpt lat="18.94677" lon="98.98406">
        <time>2019-09-06T05:51:29Z</time>
      </trkpt>
      <trkpt lat="18.94701" lon="98.98406">
        <time>2019-09-06T05:51:30Z</time>
      </trkpt>
      <trkpt lat="18.94724" lon="98.98405">
        <time>2019-09-06T05:51:31Z</time>
      </trkpt>
      <trkpt lat="18.94747" lon="98.98406">
        <time>2019-09-06T05:51:32Z</time>
      </trkpt>
      <trkpt lat="18.9477" lon="98.98405">
        <time>2019-09-06T05:51:33Z</time>
      </trkpt>
      <trkpt lat="18.94792" lon="98.98404">
        <time>2019-09-06T05:51:34Z</time>
      </trkpt>
      <trkpt lat="18.94815" lon="98.98405">
        <time>2019-09-06T05:51:35Z</time>
      </trkpt>
      <trkpt lat="18.94837" lon="98.98404">
        <time>2019-09-06T05:51:36Z</time>
      </trkpt>
      <trkpt lat="18.94858" lon="98.98404">
        <time>2019-09-06T05:51:37Z</time>
      </trkpt>
      <trkpt lat="18.9488" lon="98.98403">
        <time>2019-09-06T05:51:38Z</time>
      </trkpt>
      <trkpt lat="18.94901" lon="98.98402">
        <time>2019-09-06T05:51:39Z</time>
      </trkpt>
      <trkpt lat="18.94922" lon="98.98402">
        <time>2019-09-06T05:51:40Z</time>
      </trkpt>
      <trkpt lat="18.94943" lon="98.98402">
        <time>2019-09-06T05:51:41Z</time>
      </trkpt>
      <trkpt lat="18.94965" lon="98.98403">
        <time>2019-09-06T05:51:42Z</time>
      </trkpt>
      <trkpt lat="18.94987" lon="98.98403">
        <time>2019-09-06T05:51:43Z</time>
      </trkpt>
      <trkpt lat="18.95009" lon="98.98402">
        <time>2019-09-06T05:51:44Z</time>
      </trkpt>
      <trkpt lat="18.9503" lon="98.98403">
        <time>2019-09-06T05:51:45Z</time>
      </trkpt>
      <trkpt lat="18.95053" lon="98.98403">
        <time>2019-09-06T05:51:46Z</time>
      </trkpt>
      <trkpt lat="18.95074" lon="98.98406">
        <time>2019-09-06T05:51:47Z</time>
      </trkpt>
      <trkpt lat="18.95097" lon="98.98406">
        <time>2019-09-06T05:51:48Z</time>
      </trkpt>
      <trkpt lat="18.95118" lon="98.98405">
        <time>2019-09-06T05:51:49Z</time>
      </trkpt>
      <trkpt lat="18.95138" lon="98.98404">
        <time>2019-09-06T05:51:50Z</time>
      </trkpt>
      <trkpt lat="18.95159" lon="98.98402">
        <time>2019-09-06T05:51:51Z</time>
      </trkpt>
      <trkpt lat="18.95181" lon="98.984">
        <time>2019-09-06T05:51:52Z</time>
      </trkpt>
      <trkpt lat="18.95203" lon="98.984">
        <time>2019-09-06T05:51:53Z</time>
      </trkpt>
      <trkpt lat="18.95225" lon="98.98399">
        <time>2019-09-06T05:51:54Z</time>
      </trkpt>
      <trkpt lat="18.95245" lon="98.984">
        <time>2019-09-06T05:51:55Z</time>
      </trkpt>
      <trkpt lat="18.95266" lon="98.98401">
        <time>2019-09-06T05:51:56Z</time>
      </trkpt>
      <trkpt lat="18.95285" lon="98.984">
        <time>2019-09-06T05:51:57Z</time>
      </trkpt>
      <trkpt lat="18.95306" lon="98.98399">
        <time>2019-09-06T05:51:58Z</time>
      </trkpt>
      <trkpt lat="18.95326" lon="98.98398">
        <time>2019-09-06T05:51:59Z</time>
      </trkpt>
      <trkpt lat="18.95347" lon="98.98397">
        <time>2019-09-06T05:52:00Z</time>
      </trkpt>
      <trkpt lat="18.95371" lon="98.98397">
        <time>2019-09-06T05:52:01Z</time>
      </trkpt>
      <trkpt lat="18.95393" lon="98.98396">
        <time>2019-09-06T05:52:02Z</time>
      </trkpt>
      <trkpt lat="18.95414" lon="98.98394">
        <time>2019-09-06T05:52:03Z</time>
      </trkpt>
      <trkpt lat="18.95436" lon="98.98393">
        <time>2019-09-06T05:52:04Z</time>
      </trkpt>
      <trkpt lat="18.95457" lon="98.98391">
        <time>2019-09-06T05:52:05Z</time>
      </trkpt>
      <trkpt lat="18.95479" lon="98.98391">
        <time>2019-09-06T05:52:06Z</time>
      </trkpt>
      <trkpt lat="18.955" lon="98.98391">
        <time>2019-09-06T05:52:07Z</time>
      </trkpt>
      <trkpt lat="18.95522" lon="98.98392">
        <time>2019-09-06T05:52:08Z</time>
      </trkpt>
      <trkpt lat="18.95544" lon="98.98392">
        <time>2019-09-06T05:52:09Z</time>
      </trkpt>
      <trkpt lat="18.95564" lon="98.9839">
        <time>2019-09-06T05:52:10Z</time>
      </trkpt>
      <trkpt lat="18.95586" lon="98.9839">
        <time>2019-09-06T05:52:11Z</time>
      </trkpt>
      <trkpt lat="18.95606" lon="98.9839">
        <time>2019-09-06T05:52:12Z</time>
      </trkpt>
      <trkpt lat="18.95627" lon="98.9839">
        <time>2019-09-06T05:52:13Z</time>
      </trkpt>
      <trkpt lat="18.95646" lon="98.9839">
        <time>2019-09-06T05:52:14Z</time>
      </trkpt>
      <trkpt lat="18.95666" lon="98.9839">
        <time>2019-09-06T05:52:15Z</time>
      </trkpt>
      <trkpt lat="18.95684" lon="98.98391">
        <time>2019-09-06T05:52:16Z</time>
      </trkpt>
      <trkpt lat="18.95698" lon="98.9839">
        <time>2019-09-06T05:52:17Z</time>
      </trkpt>
      <trkpt lat="18.95711" lon="98.9839">
        <time>2019-09-06T05:52:18Z</time>
      </trkpt>
      <trkpt lat="18.95726" lon="98.9839">
        <time>2019-09-06T05:52:19Z</time>
      </trkpt>
      <trkpt lat="18.95743" lon="98.98391">
        <time>2019-09-06T05:52:20Z</time>
      </trkpt>
      <trkpt lat="18.95761" lon="98.9839">
        <time>2019-09-06T05:52:21Z</time>
      </trkpt>
      <trkpt lat="18.9578" lon="98.98389">
        <time>2019-09-06T05:52:22Z</time>
      </trkpt>
      <trkpt lat="18.958" lon="98.98389">
        <time>2019-09-06T05:52:23Z</time>
      </trkpt>
      <trkpt lat="18.95821" lon="98.98388">
        <time>2019-09-06T05:52:24Z</time>
      </trkpt>
      <trkpt lat="18.95843" lon="98.98389">
        <time>2019-09-06T05:52:25Z</time>
      </trkpt>
      <trkpt lat="18.95866" lon="98.98388">
        <time>2019-09-06T05:52:26Z</time>
      </trkpt>
      <trkpt lat="18.95888" lon="98.98388">
        <time>2019-09-06T05:52:27Z</time>
      </trkpt>
      <trkpt lat="18.95911" lon="98.98388">
        <time>2019-09-06T05:52:28Z</time>
      </trkpt>
      <trkpt lat="18.95934" lon="98.98387">
        <time>2019-09-06T05:52:29Z</time>
      </trkpt>
      <trkpt lat="18.95957" lon="98.98387">
        <time>2019-09-06T05:52:30Z</time>
      </trkpt>
      <trkpt lat="18.9598" lon="98.98386">
        <time>2019-09-06T05:52:31Z</time>
      </trkpt>
      <trkpt lat="18.96002" lon="98.98386">
        <time>2019-09-06T05:52:32Z</time>
      </trkpt>
      <trkpt lat="18.96023" lon="98.98386">
        <time>2019-09-06T05:52:33Z</time>
      </trkpt>
      <trkpt lat="18.96043" lon="98.98386">
        <time>2019-09-06T05:52:34Z</time>
      </trkpt>
      <trkpt lat="18.96062" lon="98.98384">
        <time>2019-09-06T05:52:35Z</time>
      </trkpt>
      <trkpt lat="18.96082" lon="98.98384">
        <time>2019-09-06T05:52:36Z</time>
      </trkpt>
      <trkpt lat="18.961" lon="98.98383">
        <time>2019-09-06T05:52:37Z</time>
      </trkpt>
      <trkpt lat="18.9612" lon="98.98383">
        <time>2019-09-06T05:52:38Z</time>
      </trkpt>
      <trkpt lat="18.96139" lon="98.98383">
        <time>2019-09-06T05:52:39Z</time>
      </trkpt>
      <trkpt lat="18.96157" lon="98.98384">
        <time>2019-09-06T05:52:40Z</time>
      </trkpt>
      <trkpt lat="18.96175" lon="98.98384">
        <time>2019-09-06T05:52:41Z</time>
      </trkpt>
      <trkpt lat="18.96193" lon="98.98383">
        <time>2019-09-06T05:52:42Z</time>
      </trkpt>
      <trkpt lat="18.9621" lon="98.98384">
        <time>2019-09-06T05:52:43Z</time>
      </trkpt>
      <trkpt lat="18.96227" lon="98.98384">
        <time>2019-09-06T05:52:44Z</time>
      </trkpt>
      <trkpt lat="18.96244" lon="98.98384">
        <time>2019-09-06T05:52:45Z</time>
      </trkpt>
      <trkpt lat="18.96259" lon="98.98384">
        <time>2019-09-06T05:52:46Z</time>
      </trkpt>
      <trkpt lat="18.96273" lon="98.98385">
        <time>2019-09-06T05:52:47Z</time>
      </trkpt>
      <trkpt lat="18.96286" lon="98.98385">
        <time>2019-09-06T05:52:48Z</time>
      </trkpt>
      <trkpt lat="18.96298" lon="98.98385">
        <time>2019-09-06T05:52:49Z</time>
      </trkpt>
      <trkpt lat="18.9631" lon="98.98384">
        <time>2019-09-06T05:52:50Z</time>
      </trkpt>
      <trkpt lat="18.96322" lon="98.98384">
        <time>2019-09-06T05:52:51Z</time>
      </trkpt>
      <trkpt lat="18.96335" lon="98.98384">
        <time>2019-09-06T05:52:52Z</time>
      </trkpt>
      <trkpt lat="18.96347" lon="98.98384">
        <time>2019-09-06T05:52:53Z</time>
      </trkpt>
      <trkpt lat="18.9636" lon="98.98385">
        <time>2019-09-06T05:52:54Z</time>
      </trkpt>
      <trkpt lat="18.96374" lon="98.98385">
        <time>2019-09-06T05:52:55Z</time>
      </trkpt>
      <trkpt lat="18.9639" lon="98.98385">
        <time>2019-09-06T05:52:56Z</time>
      </trkpt>
      <trkpt lat="18.96409" lon="98.98384">
        <time>2019-09-06T05:52:57Z</time>
      </trkpt>
      <trkpt lat="18.96429" lon="98.98384">
        <time>2019-09-06T05:52:58Z</time>
      </trkpt>
      <trkpt lat="18.96449" lon="98.98384">
        <time>2019-09-06T05:52:59Z</time>
      </trkpt>
      <trkpt lat="18.9647" lon="98.98384">
        <time>2019-09-06T05:53:00Z</time>
      </trkpt>
      <trkpt lat="18.96489" lon="98.98382">
        <time>2019-09-06T05:53:01Z</time>
      </trkpt>
      <trkpt lat="18.96509" lon="98.98381">
        <time>2019-09-06T05:53:02Z</time>
      </trkpt>
      <trkpt lat="18.96527" lon="98.98381">
        <time>2019-09-06T05:53:03Z</time>
      </trkpt>
      <trkpt lat="18.96546" lon="98.98381">
        <time>2019-09-06T05:53:04Z</time>
      </trkpt>
      <trkpt lat="18.96564" lon="98.98379">
        <time>2019-09-06T05:53:05Z</time>
      </trkpt>
      <trkpt lat="18.96583" lon="98.98378">
        <time>2019-09-06T05:53:06Z</time>
      </trkpt>
      <trkpt lat="18.96603" lon="98.98376">
        <time>2019-09-06T05:53:07Z</time>
      </trkpt>
      <trkpt lat="18.96621" lon="98.98374">
        <time>2019-09-06T05:53:08Z</time>
      </trkpt>
      <trkpt lat="18.96641" lon="98.98372">
        <time>2019-09-06T05:53:09Z</time>
      </trkpt>
      <trkpt lat="18.96661" lon="98.9837">
        <time>2019-09-06T05:53:10Z</time>
      </trkpt>
      <trkpt lat="18.96681" lon="98.98366">
        <time>2019-09-06T05:53:11Z</time>
      </trkpt>
      <trkpt lat="18.96701" lon="98.98364">
        <time>2019-09-06T05:53:12Z</time>
      </trkpt>
      <trkpt lat="18.96721" lon="98.98362">
        <time>2019-09-06T05:53:13Z</time>
      </trkpt>
      <trkpt lat="18.96742" lon="98.98358">
        <time>2019-09-06T05:53:14Z</time>
      </trkpt>
      <trkpt lat="18.96762" lon="98.98354">
        <time>2019-09-06T05:53:15Z</time>
      </trkpt>
      <trkpt lat="18.96781" lon="98.98351">
        <time>2019-09-06T05:53:16Z</time>
      </trkpt>
      <trkpt lat="18.96801" lon="98.98348">
        <time>2019-09-06T05:53:17Z</time>
      </trkpt>
      <trkpt lat="18.96821" lon="98.98343">
        <time>2019-09-06T05:53:18Z</time>
      </trkpt>
      <trkpt lat="18.96841" lon="98.9834">
        <time>2019-09-06T05:53:19Z</time>
      </trkpt>
      <trkpt lat="18.96861" lon="98.98337">
        <time>2019-09-06T05:53:20Z</time>
      </trkpt>
      <trkpt lat="18.9688" lon="98.98336">
        <time>2019-09-06T05:53:21Z</time>
      </trkpt>
      <trkpt lat="18.96898" lon="98.98334">
        <time>2019-09-06T05:53:22Z</time>
      </trkpt>
      <trkpt lat="18.96916" lon="98.98329">
        <time>2019-09-06T05:53:23Z</time>
      </trkpt>
      <trkpt lat="18.96934" lon="98.98326">
        <time>2019-09-06T05:53:24Z</time>
      </trkpt>
      <trkpt lat="18.96953" lon="98.98323">
        <time>2019-09-06T05:53:25Z</time>
      </trkpt>
      <trkpt lat="18.96972" lon="98.9832">
        <time>2019-09-06T05:53:26Z</time>
      </trkpt>
      <trkpt lat="18.96991" lon="98.98317">
        <time>2019-09-06T05:53:27Z</time>
      </trkpt>
      <trkpt lat="18.97009" lon="98.98314">
        <time>2019-09-06T05:53:28Z</time>
      </trkpt>
      <trkpt lat="18.97026" lon="98.9831">
        <time>2019-09-06T05:53:29Z</time>
      </trkpt>
      <trkpt lat="18.97045" lon="98.98308">
        <time>2019-09-06T05:53:30Z</time>
      </trkpt>
      <trkpt lat="18.97065" lon="98.98305">
        <time>2019-09-06T05:53:31Z</time>
      </trkpt>
      <trkpt lat="18.97083" lon="98.98302">
        <time>2019-09-06T05:53:32Z</time>
      </trkpt>
      <trkpt lat="18.97101" lon="98.98299">
        <time>2019-09-06T05:53:33Z</time>
      </trkpt>
      <trkpt lat="18.97119" lon="98.98295">
        <time>2019-09-06T05:53:34Z</time>
      </trkpt>
      <trkpt lat="18.97135" lon="98.98292">
        <time>2019-09-06T05:53:35Z</time>
      </trkpt>
      <trkpt lat="18.97151" lon="98.98289">
        <time>2019-09-06T05:53:36Z</time>
      </trkpt>
      <trkpt lat="18.97168" lon="98.98288">
        <time>2019-09-06T05:53:37Z</time>
      </trkpt>
      <trkpt lat="18.97185" lon="98.98285">
        <time>2019-09-06T05:53:38Z</time>
      </trkpt>
      <trkpt lat="18.972" lon="98.98283">
        <time>2019-09-06T05:53:39Z</time>
      </trkpt>
      <trkpt lat="18.97214" lon="98.9828">
        <time>2019-09-06T05:53:40Z</time>
      </trkpt>
      <trkpt lat="18.97228" lon="98.98278">
        <time>2019-09-06T05:53:41Z</time>
      </trkpt>
      <trkpt lat="18.97244" lon="98.98275">
        <time>2019-09-06T05:53:42Z</time>
      </trkpt>
      <trkpt lat="18.97259" lon="98.98274">
        <time>2019-09-06T05:53:43Z</time>
      </trkpt>
      <trkpt lat="18.97274" lon="98.98272">
        <time>2019-09-06T05:53:44Z</time>
      </trkpt>
      <trkpt lat="18.97287" lon="98.98269">
        <time>2019-09-06T05:53:45Z</time>
      </trkpt>
      <trkpt lat="18.97301" lon="98.98267">
        <time>2019-09-06T05:53:46Z</time>
      </trkpt>
      <trkpt lat="18.97316" lon="98.98266">
        <time>2019-09-06T05:53:47Z</time>
      </trkpt>
      <trkpt lat="18.9733" lon="98.98263">
        <time>2019-09-06T05:53:48Z</time>
      </trkpt>
      <trkpt lat="18.97345" lon="98.98261">
        <time>2019-09-06T05:53:49Z</time>
      </trkpt>
      <trkpt lat="18.97359" lon="98.98257">
        <time>2019-09-06T05:53:50Z</time>
      </trkpt>
      <trkpt lat="18.97376" lon="98.98254">
        <time>2019-09-06T05:53:51Z</time>
      </trkpt>
      <trkpt lat="18.9739" lon="98.98252">
        <time>2019-09-06T05:53:52Z</time>
      </trkpt>
      <trkpt lat="18.97406" lon="98.98249">
        <time>2019-09-06T05:53:53Z</time>
      </trkpt>
      <trkpt lat="18.97422" lon="98.98247">
        <time>2019-09-06T05:53:54Z</time>
      </trkpt>
      <trkpt lat="18.97438" lon="98.98244">
        <time>2019-09-06T05:53:55Z</time>
      </trkpt>
      <trkpt lat="18.97453" lon="98.98242">
        <time>2019-09-06T05:53:56Z</time>
      </trkpt>
      <trkpt lat="18.97468" lon="98.9824">
        <time>2019-09-06T05:53:57Z</time>
      </trkpt>
      <trkpt lat="18.9748" lon="98.98239">
        <time>2019-09-06T05:53:58Z</time>
      </trkpt>
      <trkpt lat="18.97493" lon="98.98236">
        <time>2019-09-06T05:53:59Z</time>
      </trkpt>
      <trkpt lat="18.97504" lon="98.98233">
        <time>2019-09-06T05:54:00Z</time>
      </trkpt>
      <trkpt lat="18.97516" lon="98.98231">
        <time>2019-09-06T05:54:01Z</time>
      </trkpt>
      <trkpt lat="18.97524" lon="98.9823">
        <time>2019-09-06T05:54:02Z</time>
      </trkpt>
      <trkpt lat="18.97534" lon="98.98228">
        <time>2019-09-06T05:54:03Z</time>
      </trkpt>
      <trkpt lat="18.97541" lon="98.98226">
        <time>2019-09-06T05:54:04Z</time>
      </trkpt>
      <trkpt lat="18.9755" lon="98.98223">
        <time>2019-09-06T05:54:05Z</time>
      </trkpt>
      <trkpt lat="18.97559" lon="98.98222">
        <time>2019-09-06T05:54:06Z</time>
      </trkpt>
      <trkpt lat="18.97568" lon="98.98221">
        <time>2019-09-06T05:54:07Z</time>
      </trkpt>
      <trkpt lat="18.97578" lon="98.98218">
        <time>2019-09-06T05:54:08Z</time>
      </trkpt>
      <trkpt lat="18.9759" lon="98.98216">
        <time>2019-09-06T05:54:09Z</time>
      </trkpt>
      <trkpt lat="18.97604" lon="98.98213">
        <time>2019-09-06T05:54:10Z</time>
      </trkpt>
      <trkpt lat="18.97618" lon="98.98209">
        <time>2019-09-06T05:54:11Z</time>
      </trkpt>
      <trkpt lat="18.97634" lon="98.98207">
        <time>2019-09-06T05:54:12Z</time>
      </trkpt>
      <trkpt lat="18.97646" lon="98.98204">
        <time>2019-09-06T05:54:13Z</time>
      </trkpt>
      <trkpt lat="18.97659" lon="98.98202">
        <time>2019-09-06T05:54:14Z</time>
      </trkpt>
      <trkpt lat="18.97672" lon="98.98202">
        <time>2019-09-06T05:54:15Z</time>
      </trkpt>
      <trkpt lat="18.97682" lon="98.98202">
        <time>2019-09-06T05:54:16Z</time>
      </trkpt>
      <trkpt lat="18.97689" lon="98.98201">
        <time>2019-09-06T05:54:17Z</time>
      </trkpt>
      <trkpt lat="18.97695" lon="98.98202">
        <time>2019-09-06T05:54:18Z</time>
      </trkpt>
      <trkpt lat="18.97703" lon="98.98203">
        <time>2019-09-06T05:54:19Z</time>
      </trkpt>
      <trkpt lat="18.97707" lon="98.98199">
        <time>2019-09-06T05:54:20Z</time>
      </trkpt>
      <trkpt lat="18.9771" lon="98.98198">
        <time>2019-09-06T05:54:21Z</time>
      </trkpt>
      <trkpt lat="18.97716" lon="98.98198">
        <time>2019-09-06T05:54:22Z</time>
      </trkpt>
      <trkpt lat="18.97723" lon="98.98196">
        <time>2019-09-06T05:54:23Z</time>
      </trkpt>
      <trkpt lat="18.97733" lon="98.98193">
        <time>2019-09-06T05:54:24Z</time>
      </trkpt>
      <trkpt lat="18.97745" lon="98.98191">
        <time>2019-09-06T05:54:25Z</time>
      </trkpt>
      <trkpt lat="18.97758" lon="98.98189">
        <time>2019-09-06T05:54:26Z</time>
      </trkpt>
      <trkpt lat="18.97771" lon="98.98184">
        <time>2019-09-06T05:54:27Z</time>
      </trkpt>
      <trkpt lat="18.97785" lon="98.98179">
        <time>2019-09-06T05:54:28Z</time>
      </trkpt>
      <trkpt lat="18.97798" lon="98.98174">
        <time>2019-09-06T05:54:29Z</time>
      </trkpt>
      <trkpt lat="18.97813" lon="98.98169">
        <time>2019-09-06T05:54:30Z</time>
      </trkpt>
      <trkpt lat="18.97827" lon="98.98164">
        <time>2019-09-06T05:54:31Z</time>
      </trkpt>
      <trkpt lat="18.97842" lon="98.98157">
        <time>2019-09-06T05:54:32Z</time>
      </trkpt>
      <trkpt lat="18.97855" lon="98.9815">
        <time>2019-09-06T05:54:33Z</time>
      </trkpt>
      <trkpt lat="18.97867" lon="98.98143">
        <time>2019-09-06T05:54:34Z</time>
      </trkpt>
      <trkpt lat="18.9788" lon="98.98136">
        <time>2019-09-06T05:54:35Z</time>
      </trkpt>
      <trkpt lat="18.97894" lon="98.98129">
        <time>2019-09-06T05:54:36Z</time>
      </trkpt>
      <trkpt lat="18.97906" lon="98.98122">
        <time>2019-09-06T05:54:37Z</time>
      </trkpt>
      <trkpt lat="18.97918" lon="98.98113">
        <time>2019-09-06T05:54:38Z</time>
      </trkpt>
      <trkpt lat="18.97931" lon="98.98104">
        <time>2019-09-06T05:54:40Z</time>
      </trkpt>
      <trkpt lat="18.97943" lon="98.98093">
        <time>2019-09-06T05:54:40Z</time>
      </trkpt>
      <trkpt lat="18.97955" lon="98.98084">
        <time>2019-09-06T05:54:41Z</time>
      </trkpt>
      <trkpt lat="18.97968" lon="98.98074">
        <time>2019-09-06T05:54:42Z</time>
      </trkpt>
      <trkpt lat="18.9798" lon="98.98064">
        <time>2019-09-06T05:54:43Z</time>
      </trkpt>
      <trkpt lat="18.97992" lon="98.98054">
        <time>2019-09-06T05:54:44Z</time>
      </trkpt>
      <trkpt lat="18.98004" lon="98.98043">
        <time>2019-09-06T05:54:45Z</time>
      </trkpt>
      <trkpt lat="18.98016" lon="98.98032">
        <time>2019-09-06T05:54:46Z</time>
      </trkpt>
      <trkpt lat="18.98034" lon="98.98024">
        <time>2019-09-06T05:54:47Z</time>
      </trkpt>
      <trkpt lat="18.98046" lon="98.98012">
        <time>2019-09-06T05:54:48Z</time>
      </trkpt>
      <trkpt lat="18.9806" lon="98.98">
        <time>2019-09-06T05:54:49Z</time>
      </trkpt>
      <trkpt lat="18.98071" lon="98.97987">
        <time>2019-09-06T05:54:50Z</time>
      </trkpt>
      <trkpt lat="18.98084" lon="98.97974">
        <time>2019-09-06T05:54:51Z</time>
      </trkpt>
      <trkpt lat="18.98101" lon="98.97962">
        <time>2019-09-06T05:54:52Z</time>
      </trkpt>
      <trkpt lat="18.98118" lon="98.97953">
        <time>2019-09-06T05:54:53Z</time>
      </trkpt>
      <trkpt lat="18.98134" lon="98.97942">
        <time>2019-09-06T05:54:54Z</time>
      </trkpt>
      <trkpt lat="18.9815" lon="98.97935">
        <time>2019-09-06T05:54:55Z</time>
      </trkpt>
      <trkpt lat="18.98167" lon="98.97926">
        <time>2019-09-06T05:54:56Z</time>
      </trkpt>
      <trkpt lat="18.98187" lon="98.97917">
        <time>2019-09-06T05:54:57Z</time>
      </trkpt>
      <trkpt lat="18.98205" lon="98.97908">
        <time>2019-09-06T05:54:58Z</time>
      </trkpt>
      <trkpt lat="18.98226" lon="98.97899">
        <time>2019-09-06T05:54:59Z</time>
      </trkpt>
      <trkpt lat="18.98248" lon="98.97891">
        <time>2019-09-06T05:55:00Z</time>
      </trkpt>
      <trkpt lat="18.98268" lon="98.97882">
        <time>2019-09-06T05:55:01Z</time>
      </trkpt>
      <trkpt lat="18.98289" lon="98.97874">
        <time>2019-09-06T05:55:02Z</time>
      </trkpt>
      <trkpt lat="18.98309" lon="98.97864">
        <time>2019-09-06T05:55:03Z</time>
      </trkpt>
      <trkpt lat="18.98331" lon="98.97855">
        <time>2019-09-06T05:55:04Z</time>
      </trkpt>
      <trkpt lat="18.98353" lon="98.97847">
        <time>2019-09-06T05:55:05Z</time>
      </trkpt>
      <trkpt lat="18.98375" lon="98.97838">
        <time>2019-09-06T05:55:06Z</time>
      </trkpt>
      <trkpt lat="18.98396" lon="98.97829">
        <time>2019-09-06T05:55:07Z</time>
      </trkpt>
      <trkpt lat="18.98415" lon="98.9782">
        <time>2019-09-06T05:55:08Z</time>
      </trkpt>
      <trkpt lat="18.98434" lon="98.9781">
        <time>2019-09-06T05:55:09Z</time>
      </trkpt>
      <trkpt lat="18.98454" lon="98.978">
        <time>2019-09-06T05:55:10Z</time>
      </trkpt>
      <trkpt lat="18.98473" lon="98.97792">
        <time>2019-09-06T05:55:11Z</time>
      </trkpt>
      <trkpt lat="18.98493" lon="98.97784">
        <time>2019-09-06T05:55:12Z</time>
      </trkpt>
      <trkpt lat="18.98512" lon="98.97776">
        <time>2019-09-06T05:55:13Z</time>
      </trkpt>
      <trkpt lat="18.98527" lon="98.97771">
        <time>2019-09-06T05:55:14Z</time>
      </trkpt>
      <trkpt lat="18.98544" lon="98.97766">
        <time>2019-09-06T05:55:15Z</time>
      </trkpt>
      <trkpt lat="18.98561" lon="98.97761">
        <time>2019-09-06T05:55:16Z</time>
      </trkpt>
      <trkpt lat="18.98574" lon="98.97756">
        <time>2019-09-06T05:55:17Z</time>
      </trkpt>
      <trkpt lat="18.98591" lon="98.97751">
        <time>2019-09-06T05:55:18Z</time>
      </trkpt>
      <trkpt lat="18.98607" lon="98.97747">
        <time>2019-09-06T05:55:19Z</time>
      </trkpt>
      <trkpt lat="18.9862" lon="98.97743">
        <time>2019-09-06T05:55:20Z</time>
      </trkpt>
      <trkpt lat="18.98633" lon="98.97739">
        <time>2019-09-06T05:55:21Z</time>
      </trkpt>
      <trkpt lat="18.98653" lon="98.97742">
        <time>2019-09-06T05:55:22Z</time>
      </trkpt>
      <trkpt lat="18.98672" lon="98.9774">
        <time>2019-09-06T05:55:23Z</time>
      </trkpt>
      <trkpt lat="18.98689" lon="98.97739">
        <time>2019-09-06T05:55:24Z</time>
      </trkpt>
      <trkpt lat="18.98706" lon="98.97741">
        <time>2019-09-06T05:55:25Z</time>
      </trkpt>
      <trkpt lat="18.98723" lon="98.97742">
        <time>2019-09-06T05:55:26Z</time>
      </trkpt>
      <trkpt lat="18.98742" lon="98.97746">
        <time>2019-09-06T05:55:27Z</time>
      </trkpt>
      <trkpt lat="18.98767" lon="98.97755">
        <time>2019-09-06T05:55:28Z</time>
      </trkpt>
      <trkpt lat="18.98786" lon="98.97758">
        <time>2019-09-06T05:55:29Z</time>
      </trkpt>
      <trkpt lat="18.98808" lon="98.97762">
        <time>2019-09-06T05:55:30Z</time>
      </trkpt>
      <trkpt lat="18.98827" lon="98.97765">
        <time>2019-09-06T05:55:31Z</time>
      </trkpt>
      <trkpt lat="18.98846" lon="98.9777">
        <time>2019-09-06T05:55:32Z</time>
      </trkpt>
      <trkpt lat="18.98866" lon="98.97774">
        <time>2019-09-06T05:55:33Z</time>
      </trkpt>
      <trkpt lat="18.98887" lon="98.97778">
        <time>2019-09-06T05:55:34Z</time>
      </trkpt>
      <trkpt lat="18.98908" lon="98.97785">
        <time>2019-09-06T05:55:35Z</time>
      </trkpt>
      <trkpt lat="18.98929" lon="98.97788">
        <time>2019-09-06T05:55:36Z</time>
      </trkpt>
      <trkpt lat="18.9895" lon="98.97792">
        <time>2019-09-06T05:55:37Z</time>
      </trkpt>
      <trkpt lat="18.98971" lon="98.97795">
        <time>2019-09-06T05:55:38Z</time>
      </trkpt>
      <trkpt lat="18.98992" lon="98.978">
        <time>2019-09-06T05:55:39Z</time>
      </trkpt>
      <trkpt lat="18.99015" lon="98.97804">
        <time>2019-09-06T05:55:40Z</time>
      </trkpt>
      <trkpt lat="18.99038" lon="98.97808">
        <time>2019-09-06T05:55:41Z</time>
      </trkpt>
      <trkpt lat="18.99063" lon="98.97812">
        <time>2019-09-06T05:55:42Z</time>
      </trkpt>
      <trkpt lat="18.99088" lon="98.97817">
        <time>2019-09-06T05:55:43Z</time>
      </trkpt>
      <trkpt lat="18.99111" lon="98.97821">
        <time>2019-09-06T05:55:44Z</time>
      </trkpt>
      <trkpt lat="18.99136" lon="98.97826">
        <time>2019-09-06T05:55:45Z</time>
      </trkpt>
      <trkpt lat="18.99159" lon="98.9783">
        <time>2019-09-06T05:55:46Z</time>
      </trkpt>
      <trkpt lat="18.99182" lon="98.97832">
        <time>2019-09-06T05:55:47Z</time>
      </trkpt>
      <trkpt lat="18.99206" lon="98.97831">
        <time>2019-09-06T05:55:48Z</time>
      </trkpt>
      <trkpt lat="18.99228" lon="98.97829">
        <time>2019-09-06T05:55:49Z</time>
      </trkpt>
      <trkpt lat="18.9925" lon="98.97825">
        <time>2019-09-06T05:55:50Z</time>
      </trkpt>
      <trkpt lat="18.99271" lon="98.97822">
        <time>2019-09-06T05:55:51Z</time>
      </trkpt>
      <trkpt lat="18.99292" lon="98.97819">
        <time>2019-09-06T05:55:52Z</time>
      </trkpt>
      <trkpt lat="18.99308" lon="98.97812">
        <time>2019-09-06T05:55:53Z</time>
      </trkpt>
      <trkpt lat="18.99324" lon="98.97807">
        <time>2019-09-06T05:55:54Z</time>
      </trkpt>
      <trkpt lat="18.99339" lon="98.97803">
        <time>2019-09-06T05:55:55Z</time>
      </trkpt>
      <trkpt lat="18.9935" lon="98.97797">
        <time>2019-09-06T05:55:56Z</time>
      </trkpt>
      <trkpt lat="18.99363" lon="98.97792">
        <time>2019-09-06T05:55:57Z</time>
      </trkpt>
      <trkpt lat="18.99376" lon="98.97789">
        <time>2019-09-06T05:55:58Z</time>
      </trkpt>
      <trkpt lat="18.99388" lon="98.97784">
        <time>2019-09-06T05:55:59Z</time>
      </trkpt>
      <trkpt lat="18.994" lon="98.9778">
        <time>2019-09-06T05:56:00Z</time>
      </trkpt>
      <trkpt lat="18.99413" lon="98.97776">
        <time>2019-09-06T05:56:01Z</time>
      </trkpt>
      <trkpt lat="18.99426" lon="98.97773">
        <time>2019-09-06T05:56:02Z</time>
      </trkpt>
      <trkpt lat="18.99439" lon="98.9777">
        <time>2019-09-06T05:56:03Z</time>
      </trkpt>
      <trkpt lat="18.99452" lon="98.97766">
        <time>2019-09-06T05:56:04Z</time>
      </trkpt>
      <trkpt lat="18.99467" lon="98.97763">
        <time>2019-09-06T05:56:05Z</time>
      </trkpt>
      <trkpt lat="18.9948" lon="98.97759">
        <time>2019-09-06T05:56:06Z</time>
      </trkpt>
      <trkpt lat="18.99493" lon="98.97756">
        <time>2019-09-06T05:56:07Z</time>
      </trkpt>
      <trkpt lat="18.99506" lon="98.97752">
        <time>2019-09-06T05:56:08Z</time>
      </trkpt>
      <trkpt lat="18.99519" lon="98.97748">
        <time>2019-09-06T05:56:09Z</time>
      </trkpt>
      <trkpt lat="18.99532" lon="98.97744">
        <time>2019-09-06T05:56:10Z</time>
      </trkpt>
      <trkpt lat="18.99545" lon="98.97739">
        <time>2019-09-06T05:56:11Z</time>
      </trkpt>
      <trkpt lat="18.99555" lon="98.97734">
        <time>2019-09-06T05:56:12Z</time>
      </trkpt>
      <trkpt lat="18.99569" lon="98.97733">
        <time>2019-09-06T05:56:13Z</time>
      </trkpt>
      <trkpt lat="18.99581" lon="98.97728">
        <time>2019-09-06T05:56:14Z</time>
      </trkpt>
      <trkpt lat="18.99595" lon="98.97725">
        <time>2019-09-06T05:56:15Z</time>
      </trkpt>
      <trkpt lat="18.99606" lon="98.97721">
        <time>2019-09-06T05:56:16Z</time>
      </trkpt>
      <trkpt lat="18.99618" lon="98.97717">
        <time>2019-09-06T05:56:17Z</time>
      </trkpt>
      <trkpt lat="18.9963" lon="98.97713">
        <time>2019-09-06T05:56:18Z</time>
      </trkpt>
      <trkpt lat="18.99642" lon="98.97711">
        <time>2019-09-06T05:56:19Z</time>
      </trkpt>
      <trkpt lat="18.99656" lon="98.97707">
        <time>2019-09-06T05:56:20Z</time>
      </trkpt>
      <trkpt lat="18.99669" lon="98.97702">
        <time>2019-09-06T05:56:21Z</time>
      </trkpt>
      <trkpt lat="18.99683" lon="98.977">
        <time>2019-09-06T05:56:22Z</time>
      </trkpt>
      <trkpt lat="18.99695" lon="98.97697">
        <time>2019-09-06T05:56:23Z</time>
      </trkpt>
      <trkpt lat="18.99709" lon="98.97693">
        <time>2019-09-06T05:56:24Z</time>
      </trkpt>
      <trkpt lat="18.99721" lon="98.97688">
        <time>2019-09-06T05:56:25Z</time>
      </trkpt>
      <trkpt lat="18.99734" lon="98.97685">
        <time>2019-09-06T05:56:26Z</time>
      </trkpt>
      <trkpt lat="18.99748" lon="98.97682">
        <time>2019-09-06T05:56:27Z</time>
      </trkpt>
      <trkpt lat="18.9976" lon="98.97679">
        <time>2019-09-06T05:56:28Z</time>
      </trkpt>
      <trkpt lat="18.99774" lon="98.97674">
        <time>2019-09-06T05:56:29Z</time>
      </trkpt>
      <trkpt lat="18.99788" lon="98.9767">
        <time>2019-09-06T05:56:30Z</time>
      </trkpt>
      <trkpt lat="18.99799" lon="98.97666">
        <time>2019-09-06T05:56:31Z</time>
      </trkpt>
      <trkpt lat="18.99812" lon="98.97662">
        <time>2019-09-06T05:56:32Z</time>
      </trkpt>
      <trkpt lat="18.99825" lon="98.97652">
        <time>2019-09-06T05:56:33Z</time>
      </trkpt>
      <trkpt lat="18.99838" lon="98.97645">
        <time>2019-09-06T05:56:34Z</time>
      </trkpt>
      <trkpt lat="18.9985" lon="98.97638">
        <time>2019-09-06T05:56:35Z</time>
      </trkpt>
      <trkpt lat="18.99862" lon="98.97631">
        <time>2019-09-06T05:56:36Z</time>
      </trkpt>
      <trkpt lat="18.99874" lon="98.97623">
        <time>2019-09-06T05:56:37Z</time>
      </trkpt>
      <trkpt lat="18.99886" lon="98.97616">
        <time>2019-09-06T05:56:38Z</time>
      </trkpt>
      <trkpt lat="18.99896" lon="98.97609">
        <time>2019-09-06T05:56:39Z</time>
      </trkpt>
      <trkpt lat="18.99908" lon="98.97601">
        <time>2019-09-06T05:56:40Z</time>
      </trkpt>
      <trkpt lat="18.99918" lon="98.97594">
        <time>2019-09-06T05:56:41Z</time>
      </trkpt>
      <trkpt lat="18.99929" lon="98.97585">
        <time>2019-09-06T05:56:42Z</time>
      </trkpt>
      <trkpt lat="18.9994" lon="98.97576">
        <time>2019-09-06T05:56:43Z</time>
      </trkpt>
      <trkpt lat="18.99949" lon="98.97565">
        <time>2019-09-06T05:56:44Z</time>
      </trkpt>
      <trkpt lat="18.99959" lon="98.97553">
        <time>2019-09-06T05:56:45Z</time>
      </trkpt>
      <trkpt lat="18.99969" lon="98.97545">
        <time>2019-09-06T05:56:46Z</time>
      </trkpt>
      <trkpt lat="18.99977" lon="98.97533">
        <time>2019-09-06T05:56:47Z</time>
      </trkpt>
      <trkpt lat="18.99985" lon="98.97522">
        <time>2019-09-06T05:56:48Z</time>
      </trkpt>
      <trkpt lat="18.99994" lon="98.97513">
        <time>2019-09-06T05:56:49Z</time>
      </trkpt>
      <trkpt lat="19.0" lon="98.97503">
        <time>2019-09-06T05:56:50Z</time>
      </trkpt>
      <trkpt lat="19.00009" lon="98.97489">
        <time>2019-09-06T05:56:51Z</time>
      </trkpt>
      <trkpt lat="19.00018" lon="98.97475">
        <time>2019-09-06T05:56:53Z</time>
      </trkpt>
      <trkpt lat="19.00028" lon="98.97459">
        <time>2019-09-06T05:56:53Z</time>
      </trkpt>
      <trkpt lat="19.00045" lon="98.9744">
        <time>2019-09-06T05:56:54Z</time>
      </trkpt>
      <trkpt lat="19.0006" lon="98.97423">
        <time>2019-09-06T05:56:55Z</time>
      </trkpt>
      <trkpt lat="19.0007" lon="98.97409">
        <time>2019-09-06T05:56:56Z</time>
      </trkpt>
      <trkpt lat="19.00088" lon="98.97391">
        <time>2019-09-06T05:56:57Z</time>
      </trkpt>
      <trkpt lat="19.00101" lon="98.97372">
        <time>2019-09-06T05:56:58Z</time>
      </trkpt>
      <trkpt lat="19.00114" lon="98.97353">
        <time>2019-09-06T05:56:59Z</time>
      </trkpt>
      <trkpt lat="19.00127" lon="98.97337">
        <time>2019-09-06T05:57:00Z</time>
      </trkpt>
      <trkpt lat="19.0014" lon="98.97319">
        <time>2019-09-06T05:57:01Z</time>
      </trkpt>
      <trkpt lat="19.00155" lon="98.97305">
        <time>2019-09-06T05:57:02Z</time>
      </trkpt>
      <trkpt lat="19.00171" lon="98.97287">
        <time>2019-09-06T05:57:03Z</time>
      </trkpt>
      <trkpt lat="19.00187" lon="98.97272">
        <time>2019-09-06T05:57:04Z</time>
      </trkpt>
      <trkpt lat="19.00204" lon="98.97259">
        <time>2019-09-06T05:57:05Z</time>
      </trkpt>
      <trkpt lat="19.0022" lon="98.97244">
        <time>2019-09-06T05:57:06Z</time>
      </trkpt>
      <trkpt lat="19.00236" lon="98.97232">
        <time>2019-09-06T05:57:07Z</time>
      </trkpt>
      <trkpt lat="19.00255" lon="98.97218">
        <time>2019-09-06T05:57:08Z</time>
      </trkpt>
      <trkpt lat="19.00276" lon="98.97212">
        <time>2019-09-06T05:57:09Z</time>
      </trkpt>
      <trkpt lat="19.003" lon="98.97209">
        <time>2019-09-06T05:57:10Z</time>
      </trkpt>
      <trkpt lat="19.00321" lon="98.97205">
        <time>2019-09-06T05:57:11Z</time>
      </trkpt>
      <trkpt lat="19.00344" lon="98.97202">
        <time>2019-09-06T05:57:12Z</time>
      </trkpt>
      <trkpt lat="19.00364" lon="98.97199">
        <time>2019-09-06T05:57:13Z</time>
      </trkpt>
      <trkpt lat="19.00386" lon="98.97198">
        <time>2019-09-06T05:57:14Z</time>
      </trkpt>
      <trkpt lat="19.0041" lon="98.97197">
        <time>2019-09-06T05:57:15Z</time>
      </trkpt>
      <trkpt lat="19.00433" lon="98.97196">
        <time>2019-09-06T05:57:16Z</time>
      </trkpt>
      <trkpt lat="19.00456" lon="98.97195">
        <time>2019-09-06T05:57:17Z</time>
      </trkpt>
      <trkpt lat="19.00478" lon="98.97193">
        <time>2019-09-06T05:57:18Z</time>
      </trkpt>
      <trkpt lat="19.00501" lon="98.97192">
        <time>2019-09-06T05:57:19Z</time>
      </trkpt>
      <trkpt lat="19.00523" lon="98.97191">
        <time>2019-09-06T05:57:20Z</time>
      </trkpt>
      <trkpt lat="19.00543" lon="98.9719">
        <time>2019-09-06T05:57:21Z</time>
      </trkpt>
      <trkpt lat="19.00561" lon="98.97187">
        <time>2019-09-06T05:57:22Z</time>
      </trkpt>
      <trkpt lat="19.0058" lon="98.97187">
        <time>2019-09-06T05:57:23Z</time>
      </trkpt>
      <trkpt lat="19.00599" lon="98.97186">
        <time>2019-09-06T05:57:24Z</time>
      </trkpt>
      <trkpt lat="19.00617" lon="98.97185">
        <time>2019-09-06T05:57:25Z</time>
      </trkpt>
      <trkpt lat="19.00639" lon="98.97185">
        <time>2019-09-06T05:57:26Z</time>
      </trkpt>
      <trkpt lat="19.00661" lon="98.97185">
        <time>2019-09-06T05:57:27Z</time>
      </trkpt>
      <trkpt lat="19.00682" lon="98.97182">
        <time>2019-09-06T05:57:28Z</time>
      </trkpt>
      <trkpt lat="19.00705" lon="98.9718">
        <time>2019-09-06T05:57:29Z</time>
      </trkpt>
      <trkpt lat="19.00729" lon="98.97179">
        <time>2019-09-06T05:57:30Z</time>
      </trkpt>
      <trkpt lat="19.00752" lon="98.97177">
        <time>2019-09-06T05:57:31Z</time>
      </trkpt>
      <trkpt lat="19.00774" lon="98.97176">
        <time>2019-09-06T05:57:32Z</time>
      </trkpt>
      <trkpt lat="19.00796" lon="98.97175">
        <time>2019-09-06T05:57:33Z</time>
      </trkpt>
      <trkpt lat="19.00818" lon="98.97175">
        <time>2019-09-06T05:57:34Z</time>
      </trkpt>
      <trkpt lat="19.0084" lon="98.97173">
        <time>2019-09-06T05:57:35Z</time>
      </trkpt>
      <trkpt lat="19.00862" lon="98.97172">
        <time>2019-09-06T05:57:36Z</time>
      </trkpt>
      <trkpt lat="19.00883" lon="98.9717">
        <time>2019-09-06T05:57:37Z</time>
      </trkpt>
      <trkpt lat="19.00905" lon="98.97169">
        <time>2019-09-06T05:57:38Z</time>
      </trkpt>
      <trkpt lat="19.00926" lon="98.97167">
        <time>2019-09-06T05:57:39Z</time>
      </trkpt>
      <trkpt lat="19.00947" lon="98.97166">
        <time>2019-09-06T05:57:40Z</time>
      </trkpt>
      <trkpt lat="19.00969" lon="98.97165">
        <time>2019-09-06T05:57:41Z</time>
      </trkpt>
      <trkpt lat="19.00991" lon="98.97164">
        <time>2019-09-06T05:57:42Z</time>
      </trkpt>
      <trkpt lat="19.01013" lon="98.97163">
        <time>2019-09-06T05:57:43Z</time>
      </trkpt>
      <trkpt lat="19.01034" lon="98.97162">
        <time>2019-09-06T05:57:44Z</time>
      </trkpt>
      <trkpt lat="19.01057" lon="98.9716">
        <time>2019-09-06T05:57:45Z</time>
      </trkpt>
      <trkpt lat="19.01079" lon="98.97159">
        <time>2019-09-06T05:57:46Z</time>
      </trkpt>
      <trkpt lat="19.01102" lon="98.97158">
        <time>2019-09-06T05:57:47Z</time>
      </trkpt>
      <trkpt lat="19.01124" lon="98.97154">
        <time>2019-09-06T05:57:48Z</time>
      </trkpt>
      <trkpt lat="19.01146" lon="98.9715">
        <time>2019-09-06T05:57:49Z</time>
      </trkpt>
      <trkpt lat="19.01169" lon="98.97147">
        <time>2019-09-06T05:57:50Z</time>
      </trkpt>
      <trkpt lat="19.01191" lon="98.97143">
        <time>2019-09-06T05:57:51Z</time>
      </trkpt>
      <trkpt lat="19.01214" lon="98.9714">
        <time>2019-09-06T05:57:52Z</time>
      </trkpt>
      <trkpt lat="19.01235" lon="98.97136">
        <time>2019-09-06T05:57:53Z</time>
      </trkpt>
      <trkpt lat="19.01258" lon="98.97132">
        <time>2019-09-06T05:57:54Z</time>
      </trkpt>
      <trkpt lat="19.01278" lon="98.97127">
        <time>2019-09-06T05:57:55Z</time>
      </trkpt>
      <trkpt lat="19.01297" lon="98.97122">
        <time>2019-09-06T05:57:56Z</time>
      </trkpt>
      <trkpt lat="19.01317" lon="98.97117">
        <time>2019-09-06T05:57:57Z</time>
      </trkpt>
      <trkpt lat="19.01337" lon="98.97113">
        <time>2019-09-06T05:57:58Z</time>
      </trkpt>
      <trkpt lat="19.01356" lon="98.97108">
        <time>2019-09-06T05:57:59Z</time>
      </trkpt>
      <trkpt lat="19.01374" lon="98.97103">
        <time>2019-09-06T05:58:00Z</time>
      </trkpt>
      <trkpt lat="19.01393" lon="98.97099">
        <time>2019-09-06T05:58:01Z</time>
      </trkpt>
      <trkpt lat="19.0141" lon="98.97093">
        <time>2019-09-06T05:58:02Z</time>
      </trkpt>
      <trkpt lat="19.01429" lon="98.97088">
        <time>2019-09-06T05:58:03Z</time>
      </trkpt>
      <trkpt lat="19.01449" lon="98.97083">
        <time>2019-09-06T05:58:04Z</time>
      </trkpt>
      <trkpt lat="19.01469" lon="98.97078">
        <time>2019-09-06T05:58:05Z</time>
      </trkpt>
      <trkpt lat="19.01489" lon="98.97072">
        <time>2019-09-06T05:58:06Z</time>
      </trkpt>
      <trkpt lat="19.01511" lon="98.97066">
        <time>2019-09-06T05:58:07Z</time>
      </trkpt>
      <trkpt lat="19.01532" lon="98.97061">
        <time>2019-09-06T05:58:08Z</time>
      </trkpt>
      <trkpt lat="19.01554" lon="98.97055">
        <time>2019-09-06T05:58:09Z</time>
      </trkpt>
      <trkpt lat="19.01576" lon="98.97049">
        <time>2019-09-06T05:58:10Z</time>
      </trkpt>
      <trkpt lat="19.01598" lon="98.97044">
        <time>2019-09-06T05:58:11Z</time>
      </trkpt>
      <trkpt lat="19.01618" lon="98.97038">
        <time>2019-09-06T05:58:12Z</time>
      </trkpt>
      <trkpt lat="19.01637" lon="98.97033">
        <time>2019-09-06T05:58:13Z</time>
      </trkpt>
      <trkpt lat="19.01658" lon="98.97028">
        <time>2019-09-06T05:58:14Z</time>
      </trkpt>
      <trkpt lat="19.01679" lon="98.97024">
        <time>2019-09-06T05:58:15Z</time>
      </trkpt>
      <trkpt lat="19.01698" lon="98.9702">
        <time>2019-09-06T05:58:16Z</time>
      </trkpt>
      <trkpt lat="19.01717" lon="98.97015">
        <time>2019-09-06T05:58:17Z</time>
      </trkpt>
      <trkpt lat="19.01736" lon="98.97011">
        <time>2019-09-06T05:58:18Z</time>
      </trkpt>
      <trkpt lat="19.01753" lon="98.97007">
        <time>2019-09-06T05:58:19Z</time>
      </trkpt>
      <trkpt lat="19.01771" lon="98.97003">
        <time>2019-09-06T05:58:20Z</time>
      </trkpt>
      <trkpt lat="19.01787" lon="98.96999">
        <time>2019-09-06T05:58:21Z</time>
      </trkpt>
      <trkpt lat="19.01803" lon="98.96995">
        <time>2019-09-06T05:58:22Z</time>
      </trkpt>
      <trkpt lat="19.01821" lon="98.96991">
        <time>2019-09-06T05:58:23Z</time>
      </trkpt>
      <trkpt lat="19.01839" lon="98.96988">
        <time>2019-09-06T05:58:24Z</time>
      </trkpt>
      <trkpt lat="19.01859" lon="98.96983">
        <time>2019-09-06T05:58:25Z</time>
      </trkpt>
      <trkpt lat="19.01878" lon="98.96976">
        <time>2019-09-06T05:58:26Z</time>
      </trkpt>
      <trkpt lat="19.01899" lon="98.9697">
        <time>2019-09-06T05:58:27Z</time>
      </trkpt>
      <trkpt lat="19.01921" lon="98.96964">
        <time>2019-09-06T05:58:28Z</time>
      </trkpt>
      <trkpt lat="19.01945" lon="98.96959">
        <time>2019-09-06T05:58:29Z</time>
      </trkpt>
      <trkpt lat="19.01968" lon="98.96955">
        <time>2019-09-06T05:58:30Z</time>
      </trkpt>
      <trkpt lat="19.01993" lon="98.96949">
        <time>2019-09-06T05:58:31Z</time>
      </trkpt>
      <trkpt lat="19.02018" lon="98.96944">
        <time>2019-09-06T05:58:32Z</time>
      </trkpt>
      <trkpt lat="19.02042" lon="98.96939">
        <time>2019-09-06T05:58:33Z</time>
      </trkpt>
      <trkpt lat="19.02068" lon="98.96933">
        <time>2019-09-06T05:58:34Z</time>
      </trkpt>
      <trkpt lat="19.02094" lon="98.96929">
        <time>2019-09-06T05:58:35Z</time>
      </trkpt>
      <trkpt lat="19.02115" lon="98.96923">
        <time>2019-09-06T05:58:36Z</time>
      </trkpt>
      <trkpt lat="19.02139" lon="98.96919">
        <time>2019-09-06T05:58:37Z</time>
      </trkpt>
      <trkpt lat="19.02162" lon="98.96912">
        <time>2019-09-06T05:58:38Z</time>
      </trkpt>
      <trkpt lat="19.02185" lon="98.96907">
        <time>2019-09-06T05:58:39Z</time>
      </trkpt>
      <trkpt lat="19.02209" lon="98.96902">
        <time>2019-09-06T05:58:40Z</time>
      </trkpt>
      <trkpt lat="19.02231" lon="98.96898">
        <time>2019-09-06T05:58:41Z</time>
      </trkpt>
      <trkpt lat="19.02254" lon="98.96892">
        <time>2019-09-06T05:58:42Z</time>
      </trkpt>
      <trkpt lat="19.02276" lon="98.96887">
        <time>2019-09-06T05:58:43Z</time>
      </trkpt>
      <trkpt lat="19.02299" lon="98.96882">
        <time>2019-09-06T05:58:44Z</time>
      </trkpt>
      <trkpt lat="19.02321" lon="98.96876">
        <time>2019-09-06T05:58:45Z</time>
      </trkpt>
      <trkpt lat="19.02344" lon="98.96869">
        <time>2019-09-06T05:58:46Z</time>
      </trkpt>
      <trkpt lat="19.02367" lon="98.96864">
        <time>2019-09-06T05:58:47Z</time>
      </trkpt>
      <trkpt lat="19.02388" lon="98.96858">
        <time>2019-09-06T05:58:48Z</time>
      </trkpt>
      <trkpt lat="19.02412" lon="98.96852">
        <time>2019-09-06T05:58:49Z</time>
      </trkpt>
      <trkpt lat="19.02434" lon="98.96846">
        <time>2019-09-06T05:58:50Z</time>
      </trkpt>
      <trkpt lat="19.02457" lon="98.96841">
        <time>2019-09-06T05:58:51Z</time>
      </trkpt>
      <trkpt lat="19.02479" lon="98.96835">
        <time>2019-09-06T05:58:52Z</time>
      </trkpt>
      <trkpt lat="19.02502" lon="98.96831">
        <time>2019-09-06T05:58:53Z</time>
      </trkpt>
      <trkpt lat="19.02525" lon="98.96824">
        <time>2019-09-06T05:58:54Z</time>
      </trkpt>
      <trkpt lat="19.02547" lon="98.96818">
        <time>2019-09-06T05:58:55Z</time>
      </trkpt>
      <trkpt lat="19.02569" lon="98.96812">
        <time>2019-09-06T05:58:56Z</time>
      </trkpt>
      <trkpt lat="19.02591" lon="98.96808">
        <time>2019-09-06T05:58:57Z</time>
      </trkpt>
      <trkpt lat="19.02616" lon="98.96802">
        <time>2019-09-06T05:58:58Z</time>
      </trkpt>
      <trkpt lat="19.02639" lon="98.96795">
        <time>2019-09-06T05:58:59Z</time>
      </trkpt>
      <trkpt lat="19.02661" lon="98.9679">
        <time>2019-09-06T05:59:00Z</time>
      </trkpt>
      <trkpt lat="19.02685" lon="98.96785">
        <time>2019-09-06T05:59:01Z</time>
      </trkpt>
      <trkpt lat="19.02707" lon="98.96778">
        <time>2019-09-06T05:59:02Z</time>
      </trkpt>
      <trkpt lat="19.0273" lon="98.96773">
        <time>2019-09-06T05:59:03Z</time>
      </trkpt>
      <trkpt lat="19.02751" lon="98.96767">
        <time>2019-09-06T05:59:04Z</time>
      </trkpt>
      <trkpt lat="19.02773" lon="98.96761">
        <time>2019-09-06T05:59:05Z</time>
      </trkpt>
      <trkpt lat="19.02795" lon="98.96754">
        <time>2019-09-06T05:59:06Z</time>
      </trkpt>
      <trkpt lat="19.02818" lon="98.96749">
        <time>2019-09-06T05:59:07Z</time>
      </trkpt>
      <trkpt lat="19.0284" lon="98.96742">
        <time>2019-09-06T05:59:08Z</time>
      </trkpt>
      <trkpt lat="19.02863" lon="98.96735">
        <time>2019-09-06T05:59:09Z</time>
      </trkpt>
      <trkpt lat="19.02886" lon="98.96731">
        <time>2019-09-06T05:59:10Z</time>
      </trkpt>
      <trkpt lat="19.02909" lon="98.96725">
        <time>2019-09-06T05:59:11Z</time>
      </trkpt>
      <trkpt lat="19.02932" lon="98.96721">
        <time>2019-09-06T05:59:12Z</time>
      </trkpt>
      <trkpt lat="19.02955" lon="98.96716">
        <time>2019-09-06T05:59:13Z</time>
      </trkpt>
      <trkpt lat="19.02978" lon="98.9671">
        <time>2019-09-06T05:59:14Z</time>
      </trkpt>
      <trkpt lat="19.03" lon="98.96704">
        <time>2019-09-06T05:59:15Z</time>
      </trkpt>
      <trkpt lat="19.03021" lon="98.96698">
        <time>2019-09-06T05:59:16Z</time>
      </trkpt>
      <trkpt lat="19.03042" lon="98.96693">
        <time>2019-09-06T05:59:17Z</time>
      </trkpt>
      <trkpt lat="19.03063" lon="98.96688">
        <time>2019-09-06T05:59:18Z</time>
      </trkpt>
      <trkpt lat="19.03082" lon="98.96683">
        <time>2019-09-06T05:59:19Z</time>
      </trkpt>
      <trkpt lat="19.03104" lon="98.96677">
        <time>2019-09-06T05:59:20Z</time>
      </trkpt>
      <trkpt lat="19.03123" lon="98.96673">
        <time>2019-09-06T05:59:21Z</time>
      </trkpt>
      <trkpt lat="19.03142" lon="98.9667">
        <time>2019-09-06T05:59:22Z</time>
      </trkpt>
      <trkpt lat="19.03162" lon="98.96667">
        <time>2019-09-06T05:59:23Z</time>
      </trkpt>
      <trkpt lat="19.03181" lon="98.96666">
        <time>2019-09-06T05:59:24Z</time>
      </trkpt>
      <trkpt lat="19.032" lon="98.96666">
        <time>2019-09-06T05:59:25Z</time>
      </trkpt>
      <trkpt lat="19.03221" lon="98.96668">
        <time>2019-09-06T05:59:26Z</time>
      </trkpt>
      <trkpt lat="19.03243" lon="98.96674">
        <time>2019-09-06T05:59:27Z</time>
      </trkpt>
      <trkpt lat="19.03263" lon="98.9668">
        <time>2019-09-06T05:59:28Z</time>
      </trkpt>
      <trkpt lat="19.03282" lon="98.96686">
        <time>2019-09-06T05:59:29Z</time>
      </trkpt>
      <trkpt lat="19.03303" lon="98.967">
        <time>2019-09-06T05:59:30Z</time>
      </trkpt>
      <trkpt lat="19.03321" lon="98.9671">
        <time>2019-09-06T05:59:31Z</time>
      </trkpt>
      <trkpt lat="19.03339" lon="98.96725">
        <time>2019-09-06T05:59:32Z</time>
      </trkpt>
      <trkpt lat="19.03355" lon="98.96738">
        <time>2019-09-06T05:59:33Z</time>
      </trkpt>
      <trkpt lat="19.03371" lon="98.96755">
        <time>2019-09-06T05:59:34Z</time>
      </trkpt>
      <trkpt lat="19.03385" lon="98.96769">
        <time>2019-09-06T05:59:35Z</time>
      </trkpt>
      <trkpt lat="19.03402" lon="98.96784">
        <time>2019-09-06T05:59:36Z</time>
      </trkpt>
      <trkpt lat="19.03417" lon="98.96797">
        <time>2019-09-06T05:59:37Z</time>
      </trkpt>
      <trkpt lat="19.03433" lon="98.96812">
        <time>2019-09-06T05:59:38Z</time>
      </trkpt>
      <trkpt lat="19.03448" lon="98.96824">
        <time>2019-09-06T05:59:39Z</time>
      </trkpt>
      <trkpt lat="19.03462" lon="98.96835">
        <time>2019-09-06T05:59:40Z</time>
      </trkpt>
      <trkpt lat="19.03475" lon="98.96843">
        <time>2019-09-06T05:59:41Z</time>
      </trkpt>
      <trkpt lat="19.03479" lon="98.96841">
        <time>2019-09-06T05:59:42Z</time>
      </trkpt>
      <trkpt lat="19.03488" lon="98.96845">
        <time>2019-09-06T05:59:43Z</time>
      </trkpt>
      <trkpt lat="19.03497" lon="98.96848">
        <time>2019-09-06T05:59:44Z</time>
      </trkpt>
      <trkpt lat="19.03507" lon="98.96851">
        <time>2019-09-06T05:59:45Z</time>
      </trkpt>
      <trkpt lat="19.0352" lon="98.96854">
        <time>2019-09-06T05:59:46Z</time>
      </trkpt>
      <trkpt lat="19.03532" lon="98.96856">
        <time>2019-09-06T05:59:47Z</time>
      </trkpt>
      <trkpt lat="19.03548" lon="98.9686">
        <time>2019-09-06T05:59:48Z</time>
      </trkpt>
      <trkpt lat="19.03565" lon="98.96864">
        <time>2019-09-06T05:59:49Z</time>
      </trkpt>
      <trkpt lat="19.03584" lon="98.96869">
        <time>2019-09-06T05:59:50Z</time>
      </trkpt>
      <trkpt lat="19.03602" lon="98.96873">
        <time>2019-09-06T05:59:51Z</time>
      </trkpt>
      <trkpt lat="19.03621" lon="98.96877">
        <time>2019-09-06T05:59:52Z</time>
      </trkpt>
      <trkpt lat="19.0364" lon="98.96881">
        <time>2019-09-06T05:59:53Z</time>
      </trkpt>
      <trkpt lat="19.0366" lon="98.96884">
        <time>2019-09-06T05:59:54Z</time>
      </trkpt>
      <trkpt lat="19.0368" lon="98.96888">
        <time>2019-09-06T05:59:55Z</time>
      </trkpt>
      <trkpt lat="19.037" lon="98.96893">
        <time>2019-09-06T05:59:56Z</time>
      </trkpt>
      <trkpt lat="19.0372" lon="98.96898">
        <time>2019-09-06T05:59:57Z</time>
      </trkpt>
      <trkpt lat="19.0374" lon="98.96903">
        <time>2019-09-06T05:59:58Z</time>
      </trkpt>
      <trkpt lat="19.03762" lon="98.96907">
        <time>2019-09-06T05:59:59Z</time>
      </trkpt>
      <trkpt lat="19.03781" lon="98.9691">
        <time>2019-09-06T06:00:00Z</time>
      </trkpt>
      <trkpt lat="19.03803" lon="98.96915">
        <time>2019-09-06T06:00:01Z</time>
      </trkpt>
      <trkpt lat="19.03823" lon="98.9692">
        <time>2019-09-06T06:00:02Z</time>
      </trkpt>
      <trkpt lat="19.03845" lon="98.96924">
        <time>2019-09-06T06:00:03Z</time>
      </trkpt>
      <trkpt lat="19.03866" lon="98.96928">
        <time>2019-09-06T06:00:04Z</time>
      </trkpt>
      <trkpt lat="19.03887" lon="98.96932">
        <time>2019-09-06T06:00:05Z</time>
      </trkpt>
      <trkpt lat="19.03908" lon="98.96936">
        <time>2019-09-06T06:00:06Z</time>
      </trkpt>
      <trkpt lat="19.03929" lon="98.9694">
        <time>2019-09-06T06:00:07Z</time>
      </trkpt>
      <trkpt lat="19.0395" lon="98.96942">
        <time>2019-09-06T06:00:08Z</time>
      </trkpt>
      <trkpt lat="19.03971" lon="98.96945">
        <time>2019-09-06T06:00:09Z</time>
      </trkpt>
      <trkpt lat="19.03988" lon="98.96939">
        <time>2019-09-06T06:00:10Z</time>
      </trkpt>
      <trkpt lat="19.04007" lon="98.96935">
        <time>2019-09-06T06:00:11Z</time>
      </trkpt>
      <trkpt lat="19.04025" lon="98.96925">
        <time>2019-09-06T06:00:12Z</time>
      </trkpt>
      <trkpt lat="19.04043" lon="98.96917">
        <time>2019-09-06T06:00:13Z</time>
      </trkpt>
      <trkpt lat="19.04062" lon="98.96902">
        <time>2019-09-06T06:00:14Z</time>
      </trkpt>
      <trkpt lat="19.0408" lon="98.96889">
        <time>2019-09-06T06:00:15Z</time>
      </trkpt>
      <trkpt lat="19.04099" lon="98.96877">
        <time>2019-09-06T06:00:16Z</time>
      </trkpt>
      <trkpt lat="19.04116" lon="98.96863">
        <time>2019-09-06T06:00:17Z</time>
      </trkpt>
      <trkpt lat="19.04136" lon="98.9685">
        <time>2019-09-06T06:00:18Z</time>
      </trkpt>
      <trkpt lat="19.04153" lon="98.96837">
        <time>2019-09-06T06:00:19Z</time>
      </trkpt>
      <trkpt lat="19.04172" lon="98.96824">
        <time>2019-09-06T06:00:20Z</time>
      </trkpt>
      <trkpt lat="19.04189" lon="98.96812">
        <time>2019-09-06T06:00:22Z</time>
      </trkpt>
      <trkpt lat="19.04204" lon="98.968">
        <time>2019-09-06T06:00:22Z</time>
      </trkpt>
      <trkpt lat="19.04223" lon="98.96786">
        <time>2019-09-06T06:00:23Z</time>
      </trkpt>
      <trkpt lat="19.04239" lon="98.96772">
        <time>2019-09-06T06:00:24Z</time>
      </trkpt>
      <trkpt lat="19.04257" lon="98.96759">
        <time>2019-09-06T06:00:25Z</time>
      </trkpt>
      <trkpt lat="19.04277" lon="98.96746">
        <time>2019-09-06T06:00:26Z</time>
      </trkpt>
      <trkpt lat="19.04296" lon="98.96732">
        <time>2019-09-06T06:00:27Z</time>
      </trkpt>
      <trkpt lat="19.04314" lon="98.96718">
        <time>2019-09-06T06:00:28Z</time>
      </trkpt>
      <trkpt lat="19.04334" lon="98.96705">
        <time>2019-09-06T06:00:29Z</time>
      </trkpt>
      <trkpt lat="19.04353" lon="98.96691">
        <time>2019-09-06T06:00:30Z</time>
      </trkpt>
      <trkpt lat="19.04373" lon="98.96678">
        <time>2019-09-06T06:00:31Z</time>
      </trkpt>
      <trkpt lat="19.04392" lon="98.96664">
        <time>2019-09-06T06:00:32Z</time>
      </trkpt>
      <trkpt lat="19.0441" lon="98.96651">
        <time>2019-09-06T06:00:33Z</time>
      </trkpt>
      <trkpt lat="19.04429" lon="98.96638">
        <time>2019-09-06T06:00:34Z</time>
      </trkpt>
      <trkpt lat="19.04449" lon="98.96625">
        <time>2019-09-06T06:00:35Z</time>
      </trkpt>
      <trkpt lat="19.04469" lon="98.96613">
        <time>2019-09-06T06:00:36Z</time>
      </trkpt>
      <trkpt lat="19.04488" lon="98.966">
        <time>2019-09-06T06:00:37Z</time>
      </trkpt>
      <trkpt lat="19.04505" lon="98.96586">
        <time>2019-09-06T06:00:38Z</time>
      </trkpt>
      <trkpt lat="19.04523" lon="98.96573">
        <time>2019-09-06T06:00:39Z</time>
      </trkpt>
      <trkpt lat="19.0454" lon="98.9656">
        <time>2019-09-06T06:00:40Z</time>
      </trkpt>
      <trkpt lat="19.04559" lon="98.96548">
        <time>2019-09-06T06:00:41Z</time>
      </trkpt>
      <trkpt lat="19.04577" lon="98.96536">
        <time>2019-09-06T06:00:42Z</time>
      </trkpt>
      <trkpt lat="19.04597" lon="98.96523">
        <time>2019-09-06T06:00:43Z</time>
      </trkpt>
      <trkpt lat="19.04616" lon="98.96511">
        <time>2019-09-06T06:00:44Z</time>
      </trkpt>
      <trkpt lat="19.04635" lon="98.96498">
        <time>2019-09-06T06:00:45Z</time>
      </trkpt>
      <trkpt lat="19.04654" lon="98.96484">
        <time>2019-09-06T06:00:46Z</time>
      </trkpt>
      <trkpt lat="19.04673" lon="98.96469">
        <time>2019-09-06T06:00:47Z</time>
      </trkpt>
      <trkpt lat="19.04692" lon="98.96453">
        <time>2019-09-06T06:00:48Z</time>
      </trkpt>
      <trkpt lat="19.04712" lon="98.96439">
        <time>2019-09-06T06:00:49Z</time>
      </trkpt>
      <trkpt lat="19.04732" lon="98.96427">
        <time>2019-09-06T06:00:50Z</time>
      </trkpt>
      <trkpt lat="19.04748" lon="98.96413">
        <time>2019-09-06T06:00:51Z</time>
      </trkpt>
      <trkpt lat="19.04768" lon="98.96401">
        <time>2019-09-06T06:00:52Z</time>
      </trkpt>
      <trkpt lat="19.04785" lon="98.96387">
        <time>2019-09-06T06:00:53Z</time>
      </trkpt>
      <trkpt lat="19.04802" lon="98.96375">
        <time>2019-09-06T06:00:54Z</time>
      </trkpt>
      <trkpt lat="19.04822" lon="98.96364">
        <time>2019-09-06T06:00:55Z</time>
      </trkpt>
      <trkpt lat="19.0484" lon="98.96349">
        <time>2019-09-06T06:00:56Z</time>
      </trkpt>
      <trkpt lat="19.04857" lon="98.96337">
        <time>2019-09-06T06:00:57Z</time>
      </trkpt>
      <trkpt lat="19.04875" lon="98.96325">
        <time>2019-09-06T06:00:58Z</time>
      </trkpt>
      <trkpt lat="19.04894" lon="98.96311">
        <time>2019-09-06T06:00:59Z</time>
      </trkpt>
      <trkpt lat="19.04913" lon="98.96299">
        <time>2019-09-06T06:01:00Z</time>
      </trkpt>
      <trkpt lat="19.04932" lon="98.96286">
        <time>2019-09-06T06:01:01Z</time>
      </trkpt>
      <trkpt lat="19.04948" lon="98.96272">
        <time>2019-09-06T06:01:02Z</time>
      </trkpt>
      <trkpt lat="19.04967" lon="98.9626">
        <time>2019-09-06T06:01:03Z</time>
      </trkpt>
      <trkpt lat="19.04985" lon="98.96247">
        <time>2019-09-06T06:01:04Z</time>
      </trkpt>
      <trkpt lat="19.05005" lon="98.96235">
        <time>2019-09-06T06:01:05Z</time>
      </trkpt>
      <trkpt lat="19.05025" lon="98.96223">
        <time>2019-09-06T06:01:06Z</time>
      </trkpt>
      <trkpt lat="19.05044" lon="98.9621">
        <time>2019-09-06T06:01:07Z</time>
      </trkpt>
      <trkpt lat="19.05065" lon="98.96197">
        <time>2019-09-06T06:01:08Z</time>
      </trkpt>
      <trkpt lat="19.05127" lon="98.96164">
        <time>2019-09-06T06:01:11Z</time>
      </trkpt>
      <trkpt lat="19.05147" lon="98.96155">
        <time>2019-09-06T06:01:12Z</time>
      </trkpt>
      <trkpt lat="19.05168" lon="98.96149">
        <time>2019-09-06T06:01:13Z</time>
      </trkpt>
      <trkpt lat="19.05188" lon="98.9614">
        <time>2019-09-06T06:01:14Z</time>
      </trkpt>
      <trkpt lat="19.0521" lon="98.96131">
        <time>2019-09-06T06:01:15Z</time>
      </trkpt>
      <trkpt lat="19.05228" lon="98.96124">
        <time>2019-09-06T06:01:16Z</time>
      </trkpt>
      <trkpt lat="19.05251" lon="98.96117">
        <time>2019-09-06T06:01:17Z</time>
      </trkpt>
      <trkpt lat="19.05271" lon="98.9611">
        <time>2019-09-06T06:01:18Z</time>
      </trkpt>
      <trkpt lat="19.05294" lon="98.96102">
        <time>2019-09-06T06:01:19Z</time>
      </trkpt>
      <trkpt lat="19.05317" lon="98.96094">
        <time>2019-09-06T06:01:20Z</time>
      </trkpt>
      <trkpt lat="19.0534" lon="98.96086">
        <time>2019-09-06T06:01:21Z</time>
      </trkpt>
      <trkpt lat="19.05362" lon="98.96079">
        <time>2019-09-06T06:01:22Z</time>
      </trkpt>
      <trkpt lat="19.05383" lon="98.9607">
        <time>2019-09-06T06:01:23Z</time>
      </trkpt>
      <trkpt lat="19.05402" lon="98.96062">
        <time>2019-09-06T06:01:24Z</time>
      </trkpt>
      <trkpt lat="19.05426" lon="98.96055">
        <time>2019-09-06T06:01:25Z</time>
      </trkpt>
      <trkpt lat="19.05449" lon="98.96048">
        <time>2019-09-06T06:01:26Z</time>
      </trkpt>
      <trkpt lat="19.05472" lon="98.9604">
        <time>2019-09-06T06:01:27Z</time>
      </trkpt>
      <trkpt lat="19.05494" lon="98.96033">
        <time>2019-09-06T06:01:28Z</time>
      </trkpt>
      <trkpt lat="19.05518" lon="98.96025">
        <time>2019-09-06T06:01:29Z</time>
      </trkpt>
      <trkpt lat="19.05537" lon="98.96017">
        <time>2019-09-06T06:01:30Z</time>
      </trkpt>
      <trkpt lat="19.05559" lon="98.9601">
        <time>2019-09-06T06:01:31Z</time>
      </trkpt>
      <trkpt lat="19.05581" lon="98.96002">
        <time>2019-09-06T06:01:32Z</time>
      </trkpt>
      <trkpt lat="19.05605" lon="98.95995">
        <time>2019-09-06T06:01:33Z</time>
      </trkpt>
      <trkpt lat="19.05625" lon="98.95988">
        <time>2019-09-06T06:01:34Z</time>
      </trkpt>
      <trkpt lat="19.05647" lon="98.9598">
        <time>2019-09-06T06:01:35Z</time>
      </trkpt>
      <trkpt lat="19.0567" lon="98.95972">
        <time>2019-09-06T06:01:36Z</time>
      </trkpt>
      <trkpt lat="19.05691" lon="98.95965">
        <time>2019-09-06T06:01:37Z</time>
      </trkpt>
      <trkpt lat="19.05712" lon="98.95956">
        <time>2019-09-06T06:01:38Z</time>
      </trkpt>
      <trkpt lat="19.05734" lon="98.9595">
        <time>2019-09-06T06:01:39Z</time>
      </trkpt>
      <trkpt lat="19.05756" lon="98.95943">
        <time>2019-09-06T06:01:40Z</time>
      </trkpt>
      <trkpt lat="19.05778" lon="98.95936">
        <time>2019-09-06T06:01:41Z</time>
      </trkpt>
      <trkpt lat="19.058" lon="98.95929">
        <time>2019-09-06T06:01:42Z</time>
      </trkpt>
      <trkpt lat="19.05823" lon="98.95922">
        <time>2019-09-06T06:01:43Z</time>
      </trkpt>
      <trkpt lat="19.05845" lon="98.95913">
        <time>2019-09-06T06:01:44Z</time>
      </trkpt>
      <trkpt lat="19.05868" lon="98.95904">
        <time>2019-09-06T06:01:45Z</time>
      </trkpt>
      <trkpt lat="19.05892" lon="98.95898">
        <time>2019-09-06T06:01:46Z</time>
      </trkpt>
      <trkpt lat="19.05916" lon="98.9589">
        <time>2019-09-06T06:01:47Z</time>
      </trkpt>
      <trkpt lat="19.05939" lon="98.95881">
        <time>2019-09-06T06:01:48Z</time>
      </trkpt>
      <trkpt lat="19.05959" lon="98.95873">
        <time>2019-09-06T06:01:49Z</time>
      </trkpt>
      <trkpt lat="19.05981" lon="98.95865">
        <time>2019-09-06T06:01:50Z</time>
      </trkpt>
      <trkpt lat="19.06004" lon="98.95857">
        <time>2019-09-06T06:01:51Z</time>
      </trkpt>
      <trkpt lat="19.06027" lon="98.9585">
        <time>2019-09-06T06:01:52Z</time>
      </trkpt>
      <trkpt lat="19.06048" lon="98.95842">
        <time>2019-09-06T06:01:53Z</time>
      </trkpt>
      <trkpt lat="19.0607" lon="98.95835">
        <time>2019-09-06T06:01:54Z</time>
      </trkpt>
      <trkpt lat="19.06091" lon="98.95827">
        <time>2019-09-06T06:01:55Z</time>
      </trkpt>
      <trkpt lat="19.06112" lon="98.95821">
        <time>2019-09-06T06:01:56Z</time>
      </trkpt>
      <trkpt lat="19.06133" lon="98.95815">
        <time>2019-09-06T06:01:57Z</time>
      </trkpt>
      <trkpt lat="19.06155" lon="98.95809">
        <time>2019-09-06T06:01:58Z</time>
      </trkpt>
      <trkpt lat="19.06177" lon="98.95804">
        <time>2019-09-06T06:01:59Z</time>
      </trkpt>
      <trkpt lat="19.06201" lon="98.95803">
        <time>2019-09-06T06:02:00Z</time>
      </trkpt>
      <trkpt lat="19.06226" lon="98.95804">
        <time>2019-09-06T06:02:01Z</time>
      </trkpt>
      <trkpt lat="19.0625" lon="98.95804">
        <time>2019-09-06T06:02:02Z</time>
      </trkpt>
      <trkpt lat="19.06273" lon="98.95805">
        <time>2019-09-06T06:02:03Z</time>
      </trkpt>
      <trkpt lat="19.06294" lon="98.95808">
        <time>2019-09-06T06:02:04Z</time>
      </trkpt>
      <trkpt lat="19.06315" lon="98.95812">
        <time>2019-09-06T06:02:05Z</time>
      </trkpt>
      <trkpt lat="19.06336" lon="98.95817">
        <time>2019-09-06T06:02:06Z</time>
      </trkpt>
      <trkpt lat="19.06357" lon="98.95824">
        <time>2019-09-06T06:02:07Z</time>
      </trkpt>
      <trkpt lat="19.06378" lon="98.9583">
        <time>2019-09-06T06:02:08Z</time>
      </trkpt>
      <trkpt lat="19.06399" lon="98.95839">
        <time>2019-09-06T06:02:09Z</time>
      </trkpt>
      <trkpt lat="19.0642" lon="98.95847">
        <time>2019-09-06T06:02:10Z</time>
      </trkpt>
      <trkpt lat="19.06439" lon="98.95857">
        <time>2019-09-06T06:02:11Z</time>
      </trkpt>
      <trkpt lat="19.06458" lon="98.9587">
        <time>2019-09-06T06:02:12Z</time>
      </trkpt>
      <trkpt lat="19.06477" lon="98.95884">
        <time>2019-09-06T06:02:14Z</time>
      </trkpt>
      <trkpt lat="19.06494" lon="98.95898">
        <time>2019-09-06T06:02:14Z</time>
      </trkpt>
      <trkpt lat="19.0651" lon="98.95912">
        <time>2019-09-06T06:02:15Z</time>
      </trkpt>
      <trkpt lat="19.06525" lon="98.95927">
        <time>2019-09-06T06:02:16Z</time>
      </trkpt>
      <trkpt lat="19.0654" lon="98.95943">
        <time>2019-09-06T06:02:17Z</time>
      </trkpt>
      <trkpt lat="19.06553" lon="98.95958">
        <time>2019-09-06T06:02:18Z</time>
      </trkpt>
      <trkpt lat="19.06566" lon="98.95975">
        <time>2019-09-06T06:02:19Z</time>
      </trkpt>
      <trkpt lat="19.06579" lon="98.95993">
        <time>2019-09-06T06:02:20Z</time>
      </trkpt>
      <trkpt lat="19.06592" lon="98.9601">
        <time>2019-09-06T06:02:21Z</time>
      </trkpt>
      <trkpt lat="19.06604" lon="98.96026">
        <time>2019-09-06T06:02:22Z</time>
      </trkpt>
      <trkpt lat="19.06619" lon="98.96047">
        <time>2019-09-06T06:02:23Z</time>
      </trkpt>
      <trkpt lat="19.06633" lon="98.96066">
        <time>2019-09-06T06:02:24Z</time>
      </trkpt>
      <trkpt lat="19.06646" lon="98.96087">
        <time>2019-09-06T06:02:25Z</time>
      </trkpt>
      <trkpt lat="19.0666" lon="98.96109">
        <time>2019-09-06T06:02:26Z</time>
      </trkpt>
      <trkpt lat="19.06673" lon="98.96129">
        <time>2019-09-06T06:02:27Z</time>
      </trkpt>
      <trkpt lat="19.06687" lon="98.96149">
        <time>2019-09-06T06:02:28Z</time>
      </trkpt>
      <trkpt lat="19.067" lon="98.96168">
        <time>2019-09-06T06:02:29Z</time>
      </trkpt>
      <trkpt lat="19.06712" lon="98.96186">
        <time>2019-09-06T06:02:30Z</time>
      </trkpt>
      <trkpt lat="19.06725" lon="98.96205">
        <time>2019-09-06T06:02:31Z</time>
      </trkpt>
      <trkpt lat="19.06738" lon="98.96223">
        <time>2019-09-06T06:02:32Z</time>
      </trkpt>
      <trkpt lat="19.06752" lon="98.96243">
        <time>2019-09-06T06:02:33Z</time>
      </trkpt>
      <trkpt lat="19.06766" lon="98.96263">
        <time>2019-09-06T06:02:34Z</time>
      </trkpt>
      <trkpt lat="19.0678" lon="98.96282">
        <time>2019-09-06T06:02:35Z</time>
      </trkpt>
      <trkpt lat="19.06794" lon="98.96302">
        <time>2019-09-06T06:02:36Z</time>
      </trkpt>
      <trkpt lat="19.06808" lon="98.96323">
        <time>2019-09-06T06:02:37Z</time>
      </trkpt>
      <trkpt lat="19.06822" lon="98.96342">
        <time>2019-09-06T06:02:38Z</time>
      </trkpt>
      <trkpt lat="19.06836" lon="98.96362">
        <time>2019-09-06T06:02:39Z</time>
      </trkpt>
      <trkpt lat="19.06849" lon="98.96381">
        <time>2019-09-06T06:02:40Z</time>
      </trkpt>
      <trkpt lat="19.06862" lon="98.96401">
        <time>2019-09-06T06:02:41Z</time>
      </trkpt>
      <trkpt lat="19.06875" lon="98.96419">
        <time>2019-09-06T06:02:42Z</time>
      </trkpt>
      <trkpt lat="19.06887" lon="98.96439">
        <time>2019-09-06T06:02:43Z</time>
      </trkpt>
      <trkpt lat="19.06899" lon="98.96461">
        <time>2019-09-06T06:02:44Z</time>
      </trkpt>
      <trkpt lat="19.0691" lon="98.9648">
        <time>2019-09-06T06:02:45Z</time>
      </trkpt>
      <trkpt lat="19.0692" lon="98.96503">
        <time>2019-09-06T06:02:46Z</time>
      </trkpt>
      <trkpt lat="19.0693" lon="98.96523">
        <time>2019-09-06T06:02:47Z</time>
      </trkpt>
      <trkpt lat="19.0694" lon="98.96545">
        <time>2019-09-06T06:02:48Z</time>
      </trkpt>
      <trkpt lat="19.06947" lon="98.96572">
        <time>2019-09-06T06:02:49Z</time>
      </trkpt>
      <trkpt lat="19.06955" lon="98.96595">
        <time>2019-09-06T06:02:50Z</time>
      </trkpt>
      <trkpt lat="19.06962" lon="98.9662">
        <time>2019-09-06T06:02:51Z</time>
      </trkpt>
      <trkpt lat="19.06969" lon="98.96642">
        <time>2019-09-06T06:02:52Z</time>
      </trkpt>
      <trkpt lat="19.06976" lon="98.96662">
        <time>2019-09-06T06:02:53Z</time>
      </trkpt>
      <trkpt lat="19.06982" lon="98.96681">
        <time>2019-09-06T06:02:54Z</time>
      </trkpt>
      <trkpt lat="19.06988" lon="98.96701">
        <time>2019-09-06T06:02:55Z</time>
      </trkpt>
      <trkpt lat="19.06993" lon="98.96718">
        <time>2019-09-06T06:02:56Z</time>
      </trkpt>
      <trkpt lat="19.06994" lon="98.96739">
        <time>2019-09-06T06:02:57Z</time>
      </trkpt>
      <trkpt lat="19.06996" lon="98.9676">
        <time>2019-09-06T06:02:58Z</time>
      </trkpt>
      <trkpt lat="19.06992" lon="98.96785">
        <time>2019-09-06T06:02:59Z</time>
      </trkpt>
      <trkpt lat="19.06991" lon="98.96808">
        <time>2019-09-06T06:03:00Z</time>
      </trkpt>
      <trkpt lat="19.06986" lon="98.96832">
        <time>2019-09-06T06:03:01Z</time>
      </trkpt>
      <trkpt lat="19.06981" lon="98.96858">
        <time>2019-09-06T06:03:02Z</time>
      </trkpt>
      <trkpt lat="19.06977" lon="98.96882">
        <time>2019-09-06T06:03:03Z</time>
      </trkpt>
      <trkpt lat="19.06972" lon="98.96906">
        <time>2019-09-06T06:03:04Z</time>
      </trkpt>
      <trkpt lat="19.06968" lon="98.96931">
        <time>2019-09-06T06:03:05Z</time>
      </trkpt>
      <trkpt lat="19.06965" lon="98.96955">
        <time>2019-09-06T06:03:06Z</time>
      </trkpt>
      <trkpt lat="19.06962" lon="98.96979">
        <time>2019-09-06T06:03:07Z</time>
      </trkpt>
      <trkpt lat="19.06958" lon="98.97003">
        <time>2019-09-06T06:03:08Z</time>
      </trkpt>
      <trkpt lat="19.06953" lon="98.97027">
        <time>2019-09-06T06:03:09Z</time>
      </trkpt>
      <trkpt lat="19.0695" lon="98.97051">
        <time>2019-09-06T06:03:10Z</time>
      </trkpt>
      <trkpt lat="19.06949" lon="98.97075">
        <time>2019-09-06T06:03:11Z</time>
      </trkpt>
      <trkpt lat="19.0695" lon="98.97097">
        <time>2019-09-06T06:03:12Z</time>
      </trkpt>
      <trkpt lat="19.06951" lon="98.9712">
        <time>2019-09-06T06:03:13Z</time>
      </trkpt>
      <trkpt lat="19.06954" lon="98.97144">
        <time>2019-09-06T06:03:14Z</time>
      </trkpt>
      <trkpt lat="19.0696" lon="98.97165">
        <time>2019-09-06T06:03:15Z</time>
      </trkpt>
      <trkpt lat="19.06967" lon="98.97187">
        <time>2019-09-06T06:03:16Z</time>
      </trkpt>
      <trkpt lat="19.06979" lon="98.97204">
        <time>2019-09-06T06:03:17Z</time>
      </trkpt>
      <trkpt lat="19.06989" lon="98.97224">
        <time>2019-09-06T06:03:19Z</time>
      </trkpt>
      <trkpt lat="19.07002" lon="98.97243">
        <time>2019-09-06T06:03:19Z</time>
      </trkpt>
      <trkpt lat="19.07014" lon="98.97262">
        <time>2019-09-06T06:03:20Z</time>
      </trkpt>
      <trkpt lat="19.07025" lon="98.97281">
        <time>2019-09-06T06:03:21Z</time>
      </trkpt>
      <trkpt lat="19.07036" lon="98.97301">
        <time>2019-09-06T06:03:22Z</time>
      </trkpt>
      <trkpt lat="19.07046" lon="98.97319">
        <time>2019-09-06T06:03:23Z</time>
      </trkpt>
      <trkpt lat="19.07054" lon="98.97335">
        <time>2019-09-06T06:03:24Z</time>
      </trkpt>
      <trkpt lat="19.07062" lon="98.97351">
        <time>2019-09-06T06:03:25Z</time>
      </trkpt>
      <trkpt lat="19.0707" lon="98.97369">
        <time>2019-09-06T06:03:26Z</time>
      </trkpt>
      <trkpt lat="19.07075" lon="98.97387">
        <time>2019-09-06T06:03:27Z</time>
      </trkpt>
      <trkpt lat="19.07078" lon="98.97408">
        <time>2019-09-06T06:03:28Z</time>
      </trkpt>
      <trkpt lat="19.07079" lon="98.97428">
        <time>2019-09-06T06:03:29Z</time>
      </trkpt>
      <trkpt lat="19.07079" lon="98.97453">
        <time>2019-09-06T06:03:30Z</time>
      </trkpt>
      <trkpt lat="19.07078" lon="98.97473">
        <time>2019-09-06T06:03:31Z</time>
      </trkpt>
      <trkpt lat="19.07076" lon="98.97498">
        <time>2019-09-06T06:03:32Z</time>
      </trkpt>
      <trkpt lat="19.0707" lon="98.97523">
        <time>2019-09-06T06:03:33Z</time>
      </trkpt>
      <trkpt lat="19.07067" lon="98.97547">
        <time>2019-09-06T06:03:34Z</time>
      </trkpt>
      <trkpt lat="19.07063" lon="98.97571">
        <time>2019-09-06T06:03:35Z</time>
      </trkpt>
      <trkpt lat="19.07064" lon="98.97593">
        <time>2019-09-06T06:03:36Z</time>
      </trkpt>
      <trkpt lat="19.07064" lon="98.97615">
        <time>2019-09-06T06:03:37Z</time>
      </trkpt>
      <trkpt lat="19.07067" lon="98.97637">
        <time>2019-09-06T06:03:38Z</time>
      </trkpt>
      <trkpt lat="19.07071" lon="98.97658">
        <time>2019-09-06T06:03:39Z</time>
      </trkpt>
      <trkpt lat="19.07074" lon="98.9768">
        <time>2019-09-06T06:03:40Z</time>
      </trkpt>
      <trkpt lat="19.0708" lon="98.977">
        <time>2019-09-06T06:03:41Z</time>
      </trkpt>
      <trkpt lat="19.07089" lon="98.97721">
        <time>2019-09-06T06:03:42Z</time>
      </trkpt>
      <trkpt lat="19.071" lon="98.9774">
        <time>2019-09-06T06:03:43Z</time>
      </trkpt>
      <trkpt lat="19.07109" lon="98.97757">
        <time>2019-09-06T06:03:44Z</time>
      </trkpt>
      <trkpt lat="19.07122" lon="98.97772">
        <time>2019-09-06T06:03:45Z</time>
      </trkpt>
      <trkpt lat="19.0715" lon="98.97777">
        <time>2019-09-06T06:03:46Z</time>
      </trkpt>
      <trkpt lat="19.07171" lon="98.9779">
        <time>2019-09-06T06:03:47Z</time>
      </trkpt>
      <trkpt lat="19.07193" lon="98.97804">
        <time>2019-09-06T06:03:48Z</time>
      </trkpt>
      <trkpt lat="19.07217" lon="98.97815">
        <time>2019-09-06T06:03:49Z</time>
      </trkpt>
      <trkpt lat="19.07239" lon="98.97824">
        <time>2019-09-06T06:03:50Z</time>
      </trkpt>
      <trkpt lat="19.07262" lon="98.97825">
        <time>2019-09-06T06:03:51Z</time>
      </trkpt>
      <trkpt lat="19.07285" lon="98.97834">
        <time>2019-09-06T06:03:52Z</time>
      </trkpt>
      <trkpt lat="19.07307" lon="98.9784">
        <time>2019-09-06T06:03:53Z</time>
      </trkpt>
      <trkpt lat="19.07329" lon="98.97848">
        <time>2019-09-06T06:03:54Z</time>
      </trkpt>
      <trkpt lat="19.07351" lon="98.97855">
        <time>2019-09-06T06:03:55Z</time>
      </trkpt>
      <trkpt lat="19.07374" lon="98.97862">
        <time>2019-09-06T06:03:56Z</time>
      </trkpt>
      <trkpt lat="19.07396" lon="98.97869">
        <time>2019-09-06T06:03:57Z</time>
      </trkpt>
      <trkpt lat="19.07418" lon="98.97876">
        <time>2019-09-06T06:03:58Z</time>
      </trkpt>
      <trkpt lat="19.07442" lon="98.97883">
        <time>2019-09-06T06:03:59Z</time>
      </trkpt>
      <trkpt lat="19.07465" lon="98.97883">
        <time>2019-09-06T06:04:00Z</time>
      </trkpt>
      <trkpt lat="19.07488" lon="98.97886">
        <time>2019-09-06T06:04:01Z</time>
      </trkpt>
      <trkpt lat="19.07511" lon="98.97888">
        <time>2019-09-06T06:04:02Z</time>
      </trkpt>
      <trkpt lat="19.07535" lon="98.97891">
        <time>2019-09-06T06:04:03Z</time>
      </trkpt>
      <trkpt lat="19.07562" lon="98.97894">
        <time>2019-09-06T06:04:04Z</time>
      </trkpt>
      <trkpt lat="19.07587" lon="98.97894">
        <time>2019-09-06T06:04:05Z</time>
      </trkpt>
      <trkpt lat="19.07612" lon="98.979">
        <time>2019-09-06T06:04:06Z</time>
      </trkpt>
      <trkpt lat="19.07634" lon="98.97902">
        <time>2019-09-06T06:04:07Z</time>
      </trkpt>
      <trkpt lat="19.07658" lon="98.97903">
        <time>2019-09-06T06:04:08Z</time>
      </trkpt>
      <trkpt lat="19.07682" lon="98.97906">
        <time>2019-09-06T06:04:09Z</time>
      </trkpt>
      <trkpt lat="19.07707" lon="98.97911">
        <time>2019-09-06T06:04:10Z</time>
      </trkpt>
      <trkpt lat="19.07731" lon="98.97914">
        <time>2019-09-06T06:04:11Z</time>
      </trkpt>
      <trkpt lat="19.07755" lon="98.97916">
        <time>2019-09-06T06:04:12Z</time>
      </trkpt>
      <trkpt lat="19.0778" lon="98.97918">
        <time>2019-09-06T06:04:13Z</time>
      </trkpt>
      <trkpt lat="19.07805" lon="98.97921">
        <time>2019-09-06T06:04:14Z</time>
      </trkpt>
      <trkpt lat="19.07826" lon="98.97923">
        <time>2019-09-06T06:04:15Z</time>
      </trkpt>
      <trkpt lat="19.07851" lon="98.97924">
        <time>2019-09-06T06:04:16Z</time>
      </trkpt>
      <trkpt lat="19.07875" lon="98.97925">
        <time>2019-09-06T06:04:17Z</time>
      </trkpt>
      <trkpt lat="19.07899" lon="98.97928">
        <time>2019-09-06T06:04:18Z</time>
      </trkpt>
      <trkpt lat="19.07924" lon="98.97931">
        <time>2019-09-06T06:04:19Z</time>
      </trkpt>
      <trkpt lat="19.07949" lon="98.97935">
        <time>2019-09-06T06:04:20Z</time>
      </trkpt>
      <trkpt lat="19.07972" lon="98.97937">
        <time>2019-09-06T06:04:21Z</time>
      </trkpt>
      <trkpt lat="19.07995" lon="98.97938">
        <time>2019-09-06T06:04:22Z</time>
      </trkpt>
      <trkpt lat="19.08016" lon="98.97941">
        <time>2019-09-06T06:04:23Z</time>
      </trkpt>
      <trkpt lat="19.08039" lon="98.97943">
        <time>2019-09-06T06:04:24Z</time>
      </trkpt>
      <trkpt lat="19.0806" lon="98.97947">
        <time>2019-09-06T06:04:25Z</time>
      </trkpt>
      <trkpt lat="19.08082" lon="98.97952">
        <time>2019-09-06T06:04:26Z</time>
      </trkpt>
      <trkpt lat="19.08104" lon="98.9796">
        <time>2019-09-06T06:04:27Z</time>
      </trkpt>
      <trkpt lat="19.08126" lon="98.97967">
        <time>2019-09-06T06:04:28Z</time>
      </trkpt>
      <trkpt lat="19.08149" lon="98.97976">
        <time>2019-09-06T06:04:29Z</time>
      </trkpt>
      <trkpt lat="19.08171" lon="98.97982">
        <time>2019-09-06T06:04:30Z</time>
      </trkpt>
      <trkpt lat="19.08194" lon="98.97997">
        <time>2019-09-06T06:04:31Z</time>
      </trkpt>
      <trkpt lat="19.08217" lon="98.98008">
        <time>2019-09-06T06:04:32Z</time>
      </trkpt>
      <trkpt lat="19.08238" lon="98.98018">
        <time>2019-09-06T06:04:33Z</time>
      </trkpt>
      <trkpt lat="19.08259" lon="98.98028">
        <time>2019-09-06T06:04:34Z</time>
      </trkpt>
      <trkpt lat="19.0828" lon="98.98038">
        <time>2019-09-06T06:04:35Z</time>
      </trkpt>
      <trkpt lat="19.08301" lon="98.98051">
        <time>2019-09-06T06:04:36Z</time>
      </trkpt>
      <trkpt lat="19.08323" lon="98.98062">
        <time>2019-09-06T06:04:37Z</time>
      </trkpt>
      <trkpt lat="19.08346" lon="98.98072">
        <time>2019-09-06T06:04:38Z</time>
      </trkpt>
      <trkpt lat="19.08366" lon="98.98085">
        <time>2019-09-06T06:04:39Z</time>
      </trkpt>
      <trkpt lat="19.08386" lon="98.98092">
        <time>2019-09-06T06:04:40Z</time>
      </trkpt>
      <trkpt lat="19.08407" lon="98.98103">
        <time>2019-09-06T06:04:41Z</time>
      </trkpt>
      <trkpt lat="19.08427" lon="98.98115">
        <time>2019-09-06T06:04:42Z</time>
      </trkpt>
      <trkpt lat="19.08451" lon="98.98123">
        <time>2019-09-06T06:04:43Z</time>
      </trkpt>
      <trkpt lat="19.08475" lon="98.98131">
        <time>2019-09-06T06:04:44Z</time>
      </trkpt>
      <trkpt lat="19.08496" lon="98.98142">
        <time>2019-09-06T06:04:45Z</time>
      </trkpt>
      <trkpt lat="19.08517" lon="98.98153">
        <time>2019-09-06T06:04:46Z</time>
      </trkpt>
      <trkpt lat="19.08538" lon="98.98163">
        <time>2019-09-06T06:04:47Z</time>
      </trkpt>
      <trkpt lat="19.08559" lon="98.98171">
        <time>2019-09-06T06:04:48Z</time>
      </trkpt>
      <trkpt lat="19.08579" lon="98.9818">
        <time>2019-09-06T06:04:49Z</time>
      </trkpt>
      <trkpt lat="19.08601" lon="98.98193">
        <time>2019-09-06T06:04:50Z</time>
      </trkpt>
      <trkpt lat="19.08622" lon="98.98205">
        <time>2019-09-06T06:04:51Z</time>
      </trkpt>
      <trkpt lat="19.08643" lon="98.98216">
        <time>2019-09-06T06:04:52Z</time>
      </trkpt>
      <trkpt lat="19.08665" lon="98.98226">
        <time>2019-09-06T06:04:53Z</time>
      </trkpt>
      <trkpt lat="19.08685" lon="98.98234">
        <time>2019-09-06T06:04:54Z</time>
      </trkpt>
      <trkpt lat="19.08704" lon="98.98243">
        <time>2019-09-06T06:04:55Z</time>
      </trkpt>
      <trkpt lat="19.08725" lon="98.98256">
        <time>2019-09-06T06:04:56Z</time>
      </trkpt>
      <trkpt lat="19.08746" lon="98.98269">
        <time>2019-09-06T06:04:57Z</time>
      </trkpt>
      <trkpt lat="19.08767" lon="98.98282">
        <time>2019-09-06T06:04:58Z</time>
      </trkpt>
      <trkpt lat="19.08787" lon="98.98291">
        <time>2019-09-06T06:04:59Z</time>
      </trkpt>
      <trkpt lat="19.08806" lon="98.98299">
        <time>2019-09-06T06:05:00Z</time>
      </trkpt>
      <trkpt lat="19.08827" lon="98.98314">
        <time>2019-09-06T06:05:01Z</time>
      </trkpt>
      <trkpt lat="19.08845" lon="98.98326">
        <time>2019-09-06T06:05:02Z</time>
      </trkpt>
      <trkpt lat="19.08864" lon="98.98333">
        <time>2019-09-06T06:05:03Z</time>
      </trkpt>
      <trkpt lat="19.08881" lon="98.98342">
        <time>2019-09-06T06:05:04Z</time>
      </trkpt>
      <trkpt lat="19.08896" lon="98.98357">
        <time>2019-09-06T06:05:05Z</time>
      </trkpt>
      <trkpt lat="19.08912" lon="98.98368">
        <time>2019-09-06T06:05:06Z</time>
      </trkpt>
      <trkpt lat="19.08926" lon="98.9838">
        <time>2019-09-06T06:05:07Z</time>
      </trkpt>
      <trkpt lat="19.08941" lon="98.98395">
        <time>2019-09-06T06:05:08Z</time>
      </trkpt>
      <trkpt lat="19.08952" lon="98.98413">
        <time>2019-09-06T06:05:09Z</time>
      </trkpt>
      <trkpt lat="19.08961" lon="98.98432">
        <time>2019-09-06T06:05:10Z</time>
      </trkpt>
      <trkpt lat="19.08972" lon="98.98447">
        <time>2019-09-06T06:05:11Z</time>
      </trkpt>
      <trkpt lat="19.08978" lon="98.98463">
        <time>2019-09-06T06:05:12Z</time>
      </trkpt>
      <trkpt lat="19.08981" lon="98.98486">
        <time>2019-09-06T06:05:13Z</time>
      </trkpt>
      <trkpt lat="19.08976" lon="98.98516">
        <time>2019-09-06T06:05:14Z</time>
      </trkpt>
      <trkpt lat="19.08973" lon="98.98544">
        <time>2019-09-06T06:05:15Z</time>
      </trkpt>
      <trkpt lat="19.0897" lon="98.98569">
        <time>2019-09-06T06:05:16Z</time>
      </trkpt>
      <trkpt lat="19.08967" lon="98.98593">
        <time>2019-09-06T06:05:17Z</time>
      </trkpt>
      <trkpt lat="19.08966" lon="98.98617">
        <time>2019-09-06T06:05:18Z</time>
      </trkpt>
      <trkpt lat="19.08963" lon="98.9864">
        <time>2019-09-06T06:05:19Z</time>
      </trkpt>
      <trkpt lat="19.08961" lon="98.98663">
        <time>2019-09-06T06:05:20Z</time>
      </trkpt>
      <trkpt lat="19.08958" lon="98.98685">
        <time>2019-09-06T06:05:21Z</time>
      </trkpt>
      <trkpt lat="19.08956" lon="98.98708">
        <time>2019-09-06T06:05:22Z</time>
      </trkpt>
      <trkpt lat="19.08955" lon="98.98728">
        <time>2019-09-06T06:05:23Z</time>
      </trkpt>
      <trkpt lat="19.08954" lon="98.98748">
        <time>2019-09-06T06:05:24Z</time>
      </trkpt>
      <trkpt lat="19.08952" lon="98.98769">
        <time>2019-09-06T06:05:25Z</time>
      </trkpt>
      <trkpt lat="19.0895" lon="98.98792">
        <time>2019-09-06T06:05:26Z</time>
      </trkpt>
      <trkpt lat="19.08949" lon="98.98814">
        <time>2019-09-06T06:05:27Z</time>
      </trkpt>
      <trkpt lat="19.08947" lon="98.98837">
        <time>2019-09-06T06:05:28Z</time>
      </trkpt>
      <trkpt lat="19.08946" lon="98.98861">
        <time>2019-09-06T06:05:29Z</time>
      </trkpt>
      <trkpt lat="19.08945" lon="98.98883">
        <time>2019-09-06T06:05:30Z</time>
      </trkpt>
      <trkpt lat="19.08941" lon="98.98907">
        <time>2019-09-06T06:05:31Z</time>
      </trkpt>
      <trkpt lat="19.0894" lon="98.98931">
        <time>2019-09-06T06:05:32Z</time>
      </trkpt>
      <trkpt lat="19.08938" lon="98.98953">
        <time>2019-09-06T06:05:33Z</time>
      </trkpt>
      <trkpt lat="19.08935" lon="98.98976">
        <time>2019-09-06T06:05:34Z</time>
      </trkpt>
      <trkpt lat="19.08935" lon="98.99">
        <time>2019-09-06T06:05:35Z</time>
      </trkpt>
      <trkpt lat="19.08933" lon="98.99023">
        <time>2019-09-06T06:05:36Z</time>
      </trkpt>
      <trkpt lat="19.08932" lon="98.99047">
        <time>2019-09-06T06:05:37Z</time>
      </trkpt>
      <trkpt lat="19.08931" lon="98.9907">
        <time>2019-09-06T06:05:38Z</time>
      </trkpt>
      <trkpt lat="19.08928" lon="98.99094">
        <time>2019-09-06T06:05:39Z</time>
      </trkpt>
      <trkpt lat="19.08926" lon="98.99117">
        <time>2019-09-06T06:05:40Z</time>
      </trkpt>
      <trkpt lat="19.08924" lon="98.9914">
        <time>2019-09-06T06:05:41Z</time>
      </trkpt>
      <trkpt lat="19.08923" lon="98.99162">
        <time>2019-09-06T06:05:42Z</time>
      </trkpt>
      <trkpt lat="19.0892" lon="98.99188">
        <time>2019-09-06T06:05:43Z</time>
      </trkpt>
      <trkpt lat="19.08918" lon="98.99213">
        <time>2019-09-06T06:05:44Z</time>
      </trkpt>
      <trkpt lat="19.08917" lon="98.99238">
        <time>2019-09-06T06:05:45Z</time>
      </trkpt>
      <trkpt lat="19.08915" lon="98.99261">
        <time>2019-09-06T06:05:46Z</time>
      </trkpt>
      <trkpt lat="19.08915" lon="98.99283">
        <time>2019-09-06T06:05:47Z</time>
      </trkpt>
      <trkpt lat="19.08914" lon="98.99307">
        <time>2019-09-06T06:05:48Z</time>
      </trkpt>
      <trkpt lat="19.08913" lon="98.99331">
        <time>2019-09-06T06:05:49Z</time>
      </trkpt>
      <trkpt lat="19.08909" lon="98.99354">
        <time>2019-09-06T06:05:50Z</time>
      </trkpt>
      <trkpt lat="19.08907" lon="98.99377">
        <time>2019-09-06T06:05:51Z</time>
      </trkpt>
      <trkpt lat="19.08905" lon="98.99402">
        <time>2019-09-06T06:05:52Z</time>
      </trkpt>
      <trkpt lat="19.08902" lon="98.99424">
        <time>2019-09-06T06:05:53Z</time>
      </trkpt>
      <trkpt lat="19.08901" lon="98.99448">
        <time>2019-09-06T06:05:54Z</time>
      </trkpt>
      <trkpt lat="19.08899" lon="98.9947">
        <time>2019-09-06T06:05:55Z</time>
      </trkpt>
      <trkpt lat="19.08896" lon="98.99497">
        <time>2019-09-06T06:05:56Z</time>
      </trkpt>
      <trkpt lat="19.08894" lon="98.99521">
        <time>2019-09-06T06:05:57Z</time>
      </trkpt>
      <trkpt lat="19.08891" lon="98.99546">
        <time>2019-09-06T06:05:58Z</time>
      </trkpt>
      <trkpt lat="19.0889" lon="98.99569">
        <time>2019-09-06T06:05:59Z</time>
      </trkpt>
      <trkpt lat="19.0889" lon="98.99596">
        <time>2019-09-06T06:06:00Z</time>
      </trkpt>
      <trkpt lat="19.08888" lon="98.9962">
        <time>2019-09-06T06:06:01Z</time>
      </trkpt>
      <trkpt lat="19.08889" lon="98.99642">
        <time>2019-09-06T06:06:02Z</time>
      </trkpt>
      <trkpt lat="19.08888" lon="98.99666">
        <time>2019-09-06T06:06:03Z</time>
      </trkpt>
      <trkpt lat="19.08886" lon="98.99689">
        <time>2019-09-06T06:06:04Z</time>
      </trkpt>
      <trkpt lat="19.08884" lon="98.99712">
        <time>2019-09-06T06:06:05Z</time>
      </trkpt>
      <trkpt lat="19.08883" lon="98.99733">
        <time>2019-09-06T06:06:06Z</time>
      </trkpt>
      <trkpt lat="19.0888" lon="98.99755">
        <time>2019-09-06T06:06:07Z</time>
      </trkpt>
      <trkpt lat="19.08879" lon="98.99777">
        <time>2019-09-06T06:06:08Z</time>
      </trkpt>
      <trkpt lat="19.0888" lon="98.998">
        <time>2019-09-06T06:06:09Z</time>
      </trkpt>
      <trkpt lat="19.08881" lon="98.99821">
        <time>2019-09-06T06:06:10Z</time>
      </trkpt>
      <trkpt lat="19.08884" lon="98.99842">
        <time>2019-09-06T06:06:11Z</time>
      </trkpt>
      <trkpt lat="19.08889" lon="98.99862">
        <time>2019-09-06T06:06:12Z</time>
      </trkpt>
      <trkpt lat="19.08896" lon="98.99882">
        <time>2019-09-06T06:06:13Z</time>
      </trkpt>
      <trkpt lat="19.08903" lon="98.99902">
        <time>2019-09-06T06:06:14Z</time>
      </trkpt>
      <trkpt lat="19.0891" lon="98.9992">
        <time>2019-09-06T06:06:15Z</time>
      </trkpt>
      <trkpt lat="19.08921" lon="98.99938">
        <time>2019-09-06T06:06:16Z</time>
      </trkpt>
      <trkpt lat="19.08937" lon="98.99951">
        <time>2019-09-06T06:06:17Z</time>
      </trkpt>
      <trkpt lat="19.08952" lon="98.99965">
        <time>2019-09-06T06:06:18Z</time>
      </trkpt>
      <trkpt lat="19.08972" lon="98.99974">
        <time>2019-09-06T06:06:19Z</time>
      </trkpt>
      <trkpt lat="19.08989" lon="98.99983">
        <time>2019-09-06T06:06:20Z</time>
      </trkpt>
      <trkpt lat="19.0901" lon="98.99993">
        <time>2019-09-06T06:06:21Z</time>
      </trkpt>
      <trkpt lat="19.09033" lon="98.99997">
        <time>2019-09-06T06:06:22Z</time>
      </trkpt>
      <trkpt lat="19.09056" lon="99.00004">
        <time>2019-09-06T06:06:23Z</time>
      </trkpt>
      <trkpt lat="19.09079" lon="99.00009">
        <time>2019-09-06T06:06:24Z</time>
      </trkpt>
      <trkpt lat="19.09101" lon="99.00012">
        <time>2019-09-06T06:06:25Z</time>
      </trkpt>
      <trkpt lat="19.09125" lon="99.00014">
        <time>2019-09-06T06:06:26Z</time>
      </trkpt>
      <trkpt lat="19.09147" lon="99.00017">
        <time>2019-09-06T06:06:27Z</time>
      </trkpt>
      <trkpt lat="19.09171" lon="99.00022">
        <time>2019-09-06T06:06:28Z</time>
      </trkpt>
      <trkpt lat="19.09196" lon="99.00026">
        <time>2019-09-06T06:06:29Z</time>
      </trkpt>
      <trkpt lat="19.09219" lon="99.0003">
        <time>2019-09-06T06:06:30Z</time>
      </trkpt>
      <trkpt lat="19.09243" lon="99.00034">
        <time>2019-09-06T06:06:31Z</time>
      </trkpt>
      <trkpt lat="19.09266" lon="99.00037">
        <time>2019-09-06T06:06:32Z</time>
      </trkpt>
      <trkpt lat="19.09291" lon="99.00041">
        <time>2019-09-06T06:06:33Z</time>
      </trkpt>
      <trkpt lat="19.09315" lon="99.00045">
        <time>2019-09-06T06:06:34Z</time>
      </trkpt>
      <trkpt lat="19.09341" lon="99.00052">
        <time>2019-09-06T06:06:35Z</time>
      </trkpt>
      <trkpt lat="19.09366" lon="99.00056">
        <time>2019-09-06T06:06:36Z</time>
      </trkpt>
      <trkpt lat="19.09391" lon="99.00063">
        <time>2019-09-06T06:06:37Z</time>
      </trkpt>
      <trkpt lat="19.09416" lon="99.00067">
        <time>2019-09-06T06:06:38Z</time>
      </trkpt>
      <trkpt lat="19.09442" lon="99.00072">
        <time>2019-09-06T06:06:39Z</time>
      </trkpt>
      <trkpt lat="19.09465" lon="99.00074">
        <time>2019-09-06T06:06:40Z</time>
      </trkpt>
      <trkpt lat="19.09489" lon="99.00078">
        <time>2019-09-06T06:06:41Z</time>
      </trkpt>
      <trkpt lat="19.09514" lon="99.00083">
        <time>2019-09-06T06:06:42Z</time>
      </trkpt>
      <trkpt lat="19.09537" lon="99.00089">
        <time>2019-09-06T06:06:43Z</time>
      </trkpt>
      <trkpt lat="19.0956" lon="99.00094">
        <time>2019-09-06T06:06:44Z</time>
      </trkpt>
      <trkpt lat="19.09582" lon="99.00099">
        <time>2019-09-06T06:06:45Z</time>
      </trkpt>
      <trkpt lat="19.09605" lon="99.00102">
        <time>2019-09-06T06:06:46Z</time>
      </trkpt>
      <trkpt lat="19.09627" lon="99.00107">
        <time>2019-09-06T06:06:47Z</time>
      </trkpt>
      <trkpt lat="19.09648" lon="99.00111">
        <time>2019-09-06T06:06:48Z</time>
      </trkpt>
      <trkpt lat="19.09669" lon="99.00115">
        <time>2019-09-06T06:06:49Z</time>
      </trkpt>
      <trkpt lat="19.09693" lon="99.00121">
        <time>2019-09-06T06:06:50Z</time>
      </trkpt>
      <trkpt lat="19.09715" lon="99.00124">
        <time>2019-09-06T06:06:51Z</time>
      </trkpt>
      <trkpt lat="19.09738" lon="99.00122">
        <time>2019-09-06T06:06:52Z</time>
      </trkpt>
      <trkpt lat="19.09763" lon="99.00123">
        <time>2019-09-06T06:06:53Z</time>
      </trkpt>
      <trkpt lat="19.09786" lon="99.00117">
        <time>2019-09-06T06:06:54Z</time>
      </trkpt>
      <trkpt lat="19.09808" lon="99.00108">
        <time>2019-09-06T06:06:55Z</time>
      </trkpt>
      <trkpt lat="19.0983" lon="99.00093">
        <time>2019-09-06T06:06:56Z</time>
      </trkpt>
      <trkpt lat="19.09849" lon="99.00073">
        <time>2019-09-06T06:06:57Z</time>
      </trkpt>
      <trkpt lat="19.09871" lon="99.00059">
        <time>2019-09-06T06:06:58Z</time>
      </trkpt>
      <trkpt lat="19.09895" lon="99.00049">
        <time>2019-09-06T06:06:59Z</time>
      </trkpt>
      <trkpt lat="19.09911" lon="99.00037">
        <time>2019-09-06T06:07:00Z</time>
      </trkpt>
      <trkpt lat="19.0993" lon="99.00025">
        <time>2019-09-06T06:07:01Z</time>
      </trkpt>
      <trkpt lat="19.09951" lon="99.00015">
        <time>2019-09-06T06:07:02Z</time>
      </trkpt>
      <trkpt lat="19.09968" lon="99.00004">
        <time>2019-09-06T06:07:03Z</time>
      </trkpt>
      <trkpt lat="19.09982" lon="98.99996">
        <time>2019-09-06T06:07:04Z</time>
      </trkpt>
      <trkpt lat="19.10002" lon="98.99983">
        <time>2019-09-06T06:07:05Z</time>
      </trkpt>
      <trkpt lat="19.10026" lon="98.99973">
        <time>2019-09-06T06:07:06Z</time>
      </trkpt>
      <trkpt lat="19.10041" lon="98.99968">
        <time>2019-09-06T06:07:07Z</time>
      </trkpt>
      <trkpt lat="19.10067" lon="98.9996">
        <time>2019-09-06T06:07:08Z</time>
      </trkpt>
      <trkpt lat="19.10089" lon="98.99955">
        <time>2019-09-06T06:07:09Z</time>
      </trkpt>
      <trkpt lat="19.10109" lon="98.99957">
        <time>2019-09-06T06:07:10Z</time>
      </trkpt>
      <trkpt lat="19.10137" lon="98.99957">
        <time>2019-09-06T06:07:11Z</time>
      </trkpt>
      <trkpt lat="19.10167" lon="98.99985">
        <time>2019-09-06T06:07:12Z</time>
      </trkpt>
      <trkpt lat="19.10189" lon="98.99992">
        <time>2019-09-06T06:07:13Z</time>
      </trkpt>
      <trkpt lat="19.10211" lon="98.99999">
        <time>2019-09-06T06:07:14Z</time>
      </trkpt>
      <trkpt lat="19.10233" lon="99.00005">
        <time>2019-09-06T06:07:15Z</time>
      </trkpt>
      <trkpt lat="19.10257" lon="99.00012">
        <time>2019-09-06T06:07:16Z</time>
      </trkpt>
      <trkpt lat="19.10279" lon="99.00018">
        <time>2019-09-06T06:07:17Z</time>
      </trkpt>
      <trkpt lat="19.10302" lon="99.00023">
        <time>2019-09-06T06:07:18Z</time>
      </trkpt>
      <trkpt lat="19.10324" lon="99.0003">
        <time>2019-09-06T06:07:19Z</time>
      </trkpt>
      <trkpt lat="19.10347" lon="99.00038">
        <time>2019-09-06T06:07:20Z</time>
      </trkpt>
      <trkpt lat="19.10369" lon="99.00045">
        <time>2019-09-06T06:07:21Z</time>
      </trkpt>
      <trkpt lat="19.1039" lon="99.00049">
        <time>2019-09-06T06:07:22Z</time>
      </trkpt>
      <trkpt lat="19.10412" lon="99.00055">
        <time>2019-09-06T06:07:23Z</time>
      </trkpt>
      <trkpt lat="19.10435" lon="99.00061">
        <time>2019-09-06T06:07:24Z</time>
      </trkpt>
      <trkpt lat="19.10457" lon="99.00065">
        <time>2019-09-06T06:07:25Z</time>
      </trkpt>
      <trkpt lat="19.10479" lon="99.00069">
        <time>2019-09-06T06:07:26Z</time>
      </trkpt>
      <trkpt lat="19.10502" lon="99.00075">
        <time>2019-09-06T06:07:27Z</time>
      </trkpt>
      <trkpt lat="19.10523" lon="99.00082">
        <time>2019-09-06T06:07:28Z</time>
      </trkpt>
      <trkpt lat="19.10543" lon="99.00085">
        <time>2019-09-06T06:07:29Z</time>
      </trkpt>
      <trkpt lat="19.10563" lon="99.0009">
        <time>2019-09-06T06:07:30Z</time>
      </trkpt>
      <trkpt lat="19.10584" lon="99.00094">
        <time>2019-09-06T06:07:31Z</time>
      </trkpt>
      <trkpt lat="19.10604" lon="99.00094">
        <time>2019-09-06T06:07:32Z</time>
      </trkpt>
      <trkpt lat="19.10627" lon="99.00091">
        <time>2019-09-06T06:07:33Z</time>
      </trkpt>
      <trkpt lat="19.10649" lon="99.00085">
        <time>2019-09-06T06:07:34Z</time>
      </trkpt>
      <trkpt lat="19.10671" lon="99.00077">
        <time>2019-09-06T06:07:35Z</time>
      </trkpt>
      <trkpt lat="19.10698" lon="99.00071">
        <time>2019-09-06T06:07:36Z</time>
      </trkpt>
      <trkpt lat="19.10724" lon="99.00066">
        <time>2019-09-06T06:07:37Z</time>
      </trkpt>
      <trkpt lat="19.1075" lon="99.0006">
        <time>2019-09-06T06:07:38Z</time>
      </trkpt>
      <trkpt lat="19.10772" lon="99.00054">
        <time>2019-09-06T06:07:39Z</time>
      </trkpt>
      <trkpt lat="19.10795" lon="99.00049">
        <time>2019-09-06T06:07:40Z</time>
      </trkpt>
      <trkpt lat="19.10817" lon="99.00044">
        <time>2019-09-06T06:07:41Z</time>
      </trkpt>
      <trkpt lat="19.10841" lon="99.00039">
        <time>2019-09-06T06:07:42Z</time>
      </trkpt>
      <trkpt lat="19.10866" lon="99.00037">
        <time>2019-09-06T06:07:43Z</time>
      </trkpt>
      <trkpt lat="19.10888" lon="99.00036">
        <time>2019-09-06T06:07:44Z</time>
      </trkpt>
      <trkpt lat="19.10911" lon="99.00037">
        <time>2019-09-06T06:07:45Z</time>
      </trkpt>
      <trkpt lat="19.10937" lon="99.00041">
        <time>2019-09-06T06:07:46Z</time>
      </trkpt>
      <trkpt lat="19.10962" lon="99.00044">
        <time>2019-09-06T06:07:47Z</time>
      </trkpt>
      <trkpt lat="19.10987" lon="99.00045">
        <time>2019-09-06T06:07:48Z</time>
      </trkpt>
      <trkpt lat="19.11009" lon="99.00046">
        <time>2019-09-06T06:07:49Z</time>
      </trkpt>
      <trkpt lat="19.11034" lon="99.00048">
        <time>2019-09-06T06:07:50Z</time>
      </trkpt>
      <trkpt lat="19.11059" lon="99.00049">
        <time>2019-09-06T06:07:51Z</time>
      </trkpt>
      <trkpt lat="19.11085" lon="99.00049">
        <time>2019-09-06T06:07:52Z</time>
      </trkpt>
      <trkpt lat="19.11108" lon="99.00051">
        <time>2019-09-06T06:07:53Z</time>
      </trkpt>
      <trkpt lat="19.11132" lon="99.00053">
        <time>2019-09-06T06:07:54Z</time>
      </trkpt>
      <trkpt lat="19.11156" lon="99.00053">
        <time>2019-09-06T06:07:55Z</time>
      </trkpt>
      <trkpt lat="19.1118" lon="99.00055">
        <time>2019-09-06T06:07:56Z</time>
      </trkpt>
      <trkpt lat="19.11205" lon="99.00056">
        <time>2019-09-06T06:07:57Z</time>
      </trkpt>
      <trkpt lat="19.11229" lon="99.00058">
        <time>2019-09-06T06:07:58Z</time>
      </trkpt>
      <trkpt lat="19.11253" lon="99.0006">
        <time>2019-09-06T06:07:59Z</time>
      </trkpt>
      <trkpt lat="19.11276" lon="99.00062">
        <time>2019-09-06T06:08:00Z</time>
      </trkpt>
      <trkpt lat="19.11298" lon="99.00062">
        <time>2019-09-06T06:08:01Z</time>
      </trkpt>
      <trkpt lat="19.11319" lon="99.00063">
        <time>2019-09-06T06:08:02Z</time>
      </trkpt>
      <trkpt lat="19.1134" lon="99.00066">
        <time>2019-09-06T06:08:03Z</time>
      </trkpt>
      <trkpt lat="19.1136" lon="99.00069">
        <time>2019-09-06T06:08:04Z</time>
      </trkpt>
      <trkpt lat="19.11379" lon="99.00073">
        <time>2019-09-06T06:08:05Z</time>
      </trkpt>
      <trkpt lat="19.11395" lon="99.00083">
        <time>2019-09-06T06:08:06Z</time>
      </trkpt>
      <trkpt lat="19.11411" lon="99.00096">
        <time>2019-09-06T06:08:07Z</time>
      </trkpt>
      <trkpt lat="19.11425" lon="99.00108">
        <time>2019-09-06T06:08:08Z</time>
      </trkpt>
      <trkpt lat="19.1144" lon="99.00122">
        <time>2019-09-06T06:08:09Z</time>
      </trkpt>
      <trkpt lat="19.11454" lon="99.00139">
        <time>2019-09-06T06:08:10Z</time>
      </trkpt>
      <trkpt lat="19.11467" lon="99.00155">
        <time>2019-09-06T06:08:11Z</time>
      </trkpt>
      <trkpt lat="19.11479" lon="99.00172">
        <time>2019-09-06T06:08:12Z</time>
      </trkpt>
      <trkpt lat="19.11488" lon="99.00194">
        <time>2019-09-06T06:08:13Z</time>
      </trkpt>
      <trkpt lat="19.11498" lon="99.00214">
        <time>2019-09-06T06:08:14Z</time>
      </trkpt>
      <trkpt lat="19.11506" lon="99.00236">
        <time>2019-09-06T06:08:15Z</time>
      </trkpt>
      <trkpt lat="19.11512" lon="99.00261">
        <time>2019-09-06T06:08:16Z</time>
      </trkpt>
      <trkpt lat="19.11515" lon="99.00291">
        <time>2019-09-06T06:08:17Z</time>
      </trkpt>
      <trkpt lat="19.1152" lon="99.00318">
        <time>2019-09-06T06:08:18Z</time>
      </trkpt>
      <trkpt lat="19.11524" lon="99.00344">
        <time>2019-09-06T06:08:19Z</time>
      </trkpt>
      <trkpt lat="19.11531" lon="99.00369">
        <time>2019-09-06T06:08:20Z</time>
      </trkpt>
      <trkpt lat="19.11538" lon="99.00394">
        <time>2019-09-06T06:08:21Z</time>
      </trkpt>
      <trkpt lat="19.11547" lon="99.00418">
        <time>2019-09-06T06:08:22Z</time>
      </trkpt>
      <trkpt lat="19.11556" lon="99.0044">
        <time>2019-09-06T06:08:23Z</time>
      </trkpt>
      <trkpt lat="19.11568" lon="99.00461">
        <time>2019-09-06T06:08:24Z</time>
      </trkpt>
      <trkpt lat="19.11578" lon="99.00482">
        <time>2019-09-06T06:08:25Z</time>
      </trkpt>
      <trkpt lat="19.11591" lon="99.00502">
        <time>2019-09-06T06:08:26Z</time>
      </trkpt>
      <trkpt lat="19.11604" lon="99.00522">
        <time>2019-09-06T06:08:27Z</time>
      </trkpt>
      <trkpt lat="19.11616" lon="99.00542">
        <time>2019-09-06T06:08:28Z</time>
      </trkpt>
      <trkpt lat="19.11628" lon="99.00561">
        <time>2019-09-06T06:08:29Z</time>
      </trkpt>
      <trkpt lat="19.11639" lon="99.0058">
        <time>2019-09-06T06:08:30Z</time>
      </trkpt>
      <trkpt lat="19.11649" lon="99.006">
        <time>2019-09-06T06:08:31Z</time>
      </trkpt>
      <trkpt lat="19.1166" lon="99.00619">
        <time>2019-09-06T06:08:32Z</time>
      </trkpt>
      <trkpt lat="19.11671" lon="99.00637">
        <time>2019-09-06T06:08:33Z</time>
      </trkpt>
      <trkpt lat="19.1167" lon="99.00659">
        <time>2019-09-06T06:08:34Z</time>
      </trkpt>
      <trkpt lat="19.11672" lon="99.0068">
        <time>2019-09-06T06:08:35Z</time>
      </trkpt>
      <trkpt lat="19.11673" lon="99.00699">
        <time>2019-09-06T06:08:36Z</time>
      </trkpt>
      <trkpt lat="19.1167" lon="99.00723">
        <time>2019-09-06T06:08:37Z</time>
      </trkpt>
      <trkpt lat="19.11667" lon="99.00744">
        <time>2019-09-06T06:08:38Z</time>
      </trkpt>
      <trkpt lat="19.11666" lon="99.00762">
        <time>2019-09-06T06:08:39Z</time>
      </trkpt>
      <trkpt lat="19.11664" lon="99.00782">
        <time>2019-09-06T06:08:40Z</time>
      </trkpt>
      <trkpt lat="19.1166" lon="99.00801">
        <time>2019-09-06T06:08:41Z</time>
      </trkpt>
      <trkpt lat="19.11657" lon="99.0082">
        <time>2019-09-06T06:08:42Z</time>
      </trkpt>
      <trkpt lat="19.11654" lon="99.0084">
        <time>2019-09-06T06:08:43Z</time>
      </trkpt>
      <trkpt lat="19.1165" lon="99.0086">
        <time>2019-09-06T06:08:44Z</time>
      </trkpt>
      <trkpt lat="19.11646" lon="99.0088">
        <time>2019-09-06T06:08:45Z</time>
      </trkpt>
      <trkpt lat="19.11645" lon="99.00902">
        <time>2019-09-06T06:08:46Z</time>
      </trkpt>
      <trkpt lat="19.11643" lon="99.00922">
        <time>2019-09-06T06:08:47Z</time>
      </trkpt>
      <trkpt lat="19.11641" lon="99.00943">
        <time>2019-09-06T06:08:48Z</time>
      </trkpt>
      <trkpt lat="19.11639" lon="99.00962">
        <time>2019-09-06T06:08:49Z</time>
      </trkpt>
      <trkpt lat="19.11635" lon="99.00977">
        <time>2019-09-06T06:08:50Z</time>
      </trkpt>
      <trkpt lat="19.1163" lon="99.00992">
        <time>2019-09-06T06:08:51Z</time>
      </trkpt>
      <trkpt lat="19.11623" lon="99.01011">
        <time>2019-09-06T06:08:52Z</time>
      </trkpt>
      <trkpt lat="19.11615" lon="99.0103">
        <time>2019-09-06T06:08:53Z</time>
      </trkpt>
      <trkpt lat="19.11605" lon="99.01047">
        <time>2019-09-06T06:08:54Z</time>
      </trkpt>
      <trkpt lat="19.1159" lon="99.01066">
        <time>2019-09-06T06:08:55Z</time>
      </trkpt>
      <trkpt lat="19.11576" lon="99.01079">
        <time>2019-09-06T06:08:56Z</time>
      </trkpt>
      <trkpt lat="19.11563" lon="99.011">
        <time>2019-09-06T06:08:57Z</time>
      </trkpt>
      <trkpt lat="19.11547" lon="99.0112">
        <time>2019-09-06T06:08:58Z</time>
      </trkpt>
      <trkpt lat="19.11531" lon="99.0114">
        <time>2019-09-06T06:08:59Z</time>
      </trkpt>
      <trkpt lat="19.11515" lon="99.01157">
        <time>2019-09-06T06:09:00Z</time>
      </trkpt>
      <trkpt lat="19.115" lon="99.01175">
        <time>2019-09-06T06:09:01Z</time>
      </trkpt>
      <trkpt lat="19.11484" lon="99.0119">
        <time>2019-09-06T06:09:02Z</time>
      </trkpt>
      <trkpt lat="19.11468" lon="99.01206">
        <time>2019-09-06T06:09:03Z</time>
      </trkpt>
      <trkpt lat="19.11455" lon="99.01222">
        <time>2019-09-06T06:09:04Z</time>
      </trkpt>
      <trkpt lat="19.11445" lon="99.01238">
        <time>2019-09-06T06:09:05Z</time>
      </trkpt>
      <trkpt lat="19.11435" lon="99.01255">
        <time>2019-09-06T06:09:06Z</time>
      </trkpt>
      <trkpt lat="19.11425" lon="99.01272">
        <time>2019-09-06T06:09:07Z</time>
      </trkpt>
      <trkpt lat="19.11412" lon="99.0129">
        <time>2019-09-06T06:09:08Z</time>
      </trkpt>
      <trkpt lat="19.114" lon="99.01309">
        <time>2019-09-06T06:09:09Z</time>
      </trkpt>
      <trkpt lat="19.11388" lon="99.01325">
        <time>2019-09-06T06:09:10Z</time>
      </trkpt>
      <trkpt lat="19.11381" lon="99.01341">
        <time>2019-09-06T06:09:11Z</time>
      </trkpt>
      <trkpt lat="19.11371" lon="99.01356">
        <time>2019-09-06T06:09:12Z</time>
      </trkpt>
      <trkpt lat="19.11361" lon="99.01371">
        <time>2019-09-06T06:09:13Z</time>
      </trkpt>
      <trkpt lat="19.11352" lon="99.01386">
        <time>2019-09-06T06:09:14Z</time>
      </trkpt>
      <trkpt lat="19.11342" lon="99.01401">
        <time>2019-09-06T06:09:15Z</time>
      </trkpt>
      <trkpt lat="19.11332" lon="99.01417">
        <time>2019-09-06T06:09:16Z</time>
      </trkpt>
      <trkpt lat="19.11324" lon="99.01434">
        <time>2019-09-06T06:09:17Z</time>
      </trkpt>
      <trkpt lat="19.11316" lon="99.01449">
        <time>2019-09-06T06:09:18Z</time>
      </trkpt>
      <trkpt lat="19.11306" lon="99.01466">
        <time>2019-09-06T06:09:19Z</time>
      </trkpt>
      <trkpt lat="19.11298" lon="99.01482">
        <time>2019-09-06T06:09:20Z</time>
      </trkpt>
      <trkpt lat="19.11289" lon="99.01499">
        <time>2019-09-06T06:09:21Z</time>
      </trkpt>
      <trkpt lat="19.11282" lon="99.01516">
        <time>2019-09-06T06:09:22Z</time>
      </trkpt>
      <trkpt lat="19.11274" lon="99.01533">
        <time>2019-09-06T06:09:23Z</time>
      </trkpt>
      <trkpt lat="19.11269" lon="99.0155">
        <time>2019-09-06T06:09:24Z</time>
      </trkpt>
      <trkpt lat="19.11266" lon="99.01568">
        <time>2019-09-06T06:09:25Z</time>
      </trkpt>
      <trkpt lat="19.11262" lon="99.01586">
        <time>2019-09-06T06:09:26Z</time>
      </trkpt>
      <trkpt lat="19.11259" lon="99.01604">
        <time>2019-09-06T06:09:27Z</time>
      </trkpt>
      <trkpt lat="19.11256" lon="99.01622">
        <time>2019-09-06T06:09:28Z</time>
      </trkpt>
      <trkpt lat="19.11253" lon="99.0164">
        <time>2019-09-06T06:09:29Z</time>
      </trkpt>
      <trkpt lat="19.11249" lon="99.01659">
        <time>2019-09-06T06:09:30Z</time>
      </trkpt>
      <trkpt lat="19.11246" lon="99.01677">
        <time>2019-09-06T06:09:31Z</time>
      </trkpt>
      <trkpt lat="19.11243" lon="99.01696">
        <time>2019-09-06T06:09:32Z</time>
      </trkpt>
      <trkpt lat="19.11241" lon="99.01714">
        <time>2019-09-06T06:09:33Z</time>
      </trkpt>
      <trkpt lat="19.11239" lon="99.01734">
        <time>2019-09-06T06:09:34Z</time>
      </trkpt>
      <trkpt lat="19.11236" lon="99.01752">
        <time>2019-09-06T06:09:35Z</time>
      </trkpt>
      <trkpt lat="19.11234" lon="99.01771">
        <time>2019-09-06T06:09:36Z</time>
      </trkpt>
      <trkpt lat="19.11232" lon="99.01788">
        <time>2019-09-06T06:09:37Z</time>
      </trkpt>
      <trkpt lat="19.1123" lon="99.01809">
        <time>2019-09-06T06:09:38Z</time>
      </trkpt>
      <trkpt lat="19.11227" lon="99.01831">
        <time>2019-09-06T06:09:39Z</time>
      </trkpt>
      <trkpt lat="19.11223" lon="99.01855">
        <time>2019-09-06T06:09:40Z</time>
      </trkpt>
      <trkpt lat="19.1122" lon="99.01879">
        <time>2019-09-06T06:09:41Z</time>
      </trkpt>
      <trkpt lat="19.11219" lon="99.01904">
        <time>2019-09-06T06:09:42Z</time>
      </trkpt>
      <trkpt lat="19.11216" lon="99.01929">
        <time>2019-09-06T06:09:43Z</time>
      </trkpt>
      <trkpt lat="19.11212" lon="99.01956">
        <time>2019-09-06T06:09:44Z</time>
      </trkpt>
      <trkpt lat="19.11211" lon="99.01979">
        <time>2019-09-06T06:09:45Z</time>
      </trkpt>
      <trkpt lat="19.11207" lon="99.02004">
        <time>2019-09-06T06:09:46Z</time>
      </trkpt>
      <trkpt lat="19.11204" lon="99.02026">
        <time>2019-09-06T06:09:47Z</time>
      </trkpt>
      <trkpt lat="19.11201" lon="99.02051">
        <time>2019-09-06T06:09:48Z</time>
      </trkpt>
      <trkpt lat="19.11201" lon="99.02076">
        <time>2019-09-06T06:09:49Z</time>
      </trkpt>
      <trkpt lat="19.11198" lon="99.02099">
        <time>2019-09-06T06:09:50Z</time>
      </trkpt>
      <trkpt lat="19.11192" lon="99.02125">
        <time>2019-09-06T06:09:51Z</time>
      </trkpt>
      <trkpt lat="19.11187" lon="99.02149">
        <time>2019-09-06T06:09:52Z</time>
      </trkpt>
      <trkpt lat="19.11181" lon="99.02174">
        <time>2019-09-06T06:09:53Z</time>
      </trkpt>
      <trkpt lat="19.11175" lon="99.02199">
        <time>2019-09-06T06:09:54Z</time>
      </trkpt>
      <trkpt lat="19.11171" lon="99.0222">
        <time>2019-09-06T06:09:55Z</time>
      </trkpt>
      <trkpt lat="19.11167" lon="99.02242">
        <time>2019-09-06T06:09:56Z</time>
      </trkpt>
      <trkpt lat="19.11161" lon="99.02265">
        <time>2019-09-06T06:09:57Z</time>
      </trkpt>
      <trkpt lat="19.11156" lon="99.0229">
        <time>2019-09-06T06:09:58Z</time>
      </trkpt>
      <trkpt lat="19.11149" lon="99.02313">
        <time>2019-09-06T06:09:59Z</time>
      </trkpt>
      <trkpt lat="19.11143" lon="99.02335">
        <time>2019-09-06T06:10:00Z</time>
      </trkpt>
      <trkpt lat="19.11139" lon="99.02358">
        <time>2019-09-06T06:10:01Z</time>
      </trkpt>
      <trkpt lat="19.11134" lon="99.02379">
        <time>2019-09-06T06:10:02Z</time>
      </trkpt>
      <trkpt lat="19.11127" lon="99.02403">
        <time>2019-09-06T06:10:03Z</time>
      </trkpt>
      <trkpt lat="19.11121" lon="99.02427">
        <time>2019-09-06T06:10:04Z</time>
      </trkpt>
      <trkpt lat="19.11115" lon="99.0245">
        <time>2019-09-06T06:10:05Z</time>
      </trkpt>
      <trkpt lat="19.1111" lon="99.02475">
        <time>2019-09-06T06:10:06Z</time>
      </trkpt>
      <trkpt lat="19.11105" lon="99.025">
        <time>2019-09-06T06:10:07Z</time>
      </trkpt>
      <trkpt lat="19.11101" lon="99.02524">
        <time>2019-09-06T06:10:08Z</time>
      </trkpt>
      <trkpt lat="19.11094" lon="99.02546">
        <time>2019-09-06T06:10:09Z</time>
      </trkpt>
      <trkpt lat="19.11087" lon="99.02569">
        <time>2019-09-06T06:10:10Z</time>
      </trkpt>
      <trkpt lat="19.11081" lon="99.02592">
        <time>2019-09-06T06:10:11Z</time>
      </trkpt>
      <trkpt lat="19.11074" lon="99.02614">
        <time>2019-09-06T06:10:12Z</time>
      </trkpt>
      <trkpt lat="19.11067" lon="99.02638">
        <time>2019-09-06T06:10:13Z</time>
      </trkpt>
      <trkpt lat="19.1106" lon="99.0266">
        <time>2019-09-06T06:10:14Z</time>
      </trkpt>
      <trkpt lat="19.11057" lon="99.02684">
        <time>2019-09-06T06:10:15Z</time>
      </trkpt>
      <trkpt lat="19.11048" lon="99.02707">
        <time>2019-09-06T06:10:16Z</time>
      </trkpt>
      <trkpt lat="19.11041" lon="99.02729">
        <time>2019-09-06T06:10:17Z</time>
      </trkpt>
      <trkpt lat="19.11033" lon="99.02752">
        <time>2019-09-06T06:10:18Z</time>
      </trkpt>
      <trkpt lat="19.11026" lon="99.02776">
        <time>2019-09-06T06:10:19Z</time>
      </trkpt>
      <trkpt lat="19.11018" lon="99.02799">
        <time>2019-09-06T06:10:20Z</time>
      </trkpt>
      <trkpt lat="19.11011" lon="99.02821">
        <time>2019-09-06T06:10:21Z</time>
      </trkpt>
      <trkpt lat="19.11003" lon="99.02844">
        <time>2019-09-06T06:10:22Z</time>
      </trkpt>
      <trkpt lat="19.10994" lon="99.02866">
        <time>2019-09-06T06:10:23Z</time>
      </trkpt>
      <trkpt lat="19.10986" lon="99.02888">
        <time>2019-09-06T06:10:24Z</time>
      </trkpt>
      <trkpt lat="19.10977" lon="99.0291">
        <time>2019-09-06T06:10:25Z</time>
      </trkpt>
      <trkpt lat="19.10967" lon="99.02933">
        <time>2019-09-06T06:10:26Z</time>
      </trkpt>
      <trkpt lat="19.10959" lon="99.02956">
        <time>2019-09-06T06:10:27Z</time>
      </trkpt>
      <trkpt lat="19.10951" lon="99.02978">
        <time>2019-09-06T06:10:28Z</time>
      </trkpt>
      <trkpt lat="19.10942" lon="99.03003">
        <time>2019-09-06T06:10:29Z</time>
      </trkpt>
      <trkpt lat="19.10933" lon="99.03026">
        <time>2019-09-06T06:10:30Z</time>
      </trkpt>
      <trkpt lat="19.10925" lon="99.0305">
        <time>2019-09-06T06:10:31Z</time>
      </trkpt>
      <trkpt lat="19.10917" lon="99.03075">
        <time>2019-09-06T06:10:32Z</time>
      </trkpt>
      <trkpt lat="19.10908" lon="99.03099">
        <time>2019-09-06T06:10:33Z</time>
      </trkpt>
      <trkpt lat="19.10899" lon="99.03123">
        <time>2019-09-06T06:10:34Z</time>
      </trkpt>
      <trkpt lat="19.1089" lon="99.03147">
        <time>2019-09-06T06:10:35Z</time>
      </trkpt>
      <trkpt lat="19.10881" lon="99.03171">
        <time>2019-09-06T06:10:36Z</time>
      </trkpt>
      <trkpt lat="19.10872" lon="99.03197">
        <time>2019-09-06T06:10:37Z</time>
      </trkpt>
      <trkpt lat="19.10864" lon="99.03221">
        <time>2019-09-06T06:10:38Z</time>
      </trkpt>
      <trkpt lat="19.10855" lon="99.03246">
        <time>2019-09-06T06:10:39Z</time>
      </trkpt>
      <trkpt lat="19.10846" lon="99.0327">
        <time>2019-09-06T06:10:40Z</time>
      </trkpt>
      <trkpt lat="19.10836" lon="99.03294">
        <time>2019-09-06T06:10:41Z</time>
      </trkpt>
      <trkpt lat="19.10826" lon="99.03318">
        <time>2019-09-06T06:10:42Z</time>
      </trkpt>
      <trkpt lat="19.10817" lon="99.03343">
        <time>2019-09-06T06:10:43Z</time>
      </trkpt>
      <trkpt lat="19.10807" lon="99.03366">
        <time>2019-09-06T06:10:44Z</time>
      </trkpt>
      <trkpt lat="19.10799" lon="99.0339">
        <time>2019-09-06T06:10:45Z</time>
      </trkpt>
      <trkpt lat="19.10791" lon="99.03413">
        <time>2019-09-06T06:10:46Z</time>
      </trkpt>
      <trkpt lat="19.10784" lon="99.03437">
        <time>2019-09-06T06:10:47Z</time>
      </trkpt>
      <trkpt lat="19.10778" lon="99.03461">
        <time>2019-09-06T06:10:48Z</time>
      </trkpt>
      <trkpt lat="19.10773" lon="99.03486">
        <time>2019-09-06T06:10:49Z</time>
      </trkpt>
      <trkpt lat="19.10769" lon="99.0351">
        <time>2019-09-06T06:10:50Z</time>
      </trkpt>
      <trkpt lat="19.10766" lon="99.03536">
        <time>2019-09-06T06:10:51Z</time>
      </trkpt>
      <trkpt lat="19.10763" lon="99.03563">
        <time>2019-09-06T06:10:52Z</time>
      </trkpt>
      <trkpt lat="19.10761" lon="99.03589">
        <time>2019-09-06T06:10:53Z</time>
      </trkpt>
      <trkpt lat="19.1076" lon="99.03615">
        <time>2019-09-06T06:10:54Z</time>
      </trkpt>
      <trkpt lat="19.10758" lon="99.0364">
        <time>2019-09-06T06:10:55Z</time>
      </trkpt>
      <trkpt lat="19.10757" lon="99.03667">
        <time>2019-09-06T06:10:56Z</time>
      </trkpt>
      <trkpt lat="19.10756" lon="99.03693">
        <time>2019-09-06T06:10:57Z</time>
      </trkpt>
      <trkpt lat="19.10755" lon="99.03719">
        <time>2019-09-06T06:10:58Z</time>
      </trkpt>
      <trkpt lat="19.10754" lon="99.03745">
        <time>2019-09-06T06:10:59Z</time>
      </trkpt>
      <trkpt lat="19.10752" lon="99.03772">
        <time>2019-09-06T06:11:00Z</time>
      </trkpt>
      <trkpt lat="19.10751" lon="99.03796">
        <time>2019-09-06T06:11:01Z</time>
      </trkpt>
      <trkpt lat="19.10751" lon="99.03821">
        <time>2019-09-06T06:11:02Z</time>
      </trkpt>
      <trkpt lat="19.10749" lon="99.03849">
        <time>2019-09-06T06:11:03Z</time>
      </trkpt>
      <trkpt lat="19.10747" lon="99.03874">
        <time>2019-09-06T06:11:04Z</time>
      </trkpt>
      <trkpt lat="19.10747" lon="99.03899">
        <time>2019-09-06T06:11:05Z</time>
      </trkpt>
      <trkpt lat="19.10745" lon="99.03926">
        <time>2019-09-06T06:11:06Z</time>
      </trkpt>
      <trkpt lat="19.10744" lon="99.03952">
        <time>2019-09-06T06:11:07Z</time>
      </trkpt>
      <trkpt lat="19.10744" lon="99.03979">
        <time>2019-09-06T06:11:08Z</time>
      </trkpt>
      <trkpt lat="19.10744" lon="99.04005">
        <time>2019-09-06T06:11:09Z</time>
      </trkpt>
      <trkpt lat="19.10742" lon="99.04032">
        <time>2019-09-06T06:11:10Z</time>
      </trkpt>
      <trkpt lat="19.1074" lon="99.0406">
        <time>2019-09-06T06:11:11Z</time>
      </trkpt>
      <trkpt lat="19.10738" lon="99.04086">
        <time>2019-09-06T06:11:12Z</time>
      </trkpt>
      <trkpt lat="19.10738" lon="99.04112">
        <time>2019-09-06T06:11:13Z</time>
      </trkpt>
      <trkpt lat="19.10738" lon="99.0414">
        <time>2019-09-06T06:11:14Z</time>
      </trkpt>
      <trkpt lat="19.10738" lon="99.04164">
        <time>2019-09-06T06:11:15Z</time>
      </trkpt>
      <trkpt lat="19.10736" lon="99.0419">
        <time>2019-09-06T06:11:16Z</time>
      </trkpt>
      <trkpt lat="19.10731" lon="99.04217">
        <time>2019-09-06T06:11:17Z</time>
      </trkpt>
      <trkpt lat="19.10729" lon="99.04243">
        <time>2019-09-06T06:11:18Z</time>
      </trkpt>
      <trkpt lat="19.1073" lon="99.04267">
        <time>2019-09-06T06:11:19Z</time>
      </trkpt>
      <trkpt lat="19.10727" lon="99.04295">
        <time>2019-09-06T06:11:20Z</time>
      </trkpt>
      <trkpt lat="19.10728" lon="99.04318">
        <time>2019-09-06T06:11:21Z</time>
      </trkpt>
      <trkpt lat="19.10724" lon="99.04344">
        <time>2019-09-06T06:11:22Z</time>
      </trkpt>
      <trkpt lat="19.10725" lon="99.04367">
        <time>2019-09-06T06:11:23Z</time>
      </trkpt>
      <trkpt lat="19.10726" lon="99.0439">
        <time>2019-09-06T06:11:24Z</time>
      </trkpt>
      <trkpt lat="19.10722" lon="99.04417">
        <time>2019-09-06T06:11:25Z</time>
      </trkpt>
      <trkpt lat="19.10718" lon="99.04443">
        <time>2019-09-06T06:11:26Z</time>
      </trkpt>
      <trkpt lat="19.10712" lon="99.04469">
        <time>2019-09-06T06:11:27Z</time>
      </trkpt>
      <trkpt lat="19.10707" lon="99.04492">
        <time>2019-09-06T06:11:28Z</time>
      </trkpt>
      <trkpt lat="19.10699" lon="99.04517">
        <time>2019-09-06T06:11:29Z</time>
      </trkpt>
      <trkpt lat="19.1069" lon="99.04542">
        <time>2019-09-06T06:11:30Z</time>
      </trkpt>
      <trkpt lat="19.10682" lon="99.04566">
        <time>2019-09-06T06:11:31Z</time>
      </trkpt>
      <trkpt lat="19.10673" lon="99.04591">
        <time>2019-09-06T06:11:32Z</time>
      </trkpt>
      <trkpt lat="19.10662" lon="99.04616">
        <time>2019-09-06T06:11:33Z</time>
      </trkpt>
      <trkpt lat="19.10654" lon="99.04639">
        <time>2019-09-06T06:11:34Z</time>
      </trkpt>
      <trkpt lat="19.10645" lon="99.04663">
        <time>2019-09-06T06:11:35Z</time>
      </trkpt>
      <trkpt lat="19.10636" lon="99.04686">
        <time>2019-09-06T06:11:36Z</time>
      </trkpt>
      <trkpt lat="19.10626" lon="99.04709">
        <time>2019-09-06T06:11:37Z</time>
      </trkpt>
      <trkpt lat="19.10617" lon="99.04734">
        <time>2019-09-06T06:11:38Z</time>
      </trkpt>
      <trkpt lat="19.10609" lon="99.04757">
        <time>2019-09-06T06:11:39Z</time>
      </trkpt>
      <trkpt lat="19.106" lon="99.0478">
        <time>2019-09-06T06:11:40Z</time>
      </trkpt>
      <trkpt lat="19.10592" lon="99.04802">
        <time>2019-09-06T06:11:41Z</time>
      </trkpt>
      <trkpt lat="19.10583" lon="99.04826">
        <time>2019-09-06T06:11:42Z</time>
      </trkpt>
      <trkpt lat="19.10572" lon="99.04851">
        <time>2019-09-06T06:11:43Z</time>
      </trkpt>
      <trkpt lat="19.10561" lon="99.04875">
        <time>2019-09-06T06:11:44Z</time>
      </trkpt>
      <trkpt lat="19.10552" lon="99.04901">
        <time>2019-09-06T06:11:45Z</time>
      </trkpt>
      <trkpt lat="19.10542" lon="99.04925">
        <time>2019-09-06T06:11:46Z</time>
      </trkpt>
      <trkpt lat="19.10533" lon="99.04949">
        <time>2019-09-06T06:11:47Z</time>
      </trkpt>
      <trkpt lat="19.10523" lon="99.04972">
        <time>2019-09-06T06:11:48Z</time>
      </trkpt>
      <trkpt lat="19.10513" lon="99.04994">
        <time>2019-09-06T06:11:49Z</time>
      </trkpt>
      <trkpt lat="19.10505" lon="99.05016">
        <time>2019-09-06T06:11:50Z</time>
      </trkpt>
      <trkpt lat="19.10496" lon="99.05039">
        <time>2019-09-06T06:11:51Z</time>
      </trkpt>
      <trkpt lat="19.10486" lon="99.05063">
        <time>2019-09-06T06:11:52Z</time>
      </trkpt>
      <trkpt lat="19.10476" lon="99.05086">
        <time>2019-09-06T06:11:53Z</time>
      </trkpt>
      <trkpt lat="19.10468" lon="99.05108">
        <time>2019-09-06T06:11:54Z</time>
      </trkpt>
      <trkpt lat="19.10458" lon="99.05132">
        <time>2019-09-06T06:11:55Z</time>
      </trkpt>
      <trkpt lat="19.1045" lon="99.05155">
        <time>2019-09-06T06:11:56Z</time>
      </trkpt>
      <trkpt lat="19.10442" lon="99.05174">
        <time>2019-09-06T06:11:57Z</time>
      </trkpt>
      <trkpt lat="19.10434" lon="99.05196">
        <time>2019-09-06T06:11:58Z</time>
      </trkpt>
      <trkpt lat="19.10426" lon="99.05217">
        <time>2019-09-06T06:11:59Z</time>
      </trkpt>
      <trkpt lat="19.10417" lon="99.05238">
        <time>2019-09-06T06:12:00Z</time>
      </trkpt>
      <trkpt lat="19.1041" lon="99.05257">
        <time>2019-09-06T06:12:01Z</time>
      </trkpt>
      <trkpt lat="19.10402" lon="99.05277">
        <time>2019-09-06T06:12:02Z</time>
      </trkpt>
      <trkpt lat="19.10395" lon="99.05296">
        <time>2019-09-06T06:12:03Z</time>
      </trkpt>
      <trkpt lat="19.10388" lon="99.05317">
        <time>2019-09-06T06:12:04Z</time>
      </trkpt>
      <trkpt lat="19.10383" lon="99.05336">
        <time>2019-09-06T06:12:05Z</time>
      </trkpt>
      <trkpt lat="19.10379" lon="99.05355">
        <time>2019-09-06T06:12:06Z</time>
      </trkpt>
      <trkpt lat="19.10375" lon="99.05376">
        <time>2019-09-06T06:12:07Z</time>
      </trkpt>
      <trkpt lat="19.1037" lon="99.05397">
        <time>2019-09-06T06:12:08Z</time>
      </trkpt>
      <trkpt lat="19.10366" lon="99.05422">
        <time>2019-09-06T06:12:09Z</time>
      </trkpt>
      <trkpt lat="19.10362" lon="99.05446">
        <time>2019-09-06T06:12:10Z</time>
      </trkpt>
      <trkpt lat="19.10359" lon="99.05469">
        <time>2019-09-06T06:12:11Z</time>
      </trkpt>
      <trkpt lat="19.10357" lon="99.05496">
        <time>2019-09-06T06:12:12Z</time>
      </trkpt>
      <trkpt lat="19.10354" lon="99.05523">
        <time>2019-09-06T06:12:13Z</time>
      </trkpt>
      <trkpt lat="19.10352" lon="99.05548">
        <time>2019-09-06T06:12:14Z</time>
      </trkpt>
      <trkpt lat="19.10351" lon="99.05571">
        <time>2019-09-06T06:12:15Z</time>
      </trkpt>
      <trkpt lat="19.10348" lon="99.05595">
        <time>2019-09-06T06:12:16Z</time>
      </trkpt>
      <trkpt lat="19.10346" lon="99.05615">
        <time>2019-09-06T06:12:17Z</time>
      </trkpt>
      <trkpt lat="19.10345" lon="99.05635">
        <time>2019-09-06T06:12:18Z</time>
      </trkpt>
      <trkpt lat="19.10346" lon="99.05653">
        <time>2019-09-06T06:12:19Z</time>
      </trkpt>
      <trkpt lat="19.10354" lon="99.05666">
        <time>2019-09-06T06:12:20Z</time>
      </trkpt>
      <trkpt lat="19.10358" lon="99.05682">
        <time>2019-09-06T06:12:21Z</time>
      </trkpt>
      <trkpt lat="19.10363" lon="99.05697">
        <time>2019-09-06T06:12:22Z</time>
      </trkpt>
      <trkpt lat="19.10369" lon="99.05714">
        <time>2019-09-06T06:12:23Z</time>
      </trkpt>
      <trkpt lat="19.10374" lon="99.05732">
        <time>2019-09-06T06:12:24Z</time>
      </trkpt>
      <trkpt lat="19.10382" lon="99.0575">
        <time>2019-09-06T06:12:25Z</time>
      </trkpt>
      <trkpt lat="19.10389" lon="99.05769">
        <time>2019-09-06T06:12:26Z</time>
      </trkpt>
      <trkpt lat="19.10395" lon="99.05793">
        <time>2019-09-06T06:12:27Z</time>
      </trkpt>
      <trkpt lat="19.10399" lon="99.05814">
        <time>2019-09-06T06:12:28Z</time>
      </trkpt>
      <trkpt lat="19.104" lon="99.05838">
        <time>2019-09-06T06:12:29Z</time>
      </trkpt>
      <trkpt lat="19.104" lon="99.05863">
        <time>2019-09-06T06:12:30Z</time>
      </trkpt>
      <trkpt lat="19.10394" lon="99.0589">
        <time>2019-09-06T06:12:31Z</time>
      </trkpt>
      <trkpt lat="19.10393" lon="99.05913">
        <time>2019-09-06T06:12:32Z</time>
      </trkpt>
      <trkpt lat="19.10393" lon="99.05937">
        <time>2019-09-06T06:12:33Z</time>
      </trkpt>
      <trkpt lat="19.1039" lon="99.05961">
        <time>2019-09-06T06:12:34Z</time>
      </trkpt>
      <trkpt lat="19.10388" lon="99.05984">
        <time>2019-09-06T06:12:35Z</time>
      </trkpt>
      <trkpt lat="19.10385" lon="99.06008">
        <time>2019-09-06T06:12:36Z</time>
      </trkpt>
      <trkpt lat="19.1038" lon="99.06032">
        <time>2019-09-06T06:12:37Z</time>
      </trkpt>
      <trkpt lat="19.10376" lon="99.06056">
        <time>2019-09-06T06:12:38Z</time>
      </trkpt>
      <trkpt lat="19.10368" lon="99.06079">
        <time>2019-09-06T06:12:39Z</time>
      </trkpt>
      <trkpt lat="19.1036" lon="99.06101">
        <time>2019-09-06T06:12:40Z</time>
      </trkpt>
      <trkpt lat="19.10354" lon="99.06125">
        <time>2019-09-06T06:12:41Z</time>
      </trkpt>
      <trkpt lat="19.10347" lon="99.06147">
        <time>2019-09-06T06:12:42Z</time>
      </trkpt>
      <trkpt lat="19.10338" lon="99.0617">
        <time>2019-09-06T06:12:43Z</time>
      </trkpt>
      <trkpt lat="19.1033" lon="99.06194">
        <time>2019-09-06T06:12:44Z</time>
      </trkpt>
      <trkpt lat="19.10323" lon="99.06218">
        <time>2019-09-06T06:12:45Z</time>
      </trkpt>
      <trkpt lat="19.10316" lon="99.06239">
        <time>2019-09-06T06:12:46Z</time>
      </trkpt>
      <trkpt lat="19.10309" lon="99.06262">
        <time>2019-09-06T06:12:47Z</time>
      </trkpt>
      <trkpt lat="19.103" lon="99.06283">
        <time>2019-09-06T06:12:48Z</time>
      </trkpt>
      <trkpt lat="19.10293" lon="99.06305">
        <time>2019-09-06T06:12:49Z</time>
      </trkpt>
      <trkpt lat="19.10286" lon="99.06327">
        <time>2019-09-06T06:12:50Z</time>
      </trkpt>
      <trkpt lat="19.1028" lon="99.06349">
        <time>2019-09-06T06:12:51Z</time>
      </trkpt>
      <trkpt lat="19.10273" lon="99.06372">
        <time>2019-09-06T06:12:52Z</time>
      </trkpt>
      <trkpt lat="19.10267" lon="99.06396">
        <time>2019-09-06T06:12:53Z</time>
      </trkpt>
      <trkpt lat="19.10263" lon="99.06421">
        <time>2019-09-06T06:12:54Z</time>
      </trkpt>
      <trkpt lat="19.1026" lon="99.06446">
        <time>2019-09-06T06:12:55Z</time>
      </trkpt>
      <trkpt lat="19.10258" lon="99.06469">
        <time>2019-09-06T06:12:56Z</time>
      </trkpt>
      <trkpt lat="19.10258" lon="99.06494">
        <time>2019-09-06T06:12:57Z</time>
      </trkpt>
      <trkpt lat="19.10258" lon="99.0652">
        <time>2019-09-06T06:12:58Z</time>
      </trkpt>
      <trkpt lat="19.1026" lon="99.06544">
        <time>2019-09-06T06:12:59Z</time>
      </trkpt>
      <trkpt lat="19.10263" lon="99.06568">
        <time>2019-09-06T06:13:00Z</time>
      </trkpt>
      <trkpt lat="19.10266" lon="99.06593">
        <time>2019-09-06T06:13:01Z</time>
      </trkpt>
      <trkpt lat="19.1027" lon="99.06617">
        <time>2019-09-06T06:13:02Z</time>
      </trkpt>
      <trkpt lat="19.10276" lon="99.06641">
        <time>2019-09-06T06:13:03Z</time>
      </trkpt>
      <trkpt lat="19.10283" lon="99.06665">
        <time>2019-09-06T06:13:04Z</time>
      </trkpt>
      <trkpt lat="19.10288" lon="99.06689">
        <time>2019-09-06T06:13:05Z</time>
      </trkpt>
      <trkpt lat="19.10294" lon="99.0671">
        <time>2019-09-06T06:13:06Z</time>
      </trkpt>
      <trkpt lat="19.10299" lon="99.06732">
        <time>2019-09-06T06:13:07Z</time>
      </trkpt>
      <trkpt lat="19.10303" lon="99.06754">
        <time>2019-09-06T06:13:08Z</time>
      </trkpt>
      <trkpt lat="19.10304" lon="99.06776">
        <time>2019-09-06T06:13:09Z</time>
      </trkpt>
      <trkpt lat="19.10305" lon="99.06798">
        <time>2019-09-06T06:13:10Z</time>
      </trkpt>
      <trkpt lat="19.10303" lon="99.06819">
        <time>2019-09-06T06:13:11Z</time>
      </trkpt>
      <trkpt lat="19.10302" lon="99.06841">
        <time>2019-09-06T06:13:12Z</time>
      </trkpt>
      <trkpt lat="19.10294" lon="99.06863">
        <time>2019-09-06T06:13:13Z</time>
      </trkpt>
      <trkpt lat="19.10286" lon="99.06884">
        <time>2019-09-06T06:13:14Z</time>
      </trkpt>
      <trkpt lat="19.10279" lon="99.06904">
        <time>2019-09-06T06:13:15Z</time>
      </trkpt>
      <trkpt lat="19.10272" lon="99.0692">
        <time>2019-09-06T06:13:16Z</time>
      </trkpt>
      <trkpt lat="19.10261" lon="99.06936">
        <time>2019-09-06T06:13:17Z</time>
      </trkpt>
      <trkpt lat="19.10249" lon="99.06952">
        <time>2019-09-06T06:13:18Z</time>
      </trkpt>
      <trkpt lat="19.10233" lon="99.06977">
        <time>2019-09-06T06:13:19Z</time>
      </trkpt>
      <trkpt lat="19.10225" lon="99.06996">
        <time>2019-09-06T06:13:20Z</time>
      </trkpt>
      <trkpt lat="19.10203" lon="99.07011">
        <time>2019-09-06T06:13:21Z</time>
      </trkpt>
      <trkpt lat="19.10176" lon="99.07021">
        <time>2019-09-06T06:13:22Z</time>
      </trkpt>
      <trkpt lat="19.10153" lon="99.07036">
        <time>2019-09-06T06:13:23Z</time>
      </trkpt>
      <trkpt lat="19.10136" lon="99.07052">
        <time>2019-09-06T06:13:24Z</time>
      </trkpt>
      <trkpt lat="19.10118" lon="99.07069">
        <time>2019-09-06T06:13:25Z</time>
      </trkpt>
      <trkpt lat="19.10102" lon="99.07088">
        <time>2019-09-06T06:13:26Z</time>
      </trkpt>
      <trkpt lat="19.10091" lon="99.07108">
        <time>2019-09-06T06:13:27Z</time>
      </trkpt>
      <trkpt lat="19.10076" lon="99.07127">
        <time>2019-09-06T06:13:28Z</time>
      </trkpt>
      <trkpt lat="19.10063" lon="99.07144">
        <time>2019-09-06T06:13:29Z</time>
      </trkpt>
      <trkpt lat="19.10051" lon="99.07164">
        <time>2019-09-06T06:13:30Z</time>
      </trkpt>
      <trkpt lat="19.10038" lon="99.07184">
        <time>2019-09-06T06:13:31Z</time>
      </trkpt>
      <trkpt lat="19.10023" lon="99.07203">
        <time>2019-09-06T06:13:32Z</time>
      </trkpt>
      <trkpt lat="19.10009" lon="99.07225">
        <time>2019-09-06T06:13:33Z</time>
      </trkpt>
      <trkpt lat="19.09996" lon="99.07245">
        <time>2019-09-06T06:13:34Z</time>
      </trkpt>
      <trkpt lat="19.09986" lon="99.07266">
        <time>2019-09-06T06:13:35Z</time>
      </trkpt>
      <trkpt lat="19.09975" lon="99.07286">
        <time>2019-09-06T06:13:36Z</time>
      </trkpt>
      <trkpt lat="19.09966" lon="99.07308">
        <time>2019-09-06T06:13:37Z</time>
      </trkpt>
      <trkpt lat="19.09957" lon="99.07331">
        <time>2019-09-06T06:13:38Z</time>
      </trkpt>
      <trkpt lat="19.09947" lon="99.07352">
        <time>2019-09-06T06:13:39Z</time>
      </trkpt>
      <trkpt lat="19.09947" lon="99.07375">
        <time>2019-09-06T06:13:40Z</time>
      </trkpt>
      <trkpt lat="19.09942" lon="99.07401">
        <time>2019-09-06T06:13:41Z</time>
      </trkpt>
      <trkpt lat="19.0994" lon="99.07425">
        <time>2019-09-06T06:13:42Z</time>
      </trkpt>
      <trkpt lat="19.09937" lon="99.07448">
        <time>2019-09-06T06:13:43Z</time>
      </trkpt>
      <trkpt lat="19.09935" lon="99.07473">
        <time>2019-09-06T06:13:44Z</time>
      </trkpt>
      <trkpt lat="19.09933" lon="99.07499">
        <time>2019-09-06T06:13:45Z</time>
      </trkpt>
      <trkpt lat="19.09936" lon="99.07523">
        <time>2019-09-06T06:13:46Z</time>
      </trkpt>
      <trkpt lat="19.09944" lon="99.07543">
        <time>2019-09-06T06:13:47Z</time>
      </trkpt>
      <trkpt lat="19.09946" lon="99.07568">
        <time>2019-09-06T06:13:48Z</time>
      </trkpt>
      <trkpt lat="19.09953" lon="99.07616">
        <time>2019-09-06T06:13:50Z</time>
      </trkpt>
      <trkpt lat="19.09955" lon="99.0764">
        <time>2019-09-06T06:13:51Z</time>
      </trkpt>
      <trkpt lat="19.09958" lon="99.07666">
        <time>2019-09-06T06:13:52Z</time>
      </trkpt>
      <trkpt lat="19.09965" lon="99.07685">
        <time>2019-09-06T06:13:53Z</time>
      </trkpt>
      <trkpt lat="19.09963" lon="99.0771">
        <time>2019-09-06T06:13:54Z</time>
      </trkpt>
      <trkpt lat="19.09967" lon="99.07733">
        <time>2019-09-06T06:13:55Z</time>
      </trkpt>
      <trkpt lat="19.09973" lon="99.07752">
        <time>2019-09-06T06:13:56Z</time>
      </trkpt>
      <trkpt lat="19.09972" lon="99.07776">
        <time>2019-09-06T06:13:57Z</time>
      </trkpt>
      <trkpt lat="19.09972" lon="99.07801">
        <time>2019-09-06T06:13:58Z</time>
      </trkpt>
      <trkpt lat="19.09973" lon="99.07824">
        <time>2019-09-06T06:13:59Z</time>
      </trkpt>
      <trkpt lat="19.09975" lon="99.07846">
        <time>2019-09-06T06:14:00Z</time>
      </trkpt>
      <trkpt lat="19.09976" lon="99.07869">
        <time>2019-09-06T06:14:01Z</time>
      </trkpt>
      <trkpt lat="19.09978" lon="99.0789">
        <time>2019-09-06T06:14:02Z</time>
      </trkpt>
      <trkpt lat="19.09977" lon="99.07914">
        <time>2019-09-06T06:14:03Z</time>
      </trkpt>
      <trkpt lat="19.09977" lon="99.07936">
        <time>2019-09-06T06:14:04Z</time>
      </trkpt>
      <trkpt lat="19.09976" lon="99.0796">
        <time>2019-09-06T06:14:05Z</time>
      </trkpt>
      <trkpt lat="19.09975" lon="99.07981">
        <time>2019-09-06T06:14:06Z</time>
      </trkpt>
      <trkpt lat="19.09973" lon="99.08004">
        <time>2019-09-06T06:14:07Z</time>
      </trkpt>
      <trkpt lat="19.0997" lon="99.08025">
        <time>2019-09-06T06:14:08Z</time>
      </trkpt>
      <trkpt lat="19.09959" lon="99.08044">
        <time>2019-09-06T06:14:09Z</time>
      </trkpt>
      <trkpt lat="19.09949" lon="99.08062">
        <time>2019-09-06T06:14:10Z</time>
      </trkpt>
      <trkpt lat="19.09939" lon="99.08077">
        <time>2019-09-06T06:14:11Z</time>
      </trkpt>
      <trkpt lat="19.09927" lon="99.08093">
        <time>2019-09-06T06:14:12Z</time>
      </trkpt>
      <trkpt lat="19.09912" lon="99.08106">
        <time>2019-09-06T06:14:13Z</time>
      </trkpt>
      <trkpt lat="19.09903" lon="99.08118">
        <time>2019-09-06T06:14:14Z</time>
      </trkpt>
      <trkpt lat="19.09892" lon="99.08134">
        <time>2019-09-06T06:14:15Z</time>
      </trkpt>
      <trkpt lat="19.09875" lon="99.08148">
        <time>2019-09-06T06:14:16Z</time>
      </trkpt>
      <trkpt lat="19.09855" lon="99.08146">
        <time>2019-09-06T06:14:17Z</time>
      </trkpt>
      <trkpt lat="19.0984" lon="99.08152">
        <time>2019-09-06T06:14:18Z</time>
      </trkpt>
      <trkpt lat="19.09823" lon="99.0816">
        <time>2019-09-06T06:14:19Z</time>
      </trkpt>
      <trkpt lat="19.09808" lon="99.08165">
        <time>2019-09-06T06:14:20Z</time>
      </trkpt>
      <trkpt lat="19.09787" lon="99.08172">
        <time>2019-09-06T06:14:21Z</time>
      </trkpt>
      <trkpt lat="19.09762" lon="99.08171">
        <time>2019-09-06T06:14:22Z</time>
      </trkpt>
      <trkpt lat="19.09744" lon="99.08177">
        <time>2019-09-06T06:14:23Z</time>
      </trkpt>
      <trkpt lat="19.0973" lon="99.0818">
        <time>2019-09-06T06:14:24Z</time>
      </trkpt>
      <trkpt lat="19.09714" lon="99.08184">
        <time>2019-09-06T06:14:25Z</time>
      </trkpt>
      <trkpt lat="19.09703" lon="99.08189">
        <time>2019-09-06T06:14:26Z</time>
      </trkpt>
      <trkpt lat="19.09688" lon="99.08193">
        <time>2019-09-06T06:14:27Z</time>
      </trkpt>
      <trkpt lat="19.09675" lon="99.08197">
        <time>2019-09-06T06:14:28Z</time>
      </trkpt>
      <trkpt lat="19.09661" lon="99.08202">
        <time>2019-09-06T06:14:29Z</time>
      </trkpt>
      <trkpt lat="19.09648" lon="99.08209">
        <time>2019-09-06T06:14:30Z</time>
      </trkpt>
      <trkpt lat="19.09636" lon="99.08217">
        <time>2019-09-06T06:14:31Z</time>
      </trkpt>
      <trkpt lat="19.09622" lon="99.08222">
        <time>2019-09-06T06:14:32Z</time>
      </trkpt>
      <trkpt lat="19.09612" lon="99.08229">
        <time>2019-09-06T06:14:33Z</time>
      </trkpt>
      <trkpt lat="19.09599" lon="99.08237">
        <time>2019-09-06T06:14:34Z</time>
      </trkpt>
      <trkpt lat="19.09586" lon="99.08246">
        <time>2019-09-06T06:14:35Z</time>
      </trkpt>
      <trkpt lat="19.09573" lon="99.08253">
        <time>2019-09-06T06:14:36Z</time>
      </trkpt>
      <trkpt lat="19.0956" lon="99.08263">
        <time>2019-09-06T06:14:37Z</time>
      </trkpt>
      <trkpt lat="19.0955" lon="99.08271">
        <time>2019-09-06T06:14:38Z</time>
      </trkpt>
      <trkpt lat="19.09538" lon="99.08279">
        <time>2019-09-06T06:14:39Z</time>
      </trkpt>
      <trkpt lat="19.09529" lon="99.0829">
        <time>2019-09-06T06:14:40Z</time>
      </trkpt>
      <trkpt lat="19.09518" lon="99.08299">
        <time>2019-09-06T06:14:41Z</time>
      </trkpt>
      <trkpt lat="19.09505" lon="99.08306">
        <time>2019-09-06T06:14:42Z</time>
      </trkpt>
      <trkpt lat="19.09494" lon="99.08316">
        <time>2019-09-06T06:14:43Z</time>
      </trkpt>
      <trkpt lat="19.09482" lon="99.08328">
        <time>2019-09-06T06:14:44Z</time>
      </trkpt>
      <trkpt lat="19.09471" lon="99.08337">
        <time>2019-09-06T06:14:45Z</time>
      </trkpt>
      <trkpt lat="19.09459" lon="99.08349">
        <time>2019-09-06T06:14:46Z</time>
      </trkpt>
      <trkpt lat="19.09443" lon="99.08355">
        <time>2019-09-06T06:14:47Z</time>
      </trkpt>
      <trkpt lat="19.09431" lon="99.08358">
        <time>2019-09-06T06:14:48Z</time>
      </trkpt>
      <trkpt lat="19.09413" lon="99.08367">
        <time>2019-09-06T06:14:49Z</time>
      </trkpt>
      <trkpt lat="19.094" lon="99.08382">
        <time>2019-09-06T06:14:50Z</time>
      </trkpt>
      <trkpt lat="19.09372" lon="99.08389">
        <time>2019-09-06T06:14:51Z</time>
      </trkpt>
      <trkpt lat="19.09355" lon="99.08402">
        <time>2019-09-06T06:14:52Z</time>
      </trkpt>
      <trkpt lat="19.09339" lon="99.0841">
        <time>2019-09-06T06:14:53Z</time>
      </trkpt>
      <trkpt lat="19.09319" lon="99.08421">
        <time>2019-09-06T06:14:54Z</time>
      </trkpt>
      <trkpt lat="19.09297" lon="99.08432">
        <time>2019-09-06T06:14:55Z</time>
      </trkpt>
      <trkpt lat="19.09277" lon="99.08442">
        <time>2019-09-06T06:14:56Z</time>
      </trkpt>
      <trkpt lat="19.09258" lon="99.08451">
        <time>2019-09-06T06:14:57Z</time>
      </trkpt>
      <trkpt lat="19.09238" lon="99.0846">
        <time>2019-09-06T06:14:58Z</time>
      </trkpt>
      <trkpt lat="19.09219" lon="99.0847">
        <time>2019-09-06T06:14:59Z</time>
      </trkpt>
      <trkpt lat="19.09201" lon="99.08481">
        <time>2019-09-06T06:15:00Z</time>
      </trkpt>
      <trkpt lat="19.09189" lon="99.08498">
        <time>2019-09-06T06:15:01Z</time>
      </trkpt>
      <trkpt lat="19.09177" lon="99.08516">
        <time>2019-09-06T06:15:02Z</time>
      </trkpt>
      <trkpt lat="19.09164" lon="99.08532">
        <time>2019-09-06T06:15:03Z</time>
      </trkpt>
      <trkpt lat="19.09154" lon="99.08552">
        <time>2019-09-06T06:15:04Z</time>
      </trkpt>
      <trkpt lat="19.09146" lon="99.08571">
        <time>2019-09-06T06:15:05Z</time>
      </trkpt>
      <trkpt lat="19.09139" lon="99.08592">
        <time>2019-09-06T06:15:06Z</time>
      </trkpt>
      <trkpt lat="19.09133" lon="99.08612">
        <time>2019-09-06T06:15:07Z</time>
      </trkpt>
      <trkpt lat="19.09128" lon="99.08633">
        <time>2019-09-06T06:15:08Z</time>
      </trkpt>
      <trkpt lat="19.09124" lon="99.08655">
        <time>2019-09-06T06:15:09Z</time>
      </trkpt>
      <trkpt lat="19.0912" lon="99.08678">
        <time>2019-09-06T06:15:10Z</time>
      </trkpt>
      <trkpt lat="19.09115" lon="99.087">
        <time>2019-09-06T06:15:11Z</time>
      </trkpt>
      <trkpt lat="19.09111" lon="99.08727">
        <time>2019-09-06T06:15:12Z</time>
      </trkpt>
      <trkpt lat="19.09106" lon="99.08751">
        <time>2019-09-06T06:15:13Z</time>
      </trkpt>
      <trkpt lat="19.09101" lon="99.08776">
        <time>2019-09-06T06:15:14Z</time>
      </trkpt>
      <trkpt lat="19.09096" lon="99.088">
        <time>2019-09-06T06:15:15Z</time>
      </trkpt>
      <trkpt lat="19.09092" lon="99.08825">
        <time>2019-09-06T06:15:16Z</time>
      </trkpt>
      <trkpt lat="19.09087" lon="99.0885">
        <time>2019-09-06T06:15:17Z</time>
      </trkpt>
      <trkpt lat="19.09081" lon="99.08876">
        <time>2019-09-06T06:15:18Z</time>
      </trkpt>
      <trkpt lat="19.09077" lon="99.08898">
        <time>2019-09-06T06:15:19Z</time>
      </trkpt>
      <trkpt lat="19.09071" lon="99.08922">
        <time>2019-09-06T06:15:20Z</time>
      </trkpt>
      <trkpt lat="19.09066" lon="99.08948">
        <time>2019-09-06T06:15:21Z</time>
      </trkpt>
      <trkpt lat="19.09063" lon="99.0897">
        <time>2019-09-06T06:15:22Z</time>
      </trkpt>
      <trkpt lat="19.09058" lon="99.08994">
        <time>2019-09-06T06:15:23Z</time>
      </trkpt>
      <trkpt lat="19.09053" lon="99.09018">
        <time>2019-09-06T06:15:24Z</time>
      </trkpt>
      <trkpt lat="19.09045" lon="99.09041">
        <time>2019-09-06T06:15:25Z</time>
      </trkpt>
      <trkpt lat="19.09037" lon="99.09063">
        <time>2019-09-06T06:15:26Z</time>
      </trkpt>
      <trkpt lat="19.09033" lon="99.09079">
        <time>2019-09-06T06:15:27Z</time>
      </trkpt>
      <trkpt lat="19.0902" lon="99.09102">
        <time>2019-09-06T06:15:28Z</time>
      </trkpt>
      <trkpt lat="19.0901" lon="99.09122">
        <time>2019-09-06T06:15:29Z</time>
      </trkpt>
      <trkpt lat="19.08999" lon="99.09143">
        <time>2019-09-06T06:15:30Z</time>
      </trkpt>
      <trkpt lat="19.08988" lon="99.09164">
        <time>2019-09-06T06:15:31Z</time>
      </trkpt>
      <trkpt lat="19.08979" lon="99.09183">
        <time>2019-09-06T06:15:32Z</time>
      </trkpt>
      <trkpt lat="19.08968" lon="99.09203">
        <time>2019-09-06T06:15:33Z</time>
      </trkpt>
      <trkpt lat="19.08956" lon="99.09225">
        <time>2019-09-06T06:15:34Z</time>
      </trkpt>
      <trkpt lat="19.08945" lon="99.09245">
        <time>2019-09-06T06:15:35Z</time>
      </trkpt>
      <trkpt lat="19.08932" lon="99.09266">
        <time>2019-09-06T06:15:36Z</time>
      </trkpt>
      <trkpt lat="19.0892" lon="99.09287">
        <time>2019-09-06T06:15:37Z</time>
      </trkpt>
      <trkpt lat="19.08908" lon="99.09309">
        <time>2019-09-06T06:15:38Z</time>
      </trkpt>
      <trkpt lat="19.08898" lon="99.09329">
        <time>2019-09-06T06:15:39Z</time>
      </trkpt>
      <trkpt lat="19.08888" lon="99.09349">
        <time>2019-09-06T06:15:40Z</time>
      </trkpt>
      <trkpt lat="19.08877" lon="99.09369">
        <time>2019-09-06T06:15:41Z</time>
      </trkpt>
      <trkpt lat="19.08863" lon="99.09391">
        <time>2019-09-06T06:15:42Z</time>
      </trkpt>
      <trkpt lat="19.08851" lon="99.09412">
        <time>2019-09-06T06:15:43Z</time>
      </trkpt>
      <trkpt lat="19.0884" lon="99.09433">
        <time>2019-09-06T06:15:44Z</time>
      </trkpt>
      <trkpt lat="19.08829" lon="99.09454">
        <time>2019-09-06T06:15:45Z</time>
      </trkpt>
      <trkpt lat="19.08817" lon="99.09475">
        <time>2019-09-06T06:15:46Z</time>
      </trkpt>
      <trkpt lat="19.08804" lon="99.09497">
        <time>2019-09-06T06:15:47Z</time>
      </trkpt>
      <trkpt lat="19.08792" lon="99.0952">
        <time>2019-09-06T06:15:48Z</time>
      </trkpt>
      <trkpt lat="19.0878" lon="99.09541">
        <time>2019-09-06T06:15:49Z</time>
      </trkpt>
      <trkpt lat="19.08769" lon="99.09563">
        <time>2019-09-06T06:15:50Z</time>
      </trkpt>
      <trkpt lat="19.08755" lon="99.09585">
        <time>2019-09-06T06:15:51Z</time>
      </trkpt>
      <trkpt lat="19.08744" lon="99.09606">
        <time>2019-09-06T06:15:52Z</time>
      </trkpt>
      <trkpt lat="19.08729" lon="99.09629">
        <time>2019-09-06T06:15:53Z</time>
      </trkpt>
      <trkpt lat="19.08718" lon="99.09649">
        <time>2019-09-06T06:15:54Z</time>
      </trkpt>
      <trkpt lat="19.08705" lon="99.0967">
        <time>2019-09-06T06:15:55Z</time>
      </trkpt>
      <trkpt lat="19.08691" lon="99.09689">
        <time>2019-09-06T06:15:56Z</time>
      </trkpt>
      <trkpt lat="19.08677" lon="99.0971">
        <time>2019-09-06T06:15:57Z</time>
      </trkpt>
      <trkpt lat="19.08661" lon="99.09728">
        <time>2019-09-06T06:15:58Z</time>
      </trkpt>
      <trkpt lat="19.08645" lon="99.09747">
        <time>2019-09-06T06:15:59Z</time>
      </trkpt>
      <trkpt lat="19.08629" lon="99.09766">
        <time>2019-09-06T06:16:00Z</time>
      </trkpt>
      <trkpt lat="19.08614" lon="99.09786">
        <time>2019-09-06T06:16:01Z</time>
      </trkpt>
      <trkpt lat="19.08598" lon="99.09806">
        <time>2019-09-06T06:16:02Z</time>
      </trkpt>
      <trkpt lat="19.08583" lon="99.09824">
        <time>2019-09-06T06:16:03Z</time>
      </trkpt>
      <trkpt lat="19.08568" lon="99.09843">
        <time>2019-09-06T06:16:04Z</time>
      </trkpt>
      <trkpt lat="19.08552" lon="99.09863">
        <time>2019-09-06T06:16:05Z</time>
      </trkpt>
      <trkpt lat="19.08536" lon="99.09883">
        <time>2019-09-06T06:16:06Z</time>
      </trkpt>
      <trkpt lat="19.08519" lon="99.09901">
        <time>2019-09-06T06:16:07Z</time>
      </trkpt>
      <trkpt lat="19.08503" lon="99.09919">
        <time>2019-09-06T06:16:08Z</time>
      </trkpt>
      <trkpt lat="19.08487" lon="99.09939">
        <time>2019-09-06T06:16:09Z</time>
      </trkpt>
      <trkpt lat="19.08471" lon="99.09958">
        <time>2019-09-06T06:16:10Z</time>
      </trkpt>
      <trkpt lat="19.08454" lon="99.09978">
        <time>2019-09-06T06:16:11Z</time>
      </trkpt>
      <trkpt lat="19.08438" lon="99.09998">
        <time>2019-09-06T06:16:12Z</time>
      </trkpt>
      <trkpt lat="19.08421" lon="99.10018">
        <time>2019-09-06T06:16:13Z</time>
      </trkpt>
      <trkpt lat="19.08405" lon="99.10037">
        <time>2019-09-06T06:16:14Z</time>
      </trkpt>
      <trkpt lat="19.08389" lon="99.10056">
        <time>2019-09-06T06:16:15Z</time>
      </trkpt>
      <trkpt lat="19.08373" lon="99.10076">
        <time>2019-09-06T06:16:16Z</time>
      </trkpt>
      <trkpt lat="19.08356" lon="99.10096">
        <time>2019-09-06T06:16:17Z</time>
      </trkpt>
      <trkpt lat="19.0834" lon="99.10115">
        <time>2019-09-06T06:16:18Z</time>
      </trkpt>
      <trkpt lat="19.08321" lon="99.10135">
        <time>2019-09-06T06:16:19Z</time>
      </trkpt>
      <trkpt lat="19.08303" lon="99.10153">
        <time>2019-09-06T06:16:20Z</time>
      </trkpt>
      <trkpt lat="19.08284" lon="99.10173">
        <time>2019-09-06T06:16:21Z</time>
      </trkpt>
      <trkpt lat="19.08266" lon="99.10191">
        <time>2019-09-06T06:16:22Z</time>
      </trkpt>
      <trkpt lat="19.08248" lon="99.1021">
        <time>2019-09-06T06:16:23Z</time>
      </trkpt>
      <trkpt lat="19.08226" lon="99.10228">
        <time>2019-09-06T06:16:24Z</time>
      </trkpt>
      <trkpt lat="19.08207" lon="99.10246">
        <time>2019-09-06T06:16:25Z</time>
      </trkpt>
      <trkpt lat="19.08187" lon="99.10262">
        <time>2019-09-06T06:16:26Z</time>
      </trkpt>
      <trkpt lat="19.08169" lon="99.1028">
        <time>2019-09-06T06:16:27Z</time>
      </trkpt>
      <trkpt lat="19.08149" lon="99.10297">
        <time>2019-09-06T06:16:28Z</time>
      </trkpt>
      <trkpt lat="19.0813" lon="99.10312">
        <time>2019-09-06T06:16:29Z</time>
      </trkpt>
      <trkpt lat="19.08111" lon="99.10329">
        <time>2019-09-06T06:16:30Z</time>
      </trkpt>
      <trkpt lat="19.08092" lon="99.10346">
        <time>2019-09-06T06:16:31Z</time>
      </trkpt>
      <trkpt lat="19.08073" lon="99.10362">
        <time>2019-09-06T06:16:32Z</time>
      </trkpt>
      <trkpt lat="19.08054" lon="99.1038">
        <time>2019-09-06T06:16:33Z</time>
      </trkpt>
      <trkpt lat="19.08036" lon="99.10395">
        <time>2019-09-06T06:16:34Z</time>
      </trkpt>
      <trkpt lat="19.08017" lon="99.10412">
        <time>2019-09-06T06:16:35Z</time>
      </trkpt>
      <trkpt lat="19.07997" lon="99.10429">
        <time>2019-09-06T06:16:36Z</time>
      </trkpt>
      <trkpt lat="19.07978" lon="99.10444">
        <time>2019-09-06T06:16:37Z</time>
      </trkpt>
      <trkpt lat="19.07958" lon="99.10461">
        <time>2019-09-06T06:16:38Z</time>
      </trkpt>
      <trkpt lat="19.07939" lon="99.10478">
        <time>2019-09-06T06:16:39Z</time>
      </trkpt>
      <trkpt lat="19.0792" lon="99.10495">
        <time>2019-09-06T06:16:40Z</time>
      </trkpt>
      <trkpt lat="19.07902" lon="99.10512">
        <time>2019-09-06T06:16:41Z</time>
      </trkpt>
      <trkpt lat="19.07883" lon="99.10529">
        <time>2019-09-06T06:16:42Z</time>
      </trkpt>
      <trkpt lat="19.07864" lon="99.10545">
        <time>2019-09-06T06:16:43Z</time>
      </trkpt>
      <trkpt lat="19.07845" lon="99.10562">
        <time>2019-09-06T06:16:44Z</time>
      </trkpt>
      <trkpt lat="19.07827" lon="99.10579">
        <time>2019-09-06T06:16:45Z</time>
      </trkpt>
      <trkpt lat="19.07807" lon="99.10595">
        <time>2019-09-06T06:16:46Z</time>
      </trkpt>
      <trkpt lat="19.07789" lon="99.1061">
        <time>2019-09-06T06:16:47Z</time>
      </trkpt>
      <trkpt lat="19.07772" lon="99.10632">
        <time>2019-09-06T06:16:48Z</time>
      </trkpt>
      <trkpt lat="19.07756" lon="99.10653">
        <time>2019-09-06T06:16:49Z</time>
      </trkpt>
      <trkpt lat="19.0774" lon="99.10673">
        <time>2019-09-06T06:16:50Z</time>
      </trkpt>
      <trkpt lat="19.07724" lon="99.10694">
        <time>2019-09-06T06:16:51Z</time>
      </trkpt>
      <trkpt lat="19.0771" lon="99.10717">
        <time>2019-09-06T06:16:52Z</time>
      </trkpt>
      <trkpt lat="19.07696" lon="99.10737">
        <time>2019-09-06T06:16:53Z</time>
      </trkpt>
      <trkpt lat="19.07682" lon="99.10761">
        <time>2019-09-06T06:16:54Z</time>
      </trkpt>
      <trkpt lat="19.07669" lon="99.10781">
        <time>2019-09-06T06:16:55Z</time>
      </trkpt>
      <trkpt lat="19.07655" lon="99.10804">
        <time>2019-09-06T06:16:56Z</time>
      </trkpt>
      <trkpt lat="19.07642" lon="99.10824">
        <time>2019-09-06T06:16:57Z</time>
      </trkpt>
      <trkpt lat="19.07628" lon="99.10846">
        <time>2019-09-06T06:16:58Z</time>
      </trkpt>
      <trkpt lat="19.07618" lon="99.10868">
        <time>2019-09-06T06:16:59Z</time>
      </trkpt>
      <trkpt lat="19.07602" lon="99.10889">
        <time>2019-09-06T06:17:00Z</time>
      </trkpt>
      <trkpt lat="19.07589" lon="99.10911">
        <time>2019-09-06T06:17:01Z</time>
      </trkpt>
      <trkpt lat="19.07578" lon="99.10929">
        <time>2019-09-06T06:17:02Z</time>
      </trkpt>
      <trkpt lat="19.07568" lon="99.1095">
        <time>2019-09-06T06:17:03Z</time>
      </trkpt>
      <trkpt lat="19.07552" lon="99.10973">
        <time>2019-09-06T06:17:04Z</time>
      </trkpt>
      <trkpt lat="19.07541" lon="99.10993">
        <time>2019-09-06T06:17:05Z</time>
      </trkpt>
      <trkpt lat="19.07528" lon="99.11013">
        <time>2019-09-06T06:17:06Z</time>
      </trkpt>
      <trkpt lat="19.07514" lon="99.11034">
        <time>2019-09-06T06:17:07Z</time>
      </trkpt>
      <trkpt lat="19.075" lon="99.11057">
        <time>2019-09-06T06:17:08Z</time>
      </trkpt>
      <trkpt lat="19.07489" lon="99.11079">
        <time>2019-09-06T06:17:09Z</time>
      </trkpt>
      <trkpt lat="19.07479" lon="99.111">
        <time>2019-09-06T06:17:10Z</time>
      </trkpt>
      <trkpt lat="19.07468" lon="99.11118">
        <time>2019-09-06T06:17:11Z</time>
      </trkpt>
      <trkpt lat="19.07459" lon="99.11139">
        <time>2019-09-06T06:17:12Z</time>
      </trkpt>
      <trkpt lat="19.07453" lon="99.11163">
        <time>2019-09-06T06:17:13Z</time>
      </trkpt>
      <trkpt lat="19.0745" lon="99.11186">
        <time>2019-09-06T06:17:14Z</time>
      </trkpt>
      <trkpt lat="19.07447" lon="99.11211">
        <time>2019-09-06T06:17:15Z</time>
      </trkpt>
      <trkpt lat="19.07446" lon="99.11234">
        <time>2019-09-06T06:17:16Z</time>
      </trkpt>
      <trkpt lat="19.07444" lon="99.11258">
        <time>2019-09-06T06:17:17Z</time>
      </trkpt>
      <trkpt lat="19.07441" lon="99.11286">
        <time>2019-09-06T06:17:18Z</time>
      </trkpt>
      <trkpt lat="19.07439" lon="99.11314">
        <time>2019-09-06T06:17:19Z</time>
      </trkpt>
      <trkpt lat="19.07436" lon="99.11342">
        <time>2019-09-06T06:17:20Z</time>
      </trkpt>
      <trkpt lat="19.07433" lon="99.11368">
        <time>2019-09-06T06:17:21Z</time>
      </trkpt>
      <trkpt lat="19.07426" lon="99.11402">
        <time>2019-09-06T06:17:22Z</time>
      </trkpt>
      <trkpt lat="19.07427" lon="99.11425">
        <time>2019-09-06T06:17:23Z</time>
      </trkpt>
      <trkpt lat="19.07431" lon="99.11445">
        <time>2019-09-06T06:17:24Z</time>
      </trkpt>
      <trkpt lat="19.07433" lon="99.11465">
        <time>2019-09-06T06:17:25Z</time>
      </trkpt>
      <trkpt lat="19.07435" lon="99.11484">
        <time>2019-09-06T06:17:26Z</time>
      </trkpt>
      <trkpt lat="19.07434" lon="99.11507">
        <time>2019-09-06T06:17:27Z</time>
      </trkpt>
      <trkpt lat="19.07436" lon="99.11524">
        <time>2019-09-06T06:17:28Z</time>
      </trkpt>
      <trkpt lat="19.07432" lon="99.11542">
        <time>2019-09-06T06:17:29Z</time>
      </trkpt>
      <trkpt lat="19.07433" lon="99.11564">
        <time>2019-09-06T06:17:30Z</time>
      </trkpt>
      <trkpt lat="19.07442" lon="99.11583">
        <time>2019-09-06T06:17:31Z</time>
      </trkpt>
      <trkpt lat="19.07439" lon="99.11607">
        <time>2019-09-06T06:17:32Z</time>
      </trkpt>
      <trkpt lat="19.07445" lon="99.11629">
        <time>2019-09-06T06:17:33Z</time>
      </trkpt>
      <trkpt lat="19.07447" lon="99.1165">
        <time>2019-09-06T06:17:34Z</time>
      </trkpt>
      <trkpt lat="19.07453" lon="99.11674">
        <time>2019-09-06T06:17:35Z</time>
      </trkpt>
      <trkpt lat="19.07457" lon="99.11699">
        <time>2019-09-06T06:17:36Z</time>
      </trkpt>
      <trkpt lat="19.07456" lon="99.1173">
        <time>2019-09-06T06:17:37Z</time>
      </trkpt>
      <trkpt lat="19.07458" lon="99.11751">
        <time>2019-09-06T06:17:38Z</time>
      </trkpt>
      <trkpt lat="19.0746" lon="99.11772">
        <time>2019-09-06T06:17:39Z</time>
      </trkpt>
      <trkpt lat="19.07464" lon="99.11796">
        <time>2019-09-06T06:17:40Z</time>
      </trkpt>
      <trkpt lat="19.07471" lon="99.11819">
        <time>2019-09-06T06:17:41Z</time>
      </trkpt>
      <trkpt lat="19.07472" lon="99.11846">
        <time>2019-09-06T06:17:42Z</time>
      </trkpt>
      <trkpt lat="19.07473" lon="99.1187">
        <time>2019-09-06T06:17:43Z</time>
      </trkpt>
      <trkpt lat="19.07474" lon="99.11895">
        <time>2019-09-06T06:17:44Z</time>
      </trkpt>
      <trkpt lat="19.07474" lon="99.11921">
        <time>2019-09-06T06:17:45Z</time>
      </trkpt>
      <trkpt lat="19.07476" lon="99.11945">
        <time>2019-09-06T06:17:46Z</time>
      </trkpt>
      <trkpt lat="19.07476" lon="99.1197">
        <time>2019-09-06T06:17:47Z</time>
      </trkpt>
      <trkpt lat="19.07477" lon="99.11995">
        <time>2019-09-06T06:17:48Z</time>
      </trkpt>
      <trkpt lat="19.07476" lon="99.12021">
        <time>2019-09-06T06:17:49Z</time>
      </trkpt>
      <trkpt lat="19.07476" lon="99.12048">
        <time>2019-09-06T06:17:50Z</time>
      </trkpt>
      <trkpt lat="19.07476" lon="99.12074">
        <time>2019-09-06T06:17:51Z</time>
      </trkpt>
      <trkpt lat="19.07475" lon="99.121">
        <time>2019-09-06T06:17:52Z</time>
      </trkpt>
      <trkpt lat="19.07476" lon="99.12125">
        <time>2019-09-06T06:17:53Z</time>
      </trkpt>
      <trkpt lat="19.07475" lon="99.1215">
        <time>2019-09-06T06:17:54Z</time>
      </trkpt>
      <trkpt lat="19.07477" lon="99.12174">
        <time>2019-09-06T06:17:55Z</time>
      </trkpt>
      <trkpt lat="19.07475" lon="99.12201">
        <time>2019-09-06T06:17:56Z</time>
      </trkpt>
      <trkpt lat="19.07475" lon="99.12227">
        <time>2019-09-06T06:17:57Z</time>
      </trkpt>
      <trkpt lat="19.07473" lon="99.12251">
        <time>2019-09-06T06:17:58Z</time>
      </trkpt>
      <trkpt lat="19.07472" lon="99.12275">
        <time>2019-09-06T06:17:59Z</time>
      </trkpt>
      <trkpt lat="19.07469" lon="99.12299">
        <time>2019-09-06T06:18:00Z</time>
      </trkpt>
      <trkpt lat="19.07465" lon="99.12324">
        <time>2019-09-06T06:18:01Z</time>
      </trkpt>
      <trkpt lat="19.07461" lon="99.12351">
        <time>2019-09-06T06:18:02Z</time>
      </trkpt>
      <trkpt lat="19.07457" lon="99.12379">
        <time>2019-09-06T06:18:03Z</time>
      </trkpt>
      <trkpt lat="19.07452" lon="99.12407">
        <time>2019-09-06T06:18:04Z</time>
      </trkpt>
      <trkpt lat="19.07451" lon="99.1243">
        <time>2019-09-06T06:18:05Z</time>
      </trkpt>
      <trkpt lat="19.07447" lon="99.12456">
        <time>2019-09-06T06:18:06Z</time>
      </trkpt>
      <trkpt lat="19.07432" lon="99.12534">
        <time>2019-09-06T06:18:10Z</time>
      </trkpt>
      <trkpt lat="19.07429" lon="99.12559">
        <time>2019-09-06T06:18:10Z</time>
      </trkpt>
      <trkpt lat="19.07426" lon="99.12585">
        <time>2019-09-06T06:18:11Z</time>
      </trkpt>
      <trkpt lat="19.07424" lon="99.12609">
        <time>2019-09-06T06:18:12Z</time>
      </trkpt>
      <trkpt lat="19.07421" lon="99.12631">
        <time>2019-09-06T06:18:13Z</time>
      </trkpt>
      <trkpt lat="19.07417" lon="99.12652">
        <time>2019-09-06T06:18:14Z</time>
      </trkpt>
      <trkpt lat="19.07413" lon="99.12675">
        <time>2019-09-06T06:18:15Z</time>
      </trkpt>
      <trkpt lat="19.07409" lon="99.12696">
        <time>2019-09-06T06:18:16Z</time>
      </trkpt>
      <trkpt lat="19.07403" lon="99.12717">
        <time>2019-09-06T06:18:17Z</time>
      </trkpt>
      <trkpt lat="19.07394" lon="99.12738">
        <time>2019-09-06T06:18:18Z</time>
      </trkpt>
      <trkpt lat="19.07386" lon="99.12757">
        <time>2019-09-06T06:18:19Z</time>
      </trkpt>
      <trkpt lat="19.07375" lon="99.12778">
        <time>2019-09-06T06:18:20Z</time>
      </trkpt>
      <trkpt lat="19.07365" lon="99.12799">
        <time>2019-09-06T06:18:21Z</time>
      </trkpt>
      <trkpt lat="19.07349" lon="99.12824">
        <time>2019-09-06T06:18:22Z</time>
      </trkpt>
      <trkpt lat="19.07337" lon="99.12845">
        <time>2019-09-06T06:18:23Z</time>
      </trkpt>
      <trkpt lat="19.07326" lon="99.12866">
        <time>2019-09-06T06:18:24Z</time>
      </trkpt>
      <trkpt lat="19.07312" lon="99.12888">
        <time>2019-09-06T06:18:25Z</time>
      </trkpt>
      <trkpt lat="19.07297" lon="99.12912">
        <time>2019-09-06T06:18:26Z</time>
      </trkpt>
      <trkpt lat="19.07282" lon="99.12938">
        <time>2019-09-06T06:18:27Z</time>
      </trkpt>
      <trkpt lat="19.07265" lon="99.12964">
        <time>2019-09-06T06:18:28Z</time>
      </trkpt>
      <trkpt lat="19.0725" lon="99.12988">
        <time>2019-09-06T06:18:29Z</time>
      </trkpt>
      <trkpt lat="19.07239" lon="99.13009">
        <time>2019-09-06T06:18:30Z</time>
      </trkpt>
      <trkpt lat="19.07227" lon="99.13033">
        <time>2019-09-06T06:18:31Z</time>
      </trkpt>
      <trkpt lat="19.07213" lon="99.13055">
        <time>2019-09-06T06:18:32Z</time>
      </trkpt>
      <trkpt lat="19.07199" lon="99.13077">
        <time>2019-09-06T06:18:33Z</time>
      </trkpt>
      <trkpt lat="19.07186" lon="99.13099">
        <time>2019-09-06T06:18:34Z</time>
      </trkpt>
      <trkpt lat="19.07171" lon="99.13121">
        <time>2019-09-06T06:18:35Z</time>
      </trkpt>
      <trkpt lat="19.07156" lon="99.13142">
        <time>2019-09-06T06:18:36Z</time>
      </trkpt>
      <trkpt lat="19.07144" lon="99.13162">
        <time>2019-09-06T06:18:37Z</time>
      </trkpt>
      <trkpt lat="19.07128" lon="99.13184">
        <time>2019-09-06T06:18:38Z</time>
      </trkpt>
      <trkpt lat="19.07118" lon="99.13204">
        <time>2019-09-06T06:18:39Z</time>
      </trkpt>
      <trkpt lat="19.0711" lon="99.13223">
        <time>2019-09-06T06:18:40Z</time>
      </trkpt>
      <trkpt lat="19.07101" lon="99.13244">
        <time>2019-09-06T06:18:41Z</time>
      </trkpt>
      <trkpt lat="19.07092" lon="99.13264">
        <time>2019-09-06T06:18:42Z</time>
      </trkpt>
      <trkpt lat="19.07087" lon="99.13287">
        <time>2019-09-06T06:18:43Z</time>
      </trkpt>
      <trkpt lat="19.07086" lon="99.1331">
        <time>2019-09-06T06:18:44Z</time>
      </trkpt>
      <trkpt lat="19.07082" lon="99.13334">
        <time>2019-09-06T06:18:45Z</time>
      </trkpt>
      <trkpt lat="19.07088" lon="99.13357">
        <time>2019-09-06T06:18:46Z</time>
      </trkpt>
      <trkpt lat="19.0709" lon="99.13381">
        <time>2019-09-06T06:18:47Z</time>
      </trkpt>
      <trkpt lat="19.07097" lon="99.13405">
        <time>2019-09-06T06:18:48Z</time>
      </trkpt>
      <trkpt lat="19.07108" lon="99.13427">
        <time>2019-09-06T06:18:49Z</time>
      </trkpt>
      <trkpt lat="19.07118" lon="99.13449">
        <time>2019-09-06T06:18:50Z</time>
      </trkpt>
      <trkpt lat="19.07126" lon="99.13469">
        <time>2019-09-06T06:18:51Z</time>
      </trkpt>
      <trkpt lat="19.07138" lon="99.13486">
        <time>2019-09-06T06:18:52Z</time>
      </trkpt>
      <trkpt lat="19.07152" lon="99.13503">
        <time>2019-09-06T06:18:53Z</time>
      </trkpt>
      <trkpt lat="19.0717" lon="99.13516">
        <time>2019-09-06T06:18:54Z</time>
      </trkpt>
      <trkpt lat="19.07185" lon="99.1353">
        <time>2019-09-06T06:18:55Z</time>
      </trkpt>
      <trkpt lat="19.07203" lon="99.1354">
        <time>2019-09-06T06:18:56Z</time>
      </trkpt>
      <trkpt lat="19.07227" lon="99.13538">
        <time>2019-09-06T06:18:57Z</time>
      </trkpt>
      <trkpt lat="19.07248" lon="99.13542">
        <time>2019-09-06T06:18:58Z</time>
      </trkpt>
      <trkpt lat="19.0727" lon="99.13545">
        <time>2019-09-06T06:18:59Z</time>
      </trkpt>
      <trkpt lat="19.07291" lon="99.13546">
        <time>2019-09-06T06:19:00Z</time>
      </trkpt>
      <trkpt lat="19.07318" lon="99.13549">
        <time>2019-09-06T06:19:01Z</time>
      </trkpt>
      <trkpt lat="19.07341" lon="99.13544">
        <time>2019-09-06T06:19:02Z</time>
      </trkpt>
      <trkpt lat="19.07364" lon="99.13543">
        <time>2019-09-06T06:19:03Z</time>
      </trkpt>
      <trkpt lat="19.07387" lon="99.13544">
        <time>2019-09-06T06:19:04Z</time>
      </trkpt>
      <trkpt lat="19.07414" lon="99.13543">
        <time>2019-09-06T06:19:05Z</time>
      </trkpt>
      <trkpt lat="19.07439" lon="99.13542">
        <time>2019-09-06T06:19:06Z</time>
      </trkpt>
      <trkpt lat="19.07461" lon="99.1354">
        <time>2019-09-06T06:19:07Z</time>
      </trkpt>
      <trkpt lat="19.07488" lon="99.13543">
        <time>2019-09-06T06:19:08Z</time>
      </trkpt>
      <trkpt lat="19.07516" lon="99.13551">
        <time>2019-09-06T06:19:09Z</time>
      </trkpt>
      <trkpt lat="19.07544" lon="99.13553">
        <time>2019-09-06T06:19:10Z</time>
      </trkpt>
      <trkpt lat="19.07571" lon="99.13554">
        <time>2019-09-06T06:19:11Z</time>
      </trkpt>
      <trkpt lat="19.07598" lon="99.13552">
        <time>2019-09-06T06:19:12Z</time>
      </trkpt>
      <trkpt lat="19.07623" lon="99.13552">
        <time>2019-09-06T06:19:13Z</time>
      </trkpt>
      <trkpt lat="19.07649" lon="99.13552">
        <time>2019-09-06T06:19:14Z</time>
      </trkpt>
      <trkpt lat="19.07675" lon="99.13555">
        <time>2019-09-06T06:19:15Z</time>
      </trkpt>
      <trkpt lat="19.07699" lon="99.13555">
        <time>2019-09-06T06:19:16Z</time>
      </trkpt>
      <trkpt lat="19.07723" lon="99.13554">
        <time>2019-09-06T06:19:17Z</time>
      </trkpt>
      <trkpt lat="19.07746" lon="99.13556">
        <time>2019-09-06T06:19:18Z</time>
      </trkpt>
      <trkpt lat="19.07771" lon="99.13561">
        <time>2019-09-06T06:19:19Z</time>
      </trkpt>
      <trkpt lat="19.07794" lon="99.13565">
        <time>2019-09-06T06:19:20Z</time>
      </trkpt>
      <trkpt lat="19.07818" lon="99.13569">
        <time>2019-09-06T06:19:21Z</time>
      </trkpt>
      <trkpt lat="19.07841" lon="99.13572">
        <time>2019-09-06T06:19:22Z</time>
      </trkpt>
      <trkpt lat="19.07863" lon="99.13574">
        <time>2019-09-06T06:19:23Z</time>
      </trkpt>
      <trkpt lat="19.07886" lon="99.1358">
        <time>2019-09-06T06:19:24Z</time>
      </trkpt>
      <trkpt lat="19.07908" lon="99.13583">
        <time>2019-09-06T06:19:25Z</time>
      </trkpt>
      <trkpt lat="19.07932" lon="99.13587">
        <time>2019-09-06T06:19:26Z</time>
      </trkpt>
      <trkpt lat="19.07955" lon="99.13593">
        <time>2019-09-06T06:19:27Z</time>
      </trkpt>
      <trkpt lat="19.07977" lon="99.13598">
        <time>2019-09-06T06:19:28Z</time>
      </trkpt>
      <trkpt lat="19.07999" lon="99.13604">
        <time>2019-09-06T06:19:29Z</time>
      </trkpt>
      <trkpt lat="19.0802" lon="99.13608">
        <time>2019-09-06T06:19:30Z</time>
      </trkpt>
      <trkpt lat="19.08041" lon="99.13614">
        <time>2019-09-06T06:19:31Z</time>
      </trkpt>
      <trkpt lat="19.08061" lon="99.13623">
        <time>2019-09-06T06:19:32Z</time>
      </trkpt>
      <trkpt lat="19.08081" lon="99.13636">
        <time>2019-09-06T06:19:33Z</time>
      </trkpt>
      <trkpt lat="19.081" lon="99.13646">
        <time>2019-09-06T06:19:34Z</time>
      </trkpt>
      <trkpt lat="19.08121" lon="99.13663">
        <time>2019-09-06T06:19:35Z</time>
      </trkpt>
      <trkpt lat="19.08142" lon="99.13675">
        <time>2019-09-06T06:19:36Z</time>
      </trkpt>
      <trkpt lat="19.08162" lon="99.13689">
        <time>2019-09-06T06:19:37Z</time>
      </trkpt>
      <trkpt lat="19.08181" lon="99.13704">
        <time>2019-09-06T06:19:38Z</time>
      </trkpt>
      <trkpt lat="19.08201" lon="99.13717">
        <time>2019-09-06T06:19:39Z</time>
      </trkpt>
      <trkpt lat="19.08221" lon="99.13729">
        <time>2019-09-06T06:19:40Z</time>
      </trkpt>
      <trkpt lat="19.08243" lon="99.13742">
        <time>2019-09-06T06:19:41Z</time>
      </trkpt>
      <trkpt lat="19.08266" lon="99.13752">
        <time>2019-09-06T06:19:42Z</time>
      </trkpt>
      <trkpt lat="19.08288" lon="99.13755">
        <time>2019-09-06T06:19:43Z</time>
      </trkpt>
      <trkpt lat="19.0831" lon="99.13763">
        <time>2019-09-06T06:19:44Z</time>
      </trkpt>
      <trkpt lat="19.08333" lon="99.1377">
        <time>2019-09-06T06:19:45Z</time>
      </trkpt>
      <trkpt lat="19.08356" lon="99.13777">
        <time>2019-09-06T06:19:46Z</time>
      </trkpt>
      <trkpt lat="19.08379" lon="99.13783">
        <time>2019-09-06T06:19:47Z</time>
      </trkpt>
      <trkpt lat="19.08403" lon="99.1379">
        <time>2019-09-06T06:19:49Z</time>
      </trkpt>
      <trkpt lat="19.08426" lon="99.13797">
        <time>2019-09-06T06:19:49Z</time>
      </trkpt>
      <trkpt lat="19.08449" lon="99.13803">
        <time>2019-09-06T06:19:50Z</time>
      </trkpt>
      <trkpt lat="19.08472" lon="99.1381">
        <time>2019-09-06T06:19:51Z</time>
      </trkpt>
      <trkpt lat="19.08495" lon="99.13817">
        <time>2019-09-06T06:19:52Z</time>
      </trkpt>
      <trkpt lat="19.08518" lon="99.13822">
        <time>2019-09-06T06:19:53Z</time>
      </trkpt>
      <trkpt lat="19.0854" lon="99.13828">
        <time>2019-09-06T06:19:54Z</time>
      </trkpt>
      <trkpt lat="19.08563" lon="99.13834">
        <time>2019-09-06T06:19:55Z</time>
      </trkpt>
      <trkpt lat="19.08585" lon="99.13841">
        <time>2019-09-06T06:19:56Z</time>
      </trkpt>
      <trkpt lat="19.08608" lon="99.1385">
        <time>2019-09-06T06:19:57Z</time>
      </trkpt>
      <trkpt lat="19.08631" lon="99.13856">
        <time>2019-09-06T06:19:58Z</time>
      </trkpt>
      <trkpt lat="19.08654" lon="99.13863">
        <time>2019-09-06T06:19:59Z</time>
      </trkpt>
      <trkpt lat="19.08676" lon="99.1387">
        <time>2019-09-06T06:20:00Z</time>
      </trkpt>
      <trkpt lat="19.087" lon="99.13875">
        <time>2019-09-06T06:20:01Z</time>
      </trkpt>
      <trkpt lat="19.08723" lon="99.1388">
        <time>2019-09-06T06:20:02Z</time>
      </trkpt>
      <trkpt lat="19.08746" lon="99.13886">
        <time>2019-09-06T06:20:03Z</time>
      </trkpt>
      <trkpt lat="19.0877" lon="99.13893">
        <time>2019-09-06T06:20:04Z</time>
      </trkpt>
      <trkpt lat="19.08793" lon="99.13901">
        <time>2019-09-06T06:20:05Z</time>
      </trkpt>
      <trkpt lat="19.08815" lon="99.13907">
        <time>2019-09-06T06:20:06Z</time>
      </trkpt>
      <trkpt lat="19.08839" lon="99.13913">
        <time>2019-09-06T06:20:07Z</time>
      </trkpt>
      <trkpt lat="19.08861" lon="99.13917">
        <time>2019-09-06T06:20:08Z</time>
      </trkpt>
      <trkpt lat="19.08884" lon="99.13925">
        <time>2019-09-06T06:20:09Z</time>
      </trkpt>
      <trkpt lat="19.08907" lon="99.13931">
        <time>2019-09-06T06:20:10Z</time>
      </trkpt>
      <trkpt lat="19.08929" lon="99.13937">
        <time>2019-09-06T06:20:11Z</time>
      </trkpt>
      <trkpt lat="19.0895" lon="99.13943">
        <time>2019-09-06T06:20:12Z</time>
      </trkpt>
      <trkpt lat="19.08971" lon="99.13947">
        <time>2019-09-06T06:20:13Z</time>
      </trkpt>
      <trkpt lat="19.0899" lon="99.13952">
        <time>2019-09-06T06:20:14Z</time>
      </trkpt>
      <trkpt lat="19.09008" lon="99.13957">
        <time>2019-09-06T06:20:15Z</time>
      </trkpt>
      <trkpt lat="19.09025" lon="99.13962">
        <time>2019-09-06T06:20:16Z</time>
      </trkpt>
      <trkpt lat="19.09042" lon="99.13966">
        <time>2019-09-06T06:20:17Z</time>
      </trkpt>
      <trkpt lat="19.09058" lon="99.1397">
        <time>2019-09-06T06:20:18Z</time>
      </trkpt>
      <trkpt lat="19.09076" lon="99.13973">
        <time>2019-09-06T06:20:19Z</time>
      </trkpt>
      <trkpt lat="19.09092" lon="99.13985">
        <time>2019-09-06T06:20:20Z</time>
      </trkpt>
      <trkpt lat="19.0911" lon="99.13994">
        <time>2019-09-06T06:20:21Z</time>
      </trkpt>
      <trkpt lat="19.09121" lon="99.1401">
        <time>2019-09-06T06:20:22Z</time>
      </trkpt>
      <trkpt lat="19.09136" lon="99.14023">
        <time>2019-09-06T06:20:23Z</time>
      </trkpt>
      <trkpt lat="19.09144" lon="99.14038">
        <time>2019-09-06T06:20:24Z</time>
      </trkpt>
      <trkpt lat="19.09154" lon="99.14051">
        <time>2019-09-06T06:20:25Z</time>
      </trkpt>
      <trkpt lat="19.09162" lon="99.14064">
        <time>2019-09-06T06:20:26Z</time>
      </trkpt>
      <trkpt lat="19.0917" lon="99.14078">
        <time>2019-09-06T06:20:27Z</time>
      </trkpt>
      <trkpt lat="19.09179" lon="99.1409">
        <time>2019-09-06T06:20:28Z</time>
      </trkpt>
      <trkpt lat="19.09179" lon="99.14104">
        <time>2019-09-06T06:20:29Z</time>
      </trkpt>
      <trkpt lat="19.09183" lon="99.14117">
        <time>2019-09-06T06:20:30Z</time>
      </trkpt>
      <trkpt lat="19.09185" lon="99.14144">
        <time>2019-09-06T06:20:31Z</time>
      </trkpt>
      <trkpt lat="19.0919" lon="99.14163">
        <time>2019-09-06T06:20:32Z</time>
      </trkpt>
      <trkpt lat="19.09193" lon="99.14186">
        <time>2019-09-06T06:20:33Z</time>
      </trkpt>
      <trkpt lat="19.09199" lon="99.14206">
        <time>2019-09-06T06:20:34Z</time>
      </trkpt>
      <trkpt lat="19.09213" lon="99.14221">
        <time>2019-09-06T06:20:35Z</time>
      </trkpt>
      <trkpt lat="19.09232" lon="99.14233">
        <time>2019-09-06T06:20:36Z</time>
      </trkpt>
      <trkpt lat="19.09255" lon="99.14237">
        <time>2019-09-06T06:20:37Z</time>
      </trkpt>
      <trkpt lat="19.09271" lon="99.14244">
        <time>2019-09-06T06:20:38Z</time>
      </trkpt>
      <trkpt lat="19.09291" lon="99.14251">
        <time>2019-09-06T06:20:39Z</time>
      </trkpt>
      <trkpt lat="19.09304" lon="99.14248">
        <time>2019-09-06T06:20:40Z</time>
      </trkpt>
      <trkpt lat="19.09321" lon="99.14255">
        <time>2019-09-06T06:20:41Z</time>
      </trkpt>
      <trkpt lat="19.09336" lon="99.14264">
        <time>2019-09-06T06:20:42Z</time>
      </trkpt>
      <trkpt lat="19.0935" lon="99.14274">
        <time>2019-09-06T06:20:43Z</time>
      </trkpt>
      <trkpt lat="19.09359" lon="99.14296">
        <time>2019-09-06T06:20:44Z</time>
      </trkpt>
      <trkpt lat="19.0937" lon="99.14309">
        <time>2019-09-06T06:20:45Z</time>
      </trkpt>
      <trkpt lat="19.09381" lon="99.14327">
        <time>2019-09-06T06:20:46Z</time>
      </trkpt>
      <trkpt lat="19.09392" lon="99.14342">
        <time>2019-09-06T06:20:47Z</time>
      </trkpt>
      <trkpt lat="19.09404" lon="99.14356">
        <time>2019-09-06T06:20:48Z</time>
      </trkpt>
      <trkpt lat="19.09416" lon="99.14371">
        <time>2019-09-06T06:20:49Z</time>
      </trkpt>
      <trkpt lat="19.0943" lon="99.14383">
        <time>2019-09-06T06:20:50Z</time>
      </trkpt>
      <trkpt lat="19.09449" lon="99.14394">
        <time>2019-09-06T06:20:51Z</time>
      </trkpt>
      <trkpt lat="19.09471" lon="99.1439">
        <time>2019-09-06T06:20:52Z</time>
      </trkpt>
      <trkpt lat="19.09491" lon="99.14389">
        <time>2019-09-06T06:20:53Z</time>
      </trkpt>
      <trkpt lat="19.09512" lon="99.14391">
        <time>2019-09-06T06:20:54Z</time>
      </trkpt>
      <trkpt lat="19.09534" lon="99.14394">
        <time>2019-09-06T06:20:55Z</time>
      </trkpt>
      <trkpt lat="19.09554" lon="99.14388">
        <time>2019-09-06T06:20:56Z</time>
      </trkpt>
      <trkpt lat="19.09571" lon="99.1438">
        <time>2019-09-06T06:20:57Z</time>
      </trkpt>
      <trkpt lat="19.09593" lon="99.14376">
        <time>2019-09-06T06:20:58Z</time>
      </trkpt>
      <trkpt lat="19.09602" lon="99.14373">
        <time>2019-09-06T06:20:59Z</time>
      </trkpt>
      <trkpt lat="19.09619" lon="99.1437">
        <time>2019-09-06T06:21:00Z</time>
      </trkpt>
      <trkpt lat="19.09635" lon="99.14374">
        <time>2019-09-06T06:21:01Z</time>
      </trkpt>
      <trkpt lat="19.0965" lon="99.14378">
        <time>2019-09-06T06:21:02Z</time>
      </trkpt>
      <trkpt lat="19.09665" lon="99.14382">
        <time>2019-09-06T06:21:03Z</time>
      </trkpt>
      <trkpt lat="19.09672" lon="99.14407">
        <time>2019-09-06T06:21:04Z</time>
      </trkpt>
      <trkpt lat="19.09683" lon="99.14421">
        <time>2019-09-06T06:21:05Z</time>
      </trkpt>
      <trkpt lat="19.09693" lon="99.14433">
        <time>2019-09-06T06:21:06Z</time>
      </trkpt>
      <trkpt lat="19.09702" lon="99.14446">
        <time>2019-09-06T06:21:07Z</time>
      </trkpt>
      <trkpt lat="19.0971" lon="99.14459">
        <time>2019-09-06T06:21:08Z</time>
      </trkpt>
      <trkpt lat="19.09713" lon="99.14478">
        <time>2019-09-06T06:21:09Z</time>
      </trkpt>
      <trkpt lat="19.09696" lon="99.14511">
        <time>2019-09-06T06:21:10Z</time>
      </trkpt>
      <trkpt lat="19.09692" lon="99.14531">
        <time>2019-09-06T06:21:11Z</time>
      </trkpt>
      <trkpt lat="19.0968" lon="99.14558">
        <time>2019-09-06T06:21:12Z</time>
      </trkpt>
      <trkpt lat="19.09671" lon="99.14581">
        <time>2019-09-06T06:21:13Z</time>
      </trkpt>
      <trkpt lat="19.09668" lon="99.146">
        <time>2019-09-06T06:21:14Z</time>
      </trkpt>
      <trkpt lat="19.09658" lon="99.14625">
        <time>2019-09-06T06:21:15Z</time>
      </trkpt>
      <trkpt lat="19.09651" lon="99.14645">
        <time>2019-09-06T06:21:16Z</time>
      </trkpt>
      <trkpt lat="19.09643" lon="99.14666">
        <time>2019-09-06T06:21:17Z</time>
      </trkpt>
      <trkpt lat="19.09638" lon="99.14686">
        <time>2019-09-06T06:21:18Z</time>
      </trkpt>
      <trkpt lat="19.09631" lon="99.14708">
        <time>2019-09-06T06:21:19Z</time>
      </trkpt>
      <trkpt lat="19.09627" lon="99.14727">
        <time>2019-09-06T06:21:20Z</time>
      </trkpt>
      <trkpt lat="19.0962" lon="99.14749">
        <time>2019-09-06T06:21:21Z</time>
      </trkpt>
      <trkpt lat="19.09612" lon="99.14773">
        <time>2019-09-06T06:21:22Z</time>
      </trkpt>
      <trkpt lat="19.09604" lon="99.14796">
        <time>2019-09-06T06:21:23Z</time>
      </trkpt>
      <trkpt lat="19.09595" lon="99.14819">
        <time>2019-09-06T06:21:24Z</time>
      </trkpt>
      <trkpt lat="19.09587" lon="99.14843">
        <time>2019-09-06T06:21:25Z</time>
      </trkpt>
      <trkpt lat="19.09578" lon="99.14866">
        <time>2019-09-06T06:21:26Z</time>
      </trkpt>
      <trkpt lat="19.09568" lon="99.14889">
        <time>2019-09-06T06:21:27Z</time>
      </trkpt>
      <trkpt lat="19.0956" lon="99.14909">
        <time>2019-09-06T06:21:28Z</time>
      </trkpt>
      <trkpt lat="19.09552" lon="99.14932">
        <time>2019-09-06T06:21:29Z</time>
      </trkpt>
      <trkpt lat="19.09543" lon="99.14953">
        <time>2019-09-06T06:21:30Z</time>
      </trkpt>
      <trkpt lat="19.09536" lon="99.14971">
        <time>2019-09-06T06:21:31Z</time>
      </trkpt>
      <trkpt lat="19.0953" lon="99.14991">
        <time>2019-09-06T06:21:32Z</time>
      </trkpt>
      <trkpt lat="19.09521" lon="99.15013">
        <time>2019-09-06T06:21:33Z</time>
      </trkpt>
      <trkpt lat="19.09513" lon="99.15033">
        <time>2019-09-06T06:21:34Z</time>
      </trkpt>
      <trkpt lat="19.09505" lon="99.15052">
        <time>2019-09-06T06:21:35Z</time>
      </trkpt>
      <trkpt lat="19.09494" lon="99.15071">
        <time>2019-09-06T06:21:36Z</time>
      </trkpt>
      <trkpt lat="19.09478" lon="99.15087">
        <time>2019-09-06T06:21:37Z</time>
      </trkpt>
      <trkpt lat="19.09462" lon="99.151">
        <time>2019-09-06T06:21:38Z</time>
      </trkpt>
      <trkpt lat="19.09449" lon="99.15114">
        <time>2019-09-06T06:21:39Z</time>
      </trkpt>
      <trkpt lat="19.09436" lon="99.15128">
        <time>2019-09-06T06:21:41Z</time>
      </trkpt>
      <trkpt lat="19.09429" lon="99.15146">
        <time>2019-09-06T06:21:41Z</time>
      </trkpt>
      <trkpt lat="19.09425" lon="99.15163">
        <time>2019-09-06T06:21:42Z</time>
      </trkpt>
      <trkpt lat="19.09423" lon="99.15179">
        <time>2019-09-06T06:21:43Z</time>
      </trkpt>
      <trkpt lat="19.09421" lon="99.15195">
        <time>2019-09-06T06:21:44Z</time>
      </trkpt>
      <trkpt lat="19.09424" lon="99.15216">
        <time>2019-09-06T06:21:45Z</time>
      </trkpt>
      <trkpt lat="19.09428" lon="99.15235">
        <time>2019-09-06T06:21:46Z</time>
      </trkpt>
      <trkpt lat="19.09434" lon="99.15257">
        <time>2019-09-06T06:21:47Z</time>
      </trkpt>
      <trkpt lat="19.09438" lon="99.1528">
        <time>2019-09-06T06:21:48Z</time>
      </trkpt>
      <trkpt lat="19.09439" lon="99.15299">
        <time>2019-09-06T06:21:49Z</time>
      </trkpt>
      <trkpt lat="19.09441" lon="99.15317">
        <time>2019-09-06T06:21:50Z</time>
      </trkpt>
      <trkpt lat="19.09436" lon="99.15342">
        <time>2019-09-06T06:21:51Z</time>
      </trkpt>
      <trkpt lat="19.09433" lon="99.15359">
        <time>2019-09-06T06:21:52Z</time>
      </trkpt>
      <trkpt lat="19.09427" lon="99.15383">
        <time>2019-09-06T06:21:53Z</time>
      </trkpt>
      <trkpt lat="19.09419" lon="99.154">
        <time>2019-09-06T06:21:54Z</time>
      </trkpt>
      <trkpt lat="19.09402" lon="99.1542">
        <time>2019-09-06T06:21:55Z</time>
      </trkpt>
      <trkpt lat="19.09397" lon="99.15441">
        <time>2019-09-06T06:21:56Z</time>
      </trkpt>
      <trkpt lat="19.09386" lon="99.15458">
        <time>2019-09-06T06:21:57Z</time>
      </trkpt>
      <trkpt lat="19.09375" lon="99.15476">
        <time>2019-09-06T06:21:58Z</time>
      </trkpt>
      <trkpt lat="19.09368" lon="99.15491">
        <time>2019-09-06T06:21:59Z</time>
      </trkpt>
      <trkpt lat="19.09361" lon="99.15507">
        <time>2019-09-06T06:22:00Z</time>
      </trkpt>
      <trkpt lat="19.09351" lon="99.15523">
        <time>2019-09-06T06:22:01Z</time>
      </trkpt>
      <trkpt lat="19.09344" lon="99.15541">
        <time>2019-09-06T06:22:02Z</time>
      </trkpt>
      <trkpt lat="19.09339" lon="99.15559">
        <time>2019-09-06T06:22:03Z</time>
      </trkpt>
      <trkpt lat="19.09333" lon="99.15578">
        <time>2019-09-06T06:22:04Z</time>
      </trkpt>
      <trkpt lat="19.09331" lon="99.15597">
        <time>2019-09-06T06:22:05Z</time>
      </trkpt>
      <trkpt lat="19.09331" lon="99.15616">
        <time>2019-09-06T06:22:06Z</time>
      </trkpt>
      <trkpt lat="19.09331" lon="99.15632">
        <time>2019-09-06T06:22:07Z</time>
      </trkpt>
      <trkpt lat="19.09328" lon="99.15652">
        <time>2019-09-06T06:22:08Z</time>
      </trkpt>
      <trkpt lat="19.09317" lon="99.15676">
        <time>2019-09-06T06:22:09Z</time>
      </trkpt>
      <trkpt lat="19.09309" lon="99.15694">
        <time>2019-09-06T06:22:10Z</time>
      </trkpt>
      <trkpt lat="19.09302" lon="99.1571">
        <time>2019-09-06T06:22:11Z</time>
      </trkpt>
      <trkpt lat="19.09295" lon="99.15727">
        <time>2019-09-06T06:22:12Z</time>
      </trkpt>
      <trkpt lat="19.09284" lon="99.1574">
        <time>2019-09-06T06:22:13Z</time>
      </trkpt>
      <trkpt lat="19.09271" lon="99.15752">
        <time>2019-09-06T06:22:14Z</time>
      </trkpt>
      <trkpt lat="19.09251" lon="99.15756">
        <time>2019-09-06T06:22:15Z</time>
      </trkpt>
      <trkpt lat="19.09239" lon="99.15765">
        <time>2019-09-06T06:22:16Z</time>
      </trkpt>
      <trkpt lat="19.09229" lon="99.15775">
        <time>2019-09-06T06:22:17Z</time>
      </trkpt>
      <trkpt lat="19.09217" lon="99.15785">
        <time>2019-09-06T06:22:18Z</time>
      </trkpt>
      <trkpt lat="19.09208" lon="99.15799">
        <time>2019-09-06T06:22:19Z</time>
      </trkpt>
      <trkpt lat="19.09203" lon="99.15813">
        <time>2019-09-06T06:22:20Z</time>
      </trkpt>
      <trkpt lat="19.09195" lon="99.15831">
        <time>2019-09-06T06:22:21Z</time>
      </trkpt>
      <trkpt lat="19.09192" lon="99.15847">
        <time>2019-09-06T06:22:22Z</time>
      </trkpt>
      <trkpt lat="19.09189" lon="99.15863">
        <time>2019-09-06T06:22:23Z</time>
      </trkpt>
      <trkpt lat="19.09186" lon="99.15878">
        <time>2019-09-06T06:22:24Z</time>
      </trkpt>
      <trkpt lat="19.09182" lon="99.15895">
        <time>2019-09-06T06:22:25Z</time>
      </trkpt>
      <trkpt lat="19.09181" lon="99.15911">
        <time>2019-09-06T06:22:26Z</time>
      </trkpt>
      <trkpt lat="19.09188" lon="99.15923">
        <time>2019-09-06T06:22:27Z</time>
      </trkpt>
      <trkpt lat="19.09189" lon="99.15937">
        <time>2019-09-06T06:22:28Z</time>
      </trkpt>
      <trkpt lat="19.0919" lon="99.15953">
        <time>2019-09-06T06:22:29Z</time>
      </trkpt>
      <trkpt lat="19.09197" lon="99.1597">
        <time>2019-09-06T06:22:30Z</time>
      </trkpt>
      <trkpt lat="19.09203" lon="99.15984">
        <time>2019-09-06T06:22:31Z</time>
      </trkpt>
      <trkpt lat="19.09207" lon="99.15997">
        <time>2019-09-06T06:22:32Z</time>
      </trkpt>
      <trkpt lat="19.0921" lon="99.16012">
        <time>2019-09-06T06:22:33Z</time>
      </trkpt>
      <trkpt lat="19.09208" lon="99.16029">
        <time>2019-09-06T06:22:34Z</time>
      </trkpt>
      <trkpt lat="19.0921" lon="99.16046">
        <time>2019-09-06T06:22:35Z</time>
      </trkpt>
      <trkpt lat="19.09208" lon="99.16066">
        <time>2019-09-06T06:22:36Z</time>
      </trkpt>
      <trkpt lat="19.09209" lon="99.16082">
        <time>2019-09-06T06:22:37Z</time>
      </trkpt>
      <trkpt lat="19.0921" lon="99.16099">
        <time>2019-09-06T06:22:38Z</time>
      </trkpt>
      <trkpt lat="19.09214" lon="99.16119">
        <time>2019-09-06T06:22:39Z</time>
      </trkpt>
      <trkpt lat="19.09216" lon="99.16137">
        <time>2019-09-06T06:22:40Z</time>
      </trkpt>
      <trkpt lat="19.09223" lon="99.16145">
        <time>2019-09-06T06:22:41Z</time>
      </trkpt>
      <trkpt lat="19.09231" lon="99.1616">
        <time>2019-09-06T06:22:42Z</time>
      </trkpt>
      <trkpt lat="19.09242" lon="99.16174">
        <time>2019-09-06T06:22:43Z</time>
      </trkpt>
      <trkpt lat="19.0925" lon="99.16187">
        <time>2019-09-06T06:22:44Z</time>
      </trkpt>
      <trkpt lat="19.09263" lon="99.16197">
        <time>2019-09-06T06:22:45Z</time>
      </trkpt>
      <trkpt lat="19.09273" lon="99.16213">
        <time>2019-09-06T06:22:46Z</time>
      </trkpt>
      <trkpt lat="19.09281" lon="99.16228">
        <time>2019-09-06T06:22:47Z</time>
      </trkpt>
      <trkpt lat="19.09292" lon="99.16243">
        <time>2019-09-06T06:22:48Z</time>
      </trkpt>
      <trkpt lat="19.09301" lon="99.16257">
        <time>2019-09-06T06:22:49Z</time>
      </trkpt>
      <trkpt lat="19.09307" lon="99.16266">
        <time>2019-09-06T06:22:50Z</time>
      </trkpt>
      <trkpt lat="19.09312" lon="99.16284">
        <time>2019-09-06T06:22:51Z</time>
      </trkpt>
      <trkpt lat="19.09311" lon="99.16301">
        <time>2019-09-06T06:22:52Z</time>
      </trkpt>
      <trkpt lat="19.09293" lon="99.16335">
        <time>2019-09-06T06:22:53Z</time>
      </trkpt>
      <trkpt lat="19.0929" lon="99.16354">
        <time>2019-09-06T06:22:54Z</time>
      </trkpt>
      <trkpt lat="19.09278" lon="99.16379">
        <time>2019-09-06T06:22:55Z</time>
      </trkpt>
      <trkpt lat="19.09273" lon="99.16397">
        <time>2019-09-06T06:22:56Z</time>
      </trkpt>
      <trkpt lat="19.09262" lon="99.1642">
        <time>2019-09-06T06:22:57Z</time>
      </trkpt>
      <trkpt lat="19.09254" lon="99.1644">
        <time>2019-09-06T06:22:58Z</time>
      </trkpt>
      <trkpt lat="19.09248" lon="99.1646">
        <time>2019-09-06T06:22:59Z</time>
      </trkpt>
      <trkpt lat="19.09241" lon="99.16479">
        <time>2019-09-06T06:23:00Z</time>
      </trkpt>
      <trkpt lat="19.09236" lon="99.16497">
        <time>2019-09-06T06:23:01Z</time>
      </trkpt>
      <trkpt lat="19.09234" lon="99.16514">
        <time>2019-09-06T06:23:02Z</time>
      </trkpt>
      <trkpt lat="19.09233" lon="99.16536">
        <time>2019-09-06T06:23:03Z</time>
      </trkpt>
      <trkpt lat="19.09232" lon="99.16556">
        <time>2019-09-06T06:23:04Z</time>
      </trkpt>
      <trkpt lat="19.09232" lon="99.16579">
        <time>2019-09-06T06:23:05Z</time>
      </trkpt>
      <trkpt lat="19.09238" lon="99.16605">
        <time>2019-09-06T06:23:06Z</time>
      </trkpt>
      <trkpt lat="19.09246" lon="99.16626">
        <time>2019-09-06T06:23:07Z</time>
      </trkpt>
      <trkpt lat="19.09248" lon="99.16649">
        <time>2019-09-06T06:23:08Z</time>
      </trkpt>
      <trkpt lat="19.09254" lon="99.16675">
        <time>2019-09-06T06:23:09Z</time>
      </trkpt>
      <trkpt lat="19.0926" lon="99.16699">
        <time>2019-09-06T06:23:10Z</time>
      </trkpt>
      <trkpt lat="19.09267" lon="99.16723">
        <time>2019-09-06T06:23:11Z</time>
      </trkpt>
      <trkpt lat="19.09273" lon="99.16749">
        <time>2019-09-06T06:23:12Z</time>
      </trkpt>
      <trkpt lat="19.09281" lon="99.16774">
        <time>2019-09-06T06:23:13Z</time>
      </trkpt>
      <trkpt lat="19.0929" lon="99.16797">
        <time>2019-09-06T06:23:14Z</time>
      </trkpt>
      <trkpt lat="19.09294" lon="99.16822">
        <time>2019-09-06T06:23:15Z</time>
      </trkpt>
      <trkpt lat="19.09298" lon="99.1685">
        <time>2019-09-06T06:23:16Z</time>
      </trkpt>
      <trkpt lat="19.09301" lon="99.16876">
        <time>2019-09-06T06:23:17Z</time>
      </trkpt>
      <trkpt lat="19.09306" lon="99.16897">
        <time>2019-09-06T06:23:18Z</time>
      </trkpt>
      <trkpt lat="19.0931" lon="99.16917">
        <time>2019-09-06T06:23:19Z</time>
      </trkpt>
      <trkpt lat="19.09316" lon="99.16936">
        <time>2019-09-06T06:23:20Z</time>
      </trkpt>
      <trkpt lat="19.0932" lon="99.16956">
        <time>2019-09-06T06:23:21Z</time>
      </trkpt>
      <trkpt lat="19.09325" lon="99.16973">
        <time>2019-09-06T06:23:22Z</time>
      </trkpt>
      <trkpt lat="19.09346" lon="99.17041">
        <time>2019-09-06T06:23:26Z</time>
      </trkpt>
      <trkpt lat="19.09351" lon="99.17058">
        <time>2019-09-06T06:23:27Z</time>
      </trkpt>
      <trkpt lat="19.09355" lon="99.17076">
        <time>2019-09-06T06:23:28Z</time>
      </trkpt>
      <trkpt lat="19.09359" lon="99.17091">
        <time>2019-09-06T06:23:29Z</time>
      </trkpt>
      <trkpt lat="19.0936" lon="99.17107">
        <time>2019-09-06T06:23:30Z</time>
      </trkpt>
      <trkpt lat="19.09363" lon="99.17125">
        <time>2019-09-06T06:23:31Z</time>
      </trkpt>
      <trkpt lat="19.09367" lon="99.17141">
        <time>2019-09-06T06:23:32Z</time>
      </trkpt>
      <trkpt lat="19.09372" lon="99.17157">
        <time>2019-09-06T06:23:33Z</time>
      </trkpt>
      <trkpt lat="19.09375" lon="99.17172">
        <time>2019-09-06T06:23:34Z</time>
      </trkpt>
      <trkpt lat="19.09378" lon="99.17188">
        <time>2019-09-06T06:23:35Z</time>
      </trkpt>
      <trkpt lat="19.09383" lon="99.17203">
        <time>2019-09-06T06:23:36Z</time>
      </trkpt>
      <trkpt lat="19.09386" lon="99.17219">
        <time>2019-09-06T06:23:37Z</time>
      </trkpt>
      <trkpt lat="19.09392" lon="99.17236">
        <time>2019-09-06T06:23:38Z</time>
      </trkpt>
      <trkpt lat="19.09397" lon="99.17254">
        <time>2019-09-06T06:23:39Z</time>
      </trkpt>
      <trkpt lat="19.094" lon="99.17271">
        <time>2019-09-06T06:23:40Z</time>
      </trkpt>
      <trkpt lat="19.09406" lon="99.17289">
        <time>2019-09-06T06:23:41Z</time>
      </trkpt>
      <trkpt lat="19.09411" lon="99.17309">
        <time>2019-09-06T06:23:42Z</time>
      </trkpt>
      <trkpt lat="19.09421" lon="99.17326">
        <time>2019-09-06T06:23:43Z</time>
      </trkpt>
      <trkpt lat="19.09432" lon="99.17341">
        <time>2019-09-06T06:23:44Z</time>
      </trkpt>
      <trkpt lat="19.09441" lon="99.17356">
        <time>2019-09-06T06:23:45Z</time>
      </trkpt>
      <trkpt lat="19.09454" lon="99.17375">
        <time>2019-09-06T06:23:46Z</time>
      </trkpt>
      <trkpt lat="19.09467" lon="99.17392">
        <time>2019-09-06T06:23:47Z</time>
      </trkpt>
      <trkpt lat="19.09484" lon="99.1741">
        <time>2019-09-06T06:23:48Z</time>
      </trkpt>
      <trkpt lat="19.09524" lon="99.17436">
        <time>2019-09-06T06:23:50Z</time>
      </trkpt>
      <trkpt lat="19.09546" lon="99.1745">
        <time>2019-09-06T06:23:51Z</time>
      </trkpt>
      <trkpt lat="19.09567" lon="99.1746">
        <time>2019-09-06T06:23:52Z</time>
      </trkpt>
      <trkpt lat="19.09589" lon="99.17469">
        <time>2019-09-06T06:23:53Z</time>
      </trkpt>
      <trkpt lat="19.09609" lon="99.17477">
        <time>2019-09-06T06:23:54Z</time>
      </trkpt>
      <trkpt lat="19.09631" lon="99.17487">
        <time>2019-09-06T06:23:55Z</time>
      </trkpt>
      <trkpt lat="19.09653" lon="99.17495">
        <time>2019-09-06T06:23:56Z</time>
      </trkpt>
      <trkpt lat="19.09675" lon="99.17501">
        <time>2019-09-06T06:23:57Z</time>
      </trkpt>
      <trkpt lat="19.097" lon="99.17507">
        <time>2019-09-06T06:23:58Z</time>
      </trkpt>
      <trkpt lat="19.09722" lon="99.17508">
        <time>2019-09-06T06:23:59Z</time>
      </trkpt>
      <trkpt lat="19.09748" lon="99.1751">
        <time>2019-09-06T06:24:00Z</time>
      </trkpt>
      <trkpt lat="19.09774" lon="99.17511">
        <time>2019-09-06T06:24:01Z</time>
      </trkpt>
      <trkpt lat="19.098" lon="99.17512">
        <time>2019-09-06T06:24:02Z</time>
      </trkpt>
      <trkpt lat="19.09823" lon="99.17512">
        <time>2019-09-06T06:24:03Z</time>
      </trkpt>
      <trkpt lat="19.09842" lon="99.1751">
        <time>2019-09-06T06:24:04Z</time>
      </trkpt>
      <trkpt lat="19.09865" lon="99.17509">
        <time>2019-09-06T06:24:05Z</time>
      </trkpt>
      <trkpt lat="19.09887" lon="99.17507">
        <time>2019-09-06T06:24:06Z</time>
      </trkpt>
      <trkpt lat="19.0991" lon="99.17507">
        <time>2019-09-06T06:24:07Z</time>
      </trkpt>
      <trkpt lat="19.09931" lon="99.17506">
        <time>2019-09-06T06:24:08Z</time>
      </trkpt>
      <trkpt lat="19.09957" lon="99.17501">
        <time>2019-09-06T06:24:09Z</time>
      </trkpt>
      <trkpt lat="19.09981" lon="99.17497">
        <time>2019-09-06T06:24:10Z</time>
      </trkpt>
      <trkpt lat="19.10002" lon="99.17491">
        <time>2019-09-06T06:24:11Z</time>
      </trkpt>
      <trkpt lat="19.10028" lon="99.17483">
        <time>2019-09-06T06:24:12Z</time>
      </trkpt>
      <trkpt lat="19.10048" lon="99.17469">
        <time>2019-09-06T06:24:13Z</time>
      </trkpt>
      <trkpt lat="19.10072" lon="99.17455">
        <time>2019-09-06T06:24:14Z</time>
      </trkpt>
      <trkpt lat="19.10089" lon="99.17438">
        <time>2019-09-06T06:24:15Z</time>
      </trkpt>
      <trkpt lat="19.10109" lon="99.17425">
        <time>2019-09-06T06:24:16Z</time>
      </trkpt>
      <trkpt lat="19.10127" lon="99.17413">
        <time>2019-09-06T06:24:17Z</time>
      </trkpt>
      <trkpt lat="19.10143" lon="99.17402">
        <time>2019-09-06T06:24:18Z</time>
      </trkpt>
      <trkpt lat="19.10166" lon="99.17392">
        <time>2019-09-06T06:24:19Z</time>
      </trkpt>
      <trkpt lat="19.10186" lon="99.17383">
        <time>2019-09-06T06:24:20Z</time>
      </trkpt>
      <trkpt lat="19.10206" lon="99.17377">
        <time>2019-09-06T06:24:21Z</time>
      </trkpt>
      <trkpt lat="19.10228" lon="99.17372">
        <time>2019-09-06T06:24:22Z</time>
      </trkpt>
      <trkpt lat="19.1025" lon="99.17369">
        <time>2019-09-06T06:24:23Z</time>
      </trkpt>
      <trkpt lat="19.10273" lon="99.17375">
        <time>2019-09-06T06:24:24Z</time>
      </trkpt>
      <trkpt lat="19.10292" lon="99.17375">
        <time>2019-09-06T06:24:25Z</time>
      </trkpt>
      <trkpt lat="19.10311" lon="99.17378">
        <time>2019-09-06T06:24:26Z</time>
      </trkpt>
      <trkpt lat="19.10331" lon="99.17378">
        <time>2019-09-06T06:24:27Z</time>
      </trkpt>
      <trkpt lat="19.10348" lon="99.17371">
        <time>2019-09-06T06:24:28Z</time>
      </trkpt>
      <trkpt lat="19.10361" lon="99.17355">
        <time>2019-09-06T06:24:29Z</time>
      </trkpt>
      <trkpt lat="19.10373" lon="99.17332">
        <time>2019-09-06T06:24:30Z</time>
      </trkpt>
      <trkpt lat="19.10388" lon="99.17315">
        <time>2019-09-06T06:24:31Z</time>
      </trkpt>
      <trkpt lat="19.10402" lon="99.17299">
        <time>2019-09-06T06:24:32Z</time>
      </trkpt>
      <trkpt lat="19.10417" lon="99.1728">
        <time>2019-09-06T06:24:33Z</time>
      </trkpt>
      <trkpt lat="19.10432" lon="99.1726">
        <time>2019-09-06T06:24:34Z</time>
      </trkpt>
      <trkpt lat="19.10448" lon="99.17241">
        <time>2019-09-06T06:24:35Z</time>
      </trkpt>
      <trkpt lat="19.10464" lon="99.17224">
        <time>2019-09-06T06:24:36Z</time>
      </trkpt>
      <trkpt lat="19.10481" lon="99.17208">
        <time>2019-09-06T06:24:37Z</time>
      </trkpt>
      <trkpt lat="19.10498" lon="99.17193">
        <time>2019-09-06T06:24:38Z</time>
      </trkpt>
      <trkpt lat="19.10514" lon="99.17177">
        <time>2019-09-06T06:24:39Z</time>
      </trkpt>
      <trkpt lat="19.10532" lon="99.17161">
        <time>2019-09-06T06:24:40Z</time>
      </trkpt>
      <trkpt lat="19.10548" lon="99.17144">
        <time>2019-09-06T06:24:41Z</time>
      </trkpt>
      <trkpt lat="19.10565" lon="99.17127">
        <time>2019-09-06T06:24:42Z</time>
      </trkpt>
      <trkpt lat="19.10582" lon="99.17112">
        <time>2019-09-06T06:24:43Z</time>
      </trkpt>
      <trkpt lat="19.10597" lon="99.17096">
        <time>2019-09-06T06:24:44Z</time>
      </trkpt>
      <trkpt lat="19.10614" lon="99.17082">
        <time>2019-09-06T06:24:45Z</time>
      </trkpt>
      <trkpt lat="19.1063" lon="99.17069">
        <time>2019-09-06T06:24:46Z</time>
      </trkpt>
      <trkpt lat="19.10649" lon="99.17058">
        <time>2019-09-06T06:24:47Z</time>
      </trkpt>
      <trkpt lat="19.10662" lon="99.17045">
        <time>2019-09-06T06:24:48Z</time>
      </trkpt>
      <trkpt lat="19.10679" lon="99.17035">
        <time>2019-09-06T06:24:49Z</time>
      </trkpt>
      <trkpt lat="19.10703" lon="99.17027">
        <time>2019-09-06T06:24:50Z</time>
      </trkpt>
      <trkpt lat="19.10724" lon="99.17021">
        <time>2019-09-06T06:24:51Z</time>
      </trkpt>
      <trkpt lat="19.10745" lon="99.17014">
        <time>2019-09-06T06:24:52Z</time>
      </trkpt>
      <trkpt lat="19.10768" lon="99.17008">
        <time>2019-09-06T06:24:53Z</time>
      </trkpt>
      <trkpt lat="19.10792" lon="99.17001">
        <time>2019-09-06T06:24:54Z</time>
      </trkpt>
      <trkpt lat="19.10816" lon="99.16996">
        <time>2019-09-06T06:24:55Z</time>
      </trkpt>
      <trkpt lat="19.10833" lon="99.16989">
        <time>2019-09-06T06:24:56Z</time>
      </trkpt>
      <trkpt lat="19.10859" lon="99.16982">
        <time>2019-09-06T06:24:57Z</time>
      </trkpt>
      <trkpt lat="19.10884" lon="99.16978">
        <time>2019-09-06T06:24:58Z</time>
      </trkpt>
      <trkpt lat="19.10902" lon="99.16968">
        <time>2019-09-06T06:24:59Z</time>
      </trkpt>
      <trkpt lat="19.10922" lon="99.16958">
        <time>2019-09-06T06:25:00Z</time>
      </trkpt>
      <trkpt lat="19.10941" lon="99.16947">
        <time>2019-09-06T06:25:01Z</time>
      </trkpt>
      <trkpt lat="19.10961" lon="99.16936">
        <time>2019-09-06T06:25:02Z</time>
      </trkpt>
      <trkpt lat="19.10981" lon="99.16925">
        <time>2019-09-06T06:25:03Z</time>
      </trkpt>
      <trkpt lat="19.11" lon="99.16914">
        <time>2019-09-06T06:25:04Z</time>
      </trkpt>
      <trkpt lat="19.11018" lon="99.16903">
        <time>2019-09-06T06:25:05Z</time>
      </trkpt>
      <trkpt lat="19.11036" lon="99.16893">
        <time>2019-09-06T06:25:06Z</time>
      </trkpt>
      <trkpt lat="19.11052" lon="99.16882">
        <time>2019-09-06T06:25:07Z</time>
      </trkpt>
      <trkpt lat="19.11072" lon="99.16871">
        <time>2019-09-06T06:25:08Z</time>
      </trkpt>
      <trkpt lat="19.11092" lon="99.16861">
        <time>2019-09-06T06:25:09Z</time>
      </trkpt>
      <trkpt lat="19.1111" lon="99.16853">
        <time>2019-09-06T06:25:10Z</time>
      </trkpt>
      <trkpt lat="19.11133" lon="99.16847">
        <time>2019-09-06T06:25:11Z</time>
      </trkpt>
      <trkpt lat="19.11153" lon="99.16841">
        <time>2019-09-06T06:25:12Z</time>
      </trkpt>
      <trkpt lat="19.11178" lon="99.16838">
        <time>2019-09-06T06:25:13Z</time>
      </trkpt>
      <trkpt lat="19.11201" lon="99.16834">
        <time>2019-09-06T06:25:14Z</time>
      </trkpt>
      <trkpt lat="19.11226" lon="99.1683">
        <time>2019-09-06T06:25:15Z</time>
      </trkpt>
      <trkpt lat="19.11251" lon="99.16828">
        <time>2019-09-06T06:25:16Z</time>
      </trkpt>
      <trkpt lat="19.11274" lon="99.16824">
        <time>2019-09-06T06:25:17Z</time>
      </trkpt>
      <trkpt lat="19.11291" lon="99.1682">
        <time>2019-09-06T06:25:18Z</time>
      </trkpt>
      <trkpt lat="19.11315" lon="99.16814">
        <time>2019-09-06T06:25:19Z</time>
      </trkpt>
      <trkpt lat="19.11339" lon="99.16812">
        <time>2019-09-06T06:25:20Z</time>
      </trkpt>
      <trkpt lat="19.11363" lon="99.16806">
        <time>2019-09-06T06:25:21Z</time>
      </trkpt>
      <trkpt lat="19.11387" lon="99.16798">
        <time>2019-09-06T06:25:22Z</time>
      </trkpt>
      <trkpt lat="19.11414" lon="99.16792">
        <time>2019-09-06T06:25:23Z</time>
      </trkpt>
      <trkpt lat="19.11439" lon="99.16785">
        <time>2019-09-06T06:25:24Z</time>
      </trkpt>
      <trkpt lat="19.11467" lon="99.16779">
        <time>2019-09-06T06:25:25Z</time>
      </trkpt>
      <trkpt lat="19.11483" lon="99.1677">
        <time>2019-09-06T06:25:26Z</time>
      </trkpt>
      <trkpt lat="19.11506" lon="99.16763">
        <time>2019-09-06T06:25:27Z</time>
      </trkpt>
      <trkpt lat="19.11529" lon="99.16757">
        <time>2019-09-06T06:25:28Z</time>
      </trkpt>
      <trkpt lat="19.11553" lon="99.1675">
        <time>2019-09-06T06:25:29Z</time>
      </trkpt>
      <trkpt lat="19.11577" lon="99.16744">
        <time>2019-09-06T06:25:30Z</time>
      </trkpt>
      <trkpt lat="19.11601" lon="99.16737">
        <time>2019-09-06T06:25:31Z</time>
      </trkpt>
      <trkpt lat="19.11626" lon="99.1673">
        <time>2019-09-06T06:25:32Z</time>
      </trkpt>
      <trkpt lat="19.11652" lon="99.16726">
        <time>2019-09-06T06:25:33Z</time>
      </trkpt>
      <trkpt lat="19.11677" lon="99.1672">
        <time>2019-09-06T06:25:34Z</time>
      </trkpt>
      <trkpt lat="19.11698" lon="99.16714">
        <time>2019-09-06T06:25:35Z</time>
      </trkpt>
      <trkpt lat="19.11722" lon="99.16708">
        <time>2019-09-06T06:25:36Z</time>
      </trkpt>
      <trkpt lat="19.11745" lon="99.16705">
        <time>2019-09-06T06:25:37Z</time>
      </trkpt>
      <trkpt lat="19.11769" lon="99.16703">
        <time>2019-09-06T06:25:38Z</time>
      </trkpt>
      <trkpt lat="19.11795" lon="99.16702">
        <time>2019-09-06T06:25:39Z</time>
      </trkpt>
      <trkpt lat="19.11818" lon="99.167">
        <time>2019-09-06T06:25:40Z</time>
      </trkpt>
      <trkpt lat="19.11843" lon="99.16698">
        <time>2019-09-06T06:25:41Z</time>
      </trkpt>
      <trkpt lat="19.11864" lon="99.16697">
        <time>2019-09-06T06:25:42Z</time>
      </trkpt>
      <trkpt lat="19.11888" lon="99.16695">
        <time>2019-09-06T06:25:43Z</time>
      </trkpt>
      <trkpt lat="19.11915" lon="99.16697">
        <time>2019-09-06T06:25:44Z</time>
      </trkpt>
      <trkpt lat="19.11936" lon="99.16693">
        <time>2019-09-06T06:25:45Z</time>
      </trkpt>
      <trkpt lat="19.11985" lon="99.1669">
        <time>2019-09-06T06:25:47Z</time>
      </trkpt>
      <trkpt lat="19.12011" lon="99.16689">
        <time>2019-09-06T06:25:48Z</time>
      </trkpt>
      <trkpt lat="19.12036" lon="99.16689">
        <time>2019-09-06T06:25:49Z</time>
      </trkpt>
      <trkpt lat="19.12058" lon="99.16687">
        <time>2019-09-06T06:25:50Z</time>
      </trkpt>
      <trkpt lat="19.12078" lon="99.16683">
        <time>2019-09-06T06:25:51Z</time>
      </trkpt>
      <trkpt lat="19.12102" lon="99.1668">
        <time>2019-09-06T06:25:52Z</time>
      </trkpt>
      <trkpt lat="19.12126" lon="99.16677">
        <time>2019-09-06T06:25:53Z</time>
      </trkpt>
      <trkpt lat="19.1215" lon="99.16673">
        <time>2019-09-06T06:25:54Z</time>
      </trkpt>
      <trkpt lat="19.12173" lon="99.16669">
        <time>2019-09-06T06:25:55Z</time>
      </trkpt>
      <trkpt lat="19.12201" lon="99.16667">
        <time>2019-09-06T06:25:56Z</time>
      </trkpt>
      <trkpt lat="19.12227" lon="99.16662">
        <time>2019-09-06T06:25:57Z</time>
      </trkpt>
      <trkpt lat="19.12252" lon="99.16659">
        <time>2019-09-06T06:25:58Z</time>
      </trkpt>
      <trkpt lat="19.12282" lon="99.16656">
        <time>2019-09-06T06:25:59Z</time>
      </trkpt>
      <trkpt lat="19.12308" lon="99.16653">
        <time>2019-09-06T06:26:00Z</time>
      </trkpt>
      <trkpt lat="19.12331" lon="99.16647">
        <time>2019-09-06T06:26:01Z</time>
      </trkpt>
      <trkpt lat="19.12351" lon="99.16644">
        <time>2019-09-06T06:26:02Z</time>
      </trkpt>
      <trkpt lat="19.1237" lon="99.16639">
        <time>2019-09-06T06:26:03Z</time>
      </trkpt>
      <trkpt lat="19.12388" lon="99.16636">
        <time>2019-09-06T06:26:04Z</time>
      </trkpt>
      <trkpt lat="19.12408" lon="99.16632">
        <time>2019-09-06T06:26:05Z</time>
      </trkpt>
      <trkpt lat="19.12425" lon="99.16629">
        <time>2019-09-06T06:26:06Z</time>
      </trkpt>
      <trkpt lat="19.12441" lon="99.16625">
        <time>2019-09-06T06:26:07Z</time>
      </trkpt>
      <trkpt lat="19.12455" lon="99.16622">
        <time>2019-09-06T06:26:08Z</time>
      </trkpt>
      <trkpt lat="19.12466" lon="99.1662">
        <time>2019-09-06T06:26:09Z</time>
      </trkpt>
      <trkpt lat="19.12478" lon="99.16617">
        <time>2019-09-06T06:26:10Z</time>
      </trkpt>
      <trkpt lat="19.12488" lon="99.16615">
        <time>2019-09-06T06:26:11Z</time>
      </trkpt>
      <trkpt lat="19.12497" lon="99.16612">
        <time>2019-09-06T06:26:12Z</time>
      </trkpt>
      <trkpt lat="19.12506" lon="99.16611">
        <time>2019-09-06T06:26:13Z</time>
      </trkpt>
      <trkpt lat="19.12512" lon="99.1661">
        <time>2019-09-06T06:26:14Z</time>
      </trkpt>
      <trkpt lat="19.12519" lon="99.16608">
        <time>2019-09-06T06:26:15Z</time>
      </trkpt>
      <trkpt lat="19.12524" lon="99.16607">
        <time>2019-09-06T06:26:16Z</time>
      </trkpt>
      <trkpt lat="19.12527" lon="99.16606">
        <time>2019-09-06T06:26:17Z</time>
      </trkpt>
      <trkpt lat="19.12532" lon="99.16604">
        <time>2019-09-06T06:26:18Z</time>
      </trkpt>
      <trkpt lat="19.12536" lon="99.16603">
        <time>2019-09-06T06:26:19Z</time>
      </trkpt>
      <trkpt lat="19.1254" lon="99.16601">
        <time>2019-09-06T06:26:20Z</time>
      </trkpt>
      <trkpt lat="19.12543" lon="99.16597">
        <time>2019-09-06T06:26:21Z</time>
      </trkpt>
      <trkpt lat="19.12545" lon="99.16593">
        <time>2019-09-06T06:26:22Z</time>
      </trkpt>
      <trkpt lat="19.12544" lon="99.16587">
        <time>2019-09-06T06:26:23Z</time>
      </trkpt>
      <trkpt lat="19.12544" lon="99.16582">
        <time>2019-09-06T06:26:24Z</time>
      </trkpt>
      <trkpt lat="19.12545" lon="99.16577">
        <time>2019-09-06T06:26:25Z</time>
      </trkpt>
      <trkpt lat="19.12544" lon="99.16573">
        <time>2019-09-06T06:26:26Z</time>
      </trkpt>
      <trkpt lat="19.12545" lon="99.16569">
        <time>2019-09-06T06:26:27Z</time>
      </trkpt>
      <trkpt lat="19.12543" lon="99.16566">
        <time>2019-09-06T06:26:28Z</time>
      </trkpt>
      <trkpt lat="19.12545" lon="99.1656">
        <time>2019-09-06T06:26:29Z</time>
      </trkpt>
      <trkpt lat="19.12542" lon="99.16555">
        <time>2019-09-06T06:26:30Z</time>
      </trkpt>
      <trkpt lat="19.1254" lon="99.16549">
        <time>2019-09-06T06:26:31Z</time>
      </trkpt>
      <trkpt lat="19.12539" lon="99.16543">
        <time>2019-09-06T06:26:32Z</time>
      </trkpt>
      <trkpt lat="19.12537" lon="99.1654">
        <time>2019-09-06T06:26:33Z</time>
      </trkpt>
      <trkpt lat="19.12536" lon="99.16536">
        <time>2019-09-06T06:26:34Z</time>
      </trkpt>
      <trkpt lat="19.12534" lon="99.1653">
        <time>2019-09-06T06:26:35Z</time>
      </trkpt>
      <trkpt lat="19.12533" lon="99.16523">
        <time>2019-09-06T06:26:36Z</time>
      </trkpt>
      <trkpt lat="19.1253" lon="99.16519">
        <time>2019-09-06T06:26:37Z</time>
      </trkpt>
      <trkpt lat="19.12529" lon="99.16513">
        <time>2019-09-06T06:26:38Z</time>
      </trkpt>
      <trkpt lat="19.12526" lon="99.1651">
        <time>2019-09-06T06:26:39Z</time>
      </trkpt>
      <trkpt lat="19.12523" lon="99.16506">
        <time>2019-09-06T06:26:40Z</time>
      </trkpt>
      <trkpt lat="19.1252" lon="99.16502">
        <time>2019-09-06T06:26:41Z</time>
      </trkpt>
      <trkpt lat="19.12518" lon="99.165">
        <time>2019-09-06T06:26:42Z</time>
      </trkpt>
      <trkpt lat="19.12517" lon="99.16498">
        <time>2019-09-06T06:26:43Z</time>
      </trkpt>
      <trkpt lat="19.12515" lon="99.16497">
        <time>2019-09-06T06:26:44Z</time>
      </trkpt>
      <trkpt lat="19.12514" lon="99.16496">
        <time>2019-09-06T06:26:45Z</time>
      </trkpt>
      <trkpt lat="19.12512" lon="99.16495">
        <time>2019-09-06T06:26:46Z</time>
      </trkpt>
      <trkpt lat="19.12508" lon="99.16493">
        <time>2019-09-06T06:26:47Z</time>
      </trkpt>
      <trkpt lat="19.12495" lon="99.16474">
        <time>2019-09-06T06:26:48Z</time>
      </trkpt>
      <trkpt lat="19.12491" lon="99.1647">
        <time>2019-09-06T06:26:49Z</time>
      </trkpt>
      <trkpt lat="19.12488" lon="99.16468">
        <time>2019-09-06T06:26:50Z</time>
      </trkpt>
      <trkpt lat="19.12484" lon="99.16464">
        <time>2019-09-06T06:26:51Z</time>
      </trkpt>
      <trkpt lat="19.12481" lon="99.16463">
        <time>2019-09-06T06:26:52Z</time>
      </trkpt>
      <trkpt lat="19.12479" lon="99.16461">
        <time>2019-09-06T06:26:53Z</time>
      </trkpt>
      <trkpt lat="19.12477" lon="99.1646">
        <time>2019-09-06T06:26:54Z</time>
      </trkpt>
      <trkpt lat="19.12476" lon="99.16459">
        <time>2019-09-06T06:26:55Z</time>
      </trkpt>
      <trkpt lat="19.12474" lon="99.16458">
        <time>2019-09-06T06:26:56Z</time>
      </trkpt>
      <trkpt lat="19.12472" lon="99.16457">
        <time>2019-09-06T06:26:57Z</time>
      </trkpt>
      <trkpt lat="19.12468" lon="99.1645">
        <time>2019-09-06T06:26:58Z</time>
      </trkpt>
      <trkpt lat="19.12459" lon="99.1644">
        <time>2019-09-06T06:26:59Z</time>
      </trkpt>
      <trkpt lat="19.12456" lon="99.16437">
        <time>2019-09-06T06:27:00Z</time>
      </trkpt>
      <trkpt lat="19.12446" lon="99.16435">
        <time>2019-09-06T06:27:07Z</time>
      </trkpt>
      <trkpt lat="19.12439" lon="99.16432">
        <time>2019-09-06T06:27:08Z</time>
      </trkpt>
      <trkpt lat="19.12435" lon="99.16429">
        <time>2019-09-06T06:27:09Z</time>
      </trkpt>
      <trkpt lat="19.1243" lon="99.16422">
        <time>2019-09-06T06:27:10Z</time>
      </trkpt>
      <trkpt lat="19.12424" lon="99.16416">
        <time>2019-09-06T06:27:11Z</time>
      </trkpt>
      <trkpt lat="19.1242" lon="99.16409">
        <time>2019-09-06T06:27:12Z</time>
      </trkpt>
      <trkpt lat="19.12411" lon="99.16407">
        <time>2019-09-06T06:27:13Z</time>
      </trkpt>
      <trkpt lat="19.12406" lon="99.16404">
        <time>2019-09-06T06:27:14Z</time>
      </trkpt>
      <trkpt lat="19.12402" lon="99.164">
        <time>2019-09-06T06:27:15Z</time>
      </trkpt>
      <trkpt lat="19.12404" lon="99.16395">
        <time>2019-09-06T06:27:16Z</time>
      </trkpt>
      <trkpt lat="19.124" lon="99.16392">
        <time>2019-09-06T06:27:17Z</time>
      </trkpt>
      <trkpt lat="19.12401" lon="99.16386">
        <time>2019-09-06T06:27:18Z</time>
      </trkpt>
      <trkpt lat="19.124" lon="99.16382">
        <time>2019-09-06T06:27:19Z</time>
      </trkpt>
      <trkpt lat="19.12401" lon="99.16377">
        <time>2019-09-06T06:27:20Z</time>
      </trkpt>
      <trkpt lat="19.12402" lon="99.16371">
        <time>2019-09-06T06:27:21Z</time>
      </trkpt>
      <trkpt lat="19.12404" lon="99.16365">
        <time>2019-09-06T06:27:22Z</time>
      </trkpt>
      <trkpt lat="19.12403" lon="99.16362">
        <time>2019-09-06T06:27:23Z</time>
      </trkpt>
      <trkpt lat="19.1241" lon="99.16357">
        <time>2019-09-06T06:27:24Z</time>
      </trkpt>
      <trkpt lat="19.12411" lon="99.1635">
        <time>2019-09-06T06:27:25Z</time>
      </trkpt>
      <trkpt lat="19.12414" lon="99.16348">
        <time>2019-09-06T06:27:26Z</time>
      </trkpt>
      <trkpt lat="19.12417" lon="99.16345">
        <time>2019-09-06T06:27:27Z</time>
      </trkpt>
      <trkpt lat="19.12422" lon="99.16341">
        <time>2019-09-06T06:27:28Z</time>
      </trkpt>
      <trkpt lat="19.12423" lon="99.16336">
        <time>2019-09-06T06:27:29Z</time>
      </trkpt>
      <trkpt lat="19.12426" lon="99.16332">
        <time>2019-09-06T06:27:30Z</time>
      </trkpt>
      <trkpt lat="19.1243" lon="99.16327">
        <time>2019-09-06T06:27:31Z</time>
      </trkpt>
      <trkpt lat="19.12434" lon="99.16323">
        <time>2019-09-06T06:27:32Z</time>
      </trkpt>
      <trkpt lat="19.12437" lon="99.16319">
        <time>2019-09-06T06:27:33Z</time>
      </trkpt>
      <trkpt lat="19.12438" lon="99.16313">
        <time>2019-09-06T06:27:34Z</time>
      </trkpt>
      <trkpt lat="19.12439" lon="99.16308">
        <time>2019-09-06T06:27:35Z</time>
      </trkpt>
      <trkpt lat="19.12442" lon="99.16304">
        <time>2019-09-06T06:27:36Z</time>
      </trkpt>
      <trkpt lat="19.12444" lon="99.163">
        <time>2019-09-06T06:27:37Z</time>
      </trkpt>
      <trkpt lat="19.12449" lon="99.16296">
        <time>2019-09-06T06:27:38Z</time>
      </trkpt>
      <trkpt lat="19.12449" lon="99.16289">
        <time>2019-09-06T06:27:39Z</time>
      </trkpt>
      <trkpt lat="19.12449" lon="99.16285">
        <time>2019-09-06T06:27:40Z</time>
      </trkpt>
      <trkpt lat="19.12451" lon="99.1628">
        <time>2019-09-06T06:27:41Z</time>
      </trkpt>
      <trkpt lat="19.12452" lon="99.16274">
        <time>2019-09-06T06:27:42Z</time>
      </trkpt>
      <trkpt lat="19.12453" lon="99.16268">
        <time>2019-09-06T06:27:43Z</time>
      </trkpt>
      <trkpt lat="19.12452" lon="99.16262">
        <time>2019-09-06T06:27:44Z</time>
      </trkpt>
      <trkpt lat="19.12452" lon="99.16255">
        <time>2019-09-06T06:27:45Z</time>
      </trkpt>
      <trkpt lat="19.12453" lon="99.16249">
        <time>2019-09-06T06:27:46Z</time>
      </trkpt>
      <trkpt lat="19.12454" lon="99.16244">
        <time>2019-09-06T06:27:47Z</time>
      </trkpt>
      <trkpt lat="19.12455" lon="99.16238">
        <time>2019-09-06T06:27:48Z</time>
      </trkpt>
      <trkpt lat="19.12457" lon="99.16233">
        <time>2019-09-06T06:27:49Z</time>
      </trkpt>
      <trkpt lat="19.12459" lon="99.16229">
        <time>2019-09-06T06:27:50Z</time>
      </trkpt>
      <trkpt lat="19.12459" lon="99.16224">
        <time>2019-09-06T06:27:51Z</time>
      </trkpt>
      <trkpt lat="19.12462" lon="99.16218">
        <time>2019-09-06T06:27:52Z</time>
      </trkpt>
      <trkpt lat="19.12464" lon="99.16212">
        <time>2019-09-06T06:27:53Z</time>
      </trkpt>
      <trkpt lat="19.12465" lon="99.16207">
        <time>2019-09-06T06:27:54Z</time>
      </trkpt>
      <trkpt lat="19.12467" lon="99.16201">
        <time>2019-09-06T06:27:55Z</time>
      </trkpt>
      <trkpt lat="19.12466" lon="99.16195">
        <time>2019-09-06T06:27:56Z</time>
      </trkpt>
      <trkpt lat="19.12466" lon="99.1619">
        <time>2019-09-06T06:27:57Z</time>
      </trkpt>
      <trkpt lat="19.12469" lon="99.16185">
        <time>2019-09-06T06:27:58Z</time>
      </trkpt>
      <trkpt lat="19.12471" lon="99.16183">
        <time>2019-09-06T06:27:59Z</time>
      </trkpt>
      <trkpt lat="19.12475" lon="99.16179">
        <time>2019-09-06T06:28:00Z</time>
      </trkpt>
      <trkpt lat="19.12476" lon="99.16178">
        <time>2019-09-06T06:28:01Z</time>
      </trkpt>
      <trkpt lat="19.12477" lon="99.16177">
        <time>2019-09-06T06:28:02Z</time>
      </trkpt>
      <trkpt lat="19.12479" lon="99.16176">
        <time>2019-09-06T06:28:03Z</time>
      </trkpt>
      <trkpt lat="19.1248" lon="99.16174">
        <time>2019-09-06T06:28:04Z</time>
      </trkpt>
      <trkpt lat="19.12485" lon="99.1617">
        <time>2019-09-06T06:28:05Z</time>
      </trkpt>
      <trkpt lat="19.12493" lon="99.16167">
        <time>2019-09-06T06:28:06Z</time>
      </trkpt>
      <trkpt lat="19.12508" lon="99.16162">
        <time>2019-09-06T06:28:07Z</time>
      </trkpt>
      <trkpt lat="19.12513" lon="99.1616">
        <time>2019-09-06T06:28:08Z</time>
      </trkpt>
      <trkpt lat="19.12514" lon="99.16155">
        <time>2019-09-06T06:28:09Z</time>
      </trkpt>
      <trkpt lat="19.12519" lon="99.16151">
        <time>2019-09-06T06:28:10Z</time>
      </trkpt>
      <trkpt lat="19.12523" lon="99.16149">
        <time>2019-09-06T06:28:11Z</time>
      </trkpt>
      <trkpt lat="19.12528" lon="99.16146">
        <time>2019-09-06T06:28:12Z</time>
      </trkpt>
      <trkpt lat="19.12532" lon="99.16143">
        <time>2019-09-06T06:28:13Z</time>
      </trkpt>
      <trkpt lat="19.12536" lon="99.16139">
        <time>2019-09-06T06:28:14Z</time>
      </trkpt>
      <trkpt lat="19.1254" lon="99.16135">
        <time>2019-09-06T06:28:15Z</time>
      </trkpt>
      <trkpt lat="19.12544" lon="99.16133">
        <time>2019-09-06T06:28:16Z</time>
      </trkpt>
      <trkpt lat="19.12547" lon="99.16131">
        <time>2019-09-06T06:28:17Z</time>
      </trkpt>
      <trkpt lat="19.12552" lon="99.1613">
        <time>2019-09-06T06:28:18Z</time>
      </trkpt>
      <trkpt lat="19.12555" lon="99.16127">
        <time>2019-09-06T06:28:19Z</time>
      </trkpt>
      <trkpt lat="19.12559" lon="99.16125">
        <time>2019-09-06T06:28:20Z</time>
      </trkpt>
      <trkpt lat="19.12562" lon="99.16121">
        <time>2019-09-06T06:28:21Z</time>
      </trkpt>
      <trkpt lat="19.12565" lon="99.16119">
        <time>2019-09-06T06:28:22Z</time>
      </trkpt>
      <trkpt lat="19.12567" lon="99.16115">
        <time>2019-09-06T06:28:23Z</time>
      </trkpt>
      <trkpt lat="19.12568" lon="99.16113">
        <time>2019-09-06T06:28:24Z</time>
      </trkpt>
      <trkpt lat="19.1257" lon="99.1611">
        <time>2019-09-06T06:28:25Z</time>
      </trkpt>
      <trkpt lat="19.12572" lon="99.16109">
        <time>2019-09-06T06:28:26Z</time>
      </trkpt>
      <trkpt lat="19.12574" lon="99.16108">
        <time>2019-09-06T06:28:27Z</time>
      </trkpt>
      <trkpt lat="19.12576" lon="99.16107">
        <time>2019-09-06T06:28:28Z</time>
      </trkpt>
      <trkpt lat="19.12578" lon="99.16106">
        <time>2019-09-06T06:28:29Z</time>
      </trkpt>
      <trkpt lat="19.1258" lon="99.16105">
        <time>2019-09-06T06:28:30Z</time>
      </trkpt>
      <trkpt lat="19.12581" lon="99.16105">
        <time>2019-09-06T06:28:31Z</time>
      </trkpt>
      <trkpt lat="19.12583" lon="99.16104">
        <time>2019-09-06T06:28:32Z</time>
      </trkpt>
      <trkpt lat="19.12584" lon="99.16104">
        <time>2019-09-06T06:28:33Z</time>
      </trkpt>
      <trkpt lat="19.12585" lon="99.16105">
        <time>2019-09-06T06:28:34Z</time>
      </trkpt>
      <trkpt lat="19.12586" lon="99.16104">
        <time>2019-09-06T06:28:36Z</time>
      </trkpt>
      <trkpt lat="19.12585" lon="99.16105">
        <time>2019-09-06T06:28:55Z</time>
      </trkpt>
      <trkpt lat="19.12584" lon="99.16104">
        <time>2019-09-06T06:28:56Z</time>
      </trkpt>
      <trkpt lat="19.12583" lon="99.16102">
        <time>2019-09-06T06:28:57Z</time>
      </trkpt>
      <trkpt lat="19.12583" lon="99.16101">
        <time>2019-09-06T06:28:58Z</time>
      </trkpt>
      <trkpt lat="19.12582" lon="99.16099">
        <time>2019-09-06T06:29:00Z</time>
      </trkpt>
      <trkpt lat="19.12582" lon="99.16097">
        <time>2019-09-06T06:29:01Z</time>
      </trkpt>
      <trkpt lat="19.12582" lon="99.16095">
        <time>2019-09-06T06:29:02Z</time>
      </trkpt>
      <trkpt lat="19.12582" lon="99.16093">
        <time>2019-09-06T06:29:03Z</time>
      </trkpt>
      <trkpt lat="19.12582" lon="99.16091">
        <time>2019-09-06T06:29:04Z</time>
      </trkpt>
      <trkpt lat="19.12582" lon="99.16089">
        <time>2019-09-06T06:29:05Z</time>
      </trkpt>
      <trkpt lat="19.12581" lon="99.16086">
        <time>2019-09-06T06:29:06Z</time>
      </trkpt>
      <trkpt lat="19.12581" lon="99.16084">
        <time>2019-09-06T06:29:07Z</time>
      </trkpt>
      <trkpt lat="19.1258" lon="99.16082">
        <time>2019-09-06T06:29:08Z</time>
      </trkpt>
      <trkpt lat="19.12578" lon="99.16076">
        <time>2019-09-06T06:29:12Z</time>
      </trkpt>
      <trkpt lat="19.12577" lon="99.16072">
        <time>2019-09-06T06:29:13Z</time>
      </trkpt>
      <trkpt lat="19.12577" lon="99.1607">
        <time>2019-09-06T06:29:14Z</time>
      </trkpt>
      <trkpt lat="19.12576" lon="99.16067">
        <time>2019-09-06T06:29:15Z</time>
      </trkpt>
      <trkpt lat="19.12576" lon="99.16064">
        <time>2019-09-06T06:29:16Z</time>
      </trkpt>
      <trkpt lat="19.12575" lon="99.16062">
        <time>2019-09-06T06:29:17Z</time>
      </trkpt>
      <trkpt lat="19.12573" lon="99.1606">
        <time>2019-09-06T06:29:18Z</time>
      </trkpt>
      <trkpt lat="19.12572" lon="99.16057">
        <time>2019-09-06T06:29:19Z</time>
      </trkpt>
      <trkpt lat="19.12571" lon="99.16056">
        <time>2019-09-06T06:29:20Z</time>
      </trkpt>
      <trkpt lat="19.12569" lon="99.16054">
        <time>2019-09-06T06:29:21Z</time>
      </trkpt>
      <trkpt lat="19.12567" lon="99.16053">
        <time>2019-09-06T06:29:22Z</time>
      </trkpt>
      <trkpt lat="19.12566" lon="99.16051">
        <time>2019-09-06T06:29:23Z</time>
      </trkpt>
      <trkpt lat="19.12567" lon="99.16048">
        <time>2019-09-06T06:29:26Z</time>
      </trkpt>
      <trkpt lat="19.1257" lon="99.16045">
        <time>2019-09-06T06:29:43Z</time>
      </trkpt>
      <trkpt lat="19.12571" lon="99.16046">
        <time>2019-09-06T06:29:44Z</time>
      </trkpt>
      <trkpt lat="19.12573" lon="99.16047">
        <time>2019-09-06T06:29:45Z</time>
      </trkpt>
      <trkpt lat="19.12575" lon="99.16048">
        <time>2019-09-06T06:29:46Z</time>
      </trkpt>
      <trkpt lat="19.12577" lon="99.1605">
        <time>2019-09-06T06:29:47Z</time>
      </trkpt>
      <trkpt lat="19.12579" lon="99.16052">
        <time>2019-09-06T06:29:48Z</time>
      </trkpt>
      <trkpt lat="19.12581" lon="99.16056">
        <time>2019-09-06T06:29:50Z</time>
      </trkpt>
      <trkpt lat="19.12582" lon="99.16058">
        <time>2019-09-06T06:29:51Z</time>
      </trkpt>
      <trkpt lat="19.12583" lon="99.16062">
        <time>2019-09-06T06:29:52Z</time>
      </trkpt>
      <trkpt lat="19.12584" lon="99.16075">
        <time>2019-09-06T06:29:53Z</time>
      </trkpt>
      <trkpt lat="19.12583" lon="99.16079">
        <time>2019-09-06T06:29:54Z</time>
      </trkpt>
      <trkpt lat="19.12582" lon="99.16085">
        <time>2019-09-06T06:29:55Z</time>
      </trkpt>
      <trkpt lat="19.12583" lon="99.16087">
        <time>2019-09-06T06:29:56Z</time>
      </trkpt>
      <trkpt lat="19.12582" lon="99.1609">
        <time>2019-09-06T06:29:57Z</time>
      </trkpt>
      <trkpt lat="19.12582" lon="99.16095">
        <time>2019-09-06T06:29:58Z</time>
      </trkpt>
      <trkpt lat="19.12583" lon="99.16095">
        <time>2019-09-06T06:29:59Z</time>
      </trkpt>
      <trkpt lat="19.1258" lon="99.16099">
        <time>2019-09-06T06:30:00Z</time>
      </trkpt>
      <trkpt lat="19.1258" lon="99.16099">
        <time>2019-09-06T06:30:01Z</time>
      </trkpt>
      <trkpt lat="19.12578" lon="99.16102">
        <time>2019-09-06T06:30:02Z</time>
      </trkpt>
      <trkpt lat="19.12577" lon="99.16103">
        <time>2019-09-06T06:30:03Z</time>
      </trkpt>
      <trkpt lat="19.12575" lon="99.16106">
        <time>2019-09-06T06:30:04Z</time>
      </trkpt>
      <trkpt lat="19.12571" lon="99.16108">
        <time>2019-09-06T06:30:05Z</time>
      </trkpt>
      <trkpt lat="19.12568" lon="99.16111">
        <time>2019-09-06T06:30:06Z</time>
      </trkpt>
      <trkpt lat="19.12565" lon="99.16113">
        <time>2019-09-06T06:30:07Z</time>
      </trkpt>
      <trkpt lat="19.12561" lon="99.16116">
        <time>2019-09-06T06:30:08Z</time>
      </trkpt>
      <trkpt lat="19.12557" lon="99.16118">
        <time>2019-09-06T06:30:09Z</time>
      </trkpt>
      <trkpt lat="19.12553" lon="99.1612">
        <time>2019-09-06T06:30:10Z</time>
      </trkpt>
      <trkpt lat="19.12549" lon="99.16123">
        <time>2019-09-06T06:30:11Z</time>
      </trkpt>
      <trkpt lat="19.12546" lon="99.16126">
        <time>2019-09-06T06:30:12Z</time>
      </trkpt>
      <trkpt lat="19.12542" lon="99.16129">
        <time>2019-09-06T06:30:13Z</time>
      </trkpt>
      <trkpt lat="19.12539" lon="99.16133">
        <time>2019-09-06T06:30:14Z</time>
      </trkpt>
      <trkpt lat="19.12536" lon="99.16137">
        <time>2019-09-06T06:30:15Z</time>
      </trkpt>
      <trkpt lat="19.12532" lon="99.1614">
        <time>2019-09-06T06:30:16Z</time>
      </trkpt>
      <trkpt lat="19.12529" lon="99.16144">
        <time>2019-09-06T06:30:17Z</time>
      </trkpt>
      <trkpt lat="19.12527" lon="99.16148">
        <time>2019-09-06T06:30:18Z</time>
      </trkpt>
      <trkpt lat="19.12524" lon="99.16151">
        <time>2019-09-06T06:30:19Z</time>
      </trkpt>
      <trkpt lat="19.1252" lon="99.16155">
        <time>2019-09-06T06:30:20Z</time>
      </trkpt>
      <trkpt lat="19.12517" lon="99.16158">
        <time>2019-09-06T06:30:21Z</time>
      </trkpt>
      <trkpt lat="19.12509" lon="99.16165">
        <time>2019-09-06T06:30:22Z</time>
      </trkpt>
      <trkpt lat="19.12505" lon="99.16167">
        <time>2019-09-06T06:30:23Z</time>
      </trkpt>
      <trkpt lat="19.12501" lon="99.16169">
        <time>2019-09-06T06:30:24Z</time>
      </trkpt>
      <trkpt lat="19.12495" lon="99.16171">
        <time>2019-09-06T06:30:25Z</time>
      </trkpt>
      <trkpt lat="19.12491" lon="99.16173">
        <time>2019-09-06T06:30:26Z</time>
      </trkpt>
      <trkpt lat="19.12487" lon="99.16175">
        <time>2019-09-06T06:30:27Z</time>
      </trkpt>
      <trkpt lat="19.12482" lon="99.16177">
        <time>2019-09-06T06:30:28Z</time>
      </trkpt>
      <trkpt lat="19.12478" lon="99.1618">
        <time>2019-09-06T06:30:29Z</time>
      </trkpt>
      <trkpt lat="19.12475" lon="99.16183">
        <time>2019-09-06T06:30:30Z</time>
      </trkpt>
      <trkpt lat="19.12469" lon="99.16186">
        <time>2019-09-06T06:30:31Z</time>
      </trkpt>
      <trkpt lat="19.12468" lon="99.16191">
        <time>2019-09-06T06:30:32Z</time>
      </trkpt>
      <trkpt lat="19.12464" lon="99.16196">
        <time>2019-09-06T06:30:33Z</time>
      </trkpt>
      <trkpt lat="19.12463" lon="99.16201">
        <time>2019-09-06T06:30:34Z</time>
      </trkpt>
      <trkpt lat="19.1246" lon="99.16206">
        <time>2019-09-06T06:30:35Z</time>
      </trkpt>
      <trkpt lat="19.1246" lon="99.16211">
        <time>2019-09-06T06:30:36Z</time>
      </trkpt>
      <trkpt lat="19.12459" lon="99.16217">
        <time>2019-09-06T06:30:37Z</time>
      </trkpt>
      <trkpt lat="19.12457" lon="99.16222">
        <time>2019-09-06T06:30:38Z</time>
      </trkpt>
      <trkpt lat="19.12456" lon="99.16228">
        <time>2019-09-06T06:30:39Z</time>
      </trkpt>
      <trkpt lat="19.12454" lon="99.16235">
        <time>2019-09-06T06:30:40Z</time>
      </trkpt>
      <trkpt lat="19.12452" lon="99.16241">
        <time>2019-09-06T06:30:41Z</time>
      </trkpt>
      <trkpt lat="19.12451" lon="99.16247">
        <time>2019-09-06T06:30:42Z</time>
      </trkpt>
      <trkpt lat="19.12448" lon="99.16254">
        <time>2019-09-06T06:30:43Z</time>
      </trkpt>
      <trkpt lat="19.12446" lon="99.1626">
        <time>2019-09-06T06:30:44Z</time>
      </trkpt>
      <trkpt lat="19.12445" lon="99.16265">
        <time>2019-09-06T06:30:45Z</time>
      </trkpt>
      <trkpt lat="19.12446" lon="99.16269">
        <time>2019-09-06T06:30:46Z</time>
      </trkpt>
      <trkpt lat="19.12446" lon="99.16275">
        <time>2019-09-06T06:30:47Z</time>
      </trkpt>
      <trkpt lat="19.12447" lon="99.16281">
        <time>2019-09-06T06:30:48Z</time>
      </trkpt>
      <trkpt lat="19.12448" lon="99.16286">
        <time>2019-09-06T06:30:49Z</time>
      </trkpt>
      <trkpt lat="19.12447" lon="99.16293">
        <time>2019-09-06T06:30:50Z</time>
      </trkpt>
      <trkpt lat="19.12444" lon="99.16299">
        <time>2019-09-06T06:30:51Z</time>
      </trkpt>
      <trkpt lat="19.12443" lon="99.16303">
        <time>2019-09-06T06:30:52Z</time>
      </trkpt>
      <trkpt lat="19.12443" lon="99.16304">
        <time>2019-09-06T06:30:53Z</time>
      </trkpt>
      <trkpt lat="19.12443" lon="99.16306">
        <time>2019-09-06T06:30:54Z</time>
      </trkpt>
      <trkpt lat="19.12442" lon="99.16308">
        <time>2019-09-06T06:30:55Z</time>
      </trkpt>
      <trkpt lat="19.12442" lon="99.16311">
        <time>2019-09-06T06:30:56Z</time>
      </trkpt>
      <trkpt lat="19.12436" lon="99.16319">
        <time>2019-09-06T06:30:57Z</time>
      </trkpt>
      <trkpt lat="19.12428" lon="99.16328">
        <time>2019-09-06T06:30:58Z</time>
      </trkpt>
      <trkpt lat="19.12425" lon="99.16333">
        <time>2019-09-06T06:30:59Z</time>
      </trkpt>
      <trkpt lat="19.12423" lon="99.16339">
        <time>2019-09-06T06:31:00Z</time>
      </trkpt>
      <trkpt lat="19.12421" lon="99.16343">
        <time>2019-09-06T06:31:01Z</time>
      </trkpt>
      <trkpt lat="19.12418" lon="99.16348">
        <time>2019-09-06T06:31:02Z</time>
      </trkpt>
      <trkpt lat="19.12415" lon="99.16353">
        <time>2019-09-06T06:31:03Z</time>
      </trkpt>
      <trkpt lat="19.1241" lon="99.16359">
        <time>2019-09-06T06:31:04Z</time>
      </trkpt>
      <trkpt lat="19.12407" lon="99.16364">
        <time>2019-09-06T06:31:05Z</time>
      </trkpt>
      <trkpt lat="19.12404" lon="99.1637">
        <time>2019-09-06T06:31:06Z</time>
      </trkpt>
      <trkpt lat="19.12402" lon="99.16374">
        <time>2019-09-06T06:31:07Z</time>
      </trkpt>
      <trkpt lat="19.12399" lon="99.16378">
        <time>2019-09-06T06:31:08Z</time>
      </trkpt>
      <trkpt lat="19.12399" lon="99.16383">
        <time>2019-09-06T06:31:09Z</time>
      </trkpt>
      <trkpt lat="19.12398" lon="99.16386">
        <time>2019-09-06T06:31:10Z</time>
      </trkpt>
      <trkpt lat="19.12398" lon="99.16388">
        <time>2019-09-06T06:31:11Z</time>
      </trkpt>
      <trkpt lat="19.12398" lon="99.1639">
        <time>2019-09-06T06:31:12Z</time>
      </trkpt>
      <trkpt lat="19.12398" lon="99.16392">
        <time>2019-09-06T06:31:13Z</time>
      </trkpt>
      <trkpt lat="19.12399" lon="99.16394">
        <time>2019-09-06T06:31:14Z</time>
      </trkpt>
      <trkpt lat="19.12401" lon="99.16396">
        <time>2019-09-06T06:31:15Z</time>
      </trkpt>
      <trkpt lat="19.12403" lon="99.16397">
        <time>2019-09-06T06:31:16Z</time>
      </trkpt>
      <trkpt lat="19.12405" lon="99.16399">
        <time>2019-09-06T06:31:17Z</time>
      </trkpt>
      <trkpt lat="19.12408" lon="99.164">
        <time>2019-09-06T06:31:18Z</time>
      </trkpt>
      <trkpt lat="19.1241" lon="99.16402">
        <time>2019-09-06T06:31:19Z</time>
      </trkpt>
      <trkpt lat="19.12413" lon="99.16403">
        <time>2019-09-06T06:31:20Z</time>
      </trkpt>
      <trkpt lat="19.12443" lon="99.16437">
        <time>2019-09-06T06:31:22Z</time>
      </trkpt>
      <trkpt lat="19.12449" lon="99.16439">
        <time>2019-09-06T06:31:23Z</time>
      </trkpt>
      <trkpt lat="19.12454" lon="99.1644">
        <time>2019-09-06T06:31:24Z</time>
      </trkpt>
      <trkpt lat="19.12457" lon="99.16443">
        <time>2019-09-06T06:31:25Z</time>
      </trkpt>
      <trkpt lat="19.12462" lon="99.16446">
        <time>2019-09-06T06:31:26Z</time>
      </trkpt>
      <trkpt lat="19.12465" lon="99.16452">
        <time>2019-09-06T06:31:27Z</time>
      </trkpt>
      <trkpt lat="19.12468" lon="99.16456">
        <time>2019-09-06T06:31:28Z</time>
      </trkpt>
      <trkpt lat="19.12473" lon="99.1646">
        <time>2019-09-06T06:31:29Z</time>
      </trkpt>
      <trkpt lat="19.12478" lon="99.16464">
        <time>2019-09-06T06:31:30Z</time>
      </trkpt>
      <trkpt lat="19.12482" lon="99.16469">
        <time>2019-09-06T06:31:31Z</time>
      </trkpt>
      <trkpt lat="19.12484" lon="99.1647">
        <time>2019-09-06T06:31:32Z</time>
      </trkpt>
      <trkpt lat="19.12485" lon="99.16471">
        <time>2019-09-06T06:31:33Z</time>
      </trkpt>
      <trkpt lat="19.12487" lon="99.16471">
        <time>2019-09-06T06:31:34Z</time>
      </trkpt>
      <trkpt lat="19.12488" lon="99.16471">
        <time>2019-09-06T06:31:35Z</time>
      </trkpt>
      <trkpt lat="19.1249" lon="99.16472">
        <time>2019-09-06T06:31:36Z</time>
      </trkpt>
      <trkpt lat="19.12492" lon="99.16473">
        <time>2019-09-06T06:31:37Z</time>
      </trkpt>
      <trkpt lat="19.12498" lon="99.16474">
        <time>2019-09-06T06:31:38Z</time>
      </trkpt>
      <trkpt lat="19.12518" lon="99.16503">
        <time>2019-09-06T06:31:39Z</time>
      </trkpt>
      <trkpt lat="19.12521" lon="99.1651">
        <time>2019-09-06T06:31:40Z</time>
      </trkpt>
      <trkpt lat="19.12523" lon="99.16514">
        <time>2019-09-06T06:31:41Z</time>
      </trkpt>
      <trkpt lat="19.12527" lon="99.16519">
        <time>2019-09-06T06:31:42Z</time>
      </trkpt>
      <trkpt lat="19.1253" lon="99.16527">
        <time>2019-09-06T06:31:43Z</time>
      </trkpt>
      <trkpt lat="19.12532" lon="99.16531">
        <time>2019-09-06T06:31:44Z</time>
      </trkpt>
      <trkpt lat="19.12532" lon="99.16532">
        <time>2019-09-06T06:31:45Z</time>
      </trkpt>
      <trkpt lat="19.12532" lon="99.16534">
        <time>2019-09-06T06:31:46Z</time>
      </trkpt>
      <trkpt lat="19.12533" lon="99.16536">
        <time>2019-09-06T06:31:47Z</time>
      </trkpt>
      <trkpt lat="19.12534" lon="99.16539">
        <time>2019-09-06T06:31:48Z</time>
      </trkpt>
      <trkpt lat="19.12538" lon="99.16546">
        <time>2019-09-06T06:31:49Z</time>
      </trkpt>
      <trkpt lat="19.1254" lon="99.16561">
        <time>2019-09-06T06:31:50Z</time>
      </trkpt>
      <trkpt lat="19.12539" lon="99.16566">
        <time>2019-09-06T06:31:51Z</time>
      </trkpt>
      <trkpt lat="19.1254" lon="99.16575">
        <time>2019-09-06T06:31:56Z</time>
      </trkpt>
      <trkpt lat="19.12543" lon="99.16581">
        <time>2019-09-06T06:31:57Z</time>
      </trkpt>
      <trkpt lat="19.12546" lon="99.16583">
        <time>2019-09-06T06:31:58Z</time>
      </trkpt>
      <trkpt lat="19.12543" lon="99.16591">
        <time>2019-09-06T06:31:59Z</time>
      </trkpt>
      <trkpt lat="19.12543" lon="99.16592">
        <time>2019-09-06T06:32:00Z</time>
      </trkpt>
      <trkpt lat="19.12544" lon="99.16593">
        <time>2019-09-06T06:32:01Z</time>
      </trkpt>
      <trkpt lat="19.12546" lon="99.16594">
        <time>2019-09-06T06:32:02Z</time>
      </trkpt>
      <trkpt lat="19.12548" lon="99.16595">
        <time>2019-09-06T06:32:03Z</time>
      </trkpt>
      <trkpt lat="19.1255" lon="99.16595">
        <time>2019-09-06T06:32:04Z</time>
      </trkpt>
      <trkpt lat="19.12552" lon="99.16595">
        <time>2019-09-06T06:32:05Z</time>
      </trkpt>
      <trkpt lat="19.12554" lon="99.16594">
        <time>2019-09-06T06:32:06Z</time>
      </trkpt>
      <trkpt lat="19.12562" lon="99.16592">
        <time>2019-09-06T06:32:07Z</time>
      </trkpt>
      <trkpt lat="19.126" lon="99.16586">
        <time>2019-09-06T06:32:08Z</time>
      </trkpt>
      <trkpt lat="19.12615" lon="99.16582">
        <time>2019-09-06T06:32:09Z</time>
      </trkpt>
      <trkpt lat="19.12632" lon="99.16579">
        <time>2019-09-06T06:32:10Z</time>
      </trkpt>
      <trkpt lat="19.12654" lon="99.16578">
        <time>2019-09-06T06:32:11Z</time>
      </trkpt>
      <trkpt lat="19.12664" lon="99.16572">
        <time>2019-09-06T06:32:12Z</time>
      </trkpt>
      <trkpt lat="19.1268" lon="99.16568">
        <time>2019-09-06T06:32:13Z</time>
      </trkpt>
      <trkpt lat="19.12705" lon="99.16565">
        <time>2019-09-06T06:32:14Z</time>
      </trkpt>
      <trkpt lat="19.12721" lon="99.1656">
        <time>2019-09-06T06:32:15Z</time>
      </trkpt>
      <trkpt lat="19.12734" lon="99.16555">
        <time>2019-09-06T06:32:16Z</time>
      </trkpt>
      <trkpt lat="19.12754" lon="99.1655">
        <time>2019-09-06T06:32:17Z</time>
      </trkpt>
      <trkpt lat="19.1277" lon="99.16547">
        <time>2019-09-06T06:32:18Z</time>
      </trkpt>
      <trkpt lat="19.12792" lon="99.16544">
        <time>2019-09-06T06:32:19Z</time>
      </trkpt>
      <trkpt lat="19.12822" lon="99.16542">
        <time>2019-09-06T06:32:20Z</time>
      </trkpt>
      <trkpt lat="19.12841" lon="99.16538">
        <time>2019-09-06T06:32:21Z</time>
      </trkpt>
      <trkpt lat="19.12867" lon="99.16535">
        <time>2019-09-06T06:32:22Z</time>
      </trkpt>
      <trkpt lat="19.12888" lon="99.1653">
        <time>2019-09-06T06:32:23Z</time>
      </trkpt>
      <trkpt lat="19.12913" lon="99.16523">
        <time>2019-09-06T06:32:24Z</time>
      </trkpt>
      <trkpt lat="19.12937" lon="99.16521">
        <time>2019-09-06T06:32:25Z</time>
      </trkpt>
      <trkpt lat="19.12957" lon="99.16517">
        <time>2019-09-06T06:32:26Z</time>
      </trkpt>
      <trkpt lat="19.12983" lon="99.16513">
        <time>2019-09-06T06:32:27Z</time>
      </trkpt>
      <trkpt lat="19.13007" lon="99.1651">
        <time>2019-09-06T06:32:28Z</time>
      </trkpt>
      <trkpt lat="19.13025" lon="99.16507">
        <time>2019-09-06T06:32:29Z</time>
      </trkpt>
      <trkpt lat="19.13044" lon="99.16503">
        <time>2019-09-06T06:32:30Z</time>
      </trkpt>
      <trkpt lat="19.13065" lon="99.16498">
        <time>2019-09-06T06:32:31Z</time>
      </trkpt>
      <trkpt lat="19.13086" lon="99.16494">
        <time>2019-09-06T06:32:32Z</time>
      </trkpt>
      <trkpt lat="19.13103" lon="99.16488">
        <time>2019-09-06T06:32:33Z</time>
      </trkpt>
      <trkpt lat="19.13124" lon="99.16481">
        <time>2019-09-06T06:32:34Z</time>
      </trkpt>
      <trkpt lat="19.13146" lon="99.16478">
        <time>2019-09-06T06:32:35Z</time>
      </trkpt>
      <trkpt lat="19.13171" lon="99.16474">
        <time>2019-09-06T06:32:36Z</time>
      </trkpt>
      <trkpt lat="19.13195" lon="99.1647">
        <time>2019-09-06T06:32:37Z</time>
      </trkpt>
      <trkpt lat="19.13214" lon="99.16465">
        <time>2019-09-06T06:32:38Z</time>
      </trkpt>
      <trkpt lat="19.13241" lon="99.16461">
        <time>2019-09-06T06:32:39Z</time>
      </trkpt>
      <trkpt lat="19.13265" lon="99.16457">
        <time>2019-09-06T06:32:40Z</time>
      </trkpt>
      <trkpt lat="19.1329" lon="99.16453">
        <time>2019-09-06T06:32:41Z</time>
      </trkpt>
      <trkpt lat="19.13312" lon="99.16449">
        <time>2019-09-06T06:32:42Z</time>
      </trkpt>
      <trkpt lat="19.13336" lon="99.16444">
        <time>2019-09-06T06:32:43Z</time>
      </trkpt>
      <trkpt lat="19.13358" lon="99.16439">
        <time>2019-09-06T06:32:44Z</time>
      </trkpt>
      <trkpt lat="19.13384" lon="99.16435">
        <time>2019-09-06T06:32:45Z</time>
      </trkpt>
      <trkpt lat="19.13401" lon="99.16438">
        <time>2019-09-06T06:32:46Z</time>
      </trkpt>
      <trkpt lat="19.1342" lon="99.16436">
        <time>2019-09-06T06:32:47Z</time>
      </trkpt>
      <trkpt lat="19.1344" lon="99.16436">
        <time>2019-09-06T06:32:48Z</time>
      </trkpt>
      <trkpt lat="19.13462" lon="99.16436">
        <time>2019-09-06T06:32:49Z</time>
      </trkpt>
      <trkpt lat="19.13482" lon="99.16442">
        <time>2019-09-06T06:32:50Z</time>
      </trkpt>
      <trkpt lat="19.13504" lon="99.1645">
        <time>2019-09-06T06:32:51Z</time>
      </trkpt>
      <trkpt lat="19.13524" lon="99.16455">
        <time>2019-09-06T06:32:52Z</time>
      </trkpt>
      <trkpt lat="19.13545" lon="99.16461">
        <time>2019-09-06T06:32:53Z</time>
      </trkpt>
      <trkpt lat="19.13566" lon="99.16466">
        <time>2019-09-06T06:32:54Z</time>
      </trkpt>
      <trkpt lat="19.13587" lon="99.16473">
        <time>2019-09-06T06:32:55Z</time>
      </trkpt>
      <trkpt lat="19.13609" lon="99.16478">
        <time>2019-09-06T06:32:56Z</time>
      </trkpt>
      <trkpt lat="19.13631" lon="99.16484">
        <time>2019-09-06T06:32:57Z</time>
      </trkpt>
      <trkpt lat="19.13652" lon="99.16491">
        <time>2019-09-06T06:32:58Z</time>
      </trkpt>
      <trkpt lat="19.13673" lon="99.16497">
        <time>2019-09-06T06:32:59Z</time>
      </trkpt>
      <trkpt lat="19.13693" lon="99.16502">
        <time>2019-09-06T06:33:00Z</time>
      </trkpt>
      <trkpt lat="19.13715" lon="99.16507">
        <time>2019-09-06T06:33:01Z</time>
      </trkpt>
      <trkpt lat="19.13735" lon="99.16513">
        <time>2019-09-06T06:33:02Z</time>
      </trkpt>
      <trkpt lat="19.13757" lon="99.16518">
        <time>2019-09-06T06:33:03Z</time>
      </trkpt>
      <trkpt lat="19.13778" lon="99.16523">
        <time>2019-09-06T06:33:04Z</time>
      </trkpt>
      <trkpt lat="19.13799" lon="99.16528">
        <time>2019-09-06T06:33:05Z</time>
      </trkpt>
      <trkpt lat="19.13822" lon="99.16529">
        <time>2019-09-06T06:33:06Z</time>
      </trkpt>
      <trkpt lat="19.13842" lon="99.16534">
        <time>2019-09-06T06:33:07Z</time>
      </trkpt>
      <trkpt lat="19.13867" lon="99.16535">
        <time>2019-09-06T06:33:08Z</time>
      </trkpt>
      <trkpt lat="19.13889" lon="99.16537">
        <time>2019-09-06T06:33:09Z</time>
      </trkpt>
      <trkpt lat="19.13911" lon="99.1654">
        <time>2019-09-06T06:33:10Z</time>
      </trkpt>
      <trkpt lat="19.13933" lon="99.16546">
        <time>2019-09-06T06:33:11Z</time>
      </trkpt>
      <trkpt lat="19.13956" lon="99.1655">
        <time>2019-09-06T06:33:12Z</time>
      </trkpt>
      <trkpt lat="19.13977" lon="99.16553">
        <time>2019-09-06T06:33:13Z</time>
      </trkpt>
      <trkpt lat="19.14" lon="99.16556">
        <time>2019-09-06T06:33:14Z</time>
      </trkpt>
      <trkpt lat="19.14021" lon="99.16559">
        <time>2019-09-06T06:33:15Z</time>
      </trkpt>
      <trkpt lat="19.14042" lon="99.16563">
        <time>2019-09-06T06:33:16Z</time>
      </trkpt>
      <trkpt lat="19.14065" lon="99.16567">
        <time>2019-09-06T06:33:17Z</time>
      </trkpt>
      <trkpt lat="19.14086" lon="99.16569">
        <time>2019-09-06T06:33:18Z</time>
      </trkpt>
      <trkpt lat="19.14108" lon="99.16574">
        <time>2019-09-06T06:33:19Z</time>
      </trkpt>
      <trkpt lat="19.14131" lon="99.16577">
        <time>2019-09-06T06:33:20Z</time>
      </trkpt>
      <trkpt lat="19.14155" lon="99.1658">
        <time>2019-09-06T06:33:21Z</time>
      </trkpt>
      <trkpt lat="19.14178" lon="99.16584">
        <time>2019-09-06T06:33:22Z</time>
      </trkpt>
      <trkpt lat="19.14199" lon="99.16584">
        <time>2019-09-06T06:33:23Z</time>
      </trkpt>
      <trkpt lat="19.14221" lon="99.16586">
        <time>2019-09-06T06:33:24Z</time>
      </trkpt>
      <trkpt lat="19.14246" lon="99.16592">
        <time>2019-09-06T06:33:25Z</time>
      </trkpt>
      <trkpt lat="19.14272" lon="99.16594">
        <time>2019-09-06T06:33:26Z</time>
      </trkpt>
      <trkpt lat="19.14293" lon="99.16593">
        <time>2019-09-06T06:33:27Z</time>
      </trkpt>
      <trkpt lat="19.14321" lon="99.16597">
        <time>2019-09-06T06:33:28Z</time>
      </trkpt>
      <trkpt lat="19.14345" lon="99.1659">
        <time>2019-09-06T06:33:29Z</time>
      </trkpt>
      <trkpt lat="19.14368" lon="99.16584">
        <time>2019-09-06T06:33:30Z</time>
      </trkpt>
      <trkpt lat="19.14387" lon="99.16577">
        <time>2019-09-06T06:33:31Z</time>
      </trkpt>
      <trkpt lat="19.14409" lon="99.16574">
        <time>2019-09-06T06:33:32Z</time>
      </trkpt>
      <trkpt lat="19.14429" lon="99.16568">
        <time>2019-09-06T06:33:33Z</time>
      </trkpt>
      <trkpt lat="19.14454" lon="99.16567">
        <time>2019-09-06T06:33:34Z</time>
      </trkpt>
      <trkpt lat="19.14478" lon="99.16567">
        <time>2019-09-06T06:33:35Z</time>
      </trkpt>
      <trkpt lat="19.14495" lon="99.16564">
        <time>2019-09-06T06:33:36Z</time>
      </trkpt>
      <trkpt lat="19.14513" lon="99.16564">
        <time>2019-09-06T06:33:37Z</time>
      </trkpt>
      <trkpt lat="19.14532" lon="99.16565">
        <time>2019-09-06T06:33:38Z</time>
      </trkpt>
      <trkpt lat="19.14549" lon="99.16561">
        <time>2019-09-06T06:33:39Z</time>
      </trkpt>
      <trkpt lat="19.14566" lon="99.16557">
        <time>2019-09-06T06:33:40Z</time>
      </trkpt>
      <trkpt lat="19.14583" lon="99.16555">
        <time>2019-09-06T06:33:42Z</time>
      </trkpt>
      <trkpt lat="19.14603" lon="99.16554">
        <time>2019-09-06T06:33:42Z</time>
      </trkpt>
      <trkpt lat="19.14623" lon="99.16553">
        <time>2019-09-06T06:33:43Z</time>
      </trkpt>
      <trkpt lat="19.1464" lon="99.16551">
        <time>2019-09-06T06:33:44Z</time>
      </trkpt>
      <trkpt lat="19.14659" lon="99.16549">
        <time>2019-09-06T06:33:45Z</time>
      </trkpt>
      <trkpt lat="19.14682" lon="99.16541">
        <time>2019-09-06T06:33:46Z</time>
      </trkpt>
      <trkpt lat="19.14703" lon="99.16534">
        <time>2019-09-06T06:33:47Z</time>
      </trkpt>
      <trkpt lat="19.14725" lon="99.16524">
        <time>2019-09-06T06:33:48Z</time>
      </trkpt>
      <trkpt lat="19.14749" lon="99.16516">
        <time>2019-09-06T06:33:49Z</time>
      </trkpt>
      <trkpt lat="19.14774" lon="99.16507">
        <time>2019-09-06T06:33:50Z</time>
      </trkpt>
      <trkpt lat="19.14797" lon="99.165">
        <time>2019-09-06T06:33:51Z</time>
      </trkpt>
      <trkpt lat="19.14821" lon="99.16491">
        <time>2019-09-06T06:33:52Z</time>
      </trkpt>
      <trkpt lat="19.14843" lon="99.16482">
        <time>2019-09-06T06:33:53Z</time>
      </trkpt>
      <trkpt lat="19.1486" lon="99.16477">
        <time>2019-09-06T06:33:54Z</time>
      </trkpt>
      <trkpt lat="19.14878" lon="99.16465">
        <time>2019-09-06T06:33:55Z</time>
      </trkpt>
      <trkpt lat="19.14904" lon="99.16462">
        <time>2019-09-06T06:33:56Z</time>
      </trkpt>
      <trkpt lat="19.14924" lon="99.16454">
        <time>2019-09-06T06:33:57Z</time>
      </trkpt>
      <trkpt lat="19.14937" lon="99.16445">
        <time>2019-09-06T06:33:58Z</time>
      </trkpt>
      <trkpt lat="19.14944" lon="99.16438">
        <time>2019-09-06T06:33:59Z</time>
      </trkpt>
      <trkpt lat="19.14954" lon="99.16434">
        <time>2019-09-06T06:34:00Z</time>
      </trkpt>
      <trkpt lat="19.14969" lon="99.16428">
        <time>2019-09-06T06:34:01Z</time>
      </trkpt>
      <trkpt lat="19.1498" lon="99.16423">
        <time>2019-09-06T06:34:02Z</time>
      </trkpt>
      <trkpt lat="19.14991" lon="99.16417">
        <time>2019-09-06T06:34:03Z</time>
      </trkpt>
      <trkpt lat="19.15005" lon="99.16412">
        <time>2019-09-06T06:34:04Z</time>
      </trkpt>
      <trkpt lat="19.15019" lon="99.16404">
        <time>2019-09-06T06:34:05Z</time>
      </trkpt>
      <trkpt lat="19.1503" lon="99.16395">
        <time>2019-09-06T06:34:06Z</time>
      </trkpt>
      <trkpt lat="19.15041" lon="99.16387">
        <time>2019-09-06T06:34:07Z</time>
      </trkpt>
      <trkpt lat="19.15052" lon="99.16378">
        <time>2019-09-06T06:34:08Z</time>
      </trkpt>
      <trkpt lat="19.15066" lon="99.16369">
        <time>2019-09-06T06:34:09Z</time>
      </trkpt>
      <trkpt lat="19.15081" lon="99.16359">
        <time>2019-09-06T06:34:10Z</time>
      </trkpt>
      <trkpt lat="19.1509" lon="99.16347">
        <time>2019-09-06T06:34:11Z</time>
      </trkpt>
      <trkpt lat="19.15102" lon="99.16336">
        <time>2019-09-06T06:34:12Z</time>
      </trkpt>
      <trkpt lat="19.15111" lon="99.16326">
        <time>2019-09-06T06:34:13Z</time>
      </trkpt>
      <trkpt lat="19.15124" lon="99.16316">
        <time>2019-09-06T06:34:14Z</time>
      </trkpt>
      <trkpt lat="19.15136" lon="99.16305">
        <time>2019-09-06T06:34:15Z</time>
      </trkpt>
      <trkpt lat="19.15147" lon="99.16295">
        <time>2019-09-06T06:34:16Z</time>
      </trkpt>
      <trkpt lat="19.1516" lon="99.16285">
        <time>2019-09-06T06:34:17Z</time>
      </trkpt>
      <trkpt lat="19.15173" lon="99.16277">
        <time>2019-09-06T06:34:18Z</time>
      </trkpt>
      <trkpt lat="19.15184" lon="99.16268">
        <time>2019-09-06T06:34:19Z</time>
      </trkpt>
      <trkpt lat="19.15194" lon="99.16264">
        <time>2019-09-06T06:34:20Z</time>
      </trkpt>
      <trkpt lat="19.15203" lon="99.16255">
        <time>2019-09-06T06:34:21Z</time>
      </trkpt>
      <trkpt lat="19.15216" lon="99.16252">
        <time>2019-09-06T06:34:22Z</time>
      </trkpt>
      <trkpt lat="19.15231" lon="99.16252">
        <time>2019-09-06T06:34:23Z</time>
      </trkpt>
      <trkpt lat="19.15248" lon="99.16251">
        <time>2019-09-06T06:34:24Z</time>
      </trkpt>
      <trkpt lat="19.15259" lon="99.16252">
        <time>2019-09-06T06:34:25Z</time>
      </trkpt>
      <trkpt lat="19.15277" lon="99.16259">
        <time>2019-09-06T06:34:26Z</time>
      </trkpt>
      <trkpt lat="19.1529" lon="99.16262">
        <time>2019-09-06T06:34:27Z</time>
      </trkpt>
      <trkpt lat="19.15306" lon="99.16265">
        <time>2019-09-06T06:34:28Z</time>
      </trkpt>
      <trkpt lat="19.15327" lon="99.16278">
        <time>2019-09-06T06:34:29Z</time>
      </trkpt>
      <trkpt lat="19.15344" lon="99.16285">
        <time>2019-09-06T06:34:30Z</time>
      </trkpt>
      <trkpt lat="19.15363" lon="99.16294">
        <time>2019-09-06T06:34:31Z</time>
      </trkpt>
      <trkpt lat="19.15382" lon="99.16301">
        <time>2019-09-06T06:34:32Z</time>
      </trkpt>
      <trkpt lat="19.15408" lon="99.1631">
        <time>2019-09-06T06:34:33Z</time>
      </trkpt>
      <trkpt lat="19.15431" lon="99.16321">
        <time>2019-09-06T06:34:34Z</time>
      </trkpt>
      <trkpt lat="19.15453" lon="99.16328">
        <time>2019-09-06T06:34:35Z</time>
      </trkpt>
      <trkpt lat="19.15475" lon="99.16335">
        <time>2019-09-06T06:34:36Z</time>
      </trkpt>
      <trkpt lat="19.15497" lon="99.1634">
        <time>2019-09-06T06:34:37Z</time>
      </trkpt>
      <trkpt lat="19.15518" lon="99.16348">
        <time>2019-09-06T06:34:38Z</time>
      </trkpt>
      <trkpt lat="19.15539" lon="99.16355">
        <time>2019-09-06T06:34:39Z</time>
      </trkpt>
      <trkpt lat="19.15561" lon="99.16362">
        <time>2019-09-06T06:34:40Z</time>
      </trkpt>
      <trkpt lat="19.15584" lon="99.16372">
        <time>2019-09-06T06:34:41Z</time>
      </trkpt>
      <trkpt lat="19.15605" lon="99.16382">
        <time>2019-09-06T06:34:42Z</time>
      </trkpt>
      <trkpt lat="19.15627" lon="99.16391">
        <time>2019-09-06T06:34:43Z</time>
      </trkpt>
      <trkpt lat="19.15649" lon="99.16397">
        <time>2019-09-06T06:34:45Z</time>
      </trkpt>
      <trkpt lat="19.15669" lon="99.16404">
        <time>2019-09-06T06:34:45Z</time>
      </trkpt>
      <trkpt lat="19.15692" lon="99.16411">
        <time>2019-09-06T06:34:46Z</time>
      </trkpt>
      <trkpt lat="19.15715" lon="99.16416">
        <time>2019-09-06T06:34:47Z</time>
      </trkpt>
      <trkpt lat="19.15737" lon="99.16418">
        <time>2019-09-06T06:34:48Z</time>
      </trkpt>
      <trkpt lat="19.15761" lon="99.16419">
        <time>2019-09-06T06:34:49Z</time>
      </trkpt>
      <trkpt lat="19.15784" lon="99.16418">
        <time>2019-09-06T06:34:50Z</time>
      </trkpt>
      <trkpt lat="19.15808" lon="99.16416">
        <time>2019-09-06T06:34:51Z</time>
      </trkpt>
      <trkpt lat="19.15833" lon="99.16411">
        <time>2019-09-06T06:34:52Z</time>
      </trkpt>
      <trkpt lat="19.15857" lon="99.16406">
        <time>2019-09-06T06:34:53Z</time>
      </trkpt>
      <trkpt lat="19.15879" lon="99.16402">
        <time>2019-09-06T06:34:54Z</time>
      </trkpt>
      <trkpt lat="19.15902" lon="99.16397">
        <time>2019-09-06T06:34:55Z</time>
      </trkpt>
      <trkpt lat="19.15925" lon="99.16389">
        <time>2019-09-06T06:34:56Z</time>
      </trkpt>
      <trkpt lat="19.15948" lon="99.16384">
        <time>2019-09-06T06:34:57Z</time>
      </trkpt>
      <trkpt lat="19.15974" lon="99.16379">
        <time>2019-09-06T06:34:58Z</time>
      </trkpt>
      <trkpt lat="19.16002" lon="99.16373">
        <time>2019-09-06T06:34:59Z</time>
      </trkpt>
      <trkpt lat="19.16023" lon="99.16367">
        <time>2019-09-06T06:35:00Z</time>
      </trkpt>
      <trkpt lat="19.16046" lon="99.1636">
        <time>2019-09-06T06:35:01Z</time>
      </trkpt>
      <trkpt lat="19.16067" lon="99.16357">
        <time>2019-09-06T06:35:02Z</time>
      </trkpt>
      <trkpt lat="19.16089" lon="99.16352">
        <time>2019-09-06T06:35:03Z</time>
      </trkpt>
      <trkpt lat="19.16114" lon="99.16348">
        <time>2019-09-06T06:35:04Z</time>
      </trkpt>
      <trkpt lat="19.16135" lon="99.16346">
        <time>2019-09-06T06:35:05Z</time>
      </trkpt>
      <trkpt lat="19.16157" lon="99.16346">
        <time>2019-09-06T06:35:06Z</time>
      </trkpt>
      <trkpt lat="19.16177" lon="99.16346">
        <time>2019-09-06T06:35:07Z</time>
      </trkpt>
      <trkpt lat="19.162" lon="99.16347">
        <time>2019-09-06T06:35:08Z</time>
      </trkpt>
      <trkpt lat="19.16227" lon="99.16352">
        <time>2019-09-06T06:35:09Z</time>
      </trkpt>
      <trkpt lat="19.16251" lon="99.16353">
        <time>2019-09-06T06:35:10Z</time>
      </trkpt>
      <trkpt lat="19.16274" lon="99.16356">
        <time>2019-09-06T06:35:11Z</time>
      </trkpt>
      <trkpt lat="19.16293" lon="99.1636">
        <time>2019-09-06T06:35:12Z</time>
      </trkpt>
      <trkpt lat="19.16313" lon="99.16364">
        <time>2019-09-06T06:35:13Z</time>
      </trkpt>
      <trkpt lat="19.16332" lon="99.16367">
        <time>2019-09-06T06:35:14Z</time>
      </trkpt>
      <trkpt lat="19.16347" lon="99.1637">
        <time>2019-09-06T06:35:15Z</time>
      </trkpt>
      <trkpt lat="19.16367" lon="99.16376">
        <time>2019-09-06T06:35:16Z</time>
      </trkpt>
      <trkpt lat="19.16387" lon="99.16391">
        <time>2019-09-06T06:35:17Z</time>
      </trkpt>
      <trkpt lat="19.16405" lon="99.16419">
        <time>2019-09-06T06:35:18Z</time>
      </trkpt>
      <trkpt lat="19.16422" lon="99.16431">
        <time>2019-09-06T06:35:19Z</time>
      </trkpt>
      <trkpt lat="19.16439" lon="99.1645">
        <time>2019-09-06T06:35:20Z</time>
      </trkpt>
      <trkpt lat="19.16457" lon="99.16466">
        <time>2019-09-06T06:35:21Z</time>
      </trkpt>
      <trkpt lat="19.16474" lon="99.16484">
        <time>2019-09-06T06:35:22Z</time>
      </trkpt>
      <trkpt lat="19.16492" lon="99.16498">
        <time>2019-09-06T06:35:23Z</time>
      </trkpt>
      <trkpt lat="19.16509" lon="99.16513">
        <time>2019-09-06T06:35:24Z</time>
      </trkpt>
      <trkpt lat="19.16523" lon="99.16524">
        <time>2019-09-06T06:35:25Z</time>
      </trkpt>
      <trkpt lat="19.16539" lon="99.16541">
        <time>2019-09-06T06:35:26Z</time>
      </trkpt>
      <trkpt lat="19.16553" lon="99.16555">
        <time>2019-09-06T06:35:27Z</time>
      </trkpt>
      <trkpt lat="19.16566" lon="99.16565">
        <time>2019-09-06T06:35:28Z</time>
      </trkpt>
      <trkpt lat="19.16582" lon="99.16577">
        <time>2019-09-06T06:35:29Z</time>
      </trkpt>
      <trkpt lat="19.166" lon="99.16585">
        <time>2019-09-06T06:35:30Z</time>
      </trkpt>
      <trkpt lat="19.16621" lon="99.16592">
        <time>2019-09-06T06:35:31Z</time>
      </trkpt>
      <trkpt lat="19.16642" lon="99.16601">
        <time>2019-09-06T06:35:32Z</time>
      </trkpt>
      <trkpt lat="19.16662" lon="99.16609">
        <time>2019-09-06T06:35:33Z</time>
      </trkpt>
      <trkpt lat="19.16683" lon="99.16599">
        <time>2019-09-06T06:35:34Z</time>
      </trkpt>
      <trkpt lat="19.16702" lon="99.16592">
        <time>2019-09-06T06:35:35Z</time>
      </trkpt>
      <trkpt lat="19.16719" lon="99.16582">
        <time>2019-09-06T06:35:36Z</time>
      </trkpt>
      <trkpt lat="19.16728" lon="99.16549">
        <time>2019-09-06T06:35:37Z</time>
      </trkpt>
      <trkpt lat="19.16741" lon="99.16531">
        <time>2019-09-06T06:35:38Z</time>
      </trkpt>
      <trkpt lat="19.16753" lon="99.16512">
        <time>2019-09-06T06:35:39Z</time>
      </trkpt>
      <trkpt lat="19.16767" lon="99.16495">
        <time>2019-09-06T06:35:40Z</time>
      </trkpt>
      <trkpt lat="19.1678" lon="99.16473">
        <time>2019-09-06T06:35:41Z</time>
      </trkpt>
      <trkpt lat="19.16789" lon="99.16455">
        <time>2019-09-06T06:35:42Z</time>
      </trkpt>
      <trkpt lat="19.16803" lon="99.16437">
        <time>2019-09-06T06:35:43Z</time>
      </trkpt>
      <trkpt lat="19.16816" lon="99.1642">
        <time>2019-09-06T06:35:44Z</time>
      </trkpt>
      <trkpt lat="19.16831" lon="99.16402">
        <time>2019-09-06T06:35:45Z</time>
      </trkpt>
      <trkpt lat="19.16846" lon="99.16386">
        <time>2019-09-06T06:35:46Z</time>
      </trkpt>
      <trkpt lat="19.1686" lon="99.16369">
        <time>2019-09-06T06:35:47Z</time>
      </trkpt>
      <trkpt lat="19.16877" lon="99.16354">
        <time>2019-09-06T06:35:48Z</time>
      </trkpt>
      <trkpt lat="19.16892" lon="99.16339">
        <time>2019-09-06T06:35:49Z</time>
      </trkpt>
      <trkpt lat="19.16908" lon="99.16321">
        <time>2019-09-06T06:35:50Z</time>
      </trkpt>
      <trkpt lat="19.16924" lon="99.16306">
        <time>2019-09-06T06:35:51Z</time>
      </trkpt>
      <trkpt lat="19.16939" lon="99.1629">
        <time>2019-09-06T06:35:52Z</time>
      </trkpt>
      <trkpt lat="19.16953" lon="99.16278">
        <time>2019-09-06T06:35:53Z</time>
      </trkpt>
      <trkpt lat="19.16974" lon="99.16263">
        <time>2019-09-06T06:35:54Z</time>
      </trkpt>
      <trkpt lat="19.1699" lon="99.16252">
        <time>2019-09-06T06:35:55Z</time>
      </trkpt>
      <trkpt lat="19.17012" lon="99.16248">
        <time>2019-09-06T06:35:56Z</time>
      </trkpt>
      <trkpt lat="19.17033" lon="99.16247">
        <time>2019-09-06T06:35:57Z</time>
      </trkpt>
      <trkpt lat="19.17056" lon="99.1624">
        <time>2019-09-06T06:35:58Z</time>
      </trkpt>
      <trkpt lat="19.17095" lon="99.16244">
        <time>2019-09-06T06:35:59Z</time>
      </trkpt>
      <trkpt lat="19.17115" lon="99.16233">
        <time>2019-09-06T06:36:00Z</time>
      </trkpt>
      <trkpt lat="19.17137" lon="99.16219">
        <time>2019-09-06T06:36:01Z</time>
      </trkpt>
      <trkpt lat="19.17156" lon="99.16211">
        <time>2019-09-06T06:36:02Z</time>
      </trkpt>
      <trkpt lat="19.17175" lon="99.16204">
        <time>2019-09-06T06:36:03Z</time>
      </trkpt>
      <trkpt lat="19.17195" lon="99.16203">
        <time>2019-09-06T06:36:04Z</time>
      </trkpt>
      <trkpt lat="19.1722" lon="99.16211">
        <time>2019-09-06T06:36:05Z</time>
      </trkpt>
      <trkpt lat="19.1724" lon="99.16211">
        <time>2019-09-06T06:36:06Z</time>
      </trkpt>
      <trkpt lat="19.17262" lon="99.16209">
        <time>2019-09-06T06:36:07Z</time>
      </trkpt>
      <trkpt lat="19.17281" lon="99.16205">
        <time>2019-09-06T06:36:08Z</time>
      </trkpt>
      <trkpt lat="19.17302" lon="99.16203">
        <time>2019-09-06T06:36:09Z</time>
      </trkpt>
      <trkpt lat="19.17322" lon="99.16208">
        <time>2019-09-06T06:36:10Z</time>
      </trkpt>
      <trkpt lat="19.17334" lon="99.16216">
        <time>2019-09-06T06:36:11Z</time>
      </trkpt>
      <trkpt lat="19.1735" lon="99.16223">
        <time>2019-09-06T06:36:12Z</time>
      </trkpt>
      <trkpt lat="19.17366" lon="99.16234">
        <time>2019-09-06T06:36:13Z</time>
      </trkpt>
      <trkpt lat="19.1739" lon="99.1627">
        <time>2019-09-06T06:36:14Z</time>
      </trkpt>
      <trkpt lat="19.17409" lon="99.16286">
        <time>2019-09-06T06:36:15Z</time>
      </trkpt>
      <trkpt lat="19.17429" lon="99.16308">
        <time>2019-09-06T06:36:16Z</time>
      </trkpt>
      <trkpt lat="19.17449" lon="99.16325">
        <time>2019-09-06T06:36:17Z</time>
      </trkpt>
      <trkpt lat="19.17468" lon="99.16343">
        <time>2019-09-06T06:36:18Z</time>
      </trkpt>
      <trkpt lat="19.17486" lon="99.16357">
        <time>2019-09-06T06:36:19Z</time>
      </trkpt>
      <trkpt lat="19.17503" lon="99.16369">
        <time>2019-09-06T06:36:20Z</time>
      </trkpt>
      <trkpt lat="19.17519" lon="99.16385">
        <time>2019-09-06T06:36:21Z</time>
      </trkpt>
      <trkpt lat="19.17535" lon="99.16398">
        <time>2019-09-06T06:36:22Z</time>
      </trkpt>
      <trkpt lat="19.17552" lon="99.16409">
        <time>2019-09-06T06:36:23Z</time>
      </trkpt>
      <trkpt lat="19.17567" lon="99.16422">
        <time>2019-09-06T06:36:24Z</time>
      </trkpt>
      <trkpt lat="19.17586" lon="99.16438">
        <time>2019-09-06T06:36:25Z</time>
      </trkpt>
      <trkpt lat="19.17602" lon="99.16448">
        <time>2019-09-06T06:36:26Z</time>
      </trkpt>
      <trkpt lat="19.17619" lon="99.16467">
        <time>2019-09-06T06:36:27Z</time>
      </trkpt>
      <trkpt lat="19.17644" lon="99.16484">
        <time>2019-09-06T06:36:28Z</time>
      </trkpt>
      <trkpt lat="19.17656" lon="99.16497">
        <time>2019-09-06T06:36:29Z</time>
      </trkpt>
      <trkpt lat="19.17672" lon="99.16509">
        <time>2019-09-06T06:36:30Z</time>
      </trkpt>
      <trkpt lat="19.17683" lon="99.16511">
        <time>2019-09-06T06:36:31Z</time>
      </trkpt>
      <trkpt lat="19.17697" lon="99.16519">
        <time>2019-09-06T06:36:32Z</time>
      </trkpt>
      <trkpt lat="19.17711" lon="99.16531">
        <time>2019-09-06T06:36:33Z</time>
      </trkpt>
      <trkpt lat="19.17724" lon="99.16538">
        <time>2019-09-06T06:36:34Z</time>
      </trkpt>
      <trkpt lat="19.17737" lon="99.16547">
        <time>2019-09-06T06:36:35Z</time>
      </trkpt>
      <trkpt lat="19.1775" lon="99.16554">
        <time>2019-09-06T06:36:36Z</time>
      </trkpt>
      <trkpt lat="19.17763" lon="99.16567">
        <time>2019-09-06T06:36:37Z</time>
      </trkpt>
      <trkpt lat="19.17775" lon="99.16578">
        <time>2019-09-06T06:36:38Z</time>
      </trkpt>
      <trkpt lat="19.17787" lon="99.16592">
        <time>2019-09-06T06:36:39Z</time>
      </trkpt>
      <trkpt lat="19.178" lon="99.16602">
        <time>2019-09-06T06:36:40Z</time>
      </trkpt>
      <trkpt lat="19.17808" lon="99.16626">
        <time>2019-09-06T06:36:41Z</time>
      </trkpt>
      <trkpt lat="19.17816" lon="99.16641">
        <time>2019-09-06T06:36:42Z</time>
      </trkpt>
      <trkpt lat="19.17824" lon="99.16655">
        <time>2019-09-06T06:36:43Z</time>
      </trkpt>
      <trkpt lat="19.17832" lon="99.16669">
        <time>2019-09-06T06:36:44Z</time>
      </trkpt>
      <trkpt lat="19.17841" lon="99.16682">
        <time>2019-09-06T06:36:45Z</time>
      </trkpt>
      <trkpt lat="19.1785" lon="99.16696">
        <time>2019-09-06T06:36:46Z</time>
      </trkpt>
      <trkpt lat="19.17859" lon="99.16713">
        <time>2019-09-06T06:36:47Z</time>
      </trkpt>
      <trkpt lat="19.17865" lon="99.16738">
        <time>2019-09-06T06:36:48Z</time>
      </trkpt>
      <trkpt lat="19.17873" lon="99.16756">
        <time>2019-09-06T06:36:49Z</time>
      </trkpt>
      <trkpt lat="19.17881" lon="99.16778">
        <time>2019-09-06T06:36:50Z</time>
      </trkpt>
      <trkpt lat="19.17888" lon="99.16798">
        <time>2019-09-06T06:36:51Z</time>
      </trkpt>
      <trkpt lat="19.17898" lon="99.16822">
        <time>2019-09-06T06:36:52Z</time>
      </trkpt>
      <trkpt lat="19.17907" lon="99.16849">
        <time>2019-09-06T06:36:53Z</time>
      </trkpt>
      <trkpt lat="19.17916" lon="99.16874">
        <time>2019-09-06T06:36:54Z</time>
      </trkpt>
      <trkpt lat="19.17925" lon="99.16899">
        <time>2019-09-06T06:36:55Z</time>
      </trkpt>
      <trkpt lat="19.17935" lon="99.16922">
        <time>2019-09-06T06:36:56Z</time>
      </trkpt>
      <trkpt lat="19.17944" lon="99.16945">
        <time>2019-09-06T06:36:57Z</time>
      </trkpt>
      <trkpt lat="19.17954" lon="99.16966">
        <time>2019-09-06T06:36:58Z</time>
      </trkpt>
      <trkpt lat="19.17962" lon="99.16986">
        <time>2019-09-06T06:36:59Z</time>
      </trkpt>
      <trkpt lat="19.1797" lon="99.17008">
        <time>2019-09-06T06:37:00Z</time>
      </trkpt>
      <trkpt lat="19.17977" lon="99.17029">
        <time>2019-09-06T06:37:01Z</time>
      </trkpt>
      <trkpt lat="19.17985" lon="99.17051">
        <time>2019-09-06T06:37:02Z</time>
      </trkpt>
      <trkpt lat="19.17991" lon="99.17071">
        <time>2019-09-06T06:37:03Z</time>
      </trkpt>
      <trkpt lat="19.17986" lon="99.17093">
        <time>2019-09-06T06:37:04Z</time>
      </trkpt>
      <trkpt lat="19.17986" lon="99.1712">
        <time>2019-09-06T06:37:05Z</time>
      </trkpt>
      <trkpt lat="19.17989" lon="99.17144">
        <time>2019-09-06T06:37:06Z</time>
      </trkpt>
      <trkpt lat="19.17995" lon="99.17165">
        <time>2019-09-06T06:37:07Z</time>
      </trkpt>
      <trkpt lat="19.18002" lon="99.17186">
        <time>2019-09-06T06:37:08Z</time>
      </trkpt>
      <trkpt lat="19.18006" lon="99.17208">
        <time>2019-09-06T06:37:09Z</time>
      </trkpt>
      <trkpt lat="19.18017" lon="99.17229">
        <time>2019-09-06T06:37:10Z</time>
      </trkpt>
      <trkpt lat="19.18026" lon="99.1725">
        <time>2019-09-06T06:37:11Z</time>
      </trkpt>
      <trkpt lat="19.18035" lon="99.1727">
        <time>2019-09-06T06:37:12Z</time>
      </trkpt>
      <trkpt lat="19.18051" lon="99.17288">
        <time>2019-09-06T06:37:13Z</time>
      </trkpt>
      <trkpt lat="19.18068" lon="99.17308">
        <time>2019-09-06T06:37:14Z</time>
      </trkpt>
      <trkpt lat="19.18085" lon="99.1733">
        <time>2019-09-06T06:37:15Z</time>
      </trkpt>
      <trkpt lat="19.18102" lon="99.17332">
        <time>2019-09-06T06:37:16Z</time>
      </trkpt>
      <trkpt lat="19.1812" lon="99.1734">
        <time>2019-09-06T06:37:17Z</time>
      </trkpt>
      <trkpt lat="19.18136" lon="99.17342">
        <time>2019-09-06T06:37:18Z</time>
      </trkpt>
      <trkpt lat="19.18151" lon="99.17348">
        <time>2019-09-06T06:37:19Z</time>
      </trkpt>
      <trkpt lat="19.18168" lon="99.17353">
        <time>2019-09-06T06:37:21Z</time>
      </trkpt>
      <trkpt lat="19.18185" lon="99.17352">
        <time>2019-09-06T06:37:21Z</time>
      </trkpt>
      <trkpt lat="19.18203" lon="99.17349">
        <time>2019-09-06T06:37:22Z</time>
      </trkpt>
      <trkpt lat="19.18222" lon="99.17349">
        <time>2019-09-06T06:37:23Z</time>
      </trkpt>
      <trkpt lat="19.18241" lon="99.17348">
        <time>2019-09-06T06:37:24Z</time>
      </trkpt>
      <trkpt lat="19.18261" lon="99.17344">
        <time>2019-09-06T06:37:25Z</time>
      </trkpt>
      <trkpt lat="19.18279" lon="99.17336">
        <time>2019-09-06T06:37:26Z</time>
      </trkpt>
      <trkpt lat="19.183" lon="99.17324">
        <time>2019-09-06T06:37:27Z</time>
      </trkpt>
      <trkpt lat="19.18323" lon="99.17316">
        <time>2019-09-06T06:37:28Z</time>
      </trkpt>
      <trkpt lat="19.18344" lon="99.17303">
        <time>2019-09-06T06:37:29Z</time>
      </trkpt>
      <trkpt lat="19.18366" lon="99.17292">
        <time>2019-09-06T06:37:30Z</time>
      </trkpt>
      <trkpt lat="19.18389" lon="99.17283">
        <time>2019-09-06T06:37:31Z</time>
      </trkpt>
      <trkpt lat="19.1841" lon="99.17275">
        <time>2019-09-06T06:37:32Z</time>
      </trkpt>
      <trkpt lat="19.18428" lon="99.17269">
        <time>2019-09-06T06:37:33Z</time>
      </trkpt>
      <trkpt lat="19.18447" lon="99.17265">
        <time>2019-09-06T06:37:34Z</time>
      </trkpt>
      <trkpt lat="19.18469" lon="99.17261">
        <time>2019-09-06T06:37:35Z</time>
      </trkpt>
      <trkpt lat="19.1849" lon="99.17255">
        <time>2019-09-06T06:37:36Z</time>
      </trkpt>
      <trkpt lat="19.18517" lon="99.17251">
        <time>2019-09-06T06:37:37Z</time>
      </trkpt>
      <trkpt lat="19.18537" lon="99.17257">
        <time>2019-09-06T06:37:38Z</time>
      </trkpt>
      <trkpt lat="19.18568" lon="99.1726">
        <time>2019-09-06T06:37:39Z</time>
      </trkpt>
      <trkpt lat="19.18592" lon="99.17256">
        <time>2019-09-06T06:37:40Z</time>
      </trkpt>
      <trkpt lat="19.18618" lon="99.17255">
        <time>2019-09-06T06:37:41Z</time>
      </trkpt>
      <trkpt lat="19.18636" lon="99.17251">
        <time>2019-09-06T06:37:42Z</time>
      </trkpt>
      <trkpt lat="19.1866" lon="99.17248">
        <time>2019-09-06T06:37:43Z</time>
      </trkpt>
      <trkpt lat="19.18687" lon="99.17249">
        <time>2019-09-06T06:37:44Z</time>
      </trkpt>
      <trkpt lat="19.18712" lon="99.17247">
        <time>2019-09-06T06:37:45Z</time>
      </trkpt>
      <trkpt lat="19.18734" lon="99.17248">
        <time>2019-09-06T06:37:46Z</time>
      </trkpt>
      <trkpt lat="19.18753" lon="99.17249">
        <time>2019-09-06T06:37:47Z</time>
      </trkpt>
      <trkpt lat="19.18772" lon="99.1725">
        <time>2019-09-06T06:37:48Z</time>
      </trkpt>
      <trkpt lat="19.18792" lon="99.17256">
        <time>2019-09-06T06:37:49Z</time>
      </trkpt>
      <trkpt lat="19.18815" lon="99.17266">
        <time>2019-09-06T06:37:50Z</time>
      </trkpt>
      <trkpt lat="19.18841" lon="99.17294">
        <time>2019-09-06T06:37:51Z</time>
      </trkpt>
      <trkpt lat="19.18862" lon="99.17306">
        <time>2019-09-06T06:37:52Z</time>
      </trkpt>
      <trkpt lat="19.18883" lon="99.17319">
        <time>2019-09-06T06:37:53Z</time>
      </trkpt>
      <trkpt lat="19.18904" lon="99.1733">
        <time>2019-09-06T06:37:54Z</time>
      </trkpt>
      <trkpt lat="19.18923" lon="99.17341">
        <time>2019-09-06T06:37:55Z</time>
      </trkpt>
      <trkpt lat="19.18942" lon="99.1735">
        <time>2019-09-06T06:37:56Z</time>
      </trkpt>
      <trkpt lat="19.18961" lon="99.17359">
        <time>2019-09-06T06:37:57Z</time>
      </trkpt>
      <trkpt lat="19.1898" lon="99.17369">
        <time>2019-09-06T06:37:58Z</time>
      </trkpt>
      <trkpt lat="19.18999" lon="99.17377">
        <time>2019-09-06T06:37:59Z</time>
      </trkpt>
      <trkpt lat="19.19022" lon="99.17388">
        <time>2019-09-06T06:38:00Z</time>
      </trkpt>
      <trkpt lat="19.1904" lon="99.17373">
        <time>2019-09-06T06:38:01Z</time>
      </trkpt>
      <trkpt lat="19.1906" lon="99.17366">
        <time>2019-09-06T06:38:02Z</time>
      </trkpt>
      <trkpt lat="19.19077" lon="99.17352">
        <time>2019-09-06T06:38:03Z</time>
      </trkpt>
      <trkpt lat="19.19095" lon="99.1734">
        <time>2019-09-06T06:38:04Z</time>
      </trkpt>
      <trkpt lat="19.19111" lon="99.1732">
        <time>2019-09-06T06:38:05Z</time>
      </trkpt>
      <trkpt lat="19.19128" lon="99.17302">
        <time>2019-09-06T06:38:06Z</time>
      </trkpt>
      <trkpt lat="19.19146" lon="99.17287">
        <time>2019-09-06T06:38:07Z</time>
      </trkpt>
      <trkpt lat="19.19164" lon="99.1727">
        <time>2019-09-06T06:38:08Z</time>
      </trkpt>
      <trkpt lat="19.19183" lon="99.17254">
        <time>2019-09-06T06:38:09Z</time>
      </trkpt>
      <trkpt lat="19.19199" lon="99.17238">
        <time>2019-09-06T06:38:10Z</time>
      </trkpt>
      <trkpt lat="19.19216" lon="99.17224">
        <time>2019-09-06T06:38:11Z</time>
      </trkpt>
      <trkpt lat="19.19228" lon="99.17205">
        <time>2019-09-06T06:38:12Z</time>
      </trkpt>
      <trkpt lat="19.19239" lon="99.17186">
        <time>2019-09-06T06:38:13Z</time>
      </trkpt>
      <trkpt lat="19.19254" lon="99.1717">
        <time>2019-09-06T06:38:14Z</time>
      </trkpt>
      <trkpt lat="19.19263" lon="99.17152">
        <time>2019-09-06T06:38:15Z</time>
      </trkpt>
      <trkpt lat="19.19275" lon="99.17134">
        <time>2019-09-06T06:38:17Z</time>
      </trkpt>
      <trkpt lat="19.19288" lon="99.17118">
        <time>2019-09-06T06:38:17Z</time>
      </trkpt>
      <trkpt lat="19.193" lon="99.17101">
        <time>2019-09-06T06:38:18Z</time>
      </trkpt>
      <trkpt lat="19.19311" lon="99.17085">
        <time>2019-09-06T06:38:19Z</time>
      </trkpt>
      <trkpt lat="19.19322" lon="99.17073">
        <time>2019-09-06T06:38:20Z</time>
      </trkpt>
      <trkpt lat="19.19335" lon="99.17061">
        <time>2019-09-06T06:38:21Z</time>
      </trkpt>
      <trkpt lat="19.19354" lon="99.17053">
        <time>2019-09-06T06:38:22Z</time>
      </trkpt>
      <trkpt lat="19.19369" lon="99.17044">
        <time>2019-09-06T06:38:23Z</time>
      </trkpt>
      <trkpt lat="19.19389" lon="99.17036">
        <time>2019-09-06T06:38:24Z</time>
      </trkpt>
      <trkpt lat="19.19409" lon="99.17031">
        <time>2019-09-06T06:38:25Z</time>
      </trkpt>
      <trkpt lat="19.19434" lon="99.17028">
        <time>2019-09-06T06:38:26Z</time>
      </trkpt>
      <trkpt lat="19.19446" lon="99.17023">
        <time>2019-09-06T06:38:27Z</time>
      </trkpt>
      <trkpt lat="19.19471" lon="99.17021">
        <time>2019-09-06T06:38:28Z</time>
      </trkpt>
      <trkpt lat="19.19491" lon="99.17019">
        <time>2019-09-06T06:38:29Z</time>
      </trkpt>
      <trkpt lat="19.1951" lon="99.17018">
        <time>2019-09-06T06:38:30Z</time>
      </trkpt>
      <trkpt lat="19.19534" lon="99.17023">
        <time>2019-09-06T06:38:31Z</time>
      </trkpt>
      <trkpt lat="19.19557" lon="99.17043">
        <time>2019-09-06T06:38:32Z</time>
      </trkpt>
      <trkpt lat="19.19577" lon="99.17057">
        <time>2019-09-06T06:38:33Z</time>
      </trkpt>
      <trkpt lat="19.19592" lon="99.17068">
        <time>2019-09-06T06:38:34Z</time>
      </trkpt>
      <trkpt lat="19.1961" lon="99.17087">
        <time>2019-09-06T06:38:35Z</time>
      </trkpt>
      <trkpt lat="19.19629" lon="99.17102">
        <time>2019-09-06T06:38:36Z</time>
      </trkpt>
      <trkpt lat="19.19648" lon="99.1712">
        <time>2019-09-06T06:38:37Z</time>
      </trkpt>
      <trkpt lat="19.19665" lon="99.17139">
        <time>2019-09-06T06:38:38Z</time>
      </trkpt>
      <trkpt lat="19.19683" lon="99.17153">
        <time>2019-09-06T06:38:39Z</time>
      </trkpt>
      <trkpt lat="19.19702" lon="99.17169">
        <time>2019-09-06T06:38:40Z</time>
      </trkpt>
      <trkpt lat="19.19721" lon="99.17181">
        <time>2019-09-06T06:38:41Z</time>
      </trkpt>
      <trkpt lat="19.19742" lon="99.17195">
        <time>2019-09-06T06:38:42Z</time>
      </trkpt>
      <trkpt lat="19.19761" lon="99.17206">
        <time>2019-09-06T06:38:43Z</time>
      </trkpt>
      <trkpt lat="19.19782" lon="99.17218">
        <time>2019-09-06T06:38:44Z</time>
      </trkpt>
      <trkpt lat="19.19802" lon="99.17227">
        <time>2019-09-06T06:38:45Z</time>
      </trkpt>
      <trkpt lat="19.19826" lon="99.17233">
        <time>2019-09-06T06:38:46Z</time>
      </trkpt>
      <trkpt lat="19.1985" lon="99.17243">
        <time>2019-09-06T06:38:47Z</time>
      </trkpt>
      <trkpt lat="19.19868" lon="99.17248">
        <time>2019-09-06T06:38:48Z</time>
      </trkpt>
      <trkpt lat="19.19888" lon="99.17252">
        <time>2019-09-06T06:38:49Z</time>
      </trkpt>
      <trkpt lat="19.19913" lon="99.17257">
        <time>2019-09-06T06:38:50Z</time>
      </trkpt>
      <trkpt lat="19.19937" lon="99.17261">
        <time>2019-09-06T06:38:51Z</time>
      </trkpt>
      <trkpt lat="19.19964" lon="99.17268">
        <time>2019-09-06T06:38:52Z</time>
      </trkpt>
      <trkpt lat="19.19987" lon="99.17269">
        <time>2019-09-06T06:38:53Z</time>
      </trkpt>
      <trkpt lat="19.20011" lon="99.17272">
        <time>2019-09-06T06:38:54Z</time>
      </trkpt>
      <trkpt lat="19.20035" lon="99.17276">
        <time>2019-09-06T06:38:55Z</time>
      </trkpt>
      <trkpt lat="19.20058" lon="99.17279">
        <time>2019-09-06T06:38:56Z</time>
      </trkpt>
      <trkpt lat="19.20082" lon="99.1728">
        <time>2019-09-06T06:38:57Z</time>
      </trkpt>
      <trkpt lat="19.20108" lon="99.17282">
        <time>2019-09-06T06:38:59Z</time>
      </trkpt>
      <trkpt lat="19.20133" lon="99.17286">
        <time>2019-09-06T06:38:59Z</time>
      </trkpt>
      <trkpt lat="19.20159" lon="99.17289">
        <time>2019-09-06T06:39:00Z</time>
      </trkpt>
      <trkpt lat="19.20181" lon="99.17292">
        <time>2019-09-06T06:39:01Z</time>
      </trkpt>
      <trkpt lat="19.20202" lon="99.17295">
        <time>2019-09-06T06:39:02Z</time>
      </trkpt>
      <trkpt lat="19.20225" lon="99.17296">
        <time>2019-09-06T06:39:03Z</time>
      </trkpt>
      <trkpt lat="19.20249" lon="99.17297">
        <time>2019-09-06T06:39:04Z</time>
      </trkpt>
      <trkpt lat="19.2027" lon="99.17298">
        <time>2019-09-06T06:39:05Z</time>
      </trkpt>
      <trkpt lat="19.20287" lon="99.17299">
        <time>2019-09-06T06:39:06Z</time>
      </trkpt>
      <trkpt lat="19.20303" lon="99.17309">
        <time>2019-09-06T06:39:07Z</time>
      </trkpt>
      <trkpt lat="19.2032" lon="99.17315">
        <time>2019-09-06T06:39:08Z</time>
      </trkpt>
      <trkpt lat="19.20338" lon="99.1733">
        <time>2019-09-06T06:39:09Z</time>
      </trkpt>
      <trkpt lat="19.20356" lon="99.1734">
        <time>2019-09-06T06:39:10Z</time>
      </trkpt>
      <trkpt lat="19.20373" lon="99.17353">
        <time>2019-09-06T06:39:11Z</time>
      </trkpt>
      <trkpt lat="19.20391" lon="99.17366">
        <time>2019-09-06T06:39:12Z</time>
      </trkpt>
      <trkpt lat="19.20412" lon="99.17382">
        <time>2019-09-06T06:39:13Z</time>
      </trkpt>
      <trkpt lat="19.20428" lon="99.17391">
        <time>2019-09-06T06:39:14Z</time>
      </trkpt>
      <trkpt lat="19.20447" lon="99.17407">
        <time>2019-09-06T06:39:15Z</time>
      </trkpt>
      <trkpt lat="19.20466" lon="99.17423">
        <time>2019-09-06T06:39:16Z</time>
      </trkpt>
      <trkpt lat="19.20485" lon="99.17439">
        <time>2019-09-06T06:39:17Z</time>
      </trkpt>
      <trkpt lat="19.20504" lon="99.17456">
        <time>2019-09-06T06:39:18Z</time>
      </trkpt>
      <trkpt lat="19.20522" lon="99.17471">
        <time>2019-09-06T06:39:19Z</time>
      </trkpt>
      <trkpt lat="19.20541" lon="99.17487">
        <time>2019-09-06T06:39:20Z</time>
      </trkpt>
      <trkpt lat="19.20558" lon="99.175">
        <time>2019-09-06T06:39:21Z</time>
      </trkpt>
      <trkpt lat="19.20575" lon="99.17517">
        <time>2019-09-06T06:39:22Z</time>
      </trkpt>
      <trkpt lat="19.20593" lon="99.17534">
        <time>2019-09-06T06:39:23Z</time>
      </trkpt>
      <trkpt lat="19.2061" lon="99.17551">
        <time>2019-09-06T06:39:24Z</time>
      </trkpt>
      <trkpt lat="19.20627" lon="99.17569">
        <time>2019-09-06T06:39:25Z</time>
      </trkpt>
      <trkpt lat="19.20643" lon="99.17587">
        <time>2019-09-06T06:39:26Z</time>
      </trkpt>
      <trkpt lat="19.2066" lon="99.17605">
        <time>2019-09-06T06:39:27Z</time>
      </trkpt>
      <trkpt lat="19.20675" lon="99.17625">
        <time>2019-09-06T06:39:28Z</time>
      </trkpt>
      <trkpt lat="19.20691" lon="99.17642">
        <time>2019-09-06T06:39:29Z</time>
      </trkpt>
      <trkpt lat="19.20706" lon="99.17662">
        <time>2019-09-06T06:39:30Z</time>
      </trkpt>
      <trkpt lat="19.20721" lon="99.17685">
        <time>2019-09-06T06:39:31Z</time>
      </trkpt>
      <trkpt lat="19.20735" lon="99.177">
        <time>2019-09-06T06:39:32Z</time>
      </trkpt>
      <trkpt lat="19.2075" lon="99.17718">
        <time>2019-09-06T06:39:33Z</time>
      </trkpt>
      <trkpt lat="19.20764" lon="99.1774">
        <time>2019-09-06T06:39:34Z</time>
      </trkpt>
      <trkpt lat="19.20778" lon="99.17761">
        <time>2019-09-06T06:39:35Z</time>
      </trkpt>
      <trkpt lat="19.20791" lon="99.17782">
        <time>2019-09-06T06:39:36Z</time>
      </trkpt>
      <trkpt lat="19.20804" lon="99.17801">
        <time>2019-09-06T06:39:37Z</time>
      </trkpt>
      <trkpt lat="19.20817" lon="99.17822">
        <time>2019-09-06T06:39:38Z</time>
      </trkpt>
      <trkpt lat="19.2083" lon="99.17844">
        <time>2019-09-06T06:39:39Z</time>
      </trkpt>
      <trkpt lat="19.20843" lon="99.17863">
        <time>2019-09-06T06:39:40Z</time>
      </trkpt>
      <trkpt lat="19.20857" lon="99.17883">
        <time>2019-09-06T06:39:41Z</time>
      </trkpt>
      <trkpt lat="19.20872" lon="99.179">
        <time>2019-09-06T06:39:42Z</time>
      </trkpt>
      <trkpt lat="19.20887" lon="99.1792">
        <time>2019-09-06T06:39:43Z</time>
      </trkpt>
      <trkpt lat="19.20904" lon="99.17937">
        <time>2019-09-06T06:39:44Z</time>
      </trkpt>
      <trkpt lat="19.2092" lon="99.17949">
        <time>2019-09-06T06:39:45Z</time>
      </trkpt>
      <trkpt lat="19.20938" lon="99.17968">
        <time>2019-09-06T06:39:46Z</time>
      </trkpt>
      <trkpt lat="19.20959" lon="99.17983">
        <time>2019-09-06T06:39:47Z</time>
      </trkpt>
      <trkpt lat="19.20979" lon="99.17995">
        <time>2019-09-06T06:39:48Z</time>
      </trkpt>
      <trkpt lat="19.20999" lon="99.18011">
        <time>2019-09-06T06:39:49Z</time>
      </trkpt>
      <trkpt lat="19.21019" lon="99.18023">
        <time>2019-09-06T06:39:50Z</time>
      </trkpt>
      <trkpt lat="19.2104" lon="99.18032">
        <time>2019-09-06T06:39:51Z</time>
      </trkpt>
      <trkpt lat="19.21064" lon="99.18043">
        <time>2019-09-06T06:39:52Z</time>
      </trkpt>
      <trkpt lat="19.21086" lon="99.18054">
        <time>2019-09-06T06:39:53Z</time>
      </trkpt>
      <trkpt lat="19.21107" lon="99.1806">
        <time>2019-09-06T06:39:54Z</time>
      </trkpt>
      <trkpt lat="19.2113" lon="99.18067">
        <time>2019-09-06T06:39:55Z</time>
      </trkpt>
      <trkpt lat="19.21152" lon="99.18074">
        <time>2019-09-06T06:39:56Z</time>
      </trkpt>
      <trkpt lat="19.21175" lon="99.18083">
        <time>2019-09-06T06:39:57Z</time>
      </trkpt>
      <trkpt lat="19.21197" lon="99.18088">
        <time>2019-09-06T06:39:58Z</time>
      </trkpt>
      <trkpt lat="19.21219" lon="99.18095">
        <time>2019-09-06T06:39:59Z</time>
      </trkpt>
      <trkpt lat="19.21241" lon="99.18101">
        <time>2019-09-06T06:40:00Z</time>
      </trkpt>
      <trkpt lat="19.21261" lon="99.18108">
        <time>2019-09-06T06:40:01Z</time>
      </trkpt>
      <trkpt lat="19.21282" lon="99.18115">
        <time>2019-09-06T06:40:02Z</time>
      </trkpt>
      <trkpt lat="19.21304" lon="99.18121">
        <time>2019-09-06T06:40:03Z</time>
      </trkpt>
      <trkpt lat="19.21326" lon="99.18126">
        <time>2019-09-06T06:40:04Z</time>
      </trkpt>
      <trkpt lat="19.21348" lon="99.18133">
        <time>2019-09-06T06:40:05Z</time>
      </trkpt>
      <trkpt lat="19.2137" lon="99.18139">
        <time>2019-09-06T06:40:06Z</time>
      </trkpt>
      <trkpt lat="19.21393" lon="99.18146">
        <time>2019-09-06T06:40:07Z</time>
      </trkpt>
      <trkpt lat="19.21414" lon="99.18152">
        <time>2019-09-06T06:40:08Z</time>
      </trkpt>
      <trkpt lat="19.21436" lon="99.18156">
        <time>2019-09-06T06:40:09Z</time>
      </trkpt>
      <trkpt lat="19.21461" lon="99.1816">
        <time>2019-09-06T06:40:10Z</time>
      </trkpt>
      <trkpt lat="19.21488" lon="99.18165">
        <time>2019-09-06T06:40:11Z</time>
      </trkpt>
      <trkpt lat="19.21512" lon="99.1817">
        <time>2019-09-06T06:40:12Z</time>
      </trkpt>
      <trkpt lat="19.21532" lon="99.1817">
        <time>2019-09-06T06:40:13Z</time>
      </trkpt>
      <trkpt lat="19.21557" lon="99.18173">
        <time>2019-09-06T06:40:14Z</time>
      </trkpt>
      <trkpt lat="19.21579" lon="99.18174">
        <time>2019-09-06T06:40:15Z</time>
      </trkpt>
      <trkpt lat="19.21605" lon="99.18177">
        <time>2019-09-06T06:40:16Z</time>
      </trkpt>
      <trkpt lat="19.21629" lon="99.1818">
        <time>2019-09-06T06:40:17Z</time>
      </trkpt>
      <trkpt lat="19.21651" lon="99.18181">
        <time>2019-09-06T06:40:18Z</time>
      </trkpt>
      <trkpt lat="19.21675" lon="99.18183">
        <time>2019-09-06T06:40:19Z</time>
      </trkpt>
      <trkpt lat="19.21696" lon="99.18186">
        <time>2019-09-06T06:40:20Z</time>
      </trkpt>
      <trkpt lat="19.21719" lon="99.18191">
        <time>2019-09-06T06:40:21Z</time>
      </trkpt>
      <trkpt lat="19.21742" lon="99.18197">
        <time>2019-09-06T06:40:22Z</time>
      </trkpt>
      <trkpt lat="19.21766" lon="99.18202">
        <time>2019-09-06T06:40:23Z</time>
      </trkpt>
      <trkpt lat="19.21789" lon="99.18206">
        <time>2019-09-06T06:40:24Z</time>
      </trkpt>
      <trkpt lat="19.21812" lon="99.18212">
        <time>2019-09-06T06:40:25Z</time>
      </trkpt>
      <trkpt lat="19.21835" lon="99.18219">
        <time>2019-09-06T06:40:26Z</time>
      </trkpt>
      <trkpt lat="19.21856" lon="99.18227">
        <time>2019-09-06T06:40:27Z</time>
      </trkpt>
      <trkpt lat="19.21877" lon="99.18233">
        <time>2019-09-06T06:40:28Z</time>
      </trkpt>
      <trkpt lat="19.21901" lon="99.1824">
        <time>2019-09-06T06:40:29Z</time>
      </trkpt>
      <trkpt lat="19.21925" lon="99.18247">
        <time>2019-09-06T06:40:30Z</time>
      </trkpt>
      <trkpt lat="19.21947" lon="99.18253">
        <time>2019-09-06T06:40:31Z</time>
      </trkpt>
      <trkpt lat="19.21971" lon="99.1826">
        <time>2019-09-06T06:40:32Z</time>
      </trkpt>
      <trkpt lat="19.21994" lon="99.18268">
        <time>2019-09-06T06:40:33Z</time>
      </trkpt>
      <trkpt lat="19.22017" lon="99.18274">
        <time>2019-09-06T06:40:34Z</time>
      </trkpt>
      <trkpt lat="19.22041" lon="99.1828">
        <time>2019-09-06T06:40:35Z</time>
      </trkpt>
      <trkpt lat="19.22065" lon="99.18288">
        <time>2019-09-06T06:40:36Z</time>
      </trkpt>
      <trkpt lat="19.22088" lon="99.18294">
        <time>2019-09-06T06:40:37Z</time>
      </trkpt>
      <trkpt lat="19.22111" lon="99.18301">
        <time>2019-09-06T06:40:38Z</time>
      </trkpt>
      <trkpt lat="19.22132" lon="99.18308">
        <time>2019-09-06T06:40:39Z</time>
      </trkpt>
      <trkpt lat="19.22154" lon="99.18314">
        <time>2019-09-06T06:40:40Z</time>
      </trkpt>
      <trkpt lat="19.22173" lon="99.18321">
        <time>2019-09-06T06:40:41Z</time>
      </trkpt>
      <trkpt lat="19.22195" lon="99.18331">
        <time>2019-09-06T06:40:42Z</time>
      </trkpt>
      <trkpt lat="19.22216" lon="99.18344">
        <time>2019-09-06T06:40:43Z</time>
      </trkpt>
      <trkpt lat="19.22234" lon="99.18356">
        <time>2019-09-06T06:40:44Z</time>
      </trkpt>
      <trkpt lat="19.22252" lon="99.18369">
        <time>2019-09-06T06:40:45Z</time>
      </trkpt>
      <trkpt lat="19.2227" lon="99.18385">
        <time>2019-09-06T06:40:46Z</time>
      </trkpt>
      <trkpt lat="19.22286" lon="99.18403">
        <time>2019-09-06T06:40:47Z</time>
      </trkpt>
      <trkpt lat="19.22303" lon="99.1842">
        <time>2019-09-06T06:40:48Z</time>
      </trkpt>
      <trkpt lat="19.22319" lon="99.18439">
        <time>2019-09-06T06:40:49Z</time>
      </trkpt>
      <trkpt lat="19.22335" lon="99.18454">
        <time>2019-09-06T06:40:50Z</time>
      </trkpt>
      <trkpt lat="19.22351" lon="99.1847">
        <time>2019-09-06T06:40:51Z</time>
      </trkpt>
      <trkpt lat="19.22367" lon="99.18483">
        <time>2019-09-06T06:40:52Z</time>
      </trkpt>
      <trkpt lat="19.22384" lon="99.185">
        <time>2019-09-06T06:40:53Z</time>
      </trkpt>
      <trkpt lat="19.22404" lon="99.18514">
        <time>2019-09-06T06:40:54Z</time>
      </trkpt>
      <trkpt lat="19.2242" lon="99.18529">
        <time>2019-09-06T06:40:55Z</time>
      </trkpt>
      <trkpt lat="19.22437" lon="99.18539">
        <time>2019-09-06T06:40:56Z</time>
      </trkpt>
      <trkpt lat="19.22458" lon="99.18542">
        <time>2019-09-06T06:40:57Z</time>
      </trkpt>
      <trkpt lat="19.22486" lon="99.18531">
        <time>2019-09-06T06:40:58Z</time>
      </trkpt>
      <trkpt lat="19.22509" lon="99.18529">
        <time>2019-09-06T06:40:59Z</time>
      </trkpt>
      <trkpt lat="19.22532" lon="99.18527">
        <time>2019-09-06T06:41:00Z</time>
      </trkpt>
      <trkpt lat="19.22556" lon="99.18525">
        <time>2019-09-06T06:41:01Z</time>
      </trkpt>
      <trkpt lat="19.22579" lon="99.18523">
        <time>2019-09-06T06:41:02Z</time>
      </trkpt>
      <trkpt lat="19.22603" lon="99.1852">
        <time>2019-09-06T06:41:03Z</time>
      </trkpt>
      <trkpt lat="19.22624" lon="99.18517">
        <time>2019-09-06T06:41:04Z</time>
      </trkpt>
      <trkpt lat="19.2265" lon="99.18516">
        <time>2019-09-06T06:41:05Z</time>
      </trkpt>
      <trkpt lat="19.22675" lon="99.18514">
        <time>2019-09-06T06:41:06Z</time>
      </trkpt>
      <trkpt lat="19.22695" lon="99.18512">
        <time>2019-09-06T06:41:07Z</time>
      </trkpt>
      <trkpt lat="19.22719" lon="99.18512">
        <time>2019-09-06T06:41:08Z</time>
      </trkpt>
      <trkpt lat="19.22746" lon="99.18511">
        <time>2019-09-06T06:41:09Z</time>
      </trkpt>
      <trkpt lat="19.22772" lon="99.1851">
        <time>2019-09-06T06:41:10Z</time>
      </trkpt>
      <trkpt lat="19.22792" lon="99.18507">
        <time>2019-09-06T06:41:11Z</time>
      </trkpt>
      <trkpt lat="19.22815" lon="99.18503">
        <time>2019-09-06T06:41:12Z</time>
      </trkpt>
      <trkpt lat="19.2284" lon="99.18504">
        <time>2019-09-06T06:41:13Z</time>
      </trkpt>
      <trkpt lat="19.22858" lon="99.185">
        <time>2019-09-06T06:41:14Z</time>
      </trkpt>
      <trkpt lat="19.22879" lon="99.18499">
        <time>2019-09-06T06:41:15Z</time>
      </trkpt>
      <trkpt lat="19.22898" lon="99.18495">
        <time>2019-09-06T06:41:16Z</time>
      </trkpt>
      <trkpt lat="19.22922" lon="99.18496">
        <time>2019-09-06T06:41:17Z</time>
      </trkpt>
      <trkpt lat="19.22943" lon="99.18498">
        <time>2019-09-06T06:41:18Z</time>
      </trkpt>
      <trkpt lat="19.22962" lon="99.18506">
        <time>2019-09-06T06:41:19Z</time>
      </trkpt>
      <trkpt lat="19.22984" lon="99.18516">
        <time>2019-09-06T06:41:20Z</time>
      </trkpt>
      <trkpt lat="19.23005" lon="99.18527">
        <time>2019-09-06T06:41:21Z</time>
      </trkpt>
      <trkpt lat="19.23023" lon="99.18536">
        <time>2019-09-06T06:41:22Z</time>
      </trkpt>
      <trkpt lat="19.23045" lon="99.18549">
        <time>2019-09-06T06:41:23Z</time>
      </trkpt>
      <trkpt lat="19.23065" lon="99.18559">
        <time>2019-09-06T06:41:24Z</time>
      </trkpt>
      <trkpt lat="19.23086" lon="99.18571">
        <time>2019-09-06T06:41:25Z</time>
      </trkpt>
      <trkpt lat="19.23107" lon="99.18585">
        <time>2019-09-06T06:41:26Z</time>
      </trkpt>
      <trkpt lat="19.23127" lon="99.18593">
        <time>2019-09-06T06:41:27Z</time>
      </trkpt>
      <trkpt lat="19.23147" lon="99.18601">
        <time>2019-09-06T06:41:28Z</time>
      </trkpt>
      <trkpt lat="19.23169" lon="99.18601">
        <time>2019-09-06T06:41:29Z</time>
      </trkpt>
      <trkpt lat="19.23192" lon="99.18606">
        <time>2019-09-06T06:41:30Z</time>
      </trkpt>
      <trkpt lat="19.23215" lon="99.1861">
        <time>2019-09-06T06:41:31Z</time>
      </trkpt>
      <trkpt lat="19.23237" lon="99.18611">
        <time>2019-09-06T06:41:32Z</time>
      </trkpt>
      <trkpt lat="19.2326" lon="99.18607">
        <time>2019-09-06T06:41:33Z</time>
      </trkpt>
      <trkpt lat="19.23283" lon="99.18603">
        <time>2019-09-06T06:41:34Z</time>
      </trkpt>
      <trkpt lat="19.23297" lon="99.186">
        <time>2019-09-06T06:41:35Z</time>
      </trkpt>
      <trkpt lat="19.23324" lon="99.186">
        <time>2019-09-06T06:41:36Z</time>
      </trkpt>
      <trkpt lat="19.23344" lon="99.18598">
        <time>2019-09-06T06:41:37Z</time>
      </trkpt>
      <trkpt lat="19.2337" lon="99.18597">
        <time>2019-09-06T06:41:38Z</time>
      </trkpt>
      <trkpt lat="19.23389" lon="99.18595">
        <time>2019-09-06T06:41:39Z</time>
      </trkpt>
      <trkpt lat="19.23414" lon="99.18596">
        <time>2019-09-06T06:41:40Z</time>
      </trkpt>
      <trkpt lat="19.23435" lon="99.18596">
        <time>2019-09-06T06:41:41Z</time>
      </trkpt>
      <trkpt lat="19.23461" lon="99.18597">
        <time>2019-09-06T06:41:42Z</time>
      </trkpt>
      <trkpt lat="19.23486" lon="99.18597">
        <time>2019-09-06T06:41:43Z</time>
      </trkpt>
      <trkpt lat="19.23515" lon="99.18598">
        <time>2019-09-06T06:41:44Z</time>
      </trkpt>
      <trkpt lat="19.23543" lon="99.18601">
        <time>2019-09-06T06:41:45Z</time>
      </trkpt>
      <trkpt lat="19.2356" lon="99.186">
        <time>2019-09-06T06:41:46Z</time>
      </trkpt>
      <trkpt lat="19.2358" lon="99.18599">
        <time>2019-09-06T06:41:48Z</time>
      </trkpt>
      <trkpt lat="19.23601" lon="99.18599">
        <time>2019-09-06T06:41:48Z</time>
      </trkpt>
      <trkpt lat="19.23622" lon="99.18597">
        <time>2019-09-06T06:41:49Z</time>
      </trkpt>
      <trkpt lat="19.2364" lon="99.18597">
        <time>2019-09-06T06:41:50Z</time>
      </trkpt>
      <trkpt lat="19.2367" lon="99.18598">
        <time>2019-09-06T06:41:51Z</time>
      </trkpt>
      <trkpt lat="19.23696" lon="99.18599">
        <time>2019-09-06T06:41:52Z</time>
      </trkpt>
      <trkpt lat="19.23722" lon="99.18599">
        <time>2019-09-06T06:41:53Z</time>
      </trkpt>
      <trkpt lat="19.23745" lon="99.18599">
        <time>2019-09-06T06:41:54Z</time>
      </trkpt>
      <trkpt lat="19.23767" lon="99.186">
        <time>2019-09-06T06:41:55Z</time>
      </trkpt>
      <trkpt lat="19.23789" lon="99.18598">
        <time>2019-09-06T06:41:56Z</time>
      </trkpt>
      <trkpt lat="19.23811" lon="99.18598">
        <time>2019-09-06T06:41:57Z</time>
      </trkpt>
      <trkpt lat="19.23835" lon="99.18599">
        <time>2019-09-06T06:41:58Z</time>
      </trkpt>
      <trkpt lat="19.23857" lon="99.18598">
        <time>2019-09-06T06:41:59Z</time>
      </trkpt>
      <trkpt lat="19.23876" lon="99.18599">
        <time>2019-09-06T06:42:00Z</time>
      </trkpt>
      <trkpt lat="19.23903" lon="99.18601">
        <time>2019-09-06T06:42:01Z</time>
      </trkpt>
      <trkpt lat="19.23919" lon="99.18599">
        <time>2019-09-06T06:42:02Z</time>
      </trkpt>
      <trkpt lat="19.23945" lon="99.18598">
        <time>2019-09-06T06:42:03Z</time>
      </trkpt>
      <trkpt lat="19.23974" lon="99.18599">
        <time>2019-09-06T06:42:04Z</time>
      </trkpt>
      <trkpt lat="19.23999" lon="99.186">
        <time>2019-09-06T06:42:05Z</time>
      </trkpt>
      <trkpt lat="19.24025" lon="99.18597">
        <time>2019-09-06T06:42:06Z</time>
      </trkpt>
      <trkpt lat="19.24037" lon="99.18593">
        <time>2019-09-06T06:42:07Z</time>
      </trkpt>
      <trkpt lat="19.24062" lon="99.18591">
        <time>2019-09-06T06:42:08Z</time>
      </trkpt>
      <trkpt lat="19.24082" lon="99.18586">
        <time>2019-09-06T06:42:09Z</time>
      </trkpt>
      <trkpt lat="19.24106" lon="99.18582">
        <time>2019-09-06T06:42:10Z</time>
      </trkpt>
      <trkpt lat="19.24131" lon="99.18578">
        <time>2019-09-06T06:42:11Z</time>
      </trkpt>
      <trkpt lat="19.24158" lon="99.18574">
        <time>2019-09-06T06:42:12Z</time>
      </trkpt>
      <trkpt lat="19.24177" lon="99.18567">
        <time>2019-09-06T06:42:13Z</time>
      </trkpt>
      <trkpt lat="19.24201" lon="99.18562">
        <time>2019-09-06T06:42:14Z</time>
      </trkpt>
      <trkpt lat="19.24224" lon="99.18557">
        <time>2019-09-06T06:42:15Z</time>
      </trkpt>
      <trkpt lat="19.24247" lon="99.18553">
        <time>2019-09-06T06:42:16Z</time>
      </trkpt>
      <trkpt lat="19.24273" lon="99.1855">
        <time>2019-09-06T06:42:17Z</time>
      </trkpt>
      <trkpt lat="19.24295" lon="99.18545">
        <time>2019-09-06T06:42:18Z</time>
      </trkpt>
      <trkpt lat="19.24317" lon="99.18541">
        <time>2019-09-06T06:42:19Z</time>
      </trkpt>
      <trkpt lat="19.24343" lon="99.18538">
        <time>2019-09-06T06:42:20Z</time>
      </trkpt>
      <trkpt lat="19.24363" lon="99.18531">
        <time>2019-09-06T06:42:21Z</time>
      </trkpt>
      <trkpt lat="19.24385" lon="99.18527">
        <time>2019-09-06T06:42:22Z</time>
      </trkpt>
      <trkpt lat="19.24406" lon="99.18521">
        <time>2019-09-06T06:42:23Z</time>
      </trkpt>
      <trkpt lat="19.24433" lon="99.18519">
        <time>2019-09-06T06:42:24Z</time>
      </trkpt>
      <trkpt lat="19.24453" lon="99.18514">
        <time>2019-09-06T06:42:25Z</time>
      </trkpt>
      <trkpt lat="19.24476" lon="99.18509">
        <time>2019-09-06T06:42:26Z</time>
      </trkpt>
      <trkpt lat="19.2449" lon="99.18503">
        <time>2019-09-06T06:42:27Z</time>
      </trkpt>
      <trkpt lat="19.24519" lon="99.18501">
        <time>2019-09-06T06:42:28Z</time>
      </trkpt>
      <trkpt lat="19.24539" lon="99.18497">
        <time>2019-09-06T06:42:29Z</time>
      </trkpt>
      <trkpt lat="19.24561" lon="99.18495">
        <time>2019-09-06T06:42:30Z</time>
      </trkpt>
      <trkpt lat="19.24584" lon="99.18489">
        <time>2019-09-06T06:42:31Z</time>
      </trkpt>
      <trkpt lat="19.24611" lon="99.18484">
        <time>2019-09-06T06:42:32Z</time>
      </trkpt>
      <trkpt lat="19.24628" lon="99.18478">
        <time>2019-09-06T06:42:33Z</time>
      </trkpt>
      <trkpt lat="19.24651" lon="99.18472">
        <time>2019-09-06T06:42:34Z</time>
      </trkpt>
      <trkpt lat="19.2468" lon="99.18467">
        <time>2019-09-06T06:42:35Z</time>
      </trkpt>
      <trkpt lat="19.24706" lon="99.1846">
        <time>2019-09-06T06:42:36Z</time>
      </trkpt>
      <trkpt lat="19.24725" lon="99.18456">
        <time>2019-09-06T06:42:37Z</time>
      </trkpt>
      <trkpt lat="19.24748" lon="99.18451">
        <time>2019-09-06T06:42:38Z</time>
      </trkpt>
      <trkpt lat="19.2477" lon="99.18449">
        <time>2019-09-06T06:42:39Z</time>
      </trkpt>
      <trkpt lat="19.24791" lon="99.18443">
        <time>2019-09-06T06:42:40Z</time>
      </trkpt>
      <trkpt lat="19.24814" lon="99.1844">
        <time>2019-09-06T06:42:41Z</time>
      </trkpt>
      <trkpt lat="19.24836" lon="99.18436">
        <time>2019-09-06T06:42:42Z</time>
      </trkpt>
      <trkpt lat="19.24859" lon="99.18431">
        <time>2019-09-06T06:42:43Z</time>
      </trkpt>
      <trkpt lat="19.24882" lon="99.18427">
        <time>2019-09-06T06:42:44Z</time>
      </trkpt>
      <trkpt lat="19.24904" lon="99.18423">
        <time>2019-09-06T06:42:45Z</time>
      </trkpt>
      <trkpt lat="19.24932" lon="99.18419">
        <time>2019-09-06T06:42:46Z</time>
      </trkpt>
      <trkpt lat="19.24959" lon="99.18417">
        <time>2019-09-06T06:42:47Z</time>
      </trkpt>
      <trkpt lat="19.24982" lon="99.18421">
        <time>2019-09-06T06:42:48Z</time>
      </trkpt>
      <trkpt lat="19.25" lon="99.18425">
        <time>2019-09-06T06:42:49Z</time>
      </trkpt>
      <trkpt lat="19.25022" lon="99.18429">
        <time>2019-09-06T06:42:50Z</time>
      </trkpt>
      <trkpt lat="19.25045" lon="99.18433">
        <time>2019-09-06T06:42:51Z</time>
      </trkpt>
      <trkpt lat="19.25069" lon="99.18439">
        <time>2019-09-06T06:42:52Z</time>
      </trkpt>
      <trkpt lat="19.25093" lon="99.18445">
        <time>2019-09-06T06:42:53Z</time>
      </trkpt>
      <trkpt lat="19.25116" lon="99.18449">
        <time>2019-09-06T06:42:54Z</time>
      </trkpt>
      <trkpt lat="19.25139" lon="99.18453">
        <time>2019-09-06T06:42:55Z</time>
      </trkpt>
      <trkpt lat="19.25158" lon="99.18457">
        <time>2019-09-06T06:42:56Z</time>
      </trkpt>
      <trkpt lat="19.25179" lon="99.18462">
        <time>2019-09-06T06:42:57Z</time>
      </trkpt>
      <trkpt lat="19.25198" lon="99.18465">
        <time>2019-09-06T06:42:58Z</time>
      </trkpt>
      <trkpt lat="19.2522" lon="99.18469">
        <time>2019-09-06T06:42:59Z</time>
      </trkpt>
      <trkpt lat="19.2524" lon="99.18473">
        <time>2019-09-06T06:43:00Z</time>
      </trkpt>
      <trkpt lat="19.25259" lon="99.18477">
        <time>2019-09-06T06:43:01Z</time>
      </trkpt>
      <trkpt lat="19.2528" lon="99.1848">
        <time>2019-09-06T06:43:02Z</time>
      </trkpt>
      <trkpt lat="19.25301" lon="99.18484">
        <time>2019-09-06T06:43:03Z</time>
      </trkpt>
      <trkpt lat="19.25321" lon="99.18486">
        <time>2019-09-06T06:43:04Z</time>
      </trkpt>
      <trkpt lat="19.25343" lon="99.18486">
        <time>2019-09-06T06:43:05Z</time>
      </trkpt>
      <trkpt lat="19.25369" lon="99.18487">
        <time>2019-09-06T06:43:06Z</time>
      </trkpt>
      <trkpt lat="19.25395" lon="99.18489">
        <time>2019-09-06T06:43:07Z</time>
      </trkpt>
      <trkpt lat="19.25418" lon="99.18491">
        <time>2019-09-06T06:43:08Z</time>
      </trkpt>
      <trkpt lat="19.25442" lon="99.18493">
        <time>2019-09-06T06:43:09Z</time>
      </trkpt>
      <trkpt lat="19.25466" lon="99.18493">
        <time>2019-09-06T06:43:10Z</time>
      </trkpt>
      <trkpt lat="19.25487" lon="99.18495">
        <time>2019-09-06T06:43:11Z</time>
      </trkpt>
      <trkpt lat="19.25508" lon="99.18497">
        <time>2019-09-06T06:43:12Z</time>
      </trkpt>
      <trkpt lat="19.2553" lon="99.185">
        <time>2019-09-06T06:43:13Z</time>
      </trkpt>
      <trkpt lat="19.25552" lon="99.18506">
        <time>2019-09-06T06:43:14Z</time>
      </trkpt>
      <trkpt lat="19.25573" lon="99.1851">
        <time>2019-09-06T06:43:15Z</time>
      </trkpt>
      <trkpt lat="19.25591" lon="99.18516">
        <time>2019-09-06T06:43:16Z</time>
      </trkpt>
      <trkpt lat="19.25611" lon="99.18531">
        <time>2019-09-06T06:43:17Z</time>
      </trkpt>
      <trkpt lat="19.25632" lon="99.18542">
        <time>2019-09-06T06:43:18Z</time>
      </trkpt>
      <trkpt lat="19.25653" lon="99.18554">
        <time>2019-09-06T06:43:19Z</time>
      </trkpt>
      <trkpt lat="19.25673" lon="99.18567">
        <time>2019-09-06T06:43:20Z</time>
      </trkpt>
      <trkpt lat="19.25695" lon="99.18577">
        <time>2019-09-06T06:43:21Z</time>
      </trkpt>
      <trkpt lat="19.25716" lon="99.18587">
        <time>2019-09-06T06:43:22Z</time>
      </trkpt>
      <trkpt lat="19.25738" lon="99.18598">
        <time>2019-09-06T06:43:23Z</time>
      </trkpt>
      <trkpt lat="19.25756" lon="99.18612">
        <time>2019-09-06T06:43:24Z</time>
      </trkpt>
      <trkpt lat="19.25777" lon="99.18625">
        <time>2019-09-06T06:43:25Z</time>
      </trkpt>
      <trkpt lat="19.25797" lon="99.1863">
        <time>2019-09-06T06:43:26Z</time>
      </trkpt>
      <trkpt lat="19.2582" lon="99.18642">
        <time>2019-09-06T06:43:27Z</time>
      </trkpt>
      <trkpt lat="19.25842" lon="99.18656">
        <time>2019-09-06T06:43:28Z</time>
      </trkpt>
      <trkpt lat="19.25862" lon="99.18662">
        <time>2019-09-06T06:43:29Z</time>
      </trkpt>
      <trkpt lat="19.25882" lon="99.18673">
        <time>2019-09-06T06:43:30Z</time>
      </trkpt>
      <trkpt lat="19.25903" lon="99.18682">
        <time>2019-09-06T06:43:31Z</time>
      </trkpt>
      <trkpt lat="19.25924" lon="99.18694">
        <time>2019-09-06T06:43:32Z</time>
      </trkpt>
      <trkpt lat="19.25946" lon="99.18707">
        <time>2019-09-06T06:43:33Z</time>
      </trkpt>
      <trkpt lat="19.25969" lon="99.18718">
        <time>2019-09-06T06:43:34Z</time>
      </trkpt>
      <trkpt lat="19.2599" lon="99.18729">
        <time>2019-09-06T06:43:35Z</time>
      </trkpt>
      <trkpt lat="19.2601" lon="99.18742">
        <time>2019-09-06T06:43:36Z</time>
      </trkpt>
      <trkpt lat="19.26032" lon="99.18754">
        <time>2019-09-06T06:43:37Z</time>
      </trkpt>
      <trkpt lat="19.26053" lon="99.18766">
        <time>2019-09-06T06:43:38Z</time>
      </trkpt>
      <trkpt lat="19.26075" lon="99.18777">
        <time>2019-09-06T06:43:39Z</time>
      </trkpt>
      <trkpt lat="19.26096" lon="99.18787">
        <time>2019-09-06T06:43:40Z</time>
      </trkpt>
      <trkpt lat="19.26117" lon="99.18797">
        <time>2019-09-06T06:43:41Z</time>
      </trkpt>
      <trkpt lat="19.26138" lon="99.18809">
        <time>2019-09-06T06:43:42Z</time>
      </trkpt>
      <trkpt lat="19.26159" lon="99.1882">
        <time>2019-09-06T06:43:43Z</time>
      </trkpt>
      <trkpt lat="19.26179" lon="99.18828">
        <time>2019-09-06T06:43:44Z</time>
      </trkpt>
      <trkpt lat="19.26199" lon="99.18838">
        <time>2019-09-06T06:43:45Z</time>
      </trkpt>
      <trkpt lat="19.26218" lon="99.18847">
        <time>2019-09-06T06:43:46Z</time>
      </trkpt>
      <trkpt lat="19.26239" lon="99.18857">
        <time>2019-09-06T06:43:47Z</time>
      </trkpt>
      <trkpt lat="19.2626" lon="99.18863">
        <time>2019-09-06T06:43:48Z</time>
      </trkpt>
      <trkpt lat="19.26283" lon="99.18865">
        <time>2019-09-06T06:43:49Z</time>
      </trkpt>
      <trkpt lat="19.26307" lon="99.18867">
        <time>2019-09-06T06:43:50Z</time>
      </trkpt>
      <trkpt lat="19.26328" lon="99.18865">
        <time>2019-09-06T06:43:51Z</time>
      </trkpt>
      <trkpt lat="19.2635" lon="99.1886">
        <time>2019-09-06T06:43:52Z</time>
      </trkpt>
      <trkpt lat="19.26372" lon="99.18857">
        <time>2019-09-06T06:43:53Z</time>
      </trkpt>
      <trkpt lat="19.26394" lon="99.18852">
        <time>2019-09-06T06:43:54Z</time>
      </trkpt>
      <trkpt lat="19.26421" lon="99.18848">
        <time>2019-09-06T06:43:55Z</time>
      </trkpt>
      <trkpt lat="19.26448" lon="99.18844">
        <time>2019-09-06T06:43:56Z</time>
      </trkpt>
      <trkpt lat="19.26469" lon="99.1884">
        <time>2019-09-06T06:43:57Z</time>
      </trkpt>
      <trkpt lat="19.26492" lon="99.18834">
        <time>2019-09-06T06:43:58Z</time>
      </trkpt>
      <trkpt lat="19.26517" lon="99.18829">
        <time>2019-09-06T06:43:59Z</time>
      </trkpt>
      <trkpt lat="19.26541" lon="99.18819">
        <time>2019-09-06T06:44:00Z</time>
      </trkpt>
      <trkpt lat="19.26566" lon="99.18813">
        <time>2019-09-06T06:44:01Z</time>
      </trkpt>
      <trkpt lat="19.26596" lon="99.18807">
        <time>2019-09-06T06:44:02Z</time>
      </trkpt>
      <trkpt lat="19.26616" lon="99.18801">
        <time>2019-09-06T06:44:03Z</time>
      </trkpt>
      <trkpt lat="19.26645" lon="99.18798">
        <time>2019-09-06T06:44:04Z</time>
      </trkpt>
      <trkpt lat="19.26668" lon="99.18793">
        <time>2019-09-06T06:44:05Z</time>
      </trkpt>
      <trkpt lat="19.26692" lon="99.18788">
        <time>2019-09-06T06:44:06Z</time>
      </trkpt>
      <trkpt lat="19.26717" lon="99.18782">
        <time>2019-09-06T06:44:07Z</time>
      </trkpt>
      <trkpt lat="19.26741" lon="99.18776">
        <time>2019-09-06T06:44:08Z</time>
      </trkpt>
      <trkpt lat="19.26764" lon="99.18769">
        <time>2019-09-06T06:44:09Z</time>
      </trkpt>
      <trkpt lat="19.26787" lon="99.18762">
        <time>2019-09-06T06:44:10Z</time>
      </trkpt>
      <trkpt lat="19.26811" lon="99.18756">
        <time>2019-09-06T06:44:11Z</time>
      </trkpt>
      <trkpt lat="19.26835" lon="99.18751">
        <time>2019-09-06T06:44:12Z</time>
      </trkpt>
      <trkpt lat="19.26858" lon="99.18745">
        <time>2019-09-06T06:44:13Z</time>
      </trkpt>
      <trkpt lat="19.26881" lon="99.1874">
        <time>2019-09-06T06:44:14Z</time>
      </trkpt>
      <trkpt lat="19.26903" lon="99.18733">
        <time>2019-09-06T06:44:15Z</time>
      </trkpt>
      <trkpt lat="19.26924" lon="99.1873">
        <time>2019-09-06T06:44:16Z</time>
      </trkpt>
      <trkpt lat="19.2694" lon="99.18727">
        <time>2019-09-06T06:44:17Z</time>
      </trkpt>
      <trkpt lat="19.26958" lon="99.18725">
        <time>2019-09-06T06:44:18Z</time>
      </trkpt>
      <trkpt lat="19.26975" lon="99.18719">
        <time>2019-09-06T06:44:19Z</time>
      </trkpt>
      <trkpt lat="19.26994" lon="99.18715">
        <time>2019-09-06T06:44:20Z</time>
      </trkpt>
      <trkpt lat="19.2701" lon="99.18712">
        <time>2019-09-06T06:44:21Z</time>
      </trkpt>
      <trkpt lat="19.27031" lon="99.18707">
        <time>2019-09-06T06:44:22Z</time>
      </trkpt>
      <trkpt lat="19.27049" lon="99.18707">
        <time>2019-09-06T06:44:23Z</time>
      </trkpt>
      <trkpt lat="19.27068" lon="99.18702">
        <time>2019-09-06T06:44:24Z</time>
      </trkpt>
      <trkpt lat="19.27086" lon="99.18701">
        <time>2019-09-06T06:44:25Z</time>
      </trkpt>
      <trkpt lat="19.27111" lon="99.18715">
        <time>2019-09-06T06:44:26Z</time>
      </trkpt>
      <trkpt lat="19.2712" lon="99.18731">
        <time>2019-09-06T06:44:27Z</time>
      </trkpt>
      <trkpt lat="19.27134" lon="99.18746">
        <time>2019-09-06T06:44:28Z</time>
      </trkpt>
      <trkpt lat="19.27144" lon="99.18767">
        <time>2019-09-06T06:44:29Z</time>
      </trkpt>
      <trkpt lat="19.27156" lon="99.18788">
        <time>2019-09-06T06:44:30Z</time>
      </trkpt>
      <trkpt lat="19.27175" lon="99.18803">
        <time>2019-09-06T06:44:31Z</time>
      </trkpt>
      <trkpt lat="19.27192" lon="99.18816">
        <time>2019-09-06T06:44:32Z</time>
      </trkpt>
      <trkpt lat="19.27207" lon="99.18832">
        <time>2019-09-06T06:44:33Z</time>
      </trkpt>
      <trkpt lat="19.2722" lon="99.18848">
        <time>2019-09-06T06:44:34Z</time>
      </trkpt>
      <trkpt lat="19.27235" lon="99.18857">
        <time>2019-09-06T06:44:35Z</time>
      </trkpt>
      <trkpt lat="19.27252" lon="99.18869">
        <time>2019-09-06T06:44:36Z</time>
      </trkpt>
      <trkpt lat="19.27268" lon="99.18881">
        <time>2019-09-06T06:44:37Z</time>
      </trkpt>
      <trkpt lat="19.27287" lon="99.18876">
        <time>2019-09-06T06:44:38Z</time>
      </trkpt>
      <trkpt lat="19.27304" lon="99.18884">
        <time>2019-09-06T06:44:39Z</time>
      </trkpt>
      <trkpt lat="19.27326" lon="99.1889">
        <time>2019-09-06T06:44:40Z</time>
      </trkpt>
      <trkpt lat="19.27348" lon="99.18894">
        <time>2019-09-06T06:44:41Z</time>
      </trkpt>
      <trkpt lat="19.27372" lon="99.18899">
        <time>2019-09-06T06:44:42Z</time>
      </trkpt>
      <trkpt lat="19.27396" lon="99.18904">
        <time>2019-09-06T06:44:43Z</time>
      </trkpt>
      <trkpt lat="19.27416" lon="99.18908">
        <time>2019-09-06T06:44:44Z</time>
      </trkpt>
      <trkpt lat="19.27434" lon="99.1891">
        <time>2019-09-06T06:44:45Z</time>
      </trkpt>
      <trkpt lat="19.27452" lon="99.18911">
        <time>2019-09-06T06:44:46Z</time>
      </trkpt>
      <trkpt lat="19.27474" lon="99.18914">
        <time>2019-09-06T06:44:47Z</time>
      </trkpt>
      <trkpt lat="19.27496" lon="99.18918">
        <time>2019-09-06T06:44:48Z</time>
      </trkpt>
      <trkpt lat="19.27514" lon="99.1892">
        <time>2019-09-06T06:44:49Z</time>
      </trkpt>
      <trkpt lat="19.27532" lon="99.18922">
        <time>2019-09-06T06:44:50Z</time>
      </trkpt>
      <trkpt lat="19.27555" lon="99.18924">
        <time>2019-09-06T06:44:51Z</time>
      </trkpt>
      <trkpt lat="19.27576" lon="99.18924">
        <time>2019-09-06T06:44:52Z</time>
      </trkpt>
      <trkpt lat="19.27598" lon="99.18921">
        <time>2019-09-06T06:44:53Z</time>
      </trkpt>
      <trkpt lat="19.27619" lon="99.18922">
        <time>2019-09-06T06:44:54Z</time>
      </trkpt>
      <trkpt lat="19.27636" lon="99.18921">
        <time>2019-09-06T06:44:55Z</time>
      </trkpt>
      <trkpt lat="19.27656" lon="99.18921">
        <time>2019-09-06T06:44:56Z</time>
      </trkpt>
      <trkpt lat="19.27674" lon="99.18921">
        <time>2019-09-06T06:44:57Z</time>
      </trkpt>
      <trkpt lat="19.27679" lon="99.18918">
        <time>2019-09-06T06:44:58Z</time>
      </trkpt>
      <trkpt lat="19.27696" lon="99.18917">
        <time>2019-09-06T06:44:59Z</time>
      </trkpt>
      <trkpt lat="19.27709" lon="99.18918">
        <time>2019-09-06T06:45:00Z</time>
      </trkpt>
      <trkpt lat="19.27726" lon="99.18919">
        <time>2019-09-06T06:45:01Z</time>
      </trkpt>
      <trkpt lat="19.27742" lon="99.18918">
        <time>2019-09-06T06:45:02Z</time>
      </trkpt>
      <trkpt lat="19.2776" lon="99.1892">
        <time>2019-09-06T06:45:03Z</time>
      </trkpt>
      <trkpt lat="19.27768" lon="99.18915">
        <time>2019-09-06T06:45:04Z</time>
      </trkpt>
      <trkpt lat="19.27775" lon="99.1891">
        <time>2019-09-06T06:45:05Z</time>
      </trkpt>
      <trkpt lat="19.27794" lon="99.1891">
        <time>2019-09-06T06:45:06Z</time>
      </trkpt>
      <trkpt lat="19.27813" lon="99.1891">
        <time>2019-09-06T06:45:07Z</time>
      </trkpt>
      <trkpt lat="19.27832" lon="99.18912">
        <time>2019-09-06T06:45:08Z</time>
      </trkpt>
      <trkpt lat="19.27851" lon="99.18913">
        <time>2019-09-06T06:45:09Z</time>
      </trkpt>
      <trkpt lat="19.27865" lon="99.18915">
        <time>2019-09-06T06:45:10Z</time>
      </trkpt>
      <trkpt lat="19.27881" lon="99.18912">
        <time>2019-09-06T06:45:11Z</time>
      </trkpt>
      <trkpt lat="19.27901" lon="99.1891">
        <time>2019-09-06T06:45:12Z</time>
      </trkpt>
      <trkpt lat="19.27919" lon="99.18918">
        <time>2019-09-06T06:45:13Z</time>
      </trkpt>
      <trkpt lat="19.27936" lon="99.18911">
        <time>2019-09-06T06:45:14Z</time>
      </trkpt>
      <trkpt lat="19.27953" lon="99.18906">
        <time>2019-09-06T06:45:15Z</time>
      </trkpt>
      <trkpt lat="19.27969" lon="99.189">
        <time>2019-09-06T06:45:16Z</time>
      </trkpt>
      <trkpt lat="19.27988" lon="99.18897">
        <time>2019-09-06T06:45:17Z</time>
      </trkpt>
      <trkpt lat="19.28005" lon="99.18895">
        <time>2019-09-06T06:45:18Z</time>
      </trkpt>
      <trkpt lat="19.28022" lon="99.18892">
        <time>2019-09-06T06:45:19Z</time>
      </trkpt>
      <trkpt lat="19.28039" lon="99.18889">
        <time>2019-09-06T06:45:20Z</time>
      </trkpt>
      <trkpt lat="19.28056" lon="99.18887">
        <time>2019-09-06T06:45:21Z</time>
      </trkpt>
      <trkpt lat="19.28072" lon="99.18885">
        <time>2019-09-06T06:45:22Z</time>
      </trkpt>
      <trkpt lat="19.28077" lon="99.18886">
        <time>2019-09-06T06:45:23Z</time>
      </trkpt>
      <trkpt lat="19.28091" lon="99.18879">
        <time>2019-09-06T06:45:24Z</time>
      </trkpt>
      <trkpt lat="19.28105" lon="99.18874">
        <time>2019-09-06T06:45:25Z</time>
      </trkpt>
      <trkpt lat="19.28117" lon="99.18867">
        <time>2019-09-06T06:45:26Z</time>
      </trkpt>
      <trkpt lat="19.28135" lon="99.1886">
        <time>2019-09-06T06:45:27Z</time>
      </trkpt>
      <trkpt lat="19.2815" lon="99.18852">
        <time>2019-09-06T06:45:28Z</time>
      </trkpt>
      <trkpt lat="19.28165" lon="99.18843">
        <time>2019-09-06T06:45:29Z</time>
      </trkpt>
      <trkpt lat="19.28177" lon="99.18833">
        <time>2019-09-06T06:45:30Z</time>
      </trkpt>
      <trkpt lat="19.2819" lon="99.18823">
        <time>2019-09-06T06:45:31Z</time>
      </trkpt>
      <trkpt lat="19.28205" lon="99.18813">
        <time>2019-09-06T06:45:32Z</time>
      </trkpt>
      <trkpt lat="19.2822" lon="99.18805">
        <time>2019-09-06T06:45:33Z</time>
      </trkpt>
      <trkpt lat="19.28234" lon="99.18794">
        <time>2019-09-06T06:45:34Z</time>
      </trkpt>
      <trkpt lat="19.28248" lon="99.18784">
        <time>2019-09-06T06:45:35Z</time>
      </trkpt>
      <trkpt lat="19.2826" lon="99.18774">
        <time>2019-09-06T06:45:36Z</time>
      </trkpt>
      <trkpt lat="19.28277" lon="99.18765">
        <time>2019-09-06T06:45:37Z</time>
      </trkpt>
      <trkpt lat="19.28292" lon="99.18758">
        <time>2019-09-06T06:45:38Z</time>
      </trkpt>
      <trkpt lat="19.28312" lon="99.18754">
        <time>2019-09-06T06:45:39Z</time>
      </trkpt>
      <trkpt lat="19.28334" lon="99.18752">
        <time>2019-09-06T06:45:40Z</time>
      </trkpt>
      <trkpt lat="19.28344" lon="99.18751">
        <time>2019-09-06T06:45:41Z</time>
      </trkpt>
      <trkpt lat="19.28366" lon="99.18754">
        <time>2019-09-06T06:45:42Z</time>
      </trkpt>
      <trkpt lat="19.28385" lon="99.18755">
        <time>2019-09-06T06:45:43Z</time>
      </trkpt>
      <trkpt lat="19.28404" lon="99.18754">
        <time>2019-09-06T06:45:44Z</time>
      </trkpt>
      <trkpt lat="19.28421" lon="99.18756">
        <time>2019-09-06T06:45:45Z</time>
      </trkpt>
      <trkpt lat="19.28434" lon="99.18755">
        <time>2019-09-06T06:45:46Z</time>
      </trkpt>
      <trkpt lat="19.28448" lon="99.18754">
        <time>2019-09-06T06:45:47Z</time>
      </trkpt>
      <trkpt lat="19.28466" lon="99.18756">
        <time>2019-09-06T06:45:48Z</time>
      </trkpt>
      <trkpt lat="19.28483" lon="99.18754">
        <time>2019-09-06T06:45:49Z</time>
      </trkpt>
      <trkpt lat="19.28502" lon="99.18756">
        <time>2019-09-06T06:45:50Z</time>
      </trkpt>
      <trkpt lat="19.28517" lon="99.18754">
        <time>2019-09-06T06:45:51Z</time>
      </trkpt>
      <trkpt lat="19.28542" lon="99.18757">
        <time>2019-09-06T06:45:52Z</time>
      </trkpt>
      <trkpt lat="19.28561" lon="99.18757">
        <time>2019-09-06T06:45:53Z</time>
      </trkpt>
      <trkpt lat="19.28585" lon="99.1876">
        <time>2019-09-06T06:45:54Z</time>
      </trkpt>
      <trkpt lat="19.28604" lon="99.18763">
        <time>2019-09-06T06:45:55Z</time>
      </trkpt>
      <trkpt lat="19.28629" lon="99.18764">
        <time>2019-09-06T06:45:56Z</time>
      </trkpt>
      <trkpt lat="19.28663" lon="99.18773">
        <time>2019-09-06T06:45:57Z</time>
      </trkpt>
      <trkpt lat="19.28692" lon="99.1878">
        <time>2019-09-06T06:45:58Z</time>
      </trkpt>
      <trkpt lat="19.28707" lon="99.18781">
        <time>2019-09-06T06:45:59Z</time>
      </trkpt>
      <trkpt lat="19.28725" lon="99.1878">
        <time>2019-09-06T06:46:00Z</time>
      </trkpt>
      <trkpt lat="19.28737" lon="99.1878">
        <time>2019-09-06T06:46:01Z</time>
      </trkpt>
      <trkpt lat="19.28753" lon="99.18778">
        <time>2019-09-06T06:46:02Z</time>
      </trkpt>
      <trkpt lat="19.2877" lon="99.18775">
        <time>2019-09-06T06:46:03Z</time>
      </trkpt>
      <trkpt lat="19.28789" lon="99.18777">
        <time>2019-09-06T06:46:04Z</time>
      </trkpt>
      <trkpt lat="19.28805" lon="99.18777">
        <time>2019-09-06T06:46:05Z</time>
      </trkpt>
      <trkpt lat="19.28823" lon="99.18778">
        <time>2019-09-06T06:46:06Z</time>
      </trkpt>
      <trkpt lat="19.28841" lon="99.1878">
        <time>2019-09-06T06:46:07Z</time>
      </trkpt>
      <trkpt lat="19.2886" lon="99.18779">
        <time>2019-09-06T06:46:08Z</time>
      </trkpt>
      <trkpt lat="19.28881" lon="99.18782">
        <time>2019-09-06T06:46:09Z</time>
      </trkpt>
      <trkpt lat="19.28903" lon="99.18785">
        <time>2019-09-06T06:46:10Z</time>
      </trkpt>
      <trkpt lat="19.28928" lon="99.18789">
        <time>2019-09-06T06:46:11Z</time>
      </trkpt>
      <trkpt lat="19.28952" lon="99.18793">
        <time>2019-09-06T06:46:12Z</time>
      </trkpt>
      <trkpt lat="19.28977" lon="99.18796">
        <time>2019-09-06T06:46:13Z</time>
      </trkpt>
      <trkpt lat="19.29" lon="99.18797">
        <time>2019-09-06T06:46:14Z</time>
      </trkpt>
      <trkpt lat="19.29023" lon="99.18799">
        <time>2019-09-06T06:46:15Z</time>
      </trkpt>
      <trkpt lat="19.29046" lon="99.188">
        <time>2019-09-06T06:46:16Z</time>
      </trkpt>
      <trkpt lat="19.29072" lon="99.18807">
        <time>2019-09-06T06:46:17Z</time>
      </trkpt>
      <trkpt lat="19.29095" lon="99.18806">
        <time>2019-09-06T06:46:18Z</time>
      </trkpt>
      <trkpt lat="19.29122" lon="99.18808">
        <time>2019-09-06T06:46:19Z</time>
      </trkpt>
      <trkpt lat="19.29152" lon="99.18811">
        <time>2019-09-06T06:46:20Z</time>
      </trkpt>
      <trkpt lat="19.29178" lon="99.18814">
        <time>2019-09-06T06:46:21Z</time>
      </trkpt>
      <trkpt lat="19.29205" lon="99.18818">
        <time>2019-09-06T06:46:22Z</time>
      </trkpt>
      <trkpt lat="19.29229" lon="99.18821">
        <time>2019-09-06T06:46:23Z</time>
      </trkpt>
      <trkpt lat="19.29254" lon="99.18823">
        <time>2019-09-06T06:46:24Z</time>
      </trkpt>
      <trkpt lat="19.29277" lon="99.18825">
        <time>2019-09-06T06:46:25Z</time>
      </trkpt>
      <trkpt lat="19.29295" lon="99.18824">
        <time>2019-09-06T06:46:26Z</time>
      </trkpt>
      <trkpt lat="19.2932" lon="99.18827">
        <time>2019-09-06T06:46:27Z</time>
      </trkpt>
      <trkpt lat="19.29344" lon="99.18829">
        <time>2019-09-06T06:46:28Z</time>
      </trkpt>
      <trkpt lat="19.29359" lon="99.18828">
        <time>2019-09-06T06:46:29Z</time>
      </trkpt>
      <trkpt lat="19.29385" lon="99.18832">
        <time>2019-09-06T06:46:30Z</time>
      </trkpt>
      <trkpt lat="19.29408" lon="99.18833">
        <time>2019-09-06T06:46:31Z</time>
      </trkpt>
      <trkpt lat="19.29432" lon="99.18836">
        <time>2019-09-06T06:46:32Z</time>
      </trkpt>
      <trkpt lat="19.29456" lon="99.18838">
        <time>2019-09-06T06:46:33Z</time>
      </trkpt>
      <trkpt lat="19.29479" lon="99.18843">
        <time>2019-09-06T06:46:34Z</time>
      </trkpt>
      <trkpt lat="19.29504" lon="99.18851">
        <time>2019-09-06T06:46:35Z</time>
      </trkpt>
      <trkpt lat="19.2952" lon="99.1885">
        <time>2019-09-06T06:46:36Z</time>
      </trkpt>
      <trkpt lat="19.2954" lon="99.18851">
        <time>2019-09-06T06:46:37Z</time>
      </trkpt>
      <trkpt lat="19.29562" lon="99.18855">
        <time>2019-09-06T06:46:38Z</time>
      </trkpt>
      <trkpt lat="19.29583" lon="99.18856">
        <time>2019-09-06T06:46:39Z</time>
      </trkpt>
      <trkpt lat="19.29606" lon="99.18859">
        <time>2019-09-06T06:46:40Z</time>
      </trkpt>
      <trkpt lat="19.29627" lon="99.1886">
        <time>2019-09-06T06:46:41Z</time>
      </trkpt>
      <trkpt lat="19.29654" lon="99.18865">
        <time>2019-09-06T06:46:42Z</time>
      </trkpt>
      <trkpt lat="19.2967" lon="99.18865">
        <time>2019-09-06T06:46:43Z</time>
      </trkpt>
      <trkpt lat="19.2969" lon="99.18867">
        <time>2019-09-06T06:46:44Z</time>
      </trkpt>
      <trkpt lat="19.29711" lon="99.1887">
        <time>2019-09-06T06:46:45Z</time>
      </trkpt>
      <trkpt lat="19.29732" lon="99.18871">
        <time>2019-09-06T06:46:46Z</time>
      </trkpt>
      <trkpt lat="19.29754" lon="99.18872">
        <time>2019-09-06T06:46:47Z</time>
      </trkpt>
      <trkpt lat="19.29778" lon="99.18875">
        <time>2019-09-06T06:46:48Z</time>
      </trkpt>
      <trkpt lat="19.29808" lon="99.18879">
        <time>2019-09-06T06:46:49Z</time>
      </trkpt>
      <trkpt lat="19.29832" lon="99.18878">
        <time>2019-09-06T06:46:50Z</time>
      </trkpt>
      <trkpt lat="19.29857" lon="99.18879">
        <time>2019-09-06T06:46:51Z</time>
      </trkpt>
      <trkpt lat="19.29882" lon="99.18882">
        <time>2019-09-06T06:46:52Z</time>
      </trkpt>
      <trkpt lat="19.299" lon="99.18878">
        <time>2019-09-06T06:46:53Z</time>
      </trkpt>
      <trkpt lat="19.29926" lon="99.18881">
        <time>2019-09-06T06:46:54Z</time>
      </trkpt>
      <trkpt lat="19.29949" lon="99.18884">
        <time>2019-09-06T06:46:55Z</time>
      </trkpt>
      <trkpt lat="19.29973" lon="99.18888">
        <time>2019-09-06T06:46:56Z</time>
      </trkpt>
      <trkpt lat="19.29999" lon="99.18892">
        <time>2019-09-06T06:46:57Z</time>
      </trkpt>
      <trkpt lat="19.30019" lon="99.18893">
        <time>2019-09-06T06:46:58Z</time>
      </trkpt>
      <trkpt lat="19.3004" lon="99.18894">
        <time>2019-09-06T06:46:59Z</time>
      </trkpt>
      <trkpt lat="19.30065" lon="99.18897">
        <time>2019-09-06T06:47:00Z</time>
      </trkpt>
      <trkpt lat="19.30088" lon="99.18899">
        <time>2019-09-06T06:47:01Z</time>
      </trkpt>
      <trkpt lat="19.30112" lon="99.18903">
        <time>2019-09-06T06:47:02Z</time>
      </trkpt>
      <trkpt lat="19.30136" lon="99.18906">
        <time>2019-09-06T06:47:03Z</time>
      </trkpt>
      <trkpt lat="19.30161" lon="99.1891">
        <time>2019-09-06T06:47:04Z</time>
      </trkpt>
      <trkpt lat="19.30184" lon="99.18912">
        <time>2019-09-06T06:47:05Z</time>
      </trkpt>
      <trkpt lat="19.30208" lon="99.18915">
        <time>2019-09-06T06:47:06Z</time>
      </trkpt>
      <trkpt lat="19.30235" lon="99.18918">
        <time>2019-09-06T06:47:07Z</time>
      </trkpt>
      <trkpt lat="19.30259" lon="99.18919">
        <time>2019-09-06T06:47:08Z</time>
      </trkpt>
      <trkpt lat="19.30279" lon="99.18921">
        <time>2019-09-06T06:47:09Z</time>
      </trkpt>
      <trkpt lat="19.30304" lon="99.18925">
        <time>2019-09-06T06:47:10Z</time>
      </trkpt>
      <trkpt lat="19.3033" lon="99.18931">
        <time>2019-09-06T06:47:11Z</time>
      </trkpt>
      <trkpt lat="19.30352" lon="99.18932">
        <time>2019-09-06T06:47:12Z</time>
      </trkpt>
      <trkpt lat="19.30369" lon="99.18934">
        <time>2019-09-06T06:47:13Z</time>
      </trkpt>
      <trkpt lat="19.30389" lon="99.18936">
        <time>2019-09-06T06:47:14Z</time>
      </trkpt>
      <trkpt lat="19.30413" lon="99.1894">
        <time>2019-09-06T06:47:15Z</time>
      </trkpt>
      <trkpt lat="19.30439" lon="99.18942">
        <time>2019-09-06T06:47:16Z</time>
      </trkpt>
      <trkpt lat="19.30465" lon="99.18945">
        <time>2019-09-06T06:47:17Z</time>
      </trkpt>
      <trkpt lat="19.30487" lon="99.18945">
        <time>2019-09-06T06:47:18Z</time>
      </trkpt>
      <trkpt lat="19.30511" lon="99.18947">
        <time>2019-09-06T06:47:19Z</time>
      </trkpt>
      <trkpt lat="19.30531" lon="99.18949">
        <time>2019-09-06T06:47:20Z</time>
      </trkpt>
      <trkpt lat="19.30554" lon="99.18951">
        <time>2019-09-06T06:47:21Z</time>
      </trkpt>
      <trkpt lat="19.30578" lon="99.18953">
        <time>2019-09-06T06:47:22Z</time>
      </trkpt>
      <trkpt lat="19.30603" lon="99.18955">
        <time>2019-09-06T06:47:23Z</time>
      </trkpt>
      <trkpt lat="19.30622" lon="99.18957">
        <time>2019-09-06T06:47:24Z</time>
      </trkpt>
      <trkpt lat="19.30642" lon="99.18957">
        <time>2019-09-06T06:47:25Z</time>
      </trkpt>
      <trkpt lat="19.30666" lon="99.1896">
        <time>2019-09-06T06:47:26Z</time>
      </trkpt>
      <trkpt lat="19.30687" lon="99.18961">
        <time>2019-09-06T06:47:27Z</time>
      </trkpt>
      <trkpt lat="19.3071" lon="99.18965">
        <time>2019-09-06T06:47:28Z</time>
      </trkpt>
      <trkpt lat="19.30733" lon="99.18966">
        <time>2019-09-06T06:47:29Z</time>
      </trkpt>
      <trkpt lat="19.3076" lon="99.18969">
        <time>2019-09-06T06:47:30Z</time>
      </trkpt>
      <trkpt lat="19.30783" lon="99.18972">
        <time>2019-09-06T06:47:31Z</time>
      </trkpt>
      <trkpt lat="19.30808" lon="99.18976">
        <time>2019-09-06T06:47:32Z</time>
      </trkpt>
      <trkpt lat="19.30834" lon="99.18978">
        <time>2019-09-06T06:47:33Z</time>
      </trkpt>
      <trkpt lat="19.30856" lon="99.18979">
        <time>2019-09-06T06:47:34Z</time>
      </trkpt>
      <trkpt lat="19.30875" lon="99.18981">
        <time>2019-09-06T06:47:35Z</time>
      </trkpt>
      <trkpt lat="19.30888" lon="99.18981">
        <time>2019-09-06T06:47:36Z</time>
      </trkpt>
      <trkpt lat="19.30913" lon="99.18986">
        <time>2019-09-06T06:47:37Z</time>
      </trkpt>
      <trkpt lat="19.30936" lon="99.18984">
        <time>2019-09-06T06:47:38Z</time>
      </trkpt>
      <trkpt lat="19.30955" lon="99.18986">
        <time>2019-09-06T06:47:39Z</time>
      </trkpt>
      <trkpt lat="19.30973" lon="99.18988">
        <time>2019-09-06T06:47:40Z</time>
      </trkpt>
      <trkpt lat="19.30996" lon="99.18995">
        <time>2019-09-06T06:47:41Z</time>
      </trkpt>
      <trkpt lat="19.31017" lon="99.18996">
        <time>2019-09-06T06:47:42Z</time>
      </trkpt>
      <trkpt lat="19.31041" lon="99.18998">
        <time>2019-09-06T06:47:43Z</time>
      </trkpt>
      <trkpt lat="19.31063" lon="99.18999">
        <time>2019-09-06T06:47:44Z</time>
      </trkpt>
      <trkpt lat="19.31081" lon="99.18997">
        <time>2019-09-06T06:47:45Z</time>
      </trkpt>
      <trkpt lat="19.31101" lon="99.18999">
        <time>2019-09-06T06:47:46Z</time>
      </trkpt>
      <trkpt lat="19.31124" lon="99.19002">
        <time>2019-09-06T06:47:47Z</time>
      </trkpt>
      <trkpt lat="19.31148" lon="99.19005">
        <time>2019-09-06T06:47:48Z</time>
      </trkpt>
      <trkpt lat="19.31169" lon="99.19007">
        <time>2019-09-06T06:47:49Z</time>
      </trkpt>
      <trkpt lat="19.3119" lon="99.1901">
        <time>2019-09-06T06:47:50Z</time>
      </trkpt>
      <trkpt lat="19.31211" lon="99.19011">
        <time>2019-09-06T06:47:51Z</time>
      </trkpt>
      <trkpt lat="19.31233" lon="99.19013">
        <time>2019-09-06T06:47:52Z</time>
      </trkpt>
      <trkpt lat="19.31255" lon="99.19016">
        <time>2019-09-06T06:47:53Z</time>
      </trkpt>
      <trkpt lat="19.31279" lon="99.19019">
        <time>2019-09-06T06:47:54Z</time>
      </trkpt>
      <trkpt lat="19.313" lon="99.19018">
        <time>2019-09-06T06:47:55Z</time>
      </trkpt>
      <trkpt lat="19.31321" lon="99.19023">
        <time>2019-09-06T06:47:56Z</time>
      </trkpt>
      <trkpt lat="19.31341" lon="99.19024">
        <time>2019-09-06T06:47:57Z</time>
      </trkpt>
      <trkpt lat="19.31359" lon="99.19026">
        <time>2019-09-06T06:47:58Z</time>
      </trkpt>
      <trkpt lat="19.31378" lon="99.19029">
        <time>2019-09-06T06:47:59Z</time>
      </trkpt>
      <trkpt lat="19.31394" lon="99.19029">
        <time>2019-09-06T06:48:00Z</time>
      </trkpt>
      <trkpt lat="19.31413" lon="99.19029">
        <time>2019-09-06T06:48:01Z</time>
      </trkpt>
      <trkpt lat="19.31435" lon="99.1903">
        <time>2019-09-06T06:48:02Z</time>
      </trkpt>
      <trkpt lat="19.31456" lon="99.19032">
        <time>2019-09-06T06:48:03Z</time>
      </trkpt>
      <trkpt lat="19.31478" lon="99.19032">
        <time>2019-09-06T06:48:04Z</time>
      </trkpt>
      <trkpt lat="19.31503" lon="99.19032">
        <time>2019-09-06T06:48:05Z</time>
      </trkpt>
      <trkpt lat="19.3152" lon="99.19031">
        <time>2019-09-06T06:48:06Z</time>
      </trkpt>
      <trkpt lat="19.31536" lon="99.19027">
        <time>2019-09-06T06:48:07Z</time>
      </trkpt>
      <trkpt lat="19.31556" lon="99.19026">
        <time>2019-09-06T06:48:08Z</time>
      </trkpt>
      <trkpt lat="19.31575" lon="99.19025">
        <time>2019-09-06T06:48:09Z</time>
      </trkpt>
      <trkpt lat="19.31593" lon="99.19025">
        <time>2019-09-06T06:48:10Z</time>
      </trkpt>
      <trkpt lat="19.31609" lon="99.19024">
        <time>2019-09-06T06:48:11Z</time>
      </trkpt>
      <trkpt lat="19.31629" lon="99.19024">
        <time>2019-09-06T06:48:12Z</time>
      </trkpt>
      <trkpt lat="19.3165" lon="99.19026">
        <time>2019-09-06T06:48:13Z</time>
      </trkpt>
      <trkpt lat="19.31659" lon="99.19026">
        <time>2019-09-06T06:48:14Z</time>
      </trkpt>
      <trkpt lat="19.31671" lon="99.19023">
        <time>2019-09-06T06:48:15Z</time>
      </trkpt>
      <trkpt lat="19.3168" lon="99.19022">
        <time>2019-09-06T06:48:16Z</time>
      </trkpt>
      <trkpt lat="19.31704" lon="99.19024">
        <time>2019-09-06T06:48:17Z</time>
      </trkpt>
      <trkpt lat="19.31725" lon="99.19021">
        <time>2019-09-06T06:48:18Z</time>
      </trkpt>
      <trkpt lat="19.31746" lon="99.1902">
        <time>2019-09-06T06:48:19Z</time>
      </trkpt>
      <trkpt lat="19.31767" lon="99.19018">
        <time>2019-09-06T06:48:20Z</time>
      </trkpt>
      <trkpt lat="19.31792" lon="99.19018">
        <time>2019-09-06T06:48:21Z</time>
      </trkpt>
      <trkpt lat="19.31813" lon="99.19016">
        <time>2019-09-06T06:48:22Z</time>
      </trkpt>
      <trkpt lat="19.31834" lon="99.19014">
        <time>2019-09-06T06:48:23Z</time>
      </trkpt>
      <trkpt lat="19.31857" lon="99.19014">
        <time>2019-09-06T06:48:24Z</time>
      </trkpt>
      <trkpt lat="19.31878" lon="99.19011">
        <time>2019-09-06T06:48:25Z</time>
      </trkpt>
      <trkpt lat="19.31903" lon="99.19011">
        <time>2019-09-06T06:48:26Z</time>
      </trkpt>
      <trkpt lat="19.31919" lon="99.19008">
        <time>2019-09-06T06:48:27Z</time>
      </trkpt>
      <trkpt lat="19.31941" lon="99.19009">
        <time>2019-09-06T06:48:28Z</time>
      </trkpt>
      <trkpt lat="19.31962" lon="99.19008">
        <time>2019-09-06T06:48:29Z</time>
      </trkpt>
      <trkpt lat="19.31988" lon="99.19006">
        <time>2019-09-06T06:48:30Z</time>
      </trkpt>
      <trkpt lat="19.32009" lon="99.19005">
        <time>2019-09-06T06:48:31Z</time>
      </trkpt>
      <trkpt lat="19.32033" lon="99.19003">
        <time>2019-09-06T06:48:32Z</time>
      </trkpt>
      <trkpt lat="19.32058" lon="99.19001">
        <time>2019-09-06T06:48:33Z</time>
      </trkpt>
      <trkpt lat="19.32077" lon="99.18998">
        <time>2019-09-06T06:48:34Z</time>
      </trkpt>
      <trkpt lat="19.32099" lon="99.18995">
        <time>2019-09-06T06:48:35Z</time>
      </trkpt>
      <trkpt lat="19.32119" lon="99.18994">
        <time>2019-09-06T06:48:36Z</time>
      </trkpt>
      <trkpt lat="19.32146" lon="99.18995">
        <time>2019-09-06T06:48:37Z</time>
      </trkpt>
      <trkpt lat="19.32172" lon="99.18994">
        <time>2019-09-06T06:48:38Z</time>
      </trkpt>
      <trkpt lat="19.32196" lon="99.18996">
        <time>2019-09-06T06:48:39Z</time>
      </trkpt>
      <trkpt lat="19.3222" lon="99.18992">
        <time>2019-09-06T06:48:40Z</time>
      </trkpt>
      <trkpt lat="19.32239" lon="99.18989">
        <time>2019-09-06T06:48:41Z</time>
      </trkpt>
      <trkpt lat="19.32267" lon="99.18992">
        <time>2019-09-06T06:48:42Z</time>
      </trkpt>
      <trkpt lat="19.32287" lon="99.18991">
        <time>2019-09-06T06:48:43Z</time>
      </trkpt>
      <trkpt lat="19.32309" lon="99.18989">
        <time>2019-09-06T06:48:44Z</time>
      </trkpt>
      <trkpt lat="19.3233" lon="99.18987">
        <time>2019-09-06T06:48:45Z</time>
      </trkpt>
      <trkpt lat="19.32355" lon="99.18985">
        <time>2019-09-06T06:48:46Z</time>
      </trkpt>
      <trkpt lat="19.32375" lon="99.18984">
        <time>2019-09-06T06:48:47Z</time>
      </trkpt>
      <trkpt lat="19.32398" lon="99.18984">
        <time>2019-09-06T06:48:48Z</time>
      </trkpt>
      <trkpt lat="19.32424" lon="99.18984">
        <time>2019-09-06T06:48:49Z</time>
      </trkpt>
      <trkpt lat="19.32443" lon="99.18985">
        <time>2019-09-06T06:48:50Z</time>
      </trkpt>
      <trkpt lat="19.32468" lon="99.18989">
        <time>2019-09-06T06:48:51Z</time>
      </trkpt>
      <trkpt lat="19.32487" lon="99.18992">
        <time>2019-09-06T06:48:52Z</time>
      </trkpt>
      <trkpt lat="19.32509" lon="99.18996">
        <time>2019-09-06T06:48:53Z</time>
      </trkpt>
      <trkpt lat="19.32531" lon="99.19001">
        <time>2019-09-06T06:48:54Z</time>
      </trkpt>
      <trkpt lat="19.32548" lon="99.19004">
        <time>2019-09-06T06:48:55Z</time>
      </trkpt>
      <trkpt lat="19.32567" lon="99.19006">
        <time>2019-09-06T06:48:56Z</time>
      </trkpt>
      <trkpt lat="19.32593" lon="99.19013">
        <time>2019-09-06T06:48:57Z</time>
      </trkpt>
      <trkpt lat="19.32616" lon="99.19016">
        <time>2019-09-06T06:48:58Z</time>
      </trkpt>
      <trkpt lat="19.32637" lon="99.19023">
        <time>2019-09-06T06:48:59Z</time>
      </trkpt>
      <trkpt lat="19.32657" lon="99.19029">
        <time>2019-09-06T06:49:00Z</time>
      </trkpt>
      <trkpt lat="19.32676" lon="99.19031">
        <time>2019-09-06T06:49:01Z</time>
      </trkpt>
      <trkpt lat="19.32694" lon="99.19035">
        <time>2019-09-06T06:49:02Z</time>
      </trkpt>
      <trkpt lat="19.32714" lon="99.19039">
        <time>2019-09-06T06:49:03Z</time>
      </trkpt>
      <trkpt lat="19.32737" lon="99.19043">
        <time>2019-09-06T06:49:04Z</time>
      </trkpt>
      <trkpt lat="19.32757" lon="99.19049">
        <time>2019-09-06T06:49:05Z</time>
      </trkpt>
      <trkpt lat="19.32776" lon="99.19053">
        <time>2019-09-06T06:49:06Z</time>
      </trkpt>
      <trkpt lat="19.32796" lon="99.19056">
        <time>2019-09-06T06:49:07Z</time>
      </trkpt>
      <trkpt lat="19.32815" lon="99.1906">
        <time>2019-09-06T06:49:08Z</time>
      </trkpt>
      <trkpt lat="19.32836" lon="99.19066">
        <time>2019-09-06T06:49:09Z</time>
      </trkpt>
      <trkpt lat="19.32857" lon="99.19074">
        <time>2019-09-06T06:49:10Z</time>
      </trkpt>
      <trkpt lat="19.32872" lon="99.19078">
        <time>2019-09-06T06:49:11Z</time>
      </trkpt>
      <trkpt lat="19.32891" lon="99.19082">
        <time>2019-09-06T06:49:12Z</time>
      </trkpt>
      <trkpt lat="19.3291" lon="99.19085">
        <time>2019-09-06T06:49:13Z</time>
      </trkpt>
      <trkpt lat="19.32928" lon="99.1909">
        <time>2019-09-06T06:49:14Z</time>
      </trkpt>
      <trkpt lat="19.32948" lon="99.19094">
        <time>2019-09-06T06:49:15Z</time>
      </trkpt>
      <trkpt lat="19.32965" lon="99.191">
        <time>2019-09-06T06:49:16Z</time>
      </trkpt>
      <trkpt lat="19.32984" lon="99.19106">
        <time>2019-09-06T06:49:17Z</time>
      </trkpt>
      <trkpt lat="19.33003" lon="99.19113">
        <time>2019-09-06T06:49:18Z</time>
      </trkpt>
      <trkpt lat="19.33023" lon="99.19122">
        <time>2019-09-06T06:49:19Z</time>
      </trkpt>
      <trkpt lat="19.3304" lon="99.19129">
        <time>2019-09-06T06:49:20Z</time>
      </trkpt>
      <trkpt lat="19.33057" lon="99.19134">
        <time>2019-09-06T06:49:21Z</time>
      </trkpt>
      <trkpt lat="19.33076" lon="99.19143">
        <time>2019-09-06T06:49:22Z</time>
      </trkpt>
      <trkpt lat="19.33093" lon="99.19151">
        <time>2019-09-06T06:49:23Z</time>
      </trkpt>
      <trkpt lat="19.33111" lon="99.19156">
        <time>2019-09-06T06:49:24Z</time>
      </trkpt>
      <trkpt lat="19.33127" lon="99.19166">
        <time>2019-09-06T06:49:25Z</time>
      </trkpt>
      <trkpt lat="19.33144" lon="99.19178">
        <time>2019-09-06T06:49:26Z</time>
      </trkpt>
      <trkpt lat="19.33162" lon="99.19186">
        <time>2019-09-06T06:49:27Z</time>
      </trkpt>
      <trkpt lat="19.33178" lon="99.19194">
        <time>2019-09-06T06:49:28Z</time>
      </trkpt>
      <trkpt lat="19.33196" lon="99.19203">
        <time>2019-09-06T06:49:29Z</time>
      </trkpt>
      <trkpt lat="19.33214" lon="99.19214">
        <time>2019-09-06T06:49:30Z</time>
      </trkpt>
      <trkpt lat="19.33232" lon="99.19225">
        <time>2019-09-06T06:49:31Z</time>
      </trkpt>
      <trkpt lat="19.33249" lon="99.19236">
        <time>2019-09-06T06:49:32Z</time>
      </trkpt>
      <trkpt lat="19.33266" lon="99.19247">
        <time>2019-09-06T06:49:33Z</time>
      </trkpt>
      <trkpt lat="19.33282" lon="99.19257">
        <time>2019-09-06T06:49:34Z</time>
      </trkpt>
      <trkpt lat="19.33299" lon="99.19265">
        <time>2019-09-06T06:49:35Z</time>
      </trkpt>
      <trkpt lat="19.33317" lon="99.19274">
        <time>2019-09-06T06:49:36Z</time>
      </trkpt>
      <trkpt lat="19.33334" lon="99.19283">
        <time>2019-09-06T06:49:37Z</time>
      </trkpt>
      <trkpt lat="19.33349" lon="99.19291">
        <time>2019-09-06T06:49:38Z</time>
      </trkpt>
      <trkpt lat="19.33366" lon="99.19297">
        <time>2019-09-06T06:49:39Z</time>
      </trkpt>
      <trkpt lat="19.33384" lon="99.19305">
        <time>2019-09-06T06:49:40Z</time>
      </trkpt>
      <trkpt lat="19.33403" lon="99.19314">
        <time>2019-09-06T06:49:41Z</time>
      </trkpt>
      <trkpt lat="19.33421" lon="99.19319">
        <time>2019-09-06T06:49:42Z</time>
      </trkpt>
      <trkpt lat="19.33439" lon="99.19324">
        <time>2019-09-06T06:49:43Z</time>
      </trkpt>
      <trkpt lat="19.33459" lon="99.1933">
        <time>2019-09-06T06:49:44Z</time>
      </trkpt>
      <trkpt lat="19.33478" lon="99.19336">
        <time>2019-09-06T06:49:45Z</time>
      </trkpt>
      <trkpt lat="19.33495" lon="99.1934">
        <time>2019-09-06T06:49:46Z</time>
      </trkpt>
      <trkpt lat="19.33514" lon="99.19346">
        <time>2019-09-06T06:49:47Z</time>
      </trkpt>
      <trkpt lat="19.33535" lon="99.19351">
        <time>2019-09-06T06:49:48Z</time>
      </trkpt>
      <trkpt lat="19.33556" lon="99.19357">
        <time>2019-09-06T06:49:49Z</time>
      </trkpt>
      <trkpt lat="19.33577" lon="99.19363">
        <time>2019-09-06T06:49:50Z</time>
      </trkpt>
      <trkpt lat="19.33597" lon="99.19368">
        <time>2019-09-06T06:49:51Z</time>
      </trkpt>
      <trkpt lat="19.33617" lon="99.19374">
        <time>2019-09-06T06:49:52Z</time>
      </trkpt>
      <trkpt lat="19.33637" lon="99.19379">
        <time>2019-09-06T06:49:53Z</time>
      </trkpt>
      <trkpt lat="19.33658" lon="99.19386">
        <time>2019-09-06T06:49:54Z</time>
      </trkpt>
      <trkpt lat="19.3368" lon="99.19393">
        <time>2019-09-06T06:49:55Z</time>
      </trkpt>
      <trkpt lat="19.33701" lon="99.19399">
        <time>2019-09-06T06:49:56Z</time>
      </trkpt>
      <trkpt lat="19.33722" lon="99.19402">
        <time>2019-09-06T06:49:57Z</time>
      </trkpt>
      <trkpt lat="19.33745" lon="99.19407">
        <time>2019-09-06T06:49:58Z</time>
      </trkpt>
      <trkpt lat="19.33766" lon="99.19413">
        <time>2019-09-06T06:49:59Z</time>
      </trkpt>
      <trkpt lat="19.33787" lon="99.19419">
        <time>2019-09-06T06:50:00Z</time>
      </trkpt>
      <trkpt lat="19.33809" lon="99.19424">
        <time>2019-09-06T06:50:01Z</time>
      </trkpt>
      <trkpt lat="19.33831" lon="99.19429">
        <time>2019-09-06T06:50:02Z</time>
      </trkpt>
      <trkpt lat="19.33853" lon="99.19435">
        <time>2019-09-06T06:50:03Z</time>
      </trkpt>
      <trkpt lat="19.33875" lon="99.19442">
        <time>2019-09-06T06:50:04Z</time>
      </trkpt>
      <trkpt lat="19.33897" lon="99.19447">
        <time>2019-09-06T06:50:05Z</time>
      </trkpt>
      <trkpt lat="19.33919" lon="99.19453">
        <time>2019-09-06T06:50:06Z</time>
      </trkpt>
      <trkpt lat="19.33941" lon="99.19459">
        <time>2019-09-06T06:50:07Z</time>
      </trkpt>
      <trkpt lat="19.33963" lon="99.19465">
        <time>2019-09-06T06:50:08Z</time>
      </trkpt>
      <trkpt lat="19.33986" lon="99.19471">
        <time>2019-09-06T06:50:09Z</time>
      </trkpt>
      <trkpt lat="19.34007" lon="99.19478">
        <time>2019-09-06T06:50:10Z</time>
      </trkpt>
      <trkpt lat="19.34029" lon="99.19484">
        <time>2019-09-06T06:50:11Z</time>
      </trkpt>
      <trkpt lat="19.3405" lon="99.19492">
        <time>2019-09-06T06:50:12Z</time>
      </trkpt>
      <trkpt lat="19.34072" lon="99.19501">
        <time>2019-09-06T06:50:13Z</time>
      </trkpt>
      <trkpt lat="19.34093" lon="99.19509">
        <time>2019-09-06T06:50:14Z</time>
      </trkpt>
      <trkpt lat="19.34115" lon="99.19518">
        <time>2019-09-06T06:50:15Z</time>
      </trkpt>
      <trkpt lat="19.34137" lon="99.19527">
        <time>2019-09-06T06:50:16Z</time>
      </trkpt>
      <trkpt lat="19.34159" lon="99.19536">
        <time>2019-09-06T06:50:17Z</time>
      </trkpt>
      <trkpt lat="19.34179" lon="99.19544">
        <time>2019-09-06T06:50:18Z</time>
      </trkpt>
      <trkpt lat="19.34201" lon="99.19551">
        <time>2019-09-06T06:50:19Z</time>
      </trkpt>
      <trkpt lat="19.34221" lon="99.19558">
        <time>2019-09-06T06:50:20Z</time>
      </trkpt>
      <trkpt lat="19.34241" lon="99.19567">
        <time>2019-09-06T06:50:21Z</time>
      </trkpt>
      <trkpt lat="19.34259" lon="99.19576">
        <time>2019-09-06T06:50:22Z</time>
      </trkpt>
      <trkpt lat="19.34278" lon="99.19584">
        <time>2019-09-06T06:50:23Z</time>
      </trkpt>
      <trkpt lat="19.34293" lon="99.19593">
        <time>2019-09-06T06:50:24Z</time>
      </trkpt>
      <trkpt lat="19.34307" lon="99.19602">
        <time>2019-09-06T06:50:25Z</time>
      </trkpt>
      <trkpt lat="19.34322" lon="99.19607">
        <time>2019-09-06T06:50:26Z</time>
      </trkpt>
      <trkpt lat="19.34336" lon="99.19615">
        <time>2019-09-06T06:50:27Z</time>
      </trkpt>
      <trkpt lat="19.34353" lon="99.19623">
        <time>2019-09-06T06:50:28Z</time>
      </trkpt>
      <trkpt lat="19.34368" lon="99.19631">
        <time>2019-09-06T06:50:29Z</time>
      </trkpt>
      <trkpt lat="19.34383" lon="99.19637">
        <time>2019-09-06T06:50:30Z</time>
      </trkpt>
      <trkpt lat="19.34397" lon="99.19645">
        <time>2019-09-06T06:50:31Z</time>
      </trkpt>
      <trkpt lat="19.34411" lon="99.19652">
        <time>2019-09-06T06:50:32Z</time>
      </trkpt>
      <trkpt lat="19.34423" lon="99.19658">
        <time>2019-09-06T06:50:33Z</time>
      </trkpt>
      <trkpt lat="19.34435" lon="99.19665">
        <time>2019-09-06T06:50:34Z</time>
      </trkpt>
      <trkpt lat="19.34448" lon="99.19673">
        <time>2019-09-06T06:50:35Z</time>
      </trkpt>
      <trkpt lat="19.34462" lon="99.1968">
        <time>2019-09-06T06:50:36Z</time>
      </trkpt>
      <trkpt lat="19.34476" lon="99.19689">
        <time>2019-09-06T06:50:37Z</time>
      </trkpt>
      <trkpt lat="19.34489" lon="99.19696">
        <time>2019-09-06T06:50:38Z</time>
      </trkpt>
      <trkpt lat="19.34503" lon="99.19703">
        <time>2019-09-06T06:50:39Z</time>
      </trkpt>
      <trkpt lat="19.34518" lon="99.1971">
        <time>2019-09-06T06:50:40Z</time>
      </trkpt>
      <trkpt lat="19.34528" lon="99.19716">
        <time>2019-09-06T06:50:41Z</time>
      </trkpt>
      <trkpt lat="19.34542" lon="99.19724">
        <time>2019-09-06T06:50:42Z</time>
      </trkpt>
      <trkpt lat="19.34553" lon="99.19732">
        <time>2019-09-06T06:50:43Z</time>
      </trkpt>
      <trkpt lat="19.34566" lon="99.1974">
        <time>2019-09-06T06:50:44Z</time>
      </trkpt>
      <trkpt lat="19.34577" lon="99.19748">
        <time>2019-09-06T06:50:45Z</time>
      </trkpt>
      <trkpt lat="19.34589" lon="99.19755">
        <time>2019-09-06T06:50:46Z</time>
      </trkpt>
      <trkpt lat="19.34601" lon="99.19762">
        <time>2019-09-06T06:50:47Z</time>
      </trkpt>
      <trkpt lat="19.34614" lon="99.1977">
        <time>2019-09-06T06:50:48Z</time>
      </trkpt>
      <trkpt lat="19.34625" lon="99.19778">
        <time>2019-09-06T06:50:49Z</time>
      </trkpt>
      <trkpt lat="19.34636" lon="99.19789">
        <time>2019-09-06T06:50:50Z</time>
      </trkpt>
      <trkpt lat="19.34648" lon="99.198">
        <time>2019-09-06T06:50:51Z</time>
      </trkpt>
      <trkpt lat="19.34658" lon="99.1981">
        <time>2019-09-06T06:50:52Z</time>
      </trkpt>
      <trkpt lat="19.34669" lon="99.19821">
        <time>2019-09-06T06:50:53Z</time>
      </trkpt>
      <trkpt lat="19.34681" lon="99.19831">
        <time>2019-09-06T06:50:54Z</time>
      </trkpt>
      <trkpt lat="19.34691" lon="99.19842">
        <time>2019-09-06T06:50:55Z</time>
      </trkpt>
      <trkpt lat="19.34702" lon="99.19851">
        <time>2019-09-06T06:50:56Z</time>
      </trkpt>
      <trkpt lat="19.34712" lon="99.19861">
        <time>2019-09-06T06:50:57Z</time>
      </trkpt>
      <trkpt lat="19.34724" lon="99.19872">
        <time>2019-09-06T06:50:58Z</time>
      </trkpt>
      <trkpt lat="19.34734" lon="99.19882">
        <time>2019-09-06T06:50:59Z</time>
      </trkpt>
      <trkpt lat="19.34744" lon="99.19891">
        <time>2019-09-06T06:51:00Z</time>
      </trkpt>
      <trkpt lat="19.34756" lon="99.199">
        <time>2019-09-06T06:51:01Z</time>
      </trkpt>
      <trkpt lat="19.34765" lon="99.19907">
        <time>2019-09-06T06:51:02Z</time>
      </trkpt>
      <trkpt lat="19.34778" lon="99.19917">
        <time>2019-09-06T06:51:03Z</time>
      </trkpt>
      <trkpt lat="19.34791" lon="99.19923">
        <time>2019-09-06T06:51:04Z</time>
      </trkpt>
      <trkpt lat="19.34807" lon="99.19927">
        <time>2019-09-06T06:51:05Z</time>
      </trkpt>
      <trkpt lat="19.3482" lon="99.1993">
        <time>2019-09-06T06:51:06Z</time>
      </trkpt>
      <trkpt lat="19.34834" lon="99.19934">
        <time>2019-09-06T06:51:07Z</time>
      </trkpt>
      <trkpt lat="19.34847" lon="99.19937">
        <time>2019-09-06T06:51:08Z</time>
      </trkpt>
      <trkpt lat="19.34859" lon="99.19938">
        <time>2019-09-06T06:51:09Z</time>
      </trkpt>
      <trkpt lat="19.34872" lon="99.19938">
        <time>2019-09-06T06:51:10Z</time>
      </trkpt>
      <trkpt lat="19.34883" lon="99.19939">
        <time>2019-09-06T06:51:11Z</time>
      </trkpt>
      <trkpt lat="19.34895" lon="99.19939">
        <time>2019-09-06T06:51:12Z</time>
      </trkpt>
      <trkpt lat="19.34908" lon="99.19933">
        <time>2019-09-06T06:51:13Z</time>
      </trkpt>
      <trkpt lat="19.34922" lon="99.19929">
        <time>2019-09-06T06:51:14Z</time>
      </trkpt>
      <trkpt lat="19.34931" lon="99.19924">
        <time>2019-09-06T06:51:15Z</time>
      </trkpt>
      <trkpt lat="19.34942" lon="99.1992">
        <time>2019-09-06T06:51:16Z</time>
      </trkpt>
      <trkpt lat="19.34955" lon="99.19916">
        <time>2019-09-06T06:51:17Z</time>
      </trkpt>
      <trkpt lat="19.34969" lon="99.19911">
        <time>2019-09-06T06:51:18Z</time>
      </trkpt>
      <trkpt lat="19.34983" lon="99.19905">
        <time>2019-09-06T06:51:19Z</time>
      </trkpt>
      <trkpt lat="19.34995" lon="99.199">
        <time>2019-09-06T06:51:20Z</time>
      </trkpt>
      <trkpt lat="19.35009" lon="99.19896">
        <time>2019-09-06T06:51:21Z</time>
      </trkpt>
      <trkpt lat="19.35021" lon="99.19891">
        <time>2019-09-06T06:51:22Z</time>
      </trkpt>
      <trkpt lat="19.35033" lon="99.19887">
        <time>2019-09-06T06:51:23Z</time>
      </trkpt>
      <trkpt lat="19.35047" lon="99.19882">
        <time>2019-09-06T06:51:24Z</time>
      </trkpt>
      <trkpt lat="19.35059" lon="99.19877">
        <time>2019-09-06T06:51:25Z</time>
      </trkpt>
      <trkpt lat="19.35073" lon="99.19872">
        <time>2019-09-06T06:51:26Z</time>
      </trkpt>
      <trkpt lat="19.35085" lon="99.19865">
        <time>2019-09-06T06:51:27Z</time>
      </trkpt>
      <trkpt lat="19.351" lon="99.19858">
        <time>2019-09-06T06:51:28Z</time>
      </trkpt>
      <trkpt lat="19.35116" lon="99.19853">
        <time>2019-09-06T06:51:29Z</time>
      </trkpt>
      <trkpt lat="19.3513" lon="99.19848">
        <time>2019-09-06T06:51:30Z</time>
      </trkpt>
      <trkpt lat="19.35147" lon="99.19844">
        <time>2019-09-06T06:51:31Z</time>
      </trkpt>
      <trkpt lat="19.35161" lon="99.19841">
        <time>2019-09-06T06:51:32Z</time>
      </trkpt>
      <trkpt lat="19.35175" lon="99.19839">
        <time>2019-09-06T06:51:33Z</time>
      </trkpt>
      <trkpt lat="19.35189" lon="99.19839">
        <time>2019-09-06T06:51:34Z</time>
      </trkpt>
      <trkpt lat="19.35201" lon="99.19838">
        <time>2019-09-06T06:51:35Z</time>
      </trkpt>
      <trkpt lat="19.35212" lon="99.19837">
        <time>2019-09-06T06:51:36Z</time>
      </trkpt>
      <trkpt lat="19.35223" lon="99.19837">
        <time>2019-09-06T06:51:37Z</time>
      </trkpt>
      <trkpt lat="19.35234" lon="99.19837">
        <time>2019-09-06T06:51:38Z</time>
      </trkpt>
      <trkpt lat="19.35246" lon="99.19838">
        <time>2019-09-06T06:51:39Z</time>
      </trkpt>
      <trkpt lat="19.35257" lon="99.19839">
        <time>2019-09-06T06:51:40Z</time>
      </trkpt>
      <trkpt lat="19.35267" lon="99.19839">
        <time>2019-09-06T06:51:41Z</time>
      </trkpt>
      <trkpt lat="19.35276" lon="99.19839">
        <time>2019-09-06T06:51:42Z</time>
      </trkpt>
      <trkpt lat="19.35286" lon="99.1984">
        <time>2019-09-06T06:51:43Z</time>
      </trkpt>
      <trkpt lat="19.35294" lon="99.19839">
        <time>2019-09-06T06:51:44Z</time>
      </trkpt>
      <trkpt lat="19.35305" lon="99.1984">
        <time>2019-09-06T06:51:45Z</time>
      </trkpt>
      <trkpt lat="19.35315" lon="99.1984">
        <time>2019-09-06T06:51:46Z</time>
      </trkpt>
      <trkpt lat="19.35322" lon="99.19839">
        <time>2019-09-06T06:51:47Z</time>
      </trkpt>
      <trkpt lat="19.35329" lon="99.19837">
        <time>2019-09-06T06:51:48Z</time>
      </trkpt>
      <trkpt lat="19.35344" lon="99.19839">
        <time>2019-09-06T06:51:49Z</time>
      </trkpt>
      <trkpt lat="19.35355" lon="99.19842">
        <time>2019-09-06T06:51:50Z</time>
      </trkpt>
      <trkpt lat="19.35365" lon="99.19844">
        <time>2019-09-06T06:51:51Z</time>
      </trkpt>
      <trkpt lat="19.35376" lon="99.19844">
        <time>2019-09-06T06:51:52Z</time>
      </trkpt>
      <trkpt lat="19.35387" lon="99.19844">
        <time>2019-09-06T06:51:53Z</time>
      </trkpt>
      <trkpt lat="19.35396" lon="99.19842">
        <time>2019-09-06T06:51:54Z</time>
      </trkpt>
      <trkpt lat="19.35409" lon="99.19842">
        <time>2019-09-06T06:51:55Z</time>
      </trkpt>
      <trkpt lat="19.35421" lon="99.19842">
        <time>2019-09-06T06:51:56Z</time>
      </trkpt>
      <trkpt lat="19.35433" lon="99.19842">
        <time>2019-09-06T06:51:57Z</time>
      </trkpt>
      <trkpt lat="19.35445" lon="99.19842">
        <time>2019-09-06T06:51:58Z</time>
      </trkpt>
      <trkpt lat="19.3546" lon="99.19841">
        <time>2019-09-06T06:51:59Z</time>
      </trkpt>
      <trkpt lat="19.35473" lon="99.1984">
        <time>2019-09-06T06:52:00Z</time>
      </trkpt>
      <trkpt lat="19.35487" lon="99.19839">
        <time>2019-09-06T06:52:01Z</time>
      </trkpt>
      <trkpt lat="19.35501" lon="99.19839">
        <time>2019-09-06T06:52:03Z</time>
      </trkpt>
      <trkpt lat="19.35515" lon="99.19838">
        <time>2019-09-06T06:52:03Z</time>
      </trkpt>
      <trkpt lat="19.35532" lon="99.19839">
        <time>2019-09-06T06:52:04Z</time>
      </trkpt>
      <trkpt lat="19.35548" lon="99.19839">
        <time>2019-09-06T06:52:05Z</time>
      </trkpt>
      <trkpt lat="19.35563" lon="99.19839">
        <time>2019-09-06T06:52:06Z</time>
      </trkpt>
      <trkpt lat="19.35579" lon="99.1984">
        <time>2019-09-06T06:52:07Z</time>
      </trkpt>
      <trkpt lat="19.35594" lon="99.19839">
        <time>2019-09-06T06:52:08Z</time>
      </trkpt>
      <trkpt lat="19.3561" lon="99.19839">
        <time>2019-09-06T06:52:09Z</time>
      </trkpt>
      <trkpt lat="19.35627" lon="99.19842">
        <time>2019-09-06T06:52:10Z</time>
      </trkpt>
      <trkpt lat="19.35643" lon="99.19846">
        <time>2019-09-06T06:52:11Z</time>
      </trkpt>
      <trkpt lat="19.3566" lon="99.19854">
        <time>2019-09-06T06:52:12Z</time>
      </trkpt>
      <trkpt lat="19.35675" lon="99.1986">
        <time>2019-09-06T06:52:13Z</time>
      </trkpt>
      <trkpt lat="19.35691" lon="99.19867">
        <time>2019-09-06T06:52:14Z</time>
      </trkpt>
      <trkpt lat="19.35707" lon="99.19873">
        <time>2019-09-06T06:52:15Z</time>
      </trkpt>
      <trkpt lat="19.35724" lon="99.19882">
        <time>2019-09-06T06:52:16Z</time>
      </trkpt>
      <trkpt lat="19.35736" lon="99.1989">
        <time>2019-09-06T06:52:17Z</time>
      </trkpt>
      <trkpt lat="19.35751" lon="99.19898">
        <time>2019-09-06T06:52:19Z</time>
      </trkpt>
      <trkpt lat="19.35765" lon="99.19907">
        <time>2019-09-06T06:52:19Z</time>
      </trkpt>
      <trkpt lat="19.3578" lon="99.19916">
        <time>2019-09-06T06:52:20Z</time>
      </trkpt>
      <trkpt lat="19.35795" lon="99.19925">
        <time>2019-09-06T06:52:21Z</time>
      </trkpt>
      <trkpt lat="19.35809" lon="99.19934">
        <time>2019-09-06T06:52:22Z</time>
      </trkpt>
      <trkpt lat="19.35823" lon="99.19943">
        <time>2019-09-06T06:52:23Z</time>
      </trkpt>
      <trkpt lat="19.35837" lon="99.19951">
        <time>2019-09-06T06:52:24Z</time>
      </trkpt>
      <trkpt lat="19.3585" lon="99.19959">
        <time>2019-09-06T06:52:25Z</time>
      </trkpt>
      <trkpt lat="19.35863" lon="99.19966">
        <time>2019-09-06T06:52:26Z</time>
      </trkpt>
      <trkpt lat="19.35877" lon="99.19974">
        <time>2019-09-06T06:52:27Z</time>
      </trkpt>
      <trkpt lat="19.35891" lon="99.19982">
        <time>2019-09-06T06:52:28Z</time>
      </trkpt>
      <trkpt lat="19.35907" lon="99.1999">
        <time>2019-09-06T06:52:29Z</time>
      </trkpt>
      <trkpt lat="19.35922" lon="99.19998">
        <time>2019-09-06T06:52:30Z</time>
      </trkpt>
      <trkpt lat="19.35938" lon="99.20004">
        <time>2019-09-06T06:52:31Z</time>
      </trkpt>
      <trkpt lat="19.35956" lon="99.20011">
        <time>2019-09-06T06:52:32Z</time>
      </trkpt>
      <trkpt lat="19.35974" lon="99.20018">
        <time>2019-09-06T06:52:33Z</time>
      </trkpt>
      <trkpt lat="19.3599" lon="99.20024">
        <time>2019-09-06T06:52:34Z</time>
      </trkpt>
      <trkpt lat="19.36007" lon="99.2003">
        <time>2019-09-06T06:52:35Z</time>
      </trkpt>
      <trkpt lat="19.36022" lon="99.20036">
        <time>2019-09-06T06:52:36Z</time>
      </trkpt>
      <trkpt lat="19.36037" lon="99.20041">
        <time>2019-09-06T06:52:37Z</time>
      </trkpt>
      <trkpt lat="19.36052" lon="99.20046">
        <time>2019-09-06T06:52:38Z</time>
      </trkpt>
      <trkpt lat="19.36064" lon="99.2005">
        <time>2019-09-06T06:52:39Z</time>
      </trkpt>
      <trkpt lat="19.36078" lon="99.20055">
        <time>2019-09-06T06:52:40Z</time>
      </trkpt>
      <trkpt lat="19.36091" lon="99.20059">
        <time>2019-09-06T06:52:41Z</time>
      </trkpt>
      <trkpt lat="19.36104" lon="99.20064">
        <time>2019-09-06T06:52:42Z</time>
      </trkpt>
      <trkpt lat="19.36117" lon="99.20068">
        <time>2019-09-06T06:52:43Z</time>
      </trkpt>
      <trkpt lat="19.36131" lon="99.20072">
        <time>2019-09-06T06:52:44Z</time>
      </trkpt>
      <trkpt lat="19.36146" lon="99.20078">
        <time>2019-09-06T06:52:45Z</time>
      </trkpt>
      <trkpt lat="19.3616" lon="99.20083">
        <time>2019-09-06T06:52:46Z</time>
      </trkpt>
      <trkpt lat="19.36173" lon="99.20086">
        <time>2019-09-06T06:52:47Z</time>
      </trkpt>
      <trkpt lat="19.36186" lon="99.20089">
        <time>2019-09-06T06:52:48Z</time>
      </trkpt>
      <trkpt lat="19.362" lon="99.20093">
        <time>2019-09-06T06:52:49Z</time>
      </trkpt>
      <trkpt lat="19.36214" lon="99.20096">
        <time>2019-09-06T06:52:50Z</time>
      </trkpt>
      <trkpt lat="19.36228" lon="99.201">
        <time>2019-09-06T06:52:51Z</time>
      </trkpt>
      <trkpt lat="19.36241" lon="99.20104">
        <time>2019-09-06T06:52:52Z</time>
      </trkpt>
      <trkpt lat="19.36253" lon="99.20107">
        <time>2019-09-06T06:52:53Z</time>
      </trkpt>
      <trkpt lat="19.36264" lon="99.2011">
        <time>2019-09-06T06:52:54Z</time>
      </trkpt>
      <trkpt lat="19.36275" lon="99.20111">
        <time>2019-09-06T06:52:55Z</time>
      </trkpt>
      <trkpt lat="19.36285" lon="99.20113">
        <time>2019-09-06T06:52:56Z</time>
      </trkpt>
      <trkpt lat="19.36294" lon="99.20116">
        <time>2019-09-06T06:52:57Z</time>
      </trkpt>
      <trkpt lat="19.36302" lon="99.20118">
        <time>2019-09-06T06:52:58Z</time>
      </trkpt>
      <trkpt lat="19.36309" lon="99.2012">
        <time>2019-09-06T06:52:59Z</time>
      </trkpt>
      <trkpt lat="19.36317" lon="99.20123">
        <time>2019-09-06T06:53:00Z</time>
      </trkpt>
      <trkpt lat="19.36323" lon="99.20125">
        <time>2019-09-06T06:53:01Z</time>
      </trkpt>
      <trkpt lat="19.36328" lon="99.20129">
        <time>2019-09-06T06:53:02Z</time>
      </trkpt>
      <trkpt lat="19.36331" lon="99.20132">
        <time>2019-09-06T06:53:03Z</time>
      </trkpt>
      <trkpt lat="19.36334" lon="99.20136">
        <time>2019-09-06T06:53:04Z</time>
      </trkpt>
      <trkpt lat="19.36335" lon="99.20139">
        <time>2019-09-06T06:53:05Z</time>
      </trkpt>
      <trkpt lat="19.36327" lon="99.20142">
        <time>2019-09-06T06:53:06Z</time>
      </trkpt>
      <trkpt lat="19.36323" lon="99.20144">
        <time>2019-09-06T06:53:07Z</time>
      </trkpt>
      <trkpt lat="19.36318" lon="99.20144">
        <time>2019-09-06T06:53:08Z</time>
      </trkpt>
      <trkpt lat="19.36312" lon="99.20145">
        <time>2019-09-06T06:53:09Z</time>
      </trkpt>
      <trkpt lat="19.36304" lon="99.20145">
        <time>2019-09-06T06:53:10Z</time>
      </trkpt>
      <trkpt lat="19.36298" lon="99.20145">
        <time>2019-09-06T06:53:11Z</time>
      </trkpt>
      <trkpt lat="19.36291" lon="99.20145">
        <time>2019-09-06T06:53:12Z</time>
      </trkpt>
      <trkpt lat="19.36283" lon="99.20138">
        <time>2019-09-06T06:53:13Z</time>
      </trkpt>
      <trkpt lat="19.36274" lon="99.20139">
        <time>2019-09-06T06:53:14Z</time>
      </trkpt>
      <trkpt lat="19.36264" lon="99.20133">
        <time>2019-09-06T06:53:15Z</time>
      </trkpt>
      <trkpt lat="19.36254" lon="99.20131">
        <time>2019-09-06T06:53:16Z</time>
      </trkpt>
      <trkpt lat="19.36244" lon="99.20131">
        <time>2019-09-06T06:53:17Z</time>
      </trkpt>
      <trkpt lat="19.36236" lon="99.20125">
        <time>2019-09-06T06:53:18Z</time>
      </trkpt>
      <trkpt lat="19.36231" lon="99.20124">
        <time>2019-09-06T06:53:19Z</time>
      </trkpt>
      <trkpt lat="19.36222" lon="99.20121">
        <time>2019-09-06T06:53:20Z</time>
      </trkpt>
      <trkpt lat="19.36213" lon="99.20115">
        <time>2019-09-06T06:53:21Z</time>
      </trkpt>
      <trkpt lat="19.36204" lon="99.20112">
        <time>2019-09-06T06:53:22Z</time>
      </trkpt>
      <trkpt lat="19.36196" lon="99.20107">
        <time>2019-09-06T06:53:23Z</time>
      </trkpt>
      <trkpt lat="19.36186" lon="99.20104">
        <time>2019-09-06T06:53:24Z</time>
      </trkpt>
      <trkpt lat="19.36176" lon="99.20098">
        <time>2019-09-06T06:53:25Z</time>
      </trkpt>
      <trkpt lat="19.36168" lon="99.20092">
        <time>2019-09-06T06:53:26Z</time>
      </trkpt>
      <trkpt lat="19.36161" lon="99.20091">
        <time>2019-09-06T06:53:27Z</time>
      </trkpt>
      <trkpt lat="19.36152" lon="99.20089">
        <time>2019-09-06T06:53:28Z</time>
      </trkpt>
      <trkpt lat="19.36144" lon="99.20083">
        <time>2019-09-06T06:53:29Z</time>
      </trkpt>
      <trkpt lat="19.36136" lon="99.20081">
        <time>2019-09-06T06:53:30Z</time>
      </trkpt>
      <trkpt lat="19.36131" lon="99.20081">
        <time>2019-09-06T06:53:31Z</time>
      </trkpt>
      <trkpt lat="19.36121" lon="99.2008">
        <time>2019-09-06T06:53:32Z</time>
      </trkpt>
      <trkpt lat="19.36113" lon="99.20077">
        <time>2019-09-06T06:53:33Z</time>
      </trkpt>
      <trkpt lat="19.36104" lon="99.20073">
        <time>2019-09-06T06:53:34Z</time>
      </trkpt>
      <trkpt lat="19.36096" lon="99.20068">
        <time>2019-09-06T06:53:35Z</time>
      </trkpt>
      <trkpt lat="19.3609" lon="99.20064">
        <time>2019-09-06T06:53:36Z</time>
      </trkpt>
      <trkpt lat="19.36083" lon="99.20065">
        <time>2019-09-06T06:53:37Z</time>
      </trkpt>
      <trkpt lat="19.36078" lon="99.20064">
        <time>2019-09-06T06:53:38Z</time>
      </trkpt>
      <trkpt lat="19.36074" lon="99.20062">
        <time>2019-09-06T06:53:39Z</time>
      </trkpt>
      <trkpt lat="19.36071" lon="99.2006">
        <time>2019-09-06T06:53:40Z</time>
      </trkpt>
      <trkpt lat="19.36069" lon="99.20058">
        <time>2019-09-06T06:53:41Z</time>
      </trkpt>
      <trkpt lat="19.36067" lon="99.20056">
        <time>2019-09-06T06:53:42Z</time>
      </trkpt>
      <trkpt lat="19.36066" lon="99.20051">
        <time>2019-09-06T06:53:43Z</time>
      </trkpt>
      <trkpt lat="19.36064" lon="99.20047">
        <time>2019-09-06T06:53:44Z</time>
      </trkpt>
      <trkpt lat="19.36064" lon="99.20043">
        <time>2019-09-06T06:53:45Z</time>
      </trkpt>
      <trkpt lat="19.3607" lon="99.20034">
        <time>2019-09-06T06:53:46Z</time>
      </trkpt>
      <trkpt lat="19.36073" lon="99.20028">
        <time>2019-09-06T06:53:47Z</time>
      </trkpt>
      <trkpt lat="19.36073" lon="99.20026">
        <time>2019-09-06T06:53:48Z</time>
      </trkpt>
      <trkpt lat="19.36073" lon="99.20021">
        <time>2019-09-06T06:53:49Z</time>
      </trkpt>
      <trkpt lat="19.36074" lon="99.20019">
        <time>2019-09-06T06:53:50Z</time>
      </trkpt>
      <trkpt lat="19.36074" lon="99.20017">
        <time>2019-09-06T06:53:51Z</time>
      </trkpt>
      <trkpt lat="19.36074" lon="99.20016">
        <time>2019-09-06T06:53:52Z</time>
      </trkpt>
      <trkpt lat="19.36074" lon="99.20017">
        <time>2019-09-06T06:54:25Z</time>
      </trkpt>
      <trkpt lat="19.36075" lon="99.20016">
        <time>2019-09-06T06:54:26Z</time>
      </trkpt>
      <trkpt lat="19.36076" lon="99.20014">
        <time>2019-09-06T06:54:27Z</time>
      </trkpt>
      <trkpt lat="19.36076" lon="99.20013">
        <time>2019-09-06T06:54:28Z</time>
      </trkpt>
      <trkpt lat="19.36075" lon="99.20011">
        <time>2019-09-06T06:54:29Z</time>
      </trkpt>
      <trkpt lat="19.36074" lon="99.2001">
        <time>2019-09-06T06:54:30Z</time>
      </trkpt>
      <trkpt lat="19.36072" lon="99.2001">
        <time>2019-09-06T06:54:31Z</time>
      </trkpt>
      <trkpt lat="19.36071" lon="99.2001">
        <time>2019-09-06T06:54:32Z</time>
      </trkpt>
      <trkpt lat="19.36069" lon="99.2001">
        <time>2019-09-06T06:54:33Z</time>
      </trkpt>
      <trkpt lat="19.36068" lon="99.2001">
        <time>2019-09-06T06:54:34Z</time>
      </trkpt>
      <trkpt lat="19.36066" lon="99.2001">
        <time>2019-09-06T06:54:35Z</time>
      </trkpt>
      <trkpt lat="19.36065" lon="99.2001">
        <time>2019-09-06T06:54:36Z</time>
      </trkpt>
      <trkpt lat="19.36065" lon="99.2001">
        <time>2019-09-06T06:54:37Z</time>
      </trkpt>
      <trkpt lat="19.36064" lon="99.2001">
        <time>2019-09-06T06:54:38Z</time>
      </trkpt>
      <trkpt lat="19.36063" lon="99.2001">
        <time>2019-09-06T06:54:39Z</time>
      </trkpt>
      <trkpt lat="19.36063" lon="99.2001">
        <time>2019-09-06T06:54:40Z</time>
      </trkpt>
      <trkpt lat="19.36062" lon="99.2001">
        <time>2019-09-06T06:54:41Z</time>
      </trkpt>
      <trkpt lat="19.36062" lon="99.20009">
        <time>2019-09-06T06:54:42Z</time>
      </trkpt>
      <trkpt lat="19.36062" lon="99.20008">
        <time>2019-09-06T06:54:43Z</time>
      </trkpt>
      <trkpt lat="19.36065" lon="99.20006">
        <time>2019-09-06T06:55:06Z</time>
      </trkpt>
      <trkpt lat="19.36064" lon="99.20005">
        <time>2019-09-06T06:55:07Z</time>
      </trkpt>
      <trkpt lat="19.36064" lon="99.20005">
        <time>2019-09-06T06:55:08Z</time>
      </trkpt>
      <trkpt lat="19.36064" lon="99.20007">
        <time>2019-09-06T06:55:09Z</time>
      </trkpt>
      <trkpt lat="19.36064" lon="99.20007">
        <time>2019-09-06T06:55:10Z</time>
      </trkpt>
      <trkpt lat="19.36064" lon="99.20008">
        <time>2019-09-06T06:55:11Z</time>
      </trkpt>
      <trkpt lat="19.36063" lon="99.20009">
        <time>2019-09-06T06:55:12Z</time>
      </trkpt>
      <trkpt lat="19.36063" lon="99.2001">
        <time>2019-09-06T06:55:13Z</time>
      </trkpt>
      <trkpt lat="19.36065" lon="99.20009">
        <time>2019-09-06T06:55:37Z</time>
      </trkpt>
      <trkpt lat="19.36073" lon="99.20015">
        <time>2019-09-06T07:31:33Z</time>
      </trkpt>
      <trkpt lat="19.36074" lon="99.20019">
        <time>2019-09-06T07:31:34Z</time>
      </trkpt>
      <trkpt lat="19.36075" lon="99.20024">
        <time>2019-09-06T07:31:35Z</time>
      </trkpt>
      <trkpt lat="19.36074" lon="99.2003">
        <time>2019-09-06T07:31:36Z</time>
      </trkpt>
      <trkpt lat="19.36072" lon="99.20033">
        <time>2019-09-06T07:31:37Z</time>
      </trkpt>
      <trkpt lat="19.36074" lon="99.2003">
        <time>2019-09-06T07:31:49Z</time>
      </trkpt>
      <trkpt lat="19.36076" lon="99.20032">
        <time>2019-09-06T07:31:50Z</time>
      </trkpt>
      <trkpt lat="19.36077" lon="99.20033">
        <time>2019-09-06T07:31:51Z</time>
      </trkpt>
      <trkpt lat="19.36078" lon="99.20034">
        <time>2019-09-06T07:31:52Z</time>
      </trkpt>
      <trkpt lat="19.36079" lon="99.20036">
        <time>2019-09-06T07:31:53Z</time>
      </trkpt>
      <trkpt lat="19.3608" lon="99.20038">
        <time>2019-09-06T07:31:54Z</time>
      </trkpt>
      <trkpt lat="19.3608" lon="99.2004">
        <time>2019-09-06T07:31:55Z</time>
      </trkpt>
      <trkpt lat="19.36081" lon="99.20043">
        <time>2019-09-06T07:31:56Z</time>
      </trkpt>
      <trkpt lat="19.36087" lon="99.20048">
        <time>2019-09-06T07:31:58Z</time>
      </trkpt>
      <trkpt lat="19.36103" lon="99.20054">
        <time>2019-09-06T07:31:59Z</time>
      </trkpt>
      <trkpt lat="19.36108" lon="99.20057">
        <time>2019-09-06T07:32:00Z</time>
      </trkpt>
      <trkpt lat="19.36115" lon="99.20061">
        <time>2019-09-06T07:32:01Z</time>
      </trkpt>
      <trkpt lat="19.36123" lon="99.20064">
        <time>2019-09-06T07:32:02Z</time>
      </trkpt>
      <trkpt lat="19.36131" lon="99.20068">
        <time>2019-09-06T07:32:03Z</time>
      </trkpt>
      <trkpt lat="19.36141" lon="99.20071">
        <time>2019-09-06T07:32:04Z</time>
      </trkpt>
      <trkpt lat="19.36152" lon="99.20074">
        <time>2019-09-06T07:32:05Z</time>
      </trkpt>
      <trkpt lat="19.36163" lon="99.20077">
        <time>2019-09-06T07:32:06Z</time>
      </trkpt>
      <trkpt lat="19.36174" lon="99.20081">
        <time>2019-09-06T07:32:07Z</time>
      </trkpt>
      <trkpt lat="19.36185" lon="99.20085">
        <time>2019-09-06T07:32:08Z</time>
      </trkpt>
      <trkpt lat="19.36197" lon="99.20087">
        <time>2019-09-06T07:32:09Z</time>
      </trkpt>
      <trkpt lat="19.36208" lon="99.20091">
        <time>2019-09-06T07:32:10Z</time>
      </trkpt>
      <trkpt lat="19.3622" lon="99.20095">
        <time>2019-09-06T07:32:11Z</time>
      </trkpt>
      <trkpt lat="19.36232" lon="99.20098">
        <time>2019-09-06T07:32:12Z</time>
      </trkpt>
      <trkpt lat="19.36244" lon="99.20101">
        <time>2019-09-06T07:32:13Z</time>
      </trkpt>
      <trkpt lat="19.36256" lon="99.20104">
        <time>2019-09-06T07:32:14Z</time>
      </trkpt>
      <trkpt lat="19.36267" lon="99.20108">
        <time>2019-09-06T07:32:15Z</time>
      </trkpt>
      <trkpt lat="19.36279" lon="99.20111">
        <time>2019-09-06T07:32:16Z</time>
      </trkpt>
      <trkpt lat="19.36291" lon="99.20114">
        <time>2019-09-06T07:32:17Z</time>
      </trkpt>
      <trkpt lat="19.36302" lon="99.20118">
        <time>2019-09-06T07:32:18Z</time>
      </trkpt>
      <trkpt lat="19.36313" lon="99.20122">
        <time>2019-09-06T07:32:19Z</time>
      </trkpt>
      <trkpt lat="19.36324" lon="99.20126">
        <time>2019-09-06T07:32:20Z</time>
      </trkpt>
      <trkpt lat="19.36334" lon="99.20129">
        <time>2019-09-06T07:32:21Z</time>
      </trkpt>
      <trkpt lat="19.36345" lon="99.20133">
        <time>2019-09-06T07:32:22Z</time>
      </trkpt>
      <trkpt lat="19.36355" lon="99.20135">
        <time>2019-09-06T07:32:23Z</time>
      </trkpt>
      <trkpt lat="19.36366" lon="99.20139">
        <time>2019-09-06T07:32:24Z</time>
      </trkpt>
      <trkpt lat="19.36377" lon="99.20141">
        <time>2019-09-06T07:32:25Z</time>
      </trkpt>
      <trkpt lat="19.36387" lon="99.20144">
        <time>2019-09-06T07:32:26Z</time>
      </trkpt>
      <trkpt lat="19.36398" lon="99.20147">
        <time>2019-09-06T07:32:27Z</time>
      </trkpt>
      <trkpt lat="19.36409" lon="99.20149">
        <time>2019-09-06T07:32:28Z</time>
      </trkpt>
      <trkpt lat="19.36421" lon="99.20153">
        <time>2019-09-06T07:32:29Z</time>
      </trkpt>
      <trkpt lat="19.36432" lon="99.20156">
        <time>2019-09-06T07:32:30Z</time>
      </trkpt>
      <trkpt lat="19.36443" lon="99.2016">
        <time>2019-09-06T07:32:31Z</time>
      </trkpt>
      <trkpt lat="19.36453" lon="99.20164">
        <time>2019-09-06T07:32:32Z</time>
      </trkpt>
      <trkpt lat="19.36463" lon="99.20167">
        <time>2019-09-06T07:32:33Z</time>
      </trkpt>
      <trkpt lat="19.36473" lon="99.20171">
        <time>2019-09-06T07:32:34Z</time>
      </trkpt>
      <trkpt lat="19.36481" lon="99.20172">
        <time>2019-09-06T07:32:35Z</time>
      </trkpt>
      <trkpt lat="19.36491" lon="99.20174">
        <time>2019-09-06T07:32:36Z</time>
      </trkpt>
      <trkpt lat="19.36499" lon="99.20177">
        <time>2019-09-06T07:32:37Z</time>
      </trkpt>
      <trkpt lat="19.36505" lon="99.20178">
        <time>2019-09-06T07:32:38Z</time>
      </trkpt>
      <trkpt lat="19.36511" lon="99.2018">
        <time>2019-09-06T07:32:39Z</time>
      </trkpt>
      <trkpt lat="19.36514" lon="99.20181">
        <time>2019-09-06T07:32:40Z</time>
      </trkpt>
      <trkpt lat="19.36518" lon="99.20183">
        <time>2019-09-06T07:32:41Z</time>
      </trkpt>
      <trkpt lat="19.36521" lon="99.20183">
        <time>2019-09-06T07:32:42Z</time>
      </trkpt>
      <trkpt lat="19.36525" lon="99.20182">
        <time>2019-09-06T07:32:43Z</time>
      </trkpt>
      <trkpt lat="19.36527" lon="99.2018">
        <time>2019-09-06T07:32:44Z</time>
      </trkpt>
      <trkpt lat="19.36528" lon="99.20174">
        <time>2019-09-06T07:32:45Z</time>
      </trkpt>
      <trkpt lat="19.36528" lon="99.20167">
        <time>2019-09-06T07:32:46Z</time>
      </trkpt>
      <trkpt lat="19.36528" lon="99.20159">
        <time>2019-09-06T07:32:47Z</time>
      </trkpt>
      <trkpt lat="19.36529" lon="99.2015">
        <time>2019-09-06T07:32:48Z</time>
      </trkpt>
      <trkpt lat="19.36528" lon="99.20143">
        <time>2019-09-06T07:32:49Z</time>
      </trkpt>
      <trkpt lat="19.36528" lon="99.20133">
        <time>2019-09-06T07:32:50Z</time>
      </trkpt>
      <trkpt lat="19.36529" lon="99.20123">
        <time>2019-09-06T07:32:51Z</time>
      </trkpt>
      <trkpt lat="19.36532" lon="99.20112">
        <time>2019-09-06T07:32:52Z</time>
      </trkpt>
      <trkpt lat="19.36534" lon="99.20104">
        <time>2019-09-06T07:32:53Z</time>
      </trkpt>
      <trkpt lat="19.36535" lon="99.20096">
        <time>2019-09-06T07:32:54Z</time>
      </trkpt>
      <trkpt lat="19.36534" lon="99.2009">
        <time>2019-09-06T07:32:55Z</time>
      </trkpt>
      <trkpt lat="19.36531" lon="99.20086">
        <time>2019-09-06T07:32:56Z</time>
      </trkpt>
      <trkpt lat="19.36531" lon="99.20082">
        <time>2019-09-06T07:32:57Z</time>
      </trkpt>
      <trkpt lat="19.36531" lon="99.20078">
        <time>2019-09-06T07:32:58Z</time>
      </trkpt>
      <trkpt lat="19.36532" lon="99.20074">
        <time>2019-09-06T07:32:59Z</time>
      </trkpt>
      <trkpt lat="19.36532" lon="99.2007">
        <time>2019-09-06T07:33:00Z</time>
      </trkpt>
      <trkpt lat="19.36535" lon="99.20066">
        <time>2019-09-06T07:33:01Z</time>
      </trkpt>
      <trkpt lat="19.36543" lon="99.20063">
        <time>2019-09-06T07:33:02Z</time>
      </trkpt>
      <trkpt lat="19.36545" lon="99.20062">
        <time>2019-09-06T07:33:03Z</time>
      </trkpt>
      <trkpt lat="19.36549" lon="99.20064">
        <time>2019-09-06T07:33:04Z</time>
      </trkpt>
      <trkpt lat="19.36556" lon="99.20065">
        <time>2019-09-06T07:33:05Z</time>
      </trkpt>
      <trkpt lat="19.36561" lon="99.20064">
        <time>2019-09-06T07:33:06Z</time>
      </trkpt>
      <trkpt lat="19.36567" lon="99.20065">
        <time>2019-09-06T07:33:07Z</time>
      </trkpt>
      <trkpt lat="19.36572" lon="99.20066">
        <time>2019-09-06T07:33:08Z</time>
      </trkpt>
      <trkpt lat="19.36578" lon="99.20066">
        <time>2019-09-06T07:33:09Z</time>
      </trkpt>
      <trkpt lat="19.36585" lon="99.20067">
        <time>2019-09-06T07:33:10Z</time>
      </trkpt>
      <trkpt lat="19.36591" lon="99.20067">
        <time>2019-09-06T07:33:11Z</time>
      </trkpt>
      <trkpt lat="19.36599" lon="99.20068">
        <time>2019-09-06T07:33:12Z</time>
      </trkpt>
      <trkpt lat="19.36606" lon="99.2007">
        <time>2019-09-06T07:33:13Z</time>
      </trkpt>
      <trkpt lat="19.36614" lon="99.20071">
        <time>2019-09-06T07:33:14Z</time>
      </trkpt>
      <trkpt lat="19.36624" lon="99.20072">
        <time>2019-09-06T07:33:15Z</time>
      </trkpt>
      <trkpt lat="19.3663" lon="99.20071">
        <time>2019-09-06T07:33:16Z</time>
      </trkpt>
      <trkpt lat="19.36637" lon="99.20072">
        <time>2019-09-06T07:33:17Z</time>
      </trkpt>
      <trkpt lat="19.36642" lon="99.20073">
        <time>2019-09-06T07:33:18Z</time>
      </trkpt>
      <trkpt lat="19.3665" lon="99.20074">
        <time>2019-09-06T07:33:19Z</time>
      </trkpt>
      <trkpt lat="19.36658" lon="99.20075">
        <time>2019-09-06T07:33:20Z</time>
      </trkpt>
      <trkpt lat="19.36665" lon="99.20075">
        <time>2019-09-06T07:33:21Z</time>
      </trkpt>
      <trkpt lat="19.36672" lon="99.20076">
        <time>2019-09-06T07:33:22Z</time>
      </trkpt>
      <trkpt lat="19.3668" lon="99.20077">
        <time>2019-09-06T07:33:23Z</time>
      </trkpt>
      <trkpt lat="19.36687" lon="99.20078">
        <time>2019-09-06T07:33:24Z</time>
      </trkpt>
      <trkpt lat="19.36695" lon="99.2008">
        <time>2019-09-06T07:33:25Z</time>
      </trkpt>
      <trkpt lat="19.36703" lon="99.20081">
        <time>2019-09-06T07:33:26Z</time>
      </trkpt>
      <trkpt lat="19.36711" lon="99.20081">
        <time>2019-09-06T07:33:27Z</time>
      </trkpt>
      <trkpt lat="19.36719" lon="99.20081">
        <time>2019-09-06T07:33:28Z</time>
      </trkpt>
      <trkpt lat="19.36725" lon="99.20081">
        <time>2019-09-06T07:33:29Z</time>
      </trkpt>
      <trkpt lat="19.36731" lon="99.20082">
        <time>2019-09-06T07:33:30Z</time>
      </trkpt>
      <trkpt lat="19.36736" lon="99.20082">
        <time>2019-09-06T07:33:31Z</time>
      </trkpt>
      <trkpt lat="19.3674" lon="99.20081">
        <time>2019-09-06T07:33:32Z</time>
      </trkpt>
      <trkpt lat="19.36745" lon="99.20083">
        <time>2019-09-06T07:33:33Z</time>
      </trkpt>
      <trkpt lat="19.36751" lon="99.20083">
        <time>2019-09-06T07:33:34Z</time>
      </trkpt>
      <trkpt lat="19.36757" lon="99.20084">
        <time>2019-09-06T07:33:35Z</time>
      </trkpt>
      <trkpt lat="19.36764" lon="99.20084">
        <time>2019-09-06T07:33:36Z</time>
      </trkpt>
      <trkpt lat="19.36771" lon="99.20084">
        <time>2019-09-06T07:33:37Z</time>
      </trkpt>
      <trkpt lat="19.36777" lon="99.20085">
        <time>2019-09-06T07:33:38Z</time>
      </trkpt>
      <trkpt lat="19.36784" lon="99.20086">
        <time>2019-09-06T07:33:39Z</time>
      </trkpt>
      <trkpt lat="19.36791" lon="99.20087">
        <time>2019-09-06T07:33:40Z</time>
      </trkpt>
      <trkpt lat="19.36798" lon="99.20087">
        <time>2019-09-06T07:33:41Z</time>
      </trkpt>
      <trkpt lat="19.36806" lon="99.20086">
        <time>2019-09-06T07:33:42Z</time>
      </trkpt>
      <trkpt lat="19.36814" lon="99.20085">
        <time>2019-09-06T07:33:43Z</time>
      </trkpt>
      <trkpt lat="19.36821" lon="99.20086">
        <time>2019-09-06T07:33:44Z</time>
      </trkpt>
      <trkpt lat="19.36828" lon="99.20087">
        <time>2019-09-06T07:33:45Z</time>
      </trkpt>
      <trkpt lat="19.36834" lon="99.20089">
        <time>2019-09-06T07:33:46Z</time>
      </trkpt>
      <trkpt lat="19.36841" lon="99.20088">
        <time>2019-09-06T07:33:47Z</time>
      </trkpt>
      <trkpt lat="19.36849" lon="99.20089">
        <time>2019-09-06T07:33:48Z</time>
      </trkpt>
      <trkpt lat="19.36856" lon="99.2009">
        <time>2019-09-06T07:33:49Z</time>
      </trkpt>
      <trkpt lat="19.36861" lon="99.2009">
        <time>2019-09-06T07:33:50Z</time>
      </trkpt>
      <trkpt lat="19.36867" lon="99.20092">
        <time>2019-09-06T07:33:51Z</time>
      </trkpt>
      <trkpt lat="19.36873" lon="99.20093">
        <time>2019-09-06T07:33:52Z</time>
      </trkpt>
      <trkpt lat="19.36879" lon="99.20093">
        <time>2019-09-06T07:33:53Z</time>
      </trkpt>
      <trkpt lat="19.36885" lon="99.20093">
        <time>2019-09-06T07:33:54Z</time>
      </trkpt>
      <trkpt lat="19.36891" lon="99.20095">
        <time>2019-09-06T07:33:55Z</time>
      </trkpt>
      <trkpt lat="19.36897" lon="99.20096">
        <time>2019-09-06T07:33:56Z</time>
      </trkpt>
      <trkpt lat="19.36903" lon="99.20097">
        <time>2019-09-06T07:33:57Z</time>
      </trkpt>
      <trkpt lat="19.36908" lon="99.20099">
        <time>2019-09-06T07:33:58Z</time>
      </trkpt>
      <trkpt lat="19.36912" lon="99.201">
        <time>2019-09-06T07:33:59Z</time>
      </trkpt>
      <trkpt lat="19.36916" lon="99.201">
        <time>2019-09-06T07:34:00Z</time>
      </trkpt>
      <trkpt lat="19.36919" lon="99.201">
        <time>2019-09-06T07:34:01Z</time>
      </trkpt>
      <trkpt lat="19.3692" lon="99.20101">
        <time>2019-09-06T07:34:02Z</time>
      </trkpt>
      <trkpt lat="19.36922" lon="99.20102">
        <time>2019-09-06T07:34:03Z</time>
      </trkpt>
      <trkpt lat="19.36924" lon="99.20103">
        <time>2019-09-06T07:34:04Z</time>
      </trkpt>
      <trkpt lat="19.36933" lon="99.20099">
        <time>2019-09-06T07:34:08Z</time>
      </trkpt>
      <trkpt lat="19.36934" lon="99.20094">
        <time>2019-09-06T07:34:09Z</time>
      </trkpt>
      <trkpt lat="19.36934" lon="99.20088">
        <time>2019-09-06T07:34:10Z</time>
      </trkpt>
      <trkpt lat="19.36936" lon="99.20082">
        <time>2019-09-06T07:34:11Z</time>
      </trkpt>
      <trkpt lat="19.36937" lon="99.20077">
        <time>2019-09-06T07:34:12Z</time>
      </trkpt>
      <trkpt lat="19.36939" lon="99.2007">
        <time>2019-09-06T07:34:13Z</time>
      </trkpt>
      <trkpt lat="19.36941" lon="99.20064">
        <time>2019-09-06T07:34:14Z</time>
      </trkpt>
      <trkpt lat="19.36943" lon="99.20058">
        <time>2019-09-06T07:34:15Z</time>
      </trkpt>
      <trkpt lat="19.36945" lon="99.20052">
        <time>2019-09-06T07:34:16Z</time>
      </trkpt>
      <trkpt lat="19.36947" lon="99.20044">
        <time>2019-09-06T07:34:17Z</time>
      </trkpt>
      <trkpt lat="19.36948" lon="99.20037">
        <time>2019-09-06T07:34:18Z</time>
      </trkpt>
      <trkpt lat="19.3695" lon="99.2003">
        <time>2019-09-06T07:34:19Z</time>
      </trkpt>
      <trkpt lat="19.36952" lon="99.20019">
        <time>2019-09-06T07:34:20Z</time>
      </trkpt>
      <trkpt lat="19.36954" lon="99.20009">
        <time>2019-09-06T07:34:21Z</time>
      </trkpt>
      <trkpt lat="19.36959" lon="99.19995">
        <time>2019-09-06T07:34:22Z</time>
      </trkpt>
      <trkpt lat="19.36961" lon="99.19982">
        <time>2019-09-06T07:34:23Z</time>
      </trkpt>
      <trkpt lat="19.36965" lon="99.19969">
        <time>2019-09-06T07:34:24Z</time>
      </trkpt>
      <trkpt lat="19.36967" lon="99.19954">
        <time>2019-09-06T07:34:25Z</time>
      </trkpt>
      <trkpt lat="19.36972" lon="99.19937">
        <time>2019-09-06T07:34:26Z</time>
      </trkpt>
      <trkpt lat="19.36978" lon="99.19919">
        <time>2019-09-06T07:34:27Z</time>
      </trkpt>
      <trkpt lat="19.36981" lon="99.19902">
        <time>2019-09-06T07:34:28Z</time>
      </trkpt>
      <trkpt lat="19.36984" lon="99.19885">
        <time>2019-09-06T07:34:29Z</time>
      </trkpt>
      <trkpt lat="19.36986" lon="99.19867">
        <time>2019-09-06T07:34:31Z</time>
      </trkpt>
      <trkpt lat="19.36988" lon="99.19849">
        <time>2019-09-06T07:34:31Z</time>
      </trkpt>
      <trkpt lat="19.36989" lon="99.19832">
        <time>2019-09-06T07:34:32Z</time>
      </trkpt>
      <trkpt lat="19.3699" lon="99.19814">
        <time>2019-09-06T07:34:33Z</time>
      </trkpt>
      <trkpt lat="19.3699" lon="99.19796">
        <time>2019-09-06T07:34:34Z</time>
      </trkpt>
      <trkpt lat="19.36988" lon="99.19778">
        <time>2019-09-06T07:34:35Z</time>
      </trkpt>
      <trkpt lat="19.36985" lon="99.19759">
        <time>2019-09-06T07:34:36Z</time>
      </trkpt>
      <trkpt lat="19.36983" lon="99.19741">
        <time>2019-09-06T07:34:37Z</time>
      </trkpt>
      <trkpt lat="19.3698" lon="99.19722">
        <time>2019-09-06T07:34:38Z</time>
      </trkpt>
      <trkpt lat="19.36977" lon="99.19703">
        <time>2019-09-06T07:34:39Z</time>
      </trkpt>
      <trkpt lat="19.36975" lon="99.19683">
        <time>2019-09-06T07:34:40Z</time>
      </trkpt>
      <trkpt lat="19.36971" lon="99.19665">
        <time>2019-09-06T07:34:41Z</time>
      </trkpt>
      <trkpt lat="19.36966" lon="99.19646">
        <time>2019-09-06T07:34:42Z</time>
      </trkpt>
      <trkpt lat="19.3696" lon="99.19627">
        <time>2019-09-06T07:34:43Z</time>
      </trkpt>
      <trkpt lat="19.36952" lon="99.1961">
        <time>2019-09-06T07:34:44Z</time>
      </trkpt>
      <trkpt lat="19.36948" lon="99.19591">
        <time>2019-09-06T07:34:45Z</time>
      </trkpt>
      <trkpt lat="19.36946" lon="99.19571">
        <time>2019-09-06T07:34:46Z</time>
      </trkpt>
      <trkpt lat="19.36941" lon="99.19554">
        <time>2019-09-06T07:34:47Z</time>
      </trkpt>
      <trkpt lat="19.36936" lon="99.19536">
        <time>2019-09-06T07:34:48Z</time>
      </trkpt>
      <trkpt lat="19.36931" lon="99.19517">
        <time>2019-09-06T07:34:49Z</time>
      </trkpt>
      <trkpt lat="19.36926" lon="99.19497">
        <time>2019-09-06T07:34:50Z</time>
      </trkpt>
      <trkpt lat="19.3692" lon="99.19477">
        <time>2019-09-06T07:34:51Z</time>
      </trkpt>
      <trkpt lat="19.36915" lon="99.19455">
        <time>2019-09-06T07:34:52Z</time>
      </trkpt>
      <trkpt lat="19.36909" lon="99.19433">
        <time>2019-09-06T07:34:53Z</time>
      </trkpt>
      <trkpt lat="19.36901" lon="99.19412">
        <time>2019-09-06T07:34:54Z</time>
      </trkpt>
      <trkpt lat="19.36893" lon="99.1939">
        <time>2019-09-06T07:34:55Z</time>
      </trkpt>
      <trkpt lat="19.36888" lon="99.19366">
        <time>2019-09-06T07:34:56Z</time>
      </trkpt>
      <trkpt lat="19.36883" lon="99.19344">
        <time>2019-09-06T07:34:57Z</time>
      </trkpt>
      <trkpt lat="19.36875" lon="99.1932">
        <time>2019-09-06T07:34:58Z</time>
      </trkpt>
      <trkpt lat="19.36868" lon="99.19298">
        <time>2019-09-06T07:34:59Z</time>
      </trkpt>
      <trkpt lat="19.36863" lon="99.19274">
        <time>2019-09-06T07:35:00Z</time>
      </trkpt>
      <trkpt lat="19.36854" lon="99.19252">
        <time>2019-09-06T07:35:01Z</time>
      </trkpt>
      <trkpt lat="19.36848" lon="99.19229">
        <time>2019-09-06T07:35:02Z</time>
      </trkpt>
      <trkpt lat="19.36839" lon="99.19207">
        <time>2019-09-06T07:35:03Z</time>
      </trkpt>
      <trkpt lat="19.36836" lon="99.19185">
        <time>2019-09-06T07:35:04Z</time>
      </trkpt>
      <trkpt lat="19.36829" lon="99.19162">
        <time>2019-09-06T07:35:05Z</time>
      </trkpt>
      <trkpt lat="19.36825" lon="99.19139">
        <time>2019-09-06T07:35:06Z</time>
      </trkpt>
      <trkpt lat="19.36821" lon="99.19114">
        <time>2019-09-06T07:35:07Z</time>
      </trkpt>
      <trkpt lat="19.36812" lon="99.1909">
        <time>2019-09-06T07:35:08Z</time>
      </trkpt>
      <trkpt lat="19.36804" lon="99.19069">
        <time>2019-09-06T07:35:09Z</time>
      </trkpt>
      <trkpt lat="19.36799" lon="99.19045">
        <time>2019-09-06T07:35:10Z</time>
      </trkpt>
      <trkpt lat="19.36789" lon="99.19025">
        <time>2019-09-06T07:35:11Z</time>
      </trkpt>
      <trkpt lat="19.36782" lon="99.19003">
        <time>2019-09-06T07:35:12Z</time>
      </trkpt>
      <trkpt lat="19.36774" lon="99.18981">
        <time>2019-09-06T07:35:13Z</time>
      </trkpt>
      <trkpt lat="19.36767" lon="99.1896">
        <time>2019-09-06T07:35:14Z</time>
      </trkpt>
      <trkpt lat="19.36764" lon="99.18937">
        <time>2019-09-06T07:35:15Z</time>
      </trkpt>
      <trkpt lat="19.36755" lon="99.18915">
        <time>2019-09-06T07:35:16Z</time>
      </trkpt>
      <trkpt lat="19.36747" lon="99.18894">
        <time>2019-09-06T07:35:17Z</time>
      </trkpt>
      <trkpt lat="19.36739" lon="99.18871">
        <time>2019-09-06T07:35:18Z</time>
      </trkpt>
      <trkpt lat="19.36732" lon="99.18849">
        <time>2019-09-06T07:35:19Z</time>
      </trkpt>
      <trkpt lat="19.36722" lon="99.18828">
        <time>2019-09-06T07:35:20Z</time>
      </trkpt>
      <trkpt lat="19.36711" lon="99.18806">
        <time>2019-09-06T07:35:21Z</time>
      </trkpt>
      <trkpt lat="19.36704" lon="99.18784">
        <time>2019-09-06T07:35:22Z</time>
      </trkpt>
      <trkpt lat="19.36695" lon="99.18762">
        <time>2019-09-06T07:35:23Z</time>
      </trkpt>
      <trkpt lat="19.36686" lon="99.18741">
        <time>2019-09-06T07:35:24Z</time>
      </trkpt>
      <trkpt lat="19.36677" lon="99.1872">
        <time>2019-09-06T07:35:25Z</time>
      </trkpt>
      <trkpt lat="19.36669" lon="99.18699">
        <time>2019-09-06T07:35:26Z</time>
      </trkpt>
      <trkpt lat="19.36661" lon="99.18678">
        <time>2019-09-06T07:35:27Z</time>
      </trkpt>
      <trkpt lat="19.36651" lon="99.18657">
        <time>2019-09-06T07:35:28Z</time>
      </trkpt>
      <trkpt lat="19.36642" lon="99.18636">
        <time>2019-09-06T07:35:29Z</time>
      </trkpt>
      <trkpt lat="19.36629" lon="99.18617">
        <time>2019-09-06T07:35:30Z</time>
      </trkpt>
      <trkpt lat="19.36616" lon="99.18597">
        <time>2019-09-06T07:35:31Z</time>
      </trkpt>
      <trkpt lat="19.36605" lon="99.18579">
        <time>2019-09-06T07:35:32Z</time>
      </trkpt>
      <trkpt lat="19.36596" lon="99.18562">
        <time>2019-09-06T07:35:33Z</time>
      </trkpt>
      <trkpt lat="19.36587" lon="99.18543">
        <time>2019-09-06T07:35:34Z</time>
      </trkpt>
      <trkpt lat="19.36582" lon="99.18524">
        <time>2019-09-06T07:35:35Z</time>
      </trkpt>
      <trkpt lat="19.36578" lon="99.18505">
        <time>2019-09-06T07:35:36Z</time>
      </trkpt>
      <trkpt lat="19.36571" lon="99.18489">
        <time>2019-09-06T07:35:37Z</time>
      </trkpt>
      <trkpt lat="19.36567" lon="99.18473">
        <time>2019-09-06T07:35:38Z</time>
      </trkpt>
      <trkpt lat="19.36565" lon="99.18459">
        <time>2019-09-06T07:35:39Z</time>
      </trkpt>
      <trkpt lat="19.36563" lon="99.18446">
        <time>2019-09-06T07:35:40Z</time>
      </trkpt>
      <trkpt lat="19.36562" lon="99.18435">
        <time>2019-09-06T07:35:41Z</time>
      </trkpt>
      <trkpt lat="19.36561" lon="99.18423">
        <time>2019-09-06T07:35:42Z</time>
      </trkpt>
      <trkpt lat="19.3656" lon="99.18413">
        <time>2019-09-06T07:35:43Z</time>
      </trkpt>
      <trkpt lat="19.3656" lon="99.18405">
        <time>2019-09-06T07:35:44Z</time>
      </trkpt>
      <trkpt lat="19.36562" lon="99.18399">
        <time>2019-09-06T07:35:45Z</time>
      </trkpt>
      <trkpt lat="19.36569" lon="99.18391">
        <time>2019-09-06T07:35:46Z</time>
      </trkpt>
      <trkpt lat="19.36574" lon="99.18383">
        <time>2019-09-06T07:35:47Z</time>
      </trkpt>
      <trkpt lat="19.36579" lon="99.18375">
        <time>2019-09-06T07:35:48Z</time>
      </trkpt>
      <trkpt lat="19.36586" lon="99.18367">
        <time>2019-09-06T07:35:49Z</time>
      </trkpt>
      <trkpt lat="19.36595" lon="99.1836">
        <time>2019-09-06T07:35:50Z</time>
      </trkpt>
      <trkpt lat="19.36604" lon="99.18353">
        <time>2019-09-06T07:35:51Z</time>
      </trkpt>
      <trkpt lat="19.36615" lon="99.18346">
        <time>2019-09-06T07:35:52Z</time>
      </trkpt>
      <trkpt lat="19.36628" lon="99.18337">
        <time>2019-09-06T07:35:53Z</time>
      </trkpt>
      <trkpt lat="19.36641" lon="99.18328">
        <time>2019-09-06T07:35:54Z</time>
      </trkpt>
      <trkpt lat="19.36654" lon="99.18317">
        <time>2019-09-06T07:35:55Z</time>
      </trkpt>
      <trkpt lat="19.36666" lon="99.18307">
        <time>2019-09-06T07:35:56Z</time>
      </trkpt>
      <trkpt lat="19.36679" lon="99.18296">
        <time>2019-09-06T07:35:57Z</time>
      </trkpt>
      <trkpt lat="19.36691" lon="99.18285">
        <time>2019-09-06T07:35:58Z</time>
      </trkpt>
      <trkpt lat="19.36704" lon="99.18273">
        <time>2019-09-06T07:35:59Z</time>
      </trkpt>
      <trkpt lat="19.36717" lon="99.1826">
        <time>2019-09-06T07:36:00Z</time>
      </trkpt>
      <trkpt lat="19.36728" lon="99.18246">
        <time>2019-09-06T07:36:01Z</time>
      </trkpt>
      <trkpt lat="19.36739" lon="99.18232">
        <time>2019-09-06T07:36:02Z</time>
      </trkpt>
      <trkpt lat="19.36748" lon="99.18216">
        <time>2019-09-06T07:36:03Z</time>
      </trkpt>
      <trkpt lat="19.36758" lon="99.18201">
        <time>2019-09-06T07:36:04Z</time>
      </trkpt>
      <trkpt lat="19.36768" lon="99.18186">
        <time>2019-09-06T07:36:05Z</time>
      </trkpt>
      <trkpt lat="19.36776" lon="99.18172">
        <time>2019-09-06T07:36:06Z</time>
      </trkpt>
      <trkpt lat="19.36786" lon="99.18157">
        <time>2019-09-06T07:36:07Z</time>
      </trkpt>
      <trkpt lat="19.36795" lon="99.18141">
        <time>2019-09-06T07:36:08Z</time>
      </trkpt>
      <trkpt lat="19.36805" lon="99.18126">
        <time>2019-09-06T07:36:09Z</time>
      </trkpt>
      <trkpt lat="19.36815" lon="99.18111">
        <time>2019-09-06T07:36:10Z</time>
      </trkpt>
      <trkpt lat="19.36827" lon="99.18098">
        <time>2019-09-06T07:36:11Z</time>
      </trkpt>
      <trkpt lat="19.3684" lon="99.18085">
        <time>2019-09-06T07:36:12Z</time>
      </trkpt>
      <trkpt lat="19.36855" lon="99.18074">
        <time>2019-09-06T07:36:13Z</time>
      </trkpt>
      <trkpt lat="19.36871" lon="99.18066">
        <time>2019-09-06T07:36:14Z</time>
      </trkpt>
      <trkpt lat="19.36888" lon="99.18059">
        <time>2019-09-06T07:36:15Z</time>
      </trkpt>
      <trkpt lat="19.36905" lon="99.18054">
        <time>2019-09-06T07:36:16Z</time>
      </trkpt>
      <trkpt lat="19.36922" lon="99.18048">
        <time>2019-09-06T07:36:17Z</time>
      </trkpt>
      <trkpt lat="19.36939" lon="99.18043">
        <time>2019-09-06T07:36:18Z</time>
      </trkpt>
      <trkpt lat="19.36953" lon="99.18037">
        <time>2019-09-06T07:36:19Z</time>
      </trkpt>
      <trkpt lat="19.36966" lon="99.18033">
        <time>2019-09-06T07:36:20Z</time>
      </trkpt>
      <trkpt lat="19.36978" lon="99.18028">
        <time>2019-09-06T07:36:21Z</time>
      </trkpt>
      <trkpt lat="19.3699" lon="99.18024">
        <time>2019-09-06T07:36:22Z</time>
      </trkpt>
      <trkpt lat="19.37002" lon="99.18019">
        <time>2019-09-06T07:36:23Z</time>
      </trkpt>
      <trkpt lat="19.37013" lon="99.18011">
        <time>2019-09-06T07:36:24Z</time>
      </trkpt>
      <trkpt lat="19.37025" lon="99.18003">
        <time>2019-09-06T07:36:25Z</time>
      </trkpt>
      <trkpt lat="19.37035" lon="99.17994">
        <time>2019-09-06T07:36:26Z</time>
      </trkpt>
      <trkpt lat="19.37035" lon="99.17977">
        <time>2019-09-06T07:36:27Z</time>
      </trkpt>
      <trkpt lat="19.37036" lon="99.17962">
        <time>2019-09-06T07:36:28Z</time>
      </trkpt>
      <trkpt lat="19.37037" lon="99.17946">
        <time>2019-09-06T07:36:30Z</time>
      </trkpt>
      <trkpt lat="19.37038" lon="99.17932">
        <time>2019-09-06T07:36:30Z</time>
      </trkpt>
      <trkpt lat="19.37038" lon="99.17918">
        <time>2019-09-06T07:36:31Z</time>
      </trkpt>
      <trkpt lat="19.37042" lon="99.17903">
        <time>2019-09-06T07:36:32Z</time>
      </trkpt>
      <trkpt lat="19.37039" lon="99.17891">
        <time>2019-09-06T07:36:33Z</time>
      </trkpt>
      <trkpt lat="19.37053" lon="99.17877">
        <time>2019-09-06T07:36:34Z</time>
      </trkpt>
      <trkpt lat="19.3706" lon="99.17863">
        <time>2019-09-06T07:36:35Z</time>
      </trkpt>
      <trkpt lat="19.3707" lon="99.1785">
        <time>2019-09-06T07:36:36Z</time>
      </trkpt>
      <trkpt lat="19.37079" lon="99.17838">
        <time>2019-09-06T07:36:37Z</time>
      </trkpt>
      <trkpt lat="19.37091" lon="99.17829">
        <time>2019-09-06T07:36:38Z</time>
      </trkpt>
      <trkpt lat="19.37103" lon="99.1782">
        <time>2019-09-06T07:36:39Z</time>
      </trkpt>
      <trkpt lat="19.37116" lon="99.17813">
        <time>2019-09-06T07:36:40Z</time>
      </trkpt>
      <trkpt lat="19.37127" lon="99.17806">
        <time>2019-09-06T07:36:41Z</time>
      </trkpt>
      <trkpt lat="19.37139" lon="99.178">
        <time>2019-09-06T07:36:42Z</time>
      </trkpt>
      <trkpt lat="19.37151" lon="99.17794">
        <time>2019-09-06T07:36:43Z</time>
      </trkpt>
      <trkpt lat="19.37157" lon="99.17781">
        <time>2019-09-06T07:36:44Z</time>
      </trkpt>
      <trkpt lat="19.37163" lon="99.17769">
        <time>2019-09-06T07:36:45Z</time>
      </trkpt>
      <trkpt lat="19.37168" lon="99.17757">
        <time>2019-09-06T07:36:46Z</time>
      </trkpt>
      <trkpt lat="19.37173" lon="99.17745">
        <time>2019-09-06T07:36:47Z</time>
      </trkpt>
      <trkpt lat="19.37178" lon="99.17734">
        <time>2019-09-06T07:36:48Z</time>
      </trkpt>
      <trkpt lat="19.37184" lon="99.17722">
        <time>2019-09-06T07:36:49Z</time>
      </trkpt>
      <trkpt lat="19.3719" lon="99.17712">
        <time>2019-09-06T07:36:50Z</time>
      </trkpt>
      <trkpt lat="19.37198" lon="99.17703">
        <time>2019-09-06T07:36:51Z</time>
      </trkpt>
      <trkpt lat="19.37207" lon="99.17698">
        <time>2019-09-06T07:36:52Z</time>
      </trkpt>
      <trkpt lat="19.3722" lon="99.17693">
        <time>2019-09-06T07:36:53Z</time>
      </trkpt>
      <trkpt lat="19.37237" lon="99.177">
        <time>2019-09-06T07:36:54Z</time>
      </trkpt>
      <trkpt lat="19.3725" lon="99.17699">
        <time>2019-09-06T07:36:55Z</time>
      </trkpt>
      <trkpt lat="19.37262" lon="99.177">
        <time>2019-09-06T07:36:56Z</time>
      </trkpt>
      <trkpt lat="19.37273" lon="99.177">
        <time>2019-09-06T07:36:57Z</time>
      </trkpt>
      <trkpt lat="19.37283" lon="99.17699">
        <time>2019-09-06T07:36:58Z</time>
      </trkpt>
      <trkpt lat="19.37293" lon="99.17693">
        <time>2019-09-06T07:36:59Z</time>
      </trkpt>
      <trkpt lat="19.37302" lon="99.17683">
        <time>2019-09-06T07:37:00Z</time>
      </trkpt>
      <trkpt lat="19.3731" lon="99.17672">
        <time>2019-09-06T07:37:01Z</time>
      </trkpt>
      <trkpt lat="19.37317" lon="99.1766">
        <time>2019-09-06T07:37:02Z</time>
      </trkpt>
      <trkpt lat="19.37323" lon="99.17646">
        <time>2019-09-06T07:37:03Z</time>
      </trkpt>
      <trkpt lat="19.37329" lon="99.1763">
        <time>2019-09-06T07:37:04Z</time>
      </trkpt>
      <trkpt lat="19.37338" lon="99.17613">
        <time>2019-09-06T07:37:05Z</time>
      </trkpt>
      <trkpt lat="19.37346" lon="99.17597">
        <time>2019-09-06T07:37:06Z</time>
      </trkpt>
      <trkpt lat="19.37353" lon="99.17579">
        <time>2019-09-06T07:37:07Z</time>
      </trkpt>
      <trkpt lat="19.37359" lon="99.17561">
        <time>2019-09-06T07:37:08Z</time>
      </trkpt>
      <trkpt lat="19.37362" lon="99.1754">
        <time>2019-09-06T07:37:09Z</time>
      </trkpt>
      <trkpt lat="19.37366" lon="99.17518">
        <time>2019-09-06T07:37:10Z</time>
      </trkpt>
      <trkpt lat="19.37367" lon="99.17496">
        <time>2019-09-06T07:37:11Z</time>
      </trkpt>
      <trkpt lat="19.37368" lon="99.17472">
        <time>2019-09-06T07:37:12Z</time>
      </trkpt>
      <trkpt lat="19.37368" lon="99.17449">
        <time>2019-09-06T07:37:13Z</time>
      </trkpt>
      <trkpt lat="19.37372" lon="99.17424">
        <time>2019-09-06T07:37:14Z</time>
      </trkpt>
      <trkpt lat="19.3738" lon="99.17397">
        <time>2019-09-06T07:37:15Z</time>
      </trkpt>
      <trkpt lat="19.37385" lon="99.17373">
        <time>2019-09-06T07:37:16Z</time>
      </trkpt>
      <trkpt lat="19.37391" lon="99.17347">
        <time>2019-09-06T07:37:17Z</time>
      </trkpt>
      <trkpt lat="19.37398" lon="99.17322">
        <time>2019-09-06T07:37:18Z</time>
      </trkpt>
      <trkpt lat="19.37403" lon="99.17297">
        <time>2019-09-06T07:37:19Z</time>
      </trkpt>
      <trkpt lat="19.37411" lon="99.17272">
        <time>2019-09-06T07:37:20Z</time>
      </trkpt>
      <trkpt lat="19.37414" lon="99.17248">
        <time>2019-09-06T07:37:21Z</time>
      </trkpt>
      <trkpt lat="19.37419" lon="99.17224">
        <time>2019-09-06T07:37:22Z</time>
      </trkpt>
      <trkpt lat="19.37422" lon="99.172">
        <time>2019-09-06T07:37:23Z</time>
      </trkpt>
      <trkpt lat="19.37423" lon="99.17176">
        <time>2019-09-06T07:37:24Z</time>
      </trkpt>
      <trkpt lat="19.37421" lon="99.17151">
        <time>2019-09-06T07:37:25Z</time>
      </trkpt>
      <trkpt lat="19.37415" lon="99.17128">
        <time>2019-09-06T07:37:26Z</time>
      </trkpt>
      <trkpt lat="19.37408" lon="99.17106">
        <time>2019-09-06T07:37:27Z</time>
      </trkpt>
      <trkpt lat="19.37399" lon="99.17083">
        <time>2019-09-06T07:37:28Z</time>
      </trkpt>
      <trkpt lat="19.37387" lon="99.17062">
        <time>2019-09-06T07:37:29Z</time>
      </trkpt>
      <trkpt lat="19.37379" lon="99.1704">
        <time>2019-09-06T07:37:30Z</time>
      </trkpt>
      <trkpt lat="19.37368" lon="99.17019">
        <time>2019-09-06T07:37:31Z</time>
      </trkpt>
      <trkpt lat="19.37359" lon="99.16997">
        <time>2019-09-06T07:37:32Z</time>
      </trkpt>
      <trkpt lat="19.37353" lon="99.16975">
        <time>2019-09-06T07:37:33Z</time>
      </trkpt>
      <trkpt lat="19.37352" lon="99.16951">
        <time>2019-09-06T07:37:34Z</time>
      </trkpt>
      <trkpt lat="19.37351" lon="99.1693">
        <time>2019-09-06T07:37:35Z</time>
      </trkpt>
      <trkpt lat="19.3736" lon="99.16903">
        <time>2019-09-06T07:37:36Z</time>
      </trkpt>
      <trkpt lat="19.37364" lon="99.16878">
        <time>2019-09-06T07:37:37Z</time>
      </trkpt>
      <trkpt lat="19.37369" lon="99.16851">
        <time>2019-09-06T07:37:38Z</time>
      </trkpt>
      <trkpt lat="19.37374" lon="99.16824">
        <time>2019-09-06T07:37:39Z</time>
      </trkpt>
      <trkpt lat="19.3738" lon="99.16796">
        <time>2019-09-06T07:37:40Z</time>
      </trkpt>
      <trkpt lat="19.37381" lon="99.16771">
        <time>2019-09-06T07:37:41Z</time>
      </trkpt>
      <trkpt lat="19.37383" lon="99.16745">
        <time>2019-09-06T07:37:42Z</time>
      </trkpt>
      <trkpt lat="19.37384" lon="99.1672">
        <time>2019-09-06T07:37:43Z</time>
      </trkpt>
      <trkpt lat="19.37385" lon="99.16695">
        <time>2019-09-06T07:37:44Z</time>
      </trkpt>
      <trkpt lat="19.37392" lon="99.16668">
        <time>2019-09-06T07:37:45Z</time>
      </trkpt>
      <trkpt lat="19.37396" lon="99.1664">
        <time>2019-09-06T07:37:46Z</time>
      </trkpt>
      <trkpt lat="19.37402" lon="99.16614">
        <time>2019-09-06T07:37:47Z</time>
      </trkpt>
      <trkpt lat="19.37407" lon="99.1659">
        <time>2019-09-06T07:37:48Z</time>
      </trkpt>
      <trkpt lat="19.37413" lon="99.16565">
        <time>2019-09-06T07:37:49Z</time>
      </trkpt>
      <trkpt lat="19.37421" lon="99.16537">
        <time>2019-09-06T07:37:50Z</time>
      </trkpt>
      <trkpt lat="19.37428" lon="99.16509">
        <time>2019-09-06T07:37:51Z</time>
      </trkpt>
      <trkpt lat="19.37438" lon="99.16481">
        <time>2019-09-06T07:37:52Z</time>
      </trkpt>
      <trkpt lat="19.37444" lon="99.16458">
        <time>2019-09-06T07:37:53Z</time>
      </trkpt>
      <trkpt lat="19.37455" lon="99.16433">
        <time>2019-09-06T07:37:54Z</time>
      </trkpt>
      <trkpt lat="19.37462" lon="99.16416">
        <time>2019-09-06T07:37:55Z</time>
      </trkpt>
      <trkpt lat="19.37465" lon="99.164">
        <time>2019-09-06T07:37:56Z</time>
      </trkpt>
      <trkpt lat="19.37477" lon="99.16384">
        <time>2019-09-06T07:37:57Z</time>
      </trkpt>
      <trkpt lat="19.37484" lon="99.16369">
        <time>2019-09-06T07:37:58Z</time>
      </trkpt>
      <trkpt lat="19.37496" lon="99.16353">
        <time>2019-09-06T07:37:59Z</time>
      </trkpt>
      <trkpt lat="19.37503" lon="99.1634">
        <time>2019-09-06T07:38:00Z</time>
      </trkpt>
      <trkpt lat="19.37513" lon="99.16325">
        <time>2019-09-06T07:38:01Z</time>
      </trkpt>
      <trkpt lat="19.3752" lon="99.16312">
        <time>2019-09-06T07:38:02Z</time>
      </trkpt>
      <trkpt lat="19.37529" lon="99.16297">
        <time>2019-09-06T07:38:03Z</time>
      </trkpt>
      <trkpt lat="19.37538" lon="99.16282">
        <time>2019-09-06T07:38:04Z</time>
      </trkpt>
      <trkpt lat="19.37546" lon="99.16268">
        <time>2019-09-06T07:38:05Z</time>
      </trkpt>
      <trkpt lat="19.37556" lon="99.16254">
        <time>2019-09-06T07:38:06Z</time>
      </trkpt>
      <trkpt lat="19.37567" lon="99.16237">
        <time>2019-09-06T07:38:07Z</time>
      </trkpt>
      <trkpt lat="19.37576" lon="99.16222">
        <time>2019-09-06T07:38:08Z</time>
      </trkpt>
      <trkpt lat="19.37587" lon="99.16207">
        <time>2019-09-06T07:38:09Z</time>
      </trkpt>
      <trkpt lat="19.376" lon="99.16194">
        <time>2019-09-06T07:38:10Z</time>
      </trkpt>
      <trkpt lat="19.37611" lon="99.16183">
        <time>2019-09-06T07:38:11Z</time>
      </trkpt>
      <trkpt lat="19.37623" lon="99.16171">
        <time>2019-09-06T07:38:12Z</time>
      </trkpt>
      <trkpt lat="19.37635" lon="99.1616">
        <time>2019-09-06T07:38:13Z</time>
      </trkpt>
      <trkpt lat="19.37644" lon="99.16149">
        <time>2019-09-06T07:38:14Z</time>
      </trkpt>
      <trkpt lat="19.37652" lon="99.16139">
        <time>2019-09-06T07:38:15Z</time>
      </trkpt>
      <trkpt lat="19.37658" lon="99.16132">
        <time>2019-09-06T07:38:16Z</time>
      </trkpt>
      <trkpt lat="19.37661" lon="99.16125">
        <time>2019-09-06T07:38:17Z</time>
      </trkpt>
      <trkpt lat="19.37666" lon="99.16119">
        <time>2019-09-06T07:38:18Z</time>
      </trkpt>
      <trkpt lat="19.37671" lon="99.16113">
        <time>2019-09-06T07:38:19Z</time>
      </trkpt>
      <trkpt lat="19.37676" lon="99.16107">
        <time>2019-09-06T07:38:20Z</time>
      </trkpt>
      <trkpt lat="19.37682" lon="99.16098">
        <time>2019-09-06T07:38:21Z</time>
      </trkpt>
      <trkpt lat="19.3769" lon="99.16087">
        <time>2019-09-06T07:38:22Z</time>
      </trkpt>
      <trkpt lat="19.37699" lon="99.16076">
        <time>2019-09-06T07:38:23Z</time>
      </trkpt>
      <trkpt lat="19.3771" lon="99.16062">
        <time>2019-09-06T07:38:24Z</time>
      </trkpt>
      <trkpt lat="19.37721" lon="99.16048">
        <time>2019-09-06T07:38:25Z</time>
      </trkpt>
      <trkpt lat="19.37731" lon="99.16032">
        <time>2019-09-06T07:38:26Z</time>
      </trkpt>
      <trkpt lat="19.37741" lon="99.16015">
        <time>2019-09-06T07:38:27Z</time>
      </trkpt>
      <trkpt lat="19.37751" lon="99.15998">
        <time>2019-09-06T07:38:28Z</time>
      </trkpt>
      <trkpt lat="19.3776" lon="99.1598">
        <time>2019-09-06T07:38:29Z</time>
      </trkpt>
      <trkpt lat="19.3777" lon="99.15964">
        <time>2019-09-06T07:38:30Z</time>
      </trkpt>
      <trkpt lat="19.37778" lon="99.15947">
        <time>2019-09-06T07:38:31Z</time>
      </trkpt>
      <trkpt lat="19.37784" lon="99.15929">
        <time>2019-09-06T07:38:32Z</time>
      </trkpt>
      <trkpt lat="19.37788" lon="99.15909">
        <time>2019-09-06T07:38:33Z</time>
      </trkpt>
      <trkpt lat="19.37793" lon="99.15889">
        <time>2019-09-06T07:38:34Z</time>
      </trkpt>
      <trkpt lat="19.37794" lon="99.15868">
        <time>2019-09-06T07:38:35Z</time>
      </trkpt>
      <trkpt lat="19.37795" lon="99.15844">
        <time>2019-09-06T07:38:36Z</time>
      </trkpt>
      <trkpt lat="19.37798" lon="99.15823">
        <time>2019-09-06T07:38:37Z</time>
      </trkpt>
      <trkpt lat="19.37801" lon="99.15802">
        <time>2019-09-06T07:38:38Z</time>
      </trkpt>
      <trkpt lat="19.37805" lon="99.15781">
        <time>2019-09-06T07:38:39Z</time>
      </trkpt>
      <trkpt lat="19.37807" lon="99.15765">
        <time>2019-09-06T07:38:40Z</time>
      </trkpt>
      <trkpt lat="19.3781" lon="99.1575">
        <time>2019-09-06T07:38:41Z</time>
      </trkpt>
      <trkpt lat="19.37813" lon="99.15738">
        <time>2019-09-06T07:38:42Z</time>
      </trkpt>
      <trkpt lat="19.37816" lon="99.15725">
        <time>2019-09-06T07:38:43Z</time>
      </trkpt>
      <trkpt lat="19.37822" lon="99.15713">
        <time>2019-09-06T07:38:44Z</time>
      </trkpt>
      <trkpt lat="19.37829" lon="99.15705">
        <time>2019-09-06T07:38:45Z</time>
      </trkpt>
      <trkpt lat="19.37841" lon="99.15693">
        <time>2019-09-06T07:38:46Z</time>
      </trkpt>
      <trkpt lat="19.37866" lon="99.15678">
        <time>2019-09-06T07:38:47Z</time>
      </trkpt>
      <trkpt lat="19.37882" lon="99.15665">
        <time>2019-09-06T07:38:48Z</time>
      </trkpt>
      <trkpt lat="19.37897" lon="99.15652">
        <time>2019-09-06T07:38:49Z</time>
      </trkpt>
      <trkpt lat="19.37915" lon="99.15637">
        <time>2019-09-06T07:38:50Z</time>
      </trkpt>
      <trkpt lat="19.37932" lon="99.15624">
        <time>2019-09-06T07:38:51Z</time>
      </trkpt>
      <trkpt lat="19.37949" lon="99.15612">
        <time>2019-09-06T07:38:52Z</time>
      </trkpt>
      <trkpt lat="19.37964" lon="99.15601">
        <time>2019-09-06T07:38:53Z</time>
      </trkpt>
      <trkpt lat="19.3798" lon="99.1559">
        <time>2019-09-06T07:38:54Z</time>
      </trkpt>
      <trkpt lat="19.37999" lon="99.15578">
        <time>2019-09-06T07:38:55Z</time>
      </trkpt>
      <trkpt lat="19.38017" lon="99.15567">
        <time>2019-09-06T07:38:56Z</time>
      </trkpt>
      <trkpt lat="19.38034" lon="99.15557">
        <time>2019-09-06T07:38:57Z</time>
      </trkpt>
      <trkpt lat="19.38051" lon="99.15545">
        <time>2019-09-06T07:38:58Z</time>
      </trkpt>
      <trkpt lat="19.3807" lon="99.15535">
        <time>2019-09-06T07:38:59Z</time>
      </trkpt>
      <trkpt lat="19.38087" lon="99.15526">
        <time>2019-09-06T07:39:00Z</time>
      </trkpt>
      <trkpt lat="19.38104" lon="99.15516">
        <time>2019-09-06T07:39:01Z</time>
      </trkpt>
      <trkpt lat="19.38122" lon="99.15508">
        <time>2019-09-06T07:39:02Z</time>
      </trkpt>
      <trkpt lat="19.38141" lon="99.15502">
        <time>2019-09-06T07:39:03Z</time>
      </trkpt>
      <trkpt lat="19.38161" lon="99.15496">
        <time>2019-09-06T07:39:04Z</time>
      </trkpt>
      <trkpt lat="19.38181" lon="99.15492">
        <time>2019-09-06T07:39:05Z</time>
      </trkpt>
      <trkpt lat="19.38203" lon="99.15489">
        <time>2019-09-06T07:39:06Z</time>
      </trkpt>
      <trkpt lat="19.38224" lon="99.15486">
        <time>2019-09-06T07:39:07Z</time>
      </trkpt>
      <trkpt lat="19.38246" lon="99.15484">
        <time>2019-09-06T07:39:08Z</time>
      </trkpt>
      <trkpt lat="19.38266" lon="99.15482">
        <time>2019-09-06T07:39:09Z</time>
      </trkpt>
      <trkpt lat="19.38288" lon="99.15481">
        <time>2019-09-06T07:39:10Z</time>
      </trkpt>
      <trkpt lat="19.3831" lon="99.15479">
        <time>2019-09-06T07:39:11Z</time>
      </trkpt>
      <trkpt lat="19.3833" lon="99.15477">
        <time>2019-09-06T07:39:12Z</time>
      </trkpt>
      <trkpt lat="19.38351" lon="99.15474">
        <time>2019-09-06T07:39:13Z</time>
      </trkpt>
      <trkpt lat="19.38371" lon="99.15472">
        <time>2019-09-06T07:39:14Z</time>
      </trkpt>
      <trkpt lat="19.38391" lon="99.1547">
        <time>2019-09-06T07:39:15Z</time>
      </trkpt>
      <trkpt lat="19.3841" lon="99.15467">
        <time>2019-09-06T07:39:16Z</time>
      </trkpt>
      <trkpt lat="19.38426" lon="99.15466">
        <time>2019-09-06T07:39:17Z</time>
      </trkpt>
      <trkpt lat="19.38443" lon="99.15464">
        <time>2019-09-06T07:39:18Z</time>
      </trkpt>
      <trkpt lat="19.38457" lon="99.15463">
        <time>2019-09-06T07:39:19Z</time>
      </trkpt>
      <trkpt lat="19.38469" lon="99.15462">
        <time>2019-09-06T07:39:20Z</time>
      </trkpt>
      <trkpt lat="19.38481" lon="99.1546">
        <time>2019-09-06T07:39:21Z</time>
      </trkpt>
      <trkpt lat="19.38493" lon="99.15458">
        <time>2019-09-06T07:39:22Z</time>
      </trkpt>
      <trkpt lat="19.38502" lon="99.15455">
        <time>2019-09-06T07:39:23Z</time>
      </trkpt>
      <trkpt lat="19.38495" lon="99.15442">
        <time>2019-09-06T07:39:24Z</time>
      </trkpt>
      <trkpt lat="19.38499" lon="99.15431">
        <time>2019-09-06T07:39:25Z</time>
      </trkpt>
      <trkpt lat="19.385" lon="99.15417">
        <time>2019-09-06T07:39:26Z</time>
      </trkpt>
      <trkpt lat="19.38494" lon="99.15396">
        <time>2019-09-06T07:39:27Z</time>
      </trkpt>
      <trkpt lat="19.38493" lon="99.15382">
        <time>2019-09-06T07:39:28Z</time>
      </trkpt>
      <trkpt lat="19.38489" lon="99.15364">
        <time>2019-09-06T07:39:29Z</time>
      </trkpt>
      <trkpt lat="19.3849" lon="99.15348">
        <time>2019-09-06T07:39:30Z</time>
      </trkpt>
      <trkpt lat="19.38484" lon="99.1533">
        <time>2019-09-06T07:39:31Z</time>
      </trkpt>
      <trkpt lat="19.38485" lon="99.15314">
        <time>2019-09-06T07:39:32Z</time>
      </trkpt>
      <trkpt lat="19.38485" lon="99.15297">
        <time>2019-09-06T07:39:33Z</time>
      </trkpt>
      <trkpt lat="19.3849" lon="99.15281">
        <time>2019-09-06T07:39:34Z</time>
      </trkpt>
      <trkpt lat="19.38498" lon="99.1526">
        <time>2019-09-06T07:39:35Z</time>
      </trkpt>
      <trkpt lat="19.38501" lon="99.15241">
        <time>2019-09-06T07:39:36Z</time>
      </trkpt>
      <trkpt lat="19.38506" lon="99.15221">
        <time>2019-09-06T07:39:37Z</time>
      </trkpt>
      <trkpt lat="19.38507" lon="99.152">
        <time>2019-09-06T07:39:38Z</time>
      </trkpt>
      <trkpt lat="19.38502" lon="99.15179">
        <time>2019-09-06T07:39:39Z</time>
      </trkpt>
      <trkpt lat="19.385" lon="99.15163">
        <time>2019-09-06T07:39:40Z</time>
      </trkpt>
      <trkpt lat="19.38496" lon="99.15149">
        <time>2019-09-06T07:39:41Z</time>
      </trkpt>
      <trkpt lat="19.38497" lon="99.15129">
        <time>2019-09-06T07:39:42Z</time>
      </trkpt>
      <trkpt lat="19.385" lon="99.15111">
        <time>2019-09-06T07:39:43Z</time>
      </trkpt>
      <trkpt lat="19.38508" lon="99.15091">
        <time>2019-09-06T07:39:44Z</time>
      </trkpt>
      <trkpt lat="19.38512" lon="99.15074">
        <time>2019-09-06T07:39:45Z</time>
      </trkpt>
      <trkpt lat="19.38519" lon="99.15055">
        <time>2019-09-06T07:39:46Z</time>
      </trkpt>
      <trkpt lat="19.38534" lon="99.15034">
        <time>2019-09-06T07:39:47Z</time>
      </trkpt>
      <trkpt lat="19.38552" lon="99.15013">
        <time>2019-09-06T07:39:48Z</time>
      </trkpt>
      <trkpt lat="19.38568" lon="99.14998">
        <time>2019-09-06T07:39:49Z</time>
      </trkpt>
      <trkpt lat="19.3858" lon="99.14984">
        <time>2019-09-06T07:39:50Z</time>
      </trkpt>
      <trkpt lat="19.38591" lon="99.14972">
        <time>2019-09-06T07:39:51Z</time>
      </trkpt>
      <trkpt lat="19.38606" lon="99.14956">
        <time>2019-09-06T07:39:52Z</time>
      </trkpt>
      <trkpt lat="19.38618" lon="99.14939">
        <time>2019-09-06T07:39:53Z</time>
      </trkpt>
      <trkpt lat="19.38628" lon="99.14922">
        <time>2019-09-06T07:39:54Z</time>
      </trkpt>
      <trkpt lat="19.38638" lon="99.14905">
        <time>2019-09-06T07:39:55Z</time>
      </trkpt>
      <trkpt lat="19.38645" lon="99.14889">
        <time>2019-09-06T07:39:56Z</time>
      </trkpt>
      <trkpt lat="19.38651" lon="99.14874">
        <time>2019-09-06T07:39:57Z</time>
      </trkpt>
      <trkpt lat="19.38682" lon="99.14812">
        <time>2019-09-06T07:40:03Z</time>
      </trkpt>
      <trkpt lat="19.38683" lon="99.14805">
        <time>2019-09-06T07:40:03Z</time>
      </trkpt>
      <trkpt lat="19.38687" lon="99.14797">
        <time>2019-09-06T07:40:04Z</time>
      </trkpt>
      <trkpt lat="19.38689" lon="99.14791">
        <time>2019-09-06T07:40:05Z</time>
      </trkpt>
      <trkpt lat="19.38693" lon="99.14784">
        <time>2019-09-06T07:40:06Z</time>
      </trkpt>
      <trkpt lat="19.38692" lon="99.14777">
        <time>2019-09-06T07:40:07Z</time>
      </trkpt>
      <trkpt lat="19.38698" lon="99.1477">
        <time>2019-09-06T07:40:08Z</time>
      </trkpt>
      <trkpt lat="19.38701" lon="99.14763">
        <time>2019-09-06T07:40:09Z</time>
      </trkpt>
      <trkpt lat="19.38703" lon="99.14757">
        <time>2019-09-06T07:40:10Z</time>
      </trkpt>
      <trkpt lat="19.38708" lon="99.14748">
        <time>2019-09-06T07:40:11Z</time>
      </trkpt>
      <trkpt lat="19.3871" lon="99.14739">
        <time>2019-09-06T07:40:12Z</time>
      </trkpt>
      <trkpt lat="19.38715" lon="99.14728">
        <time>2019-09-06T07:40:13Z</time>
      </trkpt>
      <trkpt lat="19.38719" lon="99.14717">
        <time>2019-09-06T07:40:14Z</time>
      </trkpt>
      <trkpt lat="19.38726" lon="99.14703">
        <time>2019-09-06T07:40:15Z</time>
      </trkpt>
      <trkpt lat="19.38731" lon="99.14688">
        <time>2019-09-06T07:40:16Z</time>
      </trkpt>
      <trkpt lat="19.38737" lon="99.14673">
        <time>2019-09-06T07:40:17Z</time>
      </trkpt>
      <trkpt lat="19.38747" lon="99.14656">
        <time>2019-09-06T07:40:18Z</time>
      </trkpt>
      <trkpt lat="19.38757" lon="99.1464">
        <time>2019-09-06T07:40:19Z</time>
      </trkpt>
      <trkpt lat="19.38769" lon="99.14622">
        <time>2019-09-06T07:40:20Z</time>
      </trkpt>
      <trkpt lat="19.38779" lon="99.14605">
        <time>2019-09-06T07:40:21Z</time>
      </trkpt>
      <trkpt lat="19.38791" lon="99.14589">
        <time>2019-09-06T07:40:22Z</time>
      </trkpt>
      <trkpt lat="19.38799" lon="99.14573">
        <time>2019-09-06T07:40:23Z</time>
      </trkpt>
      <trkpt lat="19.38809" lon="99.14558">
        <time>2019-09-06T07:40:24Z</time>
      </trkpt>
      <trkpt lat="19.38817" lon="99.14545">
        <time>2019-09-06T07:40:25Z</time>
      </trkpt>
      <trkpt lat="19.38826" lon="99.14529">
        <time>2019-09-06T07:40:26Z</time>
      </trkpt>
      <trkpt lat="19.38833" lon="99.14513">
        <time>2019-09-06T07:40:27Z</time>
      </trkpt>
      <trkpt lat="19.38839" lon="99.14497">
        <time>2019-09-06T07:40:28Z</time>
      </trkpt>
      <trkpt lat="19.38843" lon="99.14477">
        <time>2019-09-06T07:40:29Z</time>
      </trkpt>
      <trkpt lat="19.3885" lon="99.14459">
        <time>2019-09-06T07:40:30Z</time>
      </trkpt>
      <trkpt lat="19.38851" lon="99.14439">
        <time>2019-09-06T07:40:31Z</time>
      </trkpt>
      <trkpt lat="19.38854" lon="99.14416">
        <time>2019-09-06T07:40:32Z</time>
      </trkpt>
      <trkpt lat="19.38857" lon="99.14396">
        <time>2019-09-06T07:40:33Z</time>
      </trkpt>
      <trkpt lat="19.3886" lon="99.14376">
        <time>2019-09-06T07:40:34Z</time>
      </trkpt>
      <trkpt lat="19.38863" lon="99.14355">
        <time>2019-09-06T07:40:35Z</time>
      </trkpt>
      <trkpt lat="19.38866" lon="99.14333">
        <time>2019-09-06T07:40:36Z</time>
      </trkpt>
      <trkpt lat="19.38872" lon="99.1431">
        <time>2019-09-06T07:40:37Z</time>
      </trkpt>
      <trkpt lat="19.38878" lon="99.14289">
        <time>2019-09-06T07:40:38Z</time>
      </trkpt>
      <trkpt lat="19.38891" lon="99.14242">
        <time>2019-09-06T07:40:40Z</time>
      </trkpt>
      <trkpt lat="19.38896" lon="99.1422">
        <time>2019-09-06T07:40:41Z</time>
      </trkpt>
      <trkpt lat="19.38904" lon="99.14195">
        <time>2019-09-06T07:40:42Z</time>
      </trkpt>
      <trkpt lat="19.38915" lon="99.14172">
        <time>2019-09-06T07:40:43Z</time>
      </trkpt>
      <trkpt lat="19.38921" lon="99.14152">
        <time>2019-09-06T07:40:44Z</time>
      </trkpt>
      <trkpt lat="19.38928" lon="99.14132">
        <time>2019-09-06T07:40:45Z</time>
      </trkpt>
      <trkpt lat="19.38933" lon="99.14114">
        <time>2019-09-06T07:40:46Z</time>
      </trkpt>
      <trkpt lat="19.38938" lon="99.14099">
        <time>2019-09-06T07:40:47Z</time>
      </trkpt>
      <trkpt lat="19.38944" lon="99.14081">
        <time>2019-09-06T07:40:48Z</time>
      </trkpt>
      <trkpt lat="19.38943" lon="99.14069">
        <time>2019-09-06T07:40:49Z</time>
      </trkpt>
      <trkpt lat="19.38944" lon="99.14052">
        <time>2019-09-06T07:40:51Z</time>
      </trkpt>
      <trkpt lat="19.3894" lon="99.1404">
        <time>2019-09-06T07:40:51Z</time>
      </trkpt>
      <trkpt lat="19.3894" lon="99.14026">
        <time>2019-09-06T07:40:52Z</time>
      </trkpt>
      <trkpt lat="19.38939" lon="99.14013">
        <time>2019-09-06T07:40:53Z</time>
      </trkpt>
      <trkpt lat="19.38945" lon="99.14002">
        <time>2019-09-06T07:40:54Z</time>
      </trkpt>
      <trkpt lat="19.38949" lon="99.1399">
        <time>2019-09-06T07:40:55Z</time>
      </trkpt>
      <trkpt lat="19.38952" lon="99.13977">
        <time>2019-09-06T07:40:56Z</time>
      </trkpt>
      <trkpt lat="19.3896" lon="99.13968">
        <time>2019-09-06T07:40:57Z</time>
      </trkpt>
      <trkpt lat="19.38971" lon="99.13964">
        <time>2019-09-06T07:40:58Z</time>
      </trkpt>
      <trkpt lat="19.38986" lon="99.13962">
        <time>2019-09-06T07:40:59Z</time>
      </trkpt>
      <trkpt lat="19.39002" lon="99.1396">
        <time>2019-09-06T07:41:00Z</time>
      </trkpt>
      <trkpt lat="19.39015" lon="99.13954">
        <time>2019-09-06T07:41:01Z</time>
      </trkpt>
      <trkpt lat="19.39028" lon="99.13947">
        <time>2019-09-06T07:41:02Z</time>
      </trkpt>
      <trkpt lat="19.39043" lon="99.1394">
        <time>2019-09-06T07:41:03Z</time>
      </trkpt>
      <trkpt lat="19.39052" lon="99.13929">
        <time>2019-09-06T07:41:04Z</time>
      </trkpt>
      <trkpt lat="19.39062" lon="99.13919">
        <time>2019-09-06T07:41:05Z</time>
      </trkpt>
      <trkpt lat="19.39067" lon="99.13905">
        <time>2019-09-06T07:41:06Z</time>
      </trkpt>
      <trkpt lat="19.39071" lon="99.1389">
        <time>2019-09-06T07:41:07Z</time>
      </trkpt>
      <trkpt lat="19.39073" lon="99.13873">
        <time>2019-09-06T07:41:08Z</time>
      </trkpt>
      <trkpt lat="19.39077" lon="99.13857">
        <time>2019-09-06T07:41:09Z</time>
      </trkpt>
      <trkpt lat="19.39082" lon="99.1384">
        <time>2019-09-06T07:41:10Z</time>
      </trkpt>
      <trkpt lat="19.39087" lon="99.13826">
        <time>2019-09-06T07:41:11Z</time>
      </trkpt>
      <trkpt lat="19.3909" lon="99.13813">
        <time>2019-09-06T07:41:12Z</time>
      </trkpt>
      <trkpt lat="19.39105" lon="99.13796">
        <time>2019-09-06T07:41:13Z</time>
      </trkpt>
      <trkpt lat="19.39115" lon="99.13784">
        <time>2019-09-06T07:41:14Z</time>
      </trkpt>
      <trkpt lat="19.39125" lon="99.13771">
        <time>2019-09-06T07:41:15Z</time>
      </trkpt>
      <trkpt lat="19.39136" lon="99.13758">
        <time>2019-09-06T07:41:16Z</time>
      </trkpt>
      <trkpt lat="19.39147" lon="99.13742">
        <time>2019-09-06T07:41:17Z</time>
      </trkpt>
      <trkpt lat="19.39155" lon="99.13723">
        <time>2019-09-06T07:41:18Z</time>
      </trkpt>
      <trkpt lat="19.39165" lon="99.13705">
        <time>2019-09-06T07:41:19Z</time>
      </trkpt>
      <trkpt lat="19.39172" lon="99.13686">
        <time>2019-09-06T07:41:20Z</time>
      </trkpt>
      <trkpt lat="19.39181" lon="99.13667">
        <time>2019-09-06T07:41:21Z</time>
      </trkpt>
      <trkpt lat="19.39189" lon="99.13649">
        <time>2019-09-06T07:41:22Z</time>
      </trkpt>
      <trkpt lat="19.39197" lon="99.13631">
        <time>2019-09-06T07:41:23Z</time>
      </trkpt>
      <trkpt lat="19.39203" lon="99.13613">
        <time>2019-09-06T07:41:24Z</time>
      </trkpt>
      <trkpt lat="19.39211" lon="99.13596">
        <time>2019-09-06T07:41:25Z</time>
      </trkpt>
      <trkpt lat="19.39213" lon="99.13578">
        <time>2019-09-06T07:41:26Z</time>
      </trkpt>
      <trkpt lat="19.39216" lon="99.13557">
        <time>2019-09-06T07:41:27Z</time>
      </trkpt>
      <trkpt lat="19.39217" lon="99.13539">
        <time>2019-09-06T07:41:28Z</time>
      </trkpt>
      <trkpt lat="19.3922" lon="99.1352">
        <time>2019-09-06T07:41:29Z</time>
      </trkpt>
      <trkpt lat="19.39223" lon="99.13503">
        <time>2019-09-06T07:41:30Z</time>
      </trkpt>
      <trkpt lat="19.39219" lon="99.13487">
        <time>2019-09-06T07:41:31Z</time>
      </trkpt>
      <trkpt lat="19.39215" lon="99.13468">
        <time>2019-09-06T07:41:32Z</time>
      </trkpt>
      <trkpt lat="19.39208" lon="99.13451">
        <time>2019-09-06T07:41:33Z</time>
      </trkpt>
      <trkpt lat="19.39199" lon="99.13433">
        <time>2019-09-06T07:41:34Z</time>
      </trkpt>
      <trkpt lat="19.39192" lon="99.13414">
        <time>2019-09-06T07:41:35Z</time>
      </trkpt>
      <trkpt lat="19.39186" lon="99.13396">
        <time>2019-09-06T07:41:36Z</time>
      </trkpt>
      <trkpt lat="19.3918" lon="99.13379">
        <time>2019-09-06T07:41:37Z</time>
      </trkpt>
      <trkpt lat="19.39178" lon="99.13359">
        <time>2019-09-06T07:41:38Z</time>
      </trkpt>
      <trkpt lat="19.39183" lon="99.13343">
        <time>2019-09-06T07:41:39Z</time>
      </trkpt>
      <trkpt lat="19.39186" lon="99.13327">
        <time>2019-09-06T07:41:40Z</time>
      </trkpt>
      <trkpt lat="19.39187" lon="99.13313">
        <time>2019-09-06T07:41:41Z</time>
      </trkpt>
      <trkpt lat="19.39185" lon="99.13299">
        <time>2019-09-06T07:41:42Z</time>
      </trkpt>
      <trkpt lat="19.3918" lon="99.13285">
        <time>2019-09-06T07:41:43Z</time>
      </trkpt>
      <trkpt lat="19.39173" lon="99.13273">
        <time>2019-09-06T07:41:44Z</time>
      </trkpt>
      <trkpt lat="19.39166" lon="99.13261">
        <time>2019-09-06T07:41:45Z</time>
      </trkpt>
      <trkpt lat="19.39149" lon="99.13243">
        <time>2019-09-06T07:41:46Z</time>
      </trkpt>
      <trkpt lat="19.39138" lon="99.13229">
        <time>2019-09-06T07:41:47Z</time>
      </trkpt>
      <trkpt lat="19.39122" lon="99.13215">
        <time>2019-09-06T07:41:48Z</time>
      </trkpt>
      <trkpt lat="19.39109" lon="99.13202">
        <time>2019-09-06T07:41:49Z</time>
      </trkpt>
      <trkpt lat="19.39098" lon="99.1319">
        <time>2019-09-06T07:41:50Z</time>
      </trkpt>
      <trkpt lat="19.3909" lon="99.13181">
        <time>2019-09-06T07:41:51Z</time>
      </trkpt>
      <trkpt lat="19.39083" lon="99.13168">
        <time>2019-09-06T07:41:52Z</time>
      </trkpt>
      <trkpt lat="19.39077" lon="99.13158">
        <time>2019-09-06T07:41:53Z</time>
      </trkpt>
      <trkpt lat="19.39073" lon="99.13149">
        <time>2019-09-06T07:41:54Z</time>
      </trkpt>
      <trkpt lat="19.3907" lon="99.13139">
        <time>2019-09-06T07:41:55Z</time>
      </trkpt>
      <trkpt lat="19.39082" lon="99.13126">
        <time>2019-09-06T07:41:56Z</time>
      </trkpt>
      <trkpt lat="19.39094" lon="99.13114">
        <time>2019-09-06T07:41:57Z</time>
      </trkpt>
      <trkpt lat="19.39102" lon="99.13105">
        <time>2019-09-06T07:41:58Z</time>
      </trkpt>
      <trkpt lat="19.39116" lon="99.13095">
        <time>2019-09-06T07:41:59Z</time>
      </trkpt>
      <trkpt lat="19.39128" lon="99.13089">
        <time>2019-09-06T07:42:00Z</time>
      </trkpt>
      <trkpt lat="19.39145" lon="99.13088">
        <time>2019-09-06T07:42:01Z</time>
      </trkpt>
      <trkpt lat="19.39165" lon="99.13088">
        <time>2019-09-06T07:42:02Z</time>
      </trkpt>
      <trkpt lat="19.39192" lon="99.1309">
        <time>2019-09-06T07:42:03Z</time>
      </trkpt>
      <trkpt lat="19.39212" lon="99.13091">
        <time>2019-09-06T07:42:04Z</time>
      </trkpt>
      <trkpt lat="19.39229" lon="99.13091">
        <time>2019-09-06T07:42:05Z</time>
      </trkpt>
      <trkpt lat="19.39243" lon="99.13089">
        <time>2019-09-06T07:42:06Z</time>
      </trkpt>
      <trkpt lat="19.39258" lon="99.13086">
        <time>2019-09-06T07:42:07Z</time>
      </trkpt>
      <trkpt lat="19.39271" lon="99.13082">
        <time>2019-09-06T07:42:08Z</time>
      </trkpt>
      <trkpt lat="19.39283" lon="99.13075">
        <time>2019-09-06T07:42:09Z</time>
      </trkpt>
      <trkpt lat="19.39295" lon="99.1306">
        <time>2019-09-06T07:42:10Z</time>
      </trkpt>
      <trkpt lat="19.393" lon="99.13043">
        <time>2019-09-06T07:42:11Z</time>
      </trkpt>
      <trkpt lat="19.39307" lon="99.13026">
        <time>2019-09-06T07:42:12Z</time>
      </trkpt>
      <trkpt lat="19.39313" lon="99.13006">
        <time>2019-09-06T07:42:13Z</time>
      </trkpt>
      <trkpt lat="19.39321" lon="99.12988">
        <time>2019-09-06T07:42:14Z</time>
      </trkpt>
      <trkpt lat="19.39322" lon="99.12964">
        <time>2019-09-06T07:42:15Z</time>
      </trkpt>
      <trkpt lat="19.39327" lon="99.12942">
        <time>2019-09-06T07:42:16Z</time>
      </trkpt>
      <trkpt lat="19.39332" lon="99.12921">
        <time>2019-09-06T07:42:17Z</time>
      </trkpt>
      <trkpt lat="19.39332" lon="99.12894">
        <time>2019-09-06T07:42:18Z</time>
      </trkpt>
      <trkpt lat="19.39334" lon="99.12869">
        <time>2019-09-06T07:42:19Z</time>
      </trkpt>
      <trkpt lat="19.39342" lon="99.12844">
        <time>2019-09-06T07:42:20Z</time>
      </trkpt>
      <trkpt lat="19.39348" lon="99.1282">
        <time>2019-09-06T07:42:21Z</time>
      </trkpt>
      <trkpt lat="19.39355" lon="99.12793">
        <time>2019-09-06T07:42:22Z</time>
      </trkpt>
      <trkpt lat="19.39357" lon="99.12769">
        <time>2019-09-06T07:42:23Z</time>
      </trkpt>
      <trkpt lat="19.39357" lon="99.12744">
        <time>2019-09-06T07:42:24Z</time>
      </trkpt>
      <trkpt lat="19.39363" lon="99.12722">
        <time>2019-09-06T07:42:25Z</time>
      </trkpt>
      <trkpt lat="19.39365" lon="99.12701">
        <time>2019-09-06T07:42:26Z</time>
      </trkpt>
      <trkpt lat="19.39369" lon="99.1268">
        <time>2019-09-06T07:42:27Z</time>
      </trkpt>
      <trkpt lat="19.39372" lon="99.12664">
        <time>2019-09-06T07:42:28Z</time>
      </trkpt>
      <trkpt lat="19.39375" lon="99.12646">
        <time>2019-09-06T07:42:29Z</time>
      </trkpt>
      <trkpt lat="19.39383" lon="99.12627">
        <time>2019-09-06T07:42:30Z</time>
      </trkpt>
      <trkpt lat="19.3939" lon="99.12613">
        <time>2019-09-06T07:42:31Z</time>
      </trkpt>
      <trkpt lat="19.39407" lon="99.126">
        <time>2019-09-06T07:42:32Z</time>
      </trkpt>
      <trkpt lat="19.39417" lon="99.12585">
        <time>2019-09-06T07:42:33Z</time>
      </trkpt>
      <trkpt lat="19.39426" lon="99.12569">
        <time>2019-09-06T07:42:34Z</time>
      </trkpt>
      <trkpt lat="19.39439" lon="99.12555">
        <time>2019-09-06T07:42:35Z</time>
      </trkpt>
      <trkpt lat="19.39461" lon="99.1254">
        <time>2019-09-06T07:42:36Z</time>
      </trkpt>
      <trkpt lat="19.39475" lon="99.12524">
        <time>2019-09-06T07:42:37Z</time>
      </trkpt>
      <trkpt lat="19.39488" lon="99.1251">
        <time>2019-09-06T07:42:38Z</time>
      </trkpt>
      <trkpt lat="19.39504" lon="99.12497">
        <time>2019-09-06T07:42:39Z</time>
      </trkpt>
      <trkpt lat="19.39522" lon="99.12487">
        <time>2019-09-06T07:42:40Z</time>
      </trkpt>
      <trkpt lat="19.39537" lon="99.12475">
        <time>2019-09-06T07:42:41Z</time>
      </trkpt>
      <trkpt lat="19.39556" lon="99.12465">
        <time>2019-09-06T07:42:42Z</time>
      </trkpt>
      <trkpt lat="19.39574" lon="99.12463">
        <time>2019-09-06T07:42:43Z</time>
      </trkpt>
      <trkpt lat="19.39593" lon="99.12456">
        <time>2019-09-06T07:42:44Z</time>
      </trkpt>
      <trkpt lat="19.39608" lon="99.12449">
        <time>2019-09-06T07:42:45Z</time>
      </trkpt>
      <trkpt lat="19.39625" lon="99.12442">
        <time>2019-09-06T07:42:46Z</time>
      </trkpt>
      <trkpt lat="19.39639" lon="99.12436">
        <time>2019-09-06T07:42:47Z</time>
      </trkpt>
      <trkpt lat="19.39652" lon="99.12427">
        <time>2019-09-06T07:42:48Z</time>
      </trkpt>
      <trkpt lat="19.39666" lon="99.12421">
        <time>2019-09-06T07:42:49Z</time>
      </trkpt>
      <trkpt lat="19.39673" lon="99.1241">
        <time>2019-09-06T07:42:50Z</time>
      </trkpt>
      <trkpt lat="19.39695" lon="99.12307">
        <time>2019-09-06T07:42:56Z</time>
      </trkpt>
      <trkpt lat="19.39699" lon="99.12284">
        <time>2019-09-06T07:42:56Z</time>
      </trkpt>
      <trkpt lat="19.39704" lon="99.12261">
        <time>2019-09-06T07:42:57Z</time>
      </trkpt>
      <trkpt lat="19.39711" lon="99.12235">
        <time>2019-09-06T07:42:58Z</time>
      </trkpt>
      <trkpt lat="19.39715" lon="99.12212">
        <time>2019-09-06T07:42:59Z</time>
      </trkpt>
      <trkpt lat="19.39717" lon="99.12188">
        <time>2019-09-06T07:43:00Z</time>
      </trkpt>
      <trkpt lat="19.39717" lon="99.12164">
        <time>2019-09-06T07:43:01Z</time>
      </trkpt>
      <trkpt lat="19.3972" lon="99.1214">
        <time>2019-09-06T07:43:02Z</time>
      </trkpt>
      <trkpt lat="19.39724" lon="99.12117">
        <time>2019-09-06T07:43:03Z</time>
      </trkpt>
      <trkpt lat="19.39728" lon="99.12094">
        <time>2019-09-06T07:43:04Z</time>
      </trkpt>
      <trkpt lat="19.39731" lon="99.12072">
        <time>2019-09-06T07:43:05Z</time>
      </trkpt>
      <trkpt lat="19.39731" lon="99.12051">
        <time>2019-09-06T07:43:06Z</time>
      </trkpt>
      <trkpt lat="19.39727" lon="99.12039">
        <time>2019-09-06T07:43:07Z</time>
      </trkpt>
      <trkpt lat="19.39727" lon="99.12023">
        <time>2019-09-06T07:43:08Z</time>
      </trkpt>
      <trkpt lat="19.39727" lon="99.12008">
        <time>2019-09-06T07:43:09Z</time>
      </trkpt>
      <trkpt lat="19.39715" lon="99.11991">
        <time>2019-09-06T07:43:10Z</time>
      </trkpt>
      <trkpt lat="19.39707" lon="99.11975">
        <time>2019-09-06T07:43:11Z</time>
      </trkpt>
      <trkpt lat="19.39701" lon="99.1196">
        <time>2019-09-06T07:43:12Z</time>
      </trkpt>
      <trkpt lat="19.39695" lon="99.11946">
        <time>2019-09-06T07:43:13Z</time>
      </trkpt>
      <trkpt lat="19.3969" lon="99.11931">
        <time>2019-09-06T07:43:14Z</time>
      </trkpt>
      <trkpt lat="19.39686" lon="99.11917">
        <time>2019-09-06T07:43:15Z</time>
      </trkpt>
      <trkpt lat="19.39685" lon="99.11902">
        <time>2019-09-06T07:43:17Z</time>
      </trkpt>
      <trkpt lat="19.39688" lon="99.11891">
        <time>2019-09-06T07:43:17Z</time>
      </trkpt>
      <trkpt lat="19.39699" lon="99.11871">
        <time>2019-09-06T07:43:18Z</time>
      </trkpt>
      <trkpt lat="19.39705" lon="99.11856">
        <time>2019-09-06T07:43:19Z</time>
      </trkpt>
      <trkpt lat="19.39726" lon="99.11832">
        <time>2019-09-06T07:43:20Z</time>
      </trkpt>
      <trkpt lat="19.39737" lon="99.11812">
        <time>2019-09-06T07:43:21Z</time>
      </trkpt>
      <trkpt lat="19.39744" lon="99.11792">
        <time>2019-09-06T07:43:22Z</time>
      </trkpt>
      <trkpt lat="19.39752" lon="99.11772">
        <time>2019-09-06T07:43:23Z</time>
      </trkpt>
      <trkpt lat="19.39758" lon="99.11752">
        <time>2019-09-06T07:43:24Z</time>
      </trkpt>
      <trkpt lat="19.39763" lon="99.11732">
        <time>2019-09-06T07:43:25Z</time>
      </trkpt>
      <trkpt lat="19.3977" lon="99.11712">
        <time>2019-09-06T07:43:26Z</time>
      </trkpt>
      <trkpt lat="19.39781" lon="99.11693">
        <time>2019-09-06T07:43:27Z</time>
      </trkpt>
      <trkpt lat="19.39793" lon="99.11672">
        <time>2019-09-06T07:43:28Z</time>
      </trkpt>
      <trkpt lat="19.39802" lon="99.11659">
        <time>2019-09-06T07:43:29Z</time>
      </trkpt>
      <trkpt lat="19.39811" lon="99.11641">
        <time>2019-09-06T07:43:30Z</time>
      </trkpt>
      <trkpt lat="19.39814" lon="99.11631">
        <time>2019-09-06T07:43:31Z</time>
      </trkpt>
      <trkpt lat="19.39819" lon="99.11618">
        <time>2019-09-06T07:43:32Z</time>
      </trkpt>
      <trkpt lat="19.3982" lon="99.11608">
        <time>2019-09-06T07:43:33Z</time>
      </trkpt>
      <trkpt lat="19.39822" lon="99.11598">
        <time>2019-09-06T07:43:34Z</time>
      </trkpt>
      <trkpt lat="19.39812" lon="99.11597">
        <time>2019-09-06T07:43:35Z</time>
      </trkpt>
      <trkpt lat="19.3981" lon="99.11593">
        <time>2019-09-06T07:43:36Z</time>
      </trkpt>
      <trkpt lat="19.39798" lon="99.11594">
        <time>2019-09-06T07:43:37Z</time>
      </trkpt>
      <trkpt lat="19.39793" lon="99.11594">
        <time>2019-09-06T07:43:38Z</time>
      </trkpt>
      <trkpt lat="19.39777" lon="99.11594">
        <time>2019-09-06T07:43:39Z</time>
      </trkpt>
      <trkpt lat="19.39746" lon="99.11598">
        <time>2019-09-06T07:43:40Z</time>
      </trkpt>
      <trkpt lat="19.39727" lon="99.11594">
        <time>2019-09-06T07:43:41Z</time>
      </trkpt>
      <trkpt lat="19.39712" lon="99.11589">
        <time>2019-09-06T07:43:42Z</time>
      </trkpt>
      <trkpt lat="19.39697" lon="99.11578">
        <time>2019-09-06T07:43:43Z</time>
      </trkpt>
      <trkpt lat="19.39684" lon="99.11575">
        <time>2019-09-06T07:43:44Z</time>
      </trkpt>
      <trkpt lat="19.39672" lon="99.11563">
        <time>2019-09-06T07:43:45Z</time>
      </trkpt>
      <trkpt lat="19.39662" lon="99.11555">
        <time>2019-09-06T07:43:46Z</time>
      </trkpt>
      <trkpt lat="19.39654" lon="99.11544">
        <time>2019-09-06T07:43:47Z</time>
      </trkpt>
      <trkpt lat="19.39642" lon="99.11536">
        <time>2019-09-06T07:43:48Z</time>
      </trkpt>
      <trkpt lat="19.39634" lon="99.11528">
        <time>2019-09-06T07:43:49Z</time>
      </trkpt>
      <trkpt lat="19.39637" lon="99.11508">
        <time>2019-09-06T07:43:50Z</time>
      </trkpt>
      <trkpt lat="19.39637" lon="99.11493">
        <time>2019-09-06T07:43:51Z</time>
      </trkpt>
      <trkpt lat="19.3964" lon="99.11481">
        <time>2019-09-06T07:43:52Z</time>
      </trkpt>
      <trkpt lat="19.39646" lon="99.11476">
        <time>2019-09-06T07:43:53Z</time>
      </trkpt>
      <trkpt lat="19.39657" lon="99.11462">
        <time>2019-09-06T07:43:54Z</time>
      </trkpt>
      <trkpt lat="19.39672" lon="99.11448">
        <time>2019-09-06T07:43:55Z</time>
      </trkpt>
      <trkpt lat="19.39682" lon="99.1144">
        <time>2019-09-06T07:43:56Z</time>
      </trkpt>
      <trkpt lat="19.39689" lon="99.11432">
        <time>2019-09-06T07:43:57Z</time>
      </trkpt>
      <trkpt lat="19.39703" lon="99.11424">
        <time>2019-09-06T07:43:58Z</time>
      </trkpt>
      <trkpt lat="19.3973" lon="99.11431">
        <time>2019-09-06T07:43:59Z</time>
      </trkpt>
      <trkpt lat="19.39764" lon="99.11459">
        <time>2019-09-06T07:44:00Z</time>
      </trkpt>
      <trkpt lat="19.39785" lon="99.11471">
        <time>2019-09-06T07:44:01Z</time>
      </trkpt>
      <trkpt lat="19.39798" lon="99.1148">
        <time>2019-09-06T07:44:02Z</time>
      </trkpt>
      <trkpt lat="19.39817" lon="99.11488">
        <time>2019-09-06T07:44:03Z</time>
      </trkpt>
      <trkpt lat="19.39836" lon="99.11497">
        <time>2019-09-06T07:44:04Z</time>
      </trkpt>
      <trkpt lat="19.39857" lon="99.11505">
        <time>2019-09-06T07:44:05Z</time>
      </trkpt>
      <trkpt lat="19.39874" lon="99.11513">
        <time>2019-09-06T07:44:06Z</time>
      </trkpt>
      <trkpt lat="19.39892" lon="99.11519">
        <time>2019-09-06T07:44:07Z</time>
      </trkpt>
      <trkpt lat="19.39908" lon="99.11522">
        <time>2019-09-06T07:44:08Z</time>
      </trkpt>
      <trkpt lat="19.3992" lon="99.11526">
        <time>2019-09-06T07:44:09Z</time>
      </trkpt>
      <trkpt lat="19.39932" lon="99.11526">
        <time>2019-09-06T07:44:10Z</time>
      </trkpt>
      <trkpt lat="19.39944" lon="99.11526">
        <time>2019-09-06T07:44:11Z</time>
      </trkpt>
      <trkpt lat="19.39956" lon="99.11519">
        <time>2019-09-06T07:44:12Z</time>
      </trkpt>
      <trkpt lat="19.39967" lon="99.11506">
        <time>2019-09-06T07:44:13Z</time>
      </trkpt>
      <trkpt lat="19.39975" lon="99.11496">
        <time>2019-09-06T07:44:14Z</time>
      </trkpt>
      <trkpt lat="19.39981" lon="99.11483">
        <time>2019-09-06T07:44:15Z</time>
      </trkpt>
      <trkpt lat="19.39982" lon="99.11466">
        <time>2019-09-06T07:44:16Z</time>
      </trkpt>
      <trkpt lat="19.39979" lon="99.11451">
        <time>2019-09-06T07:44:17Z</time>
      </trkpt>
      <trkpt lat="19.39959" lon="99.11435">
        <time>2019-09-06T07:44:18Z</time>
      </trkpt>
      <trkpt lat="19.39957" lon="99.11415">
        <time>2019-09-06T07:44:19Z</time>
      </trkpt>
      <trkpt lat="19.39951" lon="99.114">
        <time>2019-09-06T07:44:20Z</time>
      </trkpt>
      <trkpt lat="19.39948" lon="99.11387">
        <time>2019-09-06T07:44:21Z</time>
      </trkpt>
      <trkpt lat="19.39944" lon="99.11374">
        <time>2019-09-06T07:44:22Z</time>
      </trkpt>
      <trkpt lat="19.39938" lon="99.11362">
        <time>2019-09-06T07:44:23Z</time>
      </trkpt>
      <trkpt lat="19.39928" lon="99.11354">
        <time>2019-09-06T07:44:24Z</time>
      </trkpt>
      <trkpt lat="19.39927" lon="99.11345">
        <time>2019-09-06T07:44:25Z</time>
      </trkpt>
      <trkpt lat="19.3992" lon="99.11332">
        <time>2019-09-06T07:44:26Z</time>
      </trkpt>
      <trkpt lat="19.3993" lon="99.11319">
        <time>2019-09-06T07:44:27Z</time>
      </trkpt>
      <trkpt lat="19.39943" lon="99.11308">
        <time>2019-09-06T07:44:28Z</time>
      </trkpt>
      <trkpt lat="19.3995" lon="99.11296">
        <time>2019-09-06T07:44:29Z</time>
      </trkpt>
      <trkpt lat="19.3996" lon="99.11288">
        <time>2019-09-06T07:44:30Z</time>
      </trkpt>
      <trkpt lat="19.39967" lon="99.11278">
        <time>2019-09-06T07:44:31Z</time>
      </trkpt>
      <trkpt lat="19.39966" lon="99.11265">
        <time>2019-09-06T07:44:32Z</time>
      </trkpt>
      <trkpt lat="19.39966" lon="99.11252">
        <time>2019-09-06T07:44:33Z</time>
      </trkpt>
      <trkpt lat="19.39962" lon="99.11238">
        <time>2019-09-06T07:44:34Z</time>
      </trkpt>
      <trkpt lat="19.39957" lon="99.11225">
        <time>2019-09-06T07:44:35Z</time>
      </trkpt>
      <trkpt lat="19.39954" lon="99.11205">
        <time>2019-09-06T07:44:36Z</time>
      </trkpt>
      <trkpt lat="19.39951" lon="99.11189">
        <time>2019-09-06T07:44:37Z</time>
      </trkpt>
      <trkpt lat="19.3995" lon="99.11172">
        <time>2019-09-06T07:44:38Z</time>
      </trkpt>
      <trkpt lat="19.39945" lon="99.11152">
        <time>2019-09-06T07:44:39Z</time>
      </trkpt>
      <trkpt lat="19.39939" lon="99.1114">
        <time>2019-09-06T07:44:40Z</time>
      </trkpt>
      <trkpt lat="19.39932" lon="99.11125">
        <time>2019-09-06T07:44:41Z</time>
      </trkpt>
      <trkpt lat="19.3992" lon="99.11115">
        <time>2019-09-06T07:44:42Z</time>
      </trkpt>
      <trkpt lat="19.39906" lon="99.11106">
        <time>2019-09-06T07:44:43Z</time>
      </trkpt>
      <trkpt lat="19.39892" lon="99.11095">
        <time>2019-09-06T07:44:44Z</time>
      </trkpt>
      <trkpt lat="19.39879" lon="99.11084">
        <time>2019-09-06T07:44:45Z</time>
      </trkpt>
      <trkpt lat="19.39867" lon="99.11073">
        <time>2019-09-06T07:44:46Z</time>
      </trkpt>
      <trkpt lat="19.39853" lon="99.11062">
        <time>2019-09-06T07:44:47Z</time>
      </trkpt>
      <trkpt lat="19.39838" lon="99.11051">
        <time>2019-09-06T07:44:48Z</time>
      </trkpt>
      <trkpt lat="19.39827" lon="99.11041">
        <time>2019-09-06T07:44:49Z</time>
      </trkpt>
      <trkpt lat="19.39816" lon="99.11026">
        <time>2019-09-06T07:44:50Z</time>
      </trkpt>
      <trkpt lat="19.3981" lon="99.11007">
        <time>2019-09-06T07:44:51Z</time>
      </trkpt>
      <trkpt lat="19.398" lon="99.1099">
        <time>2019-09-06T07:44:52Z</time>
      </trkpt>
      <trkpt lat="19.39791" lon="99.10975">
        <time>2019-09-06T07:44:53Z</time>
      </trkpt>
      <trkpt lat="19.39787" lon="99.10959">
        <time>2019-09-06T07:44:54Z</time>
      </trkpt>
      <trkpt lat="19.39781" lon="99.10946">
        <time>2019-09-06T07:44:55Z</time>
      </trkpt>
      <trkpt lat="19.39776" lon="99.10931">
        <time>2019-09-06T07:44:56Z</time>
      </trkpt>
      <trkpt lat="19.39784" lon="99.10916">
        <time>2019-09-06T07:44:57Z</time>
      </trkpt>
      <trkpt lat="19.39791" lon="99.10897">
        <time>2019-09-06T07:44:58Z</time>
      </trkpt>
      <trkpt lat="19.39803" lon="99.1089">
        <time>2019-09-06T07:44:59Z</time>
      </trkpt>
      <trkpt lat="19.39812" lon="99.10885">
        <time>2019-09-06T07:45:00Z</time>
      </trkpt>
      <trkpt lat="19.39821" lon="99.10876">
        <time>2019-09-06T07:45:01Z</time>
      </trkpt>
      <trkpt lat="19.39836" lon="99.10868">
        <time>2019-09-06T07:45:02Z</time>
      </trkpt>
      <trkpt lat="19.39854" lon="99.10875">
        <time>2019-09-06T07:45:03Z</time>
      </trkpt>
      <trkpt lat="19.39864" lon="99.10874">
        <time>2019-09-06T07:45:04Z</time>
      </trkpt>
      <trkpt lat="19.39886" lon="99.10888">
        <time>2019-09-06T07:45:05Z</time>
      </trkpt>
      <trkpt lat="19.39905" lon="99.10898">
        <time>2019-09-06T07:45:06Z</time>
      </trkpt>
      <trkpt lat="19.39936" lon="99.10902">
        <time>2019-09-06T07:45:07Z</time>
      </trkpt>
      <trkpt lat="19.39965" lon="99.10905">
        <time>2019-09-06T07:45:08Z</time>
      </trkpt>
      <trkpt lat="19.39989" lon="99.10911">
        <time>2019-09-06T07:45:09Z</time>
      </trkpt>
      <trkpt lat="19.40011" lon="99.10914">
        <time>2019-09-06T07:45:10Z</time>
      </trkpt>
      <trkpt lat="19.40034" lon="99.1092">
        <time>2019-09-06T07:45:11Z</time>
      </trkpt>
      <trkpt lat="19.40055" lon="99.10924">
        <time>2019-09-06T07:45:12Z</time>
      </trkpt>
      <trkpt lat="19.4008" lon="99.10926">
        <time>2019-09-06T07:45:13Z</time>
      </trkpt>
      <trkpt lat="19.40106" lon="99.10928">
        <time>2019-09-06T07:45:14Z</time>
      </trkpt>
      <trkpt lat="19.40128" lon="99.1093">
        <time>2019-09-06T07:45:15Z</time>
      </trkpt>
      <trkpt lat="19.40149" lon="99.10932">
        <time>2019-09-06T07:45:16Z</time>
      </trkpt>
      <trkpt lat="19.4017" lon="99.10934">
        <time>2019-09-06T07:45:17Z</time>
      </trkpt>
      <trkpt lat="19.40187" lon="99.10934">
        <time>2019-09-06T07:45:18Z</time>
      </trkpt>
      <trkpt lat="19.40203" lon="99.10935">
        <time>2019-09-06T07:45:19Z</time>
      </trkpt>
      <trkpt lat="19.40214" lon="99.10927">
        <time>2019-09-06T07:45:20Z</time>
      </trkpt>
      <trkpt lat="19.40227" lon="99.10925">
        <time>2019-09-06T07:45:22Z</time>
      </trkpt>
      <trkpt lat="19.4024" lon="99.10914">
        <time>2019-09-06T07:45:22Z</time>
      </trkpt>
      <trkpt lat="19.40253" lon="99.10903">
        <time>2019-09-06T07:45:23Z</time>
      </trkpt>
      <trkpt lat="19.40264" lon="99.1089">
        <time>2019-09-06T07:45:24Z</time>
      </trkpt>
      <trkpt lat="19.40278" lon="99.10879">
        <time>2019-09-06T07:45:25Z</time>
      </trkpt>
      <trkpt lat="19.40291" lon="99.10872">
        <time>2019-09-06T07:45:26Z</time>
      </trkpt>
      <trkpt lat="19.40299" lon="99.10863">
        <time>2019-09-06T07:45:27Z</time>
      </trkpt>
      <trkpt lat="19.40312" lon="99.10864">
        <time>2019-09-06T07:45:28Z</time>
      </trkpt>
      <trkpt lat="19.40327" lon="99.10864">
        <time>2019-09-06T07:45:29Z</time>
      </trkpt>
      <trkpt lat="19.40342" lon="99.10864">
        <time>2019-09-06T07:45:30Z</time>
      </trkpt>
      <trkpt lat="19.40356" lon="99.10865">
        <time>2019-09-06T07:45:31Z</time>
      </trkpt>
      <trkpt lat="19.40376" lon="99.10876">
        <time>2019-09-06T07:45:32Z</time>
      </trkpt>
      <trkpt lat="19.4039" lon="99.1088">
        <time>2019-09-06T07:45:33Z</time>
      </trkpt>
      <trkpt lat="19.40404" lon="99.10884">
        <time>2019-09-06T07:45:34Z</time>
      </trkpt>
      <trkpt lat="19.40418" lon="99.10886">
        <time>2019-09-06T07:45:35Z</time>
      </trkpt>
      <trkpt lat="19.40432" lon="99.10887">
        <time>2019-09-06T07:45:36Z</time>
      </trkpt>
      <trkpt lat="19.40443" lon="99.1089">
        <time>2019-09-06T07:45:37Z</time>
      </trkpt>
      <trkpt lat="19.40457" lon="99.10895">
        <time>2019-09-06T07:45:38Z</time>
      </trkpt>
      <trkpt lat="19.40473" lon="99.10899">
        <time>2019-09-06T07:45:39Z</time>
      </trkpt>
      <trkpt lat="19.40489" lon="99.10905">
        <time>2019-09-06T07:45:40Z</time>
      </trkpt>
      <trkpt lat="19.40505" lon="99.10913">
        <time>2019-09-06T07:45:41Z</time>
      </trkpt>
      <trkpt lat="19.40522" lon="99.10918">
        <time>2019-09-06T07:45:42Z</time>
      </trkpt>
      <trkpt lat="19.40544" lon="99.10922">
        <time>2019-09-06T07:45:43Z</time>
      </trkpt>
      <trkpt lat="19.40565" lon="99.10922">
        <time>2019-09-06T07:45:44Z</time>
      </trkpt>
      <trkpt lat="19.40579" lon="99.10929">
        <time>2019-09-06T07:45:45Z</time>
      </trkpt>
      <trkpt lat="19.40596" lon="99.10935">
        <time>2019-09-06T07:45:46Z</time>
      </trkpt>
      <trkpt lat="19.40612" lon="99.10942">
        <time>2019-09-06T07:45:47Z</time>
      </trkpt>
      <trkpt lat="19.40624" lon="99.10952">
        <time>2019-09-06T07:45:48Z</time>
      </trkpt>
      <trkpt lat="19.40636" lon="99.10962">
        <time>2019-09-06T07:45:49Z</time>
      </trkpt>
      <trkpt lat="19.40643" lon="99.10976">
        <time>2019-09-06T07:45:50Z</time>
      </trkpt>
      <trkpt lat="19.40654" lon="99.10987">
        <time>2019-09-06T07:45:51Z</time>
      </trkpt>
      <trkpt lat="19.40657" lon="99.11002">
        <time>2019-09-06T07:45:52Z</time>
      </trkpt>
      <trkpt lat="19.40672" lon="99.11013">
        <time>2019-09-06T07:45:53Z</time>
      </trkpt>
      <trkpt lat="19.40684" lon="99.11024">
        <time>2019-09-06T07:45:54Z</time>
      </trkpt>
      <trkpt lat="19.40697" lon="99.11033">
        <time>2019-09-06T07:45:55Z</time>
      </trkpt>
      <trkpt lat="19.40713" lon="99.11053">
        <time>2019-09-06T07:45:56Z</time>
      </trkpt>
      <trkpt lat="19.40727" lon="99.11069">
        <time>2019-09-06T07:45:57Z</time>
      </trkpt>
      <trkpt lat="19.40739" lon="99.11083">
        <time>2019-09-06T07:45:58Z</time>
      </trkpt>
      <trkpt lat="19.4075" lon="99.11096">
        <time>2019-09-06T07:45:59Z</time>
      </trkpt>
      <trkpt lat="19.40761" lon="99.11108">
        <time>2019-09-06T07:46:00Z</time>
      </trkpt>
      <trkpt lat="19.40769" lon="99.1112">
        <time>2019-09-06T07:46:01Z</time>
      </trkpt>
      <trkpt lat="19.40778" lon="99.11133">
        <time>2019-09-06T07:46:02Z</time>
      </trkpt>
      <trkpt lat="19.40794" lon="99.11116">
        <time>2019-09-06T07:46:03Z</time>
      </trkpt>
      <trkpt lat="19.40816" lon="99.11104">
        <time>2019-09-06T07:46:04Z</time>
      </trkpt>
      <trkpt lat="19.40832" lon="99.11099">
        <time>2019-09-06T07:46:05Z</time>
      </trkpt>
      <trkpt lat="19.40848" lon="99.11096">
        <time>2019-09-06T07:46:06Z</time>
      </trkpt>
      <trkpt lat="19.40864" lon="99.11093">
        <time>2019-09-06T07:46:07Z</time>
      </trkpt>
      <trkpt lat="19.40878" lon="99.11089">
        <time>2019-09-06T07:46:08Z</time>
      </trkpt>
      <trkpt lat="19.40888" lon="99.11092">
        <time>2019-09-06T07:46:09Z</time>
      </trkpt>
      <trkpt lat="19.409" lon="99.11095">
        <time>2019-09-06T07:46:10Z</time>
      </trkpt>
      <trkpt lat="19.40912" lon="99.111">
        <time>2019-09-06T07:46:11Z</time>
      </trkpt>
      <trkpt lat="19.40922" lon="99.11105">
        <time>2019-09-06T07:46:12Z</time>
      </trkpt>
      <trkpt lat="19.40928" lon="99.11113">
        <time>2019-09-06T07:46:13Z</time>
      </trkpt>
      <trkpt lat="19.40937" lon="99.11121">
        <time>2019-09-06T07:46:14Z</time>
      </trkpt>
      <trkpt lat="19.40949" lon="99.11134">
        <time>2019-09-06T07:46:15Z</time>
      </trkpt>
      <trkpt lat="19.40958" lon="99.11146">
        <time>2019-09-06T07:46:16Z</time>
      </trkpt>
      <trkpt lat="19.40972" lon="99.11159">
        <time>2019-09-06T07:46:17Z</time>
      </trkpt>
      <trkpt lat="19.40985" lon="99.11167">
        <time>2019-09-06T07:46:18Z</time>
      </trkpt>
      <trkpt lat="19.41008" lon="99.11167">
        <time>2019-09-06T07:46:19Z</time>
      </trkpt>
      <trkpt lat="19.41023" lon="99.11176">
        <time>2019-09-06T07:46:20Z</time>
      </trkpt>
      <trkpt lat="19.41031" lon="99.11172">
        <time>2019-09-06T07:46:21Z</time>
      </trkpt>
      <trkpt lat="19.4104" lon="99.1117">
        <time>2019-09-06T07:46:22Z</time>
      </trkpt>
      <trkpt lat="19.41052" lon="99.11168">
        <time>2019-09-06T07:46:23Z</time>
      </trkpt>
      <trkpt lat="19.41063" lon="99.11164">
        <time>2019-09-06T07:46:24Z</time>
      </trkpt>
      <trkpt lat="19.41076" lon="99.11156">
        <time>2019-09-06T07:46:25Z</time>
      </trkpt>
      <trkpt lat="19.41085" lon="99.11142">
        <time>2019-09-06T07:46:26Z</time>
      </trkpt>
      <trkpt lat="19.41098" lon="99.11132">
        <time>2019-09-06T07:46:27Z</time>
      </trkpt>
      <trkpt lat="19.41111" lon="99.11121">
        <time>2019-09-06T07:46:28Z</time>
      </trkpt>
      <trkpt lat="19.41124" lon="99.11111">
        <time>2019-09-06T07:46:29Z</time>
      </trkpt>
      <trkpt lat="19.41136" lon="99.11098">
        <time>2019-09-06T07:46:30Z</time>
      </trkpt>
      <trkpt lat="19.41148" lon="99.11084">
        <time>2019-09-06T07:46:31Z</time>
      </trkpt>
      <trkpt lat="19.41158" lon="99.11065">
        <time>2019-09-06T07:46:32Z</time>
      </trkpt>
      <trkpt lat="19.41171" lon="99.1105">
        <time>2019-09-06T07:46:33Z</time>
      </trkpt>
      <trkpt lat="19.4118" lon="99.11036">
        <time>2019-09-06T07:46:34Z</time>
      </trkpt>
      <trkpt lat="19.41187" lon="99.11023">
        <time>2019-09-06T07:46:35Z</time>
      </trkpt>
      <trkpt lat="19.412" lon="99.11009">
        <time>2019-09-06T07:46:36Z</time>
      </trkpt>
      <trkpt lat="19.41212" lon="99.11004">
        <time>2019-09-06T07:46:37Z</time>
      </trkpt>
      <trkpt lat="19.41225" lon="99.11">
        <time>2019-09-06T07:46:38Z</time>
      </trkpt>
      <trkpt lat="19.41238" lon="99.10995">
        <time>2019-09-06T07:46:39Z</time>
      </trkpt>
      <trkpt lat="19.41249" lon="99.1099">
        <time>2019-09-06T07:46:40Z</time>
      </trkpt>
      <trkpt lat="19.4126" lon="99.10983">
        <time>2019-09-06T07:46:41Z</time>
      </trkpt>
      <trkpt lat="19.41269" lon="99.10974">
        <time>2019-09-06T07:46:42Z</time>
      </trkpt>
      <trkpt lat="19.41277" lon="99.10965">
        <time>2019-09-06T07:46:43Z</time>
      </trkpt>
      <trkpt lat="19.41286" lon="99.10958">
        <time>2019-09-06T07:46:44Z</time>
      </trkpt>
      <trkpt lat="19.41297" lon="99.10953">
        <time>2019-09-06T07:46:45Z</time>
      </trkpt>
      <trkpt lat="19.4131" lon="99.10951">
        <time>2019-09-06T07:46:46Z</time>
      </trkpt>
      <trkpt lat="19.41323" lon="99.10954">
        <time>2019-09-06T07:46:47Z</time>
      </trkpt>
      <trkpt lat="19.41334" lon="99.10958">
        <time>2019-09-06T07:46:48Z</time>
      </trkpt>
      <trkpt lat="19.41346" lon="99.1096">
        <time>2019-09-06T07:46:49Z</time>
      </trkpt>
      <trkpt lat="19.41356" lon="99.1096">
        <time>2019-09-06T07:46:50Z</time>
      </trkpt>
      <trkpt lat="19.41366" lon="99.10959">
        <time>2019-09-06T07:46:51Z</time>
      </trkpt>
      <trkpt lat="19.41376" lon="99.10946">
        <time>2019-09-06T07:46:52Z</time>
      </trkpt>
      <trkpt lat="19.41384" lon="99.10939">
        <time>2019-09-06T07:46:53Z</time>
      </trkpt>
      <trkpt lat="19.41388" lon="99.10924">
        <time>2019-09-06T07:46:54Z</time>
      </trkpt>
      <trkpt lat="19.41388" lon="99.10908">
        <time>2019-09-06T07:46:55Z</time>
      </trkpt>
      <trkpt lat="19.41395" lon="99.10896">
        <time>2019-09-06T07:46:56Z</time>
      </trkpt>
      <trkpt lat="19.41405" lon="99.10883">
        <time>2019-09-06T07:46:57Z</time>
      </trkpt>
      <trkpt lat="19.41415" lon="99.1087">
        <time>2019-09-06T07:46:58Z</time>
      </trkpt>
      <trkpt lat="19.41425" lon="99.10859">
        <time>2019-09-06T07:46:59Z</time>
      </trkpt>
      <trkpt lat="19.4144" lon="99.10847">
        <time>2019-09-06T07:47:00Z</time>
      </trkpt>
      <trkpt lat="19.4145" lon="99.10835">
        <time>2019-09-06T07:47:01Z</time>
      </trkpt>
      <trkpt lat="19.41455" lon="99.10821">
        <time>2019-09-06T07:47:02Z</time>
      </trkpt>
      <trkpt lat="19.41464" lon="99.10804">
        <time>2019-09-06T07:47:03Z</time>
      </trkpt>
      <trkpt lat="19.41468" lon="99.10785">
        <time>2019-09-06T07:47:04Z</time>
      </trkpt>
      <trkpt lat="19.41471" lon="99.10766">
        <time>2019-09-06T07:47:05Z</time>
      </trkpt>
      <trkpt lat="19.41474" lon="99.10746">
        <time>2019-09-06T07:47:06Z</time>
      </trkpt>
      <trkpt lat="19.41469" lon="99.10731">
        <time>2019-09-06T07:47:07Z</time>
      </trkpt>
      <trkpt lat="19.41466" lon="99.10717">
        <time>2019-09-06T07:47:08Z</time>
      </trkpt>
      <trkpt lat="19.41461" lon="99.107">
        <time>2019-09-06T07:47:09Z</time>
      </trkpt>
      <trkpt lat="19.41458" lon="99.10683">
        <time>2019-09-06T07:47:10Z</time>
      </trkpt>
      <trkpt lat="19.41452" lon="99.10668">
        <time>2019-09-06T07:47:11Z</time>
      </trkpt>
      <trkpt lat="19.4144" lon="99.10655">
        <time>2019-09-06T07:47:12Z</time>
      </trkpt>
      <trkpt lat="19.41424" lon="99.10645">
        <time>2019-09-06T07:47:13Z</time>
      </trkpt>
      <trkpt lat="19.41415" lon="99.10637">
        <time>2019-09-06T07:47:14Z</time>
      </trkpt>
      <trkpt lat="19.4141" lon="99.10626">
        <time>2019-09-06T07:47:15Z</time>
      </trkpt>
      <trkpt lat="19.41403" lon="99.10615">
        <time>2019-09-06T07:47:16Z</time>
      </trkpt>
      <trkpt lat="19.41408" lon="99.10598">
        <time>2019-09-06T07:47:17Z</time>
      </trkpt>
      <trkpt lat="19.41411" lon="99.10584">
        <time>2019-09-06T07:47:18Z</time>
      </trkpt>
      <trkpt lat="19.41416" lon="99.10569">
        <time>2019-09-06T07:47:19Z</time>
      </trkpt>
      <trkpt lat="19.41422" lon="99.10555">
        <time>2019-09-06T07:47:20Z</time>
      </trkpt>
      <trkpt lat="19.41429" lon="99.10548">
        <time>2019-09-06T07:47:21Z</time>
      </trkpt>
      <trkpt lat="19.41432" lon="99.10546">
        <time>2019-09-06T07:47:22Z</time>
      </trkpt>
      <trkpt lat="19.41442" lon="99.10544">
        <time>2019-09-06T07:47:23Z</time>
      </trkpt>
      <trkpt lat="19.41452" lon="99.10541">
        <time>2019-09-06T07:47:24Z</time>
      </trkpt>
      <trkpt lat="19.41464" lon="99.1054">
        <time>2019-09-06T07:47:25Z</time>
      </trkpt>
      <trkpt lat="19.41479" lon="99.10544">
        <time>2019-09-06T07:47:26Z</time>
      </trkpt>
      <trkpt lat="19.415" lon="99.10558">
        <time>2019-09-06T07:47:27Z</time>
      </trkpt>
      <trkpt lat="19.41511" lon="99.10566">
        <time>2019-09-06T07:47:28Z</time>
      </trkpt>
      <trkpt lat="19.41515" lon="99.10583">
        <time>2019-09-06T07:47:29Z</time>
      </trkpt>
      <trkpt lat="19.41523" lon="99.10591">
        <time>2019-09-06T07:47:30Z</time>
      </trkpt>
      <trkpt lat="19.41529" lon="99.10594">
        <time>2019-09-06T07:47:31Z</time>
      </trkpt>
      <trkpt lat="19.41535" lon="99.10599">
        <time>2019-09-06T07:47:32Z</time>
      </trkpt>
      <trkpt lat="19.41544" lon="99.10606">
        <time>2019-09-06T07:47:33Z</time>
      </trkpt>
      <trkpt lat="19.41552" lon="99.10606">
        <time>2019-09-06T07:47:34Z</time>
      </trkpt>
      <trkpt lat="19.41557" lon="99.10604">
        <time>2019-09-06T07:47:35Z</time>
      </trkpt>
      <trkpt lat="19.41546" lon="99.10585">
        <time>2019-09-06T07:47:36Z</time>
      </trkpt>
      <trkpt lat="19.41546" lon="99.10574">
        <time>2019-09-06T07:47:37Z</time>
      </trkpt>
      <trkpt lat="19.41541" lon="99.10558">
        <time>2019-09-06T07:47:38Z</time>
      </trkpt>
      <trkpt lat="19.41533" lon="99.10533">
        <time>2019-09-06T07:47:39Z</time>
      </trkpt>
      <trkpt lat="19.41526" lon="99.10515">
        <time>2019-09-06T07:47:40Z</time>
      </trkpt>
      <trkpt lat="19.4152" lon="99.10498">
        <time>2019-09-06T07:47:41Z</time>
      </trkpt>
      <trkpt lat="19.41514" lon="99.10483">
        <time>2019-09-06T07:47:42Z</time>
      </trkpt>
      <trkpt lat="19.41507" lon="99.1047">
        <time>2019-09-06T07:47:43Z</time>
      </trkpt>
      <trkpt lat="19.41503" lon="99.10455">
        <time>2019-09-06T07:47:44Z</time>
      </trkpt>
      <trkpt lat="19.41494" lon="99.10442">
        <time>2019-09-06T07:47:45Z</time>
      </trkpt>
      <trkpt lat="19.41487" lon="99.10431">
        <time>2019-09-06T07:47:46Z</time>
      </trkpt>
      <trkpt lat="19.41472" lon="99.10425">
        <time>2019-09-06T07:47:47Z</time>
      </trkpt>
      <trkpt lat="19.41462" lon="99.10417">
        <time>2019-09-06T07:47:48Z</time>
      </trkpt>
      <trkpt lat="19.41457" lon="99.10406">
        <time>2019-09-06T07:47:49Z</time>
      </trkpt>
      <trkpt lat="19.41459" lon="99.10394">
        <time>2019-09-06T07:47:50Z</time>
      </trkpt>
      <trkpt lat="19.4145" lon="99.10384">
        <time>2019-09-06T07:47:51Z</time>
      </trkpt>
      <trkpt lat="19.41437" lon="99.10378">
        <time>2019-09-06T07:47:52Z</time>
      </trkpt>
      <trkpt lat="19.41439" lon="99.10371">
        <time>2019-09-06T07:47:53Z</time>
      </trkpt>
      <trkpt lat="19.41445" lon="99.10356">
        <time>2019-09-06T07:47:54Z</time>
      </trkpt>
      <trkpt lat="19.41453" lon="99.1034">
        <time>2019-09-06T07:47:55Z</time>
      </trkpt>
      <trkpt lat="19.41462" lon="99.10327">
        <time>2019-09-06T07:47:56Z</time>
      </trkpt>
      <trkpt lat="19.41474" lon="99.1031">
        <time>2019-09-06T07:47:57Z</time>
      </trkpt>
      <trkpt lat="19.41483" lon="99.10298">
        <time>2019-09-06T07:47:58Z</time>
      </trkpt>
      <trkpt lat="19.4149" lon="99.10283">
        <time>2019-09-06T07:47:59Z</time>
      </trkpt>
      <trkpt lat="19.41502" lon="99.10277">
        <time>2019-09-06T07:48:00Z</time>
      </trkpt>
      <trkpt lat="19.41511" lon="99.10268">
        <time>2019-09-06T07:48:01Z</time>
      </trkpt>
      <trkpt lat="19.41529" lon="99.10262">
        <time>2019-09-06T07:48:02Z</time>
      </trkpt>
      <trkpt lat="19.41545" lon="99.10262">
        <time>2019-09-06T07:48:03Z</time>
      </trkpt>
      <trkpt lat="19.41562" lon="99.10262">
        <time>2019-09-06T07:48:04Z</time>
      </trkpt>
      <trkpt lat="19.41579" lon="99.10262">
        <time>2019-09-06T07:48:05Z</time>
      </trkpt>
      <trkpt lat="19.41598" lon="99.10267">
        <time>2019-09-06T07:48:06Z</time>
      </trkpt>
      <trkpt lat="19.4161" lon="99.10274">
        <time>2019-09-06T07:48:07Z</time>
      </trkpt>
      <trkpt lat="19.41621" lon="99.10271">
        <time>2019-09-06T07:48:08Z</time>
      </trkpt>
      <trkpt lat="19.41634" lon="99.10266">
        <time>2019-09-06T07:48:09Z</time>
      </trkpt>
      <trkpt lat="19.41648" lon="99.10262">
        <time>2019-09-06T07:48:10Z</time>
      </trkpt>
      <trkpt lat="19.41661" lon="99.10255">
        <time>2019-09-06T07:48:11Z</time>
      </trkpt>
      <trkpt lat="19.41671" lon="99.10249">
        <time>2019-09-06T07:48:12Z</time>
      </trkpt>
      <trkpt lat="19.41682" lon="99.10238">
        <time>2019-09-06T07:48:13Z</time>
      </trkpt>
      <trkpt lat="19.41688" lon="99.10212">
        <time>2019-09-06T07:48:14Z</time>
      </trkpt>
      <trkpt lat="19.41702" lon="99.10195">
        <time>2019-09-06T07:48:15Z</time>
      </trkpt>
      <trkpt lat="19.41715" lon="99.10179">
        <time>2019-09-06T07:48:16Z</time>
      </trkpt>
      <trkpt lat="19.4173" lon="99.10161">
        <time>2019-09-06T07:48:17Z</time>
      </trkpt>
      <trkpt lat="19.41743" lon="99.10145">
        <time>2019-09-06T07:48:18Z</time>
      </trkpt>
      <trkpt lat="19.41755" lon="99.1013">
        <time>2019-09-06T07:48:19Z</time>
      </trkpt>
      <trkpt lat="19.41763" lon="99.10121">
        <time>2019-09-06T07:48:20Z</time>
      </trkpt>
      <trkpt lat="19.41772" lon="99.10113">
        <time>2019-09-06T07:48:21Z</time>
      </trkpt>
      <trkpt lat="19.41784" lon="99.10106">
        <time>2019-09-06T07:48:22Z</time>
      </trkpt>
      <trkpt lat="19.41798" lon="99.10101">
        <time>2019-09-06T07:48:23Z</time>
      </trkpt>
      <trkpt lat="19.41814" lon="99.10097">
        <time>2019-09-06T07:48:24Z</time>
      </trkpt>
      <trkpt lat="19.41829" lon="99.10094">
        <time>2019-09-06T07:48:25Z</time>
      </trkpt>
      <trkpt lat="19.41842" lon="99.10092">
        <time>2019-09-06T07:48:26Z</time>
      </trkpt>
      <trkpt lat="19.41855" lon="99.10089">
        <time>2019-09-06T07:48:27Z</time>
      </trkpt>
      <trkpt lat="19.41872" lon="99.10087">
        <time>2019-09-06T07:48:28Z</time>
      </trkpt>
      <trkpt lat="19.41889" lon="99.10083">
        <time>2019-09-06T07:48:29Z</time>
      </trkpt>
      <trkpt lat="19.41901" lon="99.10081">
        <time>2019-09-06T07:48:30Z</time>
      </trkpt>
      <trkpt lat="19.41914" lon="99.10079">
        <time>2019-09-06T07:48:31Z</time>
      </trkpt>
      <trkpt lat="19.41928" lon="99.10075">
        <time>2019-09-06T07:48:32Z</time>
      </trkpt>
      <trkpt lat="19.41942" lon="99.10073">
        <time>2019-09-06T07:48:33Z</time>
      </trkpt>
      <trkpt lat="19.41951" lon="99.10069">
        <time>2019-09-06T07:48:34Z</time>
      </trkpt>
      <trkpt lat="19.41963" lon="99.10065">
        <time>2019-09-06T07:48:35Z</time>
      </trkpt>
      <trkpt lat="19.41974" lon="99.10061">
        <time>2019-09-06T07:48:36Z</time>
      </trkpt>
      <trkpt lat="19.41985" lon="99.10055">
        <time>2019-09-06T07:48:37Z</time>
      </trkpt>
      <trkpt lat="19.41987" lon="99.10036">
        <time>2019-09-06T07:48:38Z</time>
      </trkpt>
      <trkpt lat="19.41992" lon="99.1002">
        <time>2019-09-06T07:48:39Z</time>
      </trkpt>
      <trkpt lat="19.42" lon="99.10006">
        <time>2019-09-06T07:48:40Z</time>
      </trkpt>
      <trkpt lat="19.42009" lon="99.0999">
        <time>2019-09-06T07:48:41Z</time>
      </trkpt>
      <trkpt lat="19.42021" lon="99.09974">
        <time>2019-09-06T07:48:42Z</time>
      </trkpt>
      <trkpt lat="19.42032" lon="99.09958">
        <time>2019-09-06T07:48:43Z</time>
      </trkpt>
      <trkpt lat="19.42042" lon="99.09944">
        <time>2019-09-06T07:48:44Z</time>
      </trkpt>
      <trkpt lat="19.42054" lon="99.0993">
        <time>2019-09-06T07:48:45Z</time>
      </trkpt>
      <trkpt lat="19.42063" lon="99.09917">
        <time>2019-09-06T07:48:46Z</time>
      </trkpt>
      <trkpt lat="19.42073" lon="99.09905">
        <time>2019-09-06T07:48:47Z</time>
      </trkpt>
      <trkpt lat="19.4208" lon="99.09891">
        <time>2019-09-06T07:48:48Z</time>
      </trkpt>
      <trkpt lat="19.4209" lon="99.09878">
        <time>2019-09-06T07:48:49Z</time>
      </trkpt>
      <trkpt lat="19.42096" lon="99.09863">
        <time>2019-09-06T07:48:50Z</time>
      </trkpt>
      <trkpt lat="19.42102" lon="99.0985">
        <time>2019-09-06T07:48:51Z</time>
      </trkpt>
      <trkpt lat="19.42104" lon="99.09843">
        <time>2019-09-06T07:48:52Z</time>
      </trkpt>
      <trkpt lat="19.42103" lon="99.09834">
        <time>2019-09-06T07:48:53Z</time>
      </trkpt>
      <trkpt lat="19.42108" lon="99.09828">
        <time>2019-09-06T07:48:54Z</time>
      </trkpt>
      <trkpt lat="19.421" lon="99.09827">
        <time>2019-09-06T07:48:55Z</time>
      </trkpt>
      <trkpt lat="19.42103" lon="99.09824">
        <time>2019-09-06T07:48:56Z</time>
      </trkpt>
      <trkpt lat="19.42105" lon="99.09821">
        <time>2019-09-06T07:48:57Z</time>
      </trkpt>
      <trkpt lat="19.42106" lon="99.0982">
        <time>2019-09-06T07:48:58Z</time>
      </trkpt>
      <trkpt lat="19.42105" lon="99.09819">
        <time>2019-09-06T07:48:59Z</time>
      </trkpt>
      <trkpt lat="19.42108" lon="99.09817">
        <time>2019-09-06T07:49:00Z</time>
      </trkpt>
      <trkpt lat="19.42108" lon="99.09813">
        <time>2019-09-06T07:49:01Z</time>
      </trkpt>
      <trkpt lat="19.42108" lon="99.09808">
        <time>2019-09-06T07:49:02Z</time>
      </trkpt>
      <trkpt lat="19.42109" lon="99.098">
        <time>2019-09-06T07:49:03Z</time>
      </trkpt>
      <trkpt lat="19.42111" lon="99.09791">
        <time>2019-09-06T07:49:04Z</time>
      </trkpt>
      <trkpt lat="19.42113" lon="99.0978">
        <time>2019-09-06T07:49:05Z</time>
      </trkpt>
      <trkpt lat="19.42116" lon="99.09768">
        <time>2019-09-06T07:49:06Z</time>
      </trkpt>
      <trkpt lat="19.42119" lon="99.09756">
        <time>2019-09-06T07:49:07Z</time>
      </trkpt>
      <trkpt lat="19.42122" lon="99.09744">
        <time>2019-09-06T07:49:08Z</time>
      </trkpt>
      <trkpt lat="19.42126" lon="99.0973">
        <time>2019-09-06T07:49:09Z</time>
      </trkpt>
      <trkpt lat="19.42131" lon="99.09717">
        <time>2019-09-06T07:49:10Z</time>
      </trkpt>
      <trkpt lat="19.42132" lon="99.09703">
        <time>2019-09-06T07:49:11Z</time>
      </trkpt>
      <trkpt lat="19.42137" lon="99.09686">
        <time>2019-09-06T07:49:12Z</time>
      </trkpt>
      <trkpt lat="19.42142" lon="99.09671">
        <time>2019-09-06T07:49:13Z</time>
      </trkpt>
      <trkpt lat="19.42147" lon="99.09656">
        <time>2019-09-06T07:49:14Z</time>
      </trkpt>
      <trkpt lat="19.42152" lon="99.09641">
        <time>2019-09-06T07:49:15Z</time>
      </trkpt>
      <trkpt lat="19.4216" lon="99.09622">
        <time>2019-09-06T07:49:16Z</time>
      </trkpt>
      <trkpt lat="19.42162" lon="99.09606">
        <time>2019-09-06T07:49:17Z</time>
      </trkpt>
      <trkpt lat="19.42165" lon="99.09589">
        <time>2019-09-06T07:49:18Z</time>
      </trkpt>
      <trkpt lat="19.42168" lon="99.09574">
        <time>2019-09-06T07:49:19Z</time>
      </trkpt>
      <trkpt lat="19.42168" lon="99.09561">
        <time>2019-09-06T07:49:20Z</time>
      </trkpt>
      <trkpt lat="19.4217" lon="99.09547">
        <time>2019-09-06T07:49:21Z</time>
      </trkpt>
      <trkpt lat="19.42168" lon="99.09533">
        <time>2019-09-06T07:49:22Z</time>
      </trkpt>
      <trkpt lat="19.42164" lon="99.09516">
        <time>2019-09-06T07:49:23Z</time>
      </trkpt>
      <trkpt lat="19.4216" lon="99.095">
        <time>2019-09-06T07:49:24Z</time>
      </trkpt>
      <trkpt lat="19.42156" lon="99.09483">
        <time>2019-09-06T07:49:25Z</time>
      </trkpt>
      <trkpt lat="19.42151" lon="99.09464">
        <time>2019-09-06T07:49:26Z</time>
      </trkpt>
      <trkpt lat="19.42148" lon="99.09445">
        <time>2019-09-06T07:49:27Z</time>
      </trkpt>
      <trkpt lat="19.42144" lon="99.09426">
        <time>2019-09-06T07:49:28Z</time>
      </trkpt>
      <trkpt lat="19.42143" lon="99.09408">
        <time>2019-09-06T07:49:29Z</time>
      </trkpt>
      <trkpt lat="19.42137" lon="99.0939">
        <time>2019-09-06T07:49:30Z</time>
      </trkpt>
      <trkpt lat="19.42134" lon="99.09371">
        <time>2019-09-06T07:49:31Z</time>
      </trkpt>
      <trkpt lat="19.42136" lon="99.09352">
        <time>2019-09-06T07:49:32Z</time>
      </trkpt>
      <trkpt lat="19.42146" lon="99.09334">
        <time>2019-09-06T07:49:33Z</time>
      </trkpt>
      <trkpt lat="19.42152" lon="99.09313">
        <time>2019-09-06T07:49:34Z</time>
      </trkpt>
      <trkpt lat="19.42152" lon="99.09295">
        <time>2019-09-06T07:49:35Z</time>
      </trkpt>
      <trkpt lat="19.42155" lon="99.09279">
        <time>2019-09-06T07:49:36Z</time>
      </trkpt>
      <trkpt lat="19.42159" lon="99.09264">
        <time>2019-09-06T07:49:37Z</time>
      </trkpt>
      <trkpt lat="19.42165" lon="99.09244">
        <time>2019-09-06T07:49:38Z</time>
      </trkpt>
      <trkpt lat="19.42165" lon="99.09231">
        <time>2019-09-06T07:49:39Z</time>
      </trkpt>
      <trkpt lat="19.4217" lon="99.09217">
        <time>2019-09-06T07:49:40Z</time>
      </trkpt>
      <trkpt lat="19.42161" lon="99.09197">
        <time>2019-09-06T07:49:41Z</time>
      </trkpt>
      <trkpt lat="19.42156" lon="99.09181">
        <time>2019-09-06T07:49:42Z</time>
      </trkpt>
      <trkpt lat="19.4216" lon="99.09163">
        <time>2019-09-06T07:49:43Z</time>
      </trkpt>
      <trkpt lat="19.42155" lon="99.09145">
        <time>2019-09-06T07:49:44Z</time>
      </trkpt>
      <trkpt lat="19.42149" lon="99.09126">
        <time>2019-09-06T07:49:45Z</time>
      </trkpt>
      <trkpt lat="19.42155" lon="99.09106">
        <time>2019-09-06T07:49:46Z</time>
      </trkpt>
      <trkpt lat="19.42165" lon="99.09091">
        <time>2019-09-06T07:49:47Z</time>
      </trkpt>
      <trkpt lat="19.42168" lon="99.09074">
        <time>2019-09-06T07:49:48Z</time>
      </trkpt>
      <trkpt lat="19.4217" lon="99.09059">
        <time>2019-09-06T07:49:49Z</time>
      </trkpt>
      <trkpt lat="19.42173" lon="99.09044">
        <time>2019-09-06T07:49:50Z</time>
      </trkpt>
      <trkpt lat="19.4217" lon="99.09031">
        <time>2019-09-06T07:49:51Z</time>
      </trkpt>
      <trkpt lat="19.42175" lon="99.09018">
        <time>2019-09-06T07:49:52Z</time>
      </trkpt>
      <trkpt lat="19.42191" lon="99.09003">
        <time>2019-09-06T07:49:53Z</time>
      </trkpt>
      <trkpt lat="19.42196" lon="99.08993">
        <time>2019-09-06T07:49:54Z</time>
      </trkpt>
      <trkpt lat="19.42207" lon="99.08982">
        <time>2019-09-06T07:49:55Z</time>
      </trkpt>
      <trkpt lat="19.42217" lon="99.08971">
        <time>2019-09-06T07:49:56Z</time>
      </trkpt>
      <trkpt lat="19.42232" lon="99.08958">
        <time>2019-09-06T07:49:57Z</time>
      </trkpt>
      <trkpt lat="19.42245" lon="99.08945">
        <time>2019-09-06T07:49:58Z</time>
      </trkpt>
      <trkpt lat="19.42256" lon="99.0893">
        <time>2019-09-06T07:49:59Z</time>
      </trkpt>
      <trkpt lat="19.42267" lon="99.08915">
        <time>2019-09-06T07:50:00Z</time>
      </trkpt>
      <trkpt lat="19.42271" lon="99.08904">
        <time>2019-09-06T07:50:01Z</time>
      </trkpt>
      <trkpt lat="19.42279" lon="99.08891">
        <time>2019-09-06T07:50:02Z</time>
      </trkpt>
      <trkpt lat="19.42278" lon="99.08888">
        <time>2019-09-06T07:50:03Z</time>
      </trkpt>
      <trkpt lat="19.42281" lon="99.08883">
        <time>2019-09-06T07:50:04Z</time>
      </trkpt>
      <trkpt lat="19.42286" lon="99.08877">
        <time>2019-09-06T07:50:05Z</time>
      </trkpt>
      <trkpt lat="19.42287" lon="99.08873">
        <time>2019-09-06T07:50:06Z</time>
      </trkpt>
      <trkpt lat="19.42289" lon="99.0887">
        <time>2019-09-06T07:50:07Z</time>
      </trkpt>
      <trkpt lat="19.42291" lon="99.08871">
        <time>2019-09-06T07:50:08Z</time>
      </trkpt>
      <trkpt lat="19.42292" lon="99.08871">
        <time>2019-09-06T07:50:09Z</time>
      </trkpt>
      <trkpt lat="19.42292" lon="99.08872">
        <time>2019-09-06T07:50:10Z</time>
      </trkpt>
      <trkpt lat="19.42285" lon="99.08875">
        <time>2019-09-06T07:50:39Z</time>
      </trkpt>
      <trkpt lat="19.42289" lon="99.08875">
        <time>2019-09-06T07:50:40Z</time>
      </trkpt>
      <trkpt lat="19.42289" lon="99.08877">
        <time>2019-09-06T07:50:46Z</time>
      </trkpt>
      <trkpt lat="19.4229" lon="99.08878">
        <time>2019-09-06T07:50:47Z</time>
      </trkpt>
      <trkpt lat="19.4229" lon="99.08879">
        <time>2019-09-06T07:50:50Z</time>
      </trkpt>
      <trkpt lat="19.4229" lon="99.08881">
        <time>2019-09-06T07:50:51Z</time>
      </trkpt>
      <trkpt lat="19.4229" lon="99.08882">
        <time>2019-09-06T07:50:52Z</time>
      </trkpt>
      <trkpt lat="19.42289" lon="99.08884">
        <time>2019-09-06T07:50:53Z</time>
      </trkpt>
      <trkpt lat="19.42288" lon="99.08885">
        <time>2019-09-06T07:50:54Z</time>
      </trkpt>
      <trkpt lat="19.42285" lon="99.08884">
        <time>2019-09-06T07:50:59Z</time>
      </trkpt>
      <trkpt lat="19.42284" lon="99.0888">
        <time>2019-09-06T07:51:05Z</time>
      </trkpt>
      <trkpt lat="19.42284" lon="99.08878">
        <time>2019-09-06T07:51:06Z</time>
      </trkpt>
      <trkpt lat="19.42283" lon="99.08877">
        <time>2019-09-06T07:51:07Z</time>
      </trkpt>
      <trkpt lat="19.42283" lon="99.08875">
        <time>2019-09-06T07:51:08Z</time>
      </trkpt>
      <trkpt lat="19.42283" lon="99.08874">
        <time>2019-09-06T07:51:09Z</time>
      </trkpt>
      <trkpt lat="19.42283" lon="99.08873">
        <time>2019-09-06T07:51:10Z</time>
      </trkpt>
      <trkpt lat="19.42283" lon="99.08872">
        <time>2019-09-06T07:51:11Z</time>
      </trkpt>
      <trkpt lat="19.42283" lon="99.0887">
        <time>2019-09-06T07:51:12Z</time>
      </trkpt>
      <trkpt lat="19.42284" lon="99.0887">
        <time>2019-09-06T07:51:14Z</time>
      </trkpt>
      <trkpt lat="19.42284" lon="99.08871">
        <time>2019-09-06T07:51:30Z</time>
      </trkpt>
      <trkpt lat="19.42285" lon="99.0887">
        <time>2019-09-06T07:51:31Z</time>
      </trkpt>
      <trkpt lat="19.42286" lon="99.08867">
        <time>2019-09-06T07:51:32Z</time>
      </trkpt>
      <trkpt lat="19.42288" lon="99.08862">
        <time>2019-09-06T07:51:33Z</time>
      </trkpt>
      <trkpt lat="19.42291" lon="99.08856">
        <time>2019-09-06T07:51:34Z</time>
      </trkpt>
      <trkpt lat="19.42295" lon="99.08849">
        <time>2019-09-06T07:51:35Z</time>
      </trkpt>
      <trkpt lat="19.42298" lon="99.08844">
        <time>2019-09-06T07:51:36Z</time>
      </trkpt>
      <trkpt lat="19.42325" lon="99.08808">
        <time>2019-09-06T07:51:40Z</time>
      </trkpt>
      <trkpt lat="19.42333" lon="99.08799">
        <time>2019-09-06T07:51:40Z</time>
      </trkpt>
      <trkpt lat="19.4234" lon="99.0879">
        <time>2019-09-06T07:51:41Z</time>
      </trkpt>
      <trkpt lat="19.42348" lon="99.0878">
        <time>2019-09-06T07:51:42Z</time>
      </trkpt>
      <trkpt lat="19.42355" lon="99.08769">
        <time>2019-09-06T07:51:43Z</time>
      </trkpt>
      <trkpt lat="19.42363" lon="99.08757">
        <time>2019-09-06T07:51:44Z</time>
      </trkpt>
      <trkpt lat="19.42374" lon="99.08745">
        <time>2019-09-06T07:51:45Z</time>
      </trkpt>
      <trkpt lat="19.42383" lon="99.08734">
        <time>2019-09-06T07:51:46Z</time>
      </trkpt>
      <trkpt lat="19.42391" lon="99.08723">
        <time>2019-09-06T07:51:47Z</time>
      </trkpt>
      <trkpt lat="19.424" lon="99.08713">
        <time>2019-09-06T07:51:48Z</time>
      </trkpt>
      <trkpt lat="19.4241" lon="99.08701">
        <time>2019-09-06T07:51:49Z</time>
      </trkpt>
      <trkpt lat="19.42418" lon="99.0869">
        <time>2019-09-06T07:51:50Z</time>
      </trkpt>
      <trkpt lat="19.42427" lon="99.08678">
        <time>2019-09-06T07:51:51Z</time>
      </trkpt>
      <trkpt lat="19.42437" lon="99.08665">
        <time>2019-09-06T07:51:52Z</time>
      </trkpt>
      <trkpt lat="19.42446" lon="99.08651">
        <time>2019-09-06T07:51:53Z</time>
      </trkpt>
      <trkpt lat="19.42457" lon="99.08635">
        <time>2019-09-06T07:51:54Z</time>
      </trkpt>
      <trkpt lat="19.42467" lon="99.08619">
        <time>2019-09-06T07:51:55Z</time>
      </trkpt>
      <trkpt lat="19.42475" lon="99.08603">
        <time>2019-09-06T07:51:56Z</time>
      </trkpt>
      <trkpt lat="19.42485" lon="99.08584">
        <time>2019-09-06T07:51:57Z</time>
      </trkpt>
      <trkpt lat="19.42494" lon="99.08567">
        <time>2019-09-06T07:51:58Z</time>
      </trkpt>
      <trkpt lat="19.42502" lon="99.0855">
        <time>2019-09-06T07:51:59Z</time>
      </trkpt>
      <trkpt lat="19.42514" lon="99.08532">
        <time>2019-09-06T07:52:00Z</time>
      </trkpt>
      <trkpt lat="19.42524" lon="99.08517">
        <time>2019-09-06T07:52:01Z</time>
      </trkpt>
      <trkpt lat="19.42534" lon="99.08502">
        <time>2019-09-06T07:52:02Z</time>
      </trkpt>
      <trkpt lat="19.42545" lon="99.08488">
        <time>2019-09-06T07:52:03Z</time>
      </trkpt>
      <trkpt lat="19.42556" lon="99.08473">
        <time>2019-09-06T07:52:04Z</time>
      </trkpt>
      <trkpt lat="19.42568" lon="99.08459">
        <time>2019-09-06T07:52:05Z</time>
      </trkpt>
      <trkpt lat="19.42579" lon="99.08446">
        <time>2019-09-06T07:52:06Z</time>
      </trkpt>
      <trkpt lat="19.4259" lon="99.08432">
        <time>2019-09-06T07:52:07Z</time>
      </trkpt>
      <trkpt lat="19.426" lon="99.08419">
        <time>2019-09-06T07:52:08Z</time>
      </trkpt>
      <trkpt lat="19.4261" lon="99.08406">
        <time>2019-09-06T07:52:09Z</time>
      </trkpt>
      <trkpt lat="19.42621" lon="99.08394">
        <time>2019-09-06T07:52:10Z</time>
      </trkpt>
      <trkpt lat="19.42634" lon="99.08382">
        <time>2019-09-06T07:52:11Z</time>
      </trkpt>
      <trkpt lat="19.42647" lon="99.08371">
        <time>2019-09-06T07:52:12Z</time>
      </trkpt>
      <trkpt lat="19.42664" lon="99.08361">
        <time>2019-09-06T07:52:13Z</time>
      </trkpt>
      <trkpt lat="19.4268" lon="99.08349">
        <time>2019-09-06T07:52:14Z</time>
      </trkpt>
      <trkpt lat="19.42696" lon="99.08337">
        <time>2019-09-06T07:52:15Z</time>
      </trkpt>
      <trkpt lat="19.42727" lon="99.08309">
        <time>2019-09-06T07:52:18Z</time>
      </trkpt>
      <trkpt lat="19.42741" lon="99.08293">
        <time>2019-09-06T07:52:18Z</time>
      </trkpt>
      <trkpt lat="19.42754" lon="99.08275">
        <time>2019-09-06T07:52:19Z</time>
      </trkpt>
      <trkpt lat="19.42765" lon="99.08257">
        <time>2019-09-06T07:52:20Z</time>
      </trkpt>
      <trkpt lat="19.42777" lon="99.08238">
        <time>2019-09-06T07:52:21Z</time>
      </trkpt>
      <trkpt lat="19.42789" lon="99.08218">
        <time>2019-09-06T07:52:22Z</time>
      </trkpt>
      <trkpt lat="19.42801" lon="99.082">
        <time>2019-09-06T07:52:23Z</time>
      </trkpt>
      <trkpt lat="19.42813" lon="99.0818">
        <time>2019-09-06T07:52:24Z</time>
      </trkpt>
      <trkpt lat="19.42824" lon="99.08163">
        <time>2019-09-06T07:52:25Z</time>
      </trkpt>
      <trkpt lat="19.42836" lon="99.08145">
        <time>2019-09-06T07:52:26Z</time>
      </trkpt>
      <trkpt lat="19.42848" lon="99.08128">
        <time>2019-09-06T07:52:27Z</time>
      </trkpt>
      <trkpt lat="19.42861" lon="99.08109">
        <time>2019-09-06T07:52:28Z</time>
      </trkpt>
      <trkpt lat="19.42876" lon="99.08089">
        <time>2019-09-06T07:52:29Z</time>
      </trkpt>
      <trkpt lat="19.42888" lon="99.08071">
        <time>2019-09-06T07:52:30Z</time>
      </trkpt>
      <trkpt lat="19.42903" lon="99.0805">
        <time>2019-09-06T07:52:31Z</time>
      </trkpt>
      <trkpt lat="19.42918" lon="99.0803">
        <time>2019-09-06T07:52:32Z</time>
      </trkpt>
      <trkpt lat="19.42933" lon="99.0801">
        <time>2019-09-06T07:52:33Z</time>
      </trkpt>
      <trkpt lat="19.42948" lon="99.07988">
        <time>2019-09-06T07:52:34Z</time>
      </trkpt>
      <trkpt lat="19.42962" lon="99.07968">
        <time>2019-09-06T07:52:35Z</time>
      </trkpt>
      <trkpt lat="19.42974" lon="99.07948">
        <time>2019-09-06T07:52:36Z</time>
      </trkpt>
      <trkpt lat="19.42988" lon="99.07928">
        <time>2019-09-06T07:52:37Z</time>
      </trkpt>
      <trkpt lat="19.43" lon="99.07907">
        <time>2019-09-06T07:52:38Z</time>
      </trkpt>
      <trkpt lat="19.43012" lon="99.07886">
        <time>2019-09-06T07:52:39Z</time>
      </trkpt>
      <trkpt lat="19.43024" lon="99.07864">
        <time>2019-09-06T07:52:40Z</time>
      </trkpt>
      <trkpt lat="19.43036" lon="99.07843">
        <time>2019-09-06T07:52:41Z</time>
      </trkpt>
      <trkpt lat="19.43049" lon="99.07821">
        <time>2019-09-06T07:52:42Z</time>
      </trkpt>
      <trkpt lat="19.43061" lon="99.07801">
        <time>2019-09-06T07:52:43Z</time>
      </trkpt>
      <trkpt lat="19.43074" lon="99.07782">
        <time>2019-09-06T07:52:44Z</time>
      </trkpt>
      <trkpt lat="19.43087" lon="99.07761">
        <time>2019-09-06T07:52:45Z</time>
      </trkpt>
      <trkpt lat="19.431" lon="99.07741">
        <time>2019-09-06T07:52:46Z</time>
      </trkpt>
      <trkpt lat="19.43113" lon="99.07722">
        <time>2019-09-06T07:52:47Z</time>
      </trkpt>
      <trkpt lat="19.43125" lon="99.07703">
        <time>2019-09-06T07:52:48Z</time>
      </trkpt>
      <trkpt lat="19.43136" lon="99.07687">
        <time>2019-09-06T07:52:49Z</time>
      </trkpt>
      <trkpt lat="19.43146" lon="99.07673">
        <time>2019-09-06T07:52:50Z</time>
      </trkpt>
      <trkpt lat="19.43159" lon="99.07658">
        <time>2019-09-06T07:52:51Z</time>
      </trkpt>
      <trkpt lat="19.43173" lon="99.07646">
        <time>2019-09-06T07:52:52Z</time>
      </trkpt>
      <trkpt lat="19.43192" lon="99.07634">
        <time>2019-09-06T07:52:53Z</time>
      </trkpt>
      <trkpt lat="19.43211" lon="99.07623">
        <time>2019-09-06T07:52:54Z</time>
      </trkpt>
      <trkpt lat="19.43229" lon="99.07614">
        <time>2019-09-06T07:52:55Z</time>
      </trkpt>
      <trkpt lat="19.43246" lon="99.07607">
        <time>2019-09-06T07:52:56Z</time>
      </trkpt>
      <trkpt lat="19.43266" lon="99.07601">
        <time>2019-09-06T07:52:57Z</time>
      </trkpt>
      <trkpt lat="19.43282" lon="99.07595">
        <time>2019-09-06T07:52:58Z</time>
      </trkpt>
      <trkpt lat="19.43298" lon="99.07589">
        <time>2019-09-06T07:52:59Z</time>
      </trkpt>
      <trkpt lat="19.43315" lon="99.07584">
        <time>2019-09-06T07:53:00Z</time>
      </trkpt>
      <trkpt lat="19.43331" lon="99.07576">
        <time>2019-09-06T07:53:01Z</time>
      </trkpt>
      <trkpt lat="19.43347" lon="99.07566">
        <time>2019-09-06T07:53:02Z</time>
      </trkpt>
      <trkpt lat="19.43361" lon="99.07551">
        <time>2019-09-06T07:53:03Z</time>
      </trkpt>
      <trkpt lat="19.43375" lon="99.07537">
        <time>2019-09-06T07:53:04Z</time>
      </trkpt>
      <trkpt lat="19.4339" lon="99.07524">
        <time>2019-09-06T07:53:05Z</time>
      </trkpt>
      <trkpt lat="19.43407" lon="99.0751">
        <time>2019-09-06T07:53:06Z</time>
      </trkpt>
      <trkpt lat="19.43424" lon="99.07497">
        <time>2019-09-06T07:53:07Z</time>
      </trkpt>
      <trkpt lat="19.43439" lon="99.07483">
        <time>2019-09-06T07:53:08Z</time>
      </trkpt>
      <trkpt lat="19.43448" lon="99.07458">
        <time>2019-09-06T07:53:09Z</time>
      </trkpt>
      <trkpt lat="19.43456" lon="99.07438">
        <time>2019-09-06T07:53:10Z</time>
      </trkpt>
      <trkpt lat="19.43467" lon="99.0742">
        <time>2019-09-06T07:53:11Z</time>
      </trkpt>
      <trkpt lat="19.4348" lon="99.07399">
        <time>2019-09-06T07:53:12Z</time>
      </trkpt>
      <trkpt lat="19.43488" lon="99.07382">
        <time>2019-09-06T07:53:13Z</time>
      </trkpt>
      <trkpt lat="19.43502" lon="99.07365">
        <time>2019-09-06T07:53:14Z</time>
      </trkpt>
      <trkpt lat="19.43512" lon="99.07347">
        <time>2019-09-06T07:53:15Z</time>
      </trkpt>
      <trkpt lat="19.43517" lon="99.07331">
        <time>2019-09-06T07:53:16Z</time>
      </trkpt>
      <trkpt lat="19.43527" lon="99.07315">
        <time>2019-09-06T07:53:17Z</time>
      </trkpt>
      <trkpt lat="19.43535" lon="99.07293">
        <time>2019-09-06T07:53:18Z</time>
      </trkpt>
      <trkpt lat="19.43546" lon="99.07273">
        <time>2019-09-06T07:53:20Z</time>
      </trkpt>
      <trkpt lat="19.43557" lon="99.07252">
        <time>2019-09-06T07:53:20Z</time>
      </trkpt>
      <trkpt lat="19.43568" lon="99.07231">
        <time>2019-09-06T07:53:21Z</time>
      </trkpt>
      <trkpt lat="19.43578" lon="99.07208">
        <time>2019-09-06T07:53:22Z</time>
      </trkpt>
      <trkpt lat="19.43585" lon="99.07186">
        <time>2019-09-06T07:53:23Z</time>
      </trkpt>
      <trkpt lat="19.43589" lon="99.07163">
        <time>2019-09-06T07:53:24Z</time>
      </trkpt>
      <trkpt lat="19.43598" lon="99.07139">
        <time>2019-09-06T07:53:25Z</time>
      </trkpt>
      <trkpt lat="19.43607" lon="99.07112">
        <time>2019-09-06T07:53:26Z</time>
      </trkpt>
      <trkpt lat="19.43614" lon="99.07086">
        <time>2019-09-06T07:53:27Z</time>
      </trkpt>
      <trkpt lat="19.43619" lon="99.07057">
        <time>2019-09-06T07:53:28Z</time>
      </trkpt>
      <trkpt lat="19.43625" lon="99.07029">
        <time>2019-09-06T07:53:29Z</time>
      </trkpt>
      <trkpt lat="19.43635" lon="99.06999">
        <time>2019-09-06T07:53:30Z</time>
      </trkpt>
      <trkpt lat="19.43643" lon="99.0697">
        <time>2019-09-06T07:53:31Z</time>
      </trkpt>
      <trkpt lat="19.43648" lon="99.06942">
        <time>2019-09-06T07:53:32Z</time>
      </trkpt>
      <trkpt lat="19.43655" lon="99.06913">
        <time>2019-09-06T07:53:33Z</time>
      </trkpt>
      <trkpt lat="19.4366" lon="99.06887">
        <time>2019-09-06T07:53:34Z</time>
      </trkpt>
      <trkpt lat="19.43666" lon="99.06861">
        <time>2019-09-06T07:53:35Z</time>
      </trkpt>
      <trkpt lat="19.43672" lon="99.06832">
        <time>2019-09-06T07:53:36Z</time>
      </trkpt>
      <trkpt lat="19.43676" lon="99.06806">
        <time>2019-09-06T07:53:37Z</time>
      </trkpt>
      <trkpt lat="19.43681" lon="99.06781">
        <time>2019-09-06T07:53:38Z</time>
      </trkpt>
      <trkpt lat="19.43686" lon="99.06754">
        <time>2019-09-06T07:53:39Z</time>
      </trkpt>
      <trkpt lat="19.43691" lon="99.06727">
        <time>2019-09-06T07:53:40Z</time>
      </trkpt>
      <trkpt lat="19.43696" lon="99.06702">
        <time>2019-09-06T07:53:41Z</time>
      </trkpt>
      <trkpt lat="19.437" lon="99.06677">
        <time>2019-09-06T07:53:42Z</time>
      </trkpt>
      <trkpt lat="19.43707" lon="99.0665">
        <time>2019-09-06T07:53:43Z</time>
      </trkpt>
      <trkpt lat="19.43712" lon="99.06624">
        <time>2019-09-06T07:53:44Z</time>
      </trkpt>
      <trkpt lat="19.43715" lon="99.06598">
        <time>2019-09-06T07:53:45Z</time>
      </trkpt>
      <trkpt lat="19.4372" lon="99.06571">
        <time>2019-09-06T07:53:47Z</time>
      </trkpt>
      <trkpt lat="19.43727" lon="99.06544">
        <time>2019-09-06T07:53:47Z</time>
      </trkpt>
      <trkpt lat="19.43728" lon="99.06516">
        <time>2019-09-06T07:53:48Z</time>
      </trkpt>
      <trkpt lat="19.43732" lon="99.06488">
        <time>2019-09-06T07:53:49Z</time>
      </trkpt>
      <trkpt lat="19.43737" lon="99.0646">
        <time>2019-09-06T07:53:50Z</time>
      </trkpt>
      <trkpt lat="19.43741" lon="99.06432">
        <time>2019-09-06T07:53:51Z</time>
      </trkpt>
      <trkpt lat="19.43742" lon="99.06407">
        <time>2019-09-06T07:53:52Z</time>
      </trkpt>
      <trkpt lat="19.43744" lon="99.06381">
        <time>2019-09-06T07:53:53Z</time>
      </trkpt>
      <trkpt lat="19.43746" lon="99.06357">
        <time>2019-09-06T07:53:54Z</time>
      </trkpt>
      <trkpt lat="19.43749" lon="99.06332">
        <time>2019-09-06T07:53:55Z</time>
      </trkpt>
      <trkpt lat="19.43752" lon="99.06307">
        <time>2019-09-06T07:53:56Z</time>
      </trkpt>
      <trkpt lat="19.43752" lon="99.0628">
        <time>2019-09-06T07:53:57Z</time>
      </trkpt>
      <trkpt lat="19.43754" lon="99.06254">
        <time>2019-09-06T07:53:58Z</time>
      </trkpt>
      <trkpt lat="19.43772" lon="99.0623">
        <time>2019-09-06T07:53:59Z</time>
      </trkpt>
      <trkpt lat="19.43783" lon="99.06204">
        <time>2019-09-06T07:54:00Z</time>
      </trkpt>
      <trkpt lat="19.43789" lon="99.06182">
        <time>2019-09-06T07:54:01Z</time>
      </trkpt>
      <trkpt lat="19.43798" lon="99.06157">
        <time>2019-09-06T07:54:02Z</time>
      </trkpt>
      <trkpt lat="19.43808" lon="99.06134">
        <time>2019-09-06T07:54:03Z</time>
      </trkpt>
      <trkpt lat="19.43819" lon="99.0611">
        <time>2019-09-06T07:54:04Z</time>
      </trkpt>
      <trkpt lat="19.4383" lon="99.06085">
        <time>2019-09-06T07:54:05Z</time>
      </trkpt>
      <trkpt lat="19.43837" lon="99.06061">
        <time>2019-09-06T07:54:06Z</time>
      </trkpt>
      <trkpt lat="19.43842" lon="99.06037">
        <time>2019-09-06T07:54:07Z</time>
      </trkpt>
      <trkpt lat="19.43846" lon="99.06016">
        <time>2019-09-06T07:54:08Z</time>
      </trkpt>
      <trkpt lat="19.43845" lon="99.05993">
        <time>2019-09-06T07:54:09Z</time>
      </trkpt>
      <trkpt lat="19.43842" lon="99.05969">
        <time>2019-09-06T07:54:10Z</time>
      </trkpt>
      <trkpt lat="19.4383" lon="99.05944">
        <time>2019-09-06T07:54:11Z</time>
      </trkpt>
      <trkpt lat="19.43819" lon="99.05919">
        <time>2019-09-06T07:54:12Z</time>
      </trkpt>
      <trkpt lat="19.43813" lon="99.0589">
        <time>2019-09-06T07:54:13Z</time>
      </trkpt>
      <trkpt lat="19.43803" lon="99.05864">
        <time>2019-09-06T07:54:14Z</time>
      </trkpt>
      <trkpt lat="19.43796" lon="99.05837">
        <time>2019-09-06T07:54:15Z</time>
      </trkpt>
      <trkpt lat="19.43787" lon="99.0581">
        <time>2019-09-06T07:54:16Z</time>
      </trkpt>
      <trkpt lat="19.43781" lon="99.05784">
        <time>2019-09-06T07:54:17Z</time>
      </trkpt>
      <trkpt lat="19.43776" lon="99.05761">
        <time>2019-09-06T07:54:18Z</time>
      </trkpt>
      <trkpt lat="19.4378" lon="99.05741">
        <time>2019-09-06T07:54:19Z</time>
      </trkpt>
      <trkpt lat="19.43775" lon="99.05715">
        <time>2019-09-06T07:54:20Z</time>
      </trkpt>
      <trkpt lat="19.43775" lon="99.05684">
        <time>2019-09-06T07:54:21Z</time>
      </trkpt>
      <trkpt lat="19.43775" lon="99.0565">
        <time>2019-09-06T07:54:22Z</time>
      </trkpt>
      <trkpt lat="19.43772" lon="99.05624">
        <time>2019-09-06T07:54:23Z</time>
      </trkpt>
      <trkpt lat="19.43772" lon="99.05597">
        <time>2019-09-06T07:54:24Z</time>
      </trkpt>
      <trkpt lat="19.43769" lon="99.05571">
        <time>2019-09-06T07:54:25Z</time>
      </trkpt>
      <trkpt lat="19.43764" lon="99.05548">
        <time>2019-09-06T07:54:26Z</time>
      </trkpt>
      <trkpt lat="19.43757" lon="99.05523">
        <time>2019-09-06T07:54:27Z</time>
      </trkpt>
      <trkpt lat="19.43752" lon="99.05498">
        <time>2019-09-06T07:54:28Z</time>
      </trkpt>
      <trkpt lat="19.43742" lon="99.05475">
        <time>2019-09-06T07:54:29Z</time>
      </trkpt>
      <trkpt lat="19.43735" lon="99.05449">
        <time>2019-09-06T07:54:30Z</time>
      </trkpt>
      <trkpt lat="19.43727" lon="99.05423">
        <time>2019-09-06T07:54:31Z</time>
      </trkpt>
      <trkpt lat="19.43715" lon="99.05396">
        <time>2019-09-06T07:54:32Z</time>
      </trkpt>
      <trkpt lat="19.43707" lon="99.0537">
        <time>2019-09-06T07:54:33Z</time>
      </trkpt>
      <trkpt lat="19.43702" lon="99.05344">
        <time>2019-09-06T07:54:34Z</time>
      </trkpt>
      <trkpt lat="19.43699" lon="99.05315">
        <time>2019-09-06T07:54:35Z</time>
      </trkpt>
      <trkpt lat="19.43696" lon="99.05289">
        <time>2019-09-06T07:54:36Z</time>
      </trkpt>
      <trkpt lat="19.4369" lon="99.05265">
        <time>2019-09-06T07:54:37Z</time>
      </trkpt>
      <trkpt lat="19.43684" lon="99.05241">
        <time>2019-09-06T07:54:38Z</time>
      </trkpt>
      <trkpt lat="19.43679" lon="99.05214">
        <time>2019-09-06T07:54:39Z</time>
      </trkpt>
      <trkpt lat="19.43674" lon="99.05187">
        <time>2019-09-06T07:54:40Z</time>
      </trkpt>
      <trkpt lat="19.43668" lon="99.0516">
        <time>2019-09-06T07:54:41Z</time>
      </trkpt>
      <trkpt lat="19.43651" lon="99.05139">
        <time>2019-09-06T07:54:42Z</time>
      </trkpt>
      <trkpt lat="19.43642" lon="99.05115">
        <time>2019-09-06T07:54:43Z</time>
      </trkpt>
      <trkpt lat="19.43629" lon="99.05096">
        <time>2019-09-06T07:54:44Z</time>
      </trkpt>
      <trkpt lat="19.43619" lon="99.05073">
        <time>2019-09-06T07:54:45Z</time>
      </trkpt>
      <trkpt lat="19.43605" lon="99.05052">
        <time>2019-09-06T07:54:46Z</time>
      </trkpt>
      <trkpt lat="19.43592" lon="99.05032">
        <time>2019-09-06T07:54:47Z</time>
      </trkpt>
      <trkpt lat="19.4358" lon="99.05013">
        <time>2019-09-06T07:54:48Z</time>
      </trkpt>
      <trkpt lat="19.43561" lon="99.04999">
        <time>2019-09-06T07:54:49Z</time>
      </trkpt>
      <trkpt lat="19.43548" lon="99.04978">
        <time>2019-09-06T07:54:50Z</time>
      </trkpt>
      <trkpt lat="19.43535" lon="99.0496">
        <time>2019-09-06T07:54:51Z</time>
      </trkpt>
      <trkpt lat="19.43523" lon="99.04941">
        <time>2019-09-06T07:54:52Z</time>
      </trkpt>
      <trkpt lat="19.43511" lon="99.04923">
        <time>2019-09-06T07:54:53Z</time>
      </trkpt>
      <trkpt lat="19.43503" lon="99.04905">
        <time>2019-09-06T07:54:54Z</time>
      </trkpt>
      <trkpt lat="19.43489" lon="99.04892">
        <time>2019-09-06T07:54:55Z</time>
      </trkpt>
      <trkpt lat="19.43481" lon="99.04868">
        <time>2019-09-06T07:54:56Z</time>
      </trkpt>
      <trkpt lat="19.43477" lon="99.04841">
        <time>2019-09-06T07:54:57Z</time>
      </trkpt>
      <trkpt lat="19.43469" lon="99.04818">
        <time>2019-09-06T07:54:58Z</time>
      </trkpt>
      <trkpt lat="19.43457" lon="99.04797">
        <time>2019-09-06T07:54:59Z</time>
      </trkpt>
      <trkpt lat="19.43447" lon="99.04773">
        <time>2019-09-06T07:55:00Z</time>
      </trkpt>
      <trkpt lat="19.43436" lon="99.04749">
        <time>2019-09-06T07:55:01Z</time>
      </trkpt>
      <trkpt lat="19.43423" lon="99.04727">
        <time>2019-09-06T07:55:02Z</time>
      </trkpt>
      <trkpt lat="19.43413" lon="99.04702">
        <time>2019-09-06T07:55:03Z</time>
      </trkpt>
      <trkpt lat="19.434" lon="99.04677">
        <time>2019-09-06T07:55:04Z</time>
      </trkpt>
      <trkpt lat="19.43389" lon="99.04653">
        <time>2019-09-06T07:55:05Z</time>
      </trkpt>
      <trkpt lat="19.43379" lon="99.04628">
        <time>2019-09-06T07:55:06Z</time>
      </trkpt>
      <trkpt lat="19.43368" lon="99.04605">
        <time>2019-09-06T07:55:07Z</time>
      </trkpt>
      <trkpt lat="19.43357" lon="99.04583">
        <time>2019-09-06T07:55:08Z</time>
      </trkpt>
      <trkpt lat="19.43349" lon="99.0456">
        <time>2019-09-06T07:55:09Z</time>
      </trkpt>
      <trkpt lat="19.43339" lon="99.04539">
        <time>2019-09-06T07:55:10Z</time>
      </trkpt>
      <trkpt lat="19.43328" lon="99.04518">
        <time>2019-09-06T07:55:11Z</time>
      </trkpt>
      <trkpt lat="19.43322" lon="99.04497">
        <time>2019-09-06T07:55:12Z</time>
      </trkpt>
      <trkpt lat="19.43316" lon="99.04474">
        <time>2019-09-06T07:55:13Z</time>
      </trkpt>
      <trkpt lat="19.43311" lon="99.0445">
        <time>2019-09-06T07:55:14Z</time>
      </trkpt>
      <trkpt lat="19.43305" lon="99.04429">
        <time>2019-09-06T07:55:15Z</time>
      </trkpt>
      <trkpt lat="19.43307" lon="99.04403">
        <time>2019-09-06T07:55:16Z</time>
      </trkpt>
      <trkpt lat="19.43305" lon="99.04377">
        <time>2019-09-06T07:55:17Z</time>
      </trkpt>
      <trkpt lat="19.43304" lon="99.04353">
        <time>2019-09-06T07:55:18Z</time>
      </trkpt>
      <trkpt lat="19.43308" lon="99.04338">
        <time>2019-09-06T07:55:19Z</time>
      </trkpt>
      <trkpt lat="19.43308" lon="99.04318">
        <time>2019-09-06T07:55:20Z</time>
      </trkpt>
      <trkpt lat="19.43309" lon="99.04299">
        <time>2019-09-06T07:55:21Z</time>
      </trkpt>
      <trkpt lat="19.43311" lon="99.04283">
        <time>2019-09-06T07:55:22Z</time>
      </trkpt>
      <trkpt lat="19.43314" lon="99.04267">
        <time>2019-09-06T07:55:23Z</time>
      </trkpt>
      <trkpt lat="19.43319" lon="99.04252">
        <time>2019-09-06T07:55:24Z</time>
      </trkpt>
      <trkpt lat="19.43335" lon="99.04233">
        <time>2019-09-06T07:55:25Z</time>
      </trkpt>
      <trkpt lat="19.43348" lon="99.04213">
        <time>2019-09-06T07:55:26Z</time>
      </trkpt>
      <trkpt lat="19.43369" lon="99.04186">
        <time>2019-09-06T07:55:27Z</time>
      </trkpt>
      <trkpt lat="19.43381" lon="99.04165">
        <time>2019-09-06T07:55:28Z</time>
      </trkpt>
      <trkpt lat="19.43393" lon="99.04147">
        <time>2019-09-06T07:55:29Z</time>
      </trkpt>
      <trkpt lat="19.43406" lon="99.04127">
        <time>2019-09-06T07:55:30Z</time>
      </trkpt>
      <trkpt lat="19.43418" lon="99.04108">
        <time>2019-09-06T07:55:31Z</time>
      </trkpt>
      <trkpt lat="19.43429" lon="99.04092">
        <time>2019-09-06T07:55:32Z</time>
      </trkpt>
      <trkpt lat="19.43441" lon="99.04077">
        <time>2019-09-06T07:55:34Z</time>
      </trkpt>
      <trkpt lat="19.43453" lon="99.04066">
        <time>2019-09-06T07:55:34Z</time>
      </trkpt>
      <trkpt lat="19.43465" lon="99.04054">
        <time>2019-09-06T07:55:35Z</time>
      </trkpt>
      <trkpt lat="19.43482" lon="99.04045">
        <time>2019-09-06T07:55:36Z</time>
      </trkpt>
      <trkpt lat="19.43497" lon="99.04038">
        <time>2019-09-06T07:55:37Z</time>
      </trkpt>
      <trkpt lat="19.43515" lon="99.0403">
        <time>2019-09-06T07:55:38Z</time>
      </trkpt>
      <trkpt lat="19.43532" lon="99.04025">
        <time>2019-09-06T07:55:39Z</time>
      </trkpt>
      <trkpt lat="19.43551" lon="99.04019">
        <time>2019-09-06T07:55:40Z</time>
      </trkpt>
      <trkpt lat="19.43571" lon="99.04012">
        <time>2019-09-06T07:55:41Z</time>
      </trkpt>
      <trkpt lat="19.43592" lon="99.04005">
        <time>2019-09-06T07:55:42Z</time>
      </trkpt>
      <trkpt lat="19.43614" lon="99.03999">
        <time>2019-09-06T07:55:43Z</time>
      </trkpt>
      <trkpt lat="19.43636" lon="99.03997">
        <time>2019-09-06T07:55:44Z</time>
      </trkpt>
      <trkpt lat="19.4366" lon="99.03993">
        <time>2019-09-06T07:55:45Z</time>
      </trkpt>
      <trkpt lat="19.43683" lon="99.03986">
        <time>2019-09-06T07:55:46Z</time>
      </trkpt>
      <trkpt lat="19.437" lon="99.0398">
        <time>2019-09-06T07:55:47Z</time>
      </trkpt>
      <trkpt lat="19.43718" lon="99.03974">
        <time>2019-09-06T07:55:48Z</time>
      </trkpt>
      <trkpt lat="19.43734" lon="99.03969">
        <time>2019-09-06T07:55:49Z</time>
      </trkpt>
      <trkpt lat="19.43752" lon="99.03962">
        <time>2019-09-06T07:55:50Z</time>
      </trkpt>
      <trkpt lat="19.43758" lon="99.03948">
        <time>2019-09-06T07:55:51Z</time>
      </trkpt>
      <trkpt lat="19.4377" lon="99.03938">
        <time>2019-09-06T07:55:52Z</time>
      </trkpt>
      <trkpt lat="19.43765" lon="99.03912">
        <time>2019-09-06T07:55:53Z</time>
      </trkpt>
      <trkpt lat="19.43775" lon="99.0389">
        <time>2019-09-06T07:55:54Z</time>
      </trkpt>
      <trkpt lat="19.43782" lon="99.03872">
        <time>2019-09-06T07:55:55Z</time>
      </trkpt>
      <trkpt lat="19.43791" lon="99.0385">
        <time>2019-09-06T07:55:56Z</time>
      </trkpt>
      <trkpt lat="19.43801" lon="99.03827">
        <time>2019-09-06T07:55:57Z</time>
      </trkpt>
      <trkpt lat="19.4381" lon="99.03808">
        <time>2019-09-06T07:55:58Z</time>
      </trkpt>
      <trkpt lat="19.43819" lon="99.03788">
        <time>2019-09-06T07:55:59Z</time>
      </trkpt>
      <trkpt lat="19.43826" lon="99.03767">
        <time>2019-09-06T07:56:00Z</time>
      </trkpt>
      <trkpt lat="19.43836" lon="99.03746">
        <time>2019-09-06T07:56:01Z</time>
      </trkpt>
      <trkpt lat="19.43841" lon="99.03719">
        <time>2019-09-06T07:56:02Z</time>
      </trkpt>
      <trkpt lat="19.43847" lon="99.03694">
        <time>2019-09-06T07:56:03Z</time>
      </trkpt>
      <trkpt lat="19.4385" lon="99.03669">
        <time>2019-09-06T07:56:04Z</time>
      </trkpt>
      <trkpt lat="19.4385" lon="99.03641">
        <time>2019-09-06T07:56:05Z</time>
      </trkpt>
      <trkpt lat="19.43853" lon="99.03615">
        <time>2019-09-06T07:56:06Z</time>
      </trkpt>
      <trkpt lat="19.43857" lon="99.03591">
        <time>2019-09-06T07:56:07Z</time>
      </trkpt>
      <trkpt lat="19.43863" lon="99.03567">
        <time>2019-09-06T07:56:08Z</time>
      </trkpt>
      <trkpt lat="19.43868" lon="99.03545">
        <time>2019-09-06T07:56:09Z</time>
      </trkpt>
      <trkpt lat="19.43877" lon="99.03525">
        <time>2019-09-06T07:56:10Z</time>
      </trkpt>
      <trkpt lat="19.43887" lon="99.03504">
        <time>2019-09-06T07:56:11Z</time>
      </trkpt>
      <trkpt lat="19.43895" lon="99.03484">
        <time>2019-09-06T07:56:12Z</time>
      </trkpt>
      <trkpt lat="19.43911" lon="99.03462">
        <time>2019-09-06T07:56:13Z</time>
      </trkpt>
      <trkpt lat="19.43922" lon="99.0344">
        <time>2019-09-06T07:56:14Z</time>
      </trkpt>
      <trkpt lat="19.43933" lon="99.0342">
        <time>2019-09-06T07:56:15Z</time>
      </trkpt>
      <trkpt lat="19.43945" lon="99.03397">
        <time>2019-09-06T07:56:16Z</time>
      </trkpt>
      <trkpt lat="19.43959" lon="99.03377">
        <time>2019-09-06T07:56:17Z</time>
      </trkpt>
      <trkpt lat="19.43967" lon="99.03355">
        <time>2019-09-06T07:56:18Z</time>
      </trkpt>
      <trkpt lat="19.43971" lon="99.03328">
        <time>2019-09-06T07:56:19Z</time>
      </trkpt>
      <trkpt lat="19.43979" lon="99.03303">
        <time>2019-09-06T07:56:20Z</time>
      </trkpt>
      <trkpt lat="19.43987" lon="99.03279">
        <time>2019-09-06T07:56:21Z</time>
      </trkpt>
      <trkpt lat="19.43998" lon="99.03257">
        <time>2019-09-06T07:56:22Z</time>
      </trkpt>
      <trkpt lat="19.44012" lon="99.03234">
        <time>2019-09-06T07:56:23Z</time>
      </trkpt>
      <trkpt lat="19.44022" lon="99.03209">
        <time>2019-09-06T07:56:24Z</time>
      </trkpt>
      <trkpt lat="19.44034" lon="99.03186">
        <time>2019-09-06T07:56:25Z</time>
      </trkpt>
      <trkpt lat="19.44045" lon="99.03166">
        <time>2019-09-06T07:56:26Z</time>
      </trkpt>
      <trkpt lat="19.44058" lon="99.03142">
        <time>2019-09-06T07:56:27Z</time>
      </trkpt>
      <trkpt lat="19.44071" lon="99.0312">
        <time>2019-09-06T07:56:28Z</time>
      </trkpt>
      <trkpt lat="19.44085" lon="99.03097">
        <time>2019-09-06T07:56:29Z</time>
      </trkpt>
      <trkpt lat="19.44099" lon="99.03075">
        <time>2019-09-06T07:56:30Z</time>
      </trkpt>
      <trkpt lat="19.44113" lon="99.03053">
        <time>2019-09-06T07:56:31Z</time>
      </trkpt>
      <trkpt lat="19.44128" lon="99.03029">
        <time>2019-09-06T07:56:32Z</time>
      </trkpt>
      <trkpt lat="19.44141" lon="99.03006">
        <time>2019-09-06T07:56:33Z</time>
      </trkpt>
      <trkpt lat="19.44154" lon="99.02984">
        <time>2019-09-06T07:56:34Z</time>
      </trkpt>
      <trkpt lat="19.44167" lon="99.0296">
        <time>2019-09-06T07:56:35Z</time>
      </trkpt>
      <trkpt lat="19.44177" lon="99.02936">
        <time>2019-09-06T07:56:36Z</time>
      </trkpt>
      <trkpt lat="19.44187" lon="99.02911">
        <time>2019-09-06T07:56:37Z</time>
      </trkpt>
      <trkpt lat="19.44197" lon="99.02886">
        <time>2019-09-06T07:56:38Z</time>
      </trkpt>
      <trkpt lat="19.4421" lon="99.02862">
        <time>2019-09-06T07:56:39Z</time>
      </trkpt>
      <trkpt lat="19.4422" lon="99.0284">
        <time>2019-09-06T07:56:40Z</time>
      </trkpt>
      <trkpt lat="19.44224" lon="99.02825">
        <time>2019-09-06T07:56:41Z</time>
      </trkpt>
      <trkpt lat="19.44229" lon="99.02805">
        <time>2019-09-06T07:56:42Z</time>
      </trkpt>
      <trkpt lat="19.44236" lon="99.02787">
        <time>2019-09-06T07:56:43Z</time>
      </trkpt>
      <trkpt lat="19.44241" lon="99.02769">
        <time>2019-09-06T07:56:44Z</time>
      </trkpt>
      <trkpt lat="19.44243" lon="99.02752">
        <time>2019-09-06T07:56:45Z</time>
      </trkpt>
      <trkpt lat="19.4425" lon="99.02734">
        <time>2019-09-06T07:56:46Z</time>
      </trkpt>
      <trkpt lat="19.44263" lon="99.02713">
        <time>2019-09-06T07:56:47Z</time>
      </trkpt>
      <trkpt lat="19.4427" lon="99.02692">
        <time>2019-09-06T07:56:48Z</time>
      </trkpt>
      <trkpt lat="19.44279" lon="99.02669">
        <time>2019-09-06T07:56:49Z</time>
      </trkpt>
      <trkpt lat="19.44287" lon="99.02646">
        <time>2019-09-06T07:56:50Z</time>
      </trkpt>
      <trkpt lat="19.44296" lon="99.02622">
        <time>2019-09-06T07:56:51Z</time>
      </trkpt>
      <trkpt lat="19.44308" lon="99.02598">
        <time>2019-09-06T07:56:52Z</time>
      </trkpt>
      <trkpt lat="19.4432" lon="99.02575">
        <time>2019-09-06T07:56:53Z</time>
      </trkpt>
      <trkpt lat="19.44333" lon="99.02552">
        <time>2019-09-06T07:56:54Z</time>
      </trkpt>
      <trkpt lat="19.44346" lon="99.0253">
        <time>2019-09-06T07:56:55Z</time>
      </trkpt>
      <trkpt lat="19.44359" lon="99.02506">
        <time>2019-09-06T07:56:56Z</time>
      </trkpt>
      <trkpt lat="19.44372" lon="99.02483">
        <time>2019-09-06T07:56:57Z</time>
      </trkpt>
      <trkpt lat="19.44384" lon="99.02459">
        <time>2019-09-06T07:56:58Z</time>
      </trkpt>
      <trkpt lat="19.44397" lon="99.02434">
        <time>2019-09-06T07:56:59Z</time>
      </trkpt>
      <trkpt lat="19.4441" lon="99.02408">
        <time>2019-09-06T07:57:00Z</time>
      </trkpt>
      <trkpt lat="19.44422" lon="99.02385">
        <time>2019-09-06T07:57:01Z</time>
      </trkpt>
      <trkpt lat="19.44434" lon="99.02361">
        <time>2019-09-06T07:57:02Z</time>
      </trkpt>
      <trkpt lat="19.44443" lon="99.02337">
        <time>2019-09-06T07:57:03Z</time>
      </trkpt>
      <trkpt lat="19.44451" lon="99.02312">
        <time>2019-09-06T07:57:04Z</time>
      </trkpt>
      <trkpt lat="19.44459" lon="99.02287">
        <time>2019-09-06T07:57:05Z</time>
      </trkpt>
      <trkpt lat="19.44468" lon="99.02262">
        <time>2019-09-06T07:57:06Z</time>
      </trkpt>
      <trkpt lat="19.44475" lon="99.02237">
        <time>2019-09-06T07:57:07Z</time>
      </trkpt>
      <trkpt lat="19.44483" lon="99.02208">
        <time>2019-09-06T07:57:08Z</time>
      </trkpt>
      <trkpt lat="19.44489" lon="99.02181">
        <time>2019-09-06T07:57:09Z</time>
      </trkpt>
      <trkpt lat="19.44493" lon="99.02153">
        <time>2019-09-06T07:57:10Z</time>
      </trkpt>
      <trkpt lat="19.44499" lon="99.02126">
        <time>2019-09-06T07:57:11Z</time>
      </trkpt>
      <trkpt lat="19.44505" lon="99.02099">
        <time>2019-09-06T07:57:12Z</time>
      </trkpt>
      <trkpt lat="19.4451" lon="99.02071">
        <time>2019-09-06T07:57:13Z</time>
      </trkpt>
      <trkpt lat="19.44516" lon="99.02045">
        <time>2019-09-06T07:57:14Z</time>
      </trkpt>
      <trkpt lat="19.4452" lon="99.0202">
        <time>2019-09-06T07:57:15Z</time>
      </trkpt>
      <trkpt lat="19.44524" lon="99.01995">
        <time>2019-09-06T07:57:16Z</time>
      </trkpt>
      <trkpt lat="19.44528" lon="99.01972">
        <time>2019-09-06T07:57:17Z</time>
      </trkpt>
      <trkpt lat="19.44534" lon="99.0195">
        <time>2019-09-06T07:57:18Z</time>
      </trkpt>
      <trkpt lat="19.4454" lon="99.01926">
        <time>2019-09-06T07:57:19Z</time>
      </trkpt>
      <trkpt lat="19.44548" lon="99.01905">
        <time>2019-09-06T07:57:20Z</time>
      </trkpt>
      <trkpt lat="19.44558" lon="99.01883">
        <time>2019-09-06T07:57:21Z</time>
      </trkpt>
      <trkpt lat="19.44569" lon="99.0186">
        <time>2019-09-06T07:57:22Z</time>
      </trkpt>
      <trkpt lat="19.44578" lon="99.01839">
        <time>2019-09-06T07:57:23Z</time>
      </trkpt>
      <trkpt lat="19.44587" lon="99.01816">
        <time>2019-09-06T07:57:24Z</time>
      </trkpt>
      <trkpt lat="19.44599" lon="99.01794">
        <time>2019-09-06T07:57:25Z</time>
      </trkpt>
      <trkpt lat="19.4461" lon="99.01771">
        <time>2019-09-06T07:57:26Z</time>
      </trkpt>
      <trkpt lat="19.44622" lon="99.01751">
        <time>2019-09-06T07:57:27Z</time>
      </trkpt>
      <trkpt lat="19.44628" lon="99.0173">
        <time>2019-09-06T07:57:28Z</time>
      </trkpt>
      <trkpt lat="19.44638" lon="99.01712">
        <time>2019-09-06T07:57:29Z</time>
      </trkpt>
      <trkpt lat="19.44648" lon="99.01695">
        <time>2019-09-06T07:57:30Z</time>
      </trkpt>
      <trkpt lat="19.44658" lon="99.01679">
        <time>2019-09-06T07:57:31Z</time>
      </trkpt>
      <trkpt lat="19.4467" lon="99.01666">
        <time>2019-09-06T07:57:32Z</time>
      </trkpt>
      <trkpt lat="19.44684" lon="99.01654">
        <time>2019-09-06T07:57:33Z</time>
      </trkpt>
      <trkpt lat="19.44698" lon="99.01642">
        <time>2019-09-06T07:57:34Z</time>
      </trkpt>
      <trkpt lat="19.44714" lon="99.01629">
        <time>2019-09-06T07:57:35Z</time>
      </trkpt>
      <trkpt lat="19.44732" lon="99.0162">
        <time>2019-09-06T07:57:36Z</time>
      </trkpt>
      <trkpt lat="19.44748" lon="99.01609">
        <time>2019-09-06T07:57:37Z</time>
      </trkpt>
      <trkpt lat="19.44763" lon="99.01596">
        <time>2019-09-06T07:57:38Z</time>
      </trkpt>
      <trkpt lat="19.4478" lon="99.01584">
        <time>2019-09-06T07:57:39Z</time>
      </trkpt>
      <trkpt lat="19.44796" lon="99.01573">
        <time>2019-09-06T07:57:40Z</time>
      </trkpt>
      <trkpt lat="19.44805" lon="99.0155">
        <time>2019-09-06T07:57:41Z</time>
      </trkpt>
      <trkpt lat="19.44819" lon="99.01539">
        <time>2019-09-06T07:57:42Z</time>
      </trkpt>
      <trkpt lat="19.44827" lon="99.01522">
        <time>2019-09-06T07:57:43Z</time>
      </trkpt>
      <trkpt lat="19.44827" lon="99.01505">
        <time>2019-09-06T07:57:44Z</time>
      </trkpt>
      <trkpt lat="19.44836" lon="99.01489">
        <time>2019-09-06T07:57:45Z</time>
      </trkpt>
      <trkpt lat="19.44841" lon="99.01468">
        <time>2019-09-06T07:57:46Z</time>
      </trkpt>
      <trkpt lat="19.44824" lon="99.01454">
        <time>2019-09-06T07:57:47Z</time>
      </trkpt>
      <trkpt lat="19.44824" lon="99.01437">
        <time>2019-09-06T07:57:48Z</time>
      </trkpt>
      <trkpt lat="19.4482" lon="99.01423">
        <time>2019-09-06T07:57:49Z</time>
      </trkpt>
      <trkpt lat="19.44819" lon="99.01407">
        <time>2019-09-06T07:57:50Z</time>
      </trkpt>
      <trkpt lat="19.44813" lon="99.01396">
        <time>2019-09-06T07:57:51Z</time>
      </trkpt>
      <trkpt lat="19.44823" lon="99.01384">
        <time>2019-09-06T07:57:52Z</time>
      </trkpt>
      <trkpt lat="19.44828" lon="99.01374">
        <time>2019-09-06T07:57:53Z</time>
      </trkpt>
      <trkpt lat="19.44838" lon="99.01363">
        <time>2019-09-06T07:57:54Z</time>
      </trkpt>
      <trkpt lat="19.44853" lon="99.01359">
        <time>2019-09-06T07:57:55Z</time>
      </trkpt>
      <trkpt lat="19.44866" lon="99.01353">
        <time>2019-09-06T07:57:56Z</time>
      </trkpt>
      <trkpt lat="19.44882" lon="99.0135">
        <time>2019-09-06T07:57:57Z</time>
      </trkpt>
      <trkpt lat="19.44897" lon="99.01348">
        <time>2019-09-06T07:57:58Z</time>
      </trkpt>
      <trkpt lat="19.44916" lon="99.0135">
        <time>2019-09-06T07:57:59Z</time>
      </trkpt>
      <trkpt lat="19.44934" lon="99.01351">
        <time>2019-09-06T07:58:00Z</time>
      </trkpt>
      <trkpt lat="19.44952" lon="99.01355">
        <time>2019-09-06T07:58:01Z</time>
      </trkpt>
      <trkpt lat="19.44965" lon="99.01357">
        <time>2019-09-06T07:58:02Z</time>
      </trkpt>
      <trkpt lat="19.44981" lon="99.01355">
        <time>2019-09-06T07:58:03Z</time>
      </trkpt>
      <trkpt lat="19.44996" lon="99.01355">
        <time>2019-09-06T07:58:04Z</time>
      </trkpt>
      <trkpt lat="19.4501" lon="99.01345">
        <time>2019-09-06T07:58:05Z</time>
      </trkpt>
      <trkpt lat="19.45025" lon="99.01341">
        <time>2019-09-06T07:58:06Z</time>
      </trkpt>
      <trkpt lat="19.45041" lon="99.01338">
        <time>2019-09-06T07:58:07Z</time>
      </trkpt>
      <trkpt lat="19.45057" lon="99.01337">
        <time>2019-09-06T07:58:08Z</time>
      </trkpt>
      <trkpt lat="19.45073" lon="99.01338">
        <time>2019-09-06T07:58:09Z</time>
      </trkpt>
      <trkpt lat="19.4509" lon="99.01343">
        <time>2019-09-06T07:58:10Z</time>
      </trkpt>
      <trkpt lat="19.45108" lon="99.01351">
        <time>2019-09-06T07:58:11Z</time>
      </trkpt>
      <trkpt lat="19.45126" lon="99.01358">
        <time>2019-09-06T07:58:12Z</time>
      </trkpt>
      <trkpt lat="19.45142" lon="99.0136">
        <time>2019-09-06T07:58:13Z</time>
      </trkpt>
      <trkpt lat="19.45156" lon="99.01359">
        <time>2019-09-06T07:58:14Z</time>
      </trkpt>
      <trkpt lat="19.4517" lon="99.01357">
        <time>2019-09-06T07:58:15Z</time>
      </trkpt>
      <trkpt lat="19.45183" lon="99.01352">
        <time>2019-09-06T07:58:16Z</time>
      </trkpt>
      <trkpt lat="19.45196" lon="99.01349">
        <time>2019-09-06T07:58:17Z</time>
      </trkpt>
      <trkpt lat="19.45207" lon="99.01342">
        <time>2019-09-06T07:58:18Z</time>
      </trkpt>
      <trkpt lat="19.4522" lon="99.01332">
        <time>2019-09-06T07:58:19Z</time>
      </trkpt>
      <trkpt lat="19.45228" lon="99.01316">
        <time>2019-09-06T07:58:20Z</time>
      </trkpt>
      <trkpt lat="19.45228" lon="99.01291">
        <time>2019-09-06T07:58:21Z</time>
      </trkpt>
      <trkpt lat="19.45226" lon="99.01265">
        <time>2019-09-06T07:58:22Z</time>
      </trkpt>
      <trkpt lat="19.45232" lon="99.01242">
        <time>2019-09-06T07:58:23Z</time>
      </trkpt>
      <trkpt lat="19.45236" lon="99.01223">
        <time>2019-09-06T07:58:24Z</time>
      </trkpt>
      <trkpt lat="19.45239" lon="99.01203">
        <time>2019-09-06T07:58:25Z</time>
      </trkpt>
      <trkpt lat="19.45244" lon="99.01183">
        <time>2019-09-06T07:58:26Z</time>
      </trkpt>
      <trkpt lat="19.45251" lon="99.01164">
        <time>2019-09-06T07:58:27Z</time>
      </trkpt>
      <trkpt lat="19.45258" lon="99.01147">
        <time>2019-09-06T07:58:28Z</time>
      </trkpt>
      <trkpt lat="19.4527" lon="99.0113">
        <time>2019-09-06T07:58:29Z</time>
      </trkpt>
      <trkpt lat="19.45283" lon="99.01116">
        <time>2019-09-06T07:58:30Z</time>
      </trkpt>
      <trkpt lat="19.45297" lon="99.011">
        <time>2019-09-06T07:58:31Z</time>
      </trkpt>
      <trkpt lat="19.45315" lon="99.01087">
        <time>2019-09-06T07:58:32Z</time>
      </trkpt>
      <trkpt lat="19.45334" lon="99.01074">
        <time>2019-09-06T07:58:33Z</time>
      </trkpt>
      <trkpt lat="19.45347" lon="99.01062">
        <time>2019-09-06T07:58:34Z</time>
      </trkpt>
      <trkpt lat="19.45363" lon="99.0105">
        <time>2019-09-06T07:58:35Z</time>
      </trkpt>
      <trkpt lat="19.45377" lon="99.01038">
        <time>2019-09-06T07:58:36Z</time>
      </trkpt>
      <trkpt lat="19.4539" lon="99.01026">
        <time>2019-09-06T07:58:37Z</time>
      </trkpt>
      <trkpt lat="19.45387" lon="99.01006">
        <time>2019-09-06T07:58:38Z</time>
      </trkpt>
      <trkpt lat="19.45391" lon="99.00991">
        <time>2019-09-06T07:58:40Z</time>
      </trkpt>
      <trkpt lat="19.45401" lon="99.00981">
        <time>2019-09-06T07:58:40Z</time>
      </trkpt>
      <trkpt lat="19.45412" lon="99.00971">
        <time>2019-09-06T07:58:41Z</time>
      </trkpt>
      <trkpt lat="19.45425" lon="99.00962">
        <time>2019-09-06T07:58:42Z</time>
      </trkpt>
      <trkpt lat="19.45434" lon="99.00953">
        <time>2019-09-06T07:58:43Z</time>
      </trkpt>
      <trkpt lat="19.45437" lon="99.00936">
        <time>2019-09-06T07:58:44Z</time>
      </trkpt>
      <trkpt lat="19.45445" lon="99.00923">
        <time>2019-09-06T07:58:45Z</time>
      </trkpt>
      <trkpt lat="19.4545" lon="99.00909">
        <time>2019-09-06T07:58:46Z</time>
      </trkpt>
      <trkpt lat="19.45452" lon="99.00893">
        <time>2019-09-06T07:58:47Z</time>
      </trkpt>
      <trkpt lat="19.45455" lon="99.00879">
        <time>2019-09-06T07:58:48Z</time>
      </trkpt>
      <trkpt lat="19.45461" lon="99.00865">
        <time>2019-09-06T07:58:49Z</time>
      </trkpt>
      <trkpt lat="19.4547" lon="99.00853">
        <time>2019-09-06T07:58:50Z</time>
      </trkpt>
      <trkpt lat="19.45482" lon="99.00848">
        <time>2019-09-06T07:58:51Z</time>
      </trkpt>
      <trkpt lat="19.45498" lon="99.00848">
        <time>2019-09-06T07:58:52Z</time>
      </trkpt>
      <trkpt lat="19.45522" lon="99.00849">
        <time>2019-09-06T07:58:53Z</time>
      </trkpt>
      <trkpt lat="19.45541" lon="99.00847">
        <time>2019-09-06T07:58:54Z</time>
      </trkpt>
      <trkpt lat="19.45559" lon="99.00844">
        <time>2019-09-06T07:58:55Z</time>
      </trkpt>
      <trkpt lat="19.45579" lon="99.00843">
        <time>2019-09-06T07:58:56Z</time>
      </trkpt>
      <trkpt lat="19.45595" lon="99.00835">
        <time>2019-09-06T07:58:57Z</time>
      </trkpt>
      <trkpt lat="19.45613" lon="99.00829">
        <time>2019-09-06T07:58:58Z</time>
      </trkpt>
      <trkpt lat="19.45626" lon="99.0082">
        <time>2019-09-06T07:58:59Z</time>
      </trkpt>
      <trkpt lat="19.45641" lon="99.00804">
        <time>2019-09-06T07:59:00Z</time>
      </trkpt>
      <trkpt lat="19.45647" lon="99.0079">
        <time>2019-09-06T07:59:01Z</time>
      </trkpt>
      <trkpt lat="19.45657" lon="99.00777">
        <time>2019-09-06T07:59:02Z</time>
      </trkpt>
      <trkpt lat="19.45658" lon="99.00762">
        <time>2019-09-06T07:59:03Z</time>
      </trkpt>
      <trkpt lat="19.45656" lon="99.0075">
        <time>2019-09-06T07:59:04Z</time>
      </trkpt>
      <trkpt lat="19.45663" lon="99.00731">
        <time>2019-09-06T07:59:05Z</time>
      </trkpt>
      <trkpt lat="19.45649" lon="99.00704">
        <time>2019-09-06T07:59:06Z</time>
      </trkpt>
      <trkpt lat="19.45622" lon="99.00681">
        <time>2019-09-06T07:59:07Z</time>
      </trkpt>
      <trkpt lat="19.45614" lon="99.00659">
        <time>2019-09-06T07:59:08Z</time>
      </trkpt>
      <trkpt lat="19.45601" lon="99.00639">
        <time>2019-09-06T07:59:09Z</time>
      </trkpt>
      <trkpt lat="19.45591" lon="99.00617">
        <time>2019-09-06T07:59:10Z</time>
      </trkpt>
      <trkpt lat="19.4558" lon="99.00595">
        <time>2019-09-06T07:59:11Z</time>
      </trkpt>
      <trkpt lat="19.45569" lon="99.00573">
        <time>2019-09-06T07:59:12Z</time>
      </trkpt>
      <trkpt lat="19.4556" lon="99.00549">
        <time>2019-09-06T07:59:13Z</time>
      </trkpt>
      <trkpt lat="19.45551" lon="99.00527">
        <time>2019-09-06T07:59:14Z</time>
      </trkpt>
      <trkpt lat="19.45543" lon="99.00502">
        <time>2019-09-06T07:59:15Z</time>
      </trkpt>
      <trkpt lat="19.45534" lon="99.0048">
        <time>2019-09-06T07:59:16Z</time>
      </trkpt>
      <trkpt lat="19.45526" lon="99.00453">
        <time>2019-09-06T07:59:17Z</time>
      </trkpt>
      <trkpt lat="19.45518" lon="99.00426">
        <time>2019-09-06T07:59:18Z</time>
      </trkpt>
      <trkpt lat="19.45507" lon="99.00398">
        <time>2019-09-06T07:59:19Z</time>
      </trkpt>
      <trkpt lat="19.45502" lon="99.00374">
        <time>2019-09-06T07:59:20Z</time>
      </trkpt>
      <trkpt lat="19.45496" lon="99.00349">
        <time>2019-09-06T07:59:21Z</time>
      </trkpt>
      <trkpt lat="19.45491" lon="99.00325">
        <time>2019-09-06T07:59:22Z</time>
      </trkpt>
      <trkpt lat="19.45482" lon="99.00301">
        <time>2019-09-06T07:59:23Z</time>
      </trkpt>
      <trkpt lat="19.45478" lon="99.00278">
        <time>2019-09-06T07:59:24Z</time>
      </trkpt>
      <trkpt lat="19.45475" lon="99.00255">
        <time>2019-09-06T07:59:25Z</time>
      </trkpt>
      <trkpt lat="19.45471" lon="99.00232">
        <time>2019-09-06T07:59:26Z</time>
      </trkpt>
      <trkpt lat="19.45476" lon="99.00204">
        <time>2019-09-06T07:59:27Z</time>
      </trkpt>
      <trkpt lat="19.45477" lon="99.00178">
        <time>2019-09-06T07:59:28Z</time>
      </trkpt>
      <trkpt lat="19.45481" lon="99.00149">
        <time>2019-09-06T07:59:29Z</time>
      </trkpt>
      <trkpt lat="19.45482" lon="99.00122">
        <time>2019-09-06T07:59:30Z</time>
      </trkpt>
      <trkpt lat="19.45486" lon="99.00096">
        <time>2019-09-06T07:59:31Z</time>
      </trkpt>
      <trkpt lat="19.45489" lon="99.00071">
        <time>2019-09-06T07:59:32Z</time>
      </trkpt>
      <trkpt lat="19.45493" lon="99.00051">
        <time>2019-09-06T07:59:33Z</time>
      </trkpt>
      <trkpt lat="19.45496" lon="99.00029">
        <time>2019-09-06T07:59:34Z</time>
      </trkpt>
      <trkpt lat="19.45501" lon="99.0001">
        <time>2019-09-06T07:59:35Z</time>
      </trkpt>
      <trkpt lat="19.45509" lon="98.9999">
        <time>2019-09-06T07:59:36Z</time>
      </trkpt>
      <trkpt lat="19.4552" lon="98.99973">
        <time>2019-09-06T07:59:37Z</time>
      </trkpt>
      <trkpt lat="19.45534" lon="98.99961">
        <time>2019-09-06T07:59:38Z</time>
      </trkpt>
      <trkpt lat="19.45547" lon="98.99948">
        <time>2019-09-06T07:59:39Z</time>
      </trkpt>
      <trkpt lat="19.45565" lon="98.99929">
        <time>2019-09-06T07:59:40Z</time>
      </trkpt>
      <trkpt lat="19.4558" lon="98.99912">
        <time>2019-09-06T07:59:41Z</time>
      </trkpt>
      <trkpt lat="19.45597" lon="98.99896">
        <time>2019-09-06T07:59:42Z</time>
      </trkpt>
      <trkpt lat="19.45613" lon="98.9988">
        <time>2019-09-06T07:59:43Z</time>
      </trkpt>
      <trkpt lat="19.4563" lon="98.99866">
        <time>2019-09-06T07:59:44Z</time>
      </trkpt>
      <trkpt lat="19.45651" lon="98.9985">
        <time>2019-09-06T07:59:45Z</time>
      </trkpt>
      <trkpt lat="19.45667" lon="98.99837">
        <time>2019-09-06T07:59:46Z</time>
      </trkpt>
      <trkpt lat="19.45682" lon="98.99822">
        <time>2019-09-06T07:59:47Z</time>
      </trkpt>
      <trkpt lat="19.457" lon="98.9981">
        <time>2019-09-06T07:59:48Z</time>
      </trkpt>
      <trkpt lat="19.45716" lon="98.99799">
        <time>2019-09-06T07:59:49Z</time>
      </trkpt>
      <trkpt lat="19.4573" lon="98.99788">
        <time>2019-09-06T07:59:50Z</time>
      </trkpt>
      <trkpt lat="19.45748" lon="98.99777">
        <time>2019-09-06T07:59:51Z</time>
      </trkpt>
      <trkpt lat="19.45765" lon="98.99767">
        <time>2019-09-06T07:59:52Z</time>
      </trkpt>
      <trkpt lat="19.45788" lon="98.99776">
        <time>2019-09-06T07:59:53Z</time>
      </trkpt>
      <trkpt lat="19.45804" lon="98.99778">
        <time>2019-09-06T07:59:54Z</time>
      </trkpt>
      <trkpt lat="19.45819" lon="98.99775">
        <time>2019-09-06T07:59:55Z</time>
      </trkpt>
      <trkpt lat="19.45836" lon="98.99767">
        <time>2019-09-06T07:59:56Z</time>
      </trkpt>
      <trkpt lat="19.4585" lon="98.99766">
        <time>2019-09-06T07:59:57Z</time>
      </trkpt>
      <trkpt lat="19.45867" lon="98.99761">
        <time>2019-09-06T07:59:58Z</time>
      </trkpt>
      <trkpt lat="19.45885" lon="98.99756">
        <time>2019-09-06T07:59:59Z</time>
      </trkpt>
      <trkpt lat="19.45895" lon="98.99747">
        <time>2019-09-06T08:00:00Z</time>
      </trkpt>
      <trkpt lat="19.45903" lon="98.99734">
        <time>2019-09-06T08:00:01Z</time>
      </trkpt>
      <trkpt lat="19.45906" lon="98.99709">
        <time>2019-09-06T08:00:02Z</time>
      </trkpt>
      <trkpt lat="19.45899" lon="98.99678">
        <time>2019-09-06T08:00:03Z</time>
      </trkpt>
      <trkpt lat="19.45899" lon="98.99655">
        <time>2019-09-06T08:00:04Z</time>
      </trkpt>
      <trkpt lat="19.45904" lon="98.99636">
        <time>2019-09-06T08:00:05Z</time>
      </trkpt>
      <trkpt lat="19.45899" lon="98.99623">
        <time>2019-09-06T08:00:06Z</time>
      </trkpt>
      <trkpt lat="19.45894" lon="98.99609">
        <time>2019-09-06T08:00:07Z</time>
      </trkpt>
      <trkpt lat="19.45889" lon="98.99595">
        <time>2019-09-06T08:00:08Z</time>
      </trkpt>
      <trkpt lat="19.45882" lon="98.9958">
        <time>2019-09-06T08:00:09Z</time>
      </trkpt>
      <trkpt lat="19.45869" lon="98.99567">
        <time>2019-09-06T08:00:10Z</time>
      </trkpt>
      <trkpt lat="19.45844" lon="98.99553">
        <time>2019-09-06T08:00:11Z</time>
      </trkpt>
      <trkpt lat="19.45827" lon="98.99543">
        <time>2019-09-06T08:00:12Z</time>
      </trkpt>
      <trkpt lat="19.45812" lon="98.99533">
        <time>2019-09-06T08:00:13Z</time>
      </trkpt>
      <trkpt lat="19.45797" lon="98.9952">
        <time>2019-09-06T08:00:14Z</time>
      </trkpt>
      <trkpt lat="19.45785" lon="98.99505">
        <time>2019-09-06T08:00:15Z</time>
      </trkpt>
      <trkpt lat="19.45772" lon="98.99493">
        <time>2019-09-06T08:00:16Z</time>
      </trkpt>
      <trkpt lat="19.45772" lon="98.99484">
        <time>2019-09-06T08:00:18Z</time>
      </trkpt>
      <trkpt lat="19.45763" lon="98.99477">
        <time>2019-09-06T08:00:18Z</time>
      </trkpt>
      <trkpt lat="19.45769" lon="98.99468">
        <time>2019-09-06T08:00:19Z</time>
      </trkpt>
      <trkpt lat="19.4577" lon="98.99464">
        <time>2019-09-06T08:00:20Z</time>
      </trkpt>
      <trkpt lat="19.45775" lon="98.99458">
        <time>2019-09-06T08:00:21Z</time>
      </trkpt>
      <trkpt lat="19.45793" lon="98.99451">
        <time>2019-09-06T08:00:22Z</time>
      </trkpt>
      <trkpt lat="19.45804" lon="98.99446">
        <time>2019-09-06T08:00:23Z</time>
      </trkpt>
      <trkpt lat="19.45812" lon="98.99439">
        <time>2019-09-06T08:00:24Z</time>
      </trkpt>
      <trkpt lat="19.45826" lon="98.99432">
        <time>2019-09-06T08:00:25Z</time>
      </trkpt>
      <trkpt lat="19.45842" lon="98.99422">
        <time>2019-09-06T08:00:26Z</time>
      </trkpt>
      <trkpt lat="19.45856" lon="98.99414">
        <time>2019-09-06T08:00:27Z</time>
      </trkpt>
      <trkpt lat="19.45867" lon="98.99407">
        <time>2019-09-06T08:00:28Z</time>
      </trkpt>
      <trkpt lat="19.45879" lon="98.99399">
        <time>2019-09-06T08:00:29Z</time>
      </trkpt>
      <trkpt lat="19.4589" lon="98.99393">
        <time>2019-09-06T08:00:30Z</time>
      </trkpt>
      <trkpt lat="19.45895" lon="98.99389">
        <time>2019-09-06T08:00:31Z</time>
      </trkpt>
      <trkpt lat="19.45904" lon="98.99385">
        <time>2019-09-06T08:00:32Z</time>
      </trkpt>
      <trkpt lat="19.45908" lon="98.9938">
        <time>2019-09-06T08:00:33Z</time>
      </trkpt>
      <trkpt lat="19.45911" lon="98.99373">
        <time>2019-09-06T08:00:34Z</time>
      </trkpt>
      <trkpt lat="19.45911" lon="98.99362">
        <time>2019-09-06T08:00:35Z</time>
      </trkpt>
      <trkpt lat="19.45895" lon="98.99352">
        <time>2019-09-06T08:00:36Z</time>
      </trkpt>
      <trkpt lat="19.45889" lon="98.99342">
        <time>2019-09-06T08:00:37Z</time>
      </trkpt>
      <trkpt lat="19.45882" lon="98.9933">
        <time>2019-09-06T08:00:38Z</time>
      </trkpt>
      <trkpt lat="19.45876" lon="98.99319">
        <time>2019-09-06T08:00:39Z</time>
      </trkpt>
      <trkpt lat="19.45869" lon="98.99308">
        <time>2019-09-06T08:00:40Z</time>
      </trkpt>
      <trkpt lat="19.45862" lon="98.99293">
        <time>2019-09-06T08:00:41Z</time>
      </trkpt>
      <trkpt lat="19.45851" lon="98.9928">
        <time>2019-09-06T08:00:42Z</time>
      </trkpt>
      <trkpt lat="19.45841" lon="98.99266">
        <time>2019-09-06T08:00:43Z</time>
      </trkpt>
      <trkpt lat="19.45827" lon="98.99251">
        <time>2019-09-06T08:00:44Z</time>
      </trkpt>
      <trkpt lat="19.45814" lon="98.99234">
        <time>2019-09-06T08:00:45Z</time>
      </trkpt>
      <trkpt lat="19.45799" lon="98.99215">
        <time>2019-09-06T08:00:46Z</time>
      </trkpt>
      <trkpt lat="19.45786" lon="98.99197">
        <time>2019-09-06T08:00:47Z</time>
      </trkpt>
      <trkpt lat="19.45773" lon="98.99179">
        <time>2019-09-06T08:00:48Z</time>
      </trkpt>
      <trkpt lat="19.4576" lon="98.9916">
        <time>2019-09-06T08:00:49Z</time>
      </trkpt>
      <trkpt lat="19.45748" lon="98.99145">
        <time>2019-09-06T08:00:50Z</time>
      </trkpt>
      <trkpt lat="19.45737" lon="98.99131">
        <time>2019-09-06T08:00:51Z</time>
      </trkpt>
      <trkpt lat="19.45726" lon="98.99123">
        <time>2019-09-06T08:00:52Z</time>
      </trkpt>
      <trkpt lat="19.45712" lon="98.99116">
        <time>2019-09-06T08:00:53Z</time>
      </trkpt>
      <trkpt lat="19.45699" lon="98.9911">
        <time>2019-09-06T08:00:54Z</time>
      </trkpt>
      <trkpt lat="19.45684" lon="98.99108">
        <time>2019-09-06T08:00:55Z</time>
      </trkpt>
      <trkpt lat="19.45672" lon="98.99106">
        <time>2019-09-06T08:00:56Z</time>
      </trkpt>
      <trkpt lat="19.4566" lon="98.99107">
        <time>2019-09-06T08:00:57Z</time>
      </trkpt>
      <trkpt lat="19.45649" lon="98.99112">
        <time>2019-09-06T08:00:58Z</time>
      </trkpt>
      <trkpt lat="19.45632" lon="98.99136">
        <time>2019-09-06T08:00:59Z</time>
      </trkpt>
      <trkpt lat="19.4562" lon="98.99152">
        <time>2019-09-06T08:01:00Z</time>
      </trkpt>
      <trkpt lat="19.45607" lon="98.99164">
        <time>2019-09-06T08:01:01Z</time>
      </trkpt>
      <trkpt lat="19.45592" lon="98.99183">
        <time>2019-09-06T08:01:02Z</time>
      </trkpt>
      <trkpt lat="19.45577" lon="98.99201">
        <time>2019-09-06T08:01:03Z</time>
      </trkpt>
      <trkpt lat="19.45563" lon="98.99217">
        <time>2019-09-06T08:01:04Z</time>
      </trkpt>
      <trkpt lat="19.45547" lon="98.99233">
        <time>2019-09-06T08:01:05Z</time>
      </trkpt>
      <trkpt lat="19.45539" lon="98.9925">
        <time>2019-09-06T08:01:06Z</time>
      </trkpt>
      <trkpt lat="19.45526" lon="98.99258">
        <time>2019-09-06T08:01:07Z</time>
      </trkpt>
      <trkpt lat="19.45509" lon="98.9927">
        <time>2019-09-06T08:01:08Z</time>
      </trkpt>
      <trkpt lat="19.45493" lon="98.99283">
        <time>2019-09-06T08:01:09Z</time>
      </trkpt>
      <trkpt lat="19.45473" lon="98.99275">
        <time>2019-09-06T08:01:10Z</time>
      </trkpt>
      <trkpt lat="19.45461" lon="98.99282">
        <time>2019-09-06T08:01:11Z</time>
      </trkpt>
      <trkpt lat="19.45446" lon="98.99286">
        <time>2019-09-06T08:01:12Z</time>
      </trkpt>
      <trkpt lat="19.45428" lon="98.99281">
        <time>2019-09-06T08:01:13Z</time>
      </trkpt>
      <trkpt lat="19.45412" lon="98.99273">
        <time>2019-09-06T08:01:14Z</time>
      </trkpt>
      <trkpt lat="19.45405" lon="98.99246">
        <time>2019-09-06T08:01:15Z</time>
      </trkpt>
      <trkpt lat="19.45395" lon="98.99232">
        <time>2019-09-06T08:01:16Z</time>
      </trkpt>
      <trkpt lat="19.45389" lon="98.99211">
        <time>2019-09-06T08:01:17Z</time>
      </trkpt>
      <trkpt lat="19.45379" lon="98.99182">
        <time>2019-09-06T08:01:18Z</time>
      </trkpt>
      <trkpt lat="19.45366" lon="98.99161">
        <time>2019-09-06T08:01:19Z</time>
      </trkpt>
      <trkpt lat="19.45356" lon="98.99142">
        <time>2019-09-06T08:01:20Z</time>
      </trkpt>
      <trkpt lat="19.45344" lon="98.99121">
        <time>2019-09-06T08:01:21Z</time>
      </trkpt>
      <trkpt lat="19.45331" lon="98.99101">
        <time>2019-09-06T08:01:22Z</time>
      </trkpt>
      <trkpt lat="19.45318" lon="98.99082">
        <time>2019-09-06T08:01:23Z</time>
      </trkpt>
      <trkpt lat="19.45305" lon="98.9906">
        <time>2019-09-06T08:01:24Z</time>
      </trkpt>
      <trkpt lat="19.45292" lon="98.99038">
        <time>2019-09-06T08:01:25Z</time>
      </trkpt>
      <trkpt lat="19.4528" lon="98.99018">
        <time>2019-09-06T08:01:26Z</time>
      </trkpt>
      <trkpt lat="19.45268" lon="98.98996">
        <time>2019-09-06T08:01:27Z</time>
      </trkpt>
      <trkpt lat="19.45254" lon="98.98975">
        <time>2019-09-06T08:01:28Z</time>
      </trkpt>
      <trkpt lat="19.45241" lon="98.98954">
        <time>2019-09-06T08:01:29Z</time>
      </trkpt>
      <trkpt lat="19.45229" lon="98.98934">
        <time>2019-09-06T08:01:30Z</time>
      </trkpt>
      <trkpt lat="19.45218" lon="98.98913">
        <time>2019-09-06T08:01:31Z</time>
      </trkpt>
      <trkpt lat="19.45205" lon="98.98892">
        <time>2019-09-06T08:01:32Z</time>
      </trkpt>
      <trkpt lat="19.45191" lon="98.98871">
        <time>2019-09-06T08:01:33Z</time>
      </trkpt>
      <trkpt lat="19.45177" lon="98.98854">
        <time>2019-09-06T08:01:34Z</time>
      </trkpt>
      <trkpt lat="19.45162" lon="98.98838">
        <time>2019-09-06T08:01:35Z</time>
      </trkpt>
      <trkpt lat="19.45145" lon="98.98821">
        <time>2019-09-06T08:01:37Z</time>
      </trkpt>
      <trkpt lat="19.4513" lon="98.98807">
        <time>2019-09-06T08:01:37Z</time>
      </trkpt>
      <trkpt lat="19.45114" lon="98.98791">
        <time>2019-09-06T08:01:38Z</time>
      </trkpt>
      <trkpt lat="19.45096" lon="98.98778">
        <time>2019-09-06T08:01:39Z</time>
      </trkpt>
      <trkpt lat="19.45077" lon="98.98762">
        <time>2019-09-06T08:01:40Z</time>
      </trkpt>
      <trkpt lat="19.45059" lon="98.98748">
        <time>2019-09-06T08:01:41Z</time>
      </trkpt>
      <trkpt lat="19.45041" lon="98.98733">
        <time>2019-09-06T08:01:42Z</time>
      </trkpt>
      <trkpt lat="19.45025" lon="98.98717">
        <time>2019-09-06T08:01:43Z</time>
      </trkpt>
      <trkpt lat="19.45013" lon="98.987">
        <time>2019-09-06T08:01:44Z</time>
      </trkpt>
      <trkpt lat="19.45" lon="98.98683">
        <time>2019-09-06T08:01:45Z</time>
      </trkpt>
      <trkpt lat="19.44985" lon="98.98667">
        <time>2019-09-06T08:01:46Z</time>
      </trkpt>
      <trkpt lat="19.44972" lon="98.98652">
        <time>2019-09-06T08:01:47Z</time>
      </trkpt>
      <trkpt lat="19.44961" lon="98.98634">
        <time>2019-09-06T08:01:48Z</time>
      </trkpt>
      <trkpt lat="19.4495" lon="98.9862">
        <time>2019-09-06T08:01:49Z</time>
      </trkpt>
      <trkpt lat="19.44939" lon="98.98603">
        <time>2019-09-06T08:01:50Z</time>
      </trkpt>
      <trkpt lat="19.4493" lon="98.98583">
        <time>2019-09-06T08:01:51Z</time>
      </trkpt>
      <trkpt lat="19.44924" lon="98.98563">
        <time>2019-09-06T08:01:52Z</time>
      </trkpt>
      <trkpt lat="19.44918" lon="98.98544">
        <time>2019-09-06T08:01:53Z</time>
      </trkpt>
      <trkpt lat="19.44917" lon="98.98519">
        <time>2019-09-06T08:01:54Z</time>
      </trkpt>
      <trkpt lat="19.44912" lon="98.98493">
        <time>2019-09-06T08:01:55Z</time>
      </trkpt>
      <trkpt lat="19.44905" lon="98.9847">
        <time>2019-09-06T08:01:56Z</time>
      </trkpt>
      <trkpt lat="19.44897" lon="98.98444">
        <time>2019-09-06T08:01:57Z</time>
      </trkpt>
      <trkpt lat="19.44892" lon="98.98418">
        <time>2019-09-06T08:01:58Z</time>
      </trkpt>
      <trkpt lat="19.44887" lon="98.984">
        <time>2019-09-06T08:01:59Z</time>
      </trkpt>
      <trkpt lat="19.44881" lon="98.98381">
        <time>2019-09-06T08:02:00Z</time>
      </trkpt>
      <trkpt lat="19.44873" lon="98.98362">
        <time>2019-09-06T08:02:01Z</time>
      </trkpt>
      <trkpt lat="19.44865" lon="98.98347">
        <time>2019-09-06T08:02:02Z</time>
      </trkpt>
      <trkpt lat="19.44854" lon="98.98335">
        <time>2019-09-06T08:02:03Z</time>
      </trkpt>
      <trkpt lat="19.44837" lon="98.98328">
        <time>2019-09-06T08:02:04Z</time>
      </trkpt>
      <trkpt lat="19.44821" lon="98.9832">
        <time>2019-09-06T08:02:05Z</time>
      </trkpt>
      <trkpt lat="19.44804" lon="98.98312">
        <time>2019-09-06T08:02:06Z</time>
      </trkpt>
      <trkpt lat="19.44786" lon="98.98306">
        <time>2019-09-06T08:02:07Z</time>
      </trkpt>
      <trkpt lat="19.4477" lon="98.98298">
        <time>2019-09-06T08:02:08Z</time>
      </trkpt>
      <trkpt lat="19.44753" lon="98.9829">
        <time>2019-09-06T08:02:09Z</time>
      </trkpt>
      <trkpt lat="19.44735" lon="98.98279">
        <time>2019-09-06T08:02:10Z</time>
      </trkpt>
      <trkpt lat="19.44715" lon="98.9827">
        <time>2019-09-06T08:02:11Z</time>
      </trkpt>
      <trkpt lat="19.44694" lon="98.98263">
        <time>2019-09-06T08:02:12Z</time>
      </trkpt>
      <trkpt lat="19.44677" lon="98.98257">
        <time>2019-09-06T08:02:13Z</time>
      </trkpt>
      <trkpt lat="19.44661" lon="98.98249">
        <time>2019-09-06T08:02:14Z</time>
      </trkpt>
      <trkpt lat="19.44646" lon="98.98241">
        <time>2019-09-06T08:02:15Z</time>
      </trkpt>
      <trkpt lat="19.4463" lon="98.98239">
        <time>2019-09-06T08:02:16Z</time>
      </trkpt>
      <trkpt lat="19.4462" lon="98.98235">
        <time>2019-09-06T08:02:17Z</time>
      </trkpt>
      <trkpt lat="19.44611" lon="98.98231">
        <time>2019-09-06T08:02:18Z</time>
      </trkpt>
      <trkpt lat="19.44601" lon="98.98229">
        <time>2019-09-06T08:02:19Z</time>
      </trkpt>
      <trkpt lat="19.44586" lon="98.98225">
        <time>2019-09-06T08:02:20Z</time>
      </trkpt>
      <trkpt lat="19.44569" lon="98.9822">
        <time>2019-09-06T08:02:21Z</time>
      </trkpt>
      <trkpt lat="19.44553" lon="98.98216">
        <time>2019-09-06T08:02:22Z</time>
      </trkpt>
      <trkpt lat="19.4454" lon="98.98211">
        <time>2019-09-06T08:02:23Z</time>
      </trkpt>
      <trkpt lat="19.44524" lon="98.98208">
        <time>2019-09-06T08:02:24Z</time>
      </trkpt>
      <trkpt lat="19.44506" lon="98.98208">
        <time>2019-09-06T08:02:25Z</time>
      </trkpt>
      <trkpt lat="19.44482" lon="98.98208">
        <time>2019-09-06T08:02:26Z</time>
      </trkpt>
      <trkpt lat="19.44464" lon="98.9821">
        <time>2019-09-06T08:02:27Z</time>
      </trkpt>
      <trkpt lat="19.44444" lon="98.98214">
        <time>2019-09-06T08:02:28Z</time>
      </trkpt>
      <trkpt lat="19.44418" lon="98.98211">
        <time>2019-09-06T08:02:29Z</time>
      </trkpt>
      <trkpt lat="19.44392" lon="98.98208">
        <time>2019-09-06T08:02:30Z</time>
      </trkpt>
      <trkpt lat="19.44371" lon="98.98208">
        <time>2019-09-06T08:02:31Z</time>
      </trkpt>
      <trkpt lat="19.44342" lon="98.98205">
        <time>2019-09-06T08:02:32Z</time>
      </trkpt>
      <trkpt lat="19.4432" lon="98.98202">
        <time>2019-09-06T08:02:33Z</time>
      </trkpt>
      <trkpt lat="19.44293" lon="98.98198">
        <time>2019-09-06T08:02:34Z</time>
      </trkpt>
      <trkpt lat="19.4427" lon="98.982">
        <time>2019-09-06T08:02:35Z</time>
      </trkpt>
      <trkpt lat="19.44237" lon="98.9821">
        <time>2019-09-06T08:02:36Z</time>
      </trkpt>
      <trkpt lat="19.44205" lon="98.98207">
        <time>2019-09-06T08:02:37Z</time>
      </trkpt>
      <trkpt lat="19.44185" lon="98.98205">
        <time>2019-09-06T08:02:38Z</time>
      </trkpt>
      <trkpt lat="19.44163" lon="98.98207">
        <time>2019-09-06T08:02:39Z</time>
      </trkpt>
      <trkpt lat="19.44144" lon="98.98203">
        <time>2019-09-06T08:02:40Z</time>
      </trkpt>
      <trkpt lat="19.44121" lon="98.98199">
        <time>2019-09-06T08:02:41Z</time>
      </trkpt>
      <trkpt lat="19.441" lon="98.98192">
        <time>2019-09-06T08:02:42Z</time>
      </trkpt>
      <trkpt lat="19.4408" lon="98.98188">
        <time>2019-09-06T08:02:43Z</time>
      </trkpt>
      <trkpt lat="19.44062" lon="98.98183">
        <time>2019-09-06T08:02:44Z</time>
      </trkpt>
      <trkpt lat="19.44043" lon="98.98173">
        <time>2019-09-06T08:02:45Z</time>
      </trkpt>
      <trkpt lat="19.44026" lon="98.98163">
        <time>2019-09-06T08:02:46Z</time>
      </trkpt>
      <trkpt lat="19.44006" lon="98.98151">
        <time>2019-09-06T08:02:47Z</time>
      </trkpt>
      <trkpt lat="19.43982" lon="98.98146">
        <time>2019-09-06T08:02:48Z</time>
      </trkpt>
      <trkpt lat="19.43966" lon="98.98143">
        <time>2019-09-06T08:02:49Z</time>
      </trkpt>
      <trkpt lat="19.43945" lon="98.98151">
        <time>2019-09-06T08:02:50Z</time>
      </trkpt>
      <trkpt lat="19.43921" lon="98.98149">
        <time>2019-09-06T08:02:51Z</time>
      </trkpt>
      <trkpt lat="19.43898" lon="98.98152">
        <time>2019-09-06T08:02:52Z</time>
      </trkpt>
      <trkpt lat="19.43876" lon="98.98155">
        <time>2019-09-06T08:02:53Z</time>
      </trkpt>
      <trkpt lat="19.43858" lon="98.98163">
        <time>2019-09-06T08:02:54Z</time>
      </trkpt>
      <trkpt lat="19.43839" lon="98.98169">
        <time>2019-09-06T08:02:55Z</time>
      </trkpt>
      <trkpt lat="19.43818" lon="98.98175">
        <time>2019-09-06T08:02:56Z</time>
      </trkpt>
      <trkpt lat="19.43796" lon="98.98179">
        <time>2019-09-06T08:02:57Z</time>
      </trkpt>
      <trkpt lat="19.43781" lon="98.98187">
        <time>2019-09-06T08:02:58Z</time>
      </trkpt>
      <trkpt lat="19.43763" lon="98.98193">
        <time>2019-09-06T08:02:59Z</time>
      </trkpt>
      <trkpt lat="19.43747" lon="98.98196">
        <time>2019-09-06T08:03:00Z</time>
      </trkpt>
      <trkpt lat="19.43733" lon="98.98203">
        <time>2019-09-06T08:03:01Z</time>
      </trkpt>
      <trkpt lat="19.43718" lon="98.98209">
        <time>2019-09-06T08:03:02Z</time>
      </trkpt>
      <trkpt lat="19.43702" lon="98.98214">
        <time>2019-09-06T08:03:03Z</time>
      </trkpt>
      <trkpt lat="19.43689" lon="98.98218">
        <time>2019-09-06T08:03:04Z</time>
      </trkpt>
      <trkpt lat="19.43675" lon="98.98222">
        <time>2019-09-06T08:03:05Z</time>
      </trkpt>
      <trkpt lat="19.43663" lon="98.98223">
        <time>2019-09-06T08:03:06Z</time>
      </trkpt>
      <trkpt lat="19.43653" lon="98.98228">
        <time>2019-09-06T08:03:07Z</time>
      </trkpt>
      <trkpt lat="19.43644" lon="98.98234">
        <time>2019-09-06T08:03:08Z</time>
      </trkpt>
      <trkpt lat="19.43632" lon="98.98239">
        <time>2019-09-06T08:03:09Z</time>
      </trkpt>
      <trkpt lat="19.43622" lon="98.98247">
        <time>2019-09-06T08:03:10Z</time>
      </trkpt>
      <trkpt lat="19.43613" lon="98.98254">
        <time>2019-09-06T08:03:11Z</time>
      </trkpt>
      <trkpt lat="19.43601" lon="98.98261">
        <time>2019-09-06T08:03:12Z</time>
      </trkpt>
      <trkpt lat="19.43589" lon="98.98271">
        <time>2019-09-06T08:03:13Z</time>
      </trkpt>
      <trkpt lat="19.4358" lon="98.98283">
        <time>2019-09-06T08:03:14Z</time>
      </trkpt>
      <trkpt lat="19.43571" lon="98.98292">
        <time>2019-09-06T08:03:15Z</time>
      </trkpt>
      <trkpt lat="19.43565" lon="98.98299">
        <time>2019-09-06T08:03:16Z</time>
      </trkpt>
      <trkpt lat="19.43552" lon="98.98301">
        <time>2019-09-06T08:03:17Z</time>
      </trkpt>
      <trkpt lat="19.43539" lon="98.98306">
        <time>2019-09-06T08:03:18Z</time>
      </trkpt>
      <trkpt lat="19.43536" lon="98.98307">
        <time>2019-09-06T08:03:19Z</time>
      </trkpt>
      <trkpt lat="19.43531" lon="98.98312">
        <time>2019-09-06T08:03:20Z</time>
      </trkpt>
      <trkpt lat="19.43517" lon="98.98301">
        <time>2019-09-06T08:03:21Z</time>
      </trkpt>
      <trkpt lat="19.43509" lon="98.98282">
        <time>2019-09-06T08:03:22Z</time>
      </trkpt>
      <trkpt lat="19.43506" lon="98.98254">
        <time>2019-09-06T08:03:23Z</time>
      </trkpt>
      <trkpt lat="19.43492" lon="98.98204">
        <time>2019-09-06T08:03:27Z</time>
      </trkpt>
      <trkpt lat="19.43483" lon="98.98187">
        <time>2019-09-06T08:03:27Z</time>
      </trkpt>
      <trkpt lat="19.43464" lon="98.98178">
        <time>2019-09-06T08:03:28Z</time>
      </trkpt>
      <trkpt lat="19.43451" lon="98.98165">
        <time>2019-09-06T08:03:29Z</time>
      </trkpt>
      <trkpt lat="19.43439" lon="98.98152">
        <time>2019-09-06T08:03:30Z</time>
      </trkpt>
      <trkpt lat="19.43429" lon="98.98141">
        <time>2019-09-06T08:03:31Z</time>
      </trkpt>
      <trkpt lat="19.43418" lon="98.98131">
        <time>2019-09-06T08:03:32Z</time>
      </trkpt>
      <trkpt lat="19.43409" lon="98.9812">
        <time>2019-09-06T08:03:33Z</time>
      </trkpt>
      <trkpt lat="19.434" lon="98.98109">
        <time>2019-09-06T08:03:34Z</time>
      </trkpt>
      <trkpt lat="19.43394" lon="98.981">
        <time>2019-09-06T08:03:35Z</time>
      </trkpt>
      <trkpt lat="19.43381" lon="98.98092">
        <time>2019-09-06T08:03:36Z</time>
      </trkpt>
      <trkpt lat="19.43368" lon="98.98081">
        <time>2019-09-06T08:03:37Z</time>
      </trkpt>
      <trkpt lat="19.43352" lon="98.9807">
        <time>2019-09-06T08:03:38Z</time>
      </trkpt>
      <trkpt lat="19.43338" lon="98.98056">
        <time>2019-09-06T08:03:39Z</time>
      </trkpt>
      <trkpt lat="19.43325" lon="98.98044">
        <time>2019-09-06T08:03:40Z</time>
      </trkpt>
      <trkpt lat="19.43313" lon="98.98031">
        <time>2019-09-06T08:03:41Z</time>
      </trkpt>
      <trkpt lat="19.43298" lon="98.98017">
        <time>2019-09-06T08:03:42Z</time>
      </trkpt>
      <trkpt lat="19.43287" lon="98.98009">
        <time>2019-09-06T08:03:43Z</time>
      </trkpt>
      <trkpt lat="19.43275" lon="98.98">
        <time>2019-09-06T08:03:44Z</time>
      </trkpt>
      <trkpt lat="19.43262" lon="98.97988">
        <time>2019-09-06T08:03:45Z</time>
      </trkpt>
      <trkpt lat="19.43248" lon="98.9798">
        <time>2019-09-06T08:03:46Z</time>
      </trkpt>
      <trkpt lat="19.43235" lon="98.97971">
        <time>2019-09-06T08:03:47Z</time>
      </trkpt>
      <trkpt lat="19.43223" lon="98.97962">
        <time>2019-09-06T08:03:48Z</time>
      </trkpt>
      <trkpt lat="19.43211" lon="98.97953">
        <time>2019-09-06T08:03:49Z</time>
      </trkpt>
      <trkpt lat="19.43198" lon="98.97947">
        <time>2019-09-06T08:03:50Z</time>
      </trkpt>
      <trkpt lat="19.43189" lon="98.97939">
        <time>2019-09-06T08:03:51Z</time>
      </trkpt>
      <trkpt lat="19.43179" lon="98.97931">
        <time>2019-09-06T08:03:52Z</time>
      </trkpt>
      <trkpt lat="19.43167" lon="98.97924">
        <time>2019-09-06T08:03:53Z</time>
      </trkpt>
      <trkpt lat="19.43156" lon="98.97917">
        <time>2019-09-06T08:03:54Z</time>
      </trkpt>
      <trkpt lat="19.43147" lon="98.97908">
        <time>2019-09-06T08:03:55Z</time>
      </trkpt>
      <trkpt lat="19.43129" lon="98.97899">
        <time>2019-09-06T08:03:56Z</time>
      </trkpt>
      <trkpt lat="19.43113" lon="98.9789">
        <time>2019-09-06T08:03:57Z</time>
      </trkpt>
      <trkpt lat="19.43093" lon="98.97882">
        <time>2019-09-06T08:03:58Z</time>
      </trkpt>
      <trkpt lat="19.43071" lon="98.97875">
        <time>2019-09-06T08:03:59Z</time>
      </trkpt>
      <trkpt lat="19.43056" lon="98.97865">
        <time>2019-09-06T08:04:00Z</time>
      </trkpt>
      <trkpt lat="19.43036" lon="98.97857">
        <time>2019-09-06T08:04:01Z</time>
      </trkpt>
      <trkpt lat="19.43015" lon="98.97851">
        <time>2019-09-06T08:04:03Z</time>
      </trkpt>
      <trkpt lat="19.42999" lon="98.97844">
        <time>2019-09-06T08:04:03Z</time>
      </trkpt>
      <trkpt lat="19.42986" lon="98.9783">
        <time>2019-09-06T08:04:04Z</time>
      </trkpt>
      <trkpt lat="19.42971" lon="98.97827">
        <time>2019-09-06T08:04:05Z</time>
      </trkpt>
      <trkpt lat="19.42953" lon="98.97818">
        <time>2019-09-06T08:04:06Z</time>
      </trkpt>
      <trkpt lat="19.42938" lon="98.97809">
        <time>2019-09-06T08:04:07Z</time>
      </trkpt>
      <trkpt lat="19.42924" lon="98.97802">
        <time>2019-09-06T08:04:08Z</time>
      </trkpt>
      <trkpt lat="19.42913" lon="98.97788">
        <time>2019-09-06T08:04:09Z</time>
      </trkpt>
      <trkpt lat="19.42901" lon="98.97776">
        <time>2019-09-06T08:04:10Z</time>
      </trkpt>
      <trkpt lat="19.4289" lon="98.97761">
        <time>2019-09-06T08:04:11Z</time>
      </trkpt>
      <trkpt lat="19.42878" lon="98.97748">
        <time>2019-09-06T08:04:12Z</time>
      </trkpt>
      <trkpt lat="19.4286" lon="98.97738">
        <time>2019-09-06T08:04:13Z</time>
      </trkpt>
      <trkpt lat="19.42843" lon="98.97728">
        <time>2019-09-06T08:04:14Z</time>
      </trkpt>
      <trkpt lat="19.42825" lon="98.97715">
        <time>2019-09-06T08:04:15Z</time>
      </trkpt>
      <trkpt lat="19.42807" lon="98.97704">
        <time>2019-09-06T08:04:16Z</time>
      </trkpt>
      <trkpt lat="19.42791" lon="98.97693">
        <time>2019-09-06T08:04:17Z</time>
      </trkpt>
      <trkpt lat="19.42776" lon="98.97679">
        <time>2019-09-06T08:04:18Z</time>
      </trkpt>
      <trkpt lat="19.4276" lon="98.97669">
        <time>2019-09-06T08:04:19Z</time>
      </trkpt>
      <trkpt lat="19.42744" lon="98.97661">
        <time>2019-09-06T08:04:20Z</time>
      </trkpt>
      <trkpt lat="19.42729" lon="98.97653">
        <time>2019-09-06T08:04:21Z</time>
      </trkpt>
      <trkpt lat="19.42715" lon="98.97644">
        <time>2019-09-06T08:04:22Z</time>
      </trkpt>
      <trkpt lat="19.42703" lon="98.97634">
        <time>2019-09-06T08:04:23Z</time>
      </trkpt>
      <trkpt lat="19.4269" lon="98.97626">
        <time>2019-09-06T08:04:24Z</time>
      </trkpt>
      <trkpt lat="19.42675" lon="98.97624">
        <time>2019-09-06T08:04:25Z</time>
      </trkpt>
      <trkpt lat="19.42668" lon="98.97619">
        <time>2019-09-06T08:04:26Z</time>
      </trkpt>
      <trkpt lat="19.42667" lon="98.97611">
        <time>2019-09-06T08:04:27Z</time>
      </trkpt>
      <trkpt lat="19.42657" lon="98.97612">
        <time>2019-09-06T08:04:28Z</time>
      </trkpt>
      <trkpt lat="19.42656" lon="98.9761">
        <time>2019-09-06T08:04:29Z</time>
      </trkpt>
      <trkpt lat="19.42657" lon="98.97605">
        <time>2019-09-06T08:04:30Z</time>
      </trkpt>
      <trkpt lat="19.42656" lon="98.97609">
        <time>2019-09-06T08:04:31Z</time>
      </trkpt>
      <trkpt lat="19.42653" lon="98.97608">
        <time>2019-09-06T08:04:32Z</time>
      </trkpt>
      <trkpt lat="19.42651" lon="98.97608">
        <time>2019-09-06T08:04:33Z</time>
      </trkpt>
      <trkpt lat="19.42654" lon="98.97606">
        <time>2019-09-06T08:05:15Z</time>
      </trkpt>
      <trkpt lat="19.4265" lon="98.97605">
        <time>2019-09-06T08:05:16Z</time>
      </trkpt>
      <trkpt lat="19.42644" lon="98.97603">
        <time>2019-09-06T08:05:17Z</time>
      </trkpt>
      <trkpt lat="19.42638" lon="98.97602">
        <time>2019-09-06T08:05:18Z</time>
      </trkpt>
      <trkpt lat="19.42626" lon="98.97599">
        <time>2019-09-06T08:05:19Z</time>
      </trkpt>
      <trkpt lat="19.42614" lon="98.97595">
        <time>2019-09-06T08:05:20Z</time>
      </trkpt>
      <trkpt lat="19.42599" lon="98.97588">
        <time>2019-09-06T08:05:21Z</time>
      </trkpt>
      <trkpt lat="19.42579" lon="98.97572">
        <time>2019-09-06T08:05:22Z</time>
      </trkpt>
      <trkpt lat="19.42562" lon="98.97562">
        <time>2019-09-06T08:05:23Z</time>
      </trkpt>
      <trkpt lat="19.42542" lon="98.97553">
        <time>2019-09-06T08:05:24Z</time>
      </trkpt>
      <trkpt lat="19.42521" lon="98.97545">
        <time>2019-09-06T08:05:25Z</time>
      </trkpt>
      <trkpt lat="19.42501" lon="98.97536">
        <time>2019-09-06T08:05:26Z</time>
      </trkpt>
      <trkpt lat="19.4248" lon="98.97527">
        <time>2019-09-06T08:05:27Z</time>
      </trkpt>
      <trkpt lat="19.42458" lon="98.97516">
        <time>2019-09-06T08:05:28Z</time>
      </trkpt>
      <trkpt lat="19.42437" lon="98.97509">
        <time>2019-09-06T08:05:29Z</time>
      </trkpt>
      <trkpt lat="19.42415" lon="98.97502">
        <time>2019-09-06T08:05:30Z</time>
      </trkpt>
      <trkpt lat="19.42392" lon="98.97492">
        <time>2019-09-06T08:05:31Z</time>
      </trkpt>
      <trkpt lat="19.42371" lon="98.97485">
        <time>2019-09-06T08:05:32Z</time>
      </trkpt>
      <trkpt lat="19.42348" lon="98.97479">
        <time>2019-09-06T08:05:33Z</time>
      </trkpt>
      <trkpt lat="19.42326" lon="98.97478">
        <time>2019-09-06T08:05:34Z</time>
      </trkpt>
      <trkpt lat="19.42304" lon="98.97465">
        <time>2019-09-06T08:05:35Z</time>
      </trkpt>
      <trkpt lat="19.42282" lon="98.97457">
        <time>2019-09-06T08:05:36Z</time>
      </trkpt>
      <trkpt lat="19.42261" lon="98.97452">
        <time>2019-09-06T08:05:37Z</time>
      </trkpt>
      <trkpt lat="19.42239" lon="98.97442">
        <time>2019-09-06T08:05:38Z</time>
      </trkpt>
      <trkpt lat="19.42218" lon="98.97431">
        <time>2019-09-06T08:05:39Z</time>
      </trkpt>
      <trkpt lat="19.42197" lon="98.97423">
        <time>2019-09-06T08:05:40Z</time>
      </trkpt>
      <trkpt lat="19.42178" lon="98.97414">
        <time>2019-09-06T08:05:41Z</time>
      </trkpt>
      <trkpt lat="19.42159" lon="98.97403">
        <time>2019-09-06T08:05:42Z</time>
      </trkpt>
      <trkpt lat="19.42141" lon="98.97391">
        <time>2019-09-06T08:05:43Z</time>
      </trkpt>
      <trkpt lat="19.42124" lon="98.97378">
        <time>2019-09-06T08:05:44Z</time>
      </trkpt>
      <trkpt lat="19.42109" lon="98.97364">
        <time>2019-09-06T08:05:45Z</time>
      </trkpt>
      <trkpt lat="19.42092" lon="98.97347">
        <time>2019-09-06T08:05:46Z</time>
      </trkpt>
      <trkpt lat="19.42078" lon="98.97332">
        <time>2019-09-06T08:05:47Z</time>
      </trkpt>
      <trkpt lat="19.42065" lon="98.97315">
        <time>2019-09-06T08:05:48Z</time>
      </trkpt>
      <trkpt lat="19.42051" lon="98.97295">
        <time>2019-09-06T08:05:49Z</time>
      </trkpt>
      <trkpt lat="19.4204" lon="98.97277">
        <time>2019-09-06T08:05:50Z</time>
      </trkpt>
      <trkpt lat="19.42031" lon="98.9725">
        <time>2019-09-06T08:05:51Z</time>
      </trkpt>
      <trkpt lat="19.42025" lon="98.9722">
        <time>2019-09-06T08:05:52Z</time>
      </trkpt>
      <trkpt lat="19.42016" lon="98.97196">
        <time>2019-09-06T08:05:53Z</time>
      </trkpt>
      <trkpt lat="19.42007" lon="98.97171">
        <time>2019-09-06T08:05:54Z</time>
      </trkpt>
      <trkpt lat="19.41998" lon="98.97148">
        <time>2019-09-06T08:05:55Z</time>
      </trkpt>
      <trkpt lat="19.41989" lon="98.97118">
        <time>2019-09-06T08:05:56Z</time>
      </trkpt>
      <trkpt lat="19.41979" lon="98.97091">
        <time>2019-09-06T08:05:57Z</time>
      </trkpt>
      <trkpt lat="19.4197" lon="98.97064">
        <time>2019-09-06T08:05:58Z</time>
      </trkpt>
      <trkpt lat="19.41964" lon="98.97036">
        <time>2019-09-06T08:05:59Z</time>
      </trkpt>
      <trkpt lat="19.41956" lon="98.97009">
        <time>2019-09-06T08:06:00Z</time>
      </trkpt>
      <trkpt lat="19.41947" lon="98.96982">
        <time>2019-09-06T08:06:01Z</time>
      </trkpt>
      <trkpt lat="19.41939" lon="98.96954">
        <time>2019-09-06T08:06:02Z</time>
      </trkpt>
      <trkpt lat="19.4193" lon="98.96927">
        <time>2019-09-06T08:06:03Z</time>
      </trkpt>
      <trkpt lat="19.41923" lon="98.969">
        <time>2019-09-06T08:06:04Z</time>
      </trkpt>
      <trkpt lat="19.41913" lon="98.96873">
        <time>2019-09-06T08:06:05Z</time>
      </trkpt>
      <trkpt lat="19.41904" lon="98.96845">
        <time>2019-09-06T08:06:06Z</time>
      </trkpt>
      <trkpt lat="19.41894" lon="98.96818">
        <time>2019-09-06T08:06:07Z</time>
      </trkpt>
      <trkpt lat="19.41885" lon="98.9679">
        <time>2019-09-06T08:06:08Z</time>
      </trkpt>
      <trkpt lat="19.41877" lon="98.96762">
        <time>2019-09-06T08:06:09Z</time>
      </trkpt>
      <trkpt lat="19.41869" lon="98.96733">
        <time>2019-09-06T08:06:10Z</time>
      </trkpt>
      <trkpt lat="19.41861" lon="98.96704">
        <time>2019-09-06T08:06:11Z</time>
      </trkpt>
      <trkpt lat="19.41852" lon="98.96676">
        <time>2019-09-06T08:06:12Z</time>
      </trkpt>
      <trkpt lat="19.41843" lon="98.96648">
        <time>2019-09-06T08:06:13Z</time>
      </trkpt>
      <trkpt lat="19.41833" lon="98.96619">
        <time>2019-09-06T08:06:14Z</time>
      </trkpt>
      <trkpt lat="19.41823" lon="98.96592">
        <time>2019-09-06T08:06:15Z</time>
      </trkpt>
      <trkpt lat="19.41814" lon="98.96564">
        <time>2019-09-06T08:06:16Z</time>
      </trkpt>
      <trkpt lat="19.41805" lon="98.96536">
        <time>2019-09-06T08:06:17Z</time>
      </trkpt>
      <trkpt lat="19.41797" lon="98.96509">
        <time>2019-09-06T08:06:18Z</time>
      </trkpt>
      <trkpt lat="19.41787" lon="98.96482">
        <time>2019-09-06T08:06:19Z</time>
      </trkpt>
      <trkpt lat="19.41778" lon="98.96455">
        <time>2019-09-06T08:06:20Z</time>
      </trkpt>
      <trkpt lat="19.41768" lon="98.9643">
        <time>2019-09-06T08:06:21Z</time>
      </trkpt>
      <trkpt lat="19.41757" lon="98.96405">
        <time>2019-09-06T08:06:22Z</time>
      </trkpt>
      <trkpt lat="19.41745" lon="98.96381">
        <time>2019-09-06T08:06:23Z</time>
      </trkpt>
      <trkpt lat="19.41732" lon="98.96357">
        <time>2019-09-06T08:06:24Z</time>
      </trkpt>
      <trkpt lat="19.41718" lon="98.96334">
        <time>2019-09-06T08:06:25Z</time>
      </trkpt>
      <trkpt lat="19.41704" lon="98.96312">
        <time>2019-09-06T08:06:26Z</time>
      </trkpt>
      <trkpt lat="19.41688" lon="98.96292">
        <time>2019-09-06T08:06:27Z</time>
      </trkpt>
      <trkpt lat="19.41672" lon="98.96272">
        <time>2019-09-06T08:06:28Z</time>
      </trkpt>
      <trkpt lat="19.41656" lon="98.96254">
        <time>2019-09-06T08:06:29Z</time>
      </trkpt>
      <trkpt lat="19.41639" lon="98.96235">
        <time>2019-09-06T08:06:30Z</time>
      </trkpt>
      <trkpt lat="19.41621" lon="98.96217">
        <time>2019-09-06T08:06:31Z</time>
      </trkpt>
      <trkpt lat="19.41602" lon="98.962">
        <time>2019-09-06T08:06:32Z</time>
      </trkpt>
      <trkpt lat="19.41583" lon="98.96184">
        <time>2019-09-06T08:06:33Z</time>
      </trkpt>
      <trkpt lat="19.41563" lon="98.96172">
        <time>2019-09-06T08:06:34Z</time>
      </trkpt>
      <trkpt lat="19.41543" lon="98.96159">
        <time>2019-09-06T08:06:35Z</time>
      </trkpt>
      <trkpt lat="19.41522" lon="98.96146">
        <time>2019-09-06T08:06:36Z</time>
      </trkpt>
      <trkpt lat="19.41498" lon="98.96135">
        <time>2019-09-06T08:06:37Z</time>
      </trkpt>
      <trkpt lat="19.41474" lon="98.96122">
        <time>2019-09-06T08:06:38Z</time>
      </trkpt>
      <trkpt lat="19.41451" lon="98.96112">
        <time>2019-09-06T08:06:39Z</time>
      </trkpt>
      <trkpt lat="19.41426" lon="98.96104">
        <time>2019-09-06T08:06:40Z</time>
      </trkpt>
      <trkpt lat="19.41402" lon="98.96095">
        <time>2019-09-06T08:06:41Z</time>
      </trkpt>
      <trkpt lat="19.41377" lon="98.96087">
        <time>2019-09-06T08:06:42Z</time>
      </trkpt>
      <trkpt lat="19.41352" lon="98.96082">
        <time>2019-09-06T08:06:43Z</time>
      </trkpt>
      <trkpt lat="19.41327" lon="98.96078">
        <time>2019-09-06T08:06:44Z</time>
      </trkpt>
      <trkpt lat="19.41301" lon="98.96074">
        <time>2019-09-06T08:06:45Z</time>
      </trkpt>
      <trkpt lat="19.41276" lon="98.96073">
        <time>2019-09-06T08:06:46Z</time>
      </trkpt>
      <trkpt lat="19.4125" lon="98.96072">
        <time>2019-09-06T08:06:47Z</time>
      </trkpt>
      <trkpt lat="19.41225" lon="98.96072">
        <time>2019-09-06T08:06:48Z</time>
      </trkpt>
      <trkpt lat="19.41199" lon="98.96076">
        <time>2019-09-06T08:06:49Z</time>
      </trkpt>
      <trkpt lat="19.41175" lon="98.9608">
        <time>2019-09-06T08:06:50Z</time>
      </trkpt>
      <trkpt lat="19.41148" lon="98.96083">
        <time>2019-09-06T08:06:51Z</time>
      </trkpt>
      <trkpt lat="19.41122" lon="98.96086">
        <time>2019-09-06T08:06:52Z</time>
      </trkpt>
      <trkpt lat="19.41095" lon="98.9609">
        <time>2019-09-06T08:06:53Z</time>
      </trkpt>
      <trkpt lat="19.4107" lon="98.96101">
        <time>2019-09-06T08:06:54Z</time>
      </trkpt>
      <trkpt lat="19.41044" lon="98.9611">
        <time>2019-09-06T08:06:55Z</time>
      </trkpt>
      <trkpt lat="19.41019" lon="98.96117">
        <time>2019-09-06T08:06:56Z</time>
      </trkpt>
      <trkpt lat="19.40994" lon="98.96123">
        <time>2019-09-06T08:06:57Z</time>
      </trkpt>
      <trkpt lat="19.40969" lon="98.9613">
        <time>2019-09-06T08:06:58Z</time>
      </trkpt>
      <trkpt lat="19.40944" lon="98.96136">
        <time>2019-09-06T08:06:59Z</time>
      </trkpt>
      <trkpt lat="19.40919" lon="98.96143">
        <time>2019-09-06T08:07:00Z</time>
      </trkpt>
      <trkpt lat="19.40893" lon="98.96148">
        <time>2019-09-06T08:07:01Z</time>
      </trkpt>
      <trkpt lat="19.40868" lon="98.96154">
        <time>2019-09-06T08:07:02Z</time>
      </trkpt>
      <trkpt lat="19.40842" lon="98.96162">
        <time>2019-09-06T08:07:03Z</time>
      </trkpt>
      <trkpt lat="19.40817" lon="98.96167">
        <time>2019-09-06T08:07:04Z</time>
      </trkpt>
      <trkpt lat="19.40792" lon="98.96172">
        <time>2019-09-06T08:07:05Z</time>
      </trkpt>
      <trkpt lat="19.40766" lon="98.96178">
        <time>2019-09-06T08:07:06Z</time>
      </trkpt>
      <trkpt lat="19.40743" lon="98.96183">
        <time>2019-09-06T08:07:07Z</time>
      </trkpt>
      <trkpt lat="19.40718" lon="98.96189">
        <time>2019-09-06T08:07:08Z</time>
      </trkpt>
      <trkpt lat="19.40691" lon="98.96193">
        <time>2019-09-06T08:07:09Z</time>
      </trkpt>
      <trkpt lat="19.40666" lon="98.96201">
        <time>2019-09-06T08:07:10Z</time>
      </trkpt>
      <trkpt lat="19.4064" lon="98.96206">
        <time>2019-09-06T08:07:11Z</time>
      </trkpt>
      <trkpt lat="19.40614" lon="98.96211">
        <time>2019-09-06T08:07:12Z</time>
      </trkpt>
      <trkpt lat="19.40589" lon="98.96218">
        <time>2019-09-06T08:07:13Z</time>
      </trkpt>
      <trkpt lat="19.40563" lon="98.96223">
        <time>2019-09-06T08:07:14Z</time>
      </trkpt>
      <trkpt lat="19.40539" lon="98.96231">
        <time>2019-09-06T08:07:15Z</time>
      </trkpt>
      <trkpt lat="19.40514" lon="98.96237">
        <time>2019-09-06T08:07:16Z</time>
      </trkpt>
      <trkpt lat="19.40489" lon="98.96242">
        <time>2019-09-06T08:07:17Z</time>
      </trkpt>
      <trkpt lat="19.40463" lon="98.96249">
        <time>2019-09-06T08:07:18Z</time>
      </trkpt>
      <trkpt lat="19.40438" lon="98.96254">
        <time>2019-09-06T08:07:19Z</time>
      </trkpt>
      <trkpt lat="19.40413" lon="98.9626">
        <time>2019-09-06T08:07:20Z</time>
      </trkpt>
      <trkpt lat="19.40388" lon="98.96265">
        <time>2019-09-06T08:07:21Z</time>
      </trkpt>
      <trkpt lat="19.40364" lon="98.96269">
        <time>2019-09-06T08:07:22Z</time>
      </trkpt>
      <trkpt lat="19.40339" lon="98.96272">
        <time>2019-09-06T08:07:23Z</time>
      </trkpt>
      <trkpt lat="19.40315" lon="98.96273">
        <time>2019-09-06T08:07:24Z</time>
      </trkpt>
      <trkpt lat="19.40291" lon="98.96275">
        <time>2019-09-06T08:07:25Z</time>
      </trkpt>
      <trkpt lat="19.40267" lon="98.96275">
        <time>2019-09-06T08:07:26Z</time>
      </trkpt>
      <trkpt lat="19.40243" lon="98.96273">
        <time>2019-09-06T08:07:27Z</time>
      </trkpt>
      <trkpt lat="19.4022" lon="98.96272">
        <time>2019-09-06T08:07:28Z</time>
      </trkpt>
      <trkpt lat="19.40195" lon="98.96273">
        <time>2019-09-06T08:07:29Z</time>
      </trkpt>
      <trkpt lat="19.4017" lon="98.96269">
        <time>2019-09-06T08:07:30Z</time>
      </trkpt>
      <trkpt lat="19.40146" lon="98.96262">
        <time>2019-09-06T08:07:31Z</time>
      </trkpt>
      <trkpt lat="19.40122" lon="98.96257">
        <time>2019-09-06T08:07:32Z</time>
      </trkpt>
      <trkpt lat="19.40099" lon="98.96251">
        <time>2019-09-06T08:07:33Z</time>
      </trkpt>
      <trkpt lat="19.40076" lon="98.96246">
        <time>2019-09-06T08:07:34Z</time>
      </trkpt>
      <trkpt lat="19.40052" lon="98.9624">
        <time>2019-09-06T08:07:35Z</time>
      </trkpt>
      <trkpt lat="19.40028" lon="98.96231">
        <time>2019-09-06T08:07:36Z</time>
      </trkpt>
      <trkpt lat="19.40006" lon="98.96222">
        <time>2019-09-06T08:07:37Z</time>
      </trkpt>
      <trkpt lat="19.39983" lon="98.96213">
        <time>2019-09-06T08:07:38Z</time>
      </trkpt>
      <trkpt lat="19.3996" lon="98.96203">
        <time>2019-09-06T08:07:39Z</time>
      </trkpt>
      <trkpt lat="19.39938" lon="98.96191">
        <time>2019-09-06T08:07:40Z</time>
      </trkpt>
      <trkpt lat="19.39917" lon="98.9618">
        <time>2019-09-06T08:07:41Z</time>
      </trkpt>
      <trkpt lat="19.39895" lon="98.96167">
        <time>2019-09-06T08:07:42Z</time>
      </trkpt>
      <trkpt lat="19.39874" lon="98.96155">
        <time>2019-09-06T08:07:43Z</time>
      </trkpt>
      <trkpt lat="19.39852" lon="98.96143">
        <time>2019-09-06T08:07:44Z</time>
      </trkpt>
      <trkpt lat="19.39832" lon="98.96127">
        <time>2019-09-06T08:07:45Z</time>
      </trkpt>
      <trkpt lat="19.3981" lon="98.96111">
        <time>2019-09-06T08:07:46Z</time>
      </trkpt>
      <trkpt lat="19.39788" lon="98.96099">
        <time>2019-09-06T08:07:47Z</time>
      </trkpt>
      <trkpt lat="19.39768" lon="98.96085">
        <time>2019-09-06T08:07:48Z</time>
      </trkpt>
      <trkpt lat="19.39745" lon="98.96066">
        <time>2019-09-06T08:07:49Z</time>
      </trkpt>
      <trkpt lat="19.39723" lon="98.96049">
        <time>2019-09-06T08:07:50Z</time>
      </trkpt>
      <trkpt lat="19.39703" lon="98.96032">
        <time>2019-09-06T08:07:51Z</time>
      </trkpt>
      <trkpt lat="19.39684" lon="98.96015">
        <time>2019-09-06T08:07:52Z</time>
      </trkpt>
      <trkpt lat="19.39664" lon="98.96001">
        <time>2019-09-06T08:07:53Z</time>
      </trkpt>
      <trkpt lat="19.39645" lon="98.95983">
        <time>2019-09-06T08:07:54Z</time>
      </trkpt>
      <trkpt lat="19.39623" lon="98.95965">
        <time>2019-09-06T08:07:55Z</time>
      </trkpt>
      <trkpt lat="19.39601" lon="98.95948">
        <time>2019-09-06T08:07:56Z</time>
      </trkpt>
      <trkpt lat="19.39581" lon="98.9593">
        <time>2019-09-06T08:07:57Z</time>
      </trkpt>
      <trkpt lat="19.3956" lon="98.95913">
        <time>2019-09-06T08:07:58Z</time>
      </trkpt>
      <trkpt lat="19.39537" lon="98.95899">
        <time>2019-09-06T08:07:59Z</time>
      </trkpt>
      <trkpt lat="19.39516" lon="98.95881">
        <time>2019-09-06T08:08:00Z</time>
      </trkpt>
      <trkpt lat="19.39492" lon="98.95864">
        <time>2019-09-06T08:08:01Z</time>
      </trkpt>
      <trkpt lat="19.39472" lon="98.95852">
        <time>2019-09-06T08:08:02Z</time>
      </trkpt>
      <trkpt lat="19.39448" lon="98.95836">
        <time>2019-09-06T08:08:03Z</time>
      </trkpt>
      <trkpt lat="19.39427" lon="98.9582">
        <time>2019-09-06T08:08:04Z</time>
      </trkpt>
      <trkpt lat="19.39405" lon="98.95805">
        <time>2019-09-06T08:08:05Z</time>
      </trkpt>
      <trkpt lat="19.39377" lon="98.95785">
        <time>2019-09-06T08:08:06Z</time>
      </trkpt>
      <trkpt lat="19.39355" lon="98.95768">
        <time>2019-09-06T08:08:07Z</time>
      </trkpt>
      <trkpt lat="19.39336" lon="98.95753">
        <time>2019-09-06T08:08:08Z</time>
      </trkpt>
      <trkpt lat="19.39313" lon="98.95737">
        <time>2019-09-06T08:08:09Z</time>
      </trkpt>
      <trkpt lat="19.39293" lon="98.9572">
        <time>2019-09-06T08:08:10Z</time>
      </trkpt>
      <trkpt lat="19.39273" lon="98.95702">
        <time>2019-09-06T08:08:11Z</time>
      </trkpt>
      <trkpt lat="19.39253" lon="98.95688">
        <time>2019-09-06T08:08:12Z</time>
      </trkpt>
      <trkpt lat="19.39234" lon="98.95672">
        <time>2019-09-06T08:08:13Z</time>
      </trkpt>
      <trkpt lat="19.39215" lon="98.95656">
        <time>2019-09-06T08:08:14Z</time>
      </trkpt>
      <trkpt lat="19.39197" lon="98.95641">
        <time>2019-09-06T08:08:15Z</time>
      </trkpt>
      <trkpt lat="19.3918" lon="98.95628">
        <time>2019-09-06T08:08:16Z</time>
      </trkpt>
      <trkpt lat="19.39162" lon="98.95612">
        <time>2019-09-06T08:08:17Z</time>
      </trkpt>
      <trkpt lat="19.39143" lon="98.95597">
        <time>2019-09-06T08:08:18Z</time>
      </trkpt>
      <trkpt lat="19.39123" lon="98.95583">
        <time>2019-09-06T08:08:19Z</time>
      </trkpt>
      <trkpt lat="19.39104" lon="98.95568">
        <time>2019-09-06T08:08:20Z</time>
      </trkpt>
      <trkpt lat="19.39086" lon="98.95556">
        <time>2019-09-06T08:08:21Z</time>
      </trkpt>
      <trkpt lat="19.39066" lon="98.95539">
        <time>2019-09-06T08:08:22Z</time>
      </trkpt>
      <trkpt lat="19.39047" lon="98.95524">
        <time>2019-09-06T08:08:23Z</time>
      </trkpt>
      <trkpt lat="19.39029" lon="98.95508">
        <time>2019-09-06T08:08:24Z</time>
      </trkpt>
      <trkpt lat="19.39009" lon="98.95492">
        <time>2019-09-06T08:08:25Z</time>
      </trkpt>
      <trkpt lat="19.38988" lon="98.95479">
        <time>2019-09-06T08:08:26Z</time>
      </trkpt>
      <trkpt lat="19.3897" lon="98.95464">
        <time>2019-09-06T08:08:27Z</time>
      </trkpt>
      <trkpt lat="19.38951" lon="98.95449">
        <time>2019-09-06T08:08:28Z</time>
      </trkpt>
      <trkpt lat="19.38934" lon="98.95434">
        <time>2019-09-06T08:08:29Z</time>
      </trkpt>
      <trkpt lat="19.38915" lon="98.95418">
        <time>2019-09-06T08:08:30Z</time>
      </trkpt>
      <trkpt lat="19.38897" lon="98.95403">
        <time>2019-09-06T08:08:31Z</time>
      </trkpt>
      <trkpt lat="19.38879" lon="98.95391">
        <time>2019-09-06T08:08:32Z</time>
      </trkpt>
      <trkpt lat="19.38859" lon="98.95377">
        <time>2019-09-06T08:08:33Z</time>
      </trkpt>
      <trkpt lat="19.38843" lon="98.95362">
        <time>2019-09-06T08:08:34Z</time>
      </trkpt>
      <trkpt lat="19.38827" lon="98.95351">
        <time>2019-09-06T08:08:35Z</time>
      </trkpt>
      <trkpt lat="19.3881" lon="98.95338">
        <time>2019-09-06T08:08:36Z</time>
      </trkpt>
      <trkpt lat="19.38791" lon="98.95323">
        <time>2019-09-06T08:08:37Z</time>
      </trkpt>
      <trkpt lat="19.38772" lon="98.9531">
        <time>2019-09-06T08:08:38Z</time>
      </trkpt>
      <trkpt lat="19.38753" lon="98.95296">
        <time>2019-09-06T08:08:39Z</time>
      </trkpt>
      <trkpt lat="19.38734" lon="98.95282">
        <time>2019-09-06T08:08:40Z</time>
      </trkpt>
      <trkpt lat="19.38715" lon="98.95266">
        <time>2019-09-06T08:08:41Z</time>
      </trkpt>
      <trkpt lat="19.38696" lon="98.95254">
        <time>2019-09-06T08:08:42Z</time>
      </trkpt>
      <trkpt lat="19.38676" lon="98.95239">
        <time>2019-09-06T08:08:43Z</time>
      </trkpt>
      <trkpt lat="19.38658" lon="98.95229">
        <time>2019-09-06T08:08:44Z</time>
      </trkpt>
      <trkpt lat="19.38638" lon="98.95215">
        <time>2019-09-06T08:08:45Z</time>
      </trkpt>
      <trkpt lat="19.38619" lon="98.95206">
        <time>2019-09-06T08:08:46Z</time>
      </trkpt>
      <trkpt lat="19.38602" lon="98.95192">
        <time>2019-09-06T08:08:47Z</time>
      </trkpt>
      <trkpt lat="19.38585" lon="98.95178">
        <time>2019-09-06T08:08:48Z</time>
      </trkpt>
      <trkpt lat="19.38569" lon="98.95164">
        <time>2019-09-06T08:08:49Z</time>
      </trkpt>
      <trkpt lat="19.38555" lon="98.95151">
        <time>2019-09-06T08:08:50Z</time>
      </trkpt>
      <trkpt lat="19.38541" lon="98.95138">
        <time>2019-09-06T08:08:51Z</time>
      </trkpt>
      <trkpt lat="19.38526" lon="98.95125">
        <time>2019-09-06T08:08:52Z</time>
      </trkpt>
      <trkpt lat="19.3851" lon="98.95112">
        <time>2019-09-06T08:08:53Z</time>
      </trkpt>
      <trkpt lat="19.38495" lon="98.95099">
        <time>2019-09-06T08:08:54Z</time>
      </trkpt>
      <trkpt lat="19.38478" lon="98.95085">
        <time>2019-09-06T08:08:55Z</time>
      </trkpt>
      <trkpt lat="19.3846" lon="98.95072">
        <time>2019-09-06T08:08:56Z</time>
      </trkpt>
      <trkpt lat="19.38441" lon="98.95058">
        <time>2019-09-06T08:08:57Z</time>
      </trkpt>
      <trkpt lat="19.38422" lon="98.95044">
        <time>2019-09-06T08:08:58Z</time>
      </trkpt>
      <trkpt lat="19.38403" lon="98.9503">
        <time>2019-09-06T08:08:59Z</time>
      </trkpt>
      <trkpt lat="19.38384" lon="98.95013">
        <time>2019-09-06T08:09:00Z</time>
      </trkpt>
      <trkpt lat="19.38364" lon="98.94998">
        <time>2019-09-06T08:09:01Z</time>
      </trkpt>
      <trkpt lat="19.38343" lon="98.94984">
        <time>2019-09-06T08:09:02Z</time>
      </trkpt>
      <trkpt lat="19.38324" lon="98.94968">
        <time>2019-09-06T08:09:03Z</time>
      </trkpt>
      <trkpt lat="19.38303" lon="98.94953">
        <time>2019-09-06T08:09:04Z</time>
      </trkpt>
      <trkpt lat="19.38282" lon="98.94939">
        <time>2019-09-06T08:09:05Z</time>
      </trkpt>
      <trkpt lat="19.3826" lon="98.94924">
        <time>2019-09-06T08:09:06Z</time>
      </trkpt>
      <trkpt lat="19.38243" lon="98.94911">
        <time>2019-09-06T08:09:07Z</time>
      </trkpt>
      <trkpt lat="19.38221" lon="98.94898">
        <time>2019-09-06T08:09:08Z</time>
      </trkpt>
      <trkpt lat="19.38201" lon="98.94884">
        <time>2019-09-06T08:09:09Z</time>
      </trkpt>
      <trkpt lat="19.38182" lon="98.94868">
        <time>2019-09-06T08:09:10Z</time>
      </trkpt>
      <trkpt lat="19.38162" lon="98.94852">
        <time>2019-09-06T08:09:11Z</time>
      </trkpt>
      <trkpt lat="19.38144" lon="98.94838">
        <time>2019-09-06T08:09:12Z</time>
      </trkpt>
      <trkpt lat="19.38126" lon="98.94823">
        <time>2019-09-06T08:09:13Z</time>
      </trkpt>
      <trkpt lat="19.38105" lon="98.94807">
        <time>2019-09-06T08:09:14Z</time>
      </trkpt>
      <trkpt lat="19.38086" lon="98.94792">
        <time>2019-09-06T08:09:15Z</time>
      </trkpt>
      <trkpt lat="19.38066" lon="98.94777">
        <time>2019-09-06T08:09:16Z</time>
      </trkpt>
      <trkpt lat="19.3805" lon="98.94765">
        <time>2019-09-06T08:09:17Z</time>
      </trkpt>
      <trkpt lat="19.38031" lon="98.94752">
        <time>2019-09-06T08:09:18Z</time>
      </trkpt>
      <trkpt lat="19.38014" lon="98.94737">
        <time>2019-09-06T08:09:19Z</time>
      </trkpt>
      <trkpt lat="19.37996" lon="98.94723">
        <time>2019-09-06T08:09:20Z</time>
      </trkpt>
      <trkpt lat="19.37977" lon="98.94709">
        <time>2019-09-06T08:09:21Z</time>
      </trkpt>
      <trkpt lat="19.37959" lon="98.94697">
        <time>2019-09-06T08:09:22Z</time>
      </trkpt>
      <trkpt lat="19.37939" lon="98.94685">
        <time>2019-09-06T08:09:23Z</time>
      </trkpt>
      <trkpt lat="19.37919" lon="98.94676">
        <time>2019-09-06T08:09:24Z</time>
      </trkpt>
      <trkpt lat="19.37899" lon="98.94667">
        <time>2019-09-06T08:09:25Z</time>
      </trkpt>
      <trkpt lat="19.37881" lon="98.94658">
        <time>2019-09-06T08:09:26Z</time>
      </trkpt>
      <trkpt lat="19.37862" lon="98.94652">
        <time>2019-09-06T08:09:27Z</time>
      </trkpt>
      <trkpt lat="19.37845" lon="98.94646">
        <time>2019-09-06T08:09:28Z</time>
      </trkpt>
      <trkpt lat="19.37828" lon="98.94641">
        <time>2019-09-06T08:09:29Z</time>
      </trkpt>
      <trkpt lat="19.37811" lon="98.94636">
        <time>2019-09-06T08:09:30Z</time>
      </trkpt>
      <trkpt lat="19.37795" lon="98.94633">
        <time>2019-09-06T08:09:31Z</time>
      </trkpt>
      <trkpt lat="19.37778" lon="98.9463">
        <time>2019-09-06T08:09:32Z</time>
      </trkpt>
      <trkpt lat="19.37761" lon="98.94628">
        <time>2019-09-06T08:09:33Z</time>
      </trkpt>
      <trkpt lat="19.37744" lon="98.94626">
        <time>2019-09-06T08:09:34Z</time>
      </trkpt>
      <trkpt lat="19.37725" lon="98.94625">
        <time>2019-09-06T08:09:35Z</time>
      </trkpt>
      <trkpt lat="19.37706" lon="98.94625">
        <time>2019-09-06T08:09:36Z</time>
      </trkpt>
      <trkpt lat="19.37686" lon="98.94624">
        <time>2019-09-06T08:09:37Z</time>
      </trkpt>
      <trkpt lat="19.37666" lon="98.94625">
        <time>2019-09-06T08:09:38Z</time>
      </trkpt>
      <trkpt lat="19.37645" lon="98.94627">
        <time>2019-09-06T08:09:39Z</time>
      </trkpt>
      <trkpt lat="19.37623" lon="98.94629">
        <time>2019-09-06T08:09:40Z</time>
      </trkpt>
      <trkpt lat="19.37602" lon="98.94631">
        <time>2019-09-06T08:09:41Z</time>
      </trkpt>
      <trkpt lat="19.3758" lon="98.94635">
        <time>2019-09-06T08:09:42Z</time>
      </trkpt>
      <trkpt lat="19.37558" lon="98.9464">
        <time>2019-09-06T08:09:43Z</time>
      </trkpt>
      <trkpt lat="19.37536" lon="98.94647">
        <time>2019-09-06T08:09:44Z</time>
      </trkpt>
      <trkpt lat="19.37514" lon="98.94654">
        <time>2019-09-06T08:09:45Z</time>
      </trkpt>
      <trkpt lat="19.37493" lon="98.94663">
        <time>2019-09-06T08:09:46Z</time>
      </trkpt>
      <trkpt lat="19.3747" lon="98.94671">
        <time>2019-09-06T08:09:47Z</time>
      </trkpt>
      <trkpt lat="19.37447" lon="98.94682">
        <time>2019-09-06T08:09:48Z</time>
      </trkpt>
      <trkpt lat="19.37425" lon="98.94691">
        <time>2019-09-06T08:09:49Z</time>
      </trkpt>
      <trkpt lat="19.37404" lon="98.947">
        <time>2019-09-06T08:09:50Z</time>
      </trkpt>
      <trkpt lat="19.37382" lon="98.94711">
        <time>2019-09-06T08:09:51Z</time>
      </trkpt>
      <trkpt lat="19.3736" lon="98.94721">
        <time>2019-09-06T08:09:52Z</time>
      </trkpt>
      <trkpt lat="19.37338" lon="98.94731">
        <time>2019-09-06T08:09:53Z</time>
      </trkpt>
      <trkpt lat="19.37317" lon="98.94741">
        <time>2019-09-06T08:09:54Z</time>
      </trkpt>
      <trkpt lat="19.37295" lon="98.94751">
        <time>2019-09-06T08:09:55Z</time>
      </trkpt>
      <trkpt lat="19.37274" lon="98.94761">
        <time>2019-09-06T08:09:56Z</time>
      </trkpt>
      <trkpt lat="19.37252" lon="98.94772">
        <time>2019-09-06T08:09:57Z</time>
      </trkpt>
      <trkpt lat="19.3723" lon="98.94781">
        <time>2019-09-06T08:09:58Z</time>
      </trkpt>
      <trkpt lat="19.37207" lon="98.9479">
        <time>2019-09-06T08:09:59Z</time>
      </trkpt>
      <trkpt lat="19.37185" lon="98.94799">
        <time>2019-09-06T08:10:00Z</time>
      </trkpt>
      <trkpt lat="19.37162" lon="98.94808">
        <time>2019-09-06T08:10:01Z</time>
      </trkpt>
      <trkpt lat="19.37139" lon="98.94816">
        <time>2019-09-06T08:10:02Z</time>
      </trkpt>
      <trkpt lat="19.37116" lon="98.94825">
        <time>2019-09-06T08:10:03Z</time>
      </trkpt>
      <trkpt lat="19.37094" lon="98.94833">
        <time>2019-09-06T08:10:04Z</time>
      </trkpt>
      <trkpt lat="19.37072" lon="98.94841">
        <time>2019-09-06T08:10:05Z</time>
      </trkpt>
      <trkpt lat="19.3705" lon="98.94852">
        <time>2019-09-06T08:10:06Z</time>
      </trkpt>
      <trkpt lat="19.37027" lon="98.9486">
        <time>2019-09-06T08:10:07Z</time>
      </trkpt>
      <trkpt lat="19.37004" lon="98.94868">
        <time>2019-09-06T08:10:08Z</time>
      </trkpt>
      <trkpt lat="19.3698" lon="98.94877">
        <time>2019-09-06T08:10:09Z</time>
      </trkpt>
      <trkpt lat="19.36958" lon="98.94885">
        <time>2019-09-06T08:10:10Z</time>
      </trkpt>
      <trkpt lat="19.36934" lon="98.94893">
        <time>2019-09-06T08:10:11Z</time>
      </trkpt>
      <trkpt lat="19.3691" lon="98.94902">
        <time>2019-09-06T08:10:12Z</time>
      </trkpt>
      <trkpt lat="19.36886" lon="98.94912">
        <time>2019-09-06T08:10:13Z</time>
      </trkpt>
      <trkpt lat="19.36862" lon="98.9492">
        <time>2019-09-06T08:10:14Z</time>
      </trkpt>
      <trkpt lat="19.36838" lon="98.94929">
        <time>2019-09-06T08:10:15Z</time>
      </trkpt>
      <trkpt lat="19.36815" lon="98.94939">
        <time>2019-09-06T08:10:16Z</time>
      </trkpt>
      <trkpt lat="19.36791" lon="98.94949">
        <time>2019-09-06T08:10:17Z</time>
      </trkpt>
      <trkpt lat="19.36768" lon="98.9496">
        <time>2019-09-06T08:10:18Z</time>
      </trkpt>
      <trkpt lat="19.36745" lon="98.94972">
        <time>2019-09-06T08:10:19Z</time>
      </trkpt>
      <trkpt lat="19.36723" lon="98.94984">
        <time>2019-09-06T08:10:20Z</time>
      </trkpt>
      <trkpt lat="19.36701" lon="98.94996">
        <time>2019-09-06T08:10:21Z</time>
      </trkpt>
      <trkpt lat="19.36681" lon="98.95009">
        <time>2019-09-06T08:10:22Z</time>
      </trkpt>
      <trkpt lat="19.36658" lon="98.9502">
        <time>2019-09-06T08:10:23Z</time>
      </trkpt>
      <trkpt lat="19.36636" lon="98.95033">
        <time>2019-09-06T08:10:24Z</time>
      </trkpt>
      <trkpt lat="19.36613" lon="98.95045">
        <time>2019-09-06T08:10:25Z</time>
      </trkpt>
      <trkpt lat="19.36589" lon="98.95057">
        <time>2019-09-06T08:10:26Z</time>
      </trkpt>
      <trkpt lat="19.36565" lon="98.9507">
        <time>2019-09-06T08:10:27Z</time>
      </trkpt>
      <trkpt lat="19.36541" lon="98.95081">
        <time>2019-09-06T08:10:28Z</time>
      </trkpt>
      <trkpt lat="19.36518" lon="98.95093">
        <time>2019-09-06T08:10:29Z</time>
      </trkpt>
      <trkpt lat="19.36494" lon="98.95104">
        <time>2019-09-06T08:10:30Z</time>
      </trkpt>
      <trkpt lat="19.3647" lon="98.95116">
        <time>2019-09-06T08:10:31Z</time>
      </trkpt>
      <trkpt lat="19.36448" lon="98.95128">
        <time>2019-09-06T08:10:32Z</time>
      </trkpt>
      <trkpt lat="19.36426" lon="98.95139">
        <time>2019-09-06T08:10:33Z</time>
      </trkpt>
      <trkpt lat="19.36404" lon="98.95152">
        <time>2019-09-06T08:10:34Z</time>
      </trkpt>
      <trkpt lat="19.36382" lon="98.95164">
        <time>2019-09-06T08:10:35Z</time>
      </trkpt>
      <trkpt lat="19.36359" lon="98.95174">
        <time>2019-09-06T08:10:36Z</time>
      </trkpt>
      <trkpt lat="19.36337" lon="98.95186">
        <time>2019-09-06T08:10:37Z</time>
      </trkpt>
      <trkpt lat="19.36314" lon="98.95196">
        <time>2019-09-06T08:10:38Z</time>
      </trkpt>
      <trkpt lat="19.3629" lon="98.95209">
        <time>2019-09-06T08:10:39Z</time>
      </trkpt>
      <trkpt lat="19.36268" lon="98.9522">
        <time>2019-09-06T08:10:40Z</time>
      </trkpt>
      <trkpt lat="19.36245" lon="98.95232">
        <time>2019-09-06T08:10:41Z</time>
      </trkpt>
      <trkpt lat="19.36223" lon="98.95243">
        <time>2019-09-06T08:10:42Z</time>
      </trkpt>
      <trkpt lat="19.36199" lon="98.95253">
        <time>2019-09-06T08:10:43Z</time>
      </trkpt>
      <trkpt lat="19.36175" lon="98.95265">
        <time>2019-09-06T08:10:44Z</time>
      </trkpt>
      <trkpt lat="19.36149" lon="98.95274">
        <time>2019-09-06T08:10:45Z</time>
      </trkpt>
      <trkpt lat="19.36124" lon="98.95286">
        <time>2019-09-06T08:10:46Z</time>
      </trkpt>
      <trkpt lat="19.36098" lon="98.95295">
        <time>2019-09-06T08:10:47Z</time>
      </trkpt>
      <trkpt lat="19.36075" lon="98.95308">
        <time>2019-09-06T08:10:48Z</time>
      </trkpt>
      <trkpt lat="19.36052" lon="98.95319">
        <time>2019-09-06T08:10:49Z</time>
      </trkpt>
      <trkpt lat="19.36028" lon="98.95331">
        <time>2019-09-06T08:10:50Z</time>
      </trkpt>
      <trkpt lat="19.36002" lon="98.95341">
        <time>2019-09-06T08:10:51Z</time>
      </trkpt>
      <trkpt lat="19.3598" lon="98.95353">
        <time>2019-09-06T08:10:52Z</time>
      </trkpt>
      <trkpt lat="19.35957" lon="98.95364">
        <time>2019-09-06T08:10:53Z</time>
      </trkpt>
      <trkpt lat="19.35933" lon="98.95374">
        <time>2019-09-06T08:10:54Z</time>
      </trkpt>
      <trkpt lat="19.3591" lon="98.95385">
        <time>2019-09-06T08:10:55Z</time>
      </trkpt>
      <trkpt lat="19.35886" lon="98.95397">
        <time>2019-09-06T08:10:56Z</time>
      </trkpt>
      <trkpt lat="19.35863" lon="98.95408">
        <time>2019-09-06T08:10:57Z</time>
      </trkpt>
      <trkpt lat="19.35839" lon="98.95418">
        <time>2019-09-06T08:10:58Z</time>
      </trkpt>
      <trkpt lat="19.35818" lon="98.95428">
        <time>2019-09-06T08:10:59Z</time>
      </trkpt>
      <trkpt lat="19.35793" lon="98.95439">
        <time>2019-09-06T08:11:00Z</time>
      </trkpt>
      <trkpt lat="19.35769" lon="98.95447">
        <time>2019-09-06T08:11:01Z</time>
      </trkpt>
      <trkpt lat="19.35747" lon="98.95457">
        <time>2019-09-06T08:11:02Z</time>
      </trkpt>
      <trkpt lat="19.35726" lon="98.95468">
        <time>2019-09-06T08:11:03Z</time>
      </trkpt>
      <trkpt lat="19.35703" lon="98.9548">
        <time>2019-09-06T08:11:04Z</time>
      </trkpt>
      <trkpt lat="19.3568" lon="98.95492">
        <time>2019-09-06T08:11:05Z</time>
      </trkpt>
      <trkpt lat="19.35656" lon="98.95502">
        <time>2019-09-06T08:11:06Z</time>
      </trkpt>
      <trkpt lat="19.35633" lon="98.95514">
        <time>2019-09-06T08:11:07Z</time>
      </trkpt>
      <trkpt lat="19.35611" lon="98.95527">
        <time>2019-09-06T08:11:08Z</time>
      </trkpt>
      <trkpt lat="19.35589" lon="98.95541">
        <time>2019-09-06T08:11:09Z</time>
      </trkpt>
      <trkpt lat="19.35566" lon="98.95554">
        <time>2019-09-06T08:11:10Z</time>
      </trkpt>
      <trkpt lat="19.35541" lon="98.95568">
        <time>2019-09-06T08:11:11Z</time>
      </trkpt>
      <trkpt lat="19.35522" lon="98.95585">
        <time>2019-09-06T08:11:12Z</time>
      </trkpt>
      <trkpt lat="19.35503" lon="98.95602">
        <time>2019-09-06T08:11:13Z</time>
      </trkpt>
      <trkpt lat="19.35481" lon="98.95616">
        <time>2019-09-06T08:11:14Z</time>
      </trkpt>
      <trkpt lat="19.35458" lon="98.9563">
        <time>2019-09-06T08:11:15Z</time>
      </trkpt>
      <trkpt lat="19.35435" lon="98.95645">
        <time>2019-09-06T08:11:16Z</time>
      </trkpt>
      <trkpt lat="19.35415" lon="98.9566">
        <time>2019-09-06T08:11:17Z</time>
      </trkpt>
      <trkpt lat="19.35393" lon="98.95674">
        <time>2019-09-06T08:11:18Z</time>
      </trkpt>
      <trkpt lat="19.35378" lon="98.95683">
        <time>2019-09-06T08:11:19Z</time>
      </trkpt>
      <trkpt lat="19.35358" lon="98.95695">
        <time>2019-09-06T08:11:20Z</time>
      </trkpt>
      <trkpt lat="19.35337" lon="98.95708">
        <time>2019-09-06T08:11:21Z</time>
      </trkpt>
      <trkpt lat="19.3532" lon="98.95723">
        <time>2019-09-06T08:11:22Z</time>
      </trkpt>
      <trkpt lat="19.35302" lon="98.95742">
        <time>2019-09-06T08:11:23Z</time>
      </trkpt>
      <trkpt lat="19.35284" lon="98.95758">
        <time>2019-09-06T08:11:24Z</time>
      </trkpt>
      <trkpt lat="19.35264" lon="98.95774">
        <time>2019-09-06T08:11:25Z</time>
      </trkpt>
      <trkpt lat="19.35246" lon="98.95788">
        <time>2019-09-06T08:11:27Z</time>
      </trkpt>
      <trkpt lat="19.35225" lon="98.95802">
        <time>2019-09-06T08:11:27Z</time>
      </trkpt>
      <trkpt lat="19.35206" lon="98.95815">
        <time>2019-09-06T08:11:28Z</time>
      </trkpt>
      <trkpt lat="19.35191" lon="98.95829">
        <time>2019-09-06T08:11:29Z</time>
      </trkpt>
      <trkpt lat="19.35169" lon="98.9584">
        <time>2019-09-06T08:11:30Z</time>
      </trkpt>
      <trkpt lat="19.35153" lon="98.95854">
        <time>2019-09-06T08:11:31Z</time>
      </trkpt>
      <trkpt lat="19.35135" lon="98.95868">
        <time>2019-09-06T08:11:32Z</time>
      </trkpt>
      <trkpt lat="19.3512" lon="98.9588">
        <time>2019-09-06T08:11:33Z</time>
      </trkpt>
      <trkpt lat="19.35103" lon="98.95891">
        <time>2019-09-06T08:11:34Z</time>
      </trkpt>
      <trkpt lat="19.35085" lon="98.95904">
        <time>2019-09-06T08:11:35Z</time>
      </trkpt>
      <trkpt lat="19.35064" lon="98.95913">
        <time>2019-09-06T08:11:36Z</time>
      </trkpt>
      <trkpt lat="19.35049" lon="98.95925">
        <time>2019-09-06T08:11:37Z</time>
      </trkpt>
      <trkpt lat="19.35033" lon="98.95937">
        <time>2019-09-06T08:11:38Z</time>
      </trkpt>
      <trkpt lat="19.35016" lon="98.95949">
        <time>2019-09-06T08:11:39Z</time>
      </trkpt>
      <trkpt lat="19.35" lon="98.95963">
        <time>2019-09-06T08:11:40Z</time>
      </trkpt>
      <trkpt lat="19.34984" lon="98.95974">
        <time>2019-09-06T08:11:41Z</time>
      </trkpt>
      <trkpt lat="19.34967" lon="98.95988">
        <time>2019-09-06T08:11:42Z</time>
      </trkpt>
      <trkpt lat="19.34951" lon="98.96">
        <time>2019-09-06T08:11:43Z</time>
      </trkpt>
      <trkpt lat="19.34931" lon="98.96012">
        <time>2019-09-06T08:11:44Z</time>
      </trkpt>
      <trkpt lat="19.34914" lon="98.96026">
        <time>2019-09-06T08:11:45Z</time>
      </trkpt>
      <trkpt lat="19.34896" lon="98.96037">
        <time>2019-09-06T08:11:46Z</time>
      </trkpt>
      <trkpt lat="19.3488" lon="98.9605">
        <time>2019-09-06T08:11:47Z</time>
      </trkpt>
      <trkpt lat="19.34861" lon="98.9606">
        <time>2019-09-06T08:11:48Z</time>
      </trkpt>
      <trkpt lat="19.34842" lon="98.96069">
        <time>2019-09-06T08:11:49Z</time>
      </trkpt>
      <trkpt lat="19.34822" lon="98.96077">
        <time>2019-09-06T08:11:50Z</time>
      </trkpt>
      <trkpt lat="19.34802" lon="98.96085">
        <time>2019-09-06T08:11:51Z</time>
      </trkpt>
      <trkpt lat="19.34783" lon="98.96091">
        <time>2019-09-06T08:11:52Z</time>
      </trkpt>
      <trkpt lat="19.34763" lon="98.96097">
        <time>2019-09-06T08:11:53Z</time>
      </trkpt>
      <trkpt lat="19.34742" lon="98.961">
        <time>2019-09-06T08:11:54Z</time>
      </trkpt>
      <trkpt lat="19.34722" lon="98.96103">
        <time>2019-09-06T08:11:55Z</time>
      </trkpt>
      <trkpt lat="19.34703" lon="98.96105">
        <time>2019-09-06T08:11:56Z</time>
      </trkpt>
      <trkpt lat="19.34683" lon="98.96106">
        <time>2019-09-06T08:11:57Z</time>
      </trkpt>
      <trkpt lat="19.34664" lon="98.96106">
        <time>2019-09-06T08:11:58Z</time>
      </trkpt>
      <trkpt lat="19.34644" lon="98.96105">
        <time>2019-09-06T08:11:59Z</time>
      </trkpt>
      <trkpt lat="19.34624" lon="98.96103">
        <time>2019-09-06T08:12:00Z</time>
      </trkpt>
      <trkpt lat="19.34603" lon="98.96102">
        <time>2019-09-06T08:12:01Z</time>
      </trkpt>
      <trkpt lat="19.34581" lon="98.96101">
        <time>2019-09-06T08:12:02Z</time>
      </trkpt>
      <trkpt lat="19.34559" lon="98.96097">
        <time>2019-09-06T08:12:03Z</time>
      </trkpt>
      <trkpt lat="19.34537" lon="98.96091">
        <time>2019-09-06T08:12:04Z</time>
      </trkpt>
      <trkpt lat="19.34515" lon="98.96086">
        <time>2019-09-06T08:12:05Z</time>
      </trkpt>
      <trkpt lat="19.34491" lon="98.96081">
        <time>2019-09-06T08:12:06Z</time>
      </trkpt>
      <trkpt lat="19.3447" lon="98.96082">
        <time>2019-09-06T08:12:07Z</time>
      </trkpt>
      <trkpt lat="19.34448" lon="98.96077">
        <time>2019-09-06T08:12:08Z</time>
      </trkpt>
      <trkpt lat="19.34426" lon="98.96071">
        <time>2019-09-06T08:12:09Z</time>
      </trkpt>
      <trkpt lat="19.34404" lon="98.96066">
        <time>2019-09-06T08:12:10Z</time>
      </trkpt>
      <trkpt lat="19.34382" lon="98.96065">
        <time>2019-09-06T08:12:11Z</time>
      </trkpt>
      <trkpt lat="19.3436" lon="98.9606">
        <time>2019-09-06T08:12:12Z</time>
      </trkpt>
      <trkpt lat="19.34339" lon="98.96057">
        <time>2019-09-06T08:12:13Z</time>
      </trkpt>
      <trkpt lat="19.34318" lon="98.96053">
        <time>2019-09-06T08:12:14Z</time>
      </trkpt>
      <trkpt lat="19.34296" lon="98.96046">
        <time>2019-09-06T08:12:15Z</time>
      </trkpt>
      <trkpt lat="19.34275" lon="98.9604">
        <time>2019-09-06T08:12:16Z</time>
      </trkpt>
      <trkpt lat="19.34253" lon="98.96034">
        <time>2019-09-06T08:12:17Z</time>
      </trkpt>
      <trkpt lat="19.3423" lon="98.96028">
        <time>2019-09-06T08:12:18Z</time>
      </trkpt>
      <trkpt lat="19.34208" lon="98.9602">
        <time>2019-09-06T08:12:19Z</time>
      </trkpt>
      <trkpt lat="19.34186" lon="98.96012">
        <time>2019-09-06T08:12:20Z</time>
      </trkpt>
      <trkpt lat="19.34164" lon="98.96002">
        <time>2019-09-06T08:12:21Z</time>
      </trkpt>
      <trkpt lat="19.34142" lon="98.95996">
        <time>2019-09-06T08:12:22Z</time>
      </trkpt>
      <trkpt lat="19.34119" lon="98.95983">
        <time>2019-09-06T08:12:23Z</time>
      </trkpt>
      <trkpt lat="19.34097" lon="98.95971">
        <time>2019-09-06T08:12:24Z</time>
      </trkpt>
      <trkpt lat="19.34072" lon="98.95966">
        <time>2019-09-06T08:12:25Z</time>
      </trkpt>
      <trkpt lat="19.3405" lon="98.9596">
        <time>2019-09-06T08:12:26Z</time>
      </trkpt>
      <trkpt lat="19.34029" lon="98.95952">
        <time>2019-09-06T08:12:27Z</time>
      </trkpt>
      <trkpt lat="19.34005" lon="98.95943">
        <time>2019-09-06T08:12:28Z</time>
      </trkpt>
      <trkpt lat="19.3398" lon="98.95931">
        <time>2019-09-06T08:12:29Z</time>
      </trkpt>
      <trkpt lat="19.33954" lon="98.95919">
        <time>2019-09-06T08:12:30Z</time>
      </trkpt>
      <trkpt lat="19.33929" lon="98.95908">
        <time>2019-09-06T08:12:31Z</time>
      </trkpt>
      <trkpt lat="19.33902" lon="98.95899">
        <time>2019-09-06T08:12:32Z</time>
      </trkpt>
      <trkpt lat="19.33879" lon="98.95889">
        <time>2019-09-06T08:12:33Z</time>
      </trkpt>
      <trkpt lat="19.33854" lon="98.95878">
        <time>2019-09-06T08:12:34Z</time>
      </trkpt>
      <trkpt lat="19.33827" lon="98.95869">
        <time>2019-09-06T08:12:35Z</time>
      </trkpt>
      <trkpt lat="19.33801" lon="98.95859">
        <time>2019-09-06T08:12:36Z</time>
      </trkpt>
      <trkpt lat="19.33777" lon="98.95849">
        <time>2019-09-06T08:12:37Z</time>
      </trkpt>
      <trkpt lat="19.33754" lon="98.95842">
        <time>2019-09-06T08:12:38Z</time>
      </trkpt>
      <trkpt lat="19.33731" lon="98.9583">
        <time>2019-09-06T08:12:39Z</time>
      </trkpt>
      <trkpt lat="19.33708" lon="98.9582">
        <time>2019-09-06T08:12:40Z</time>
      </trkpt>
      <trkpt lat="19.33686" lon="98.9581">
        <time>2019-09-06T08:12:41Z</time>
      </trkpt>
      <trkpt lat="19.33662" lon="98.95801">
        <time>2019-09-06T08:12:42Z</time>
      </trkpt>
      <trkpt lat="19.33636" lon="98.95791">
        <time>2019-09-06T08:12:43Z</time>
      </trkpt>
      <trkpt lat="19.33612" lon="98.95778">
        <time>2019-09-06T08:12:44Z</time>
      </trkpt>
      <trkpt lat="19.33589" lon="98.95766">
        <time>2019-09-06T08:12:45Z</time>
      </trkpt>
      <trkpt lat="19.33565" lon="98.95756">
        <time>2019-09-06T08:12:46Z</time>
      </trkpt>
      <trkpt lat="19.33543" lon="98.95747">
        <time>2019-09-06T08:12:47Z</time>
      </trkpt>
      <trkpt lat="19.3352" lon="98.95738">
        <time>2019-09-06T08:12:48Z</time>
      </trkpt>
      <trkpt lat="19.33498" lon="98.95728">
        <time>2019-09-06T08:12:49Z</time>
      </trkpt>
      <trkpt lat="19.33474" lon="98.95715">
        <time>2019-09-06T08:12:50Z</time>
      </trkpt>
      <trkpt lat="19.3345" lon="98.95706">
        <time>2019-09-06T08:12:51Z</time>
      </trkpt>
      <trkpt lat="19.33428" lon="98.95695">
        <time>2019-09-06T08:12:52Z</time>
      </trkpt>
      <trkpt lat="19.33405" lon="98.95684">
        <time>2019-09-06T08:12:53Z</time>
      </trkpt>
      <trkpt lat="19.33382" lon="98.95671">
        <time>2019-09-06T08:12:54Z</time>
      </trkpt>
      <trkpt lat="19.33361" lon="98.95662">
        <time>2019-09-06T08:12:55Z</time>
      </trkpt>
      <trkpt lat="19.33341" lon="98.95651">
        <time>2019-09-06T08:12:56Z</time>
      </trkpt>
      <trkpt lat="19.33319" lon="98.95642">
        <time>2019-09-06T08:12:57Z</time>
      </trkpt>
      <trkpt lat="19.33298" lon="98.95632">
        <time>2019-09-06T08:12:58Z</time>
      </trkpt>
      <trkpt lat="19.33275" lon="98.95623">
        <time>2019-09-06T08:12:59Z</time>
      </trkpt>
      <trkpt lat="19.33254" lon="98.95611">
        <time>2019-09-06T08:13:00Z</time>
      </trkpt>
      <trkpt lat="19.33233" lon="98.95603">
        <time>2019-09-06T08:13:01Z</time>
      </trkpt>
      <trkpt lat="19.3321" lon="98.95593">
        <time>2019-09-06T08:13:02Z</time>
      </trkpt>
      <trkpt lat="19.33191" lon="98.95584">
        <time>2019-09-06T08:13:03Z</time>
      </trkpt>
      <trkpt lat="19.33169" lon="98.95578">
        <time>2019-09-06T08:13:04Z</time>
      </trkpt>
      <trkpt lat="19.33151" lon="98.95569">
        <time>2019-09-06T08:13:05Z</time>
      </trkpt>
      <trkpt lat="19.33132" lon="98.95561">
        <time>2019-09-06T08:13:06Z</time>
      </trkpt>
      <trkpt lat="19.33112" lon="98.95553">
        <time>2019-09-06T08:13:07Z</time>
      </trkpt>
      <trkpt lat="19.33091" lon="98.95546">
        <time>2019-09-06T08:13:08Z</time>
      </trkpt>
      <trkpt lat="19.33069" lon="98.95543">
        <time>2019-09-06T08:13:09Z</time>
      </trkpt>
      <trkpt lat="19.33046" lon="98.95537">
        <time>2019-09-06T08:13:10Z</time>
      </trkpt>
      <trkpt lat="19.33024" lon="98.95529">
        <time>2019-09-06T08:13:11Z</time>
      </trkpt>
      <trkpt lat="19.33001" lon="98.95521">
        <time>2019-09-06T08:13:12Z</time>
      </trkpt>
      <trkpt lat="19.32974" lon="98.95509">
        <time>2019-09-06T08:13:13Z</time>
      </trkpt>
      <trkpt lat="19.32949" lon="98.955">
        <time>2019-09-06T08:13:14Z</time>
      </trkpt>
      <trkpt lat="19.32923" lon="98.95494">
        <time>2019-09-06T08:13:15Z</time>
      </trkpt>
      <trkpt lat="19.32899" lon="98.95485">
        <time>2019-09-06T08:13:16Z</time>
      </trkpt>
      <trkpt lat="19.32875" lon="98.95478">
        <time>2019-09-06T08:13:17Z</time>
      </trkpt>
      <trkpt lat="19.32851" lon="98.95469">
        <time>2019-09-06T08:13:18Z</time>
      </trkpt>
      <trkpt lat="19.32827" lon="98.95462">
        <time>2019-09-06T08:13:19Z</time>
      </trkpt>
      <trkpt lat="19.32803" lon="98.95452">
        <time>2019-09-06T08:13:20Z</time>
      </trkpt>
      <trkpt lat="19.32781" lon="98.95446">
        <time>2019-09-06T08:13:21Z</time>
      </trkpt>
      <trkpt lat="19.32756" lon="98.95437">
        <time>2019-09-06T08:13:22Z</time>
      </trkpt>
      <trkpt lat="19.3273" lon="98.9543">
        <time>2019-09-06T08:13:23Z</time>
      </trkpt>
      <trkpt lat="19.32709" lon="98.9543">
        <time>2019-09-06T08:13:24Z</time>
      </trkpt>
      <trkpt lat="19.32686" lon="98.95426">
        <time>2019-09-06T08:13:25Z</time>
      </trkpt>
      <trkpt lat="19.32662" lon="98.95422">
        <time>2019-09-06T08:13:26Z</time>
      </trkpt>
      <trkpt lat="19.32638" lon="98.95417">
        <time>2019-09-06T08:13:27Z</time>
      </trkpt>
      <trkpt lat="19.32614" lon="98.95416">
        <time>2019-09-06T08:13:28Z</time>
      </trkpt>
      <trkpt lat="19.3259" lon="98.95415">
        <time>2019-09-06T08:13:29Z</time>
      </trkpt>
      <trkpt lat="19.32567" lon="98.95413">
        <time>2019-09-06T08:13:30Z</time>
      </trkpt>
      <trkpt lat="19.32541" lon="98.95412">
        <time>2019-09-06T08:13:31Z</time>
      </trkpt>
      <trkpt lat="19.32516" lon="98.95406">
        <time>2019-09-06T08:13:32Z</time>
      </trkpt>
      <trkpt lat="19.32491" lon="98.95402">
        <time>2019-09-06T08:13:33Z</time>
      </trkpt>
      <trkpt lat="19.32466" lon="98.95395">
        <time>2019-09-06T08:13:34Z</time>
      </trkpt>
      <trkpt lat="19.32441" lon="98.95389">
        <time>2019-09-06T08:13:35Z</time>
      </trkpt>
      <trkpt lat="19.32417" lon="98.95383">
        <time>2019-09-06T08:13:36Z</time>
      </trkpt>
      <trkpt lat="19.32401" lon="98.95374">
        <time>2019-09-06T08:13:37Z</time>
      </trkpt>
      <trkpt lat="19.3238" lon="98.95366">
        <time>2019-09-06T08:13:38Z</time>
      </trkpt>
      <trkpt lat="19.32363" lon="98.95355">
        <time>2019-09-06T08:13:39Z</time>
      </trkpt>
      <trkpt lat="19.32346" lon="98.95345">
        <time>2019-09-06T08:13:40Z</time>
      </trkpt>
      <trkpt lat="19.32329" lon="98.95337">
        <time>2019-09-06T08:13:41Z</time>
      </trkpt>
      <trkpt lat="19.32313" lon="98.95337">
        <time>2019-09-06T08:13:42Z</time>
      </trkpt>
      <trkpt lat="19.32301" lon="98.95351">
        <time>2019-09-06T08:13:43Z</time>
      </trkpt>
      <trkpt lat="19.32286" lon="98.95355">
        <time>2019-09-06T08:13:44Z</time>
      </trkpt>
      <trkpt lat="19.32272" lon="98.95365">
        <time>2019-09-06T08:13:45Z</time>
      </trkpt>
      <trkpt lat="19.32259" lon="98.95375">
        <time>2019-09-06T08:13:46Z</time>
      </trkpt>
      <trkpt lat="19.32241" lon="98.95386">
        <time>2019-09-06T08:13:47Z</time>
      </trkpt>
      <trkpt lat="19.32219" lon="98.95403">
        <time>2019-09-06T08:13:48Z</time>
      </trkpt>
      <trkpt lat="19.32202" lon="98.95418">
        <time>2019-09-06T08:13:49Z</time>
      </trkpt>
      <trkpt lat="19.32185" lon="98.95433">
        <time>2019-09-06T08:13:50Z</time>
      </trkpt>
      <trkpt lat="19.32166" lon="98.95448">
        <time>2019-09-06T08:13:51Z</time>
      </trkpt>
      <trkpt lat="19.32147" lon="98.95465">
        <time>2019-09-06T08:13:52Z</time>
      </trkpt>
      <trkpt lat="19.32127" lon="98.95477">
        <time>2019-09-06T08:13:53Z</time>
      </trkpt>
      <trkpt lat="19.32107" lon="98.95491">
        <time>2019-09-06T08:13:54Z</time>
      </trkpt>
      <trkpt lat="19.32088" lon="98.95505">
        <time>2019-09-06T08:13:55Z</time>
      </trkpt>
      <trkpt lat="19.32066" lon="98.95517">
        <time>2019-09-06T08:13:56Z</time>
      </trkpt>
      <trkpt lat="19.32045" lon="98.9553">
        <time>2019-09-06T08:13:57Z</time>
      </trkpt>
      <trkpt lat="19.32026" lon="98.95542">
        <time>2019-09-06T08:13:58Z</time>
      </trkpt>
      <trkpt lat="19.32007" lon="98.95553">
        <time>2019-09-06T08:13:59Z</time>
      </trkpt>
      <trkpt lat="19.31987" lon="98.95563">
        <time>2019-09-06T08:14:00Z</time>
      </trkpt>
      <trkpt lat="19.31968" lon="98.95573">
        <time>2019-09-06T08:14:02Z</time>
      </trkpt>
      <trkpt lat="19.31946" lon="98.95582">
        <time>2019-09-06T08:14:02Z</time>
      </trkpt>
      <trkpt lat="19.31926" lon="98.95591">
        <time>2019-09-06T08:14:03Z</time>
      </trkpt>
      <trkpt lat="19.31906" lon="98.95602">
        <time>2019-09-06T08:14:04Z</time>
      </trkpt>
      <trkpt lat="19.31886" lon="98.95612">
        <time>2019-09-06T08:14:05Z</time>
      </trkpt>
      <trkpt lat="19.31867" lon="98.95624">
        <time>2019-09-06T08:14:06Z</time>
      </trkpt>
      <trkpt lat="19.31855" lon="98.95638">
        <time>2019-09-06T08:14:07Z</time>
      </trkpt>
      <trkpt lat="19.31833" lon="98.95642">
        <time>2019-09-06T08:14:08Z</time>
      </trkpt>
      <trkpt lat="19.3181" lon="98.95646">
        <time>2019-09-06T08:14:09Z</time>
      </trkpt>
      <trkpt lat="19.31788" lon="98.95649">
        <time>2019-09-06T08:14:10Z</time>
      </trkpt>
      <trkpt lat="19.31766" lon="98.9565">
        <time>2019-09-06T08:14:11Z</time>
      </trkpt>
      <trkpt lat="19.3174" lon="98.95649">
        <time>2019-09-06T08:14:12Z</time>
      </trkpt>
      <trkpt lat="19.31716" lon="98.95648">
        <time>2019-09-06T08:14:13Z</time>
      </trkpt>
      <trkpt lat="19.31692" lon="98.95647">
        <time>2019-09-06T08:14:14Z</time>
      </trkpt>
      <trkpt lat="19.31667" lon="98.95646">
        <time>2019-09-06T08:14:15Z</time>
      </trkpt>
      <trkpt lat="19.31641" lon="98.95646">
        <time>2019-09-06T08:14:16Z</time>
      </trkpt>
      <trkpt lat="19.31615" lon="98.95645">
        <time>2019-09-06T08:14:17Z</time>
      </trkpt>
      <trkpt lat="19.31591" lon="98.95647">
        <time>2019-09-06T08:14:18Z</time>
      </trkpt>
      <trkpt lat="19.31565" lon="98.95648">
        <time>2019-09-06T08:14:19Z</time>
      </trkpt>
      <trkpt lat="19.3154" lon="98.95651">
        <time>2019-09-06T08:14:20Z</time>
      </trkpt>
      <trkpt lat="19.31516" lon="98.95656">
        <time>2019-09-06T08:14:21Z</time>
      </trkpt>
      <trkpt lat="19.31494" lon="98.95661">
        <time>2019-09-06T08:14:22Z</time>
      </trkpt>
      <trkpt lat="19.31469" lon="98.95666">
        <time>2019-09-06T08:14:23Z</time>
      </trkpt>
      <trkpt lat="19.31446" lon="98.95673">
        <time>2019-09-06T08:14:24Z</time>
      </trkpt>
      <trkpt lat="19.31426" lon="98.9568">
        <time>2019-09-06T08:14:25Z</time>
      </trkpt>
      <trkpt lat="19.31402" lon="98.95686">
        <time>2019-09-06T08:14:26Z</time>
      </trkpt>
      <trkpt lat="19.31379" lon="98.95693">
        <time>2019-09-06T08:14:27Z</time>
      </trkpt>
      <trkpt lat="19.31355" lon="98.95698">
        <time>2019-09-06T08:14:28Z</time>
      </trkpt>
      <trkpt lat="19.31332" lon="98.95703">
        <time>2019-09-06T08:14:29Z</time>
      </trkpt>
      <trkpt lat="19.31308" lon="98.95709">
        <time>2019-09-06T08:14:30Z</time>
      </trkpt>
      <trkpt lat="19.31284" lon="98.95712">
        <time>2019-09-06T08:14:31Z</time>
      </trkpt>
      <trkpt lat="19.3126" lon="98.95715">
        <time>2019-09-06T08:14:32Z</time>
      </trkpt>
      <trkpt lat="19.31235" lon="98.95717">
        <time>2019-09-06T08:14:33Z</time>
      </trkpt>
      <trkpt lat="19.3121" lon="98.95717">
        <time>2019-09-06T08:14:34Z</time>
      </trkpt>
      <trkpt lat="19.31187" lon="98.95719">
        <time>2019-09-06T08:14:35Z</time>
      </trkpt>
      <trkpt lat="19.31162" lon="98.95719">
        <time>2019-09-06T08:14:36Z</time>
      </trkpt>
      <trkpt lat="19.31138" lon="98.95718">
        <time>2019-09-06T08:14:37Z</time>
      </trkpt>
      <trkpt lat="19.31113" lon="98.95718">
        <time>2019-09-06T08:14:38Z</time>
      </trkpt>
      <trkpt lat="19.31087" lon="98.95716">
        <time>2019-09-06T08:14:39Z</time>
      </trkpt>
      <trkpt lat="19.31063" lon="98.95715">
        <time>2019-09-06T08:14:40Z</time>
      </trkpt>
      <trkpt lat="19.31037" lon="98.95712">
        <time>2019-09-06T08:14:41Z</time>
      </trkpt>
      <trkpt lat="19.31012" lon="98.9571">
        <time>2019-09-06T08:14:42Z</time>
      </trkpt>
      <trkpt lat="19.30986" lon="98.95709">
        <time>2019-09-06T08:14:43Z</time>
      </trkpt>
      <trkpt lat="19.3096" lon="98.95708">
        <time>2019-09-06T08:14:44Z</time>
      </trkpt>
      <trkpt lat="19.30936" lon="98.95707">
        <time>2019-09-06T08:14:45Z</time>
      </trkpt>
      <trkpt lat="19.30911" lon="98.95707">
        <time>2019-09-06T08:14:46Z</time>
      </trkpt>
      <trkpt lat="19.30885" lon="98.95708">
        <time>2019-09-06T08:14:48Z</time>
      </trkpt>
      <trkpt lat="19.30861" lon="98.95709">
        <time>2019-09-06T08:14:48Z</time>
      </trkpt>
      <trkpt lat="19.30835" lon="98.95709">
        <time>2019-09-06T08:14:49Z</time>
      </trkpt>
      <trkpt lat="19.30809" lon="98.9571">
        <time>2019-09-06T08:14:50Z</time>
      </trkpt>
      <trkpt lat="19.30783" lon="98.95711">
        <time>2019-09-06T08:14:51Z</time>
      </trkpt>
      <trkpt lat="19.30758" lon="98.95712">
        <time>2019-09-06T08:14:52Z</time>
      </trkpt>
      <trkpt lat="19.30732" lon="98.95713">
        <time>2019-09-06T08:14:53Z</time>
      </trkpt>
      <trkpt lat="19.30707" lon="98.95715">
        <time>2019-09-06T08:14:54Z</time>
      </trkpt>
      <trkpt lat="19.30681" lon="98.95715">
        <time>2019-09-06T08:14:55Z</time>
      </trkpt>
      <trkpt lat="19.30656" lon="98.95716">
        <time>2019-09-06T08:14:56Z</time>
      </trkpt>
      <trkpt lat="19.30629" lon="98.95716">
        <time>2019-09-06T08:14:57Z</time>
      </trkpt>
      <trkpt lat="19.30604" lon="98.95715">
        <time>2019-09-06T08:14:58Z</time>
      </trkpt>
      <trkpt lat="19.30578" lon="98.95714">
        <time>2019-09-06T08:14:59Z</time>
      </trkpt>
      <trkpt lat="19.30553" lon="98.95712">
        <time>2019-09-06T08:15:00Z</time>
      </trkpt>
      <trkpt lat="19.30527" lon="98.95711">
        <time>2019-09-06T08:15:01Z</time>
      </trkpt>
      <trkpt lat="19.30501" lon="98.95709">
        <time>2019-09-06T08:15:02Z</time>
      </trkpt>
      <trkpt lat="19.30476" lon="98.95707">
        <time>2019-09-06T08:15:03Z</time>
      </trkpt>
      <trkpt lat="19.3045" lon="98.95705">
        <time>2019-09-06T08:15:04Z</time>
      </trkpt>
      <trkpt lat="19.30425" lon="98.95703">
        <time>2019-09-06T08:15:05Z</time>
      </trkpt>
      <trkpt lat="19.304" lon="98.95701">
        <time>2019-09-06T08:15:06Z</time>
      </trkpt>
      <trkpt lat="19.30374" lon="98.95698">
        <time>2019-09-06T08:15:07Z</time>
      </trkpt>
      <trkpt lat="19.30349" lon="98.95696">
        <time>2019-09-06T08:15:08Z</time>
      </trkpt>
      <trkpt lat="19.30324" lon="98.95693">
        <time>2019-09-06T08:15:09Z</time>
      </trkpt>
      <trkpt lat="19.303" lon="98.9569">
        <time>2019-09-06T08:15:10Z</time>
      </trkpt>
      <trkpt lat="19.30276" lon="98.95686">
        <time>2019-09-06T08:15:11Z</time>
      </trkpt>
      <trkpt lat="19.30252" lon="98.95683">
        <time>2019-09-06T08:15:12Z</time>
      </trkpt>
      <trkpt lat="19.30229" lon="98.9568">
        <time>2019-09-06T08:15:13Z</time>
      </trkpt>
      <trkpt lat="19.30205" lon="98.95676">
        <time>2019-09-06T08:15:14Z</time>
      </trkpt>
      <trkpt lat="19.30183" lon="98.95673">
        <time>2019-09-06T08:15:15Z</time>
      </trkpt>
      <trkpt lat="19.30161" lon="98.95672">
        <time>2019-09-06T08:15:16Z</time>
      </trkpt>
      <trkpt lat="19.30138" lon="98.95669">
        <time>2019-09-06T08:15:17Z</time>
      </trkpt>
      <trkpt lat="19.30114" lon="98.95665">
        <time>2019-09-06T08:15:18Z</time>
      </trkpt>
      <trkpt lat="19.30095" lon="98.95663">
        <time>2019-09-06T08:15:19Z</time>
      </trkpt>
      <trkpt lat="19.30075" lon="98.95661">
        <time>2019-09-06T08:15:20Z</time>
      </trkpt>
      <trkpt lat="19.30055" lon="98.95659">
        <time>2019-09-06T08:15:21Z</time>
      </trkpt>
      <trkpt lat="19.30035" lon="98.95658">
        <time>2019-09-06T08:15:22Z</time>
      </trkpt>
      <trkpt lat="19.30024" lon="98.95664">
        <time>2019-09-06T08:15:23Z</time>
      </trkpt>
      <trkpt lat="19.30016" lon="98.95677">
        <time>2019-09-06T08:15:24Z</time>
      </trkpt>
      <trkpt lat="19.30005" lon="98.95688">
        <time>2019-09-06T08:15:25Z</time>
      </trkpt>
      <trkpt lat="19.29994" lon="98.95699">
        <time>2019-09-06T08:15:26Z</time>
      </trkpt>
      <trkpt lat="19.29981" lon="98.9571">
        <time>2019-09-06T08:15:27Z</time>
      </trkpt>
      <trkpt lat="19.29965" lon="98.95724">
        <time>2019-09-06T08:15:28Z</time>
      </trkpt>
      <trkpt lat="19.29951" lon="98.95739">
        <time>2019-09-06T08:15:29Z</time>
      </trkpt>
      <trkpt lat="19.29935" lon="98.95756">
        <time>2019-09-06T08:15:30Z</time>
      </trkpt>
      <trkpt lat="19.29919" lon="98.95772">
        <time>2019-09-06T08:15:31Z</time>
      </trkpt>
      <trkpt lat="19.29905" lon="98.95792">
        <time>2019-09-06T08:15:32Z</time>
      </trkpt>
      <trkpt lat="19.2989" lon="98.95811">
        <time>2019-09-06T08:15:33Z</time>
      </trkpt>
      <trkpt lat="19.29877" lon="98.95828">
        <time>2019-09-06T08:15:34Z</time>
      </trkpt>
      <trkpt lat="19.29867" lon="98.95845">
        <time>2019-09-06T08:15:35Z</time>
      </trkpt>
      <trkpt lat="19.29853" lon="98.95863">
        <time>2019-09-06T08:15:36Z</time>
      </trkpt>
      <trkpt lat="19.29842" lon="98.9588">
        <time>2019-09-06T08:15:37Z</time>
      </trkpt>
      <trkpt lat="19.29831" lon="98.95897">
        <time>2019-09-06T08:15:38Z</time>
      </trkpt>
      <trkpt lat="19.29818" lon="98.95915">
        <time>2019-09-06T08:15:39Z</time>
      </trkpt>
      <trkpt lat="19.29811" lon="98.95926">
        <time>2019-09-06T08:15:40Z</time>
      </trkpt>
      <trkpt lat="19.29801" lon="98.9594">
        <time>2019-09-06T08:15:41Z</time>
      </trkpt>
      <trkpt lat="19.29791" lon="98.95955">
        <time>2019-09-06T08:15:42Z</time>
      </trkpt>
      <trkpt lat="19.2978" lon="98.95971">
        <time>2019-09-06T08:15:43Z</time>
      </trkpt>
      <trkpt lat="19.2977" lon="98.95988">
        <time>2019-09-06T08:15:44Z</time>
      </trkpt>
      <trkpt lat="19.29758" lon="98.96004">
        <time>2019-09-06T08:15:45Z</time>
      </trkpt>
      <trkpt lat="19.29748" lon="98.96021">
        <time>2019-09-06T08:15:46Z</time>
      </trkpt>
      <trkpt lat="19.29739" lon="98.96036">
        <time>2019-09-06T08:15:47Z</time>
      </trkpt>
      <trkpt lat="19.2973" lon="98.96054">
        <time>2019-09-06T08:15:48Z</time>
      </trkpt>
      <trkpt lat="19.2972" lon="98.96071">
        <time>2019-09-06T08:15:49Z</time>
      </trkpt>
      <trkpt lat="19.29711" lon="98.9609">
        <time>2019-09-06T08:15:50Z</time>
      </trkpt>
      <trkpt lat="19.29701" lon="98.96108">
        <time>2019-09-06T08:15:51Z</time>
      </trkpt>
      <trkpt lat="19.29692" lon="98.96123">
        <time>2019-09-06T08:15:52Z</time>
      </trkpt>
      <trkpt lat="19.29683" lon="98.96138">
        <time>2019-09-06T08:15:53Z</time>
      </trkpt>
      <trkpt lat="19.29672" lon="98.96154">
        <time>2019-09-06T08:15:54Z</time>
      </trkpt>
      <trkpt lat="19.29663" lon="98.96169">
        <time>2019-09-06T08:15:55Z</time>
      </trkpt>
      <trkpt lat="19.29653" lon="98.96185">
        <time>2019-09-06T08:15:56Z</time>
      </trkpt>
      <trkpt lat="19.29645" lon="98.962">
        <time>2019-09-06T08:15:57Z</time>
      </trkpt>
      <trkpt lat="19.29634" lon="98.96215">
        <time>2019-09-06T08:15:58Z</time>
      </trkpt>
      <trkpt lat="19.29622" lon="98.9623">
        <time>2019-09-06T08:15:59Z</time>
      </trkpt>
      <trkpt lat="19.2961" lon="98.96244">
        <time>2019-09-06T08:16:00Z</time>
      </trkpt>
      <trkpt lat="19.29599" lon="98.96257">
        <time>2019-09-06T08:16:01Z</time>
      </trkpt>
      <trkpt lat="19.29585" lon="98.96271">
        <time>2019-09-06T08:16:02Z</time>
      </trkpt>
      <trkpt lat="19.29526" lon="98.96315">
        <time>2019-09-06T08:16:06Z</time>
      </trkpt>
      <trkpt lat="19.29509" lon="98.96325">
        <time>2019-09-06T08:16:07Z</time>
      </trkpt>
      <trkpt lat="19.29491" lon="98.96336">
        <time>2019-09-06T08:16:08Z</time>
      </trkpt>
      <trkpt lat="19.29476" lon="98.96352">
        <time>2019-09-06T08:16:09Z</time>
      </trkpt>
      <trkpt lat="19.29457" lon="98.96357">
        <time>2019-09-06T08:16:10Z</time>
      </trkpt>
      <trkpt lat="19.29443" lon="98.96366">
        <time>2019-09-06T08:16:11Z</time>
      </trkpt>
      <trkpt lat="19.29426" lon="98.96372">
        <time>2019-09-06T08:16:12Z</time>
      </trkpt>
      <trkpt lat="19.29409" lon="98.96375">
        <time>2019-09-06T08:16:13Z</time>
      </trkpt>
      <trkpt lat="19.29394" lon="98.96371">
        <time>2019-09-06T08:16:14Z</time>
      </trkpt>
      <trkpt lat="19.29377" lon="98.96379">
        <time>2019-09-06T08:16:15Z</time>
      </trkpt>
      <trkpt lat="19.29361" lon="98.96389">
        <time>2019-09-06T08:16:16Z</time>
      </trkpt>
      <trkpt lat="19.29347" lon="98.96403">
        <time>2019-09-06T08:16:17Z</time>
      </trkpt>
      <trkpt lat="19.29335" lon="98.96412">
        <time>2019-09-06T08:16:18Z</time>
      </trkpt>
      <trkpt lat="19.29321" lon="98.96416">
        <time>2019-09-06T08:16:19Z</time>
      </trkpt>
      <trkpt lat="19.29302" lon="98.96419">
        <time>2019-09-06T08:16:20Z</time>
      </trkpt>
      <trkpt lat="19.29288" lon="98.96425">
        <time>2019-09-06T08:16:21Z</time>
      </trkpt>
      <trkpt lat="19.29272" lon="98.96423">
        <time>2019-09-06T08:16:22Z</time>
      </trkpt>
      <trkpt lat="19.29258" lon="98.96426">
        <time>2019-09-06T08:16:23Z</time>
      </trkpt>
      <trkpt lat="19.29239" lon="98.96424">
        <time>2019-09-06T08:16:24Z</time>
      </trkpt>
      <trkpt lat="19.29224" lon="98.96423">
        <time>2019-09-06T08:16:25Z</time>
      </trkpt>
      <trkpt lat="19.29213" lon="98.96423">
        <time>2019-09-06T08:16:26Z</time>
      </trkpt>
      <trkpt lat="19.29205" lon="98.96422">
        <time>2019-09-06T08:16:27Z</time>
      </trkpt>
      <trkpt lat="19.29192" lon="98.9642">
        <time>2019-09-06T08:16:29Z</time>
      </trkpt>
      <trkpt lat="19.29172" lon="98.9642">
        <time>2019-09-06T08:16:29Z</time>
      </trkpt>
      <trkpt lat="19.29157" lon="98.96418">
        <time>2019-09-06T08:16:30Z</time>
      </trkpt>
      <trkpt lat="19.2914" lon="98.96417">
        <time>2019-09-06T08:16:31Z</time>
      </trkpt>
      <trkpt lat="19.29126" lon="98.96417">
        <time>2019-09-06T08:16:32Z</time>
      </trkpt>
      <trkpt lat="19.29106" lon="98.96417">
        <time>2019-09-06T08:16:33Z</time>
      </trkpt>
      <trkpt lat="19.29084" lon="98.96415">
        <time>2019-09-06T08:16:34Z</time>
      </trkpt>
      <trkpt lat="19.29064" lon="98.96416">
        <time>2019-09-06T08:16:35Z</time>
      </trkpt>
      <trkpt lat="19.29043" lon="98.96412">
        <time>2019-09-06T08:16:36Z</time>
      </trkpt>
      <trkpt lat="19.29023" lon="98.96409">
        <time>2019-09-06T08:16:37Z</time>
      </trkpt>
      <trkpt lat="19.29006" lon="98.96408">
        <time>2019-09-06T08:16:38Z</time>
      </trkpt>
      <trkpt lat="19.2899" lon="98.96403">
        <time>2019-09-06T08:16:39Z</time>
      </trkpt>
      <trkpt lat="19.28975" lon="98.96403">
        <time>2019-09-06T08:16:40Z</time>
      </trkpt>
      <trkpt lat="19.2896" lon="98.96402">
        <time>2019-09-06T08:16:41Z</time>
      </trkpt>
      <trkpt lat="19.28947" lon="98.96407">
        <time>2019-09-06T08:16:42Z</time>
      </trkpt>
      <trkpt lat="19.28934" lon="98.96409">
        <time>2019-09-06T08:16:43Z</time>
      </trkpt>
      <trkpt lat="19.28921" lon="98.9641">
        <time>2019-09-06T08:16:44Z</time>
      </trkpt>
      <trkpt lat="19.28911" lon="98.96416">
        <time>2019-09-06T08:16:45Z</time>
      </trkpt>
      <trkpt lat="19.28901" lon="98.96421">
        <time>2019-09-06T08:16:46Z</time>
      </trkpt>
      <trkpt lat="19.28894" lon="98.96432">
        <time>2019-09-06T08:16:47Z</time>
      </trkpt>
      <trkpt lat="19.28886" lon="98.96438">
        <time>2019-09-06T08:16:48Z</time>
      </trkpt>
      <trkpt lat="19.2888" lon="98.96446">
        <time>2019-09-06T08:16:49Z</time>
      </trkpt>
      <trkpt lat="19.28874" lon="98.96453">
        <time>2019-09-06T08:16:50Z</time>
      </trkpt>
      <trkpt lat="19.28872" lon="98.96465">
        <time>2019-09-06T08:16:51Z</time>
      </trkpt>
      <trkpt lat="19.2887" lon="98.96472">
        <time>2019-09-06T08:16:52Z</time>
      </trkpt>
      <trkpt lat="19.28873" lon="98.96484">
        <time>2019-09-06T08:16:53Z</time>
      </trkpt>
      <trkpt lat="19.28873" lon="98.96501">
        <time>2019-09-06T08:16:54Z</time>
      </trkpt>
      <trkpt lat="19.28873" lon="98.96514">
        <time>2019-09-06T08:16:55Z</time>
      </trkpt>
      <trkpt lat="19.28871" lon="98.96532">
        <time>2019-09-06T08:16:56Z</time>
      </trkpt>
      <trkpt lat="19.28867" lon="98.96551">
        <time>2019-09-06T08:16:57Z</time>
      </trkpt>
      <trkpt lat="19.28865" lon="98.96567">
        <time>2019-09-06T08:16:58Z</time>
      </trkpt>
      <trkpt lat="19.28862" lon="98.96581">
        <time>2019-09-06T08:16:59Z</time>
      </trkpt>
      <trkpt lat="19.28857" lon="98.96594">
        <time>2019-09-06T08:17:00Z</time>
      </trkpt>
      <trkpt lat="19.28853" lon="98.96606">
        <time>2019-09-06T08:17:01Z</time>
      </trkpt>
      <trkpt lat="19.28848" lon="98.96619">
        <time>2019-09-06T08:17:02Z</time>
      </trkpt>
      <trkpt lat="19.28838" lon="98.96633">
        <time>2019-09-06T08:17:03Z</time>
      </trkpt>
      <trkpt lat="19.28827" lon="98.96645">
        <time>2019-09-06T08:17:04Z</time>
      </trkpt>
      <trkpt lat="19.28802" lon="98.96636">
        <time>2019-09-06T08:17:05Z</time>
      </trkpt>
      <trkpt lat="19.28779" lon="98.96632">
        <time>2019-09-06T08:17:06Z</time>
      </trkpt>
      <trkpt lat="19.28756" lon="98.9663">
        <time>2019-09-06T08:17:07Z</time>
      </trkpt>
      <trkpt lat="19.28739" lon="98.96628">
        <time>2019-09-06T08:17:08Z</time>
      </trkpt>
      <trkpt lat="19.28721" lon="98.9663">
        <time>2019-09-06T08:17:09Z</time>
      </trkpt>
      <trkpt lat="19.287" lon="98.96632">
        <time>2019-09-06T08:17:10Z</time>
      </trkpt>
      <trkpt lat="19.28678" lon="98.9663">
        <time>2019-09-06T08:17:11Z</time>
      </trkpt>
      <trkpt lat="19.28658" lon="98.96632">
        <time>2019-09-06T08:17:12Z</time>
      </trkpt>
      <trkpt lat="19.2865" lon="98.96646">
        <time>2019-09-06T08:17:13Z</time>
      </trkpt>
      <trkpt lat="19.28638" lon="98.96662">
        <time>2019-09-06T08:17:14Z</time>
      </trkpt>
      <trkpt lat="19.28628" lon="98.96677">
        <time>2019-09-06T08:17:15Z</time>
      </trkpt>
      <trkpt lat="19.28621" lon="98.96696">
        <time>2019-09-06T08:17:16Z</time>
      </trkpt>
      <trkpt lat="19.28611" lon="98.96711">
        <time>2019-09-06T08:17:17Z</time>
      </trkpt>
      <trkpt lat="19.28604" lon="98.96729">
        <time>2019-09-06T08:17:18Z</time>
      </trkpt>
      <trkpt lat="19.286" lon="98.9675">
        <time>2019-09-06T08:17:19Z</time>
      </trkpt>
      <trkpt lat="19.28596" lon="98.96763">
        <time>2019-09-06T08:17:20Z</time>
      </trkpt>
      <trkpt lat="19.2859" lon="98.96779">
        <time>2019-09-06T08:17:21Z</time>
      </trkpt>
      <trkpt lat="19.28584" lon="98.9679">
        <time>2019-09-06T08:17:22Z</time>
      </trkpt>
      <trkpt lat="19.28578" lon="98.96801">
        <time>2019-09-06T08:17:23Z</time>
      </trkpt>
      <trkpt lat="19.28568" lon="98.96813">
        <time>2019-09-06T08:17:24Z</time>
      </trkpt>
      <trkpt lat="19.28555" lon="98.96822">
        <time>2019-09-06T08:17:25Z</time>
      </trkpt>
      <trkpt lat="19.28539" lon="98.96827">
        <time>2019-09-06T08:17:26Z</time>
      </trkpt>
      <trkpt lat="19.28525" lon="98.96831">
        <time>2019-09-06T08:17:27Z</time>
      </trkpt>
      <trkpt lat="19.28517" lon="98.96834">
        <time>2019-09-06T08:17:28Z</time>
      </trkpt>
      <trkpt lat="19.28506" lon="98.96831">
        <time>2019-09-06T08:17:29Z</time>
      </trkpt>
      <trkpt lat="19.28494" lon="98.96829">
        <time>2019-09-06T08:17:30Z</time>
      </trkpt>
      <trkpt lat="19.28482" lon="98.96826">
        <time>2019-09-06T08:17:31Z</time>
      </trkpt>
      <trkpt lat="19.28469" lon="98.96819">
        <time>2019-09-06T08:17:32Z</time>
      </trkpt>
      <trkpt lat="19.28465" lon="98.96821">
        <time>2019-09-06T08:17:33Z</time>
      </trkpt>
      <trkpt lat="19.28458" lon="98.96822">
        <time>2019-09-06T08:17:34Z</time>
      </trkpt>
      <trkpt lat="19.28453" lon="98.96821">
        <time>2019-09-06T08:17:35Z</time>
      </trkpt>
      <trkpt lat="19.28447" lon="98.96821">
        <time>2019-09-06T08:17:36Z</time>
      </trkpt>
      <trkpt lat="19.28442" lon="98.96822">
        <time>2019-09-06T08:17:37Z</time>
      </trkpt>
      <trkpt lat="19.28441" lon="98.96824">
        <time>2019-09-06T08:17:38Z</time>
      </trkpt>
      <trkpt lat="19.28438" lon="98.96824">
        <time>2019-09-06T08:17:39Z</time>
      </trkpt>
      <trkpt lat="19.28436" lon="98.96824">
        <time>2019-09-06T08:17:40Z</time>
      </trkpt>
      <trkpt lat="19.28434" lon="98.96824">
        <time>2019-09-06T08:17:41Z</time>
      </trkpt>
      <trkpt lat="19.28432" lon="98.96824">
        <time>2019-09-06T08:17:42Z</time>
      </trkpt>
      <trkpt lat="19.28431" lon="98.96823">
        <time>2019-09-06T08:17:43Z</time>
      </trkpt>
      <trkpt lat="19.28428" lon="98.96823">
        <time>2019-09-06T08:17:44Z</time>
      </trkpt>
      <trkpt lat="19.28425" lon="98.96823">
        <time>2019-09-06T08:17:45Z</time>
      </trkpt>
      <trkpt lat="19.28426" lon="98.96824">
        <time>2019-09-06T08:17:46Z</time>
      </trkpt>
      <trkpt lat="19.28425" lon="98.96824">
        <time>2019-09-06T08:17:49Z</time>
      </trkpt>
      <trkpt lat="19.28423" lon="98.96823">
        <time>2019-09-06T08:17:50Z</time>
      </trkpt>
      <trkpt lat="19.28422" lon="98.96823">
        <time>2019-09-06T08:17:51Z</time>
      </trkpt>
      <trkpt lat="19.2842" lon="98.96823">
        <time>2019-09-06T08:17:52Z</time>
      </trkpt>
      <trkpt lat="19.28419" lon="98.96823">
        <time>2019-09-06T08:17:53Z</time>
      </trkpt>
      <trkpt lat="19.28418" lon="98.96823">
        <time>2019-09-06T08:17:54Z</time>
      </trkpt>
      <trkpt lat="19.28416" lon="98.96823">
        <time>2019-09-06T08:17:55Z</time>
      </trkpt>
      <trkpt lat="19.28414" lon="98.96823">
        <time>2019-09-06T08:17:56Z</time>
      </trkpt>
      <trkpt lat="19.28412" lon="98.96822">
        <time>2019-09-06T08:17:59Z</time>
      </trkpt>
      <trkpt lat="19.28411" lon="98.96821">
        <time>2019-09-06T08:18:00Z</time>
      </trkpt>
      <trkpt lat="19.2841" lon="98.9682">
        <time>2019-09-06T08:18:01Z</time>
      </trkpt>
      <trkpt lat="19.28408" lon="98.9682">
        <time>2019-09-06T08:18:02Z</time>
      </trkpt>
      <trkpt lat="19.28407" lon="98.96821">
        <time>2019-09-06T08:18:03Z</time>
      </trkpt>
      <trkpt lat="19.28406" lon="98.96822">
        <time>2019-09-06T08:18:04Z</time>
      </trkpt>
      <trkpt lat="19.28405" lon="98.96823">
        <time>2019-09-06T08:18:05Z</time>
      </trkpt>
      <trkpt lat="19.28405" lon="98.96824">
        <time>2019-09-06T08:18:06Z</time>
      </trkpt>
      <trkpt lat="19.28404" lon="98.96824">
        <time>2019-09-06T08:18:07Z</time>
      </trkpt>
      <trkpt lat="19.28402" lon="98.96824">
        <time>2019-09-06T08:18:08Z</time>
      </trkpt>
      <trkpt lat="19.28401" lon="98.96824">
        <time>2019-09-06T08:18:09Z</time>
      </trkpt>
      <trkpt lat="19.28399" lon="98.96824">
        <time>2019-09-06T08:18:10Z</time>
      </trkpt>
      <trkpt lat="19.28397" lon="98.96824">
        <time>2019-09-06T08:18:11Z</time>
      </trkpt>
      <trkpt lat="19.28396" lon="98.96824">
        <time>2019-09-06T08:18:12Z</time>
      </trkpt>
      <trkpt lat="19.28394" lon="98.96824">
        <time>2019-09-06T08:18:13Z</time>
      </trkpt>
      <trkpt lat="19.28393" lon="98.96825">
        <time>2019-09-06T08:18:14Z</time>
      </trkpt>
      <trkpt lat="19.28391" lon="98.96825">
        <time>2019-09-06T08:18:15Z</time>
      </trkpt>
      <trkpt lat="19.28389" lon="98.96826">
        <time>2019-09-06T08:18:16Z</time>
      </trkpt>
      <trkpt lat="19.28388" lon="98.96826">
        <time>2019-09-06T08:18:17Z</time>
      </trkpt>
      <trkpt lat="19.28386" lon="98.96826">
        <time>2019-09-06T08:18:18Z</time>
      </trkpt>
      <trkpt lat="19.28385" lon="98.96827">
        <time>2019-09-06T08:18:19Z</time>
      </trkpt>
      <trkpt lat="19.28384" lon="98.96827">
        <time>2019-09-06T08:18:20Z</time>
      </trkpt>
      <trkpt lat="19.28382" lon="98.96828">
        <time>2019-09-06T08:18:21Z</time>
      </trkpt>
      <trkpt lat="19.28379" lon="98.96829">
        <time>2019-09-06T08:18:22Z</time>
      </trkpt>
      <trkpt lat="19.28376" lon="98.96829">
        <time>2019-09-06T08:18:23Z</time>
      </trkpt>
      <trkpt lat="19.28372" lon="98.9683">
        <time>2019-09-06T08:18:24Z</time>
      </trkpt>
      <trkpt lat="19.28365" lon="98.96832">
        <time>2019-09-06T08:18:25Z</time>
      </trkpt>
      <trkpt lat="19.2836" lon="98.96833">
        <time>2019-09-06T08:18:27Z</time>
      </trkpt>
      <trkpt lat="19.28354" lon="98.96835">
        <time>2019-09-06T08:18:27Z</time>
      </trkpt>
      <trkpt lat="19.28349" lon="98.96837">
        <time>2019-09-06T08:18:28Z</time>
      </trkpt>
      <trkpt lat="19.2834" lon="98.96839">
        <time>2019-09-06T08:18:29Z</time>
      </trkpt>
      <trkpt lat="19.28332" lon="98.96841">
        <time>2019-09-06T08:18:30Z</time>
      </trkpt>
      <trkpt lat="19.28324" lon="98.96843">
        <time>2019-09-06T08:18:31Z</time>
      </trkpt>
      <trkpt lat="19.28316" lon="98.96845">
        <time>2019-09-06T08:18:32Z</time>
      </trkpt>
      <trkpt lat="19.28306" lon="98.96848">
        <time>2019-09-06T08:18:33Z</time>
      </trkpt>
      <trkpt lat="19.28297" lon="98.96848">
        <time>2019-09-06T08:18:34Z</time>
      </trkpt>
      <trkpt lat="19.28286" lon="98.96848">
        <time>2019-09-06T08:18:35Z</time>
      </trkpt>
      <trkpt lat="19.28277" lon="98.96847">
        <time>2019-09-06T08:18:36Z</time>
      </trkpt>
      <trkpt lat="19.28262" lon="98.96847">
        <time>2019-09-06T08:18:37Z</time>
      </trkpt>
      <trkpt lat="19.2825" lon="98.96846">
        <time>2019-09-06T08:18:38Z</time>
      </trkpt>
      <trkpt lat="19.28233" lon="98.96838">
        <time>2019-09-06T08:18:39Z</time>
      </trkpt>
      <trkpt lat="19.28216" lon="98.96833">
        <time>2019-09-06T08:18:40Z</time>
      </trkpt>
      <trkpt lat="19.28198" lon="98.96826">
        <time>2019-09-06T08:18:41Z</time>
      </trkpt>
      <trkpt lat="19.2818" lon="98.96819">
        <time>2019-09-06T08:18:42Z</time>
      </trkpt>
      <trkpt lat="19.28159" lon="98.96803">
        <time>2019-09-06T08:18:43Z</time>
      </trkpt>
      <trkpt lat="19.28143" lon="98.96786">
        <time>2019-09-06T08:18:44Z</time>
      </trkpt>
      <trkpt lat="19.28128" lon="98.96779">
        <time>2019-09-06T08:18:45Z</time>
      </trkpt>
      <trkpt lat="19.28116" lon="98.96765">
        <time>2019-09-06T08:18:46Z</time>
      </trkpt>
      <trkpt lat="19.281" lon="98.96753">
        <time>2019-09-06T08:18:47Z</time>
      </trkpt>
      <trkpt lat="19.28086" lon="98.9674">
        <time>2019-09-06T08:18:48Z</time>
      </trkpt>
      <trkpt lat="19.28071" lon="98.96731">
        <time>2019-09-06T08:18:49Z</time>
      </trkpt>
      <trkpt lat="19.28064" lon="98.96718">
        <time>2019-09-06T08:18:50Z</time>
      </trkpt>
      <trkpt lat="19.28058" lon="98.96705">
        <time>2019-09-06T08:18:51Z</time>
      </trkpt>
      <trkpt lat="19.28049" lon="98.96693">
        <time>2019-09-06T08:18:52Z</time>
      </trkpt>
      <trkpt lat="19.28035" lon="98.96684">
        <time>2019-09-06T08:18:53Z</time>
      </trkpt>
      <trkpt lat="19.28022" lon="98.96679">
        <time>2019-09-06T08:18:54Z</time>
      </trkpt>
      <trkpt lat="19.28004" lon="98.96687">
        <time>2019-09-06T08:18:55Z</time>
      </trkpt>
      <trkpt lat="19.27988" lon="98.96686">
        <time>2019-09-06T08:18:56Z</time>
      </trkpt>
      <trkpt lat="19.27972" lon="98.9669">
        <time>2019-09-06T08:18:57Z</time>
      </trkpt>
      <trkpt lat="19.27957" lon="98.96691">
        <time>2019-09-06T08:18:58Z</time>
      </trkpt>
      <trkpt lat="19.27941" lon="98.96694">
        <time>2019-09-06T08:18:59Z</time>
      </trkpt>
      <trkpt lat="19.27927" lon="98.96698">
        <time>2019-09-06T08:19:00Z</time>
      </trkpt>
      <trkpt lat="19.27909" lon="98.96704">
        <time>2019-09-06T08:19:01Z</time>
      </trkpt>
      <trkpt lat="19.27897" lon="98.96706">
        <time>2019-09-06T08:19:02Z</time>
      </trkpt>
      <trkpt lat="19.27887" lon="98.96708">
        <time>2019-09-06T08:19:03Z</time>
      </trkpt>
      <trkpt lat="19.27871" lon="98.96718">
        <time>2019-09-06T08:19:04Z</time>
      </trkpt>
      <trkpt lat="19.27859" lon="98.96719">
        <time>2019-09-06T08:19:05Z</time>
      </trkpt>
      <trkpt lat="19.27847" lon="98.96721">
        <time>2019-09-06T08:19:06Z</time>
      </trkpt>
      <trkpt lat="19.27836" lon="98.96727">
        <time>2019-09-06T08:19:07Z</time>
      </trkpt>
      <trkpt lat="19.27824" lon="98.96732">
        <time>2019-09-06T08:19:08Z</time>
      </trkpt>
      <trkpt lat="19.27815" lon="98.96743">
        <time>2019-09-06T08:19:09Z</time>
      </trkpt>
      <trkpt lat="19.27802" lon="98.96753">
        <time>2019-09-06T08:19:10Z</time>
      </trkpt>
      <trkpt lat="19.27792" lon="98.9676">
        <time>2019-09-06T08:19:11Z</time>
      </trkpt>
      <trkpt lat="19.27784" lon="98.96782">
        <time>2019-09-06T08:19:12Z</time>
      </trkpt>
      <trkpt lat="19.27781" lon="98.96794">
        <time>2019-09-06T08:19:13Z</time>
      </trkpt>
      <trkpt lat="19.27774" lon="98.96805">
        <time>2019-09-06T08:19:14Z</time>
      </trkpt>
      <trkpt lat="19.27782" lon="98.96825">
        <time>2019-09-06T08:19:15Z</time>
      </trkpt>
      <trkpt lat="19.27786" lon="98.9684">
        <time>2019-09-06T08:19:16Z</time>
      </trkpt>
      <trkpt lat="19.27786" lon="98.96855">
        <time>2019-09-06T08:19:17Z</time>
      </trkpt>
      <trkpt lat="19.27787" lon="98.9687">
        <time>2019-09-06T08:19:18Z</time>
      </trkpt>
      <trkpt lat="19.27789" lon="98.96884">
        <time>2019-09-06T08:19:19Z</time>
      </trkpt>
      <trkpt lat="19.27791" lon="98.969">
        <time>2019-09-06T08:19:20Z</time>
      </trkpt>
      <trkpt lat="19.27791" lon="98.96913">
        <time>2019-09-06T08:19:21Z</time>
      </trkpt>
      <trkpt lat="19.27791" lon="98.96928">
        <time>2019-09-06T08:19:22Z</time>
      </trkpt>
      <trkpt lat="19.27789" lon="98.96943">
        <time>2019-09-06T08:19:23Z</time>
      </trkpt>
      <trkpt lat="19.27786" lon="98.96957">
        <time>2019-09-06T08:19:24Z</time>
      </trkpt>
      <trkpt lat="19.27784" lon="98.96971">
        <time>2019-09-06T08:19:25Z</time>
      </trkpt>
      <trkpt lat="19.27774" lon="98.96983">
        <time>2019-09-06T08:19:26Z</time>
      </trkpt>
      <trkpt lat="19.27761" lon="98.97001">
        <time>2019-09-06T08:19:27Z</time>
      </trkpt>
      <trkpt lat="19.2775" lon="98.97015">
        <time>2019-09-06T08:19:28Z</time>
      </trkpt>
      <trkpt lat="19.27728" lon="98.97026">
        <time>2019-09-06T08:19:29Z</time>
      </trkpt>
      <trkpt lat="19.27712" lon="98.97036">
        <time>2019-09-06T08:19:30Z</time>
      </trkpt>
      <trkpt lat="19.27691" lon="98.97047">
        <time>2019-09-06T08:19:31Z</time>
      </trkpt>
      <trkpt lat="19.27673" lon="98.97058">
        <time>2019-09-06T08:19:32Z</time>
      </trkpt>
      <trkpt lat="19.27657" lon="98.97072">
        <time>2019-09-06T08:19:33Z</time>
      </trkpt>
      <trkpt lat="19.27643" lon="98.97085">
        <time>2019-09-06T08:19:34Z</time>
      </trkpt>
      <trkpt lat="19.27627" lon="98.971">
        <time>2019-09-06T08:19:35Z</time>
      </trkpt>
      <trkpt lat="19.27611" lon="98.97114">
        <time>2019-09-06T08:19:36Z</time>
      </trkpt>
      <trkpt lat="19.27598" lon="98.97124">
        <time>2019-09-06T08:19:37Z</time>
      </trkpt>
      <trkpt lat="19.27581" lon="98.97137">
        <time>2019-09-06T08:19:38Z</time>
      </trkpt>
      <trkpt lat="19.27563" lon="98.97149">
        <time>2019-09-06T08:19:39Z</time>
      </trkpt>
      <trkpt lat="19.27546" lon="98.97161">
        <time>2019-09-06T08:19:40Z</time>
      </trkpt>
      <trkpt lat="19.27525" lon="98.97172">
        <time>2019-09-06T08:19:41Z</time>
      </trkpt>
      <trkpt lat="19.27504" lon="98.97181">
        <time>2019-09-06T08:19:42Z</time>
      </trkpt>
      <trkpt lat="19.27485" lon="98.97192">
        <time>2019-09-06T08:19:43Z</time>
      </trkpt>
      <trkpt lat="19.27469" lon="98.97203">
        <time>2019-09-06T08:19:44Z</time>
      </trkpt>
      <trkpt lat="19.27457" lon="98.9721">
        <time>2019-09-06T08:19:45Z</time>
      </trkpt>
      <trkpt lat="19.27435" lon="98.97221">
        <time>2019-09-06T08:19:46Z</time>
      </trkpt>
      <trkpt lat="19.27413" lon="98.97225">
        <time>2019-09-06T08:19:47Z</time>
      </trkpt>
      <trkpt lat="19.27394" lon="98.97233">
        <time>2019-09-06T08:19:48Z</time>
      </trkpt>
      <trkpt lat="19.27376" lon="98.9724">
        <time>2019-09-06T08:19:49Z</time>
      </trkpt>
      <trkpt lat="19.27354" lon="98.97238">
        <time>2019-09-06T08:19:50Z</time>
      </trkpt>
      <trkpt lat="19.27338" lon="98.97238">
        <time>2019-09-06T08:19:51Z</time>
      </trkpt>
      <trkpt lat="19.27302" lon="98.97201">
        <time>2019-09-06T08:19:52Z</time>
      </trkpt>
      <trkpt lat="19.2727" lon="98.97163">
        <time>2019-09-06T08:19:53Z</time>
      </trkpt>
      <trkpt lat="19.27254" lon="98.97153">
        <time>2019-09-06T08:19:54Z</time>
      </trkpt>
      <trkpt lat="19.27234" lon="98.9714">
        <time>2019-09-06T08:19:55Z</time>
      </trkpt>
      <trkpt lat="19.27217" lon="98.97129">
        <time>2019-09-06T08:19:56Z</time>
      </trkpt>
      <trkpt lat="19.27198" lon="98.97111">
        <time>2019-09-06T08:19:57Z</time>
      </trkpt>
      <trkpt lat="19.2718" lon="98.97099">
        <time>2019-09-06T08:19:58Z</time>
      </trkpt>
      <trkpt lat="19.27163" lon="98.97083">
        <time>2019-09-06T08:19:59Z</time>
      </trkpt>
      <trkpt lat="19.27148" lon="98.97072">
        <time>2019-09-06T08:20:00Z</time>
      </trkpt>
      <trkpt lat="19.27131" lon="98.97055">
        <time>2019-09-06T08:20:01Z</time>
      </trkpt>
      <trkpt lat="19.27113" lon="98.97037">
        <time>2019-09-06T08:20:02Z</time>
      </trkpt>
      <trkpt lat="19.27095" lon="98.97027">
        <time>2019-09-06T08:20:03Z</time>
      </trkpt>
      <trkpt lat="19.27077" lon="98.97021">
        <time>2019-09-06T08:20:04Z</time>
      </trkpt>
      <trkpt lat="19.27062" lon="98.97011">
        <time>2019-09-06T08:20:05Z</time>
      </trkpt>
      <trkpt lat="19.27044" lon="98.97">
        <time>2019-09-06T08:20:06Z</time>
      </trkpt>
      <trkpt lat="19.27031" lon="98.96987">
        <time>2019-09-06T08:20:07Z</time>
      </trkpt>
      <trkpt lat="19.27011" lon="98.96986">
        <time>2019-09-06T08:20:08Z</time>
      </trkpt>
      <trkpt lat="19.26992" lon="98.96983">
        <time>2019-09-06T08:20:09Z</time>
      </trkpt>
      <trkpt lat="19.26972" lon="98.96978">
        <time>2019-09-06T08:20:10Z</time>
      </trkpt>
      <trkpt lat="19.26954" lon="98.96971">
        <time>2019-09-06T08:20:11Z</time>
      </trkpt>
      <trkpt lat="19.26935" lon="98.96969">
        <time>2019-09-06T08:20:12Z</time>
      </trkpt>
      <trkpt lat="19.26912" lon="98.96964">
        <time>2019-09-06T08:20:13Z</time>
      </trkpt>
      <trkpt lat="19.26885" lon="98.96968">
        <time>2019-09-06T08:20:14Z</time>
      </trkpt>
      <trkpt lat="19.2686" lon="98.96961">
        <time>2019-09-06T08:20:15Z</time>
      </trkpt>
      <trkpt lat="19.26849" lon="98.96963">
        <time>2019-09-06T08:20:16Z</time>
      </trkpt>
      <trkpt lat="19.26822" lon="98.96968">
        <time>2019-09-06T08:20:17Z</time>
      </trkpt>
      <trkpt lat="19.26802" lon="98.96971">
        <time>2019-09-06T08:20:18Z</time>
      </trkpt>
      <trkpt lat="19.26781" lon="98.96969">
        <time>2019-09-06T08:20:19Z</time>
      </trkpt>
      <trkpt lat="19.26759" lon="98.96968">
        <time>2019-09-06T08:20:20Z</time>
      </trkpt>
      <trkpt lat="19.26738" lon="98.96967">
        <time>2019-09-06T08:20:21Z</time>
      </trkpt>
      <trkpt lat="19.26714" lon="98.9696">
        <time>2019-09-06T08:20:22Z</time>
      </trkpt>
      <trkpt lat="19.26693" lon="98.96956">
        <time>2019-09-06T08:20:23Z</time>
      </trkpt>
      <trkpt lat="19.26669" lon="98.96949">
        <time>2019-09-06T08:20:24Z</time>
      </trkpt>
      <trkpt lat="19.26646" lon="98.96943">
        <time>2019-09-06T08:20:25Z</time>
      </trkpt>
      <trkpt lat="19.26622" lon="98.96934">
        <time>2019-09-06T08:20:26Z</time>
      </trkpt>
      <trkpt lat="19.26599" lon="98.96928">
        <time>2019-09-06T08:20:27Z</time>
      </trkpt>
      <trkpt lat="19.26577" lon="98.9692">
        <time>2019-09-06T08:20:28Z</time>
      </trkpt>
      <trkpt lat="19.26554" lon="98.96907">
        <time>2019-09-06T08:20:29Z</time>
      </trkpt>
      <trkpt lat="19.26532" lon="98.969">
        <time>2019-09-06T08:20:30Z</time>
      </trkpt>
      <trkpt lat="19.26511" lon="98.96891">
        <time>2019-09-06T08:20:31Z</time>
      </trkpt>
      <trkpt lat="19.26489" lon="98.96882">
        <time>2019-09-06T08:20:32Z</time>
      </trkpt>
      <trkpt lat="19.26469" lon="98.96877">
        <time>2019-09-06T08:20:33Z</time>
      </trkpt>
      <trkpt lat="19.26453" lon="98.96868">
        <time>2019-09-06T08:20:34Z</time>
      </trkpt>
      <trkpt lat="19.26438" lon="98.96857">
        <time>2019-09-06T08:20:35Z</time>
      </trkpt>
      <trkpt lat="19.26421" lon="98.96851">
        <time>2019-09-06T08:20:36Z</time>
      </trkpt>
      <trkpt lat="19.26399" lon="98.96851">
        <time>2019-09-06T08:20:37Z</time>
      </trkpt>
      <trkpt lat="19.26381" lon="98.96848">
        <time>2019-09-06T08:20:38Z</time>
      </trkpt>
      <trkpt lat="19.26365" lon="98.96861">
        <time>2019-09-06T08:20:39Z</time>
      </trkpt>
      <trkpt lat="19.26347" lon="98.96862">
        <time>2019-09-06T08:20:40Z</time>
      </trkpt>
      <trkpt lat="19.26331" lon="98.96867">
        <time>2019-09-06T08:20:41Z</time>
      </trkpt>
      <trkpt lat="19.26319" lon="98.96876">
        <time>2019-09-06T08:20:42Z</time>
      </trkpt>
      <trkpt lat="19.26304" lon="98.9689">
        <time>2019-09-06T08:20:43Z</time>
      </trkpt>
      <trkpt lat="19.26284" lon="98.96908">
        <time>2019-09-06T08:20:44Z</time>
      </trkpt>
      <trkpt lat="19.26271" lon="98.96931">
        <time>2019-09-06T08:20:45Z</time>
      </trkpt>
      <trkpt lat="19.26248" lon="98.9694">
        <time>2019-09-06T08:20:46Z</time>
      </trkpt>
      <trkpt lat="19.26228" lon="98.96956">
        <time>2019-09-06T08:20:47Z</time>
      </trkpt>
      <trkpt lat="19.26212" lon="98.96969">
        <time>2019-09-06T08:20:48Z</time>
      </trkpt>
      <trkpt lat="19.26199" lon="98.96981">
        <time>2019-09-06T08:20:49Z</time>
      </trkpt>
      <trkpt lat="19.26182" lon="98.96988">
        <time>2019-09-06T08:20:50Z</time>
      </trkpt>
      <trkpt lat="19.26167" lon="98.96998">
        <time>2019-09-06T08:20:51Z</time>
      </trkpt>
      <trkpt lat="19.26153" lon="98.97007">
        <time>2019-09-06T08:20:52Z</time>
      </trkpt>
      <trkpt lat="19.26143" lon="98.97016">
        <time>2019-09-06T08:20:53Z</time>
      </trkpt>
      <trkpt lat="19.26133" lon="98.97025">
        <time>2019-09-06T08:20:54Z</time>
      </trkpt>
      <trkpt lat="19.26122" lon="98.97033">
        <time>2019-09-06T08:20:55Z</time>
      </trkpt>
      <trkpt lat="19.26108" lon="98.97031">
        <time>2019-09-06T08:20:56Z</time>
      </trkpt>
      <trkpt lat="19.26094" lon="98.97032">
        <time>2019-09-06T08:20:57Z</time>
      </trkpt>
      <trkpt lat="19.26082" lon="98.97034">
        <time>2019-09-06T08:20:58Z</time>
      </trkpt>
      <trkpt lat="19.26068" lon="98.97037">
        <time>2019-09-06T08:20:59Z</time>
      </trkpt>
      <trkpt lat="19.26055" lon="98.97039">
        <time>2019-09-06T08:21:00Z</time>
      </trkpt>
      <trkpt lat="19.26033" lon="98.97039">
        <time>2019-09-06T08:21:01Z</time>
      </trkpt>
      <trkpt lat="19.26013" lon="98.97042">
        <time>2019-09-06T08:21:02Z</time>
      </trkpt>
      <trkpt lat="19.25994" lon="98.97046">
        <time>2019-09-06T08:21:03Z</time>
      </trkpt>
      <trkpt lat="19.25977" lon="98.97048">
        <time>2019-09-06T08:21:04Z</time>
      </trkpt>
      <trkpt lat="19.25953" lon="98.97056">
        <time>2019-09-06T08:21:05Z</time>
      </trkpt>
      <trkpt lat="19.25924" lon="98.97069">
        <time>2019-09-06T08:21:06Z</time>
      </trkpt>
      <trkpt lat="19.25902" lon="98.97075">
        <time>2019-09-06T08:21:07Z</time>
      </trkpt>
      <trkpt lat="19.25882" lon="98.97082">
        <time>2019-09-06T08:21:08Z</time>
      </trkpt>
      <trkpt lat="19.2586" lon="98.97099">
        <time>2019-09-06T08:21:09Z</time>
      </trkpt>
      <trkpt lat="19.25839" lon="98.97109">
        <time>2019-09-06T08:21:10Z</time>
      </trkpt>
      <trkpt lat="19.25831" lon="98.97118">
        <time>2019-09-06T08:21:11Z</time>
      </trkpt>
      <trkpt lat="19.25823" lon="98.97117">
        <time>2019-09-06T08:21:12Z</time>
      </trkpt>
      <trkpt lat="19.25806" lon="98.97109">
        <time>2019-09-06T08:21:13Z</time>
      </trkpt>
      <trkpt lat="19.25791" lon="98.97104">
        <time>2019-09-06T08:21:14Z</time>
      </trkpt>
      <trkpt lat="19.25775" lon="98.971">
        <time>2019-09-06T08:21:15Z</time>
      </trkpt>
      <trkpt lat="19.25758" lon="98.97087">
        <time>2019-09-06T08:21:16Z</time>
      </trkpt>
      <trkpt lat="19.25744" lon="98.97074">
        <time>2019-09-06T08:21:17Z</time>
      </trkpt>
      <trkpt lat="19.25731" lon="98.97066">
        <time>2019-09-06T08:21:18Z</time>
      </trkpt>
      <trkpt lat="19.25717" lon="98.97054">
        <time>2019-09-06T08:21:19Z</time>
      </trkpt>
      <trkpt lat="19.25703" lon="98.97041">
        <time>2019-09-06T08:21:20Z</time>
      </trkpt>
      <trkpt lat="19.25692" lon="98.97027">
        <time>2019-09-06T08:21:21Z</time>
      </trkpt>
      <trkpt lat="19.25685" lon="98.97011">
        <time>2019-09-06T08:21:22Z</time>
      </trkpt>
      <trkpt lat="19.25681" lon="98.96996">
        <time>2019-09-06T08:21:23Z</time>
      </trkpt>
      <trkpt lat="19.25679" lon="98.96978">
        <time>2019-09-06T08:21:24Z</time>
      </trkpt>
      <trkpt lat="19.25675" lon="98.96963">
        <time>2019-09-06T08:21:25Z</time>
      </trkpt>
      <trkpt lat="19.25672" lon="98.96948">
        <time>2019-09-06T08:21:26Z</time>
      </trkpt>
      <trkpt lat="19.25671" lon="98.96934">
        <time>2019-09-06T08:21:27Z</time>
      </trkpt>
      <trkpt lat="19.25667" lon="98.96923">
        <time>2019-09-06T08:21:28Z</time>
      </trkpt>
      <trkpt lat="19.25662" lon="98.96911">
        <time>2019-09-06T08:21:29Z</time>
      </trkpt>
      <trkpt lat="19.25653" lon="98.96899">
        <time>2019-09-06T08:21:30Z</time>
      </trkpt>
      <trkpt lat="19.25642" lon="98.96887">
        <time>2019-09-06T08:21:31Z</time>
      </trkpt>
      <trkpt lat="19.25626" lon="98.96877">
        <time>2019-09-06T08:21:32Z</time>
      </trkpt>
      <trkpt lat="19.2561" lon="98.96864">
        <time>2019-09-06T08:21:33Z</time>
      </trkpt>
      <trkpt lat="19.25591" lon="98.96853">
        <time>2019-09-06T08:21:34Z</time>
      </trkpt>
      <trkpt lat="19.25577" lon="98.9684">
        <time>2019-09-06T08:21:35Z</time>
      </trkpt>
      <trkpt lat="19.2556" lon="98.96829">
        <time>2019-09-06T08:21:36Z</time>
      </trkpt>
      <trkpt lat="19.25542" lon="98.96818">
        <time>2019-09-06T08:21:37Z</time>
      </trkpt>
      <trkpt lat="19.25524" lon="98.96806">
        <time>2019-09-06T08:21:38Z</time>
      </trkpt>
      <trkpt lat="19.25503" lon="98.96804">
        <time>2019-09-06T08:21:39Z</time>
      </trkpt>
      <trkpt lat="19.25484" lon="98.96795">
        <time>2019-09-06T08:21:40Z</time>
      </trkpt>
      <trkpt lat="19.25465" lon="98.96787">
        <time>2019-09-06T08:21:41Z</time>
      </trkpt>
      <trkpt lat="19.25446" lon="98.96783">
        <time>2019-09-06T08:21:42Z</time>
      </trkpt>
      <trkpt lat="19.25427" lon="98.96782">
        <time>2019-09-06T08:21:43Z</time>
      </trkpt>
      <trkpt lat="19.2541" lon="98.96781">
        <time>2019-09-06T08:21:44Z</time>
      </trkpt>
      <trkpt lat="19.25394" lon="98.96784">
        <time>2019-09-06T08:21:45Z</time>
      </trkpt>
      <trkpt lat="19.25375" lon="98.96782">
        <time>2019-09-06T08:21:46Z</time>
      </trkpt>
      <trkpt lat="19.25363" lon="98.96782">
        <time>2019-09-06T08:21:47Z</time>
      </trkpt>
      <trkpt lat="19.25353" lon="98.96782">
        <time>2019-09-06T08:21:48Z</time>
      </trkpt>
      <trkpt lat="19.25338" lon="98.96784">
        <time>2019-09-06T08:21:49Z</time>
      </trkpt>
      <trkpt lat="19.25327" lon="98.96786">
        <time>2019-09-06T08:21:50Z</time>
      </trkpt>
      <trkpt lat="19.25314" lon="98.96789">
        <time>2019-09-06T08:21:51Z</time>
      </trkpt>
      <trkpt lat="19.25305" lon="98.9679">
        <time>2019-09-06T08:21:52Z</time>
      </trkpt>
      <trkpt lat="19.25294" lon="98.96796">
        <time>2019-09-06T08:21:53Z</time>
      </trkpt>
      <trkpt lat="19.25288" lon="98.96817">
        <time>2019-09-06T08:21:54Z</time>
      </trkpt>
      <trkpt lat="19.25278" lon="98.96826">
        <time>2019-09-06T08:21:55Z</time>
      </trkpt>
      <trkpt lat="19.25271" lon="98.96837">
        <time>2019-09-06T08:21:56Z</time>
      </trkpt>
      <trkpt lat="19.25263" lon="98.96853">
        <time>2019-09-06T08:21:57Z</time>
      </trkpt>
      <trkpt lat="19.25267" lon="98.96877">
        <time>2019-09-06T08:21:58Z</time>
      </trkpt>
      <trkpt lat="19.25268" lon="98.96897">
        <time>2019-09-06T08:21:59Z</time>
      </trkpt>
      <trkpt lat="19.25267" lon="98.96921">
        <time>2019-09-06T08:22:00Z</time>
      </trkpt>
      <trkpt lat="19.25264" lon="98.96945">
        <time>2019-09-06T08:22:01Z</time>
      </trkpt>
      <trkpt lat="19.25264" lon="98.9697">
        <time>2019-09-06T08:22:02Z</time>
      </trkpt>
      <trkpt lat="19.25257" lon="98.96997">
        <time>2019-09-06T08:22:03Z</time>
      </trkpt>
      <trkpt lat="19.25254" lon="98.9702">
        <time>2019-09-06T08:22:04Z</time>
      </trkpt>
      <trkpt lat="19.25249" lon="98.97043">
        <time>2019-09-06T08:22:05Z</time>
      </trkpt>
      <trkpt lat="19.25245" lon="98.97065">
        <time>2019-09-06T08:22:06Z</time>
      </trkpt>
      <trkpt lat="19.25239" lon="98.97085">
        <time>2019-09-06T08:22:07Z</time>
      </trkpt>
      <trkpt lat="19.25234" lon="98.97102">
        <time>2019-09-06T08:22:08Z</time>
      </trkpt>
      <trkpt lat="19.25227" lon="98.97115">
        <time>2019-09-06T08:22:09Z</time>
      </trkpt>
      <trkpt lat="19.25217" lon="98.97131">
        <time>2019-09-06T08:22:10Z</time>
      </trkpt>
      <trkpt lat="19.25208" lon="98.97142">
        <time>2019-09-06T08:22:11Z</time>
      </trkpt>
      <trkpt lat="19.25195" lon="98.97153">
        <time>2019-09-06T08:22:12Z</time>
      </trkpt>
      <trkpt lat="19.25185" lon="98.97167">
        <time>2019-09-06T08:22:13Z</time>
      </trkpt>
      <trkpt lat="19.25178" lon="98.97176">
        <time>2019-09-06T08:22:14Z</time>
      </trkpt>
      <trkpt lat="19.25169" lon="98.97182">
        <time>2019-09-06T08:22:15Z</time>
      </trkpt>
      <trkpt lat="19.25155" lon="98.97185">
        <time>2019-09-06T08:22:16Z</time>
      </trkpt>
      <trkpt lat="19.25144" lon="98.9719">
        <time>2019-09-06T08:22:17Z</time>
      </trkpt>
      <trkpt lat="19.25129" lon="98.97181">
        <time>2019-09-06T08:22:18Z</time>
      </trkpt>
      <trkpt lat="19.25111" lon="98.97171">
        <time>2019-09-06T08:22:19Z</time>
      </trkpt>
      <trkpt lat="19.251" lon="98.97163">
        <time>2019-09-06T08:22:20Z</time>
      </trkpt>
      <trkpt lat="19.25085" lon="98.97157">
        <time>2019-09-06T08:22:21Z</time>
      </trkpt>
      <trkpt lat="19.25075" lon="98.97143">
        <time>2019-09-06T08:22:22Z</time>
      </trkpt>
      <trkpt lat="19.25071" lon="98.97107">
        <time>2019-09-06T08:22:23Z</time>
      </trkpt>
      <trkpt lat="19.25072" lon="98.97065">
        <time>2019-09-06T08:22:24Z</time>
      </trkpt>
      <trkpt lat="19.25063" lon="98.97046">
        <time>2019-09-06T08:22:25Z</time>
      </trkpt>
      <trkpt lat="19.25055" lon="98.97031">
        <time>2019-09-06T08:22:26Z</time>
      </trkpt>
      <trkpt lat="19.25046" lon="98.97014">
        <time>2019-09-06T08:22:27Z</time>
      </trkpt>
      <trkpt lat="19.2504" lon="98.96995">
        <time>2019-09-06T08:22:28Z</time>
      </trkpt>
      <trkpt lat="19.25036" lon="98.96979">
        <time>2019-09-06T08:22:29Z</time>
      </trkpt>
      <trkpt lat="19.25038" lon="98.96962">
        <time>2019-09-06T08:22:30Z</time>
      </trkpt>
      <trkpt lat="19.25035" lon="98.96946">
        <time>2019-09-06T08:22:31Z</time>
      </trkpt>
      <trkpt lat="19.25032" lon="98.9693">
        <time>2019-09-06T08:22:32Z</time>
      </trkpt>
      <trkpt lat="19.2503" lon="98.96912">
        <time>2019-09-06T08:22:33Z</time>
      </trkpt>
      <trkpt lat="19.25022" lon="98.96893">
        <time>2019-09-06T08:22:34Z</time>
      </trkpt>
      <trkpt lat="19.25019" lon="98.96878">
        <time>2019-09-06T08:22:35Z</time>
      </trkpt>
      <trkpt lat="19.25011" lon="98.96862">
        <time>2019-09-06T08:22:36Z</time>
      </trkpt>
      <trkpt lat="19.25005" lon="98.96845">
        <time>2019-09-06T08:22:37Z</time>
      </trkpt>
      <trkpt lat="19.24999" lon="98.96829">
        <time>2019-09-06T08:22:38Z</time>
      </trkpt>
      <trkpt lat="19.24994" lon="98.9682">
        <time>2019-09-06T08:22:39Z</time>
      </trkpt>
      <trkpt lat="19.24986" lon="98.96806">
        <time>2019-09-06T08:22:40Z</time>
      </trkpt>
      <trkpt lat="19.24982" lon="98.96789">
        <time>2019-09-06T08:22:41Z</time>
      </trkpt>
      <trkpt lat="19.24974" lon="98.96777">
        <time>2019-09-06T08:22:42Z</time>
      </trkpt>
      <trkpt lat="19.24964" lon="98.96765">
        <time>2019-09-06T08:22:43Z</time>
      </trkpt>
      <trkpt lat="19.24963" lon="98.96744">
        <time>2019-09-06T08:22:44Z</time>
      </trkpt>
      <trkpt lat="19.24952" lon="98.96734">
        <time>2019-09-06T08:22:45Z</time>
      </trkpt>
      <trkpt lat="19.24943" lon="98.96725">
        <time>2019-09-06T08:22:46Z</time>
      </trkpt>
      <trkpt lat="19.24929" lon="98.96722">
        <time>2019-09-06T08:22:47Z</time>
      </trkpt>
      <trkpt lat="19.24914" lon="98.96722">
        <time>2019-09-06T08:22:48Z</time>
      </trkpt>
      <trkpt lat="19.249" lon="98.96719">
        <time>2019-09-06T08:22:49Z</time>
      </trkpt>
      <trkpt lat="19.24887" lon="98.9672">
        <time>2019-09-06T08:22:50Z</time>
      </trkpt>
      <trkpt lat="19.24875" lon="98.96727">
        <time>2019-09-06T08:22:51Z</time>
      </trkpt>
      <trkpt lat="19.24859" lon="98.96728">
        <time>2019-09-06T08:22:52Z</time>
      </trkpt>
      <trkpt lat="19.24846" lon="98.9673">
        <time>2019-09-06T08:22:53Z</time>
      </trkpt>
      <trkpt lat="19.24834" lon="98.96738">
        <time>2019-09-06T08:22:54Z</time>
      </trkpt>
      <trkpt lat="19.24819" lon="98.9674">
        <time>2019-09-06T08:22:55Z</time>
      </trkpt>
      <trkpt lat="19.24812" lon="98.96756">
        <time>2019-09-06T08:22:56Z</time>
      </trkpt>
      <trkpt lat="19.24799" lon="98.96768">
        <time>2019-09-06T08:22:57Z</time>
      </trkpt>
      <trkpt lat="19.24806" lon="98.96786">
        <time>2019-09-06T08:22:58Z</time>
      </trkpt>
      <trkpt lat="19.24795" lon="98.96804">
        <time>2019-09-06T08:22:59Z</time>
      </trkpt>
      <trkpt lat="19.24783" lon="98.96817">
        <time>2019-09-06T08:23:00Z</time>
      </trkpt>
      <trkpt lat="19.24775" lon="98.96834">
        <time>2019-09-06T08:23:01Z</time>
      </trkpt>
      <trkpt lat="19.24762" lon="98.96845">
        <time>2019-09-06T08:23:02Z</time>
      </trkpt>
      <trkpt lat="19.24749" lon="98.96862">
        <time>2019-09-06T08:23:03Z</time>
      </trkpt>
      <trkpt lat="19.24741" lon="98.96872">
        <time>2019-09-06T08:23:04Z</time>
      </trkpt>
      <trkpt lat="19.24725" lon="98.96875">
        <time>2019-09-06T08:23:05Z</time>
      </trkpt>
      <trkpt lat="19.24702" lon="98.96881">
        <time>2019-09-06T08:23:06Z</time>
      </trkpt>
      <trkpt lat="19.24683" lon="98.96887">
        <time>2019-09-06T08:23:07Z</time>
      </trkpt>
      <trkpt lat="19.24669" lon="98.96896">
        <time>2019-09-06T08:23:08Z</time>
      </trkpt>
      <trkpt lat="19.24648" lon="98.96901">
        <time>2019-09-06T08:23:09Z</time>
      </trkpt>
      <trkpt lat="19.24629" lon="98.96907">
        <time>2019-09-06T08:23:10Z</time>
      </trkpt>
      <trkpt lat="19.24609" lon="98.96914">
        <time>2019-09-06T08:23:11Z</time>
      </trkpt>
      <trkpt lat="19.24591" lon="98.9692">
        <time>2019-09-06T08:23:12Z</time>
      </trkpt>
      <trkpt lat="19.24574" lon="98.96933">
        <time>2019-09-06T08:23:13Z</time>
      </trkpt>
      <trkpt lat="19.2456" lon="98.96939">
        <time>2019-09-06T08:23:14Z</time>
      </trkpt>
      <trkpt lat="19.24547" lon="98.96948">
        <time>2019-09-06T08:23:15Z</time>
      </trkpt>
      <trkpt lat="19.24541" lon="98.96937">
        <time>2019-09-06T08:23:16Z</time>
      </trkpt>
      <trkpt lat="19.24529" lon="98.96934">
        <time>2019-09-06T08:23:17Z</time>
      </trkpt>
      <trkpt lat="19.24517" lon="98.96932">
        <time>2019-09-06T08:23:18Z</time>
      </trkpt>
      <trkpt lat="19.24507" lon="98.96912">
        <time>2019-09-06T08:23:19Z</time>
      </trkpt>
      <trkpt lat="19.24497" lon="98.96903">
        <time>2019-09-06T08:23:20Z</time>
      </trkpt>
      <trkpt lat="19.24486" lon="98.96896">
        <time>2019-09-06T08:23:21Z</time>
      </trkpt>
      <trkpt lat="19.24471" lon="98.96894">
        <time>2019-09-06T08:23:22Z</time>
      </trkpt>
      <trkpt lat="19.24456" lon="98.96892">
        <time>2019-09-06T08:23:23Z</time>
      </trkpt>
      <trkpt lat="19.24435" lon="98.96911">
        <time>2019-09-06T08:23:24Z</time>
      </trkpt>
      <trkpt lat="19.24416" lon="98.96922">
        <time>2019-09-06T08:23:25Z</time>
      </trkpt>
      <trkpt lat="19.24396" lon="98.96932">
        <time>2019-09-06T08:23:26Z</time>
      </trkpt>
      <trkpt lat="19.24375" lon="98.96938">
        <time>2019-09-06T08:23:27Z</time>
      </trkpt>
      <trkpt lat="19.24356" lon="98.96948">
        <time>2019-09-06T08:23:28Z</time>
      </trkpt>
      <trkpt lat="19.24335" lon="98.9696">
        <time>2019-09-06T08:23:29Z</time>
      </trkpt>
      <trkpt lat="19.24318" lon="98.96971">
        <time>2019-09-06T08:23:30Z</time>
      </trkpt>
      <trkpt lat="19.24301" lon="98.96983">
        <time>2019-09-06T08:23:31Z</time>
      </trkpt>
      <trkpt lat="19.24283" lon="98.96995">
        <time>2019-09-06T08:23:32Z</time>
      </trkpt>
      <trkpt lat="19.24267" lon="98.97002">
        <time>2019-09-06T08:23:33Z</time>
      </trkpt>
      <trkpt lat="19.24249" lon="98.97008">
        <time>2019-09-06T08:23:34Z</time>
      </trkpt>
      <trkpt lat="19.24231" lon="98.97014">
        <time>2019-09-06T08:23:35Z</time>
      </trkpt>
      <trkpt lat="19.24214" lon="98.9702">
        <time>2019-09-06T08:23:36Z</time>
      </trkpt>
      <trkpt lat="19.24198" lon="98.97024">
        <time>2019-09-06T08:23:37Z</time>
      </trkpt>
      <trkpt lat="19.24181" lon="98.97026">
        <time>2019-09-06T08:23:38Z</time>
      </trkpt>
      <trkpt lat="19.24164" lon="98.97026">
        <time>2019-09-06T08:23:39Z</time>
      </trkpt>
      <trkpt lat="19.24147" lon="98.97027">
        <time>2019-09-06T08:23:40Z</time>
      </trkpt>
      <trkpt lat="19.2413" lon="98.97027">
        <time>2019-09-06T08:23:41Z</time>
      </trkpt>
      <trkpt lat="19.24112" lon="98.97024">
        <time>2019-09-06T08:23:42Z</time>
      </trkpt>
      <trkpt lat="19.24097" lon="98.97012">
        <time>2019-09-06T08:23:43Z</time>
      </trkpt>
      <trkpt lat="19.24081" lon="98.96988">
        <time>2019-09-06T08:23:44Z</time>
      </trkpt>
      <trkpt lat="19.24066" lon="98.96963">
        <time>2019-09-06T08:23:45Z</time>
      </trkpt>
      <trkpt lat="19.24047" lon="98.96941">
        <time>2019-09-06T08:23:46Z</time>
      </trkpt>
      <trkpt lat="19.2403" lon="98.96925">
        <time>2019-09-06T08:23:47Z</time>
      </trkpt>
      <trkpt lat="19.24014" lon="98.96908">
        <time>2019-09-06T08:23:48Z</time>
      </trkpt>
      <trkpt lat="19.23998" lon="98.9689">
        <time>2019-09-06T08:23:49Z</time>
      </trkpt>
      <trkpt lat="19.23982" lon="98.96871">
        <time>2019-09-06T08:23:50Z</time>
      </trkpt>
      <trkpt lat="19.23969" lon="98.96854">
        <time>2019-09-06T08:23:51Z</time>
      </trkpt>
      <trkpt lat="19.23955" lon="98.96839">
        <time>2019-09-06T08:23:52Z</time>
      </trkpt>
      <trkpt lat="19.2394" lon="98.96827">
        <time>2019-09-06T08:23:53Z</time>
      </trkpt>
      <trkpt lat="19.23924" lon="98.96815">
        <time>2019-09-06T08:23:54Z</time>
      </trkpt>
      <trkpt lat="19.23905" lon="98.96808">
        <time>2019-09-06T08:23:55Z</time>
      </trkpt>
      <trkpt lat="19.23887" lon="98.96801">
        <time>2019-09-06T08:23:56Z</time>
      </trkpt>
      <trkpt lat="19.23868" lon="98.96799">
        <time>2019-09-06T08:23:57Z</time>
      </trkpt>
      <trkpt lat="19.23848" lon="98.96798">
        <time>2019-09-06T08:23:58Z</time>
      </trkpt>
      <trkpt lat="19.23829" lon="98.96795">
        <time>2019-09-06T08:23:59Z</time>
      </trkpt>
      <trkpt lat="19.23809" lon="98.96796">
        <time>2019-09-06T08:24:00Z</time>
      </trkpt>
      <trkpt lat="19.2379" lon="98.96796">
        <time>2019-09-06T08:24:01Z</time>
      </trkpt>
      <trkpt lat="19.2377" lon="98.96797">
        <time>2019-09-06T08:24:02Z</time>
      </trkpt>
      <trkpt lat="19.23752" lon="98.96813">
        <time>2019-09-06T08:24:03Z</time>
      </trkpt>
      <trkpt lat="19.23735" lon="98.96821">
        <time>2019-09-06T08:24:04Z</time>
      </trkpt>
      <trkpt lat="19.23717" lon="98.96825">
        <time>2019-09-06T08:24:05Z</time>
      </trkpt>
      <trkpt lat="19.23699" lon="98.96828">
        <time>2019-09-06T08:24:06Z</time>
      </trkpt>
      <trkpt lat="19.23684" lon="98.96832">
        <time>2019-09-06T08:24:07Z</time>
      </trkpt>
      <trkpt lat="19.23662" lon="98.96828">
        <time>2019-09-06T08:24:08Z</time>
      </trkpt>
      <trkpt lat="19.23643" lon="98.96822">
        <time>2019-09-06T08:24:09Z</time>
      </trkpt>
      <trkpt lat="19.23624" lon="98.96811">
        <time>2019-09-06T08:24:10Z</time>
      </trkpt>
      <trkpt lat="19.23608" lon="98.96804">
        <time>2019-09-06T08:24:11Z</time>
      </trkpt>
      <trkpt lat="19.23588" lon="98.96796">
        <time>2019-09-06T08:24:12Z</time>
      </trkpt>
      <trkpt lat="19.23569" lon="98.96791">
        <time>2019-09-06T08:24:13Z</time>
      </trkpt>
      <trkpt lat="19.23547" lon="98.96787">
        <time>2019-09-06T08:24:14Z</time>
      </trkpt>
      <trkpt lat="19.23523" lon="98.96793">
        <time>2019-09-06T08:24:15Z</time>
      </trkpt>
      <trkpt lat="19.23498" lon="98.96795">
        <time>2019-09-06T08:24:16Z</time>
      </trkpt>
      <trkpt lat="19.23472" lon="98.968">
        <time>2019-09-06T08:24:17Z</time>
      </trkpt>
      <trkpt lat="19.23452" lon="98.96813">
        <time>2019-09-06T08:24:18Z</time>
      </trkpt>
      <trkpt lat="19.23427" lon="98.96819">
        <time>2019-09-06T08:24:19Z</time>
      </trkpt>
      <trkpt lat="19.23402" lon="98.96827">
        <time>2019-09-06T08:24:20Z</time>
      </trkpt>
      <trkpt lat="19.23377" lon="98.96832">
        <time>2019-09-06T08:24:21Z</time>
      </trkpt>
      <trkpt lat="19.23351" lon="98.96838">
        <time>2019-09-06T08:24:22Z</time>
      </trkpt>
      <trkpt lat="19.23324" lon="98.96843">
        <time>2019-09-06T08:24:23Z</time>
      </trkpt>
      <trkpt lat="19.23299" lon="98.96847">
        <time>2019-09-06T08:24:24Z</time>
      </trkpt>
      <trkpt lat="19.23275" lon="98.9685">
        <time>2019-09-06T08:24:25Z</time>
      </trkpt>
      <trkpt lat="19.23252" lon="98.96852">
        <time>2019-09-06T08:24:26Z</time>
      </trkpt>
      <trkpt lat="19.23227" lon="98.96854">
        <time>2019-09-06T08:24:27Z</time>
      </trkpt>
      <trkpt lat="19.23207" lon="98.9685">
        <time>2019-09-06T08:24:28Z</time>
      </trkpt>
      <trkpt lat="19.23186" lon="98.96849">
        <time>2019-09-06T08:24:29Z</time>
      </trkpt>
      <trkpt lat="19.23163" lon="98.96849">
        <time>2019-09-06T08:24:30Z</time>
      </trkpt>
      <trkpt lat="19.2314" lon="98.9685">
        <time>2019-09-06T08:24:31Z</time>
      </trkpt>
      <trkpt lat="19.23118" lon="98.96854">
        <time>2019-09-06T08:24:32Z</time>
      </trkpt>
      <trkpt lat="19.23096" lon="98.96856">
        <time>2019-09-06T08:24:33Z</time>
      </trkpt>
      <trkpt lat="19.23077" lon="98.96861">
        <time>2019-09-06T08:24:34Z</time>
      </trkpt>
      <trkpt lat="19.23061" lon="98.96865">
        <time>2019-09-06T08:24:35Z</time>
      </trkpt>
      <trkpt lat="19.23044" lon="98.9687">
        <time>2019-09-06T08:24:36Z</time>
      </trkpt>
      <trkpt lat="19.23029" lon="98.96884">
        <time>2019-09-06T08:24:37Z</time>
      </trkpt>
      <trkpt lat="19.23011" lon="98.96894">
        <time>2019-09-06T08:24:38Z</time>
      </trkpt>
      <trkpt lat="19.22995" lon="98.96905">
        <time>2019-09-06T08:24:39Z</time>
      </trkpt>
      <trkpt lat="19.22974" lon="98.96913">
        <time>2019-09-06T08:24:40Z</time>
      </trkpt>
      <trkpt lat="19.22955" lon="98.96923">
        <time>2019-09-06T08:24:41Z</time>
      </trkpt>
      <trkpt lat="19.22937" lon="98.96932">
        <time>2019-09-06T08:24:42Z</time>
      </trkpt>
      <trkpt lat="19.22916" lon="98.96943">
        <time>2019-09-06T08:24:43Z</time>
      </trkpt>
      <trkpt lat="19.22894" lon="98.96953">
        <time>2019-09-06T08:24:44Z</time>
      </trkpt>
      <trkpt lat="19.22876" lon="98.96965">
        <time>2019-09-06T08:24:45Z</time>
      </trkpt>
      <trkpt lat="19.22856" lon="98.96969">
        <time>2019-09-06T08:24:46Z</time>
      </trkpt>
      <trkpt lat="19.22836" lon="98.96975">
        <time>2019-09-06T08:24:47Z</time>
      </trkpt>
      <trkpt lat="19.22815" lon="98.96975">
        <time>2019-09-06T08:24:48Z</time>
      </trkpt>
      <trkpt lat="19.22795" lon="98.96978">
        <time>2019-09-06T08:24:49Z</time>
      </trkpt>
      <trkpt lat="19.22773" lon="98.96975">
        <time>2019-09-06T08:24:50Z</time>
      </trkpt>
      <trkpt lat="19.22752" lon="98.96971">
        <time>2019-09-06T08:24:51Z</time>
      </trkpt>
      <trkpt lat="19.22731" lon="98.96971">
        <time>2019-09-06T08:24:52Z</time>
      </trkpt>
      <trkpt lat="19.22707" lon="98.96969">
        <time>2019-09-06T08:24:53Z</time>
      </trkpt>
      <trkpt lat="19.22682" lon="98.96968">
        <time>2019-09-06T08:24:54Z</time>
      </trkpt>
      <trkpt lat="19.22659" lon="98.96972">
        <time>2019-09-06T08:24:55Z</time>
      </trkpt>
      <trkpt lat="19.22635" lon="98.96974">
        <time>2019-09-06T08:24:56Z</time>
      </trkpt>
      <trkpt lat="19.22611" lon="98.96973">
        <time>2019-09-06T08:24:57Z</time>
      </trkpt>
      <trkpt lat="19.22587" lon="98.96975">
        <time>2019-09-06T08:24:58Z</time>
      </trkpt>
      <trkpt lat="19.22564" lon="98.96978">
        <time>2019-09-06T08:24:59Z</time>
      </trkpt>
      <trkpt lat="19.22543" lon="98.96987">
        <time>2019-09-06T08:25:00Z</time>
      </trkpt>
      <trkpt lat="19.22521" lon="98.96995">
        <time>2019-09-06T08:25:01Z</time>
      </trkpt>
      <trkpt lat="19.22497" lon="98.97003">
        <time>2019-09-06T08:25:02Z</time>
      </trkpt>
      <trkpt lat="19.22474" lon="98.97012">
        <time>2019-09-06T08:25:03Z</time>
      </trkpt>
      <trkpt lat="19.22449" lon="98.9702">
        <time>2019-09-06T08:25:04Z</time>
      </trkpt>
      <trkpt lat="19.22425" lon="98.97029">
        <time>2019-09-06T08:25:05Z</time>
      </trkpt>
      <trkpt lat="19.22407" lon="98.97047">
        <time>2019-09-06T08:25:06Z</time>
      </trkpt>
      <trkpt lat="19.22385" lon="98.97062">
        <time>2019-09-06T08:25:07Z</time>
      </trkpt>
      <trkpt lat="19.22365" lon="98.97079">
        <time>2019-09-06T08:25:08Z</time>
      </trkpt>
      <trkpt lat="19.22345" lon="98.97095">
        <time>2019-09-06T08:25:09Z</time>
      </trkpt>
      <trkpt lat="19.22324" lon="98.97112">
        <time>2019-09-06T08:25:10Z</time>
      </trkpt>
      <trkpt lat="19.22304" lon="98.97131">
        <time>2019-09-06T08:25:11Z</time>
      </trkpt>
      <trkpt lat="19.22285" lon="98.97149">
        <time>2019-09-06T08:25:12Z</time>
      </trkpt>
      <trkpt lat="19.22267" lon="98.97166">
        <time>2019-09-06T08:25:13Z</time>
      </trkpt>
      <trkpt lat="19.22251" lon="98.97183">
        <time>2019-09-06T08:25:14Z</time>
      </trkpt>
      <trkpt lat="19.22235" lon="98.97202">
        <time>2019-09-06T08:25:15Z</time>
      </trkpt>
      <trkpt lat="19.22223" lon="98.97216">
        <time>2019-09-06T08:25:16Z</time>
      </trkpt>
      <trkpt lat="19.22206" lon="98.9723">
        <time>2019-09-06T08:25:17Z</time>
      </trkpt>
      <trkpt lat="19.22191" lon="98.97242">
        <time>2019-09-06T08:25:18Z</time>
      </trkpt>
      <trkpt lat="19.22171" lon="98.97244">
        <time>2019-09-06T08:25:19Z</time>
      </trkpt>
      <trkpt lat="19.22154" lon="98.97251">
        <time>2019-09-06T08:25:20Z</time>
      </trkpt>
      <trkpt lat="19.22138" lon="98.97255">
        <time>2019-09-06T08:25:21Z</time>
      </trkpt>
      <trkpt lat="19.22118" lon="98.97254">
        <time>2019-09-06T08:25:22Z</time>
      </trkpt>
      <trkpt lat="19.22096" lon="98.97252">
        <time>2019-09-06T08:25:23Z</time>
      </trkpt>
      <trkpt lat="19.22069" lon="98.97245">
        <time>2019-09-06T08:25:24Z</time>
      </trkpt>
      <trkpt lat="19.22045" lon="98.97242">
        <time>2019-09-06T08:25:25Z</time>
      </trkpt>
      <trkpt lat="19.22021" lon="98.97237">
        <time>2019-09-06T08:25:26Z</time>
      </trkpt>
      <trkpt lat="19.21997" lon="98.97231">
        <time>2019-09-06T08:25:27Z</time>
      </trkpt>
      <trkpt lat="19.21974" lon="98.97226">
        <time>2019-09-06T08:25:28Z</time>
      </trkpt>
      <trkpt lat="19.21949" lon="98.9722">
        <time>2019-09-06T08:25:29Z</time>
      </trkpt>
      <trkpt lat="19.21926" lon="98.97213">
        <time>2019-09-06T08:25:30Z</time>
      </trkpt>
      <trkpt lat="19.21904" lon="98.97207">
        <time>2019-09-06T08:25:31Z</time>
      </trkpt>
      <trkpt lat="19.2188" lon="98.972">
        <time>2019-09-06T08:25:32Z</time>
      </trkpt>
      <trkpt lat="19.21857" lon="98.97192">
        <time>2019-09-06T08:25:33Z</time>
      </trkpt>
      <trkpt lat="19.21835" lon="98.97184">
        <time>2019-09-06T08:25:34Z</time>
      </trkpt>
      <trkpt lat="19.21811" lon="98.97175">
        <time>2019-09-06T08:25:35Z</time>
      </trkpt>
      <trkpt lat="19.21789" lon="98.97167">
        <time>2019-09-06T08:25:36Z</time>
      </trkpt>
      <trkpt lat="19.21765" lon="98.97158">
        <time>2019-09-06T08:25:37Z</time>
      </trkpt>
      <trkpt lat="19.21742" lon="98.97149">
        <time>2019-09-06T08:25:38Z</time>
      </trkpt>
      <trkpt lat="19.21719" lon="98.9714">
        <time>2019-09-06T08:25:39Z</time>
      </trkpt>
      <trkpt lat="19.21696" lon="98.9713">
        <time>2019-09-06T08:25:40Z</time>
      </trkpt>
      <trkpt lat="19.21674" lon="98.97121">
        <time>2019-09-06T08:25:41Z</time>
      </trkpt>
      <trkpt lat="19.21652" lon="98.97111">
        <time>2019-09-06T08:25:42Z</time>
      </trkpt>
      <trkpt lat="19.21629" lon="98.971">
        <time>2019-09-06T08:25:43Z</time>
      </trkpt>
      <trkpt lat="19.21607" lon="98.97087">
        <time>2019-09-06T08:25:44Z</time>
      </trkpt>
      <trkpt lat="19.21586" lon="98.97074">
        <time>2019-09-06T08:25:45Z</time>
      </trkpt>
      <trkpt lat="19.21564" lon="98.97058">
        <time>2019-09-06T08:25:46Z</time>
      </trkpt>
      <trkpt lat="19.21543" lon="98.97044">
        <time>2019-09-06T08:25:47Z</time>
      </trkpt>
      <trkpt lat="19.21522" lon="98.97028">
        <time>2019-09-06T08:25:48Z</time>
      </trkpt>
      <trkpt lat="19.21499" lon="98.97014">
        <time>2019-09-06T08:25:49Z</time>
      </trkpt>
      <trkpt lat="19.21478" lon="98.96999">
        <time>2019-09-06T08:25:50Z</time>
      </trkpt>
      <trkpt lat="19.21457" lon="98.96984">
        <time>2019-09-06T08:25:51Z</time>
      </trkpt>
      <trkpt lat="19.21435" lon="98.9697">
        <time>2019-09-06T08:25:52Z</time>
      </trkpt>
      <trkpt lat="19.21412" lon="98.96953">
        <time>2019-09-06T08:25:53Z</time>
      </trkpt>
      <trkpt lat="19.2139" lon="98.96938">
        <time>2019-09-06T08:25:54Z</time>
      </trkpt>
      <trkpt lat="19.21368" lon="98.96924">
        <time>2019-09-06T08:25:55Z</time>
      </trkpt>
      <trkpt lat="19.21345" lon="98.9691">
        <time>2019-09-06T08:25:56Z</time>
      </trkpt>
      <trkpt lat="19.21323" lon="98.96895">
        <time>2019-09-06T08:25:57Z</time>
      </trkpt>
      <trkpt lat="19.21302" lon="98.9688">
        <time>2019-09-06T08:25:58Z</time>
      </trkpt>
      <trkpt lat="19.21279" lon="98.96865">
        <time>2019-09-06T08:25:59Z</time>
      </trkpt>
      <trkpt lat="19.21257" lon="98.96849">
        <time>2019-09-06T08:26:00Z</time>
      </trkpt>
      <trkpt lat="19.21235" lon="98.96833">
        <time>2019-09-06T08:26:01Z</time>
      </trkpt>
      <trkpt lat="19.21213" lon="98.96819">
        <time>2019-09-06T08:26:02Z</time>
      </trkpt>
      <trkpt lat="19.2119" lon="98.96805">
        <time>2019-09-06T08:26:03Z</time>
      </trkpt>
      <trkpt lat="19.2117" lon="98.96792">
        <time>2019-09-06T08:26:04Z</time>
      </trkpt>
      <trkpt lat="19.21149" lon="98.9678">
        <time>2019-09-06T08:26:05Z</time>
      </trkpt>
      <trkpt lat="19.21127" lon="98.9677">
        <time>2019-09-06T08:26:06Z</time>
      </trkpt>
      <trkpt lat="19.21107" lon="98.96761">
        <time>2019-09-06T08:26:07Z</time>
      </trkpt>
      <trkpt lat="19.21086" lon="98.96753">
        <time>2019-09-06T08:26:08Z</time>
      </trkpt>
      <trkpt lat="19.21067" lon="98.96746">
        <time>2019-09-06T08:26:09Z</time>
      </trkpt>
      <trkpt lat="19.21047" lon="98.9674">
        <time>2019-09-06T08:26:10Z</time>
      </trkpt>
      <trkpt lat="19.21027" lon="98.96735">
        <time>2019-09-06T08:26:11Z</time>
      </trkpt>
      <trkpt lat="19.21006" lon="98.96732">
        <time>2019-09-06T08:26:12Z</time>
      </trkpt>
      <trkpt lat="19.20984" lon="98.96733">
        <time>2019-09-06T08:26:13Z</time>
      </trkpt>
      <trkpt lat="19.20962" lon="98.96735">
        <time>2019-09-06T08:26:14Z</time>
      </trkpt>
      <trkpt lat="19.20942" lon="98.96741">
        <time>2019-09-06T08:26:15Z</time>
      </trkpt>
      <trkpt lat="19.20922" lon="98.96751">
        <time>2019-09-06T08:26:16Z</time>
      </trkpt>
      <trkpt lat="19.20903" lon="98.96765">
        <time>2019-09-06T08:26:17Z</time>
      </trkpt>
      <trkpt lat="19.2089" lon="98.96785">
        <time>2019-09-06T08:26:18Z</time>
      </trkpt>
      <trkpt lat="19.2088" lon="98.96807">
        <time>2019-09-06T08:26:19Z</time>
      </trkpt>
      <trkpt lat="19.20864" lon="98.9682">
        <time>2019-09-06T08:26:20Z</time>
      </trkpt>
      <trkpt lat="19.20851" lon="98.96833">
        <time>2019-09-06T08:26:21Z</time>
      </trkpt>
      <trkpt lat="19.20837" lon="98.96845">
        <time>2019-09-06T08:26:22Z</time>
      </trkpt>
      <trkpt lat="19.20825" lon="98.96841">
        <time>2019-09-06T08:26:23Z</time>
      </trkpt>
      <trkpt lat="19.2081" lon="98.96845">
        <time>2019-09-06T08:26:24Z</time>
      </trkpt>
      <trkpt lat="19.20794" lon="98.96847">
        <time>2019-09-06T08:26:25Z</time>
      </trkpt>
      <trkpt lat="19.20777" lon="98.96853">
        <time>2019-09-06T08:26:26Z</time>
      </trkpt>
      <trkpt lat="19.20756" lon="98.96855">
        <time>2019-09-06T08:26:27Z</time>
      </trkpt>
      <trkpt lat="19.20732" lon="98.96854">
        <time>2019-09-06T08:26:28Z</time>
      </trkpt>
      <trkpt lat="19.20709" lon="98.96849">
        <time>2019-09-06T08:26:29Z</time>
      </trkpt>
      <trkpt lat="19.20688" lon="98.96847">
        <time>2019-09-06T08:26:30Z</time>
      </trkpt>
      <trkpt lat="19.20664" lon="98.96842">
        <time>2019-09-06T08:26:31Z</time>
      </trkpt>
      <trkpt lat="19.20643" lon="98.96839">
        <time>2019-09-06T08:26:32Z</time>
      </trkpt>
      <trkpt lat="19.2062" lon="98.96836">
        <time>2019-09-06T08:26:33Z</time>
      </trkpt>
      <trkpt lat="19.20596" lon="98.96831">
        <time>2019-09-06T08:26:34Z</time>
      </trkpt>
      <trkpt lat="19.20572" lon="98.96826">
        <time>2019-09-06T08:26:35Z</time>
      </trkpt>
      <trkpt lat="19.20548" lon="98.96821">
        <time>2019-09-06T08:26:36Z</time>
      </trkpt>
      <trkpt lat="19.20525" lon="98.96818">
        <time>2019-09-06T08:26:37Z</time>
      </trkpt>
      <trkpt lat="19.20505" lon="98.96814">
        <time>2019-09-06T08:26:38Z</time>
      </trkpt>
      <trkpt lat="19.20484" lon="98.9681">
        <time>2019-09-06T08:26:39Z</time>
      </trkpt>
      <trkpt lat="19.20464" lon="98.96806">
        <time>2019-09-06T08:26:40Z</time>
      </trkpt>
      <trkpt lat="19.20446" lon="98.96802">
        <time>2019-09-06T08:26:41Z</time>
      </trkpt>
      <trkpt lat="19.20429" lon="98.96797">
        <time>2019-09-06T08:26:42Z</time>
      </trkpt>
      <trkpt lat="19.20413" lon="98.96789">
        <time>2019-09-06T08:26:43Z</time>
      </trkpt>
      <trkpt lat="19.204" lon="98.96778">
        <time>2019-09-06T08:26:44Z</time>
      </trkpt>
      <trkpt lat="19.20383" lon="98.96767">
        <time>2019-09-06T08:26:45Z</time>
      </trkpt>
      <trkpt lat="19.20369" lon="98.96755">
        <time>2019-09-06T08:26:46Z</time>
      </trkpt>
      <trkpt lat="19.20356" lon="98.96739">
        <time>2019-09-06T08:26:47Z</time>
      </trkpt>
      <trkpt lat="19.20345" lon="98.96721">
        <time>2019-09-06T08:26:48Z</time>
      </trkpt>
      <trkpt lat="19.2034" lon="98.96699">
        <time>2019-09-06T08:26:49Z</time>
      </trkpt>
      <trkpt lat="19.2034" lon="98.96664">
        <time>2019-09-06T08:26:50Z</time>
      </trkpt>
      <trkpt lat="19.20333" lon="98.96641">
        <time>2019-09-06T08:26:51Z</time>
      </trkpt>
      <trkpt lat="19.20326" lon="98.96622">
        <time>2019-09-06T08:26:52Z</time>
      </trkpt>
      <trkpt lat="19.20317" lon="98.96602">
        <time>2019-09-06T08:26:53Z</time>
      </trkpt>
      <trkpt lat="19.20304" lon="98.96587">
        <time>2019-09-06T08:26:54Z</time>
      </trkpt>
      <trkpt lat="19.20289" lon="98.96574">
        <time>2019-09-06T08:26:55Z</time>
      </trkpt>
      <trkpt lat="19.20274" lon="98.96559">
        <time>2019-09-06T08:26:56Z</time>
      </trkpt>
      <trkpt lat="19.20257" lon="98.96549">
        <time>2019-09-06T08:26:57Z</time>
      </trkpt>
      <trkpt lat="19.20239" lon="98.96536">
        <time>2019-09-06T08:26:58Z</time>
      </trkpt>
      <trkpt lat="19.20218" lon="98.96528">
        <time>2019-09-06T08:26:59Z</time>
      </trkpt>
      <trkpt lat="19.20197" lon="98.96515">
        <time>2019-09-06T08:27:00Z</time>
      </trkpt>
      <trkpt lat="19.20177" lon="98.96503">
        <time>2019-09-06T08:27:01Z</time>
      </trkpt>
      <trkpt lat="19.20156" lon="98.9649">
        <time>2019-09-06T08:27:02Z</time>
      </trkpt>
      <trkpt lat="19.20136" lon="98.96478">
        <time>2019-09-06T08:27:03Z</time>
      </trkpt>
      <trkpt lat="19.20114" lon="98.96467">
        <time>2019-09-06T08:27:04Z</time>
      </trkpt>
      <trkpt lat="19.20096" lon="98.96455">
        <time>2019-09-06T08:27:05Z</time>
      </trkpt>
      <trkpt lat="19.20075" lon="98.96446">
        <time>2019-09-06T08:27:06Z</time>
      </trkpt>
      <trkpt lat="19.20056" lon="98.96434">
        <time>2019-09-06T08:27:07Z</time>
      </trkpt>
      <trkpt lat="19.20038" lon="98.96422">
        <time>2019-09-06T08:27:08Z</time>
      </trkpt>
      <trkpt lat="19.20023" lon="98.96411">
        <time>2019-09-06T08:27:09Z</time>
      </trkpt>
      <trkpt lat="19.20005" lon="98.96406">
        <time>2019-09-06T08:27:10Z</time>
      </trkpt>
      <trkpt lat="19.19986" lon="98.9641">
        <time>2019-09-06T08:27:11Z</time>
      </trkpt>
      <trkpt lat="19.19968" lon="98.96406">
        <time>2019-09-06T08:27:12Z</time>
      </trkpt>
      <trkpt lat="19.19952" lon="98.96402">
        <time>2019-09-06T08:27:13Z</time>
      </trkpt>
      <trkpt lat="19.19933" lon="98.96413">
        <time>2019-09-06T08:27:14Z</time>
      </trkpt>
      <trkpt lat="19.19916" lon="98.9642">
        <time>2019-09-06T08:27:15Z</time>
      </trkpt>
      <trkpt lat="19.19899" lon="98.96432">
        <time>2019-09-06T08:27:16Z</time>
      </trkpt>
      <trkpt lat="19.19882" lon="98.96444">
        <time>2019-09-06T08:27:17Z</time>
      </trkpt>
      <trkpt lat="19.19867" lon="98.96452">
        <time>2019-09-06T08:27:18Z</time>
      </trkpt>
      <trkpt lat="19.19854" lon="98.96464">
        <time>2019-09-06T08:27:19Z</time>
      </trkpt>
      <trkpt lat="19.19838" lon="98.96477">
        <time>2019-09-06T08:27:20Z</time>
      </trkpt>
      <trkpt lat="19.19819" lon="98.96471">
        <time>2019-09-06T08:27:21Z</time>
      </trkpt>
      <trkpt lat="19.19803" lon="98.96471">
        <time>2019-09-06T08:27:22Z</time>
      </trkpt>
      <trkpt lat="19.19787" lon="98.96469">
        <time>2019-09-06T08:27:23Z</time>
      </trkpt>
      <trkpt lat="19.19776" lon="98.96466">
        <time>2019-09-06T08:27:24Z</time>
      </trkpt>
      <trkpt lat="19.19765" lon="98.96463">
        <time>2019-09-06T08:27:25Z</time>
      </trkpt>
      <trkpt lat="19.19753" lon="98.9646">
        <time>2019-09-06T08:27:26Z</time>
      </trkpt>
      <trkpt lat="19.19746" lon="98.96446">
        <time>2019-09-06T08:27:27Z</time>
      </trkpt>
      <trkpt lat="19.19742" lon="98.96428">
        <time>2019-09-06T08:27:28Z</time>
      </trkpt>
      <trkpt lat="19.19758" lon="98.96376">
        <time>2019-09-06T08:27:29Z</time>
      </trkpt>
      <trkpt lat="19.1976" lon="98.96349">
        <time>2019-09-06T08:27:30Z</time>
      </trkpt>
      <trkpt lat="19.19758" lon="98.96325">
        <time>2019-09-06T08:27:31Z</time>
      </trkpt>
      <trkpt lat="19.19753" lon="98.96302">
        <time>2019-09-06T08:27:32Z</time>
      </trkpt>
      <trkpt lat="19.19748" lon="98.96281">
        <time>2019-09-06T08:27:33Z</time>
      </trkpt>
      <trkpt lat="19.19743" lon="98.96258">
        <time>2019-09-06T08:27:34Z</time>
      </trkpt>
      <trkpt lat="19.19738" lon="98.96234">
        <time>2019-09-06T08:27:35Z</time>
      </trkpt>
      <trkpt lat="19.19731" lon="98.96212">
        <time>2019-09-06T08:27:36Z</time>
      </trkpt>
      <trkpt lat="19.19725" lon="98.9619">
        <time>2019-09-06T08:27:37Z</time>
      </trkpt>
      <trkpt lat="19.19716" lon="98.96168">
        <time>2019-09-06T08:27:38Z</time>
      </trkpt>
      <trkpt lat="19.19707" lon="98.96148">
        <time>2019-09-06T08:27:39Z</time>
      </trkpt>
      <trkpt lat="19.19695" lon="98.96129">
        <time>2019-09-06T08:27:40Z</time>
      </trkpt>
      <trkpt lat="19.19682" lon="98.96113">
        <time>2019-09-06T08:27:41Z</time>
      </trkpt>
      <trkpt lat="19.19667" lon="98.96098">
        <time>2019-09-06T08:27:42Z</time>
      </trkpt>
      <trkpt lat="19.19651" lon="98.96085">
        <time>2019-09-06T08:27:43Z</time>
      </trkpt>
      <trkpt lat="19.19634" lon="98.96072">
        <time>2019-09-06T08:27:44Z</time>
      </trkpt>
      <trkpt lat="19.19615" lon="98.96061">
        <time>2019-09-06T08:27:45Z</time>
      </trkpt>
      <trkpt lat="19.19597" lon="98.9605">
        <time>2019-09-06T08:27:46Z</time>
      </trkpt>
      <trkpt lat="19.19575" lon="98.96041">
        <time>2019-09-06T08:27:47Z</time>
      </trkpt>
      <trkpt lat="19.19553" lon="98.96031">
        <time>2019-09-06T08:27:48Z</time>
      </trkpt>
      <trkpt lat="19.19532" lon="98.96022">
        <time>2019-09-06T08:27:49Z</time>
      </trkpt>
      <trkpt lat="19.1951" lon="98.96011">
        <time>2019-09-06T08:27:50Z</time>
      </trkpt>
      <trkpt lat="19.19488" lon="98.96001">
        <time>2019-09-06T08:27:51Z</time>
      </trkpt>
      <trkpt lat="19.19467" lon="98.95991">
        <time>2019-09-06T08:27:52Z</time>
      </trkpt>
      <trkpt lat="19.19446" lon="98.95981">
        <time>2019-09-06T08:27:53Z</time>
      </trkpt>
      <trkpt lat="19.19424" lon="98.9597">
        <time>2019-09-06T08:27:54Z</time>
      </trkpt>
      <trkpt lat="19.19403" lon="98.9596">
        <time>2019-09-06T08:27:55Z</time>
      </trkpt>
      <trkpt lat="19.19381" lon="98.9595">
        <time>2019-09-06T08:27:56Z</time>
      </trkpt>
      <trkpt lat="19.19359" lon="98.9594">
        <time>2019-09-06T08:27:57Z</time>
      </trkpt>
      <trkpt lat="19.19336" lon="98.95929">
        <time>2019-09-06T08:27:58Z</time>
      </trkpt>
      <trkpt lat="19.19313" lon="98.95919">
        <time>2019-09-06T08:27:59Z</time>
      </trkpt>
      <trkpt lat="19.1929" lon="98.95909">
        <time>2019-09-06T08:28:00Z</time>
      </trkpt>
      <trkpt lat="19.19267" lon="98.95899">
        <time>2019-09-06T08:28:01Z</time>
      </trkpt>
      <trkpt lat="19.19243" lon="98.95889">
        <time>2019-09-06T08:28:02Z</time>
      </trkpt>
      <trkpt lat="19.1922" lon="98.95879">
        <time>2019-09-06T08:28:03Z</time>
      </trkpt>
      <trkpt lat="19.19198" lon="98.95867">
        <time>2019-09-06T08:28:04Z</time>
      </trkpt>
      <trkpt lat="19.19175" lon="98.95856">
        <time>2019-09-06T08:28:05Z</time>
      </trkpt>
      <trkpt lat="19.19152" lon="98.95844">
        <time>2019-09-06T08:28:06Z</time>
      </trkpt>
      <trkpt lat="19.19127" lon="98.95834">
        <time>2019-09-06T08:28:07Z</time>
      </trkpt>
      <trkpt lat="19.19103" lon="98.95823">
        <time>2019-09-06T08:28:08Z</time>
      </trkpt>
      <trkpt lat="19.19079" lon="98.95811">
        <time>2019-09-06T08:28:09Z</time>
      </trkpt>
      <trkpt lat="19.19055" lon="98.958">
        <time>2019-09-06T08:28:11Z</time>
      </trkpt>
      <trkpt lat="19.19032" lon="98.95788">
        <time>2019-09-06T08:28:11Z</time>
      </trkpt>
      <trkpt lat="19.19009" lon="98.95778">
        <time>2019-09-06T08:28:12Z</time>
      </trkpt>
      <trkpt lat="19.18986" lon="98.95766">
        <time>2019-09-06T08:28:13Z</time>
      </trkpt>
      <trkpt lat="19.18962" lon="98.95755">
        <time>2019-09-06T08:28:14Z</time>
      </trkpt>
      <trkpt lat="19.18939" lon="98.95744">
        <time>2019-09-06T08:28:15Z</time>
      </trkpt>
      <trkpt lat="19.18917" lon="98.95731">
        <time>2019-09-06T08:28:16Z</time>
      </trkpt>
      <trkpt lat="19.18893" lon="98.95718">
        <time>2019-09-06T08:28:17Z</time>
      </trkpt>
      <trkpt lat="19.18869" lon="98.95706">
        <time>2019-09-06T08:28:18Z</time>
      </trkpt>
      <trkpt lat="19.18845" lon="98.95695">
        <time>2019-09-06T08:28:19Z</time>
      </trkpt>
      <trkpt lat="19.18821" lon="98.95684">
        <time>2019-09-06T08:28:20Z</time>
      </trkpt>
      <trkpt lat="19.18798" lon="98.9567">
        <time>2019-09-06T08:28:21Z</time>
      </trkpt>
      <trkpt lat="19.18773" lon="98.95657">
        <time>2019-09-06T08:28:22Z</time>
      </trkpt>
      <trkpt lat="19.18748" lon="98.95647">
        <time>2019-09-06T08:28:23Z</time>
      </trkpt>
      <trkpt lat="19.18724" lon="98.95633">
        <time>2019-09-06T08:28:24Z</time>
      </trkpt>
      <trkpt lat="19.18701" lon="98.95619">
        <time>2019-09-06T08:28:25Z</time>
      </trkpt>
      <trkpt lat="19.18679" lon="98.95607">
        <time>2019-09-06T08:28:26Z</time>
      </trkpt>
      <trkpt lat="19.18658" lon="98.95589">
        <time>2019-09-06T08:28:27Z</time>
      </trkpt>
      <trkpt lat="19.18635" lon="98.95573">
        <time>2019-09-06T08:28:28Z</time>
      </trkpt>
      <trkpt lat="19.18612" lon="98.95558">
        <time>2019-09-06T08:28:29Z</time>
      </trkpt>
      <trkpt lat="19.1859" lon="98.95542">
        <time>2019-09-06T08:28:30Z</time>
      </trkpt>
      <trkpt lat="19.18568" lon="98.95527">
        <time>2019-09-06T08:28:31Z</time>
      </trkpt>
      <trkpt lat="19.18545" lon="98.95511">
        <time>2019-09-06T08:28:32Z</time>
      </trkpt>
      <trkpt lat="19.18524" lon="98.95496">
        <time>2019-09-06T08:28:33Z</time>
      </trkpt>
      <trkpt lat="19.18502" lon="98.95483">
        <time>2019-09-06T08:28:34Z</time>
      </trkpt>
      <trkpt lat="19.18479" lon="98.9547">
        <time>2019-09-06T08:28:35Z</time>
      </trkpt>
      <trkpt lat="19.18455" lon="98.95457">
        <time>2019-09-06T08:28:36Z</time>
      </trkpt>
      <trkpt lat="19.18431" lon="98.95445">
        <time>2019-09-06T08:28:37Z</time>
      </trkpt>
      <trkpt lat="19.18405" lon="98.95438">
        <time>2019-09-06T08:28:38Z</time>
      </trkpt>
      <trkpt lat="19.18383" lon="98.95429">
        <time>2019-09-06T08:28:39Z</time>
      </trkpt>
      <trkpt lat="19.18362" lon="98.9542">
        <time>2019-09-06T08:28:40Z</time>
      </trkpt>
      <trkpt lat="19.18342" lon="98.95412">
        <time>2019-09-06T08:28:41Z</time>
      </trkpt>
      <trkpt lat="19.18322" lon="98.95402">
        <time>2019-09-06T08:28:42Z</time>
      </trkpt>
      <trkpt lat="19.183" lon="98.95392">
        <time>2019-09-06T08:28:43Z</time>
      </trkpt>
      <trkpt lat="19.18279" lon="98.95383">
        <time>2019-09-06T08:28:44Z</time>
      </trkpt>
      <trkpt lat="19.18256" lon="98.95372">
        <time>2019-09-06T08:28:45Z</time>
      </trkpt>
      <trkpt lat="19.18234" lon="98.95363">
        <time>2019-09-06T08:28:46Z</time>
      </trkpt>
      <trkpt lat="19.1821" lon="98.95353">
        <time>2019-09-06T08:28:47Z</time>
      </trkpt>
      <trkpt lat="19.18186" lon="98.95342">
        <time>2019-09-06T08:28:48Z</time>
      </trkpt>
      <trkpt lat="19.18162" lon="98.95331">
        <time>2019-09-06T08:28:49Z</time>
      </trkpt>
      <trkpt lat="19.18137" lon="98.95321">
        <time>2019-09-06T08:28:50Z</time>
      </trkpt>
      <trkpt lat="19.18113" lon="98.9531">
        <time>2019-09-06T08:28:51Z</time>
      </trkpt>
      <trkpt lat="19.18089" lon="98.95299">
        <time>2019-09-06T08:28:52Z</time>
      </trkpt>
      <trkpt lat="19.18065" lon="98.95288">
        <time>2019-09-06T08:28:53Z</time>
      </trkpt>
      <trkpt lat="19.18041" lon="98.95276">
        <time>2019-09-06T08:28:54Z</time>
      </trkpt>
      <trkpt lat="19.18016" lon="98.95265">
        <time>2019-09-06T08:28:55Z</time>
      </trkpt>
      <trkpt lat="19.17992" lon="98.95252">
        <time>2019-09-06T08:28:56Z</time>
      </trkpt>
      <trkpt lat="19.17967" lon="98.9524">
        <time>2019-09-06T08:28:57Z</time>
      </trkpt>
      <trkpt lat="19.17943" lon="98.95227">
        <time>2019-09-06T08:28:58Z</time>
      </trkpt>
      <trkpt lat="19.1792" lon="98.95214">
        <time>2019-09-06T08:28:59Z</time>
      </trkpt>
      <trkpt lat="19.17896" lon="98.95202">
        <time>2019-09-06T08:29:00Z</time>
      </trkpt>
      <trkpt lat="19.17873" lon="98.9519">
        <time>2019-09-06T08:29:01Z</time>
      </trkpt>
      <trkpt lat="19.17849" lon="98.95178">
        <time>2019-09-06T08:29:02Z</time>
      </trkpt>
      <trkpt lat="19.17826" lon="98.95164">
        <time>2019-09-06T08:29:03Z</time>
      </trkpt>
      <trkpt lat="19.17801" lon="98.95154">
        <time>2019-09-06T08:29:04Z</time>
      </trkpt>
      <trkpt lat="19.17777" lon="98.95141">
        <time>2019-09-06T08:29:05Z</time>
      </trkpt>
      <trkpt lat="19.17753" lon="98.9513">
        <time>2019-09-06T08:29:06Z</time>
      </trkpt>
      <trkpt lat="19.1773" lon="98.95118">
        <time>2019-09-06T08:29:07Z</time>
      </trkpt>
      <trkpt lat="19.17706" lon="98.95107">
        <time>2019-09-06T08:29:08Z</time>
      </trkpt>
      <trkpt lat="19.17683" lon="98.95095">
        <time>2019-09-06T08:29:09Z</time>
      </trkpt>
      <trkpt lat="19.1766" lon="98.95082">
        <time>2019-09-06T08:29:10Z</time>
      </trkpt>
      <trkpt lat="19.17637" lon="98.95071">
        <time>2019-09-06T08:29:11Z</time>
      </trkpt>
      <trkpt lat="19.17615" lon="98.95057">
        <time>2019-09-06T08:29:12Z</time>
      </trkpt>
      <trkpt lat="19.17592" lon="98.95044">
        <time>2019-09-06T08:29:13Z</time>
      </trkpt>
      <trkpt lat="19.1757" lon="98.95033">
        <time>2019-09-06T08:29:14Z</time>
      </trkpt>
      <trkpt lat="19.17547" lon="98.95021">
        <time>2019-09-06T08:29:15Z</time>
      </trkpt>
      <trkpt lat="19.17524" lon="98.95008">
        <time>2019-09-06T08:29:16Z</time>
      </trkpt>
      <trkpt lat="19.17501" lon="98.94997">
        <time>2019-09-06T08:29:17Z</time>
      </trkpt>
      <trkpt lat="19.17478" lon="98.94985">
        <time>2019-09-06T08:29:18Z</time>
      </trkpt>
      <trkpt lat="19.17456" lon="98.94974">
        <time>2019-09-06T08:29:19Z</time>
      </trkpt>
      <trkpt lat="19.17436" lon="98.94962">
        <time>2019-09-06T08:29:20Z</time>
      </trkpt>
      <trkpt lat="19.17416" lon="98.94949">
        <time>2019-09-06T08:29:21Z</time>
      </trkpt>
      <trkpt lat="19.17397" lon="98.94935">
        <time>2019-09-06T08:29:22Z</time>
      </trkpt>
      <trkpt lat="19.17373" lon="98.9493">
        <time>2019-09-06T08:29:23Z</time>
      </trkpt>
      <trkpt lat="19.17349" lon="98.94929">
        <time>2019-09-06T08:29:24Z</time>
      </trkpt>
      <trkpt lat="19.17325" lon="98.94933">
        <time>2019-09-06T08:29:25Z</time>
      </trkpt>
      <trkpt lat="19.173" lon="98.94931">
        <time>2019-09-06T08:29:26Z</time>
      </trkpt>
      <trkpt lat="19.17274" lon="98.94927">
        <time>2019-09-06T08:29:27Z</time>
      </trkpt>
      <trkpt lat="19.17248" lon="98.94924">
        <time>2019-09-06T08:29:28Z</time>
      </trkpt>
      <trkpt lat="19.17221" lon="98.94919">
        <time>2019-09-06T08:29:29Z</time>
      </trkpt>
      <trkpt lat="19.17195" lon="98.94916">
        <time>2019-09-06T08:29:30Z</time>
      </trkpt>
      <trkpt lat="19.17169" lon="98.94912">
        <time>2019-09-06T08:29:32Z</time>
      </trkpt>
      <trkpt lat="19.17143" lon="98.94908">
        <time>2019-09-06T08:29:32Z</time>
      </trkpt>
      <trkpt lat="19.17116" lon="98.94904">
        <time>2019-09-06T08:29:33Z</time>
      </trkpt>
      <trkpt lat="19.1709" lon="98.949">
        <time>2019-09-06T08:29:34Z</time>
      </trkpt>
      <trkpt lat="19.17063" lon="98.94895">
        <time>2019-09-06T08:29:35Z</time>
      </trkpt>
      <trkpt lat="19.17036" lon="98.94892">
        <time>2019-09-06T08:29:36Z</time>
      </trkpt>
      <trkpt lat="19.17009" lon="98.94889">
        <time>2019-09-06T08:29:37Z</time>
      </trkpt>
      <trkpt lat="19.16983" lon="98.94884">
        <time>2019-09-06T08:29:38Z</time>
      </trkpt>
      <trkpt lat="19.16957" lon="98.94881">
        <time>2019-09-06T08:29:39Z</time>
      </trkpt>
      <trkpt lat="19.16931" lon="98.94877">
        <time>2019-09-06T08:29:40Z</time>
      </trkpt>
      <trkpt lat="19.16904" lon="98.94872">
        <time>2019-09-06T08:29:41Z</time>
      </trkpt>
      <trkpt lat="19.16878" lon="98.94868">
        <time>2019-09-06T08:29:42Z</time>
      </trkpt>
      <trkpt lat="19.16851" lon="98.94862">
        <time>2019-09-06T08:29:43Z</time>
      </trkpt>
      <trkpt lat="19.16825" lon="98.94858">
        <time>2019-09-06T08:29:44Z</time>
      </trkpt>
      <trkpt lat="19.16799" lon="98.94854">
        <time>2019-09-06T08:29:45Z</time>
      </trkpt>
      <trkpt lat="19.16773" lon="98.94851">
        <time>2019-09-06T08:29:46Z</time>
      </trkpt>
      <trkpt lat="19.16748" lon="98.94847">
        <time>2019-09-06T08:29:47Z</time>
      </trkpt>
      <trkpt lat="19.16721" lon="98.94843">
        <time>2019-09-06T08:29:48Z</time>
      </trkpt>
      <trkpt lat="19.16696" lon="98.94839">
        <time>2019-09-06T08:29:49Z</time>
      </trkpt>
      <trkpt lat="19.16671" lon="98.94836">
        <time>2019-09-06T08:29:50Z</time>
      </trkpt>
      <trkpt lat="19.16645" lon="98.94832">
        <time>2019-09-06T08:29:51Z</time>
      </trkpt>
      <trkpt lat="19.16619" lon="98.94828">
        <time>2019-09-06T08:29:52Z</time>
      </trkpt>
      <trkpt lat="19.16593" lon="98.94825">
        <time>2019-09-06T08:29:53Z</time>
      </trkpt>
      <trkpt lat="19.16568" lon="98.94821">
        <time>2019-09-06T08:29:54Z</time>
      </trkpt>
      <trkpt lat="19.16542" lon="98.94818">
        <time>2019-09-06T08:29:55Z</time>
      </trkpt>
      <trkpt lat="19.16515" lon="98.94814">
        <time>2019-09-06T08:29:56Z</time>
      </trkpt>
      <trkpt lat="19.16488" lon="98.94811">
        <time>2019-09-06T08:29:57Z</time>
      </trkpt>
      <trkpt lat="19.16462" lon="98.9481">
        <time>2019-09-06T08:29:58Z</time>
      </trkpt>
      <trkpt lat="19.16435" lon="98.94808">
        <time>2019-09-06T08:29:59Z</time>
      </trkpt>
      <trkpt lat="19.16408" lon="98.94807">
        <time>2019-09-06T08:30:00Z</time>
      </trkpt>
      <trkpt lat="19.1638" lon="98.94805">
        <time>2019-09-06T08:30:01Z</time>
      </trkpt>
      <trkpt lat="19.16354" lon="98.94804">
        <time>2019-09-06T08:30:02Z</time>
      </trkpt>
      <trkpt lat="19.16327" lon="98.94802">
        <time>2019-09-06T08:30:03Z</time>
      </trkpt>
      <trkpt lat="19.163" lon="98.94803">
        <time>2019-09-06T08:30:04Z</time>
      </trkpt>
      <trkpt lat="19.16274" lon="98.94804">
        <time>2019-09-06T08:30:05Z</time>
      </trkpt>
      <trkpt lat="19.16249" lon="98.94806">
        <time>2019-09-06T08:30:06Z</time>
      </trkpt>
      <trkpt lat="19.16223" lon="98.94807">
        <time>2019-09-06T08:30:07Z</time>
      </trkpt>
      <trkpt lat="19.16196" lon="98.94806">
        <time>2019-09-06T08:30:08Z</time>
      </trkpt>
      <trkpt lat="19.1617" lon="98.94807">
        <time>2019-09-06T08:30:09Z</time>
      </trkpt>
      <trkpt lat="19.16143" lon="98.94808">
        <time>2019-09-06T08:30:10Z</time>
      </trkpt>
      <trkpt lat="19.16118" lon="98.9481">
        <time>2019-09-06T08:30:11Z</time>
      </trkpt>
      <trkpt lat="19.16092" lon="98.94812">
        <time>2019-09-06T08:30:12Z</time>
      </trkpt>
      <trkpt lat="19.16066" lon="98.94815">
        <time>2019-09-06T08:30:13Z</time>
      </trkpt>
      <trkpt lat="19.1604" lon="98.94817">
        <time>2019-09-06T08:30:14Z</time>
      </trkpt>
      <trkpt lat="19.16014" lon="98.94819">
        <time>2019-09-06T08:30:15Z</time>
      </trkpt>
      <trkpt lat="19.15988" lon="98.94821">
        <time>2019-09-06T08:30:16Z</time>
      </trkpt>
      <trkpt lat="19.15962" lon="98.94825">
        <time>2019-09-06T08:30:17Z</time>
      </trkpt>
      <trkpt lat="19.15934" lon="98.94827">
        <time>2019-09-06T08:30:18Z</time>
      </trkpt>
      <trkpt lat="19.15909" lon="98.94831">
        <time>2019-09-06T08:30:19Z</time>
      </trkpt>
      <trkpt lat="19.15883" lon="98.94834">
        <time>2019-09-06T08:30:20Z</time>
      </trkpt>
      <trkpt lat="19.15858" lon="98.94837">
        <time>2019-09-06T08:30:21Z</time>
      </trkpt>
      <trkpt lat="19.15831" lon="98.94839">
        <time>2019-09-06T08:30:22Z</time>
      </trkpt>
      <trkpt lat="19.15805" lon="98.94842">
        <time>2019-09-06T08:30:23Z</time>
      </trkpt>
      <trkpt lat="19.15779" lon="98.94844">
        <time>2019-09-06T08:30:24Z</time>
      </trkpt>
      <trkpt lat="19.15752" lon="98.94844">
        <time>2019-09-06T08:30:25Z</time>
      </trkpt>
      <trkpt lat="19.15724" lon="98.94844">
        <time>2019-09-06T08:30:26Z</time>
      </trkpt>
      <trkpt lat="19.15698" lon="98.94843">
        <time>2019-09-06T08:30:27Z</time>
      </trkpt>
      <trkpt lat="19.15673" lon="98.94842">
        <time>2019-09-06T08:30:28Z</time>
      </trkpt>
      <trkpt lat="19.15648" lon="98.94841">
        <time>2019-09-06T08:30:29Z</time>
      </trkpt>
      <trkpt lat="19.15622" lon="98.9484">
        <time>2019-09-06T08:30:30Z</time>
      </trkpt>
      <trkpt lat="19.15596" lon="98.94838">
        <time>2019-09-06T08:30:31Z</time>
      </trkpt>
      <trkpt lat="19.15568" lon="98.94839">
        <time>2019-09-06T08:30:32Z</time>
      </trkpt>
      <trkpt lat="19.15545" lon="98.94839">
        <time>2019-09-06T08:30:33Z</time>
      </trkpt>
      <trkpt lat="19.15519" lon="98.94838">
        <time>2019-09-06T08:30:34Z</time>
      </trkpt>
      <trkpt lat="19.15491" lon="98.94838">
        <time>2019-09-06T08:30:35Z</time>
      </trkpt>
      <trkpt lat="19.15463" lon="98.9484">
        <time>2019-09-06T08:30:36Z</time>
      </trkpt>
      <trkpt lat="19.15439" lon="98.94836">
        <time>2019-09-06T08:30:37Z</time>
      </trkpt>
      <trkpt lat="19.15413" lon="98.94833">
        <time>2019-09-06T08:30:38Z</time>
      </trkpt>
      <trkpt lat="19.15388" lon="98.9483">
        <time>2019-09-06T08:30:39Z</time>
      </trkpt>
      <trkpt lat="19.15362" lon="98.94826">
        <time>2019-09-06T08:30:40Z</time>
      </trkpt>
      <trkpt lat="19.15336" lon="98.94822">
        <time>2019-09-06T08:30:41Z</time>
      </trkpt>
      <trkpt lat="19.1531" lon="98.94819">
        <time>2019-09-06T08:30:42Z</time>
      </trkpt>
      <trkpt lat="19.15284" lon="98.94817">
        <time>2019-09-06T08:30:43Z</time>
      </trkpt>
      <trkpt lat="19.15259" lon="98.94814">
        <time>2019-09-06T08:30:44Z</time>
      </trkpt>
      <trkpt lat="19.15236" lon="98.94811">
        <time>2019-09-06T08:30:45Z</time>
      </trkpt>
      <trkpt lat="19.15212" lon="98.94809">
        <time>2019-09-06T08:30:46Z</time>
      </trkpt>
      <trkpt lat="19.1519" lon="98.94808">
        <time>2019-09-06T08:30:47Z</time>
      </trkpt>
      <trkpt lat="19.15167" lon="98.94804">
        <time>2019-09-06T08:30:48Z</time>
      </trkpt>
      <trkpt lat="19.15144" lon="98.94799">
        <time>2019-09-06T08:30:49Z</time>
      </trkpt>
      <trkpt lat="19.15121" lon="98.94794">
        <time>2019-09-06T08:30:50Z</time>
      </trkpt>
      <trkpt lat="19.15099" lon="98.94787">
        <time>2019-09-06T08:30:51Z</time>
      </trkpt>
      <trkpt lat="19.15077" lon="98.94781">
        <time>2019-09-06T08:30:52Z</time>
      </trkpt>
      <trkpt lat="19.15053" lon="98.94776">
        <time>2019-09-06T08:30:53Z</time>
      </trkpt>
      <trkpt lat="19.1503" lon="98.94772">
        <time>2019-09-06T08:30:54Z</time>
      </trkpt>
      <trkpt lat="19.15008" lon="98.94767">
        <time>2019-09-06T08:30:55Z</time>
      </trkpt>
      <trkpt lat="19.14987" lon="98.94762">
        <time>2019-09-06T08:30:56Z</time>
      </trkpt>
      <trkpt lat="19.14965" lon="98.94756">
        <time>2019-09-06T08:30:57Z</time>
      </trkpt>
      <trkpt lat="19.14942" lon="98.9475">
        <time>2019-09-06T08:30:58Z</time>
      </trkpt>
      <trkpt lat="19.14919" lon="98.94743">
        <time>2019-09-06T08:30:59Z</time>
      </trkpt>
      <trkpt lat="19.14896" lon="98.94739">
        <time>2019-09-06T08:31:00Z</time>
      </trkpt>
      <trkpt lat="19.14873" lon="98.94733">
        <time>2019-09-06T08:31:01Z</time>
      </trkpt>
      <trkpt lat="19.1485" lon="98.94726">
        <time>2019-09-06T08:31:02Z</time>
      </trkpt>
      <trkpt lat="19.14825" lon="98.94723">
        <time>2019-09-06T08:31:03Z</time>
      </trkpt>
      <trkpt lat="19.14801" lon="98.94715">
        <time>2019-09-06T08:31:04Z</time>
      </trkpt>
      <trkpt lat="19.14778" lon="98.94707">
        <time>2019-09-06T08:31:05Z</time>
      </trkpt>
      <trkpt lat="19.14755" lon="98.94702">
        <time>2019-09-06T08:31:06Z</time>
      </trkpt>
      <trkpt lat="19.14732" lon="98.94698">
        <time>2019-09-06T08:31:07Z</time>
      </trkpt>
      <trkpt lat="19.1471" lon="98.94692">
        <time>2019-09-06T08:31:08Z</time>
      </trkpt>
      <trkpt lat="19.1469" lon="98.94688">
        <time>2019-09-06T08:31:09Z</time>
      </trkpt>
      <trkpt lat="19.14669" lon="98.94682">
        <time>2019-09-06T08:31:10Z</time>
      </trkpt>
      <trkpt lat="19.14648" lon="98.94678">
        <time>2019-09-06T08:31:11Z</time>
      </trkpt>
      <trkpt lat="19.14626" lon="98.94679">
        <time>2019-09-06T08:31:12Z</time>
      </trkpt>
      <trkpt lat="19.14607" lon="98.94683">
        <time>2019-09-06T08:31:13Z</time>
      </trkpt>
      <trkpt lat="19.14582" lon="98.94684">
        <time>2019-09-06T08:31:14Z</time>
      </trkpt>
      <trkpt lat="19.14557" lon="98.94686">
        <time>2019-09-06T08:31:15Z</time>
      </trkpt>
      <trkpt lat="19.14531" lon="98.94697">
        <time>2019-09-06T08:31:16Z</time>
      </trkpt>
      <trkpt lat="19.14511" lon="98.94709">
        <time>2019-09-06T08:31:17Z</time>
      </trkpt>
      <trkpt lat="19.14491" lon="98.9472">
        <time>2019-09-06T08:31:18Z</time>
      </trkpt>
      <trkpt lat="19.14468" lon="98.94729">
        <time>2019-09-06T08:31:19Z</time>
      </trkpt>
      <trkpt lat="19.14444" lon="98.94738">
        <time>2019-09-06T08:31:20Z</time>
      </trkpt>
      <trkpt lat="19.14423" lon="98.94747">
        <time>2019-09-06T08:31:21Z</time>
      </trkpt>
      <trkpt lat="19.14401" lon="98.94755">
        <time>2019-09-06T08:31:22Z</time>
      </trkpt>
      <trkpt lat="19.14378" lon="98.94762">
        <time>2019-09-06T08:31:23Z</time>
      </trkpt>
      <trkpt lat="19.14356" lon="98.94767">
        <time>2019-09-06T08:31:24Z</time>
      </trkpt>
      <trkpt lat="19.14333" lon="98.94771">
        <time>2019-09-06T08:31:25Z</time>
      </trkpt>
      <trkpt lat="19.14314" lon="98.94776">
        <time>2019-09-06T08:31:26Z</time>
      </trkpt>
      <trkpt lat="19.14293" lon="98.9478">
        <time>2019-09-06T08:31:27Z</time>
      </trkpt>
      <trkpt lat="19.14273" lon="98.94782">
        <time>2019-09-06T08:31:28Z</time>
      </trkpt>
      <trkpt lat="19.14253" lon="98.94784">
        <time>2019-09-06T08:31:29Z</time>
      </trkpt>
      <trkpt lat="19.14232" lon="98.94785">
        <time>2019-09-06T08:31:30Z</time>
      </trkpt>
      <trkpt lat="19.14212" lon="98.94787">
        <time>2019-09-06T08:31:31Z</time>
      </trkpt>
      <trkpt lat="19.14189" lon="98.94778">
        <time>2019-09-06T08:31:32Z</time>
      </trkpt>
      <trkpt lat="19.14166" lon="98.94773">
        <time>2019-09-06T08:31:33Z</time>
      </trkpt>
      <trkpt lat="19.14147" lon="98.94764">
        <time>2019-09-06T08:31:34Z</time>
      </trkpt>
      <trkpt lat="19.14125" lon="98.94754">
        <time>2019-09-06T08:31:35Z</time>
      </trkpt>
      <trkpt lat="19.14106" lon="98.94746">
        <time>2019-09-06T08:31:36Z</time>
      </trkpt>
      <trkpt lat="19.14084" lon="98.94738">
        <time>2019-09-06T08:31:37Z</time>
      </trkpt>
      <trkpt lat="19.14065" lon="98.9473">
        <time>2019-09-06T08:31:38Z</time>
      </trkpt>
      <trkpt lat="19.14047" lon="98.94722">
        <time>2019-09-06T08:31:39Z</time>
      </trkpt>
      <trkpt lat="19.14028" lon="98.94714">
        <time>2019-09-06T08:31:40Z</time>
      </trkpt>
      <trkpt lat="19.1401" lon="98.9471">
        <time>2019-09-06T08:31:41Z</time>
      </trkpt>
      <trkpt lat="19.13994" lon="98.94707">
        <time>2019-09-06T08:31:42Z</time>
      </trkpt>
      <trkpt lat="19.13976" lon="98.94703">
        <time>2019-09-06T08:31:43Z</time>
      </trkpt>
      <trkpt lat="19.13959" lon="98.94701">
        <time>2019-09-06T08:31:44Z</time>
      </trkpt>
      <trkpt lat="19.13943" lon="98.94708">
        <time>2019-09-06T08:31:45Z</time>
      </trkpt>
      <trkpt lat="19.1393" lon="98.94719">
        <time>2019-09-06T08:31:46Z</time>
      </trkpt>
      <trkpt lat="19.13917" lon="98.94727">
        <time>2019-09-06T08:31:47Z</time>
      </trkpt>
      <trkpt lat="19.13902" lon="98.94737">
        <time>2019-09-06T08:31:48Z</time>
      </trkpt>
      <trkpt lat="19.13887" lon="98.94749">
        <time>2019-09-06T08:31:49Z</time>
      </trkpt>
      <trkpt lat="19.13867" lon="98.94762">
        <time>2019-09-06T08:31:50Z</time>
      </trkpt>
      <trkpt lat="19.13852" lon="98.94779">
        <time>2019-09-06T08:31:51Z</time>
      </trkpt>
      <trkpt lat="19.13832" lon="98.94791">
        <time>2019-09-06T08:31:52Z</time>
      </trkpt>
      <trkpt lat="19.13816" lon="98.94806">
        <time>2019-09-06T08:31:53Z</time>
      </trkpt>
      <trkpt lat="19.13796" lon="98.94818">
        <time>2019-09-06T08:31:54Z</time>
      </trkpt>
      <trkpt lat="19.13778" lon="98.94827">
        <time>2019-09-06T08:31:55Z</time>
      </trkpt>
      <trkpt lat="19.13761" lon="98.94837">
        <time>2019-09-06T08:31:56Z</time>
      </trkpt>
      <trkpt lat="19.13737" lon="98.94841">
        <time>2019-09-06T08:31:57Z</time>
      </trkpt>
      <trkpt lat="19.1371" lon="98.94844">
        <time>2019-09-06T08:31:58Z</time>
      </trkpt>
      <trkpt lat="19.13683" lon="98.94846">
        <time>2019-09-06T08:31:59Z</time>
      </trkpt>
      <trkpt lat="19.13659" lon="98.9485">
        <time>2019-09-06T08:32:00Z</time>
      </trkpt>
      <trkpt lat="19.13637" lon="98.94853">
        <time>2019-09-06T08:32:01Z</time>
      </trkpt>
      <trkpt lat="19.13617" lon="98.94857">
        <time>2019-09-06T08:32:02Z</time>
      </trkpt>
      <trkpt lat="19.13593" lon="98.94861">
        <time>2019-09-06T08:32:03Z</time>
      </trkpt>
      <trkpt lat="19.13571" lon="98.94865">
        <time>2019-09-06T08:32:04Z</time>
      </trkpt>
      <trkpt lat="19.13548" lon="98.94868">
        <time>2019-09-06T08:32:05Z</time>
      </trkpt>
      <trkpt lat="19.13525" lon="98.94871">
        <time>2019-09-06T08:32:06Z</time>
      </trkpt>
      <trkpt lat="19.13504" lon="98.94877">
        <time>2019-09-06T08:32:07Z</time>
      </trkpt>
      <trkpt lat="19.13481" lon="98.94881">
        <time>2019-09-06T08:32:08Z</time>
      </trkpt>
      <trkpt lat="19.13459" lon="98.94884">
        <time>2019-09-06T08:32:09Z</time>
      </trkpt>
      <trkpt lat="19.13438" lon="98.94888">
        <time>2019-09-06T08:32:10Z</time>
      </trkpt>
      <trkpt lat="19.13418" lon="98.94891">
        <time>2019-09-06T08:32:11Z</time>
      </trkpt>
      <trkpt lat="19.134" lon="98.94895">
        <time>2019-09-06T08:32:12Z</time>
      </trkpt>
      <trkpt lat="19.13383" lon="98.94899">
        <time>2019-09-06T08:32:13Z</time>
      </trkpt>
      <trkpt lat="19.13365" lon="98.949">
        <time>2019-09-06T08:32:14Z</time>
      </trkpt>
      <trkpt lat="19.13349" lon="98.94904">
        <time>2019-09-06T08:32:15Z</time>
      </trkpt>
      <trkpt lat="19.13332" lon="98.94906">
        <time>2019-09-06T08:32:16Z</time>
      </trkpt>
      <trkpt lat="19.13316" lon="98.94908">
        <time>2019-09-06T08:32:17Z</time>
      </trkpt>
      <trkpt lat="19.133" lon="98.94911">
        <time>2019-09-06T08:32:18Z</time>
      </trkpt>
      <trkpt lat="19.13288" lon="98.94914">
        <time>2019-09-06T08:32:19Z</time>
      </trkpt>
      <trkpt lat="19.13275" lon="98.94917">
        <time>2019-09-06T08:32:20Z</time>
      </trkpt>
      <trkpt lat="19.13262" lon="98.94918">
        <time>2019-09-06T08:32:21Z</time>
      </trkpt>
      <trkpt lat="19.13251" lon="98.94921">
        <time>2019-09-06T08:32:22Z</time>
      </trkpt>
      <trkpt lat="19.13239" lon="98.94923">
        <time>2019-09-06T08:32:23Z</time>
      </trkpt>
      <trkpt lat="19.13229" lon="98.94926">
        <time>2019-09-06T08:32:24Z</time>
      </trkpt>
      <trkpt lat="19.13219" lon="98.94928">
        <time>2019-09-06T08:32:25Z</time>
      </trkpt>
      <trkpt lat="19.1321" lon="98.94929">
        <time>2019-09-06T08:32:26Z</time>
      </trkpt>
      <trkpt lat="19.13203" lon="98.94932">
        <time>2019-09-06T08:32:27Z</time>
      </trkpt>
      <trkpt lat="19.13195" lon="98.94933">
        <time>2019-09-06T08:32:28Z</time>
      </trkpt>
      <trkpt lat="19.13187" lon="98.94935">
        <time>2019-09-06T08:32:29Z</time>
      </trkpt>
      <trkpt lat="19.1318" lon="98.94936">
        <time>2019-09-06T08:32:30Z</time>
      </trkpt>
      <trkpt lat="19.13169" lon="98.94937">
        <time>2019-09-06T08:32:31Z</time>
      </trkpt>
      <trkpt lat="19.13157" lon="98.94937">
        <time>2019-09-06T08:32:32Z</time>
      </trkpt>
      <trkpt lat="19.13143" lon="98.94937">
        <time>2019-09-06T08:32:33Z</time>
      </trkpt>
      <trkpt lat="19.13129" lon="98.94937">
        <time>2019-09-06T08:32:34Z</time>
      </trkpt>
      <trkpt lat="19.13112" lon="98.94936">
        <time>2019-09-06T08:32:35Z</time>
      </trkpt>
      <trkpt lat="19.13096" lon="98.94935">
        <time>2019-09-06T08:32:36Z</time>
      </trkpt>
      <trkpt lat="19.1308" lon="98.94934">
        <time>2019-09-06T08:32:37Z</time>
      </trkpt>
      <trkpt lat="19.13062" lon="98.94932">
        <time>2019-09-06T08:32:38Z</time>
      </trkpt>
      <trkpt lat="19.13046" lon="98.9493">
        <time>2019-09-06T08:32:39Z</time>
      </trkpt>
      <trkpt lat="19.1303" lon="98.94928">
        <time>2019-09-06T08:32:40Z</time>
      </trkpt>
      <trkpt lat="19.13012" lon="98.94925">
        <time>2019-09-06T08:32:41Z</time>
      </trkpt>
      <trkpt lat="19.12994" lon="98.94923">
        <time>2019-09-06T08:32:42Z</time>
      </trkpt>
      <trkpt lat="19.12975" lon="98.9492">
        <time>2019-09-06T08:32:43Z</time>
      </trkpt>
      <trkpt lat="19.12957" lon="98.94919">
        <time>2019-09-06T08:32:44Z</time>
      </trkpt>
      <trkpt lat="19.1294" lon="98.9492">
        <time>2019-09-06T08:32:45Z</time>
      </trkpt>
      <trkpt lat="19.12923" lon="98.94918">
        <time>2019-09-06T08:32:46Z</time>
      </trkpt>
      <trkpt lat="19.12906" lon="98.94916">
        <time>2019-09-06T08:32:47Z</time>
      </trkpt>
      <trkpt lat="19.12889" lon="98.94915">
        <time>2019-09-06T08:32:48Z</time>
      </trkpt>
      <trkpt lat="19.12871" lon="98.94912">
        <time>2019-09-06T08:32:49Z</time>
      </trkpt>
      <trkpt lat="19.12851" lon="98.9491">
        <time>2019-09-06T08:32:50Z</time>
      </trkpt>
      <trkpt lat="19.1283" lon="98.94908">
        <time>2019-09-06T08:32:51Z</time>
      </trkpt>
      <trkpt lat="19.12811" lon="98.94906">
        <time>2019-09-06T08:32:52Z</time>
      </trkpt>
      <trkpt lat="19.12792" lon="98.94905">
        <time>2019-09-06T08:32:53Z</time>
      </trkpt>
      <trkpt lat="19.12772" lon="98.94903">
        <time>2019-09-06T08:32:54Z</time>
      </trkpt>
      <trkpt lat="19.12752" lon="98.949">
        <time>2019-09-06T08:32:55Z</time>
      </trkpt>
      <trkpt lat="19.12734" lon="98.94899">
        <time>2019-09-06T08:32:56Z</time>
      </trkpt>
      <trkpt lat="19.12715" lon="98.94897">
        <time>2019-09-06T08:32:57Z</time>
      </trkpt>
      <trkpt lat="19.12696" lon="98.94895">
        <time>2019-09-06T08:32:58Z</time>
      </trkpt>
      <trkpt lat="19.12678" lon="98.94893">
        <time>2019-09-06T08:32:59Z</time>
      </trkpt>
      <trkpt lat="19.12661" lon="98.94892">
        <time>2019-09-06T08:33:00Z</time>
      </trkpt>
      <trkpt lat="19.12643" lon="98.94889">
        <time>2019-09-06T08:33:01Z</time>
      </trkpt>
      <trkpt lat="19.12627" lon="98.94885">
        <time>2019-09-06T08:33:02Z</time>
      </trkpt>
      <trkpt lat="19.12611" lon="98.94881">
        <time>2019-09-06T08:33:03Z</time>
      </trkpt>
      <trkpt lat="19.12596" lon="98.94874">
        <time>2019-09-06T08:33:04Z</time>
      </trkpt>
      <trkpt lat="19.12582" lon="98.94867">
        <time>2019-09-06T08:33:05Z</time>
      </trkpt>
      <trkpt lat="19.12568" lon="98.94856">
        <time>2019-09-06T08:33:06Z</time>
      </trkpt>
      <trkpt lat="19.12555" lon="98.94844">
        <time>2019-09-06T08:33:07Z</time>
      </trkpt>
      <trkpt lat="19.12542" lon="98.9483">
        <time>2019-09-06T08:33:08Z</time>
      </trkpt>
      <trkpt lat="19.12529" lon="98.94815">
        <time>2019-09-06T08:33:09Z</time>
      </trkpt>
      <trkpt lat="19.12514" lon="98.948">
        <time>2019-09-06T08:33:10Z</time>
      </trkpt>
      <trkpt lat="19.12499" lon="98.94782">
        <time>2019-09-06T08:33:11Z</time>
      </trkpt>
      <trkpt lat="19.12484" lon="98.94767">
        <time>2019-09-06T08:33:12Z</time>
      </trkpt>
      <trkpt lat="19.12469" lon="98.94747">
        <time>2019-09-06T08:33:13Z</time>
      </trkpt>
      <trkpt lat="19.12453" lon="98.94729">
        <time>2019-09-06T08:33:14Z</time>
      </trkpt>
      <trkpt lat="19.12437" lon="98.94709">
        <time>2019-09-06T08:33:15Z</time>
      </trkpt>
      <trkpt lat="19.12421" lon="98.94689">
        <time>2019-09-06T08:33:16Z</time>
      </trkpt>
      <trkpt lat="19.12405" lon="98.9467">
        <time>2019-09-06T08:33:17Z</time>
      </trkpt>
      <trkpt lat="19.12389" lon="98.94651">
        <time>2019-09-06T08:33:18Z</time>
      </trkpt>
      <trkpt lat="19.12373" lon="98.94632">
        <time>2019-09-06T08:33:19Z</time>
      </trkpt>
      <trkpt lat="19.12358" lon="98.94614">
        <time>2019-09-06T08:33:20Z</time>
      </trkpt>
      <trkpt lat="19.12343" lon="98.94595">
        <time>2019-09-06T08:33:21Z</time>
      </trkpt>
      <trkpt lat="19.12327" lon="98.94577">
        <time>2019-09-06T08:33:23Z</time>
      </trkpt>
      <trkpt lat="19.12313" lon="98.94559">
        <time>2019-09-06T08:33:23Z</time>
      </trkpt>
      <trkpt lat="19.12298" lon="98.94541">
        <time>2019-09-06T08:33:24Z</time>
      </trkpt>
      <trkpt lat="19.12284" lon="98.94525">
        <time>2019-09-06T08:33:25Z</time>
      </trkpt>
      <trkpt lat="19.12269" lon="98.94508">
        <time>2019-09-06T08:33:26Z</time>
      </trkpt>
      <trkpt lat="19.12255" lon="98.9449">
        <time>2019-09-06T08:33:27Z</time>
      </trkpt>
      <trkpt lat="19.12241" lon="98.94473">
        <time>2019-09-06T08:33:28Z</time>
      </trkpt>
      <trkpt lat="19.12228" lon="98.94458">
        <time>2019-09-06T08:33:29Z</time>
      </trkpt>
      <trkpt lat="19.12215" lon="98.94442">
        <time>2019-09-06T08:33:30Z</time>
      </trkpt>
      <trkpt lat="19.12202" lon="98.94428">
        <time>2019-09-06T08:33:31Z</time>
      </trkpt>
      <trkpt lat="19.12189" lon="98.94415">
        <time>2019-09-06T08:33:32Z</time>
      </trkpt>
      <trkpt lat="19.12178" lon="98.94401">
        <time>2019-09-06T08:33:34Z</time>
      </trkpt>
      <trkpt lat="19.12166" lon="98.94386">
        <time>2019-09-06T08:33:34Z</time>
      </trkpt>
      <trkpt lat="19.12155" lon="98.94371">
        <time>2019-09-06T08:33:35Z</time>
      </trkpt>
      <trkpt lat="19.12144" lon="98.94359">
        <time>2019-09-06T08:33:36Z</time>
      </trkpt>
      <trkpt lat="19.12135" lon="98.94347">
        <time>2019-09-06T08:33:37Z</time>
      </trkpt>
      <trkpt lat="19.12124" lon="98.94333">
        <time>2019-09-06T08:33:38Z</time>
      </trkpt>
      <trkpt lat="19.12114" lon="98.94324">
        <time>2019-09-06T08:33:39Z</time>
      </trkpt>
      <trkpt lat="19.12103" lon="98.94314">
        <time>2019-09-06T08:33:40Z</time>
      </trkpt>
      <trkpt lat="19.12093" lon="98.94302">
        <time>2019-09-06T08:33:41Z</time>
      </trkpt>
      <trkpt lat="19.12082" lon="98.9429">
        <time>2019-09-06T08:33:42Z</time>
      </trkpt>
      <trkpt lat="19.12071" lon="98.94278">
        <time>2019-09-06T08:33:43Z</time>
      </trkpt>
      <trkpt lat="19.12059" lon="98.94267">
        <time>2019-09-06T08:33:44Z</time>
      </trkpt>
      <trkpt lat="19.12045" lon="98.94258">
        <time>2019-09-06T08:33:45Z</time>
      </trkpt>
      <trkpt lat="19.1203" lon="98.94252">
        <time>2019-09-06T08:33:46Z</time>
      </trkpt>
      <trkpt lat="19.12015" lon="98.94245">
        <time>2019-09-06T08:33:47Z</time>
      </trkpt>
      <trkpt lat="19.11996" lon="98.94239">
        <time>2019-09-06T08:33:48Z</time>
      </trkpt>
      <trkpt lat="19.11978" lon="98.94234">
        <time>2019-09-06T08:33:49Z</time>
      </trkpt>
      <trkpt lat="19.11959" lon="98.94225">
        <time>2019-09-06T08:33:50Z</time>
      </trkpt>
      <trkpt lat="19.11938" lon="98.94216">
        <time>2019-09-06T08:33:51Z</time>
      </trkpt>
      <trkpt lat="19.11917" lon="98.94208">
        <time>2019-09-06T08:33:52Z</time>
      </trkpt>
      <trkpt lat="19.11896" lon="98.94198">
        <time>2019-09-06T08:33:53Z</time>
      </trkpt>
      <trkpt lat="19.11873" lon="98.94188">
        <time>2019-09-06T08:33:54Z</time>
      </trkpt>
      <trkpt lat="19.11851" lon="98.94178">
        <time>2019-09-06T08:33:55Z</time>
      </trkpt>
      <trkpt lat="19.11828" lon="98.94168">
        <time>2019-09-06T08:33:56Z</time>
      </trkpt>
      <trkpt lat="19.11805" lon="98.94159">
        <time>2019-09-06T08:33:57Z</time>
      </trkpt>
      <trkpt lat="19.11783" lon="98.94149">
        <time>2019-09-06T08:33:58Z</time>
      </trkpt>
      <trkpt lat="19.11759" lon="98.9414">
        <time>2019-09-06T08:33:59Z</time>
      </trkpt>
      <trkpt lat="19.11738" lon="98.9413">
        <time>2019-09-06T08:34:00Z</time>
      </trkpt>
      <trkpt lat="19.11715" lon="98.94121">
        <time>2019-09-06T08:34:02Z</time>
      </trkpt>
      <trkpt lat="19.11694" lon="98.94111">
        <time>2019-09-06T08:34:02Z</time>
      </trkpt>
      <trkpt lat="19.11672" lon="98.94102">
        <time>2019-09-06T08:34:03Z</time>
      </trkpt>
      <trkpt lat="19.1165" lon="98.94094">
        <time>2019-09-06T08:34:04Z</time>
      </trkpt>
      <trkpt lat="19.11627" lon="98.94083">
        <time>2019-09-06T08:34:05Z</time>
      </trkpt>
      <trkpt lat="19.11605" lon="98.94072">
        <time>2019-09-06T08:34:06Z</time>
      </trkpt>
      <trkpt lat="19.11583" lon="98.94062">
        <time>2019-09-06T08:34:07Z</time>
      </trkpt>
      <trkpt lat="19.11559" lon="98.94051">
        <time>2019-09-06T08:34:08Z</time>
      </trkpt>
      <trkpt lat="19.11536" lon="98.9404">
        <time>2019-09-06T08:34:09Z</time>
      </trkpt>
      <trkpt lat="19.11512" lon="98.9403">
        <time>2019-09-06T08:34:10Z</time>
      </trkpt>
      <trkpt lat="19.11488" lon="98.94021">
        <time>2019-09-06T08:34:11Z</time>
      </trkpt>
      <trkpt lat="19.11464" lon="98.94012">
        <time>2019-09-06T08:34:12Z</time>
      </trkpt>
      <trkpt lat="19.11439" lon="98.94005">
        <time>2019-09-06T08:34:13Z</time>
      </trkpt>
      <trkpt lat="19.11415" lon="98.93996">
        <time>2019-09-06T08:34:14Z</time>
      </trkpt>
      <trkpt lat="19.11392" lon="98.93987">
        <time>2019-09-06T08:34:15Z</time>
      </trkpt>
      <trkpt lat="19.11367" lon="98.93977">
        <time>2019-09-06T08:34:16Z</time>
      </trkpt>
      <trkpt lat="19.11343" lon="98.93967">
        <time>2019-09-06T08:34:17Z</time>
      </trkpt>
      <trkpt lat="19.1132" lon="98.93956">
        <time>2019-09-06T08:34:18Z</time>
      </trkpt>
      <trkpt lat="19.11296" lon="98.93945">
        <time>2019-09-06T08:34:19Z</time>
      </trkpt>
      <trkpt lat="19.11272" lon="98.93936">
        <time>2019-09-06T08:34:20Z</time>
      </trkpt>
      <trkpt lat="19.11249" lon="98.93927">
        <time>2019-09-06T08:34:21Z</time>
      </trkpt>
      <trkpt lat="19.11225" lon="98.93916">
        <time>2019-09-06T08:34:22Z</time>
      </trkpt>
      <trkpt lat="19.11202" lon="98.93907">
        <time>2019-09-06T08:34:23Z</time>
      </trkpt>
      <trkpt lat="19.1118" lon="98.93897">
        <time>2019-09-06T08:34:24Z</time>
      </trkpt>
      <trkpt lat="19.11158" lon="98.93887">
        <time>2019-09-06T08:34:25Z</time>
      </trkpt>
      <trkpt lat="19.11137" lon="98.93878">
        <time>2019-09-06T08:34:26Z</time>
      </trkpt>
      <trkpt lat="19.11115" lon="98.93869">
        <time>2019-09-06T08:34:27Z</time>
      </trkpt>
      <trkpt lat="19.11094" lon="98.9386">
        <time>2019-09-06T08:34:28Z</time>
      </trkpt>
      <trkpt lat="19.11074" lon="98.93851">
        <time>2019-09-06T08:34:29Z</time>
      </trkpt>
      <trkpt lat="19.11055" lon="98.93842">
        <time>2019-09-06T08:34:30Z</time>
      </trkpt>
      <trkpt lat="19.11035" lon="98.93833">
        <time>2019-09-06T08:34:31Z</time>
      </trkpt>
      <trkpt lat="19.11017" lon="98.93825">
        <time>2019-09-06T08:34:32Z</time>
      </trkpt>
      <trkpt lat="19.10998" lon="98.93817">
        <time>2019-09-06T08:34:33Z</time>
      </trkpt>
      <trkpt lat="19.10978" lon="98.93808">
        <time>2019-09-06T08:34:34Z</time>
      </trkpt>
      <trkpt lat="19.10958" lon="98.938">
        <time>2019-09-06T08:34:35Z</time>
      </trkpt>
      <trkpt lat="19.10938" lon="98.93792">
        <time>2019-09-06T08:34:36Z</time>
      </trkpt>
      <trkpt lat="19.10917" lon="98.93784">
        <time>2019-09-06T08:34:37Z</time>
      </trkpt>
      <trkpt lat="19.10897" lon="98.93776">
        <time>2019-09-06T08:34:38Z</time>
      </trkpt>
      <trkpt lat="19.10877" lon="98.93768">
        <time>2019-09-06T08:34:39Z</time>
      </trkpt>
      <trkpt lat="19.10858" lon="98.93759">
        <time>2019-09-06T08:34:40Z</time>
      </trkpt>
      <trkpt lat="19.10838" lon="98.93751">
        <time>2019-09-06T08:34:41Z</time>
      </trkpt>
      <trkpt lat="19.10819" lon="98.93743">
        <time>2019-09-06T08:34:42Z</time>
      </trkpt>
      <trkpt lat="19.10801" lon="98.93734">
        <time>2019-09-06T08:34:43Z</time>
      </trkpt>
      <trkpt lat="19.10783" lon="98.93727">
        <time>2019-09-06T08:34:44Z</time>
      </trkpt>
      <trkpt lat="19.10766" lon="98.9372">
        <time>2019-09-06T08:34:45Z</time>
      </trkpt>
      <trkpt lat="19.10748" lon="98.93712">
        <time>2019-09-06T08:34:46Z</time>
      </trkpt>
      <trkpt lat="19.10731" lon="98.93704">
        <time>2019-09-06T08:34:47Z</time>
      </trkpt>
      <trkpt lat="19.10714" lon="98.93698">
        <time>2019-09-06T08:34:48Z</time>
      </trkpt>
      <trkpt lat="19.10695" lon="98.93692">
        <time>2019-09-06T08:34:49Z</time>
      </trkpt>
      <trkpt lat="19.10676" lon="98.93687">
        <time>2019-09-06T08:34:50Z</time>
      </trkpt>
      <trkpt lat="19.10656" lon="98.93682">
        <time>2019-09-06T08:34:51Z</time>
      </trkpt>
      <trkpt lat="19.10636" lon="98.93679">
        <time>2019-09-06T08:34:52Z</time>
      </trkpt>
      <trkpt lat="19.10615" lon="98.93675">
        <time>2019-09-06T08:34:53Z</time>
      </trkpt>
      <trkpt lat="19.10594" lon="98.93671">
        <time>2019-09-06T08:34:54Z</time>
      </trkpt>
      <trkpt lat="19.10572" lon="98.93667">
        <time>2019-09-06T08:34:55Z</time>
      </trkpt>
      <trkpt lat="19.10548" lon="98.93662">
        <time>2019-09-06T08:34:56Z</time>
      </trkpt>
      <trkpt lat="19.10524" lon="98.93658">
        <time>2019-09-06T08:34:57Z</time>
      </trkpt>
      <trkpt lat="19.105" lon="98.93653">
        <time>2019-09-06T08:34:58Z</time>
      </trkpt>
      <trkpt lat="19.10476" lon="98.9365">
        <time>2019-09-06T08:34:59Z</time>
      </trkpt>
      <trkpt lat="19.10453" lon="98.93645">
        <time>2019-09-06T08:35:00Z</time>
      </trkpt>
      <trkpt lat="19.10429" lon="98.93641">
        <time>2019-09-06T08:35:01Z</time>
      </trkpt>
      <trkpt lat="19.10405" lon="98.93639">
        <time>2019-09-06T08:35:02Z</time>
      </trkpt>
      <trkpt lat="19.10381" lon="98.93635">
        <time>2019-09-06T08:35:03Z</time>
      </trkpt>
      <trkpt lat="19.10357" lon="98.93629">
        <time>2019-09-06T08:35:04Z</time>
      </trkpt>
      <trkpt lat="19.10335" lon="98.93627">
        <time>2019-09-06T08:35:05Z</time>
      </trkpt>
      <trkpt lat="19.10312" lon="98.93623">
        <time>2019-09-06T08:35:06Z</time>
      </trkpt>
      <trkpt lat="19.1029" lon="98.93622">
        <time>2019-09-06T08:35:07Z</time>
      </trkpt>
      <trkpt lat="19.10269" lon="98.9362">
        <time>2019-09-06T08:35:08Z</time>
      </trkpt>
      <trkpt lat="19.10248" lon="98.93618">
        <time>2019-09-06T08:35:09Z</time>
      </trkpt>
      <trkpt lat="19.10226" lon="98.93616">
        <time>2019-09-06T08:35:10Z</time>
      </trkpt>
      <trkpt lat="19.10204" lon="98.93614">
        <time>2019-09-06T08:35:11Z</time>
      </trkpt>
      <trkpt lat="19.10182" lon="98.93611">
        <time>2019-09-06T08:35:12Z</time>
      </trkpt>
      <trkpt lat="19.10162" lon="98.93609">
        <time>2019-09-06T08:35:13Z</time>
      </trkpt>
      <trkpt lat="19.10142" lon="98.93607">
        <time>2019-09-06T08:35:14Z</time>
      </trkpt>
      <trkpt lat="19.10123" lon="98.93606">
        <time>2019-09-06T08:35:15Z</time>
      </trkpt>
      <trkpt lat="19.10105" lon="98.93604">
        <time>2019-09-06T08:35:16Z</time>
      </trkpt>
      <trkpt lat="19.10085" lon="98.93603">
        <time>2019-09-06T08:35:17Z</time>
      </trkpt>
      <trkpt lat="19.10066" lon="98.93601">
        <time>2019-09-06T08:35:18Z</time>
      </trkpt>
      <trkpt lat="19.10047" lon="98.93599">
        <time>2019-09-06T08:35:19Z</time>
      </trkpt>
      <trkpt lat="19.10028" lon="98.93598">
        <time>2019-09-06T08:35:20Z</time>
      </trkpt>
      <trkpt lat="19.10009" lon="98.93595">
        <time>2019-09-06T08:35:21Z</time>
      </trkpt>
      <trkpt lat="19.09989" lon="98.93594">
        <time>2019-09-06T08:35:22Z</time>
      </trkpt>
      <trkpt lat="19.0997" lon="98.93592">
        <time>2019-09-06T08:35:23Z</time>
      </trkpt>
      <trkpt lat="19.09951" lon="98.9359">
        <time>2019-09-06T08:35:24Z</time>
      </trkpt>
      <trkpt lat="19.09931" lon="98.93588">
        <time>2019-09-06T08:35:25Z</time>
      </trkpt>
      <trkpt lat="19.09911" lon="98.93586">
        <time>2019-09-06T08:35:26Z</time>
      </trkpt>
      <trkpt lat="19.09891" lon="98.93585">
        <time>2019-09-06T08:35:27Z</time>
      </trkpt>
      <trkpt lat="19.09871" lon="98.93584">
        <time>2019-09-06T08:35:28Z</time>
      </trkpt>
      <trkpt lat="19.09851" lon="98.93582">
        <time>2019-09-06T08:35:29Z</time>
      </trkpt>
      <trkpt lat="19.09831" lon="98.93581">
        <time>2019-09-06T08:35:30Z</time>
      </trkpt>
      <trkpt lat="19.09811" lon="98.93581">
        <time>2019-09-06T08:35:31Z</time>
      </trkpt>
      <trkpt lat="19.0979" lon="98.93582">
        <time>2019-09-06T08:35:32Z</time>
      </trkpt>
      <trkpt lat="19.09768" lon="98.93585">
        <time>2019-09-06T08:35:33Z</time>
      </trkpt>
      <trkpt lat="19.09747" lon="98.93587">
        <time>2019-09-06T08:35:34Z</time>
      </trkpt>
      <trkpt lat="19.09725" lon="98.93591">
        <time>2019-09-06T08:35:35Z</time>
      </trkpt>
      <trkpt lat="19.09703" lon="98.93594">
        <time>2019-09-06T08:35:36Z</time>
      </trkpt>
      <trkpt lat="19.09683" lon="98.93597">
        <time>2019-09-06T08:35:37Z</time>
      </trkpt>
      <trkpt lat="19.09663" lon="98.93601">
        <time>2019-09-06T08:35:38Z</time>
      </trkpt>
      <trkpt lat="19.09645" lon="98.93604">
        <time>2019-09-06T08:35:40Z</time>
      </trkpt>
      <trkpt lat="19.09629" lon="98.93607">
        <time>2019-09-06T08:35:40Z</time>
      </trkpt>
      <trkpt lat="19.09614" lon="98.9361">
        <time>2019-09-06T08:35:41Z</time>
      </trkpt>
      <trkpt lat="19.09601" lon="98.93613">
        <time>2019-09-06T08:35:42Z</time>
      </trkpt>
      <trkpt lat="19.09589" lon="98.93614">
        <time>2019-09-06T08:35:43Z</time>
      </trkpt>
      <trkpt lat="19.09576" lon="98.93616">
        <time>2019-09-06T08:35:44Z</time>
      </trkpt>
      <trkpt lat="19.09564" lon="98.93618">
        <time>2019-09-06T08:35:45Z</time>
      </trkpt>
      <trkpt lat="19.09555" lon="98.9362">
        <time>2019-09-06T08:35:46Z</time>
      </trkpt>
      <trkpt lat="19.09546" lon="98.93623">
        <time>2019-09-06T08:35:48Z</time>
      </trkpt>
      <trkpt lat="19.09537" lon="98.93624">
        <time>2019-09-06T08:35:48Z</time>
      </trkpt>
      <trkpt lat="19.09528" lon="98.93626">
        <time>2019-09-06T08:35:49Z</time>
      </trkpt>
      <trkpt lat="19.0952" lon="98.93628">
        <time>2019-09-06T08:35:50Z</time>
      </trkpt>
      <trkpt lat="19.09513" lon="98.93629">
        <time>2019-09-06T08:35:51Z</time>
      </trkpt>
      <trkpt lat="19.09507" lon="98.9363">
        <time>2019-09-06T08:35:52Z</time>
      </trkpt>
      <trkpt lat="19.095" lon="98.93632">
        <time>2019-09-06T08:35:53Z</time>
      </trkpt>
      <trkpt lat="19.09495" lon="98.93632">
        <time>2019-09-06T08:35:54Z</time>
      </trkpt>
      <trkpt lat="19.0949" lon="98.93633">
        <time>2019-09-06T08:35:55Z</time>
      </trkpt>
      <trkpt lat="19.09485" lon="98.93634">
        <time>2019-09-06T08:35:56Z</time>
      </trkpt>
      <trkpt lat="19.09481" lon="98.93635">
        <time>2019-09-06T08:35:57Z</time>
      </trkpt>
      <trkpt lat="19.09479" lon="98.93636">
        <time>2019-09-06T08:35:58Z</time>
      </trkpt>
      <trkpt lat="19.09477" lon="98.93636">
        <time>2019-09-06T08:35:59Z</time>
      </trkpt>
      <trkpt lat="19.09474" lon="98.93636">
        <time>2019-09-06T08:36:00Z</time>
      </trkpt>
      <trkpt lat="19.09472" lon="98.93637">
        <time>2019-09-06T08:36:01Z</time>
      </trkpt>
      <trkpt lat="19.09465" lon="98.93637">
        <time>2019-09-06T08:36:02Z</time>
      </trkpt>
      <trkpt lat="19.09459" lon="98.9364">
        <time>2019-09-06T08:36:03Z</time>
      </trkpt>
      <trkpt lat="19.09451" lon="98.93642">
        <time>2019-09-06T08:36:04Z</time>
      </trkpt>
      <trkpt lat="19.0944" lon="98.93644">
        <time>2019-09-06T08:36:05Z</time>
      </trkpt>
      <trkpt lat="19.09428" lon="98.93646">
        <time>2019-09-06T08:36:06Z</time>
      </trkpt>
      <trkpt lat="19.09415" lon="98.93648">
        <time>2019-09-06T08:36:07Z</time>
      </trkpt>
      <trkpt lat="19.09402" lon="98.9365">
        <time>2019-09-06T08:36:08Z</time>
      </trkpt>
      <trkpt lat="19.09388" lon="98.93652">
        <time>2019-09-06T08:36:09Z</time>
      </trkpt>
      <trkpt lat="19.09378" lon="98.93654">
        <time>2019-09-06T08:36:10Z</time>
      </trkpt>
      <trkpt lat="19.09367" lon="98.93655">
        <time>2019-09-06T08:36:11Z</time>
      </trkpt>
      <trkpt lat="19.09359" lon="98.93657">
        <time>2019-09-06T08:36:12Z</time>
      </trkpt>
      <trkpt lat="19.09348" lon="98.93658">
        <time>2019-09-06T08:36:13Z</time>
      </trkpt>
      <trkpt lat="19.09338" lon="98.9366">
        <time>2019-09-06T08:36:14Z</time>
      </trkpt>
      <trkpt lat="19.09328" lon="98.9366">
        <time>2019-09-06T08:36:15Z</time>
      </trkpt>
      <trkpt lat="19.09317" lon="98.93662">
        <time>2019-09-06T08:36:16Z</time>
      </trkpt>
      <trkpt lat="19.09305" lon="98.93663">
        <time>2019-09-06T08:36:17Z</time>
      </trkpt>
      <trkpt lat="19.09292" lon="98.93663">
        <time>2019-09-06T08:36:18Z</time>
      </trkpt>
      <trkpt lat="19.09278" lon="98.93664">
        <time>2019-09-06T08:36:19Z</time>
      </trkpt>
      <trkpt lat="19.09264" lon="98.93665">
        <time>2019-09-06T08:36:20Z</time>
      </trkpt>
      <trkpt lat="19.09251" lon="98.93666">
        <time>2019-09-06T08:36:21Z</time>
      </trkpt>
      <trkpt lat="19.09236" lon="98.93667">
        <time>2019-09-06T08:36:22Z</time>
      </trkpt>
      <trkpt lat="19.0922" lon="98.93668">
        <time>2019-09-06T08:36:23Z</time>
      </trkpt>
      <trkpt lat="19.09204" lon="98.9367">
        <time>2019-09-06T08:36:24Z</time>
      </trkpt>
      <trkpt lat="19.09187" lon="98.93671">
        <time>2019-09-06T08:36:25Z</time>
      </trkpt>
      <trkpt lat="19.09171" lon="98.93672">
        <time>2019-09-06T08:36:26Z</time>
      </trkpt>
      <trkpt lat="19.09154" lon="98.93673">
        <time>2019-09-06T08:36:27Z</time>
      </trkpt>
      <trkpt lat="19.09138" lon="98.93674">
        <time>2019-09-06T08:36:28Z</time>
      </trkpt>
      <trkpt lat="19.09123" lon="98.93674">
        <time>2019-09-06T08:36:29Z</time>
      </trkpt>
      <trkpt lat="19.09107" lon="98.93675">
        <time>2019-09-06T08:36:30Z</time>
      </trkpt>
      <trkpt lat="19.09091" lon="98.93676">
        <time>2019-09-06T08:36:31Z</time>
      </trkpt>
      <trkpt lat="19.09076" lon="98.93677">
        <time>2019-09-06T08:36:32Z</time>
      </trkpt>
      <trkpt lat="19.0906" lon="98.93677">
        <time>2019-09-06T08:36:33Z</time>
      </trkpt>
      <trkpt lat="19.09044" lon="98.93678">
        <time>2019-09-06T08:36:34Z</time>
      </trkpt>
      <trkpt lat="19.09028" lon="98.9368">
        <time>2019-09-06T08:36:35Z</time>
      </trkpt>
      <trkpt lat="19.09011" lon="98.93681">
        <time>2019-09-06T08:36:36Z</time>
      </trkpt>
      <trkpt lat="19.08995" lon="98.93682">
        <time>2019-09-06T08:36:37Z</time>
      </trkpt>
      <trkpt lat="19.08978" lon="98.93683">
        <time>2019-09-06T08:36:38Z</time>
      </trkpt>
      <trkpt lat="19.08961" lon="98.93684">
        <time>2019-09-06T08:36:39Z</time>
      </trkpt>
      <trkpt lat="19.08944" lon="98.93684">
        <time>2019-09-06T08:36:40Z</time>
      </trkpt>
      <trkpt lat="19.08926" lon="98.93684">
        <time>2019-09-06T08:36:41Z</time>
      </trkpt>
      <trkpt lat="19.0891" lon="98.93686">
        <time>2019-09-06T08:36:42Z</time>
      </trkpt>
      <trkpt lat="19.08892" lon="98.93687">
        <time>2019-09-06T08:36:43Z</time>
      </trkpt>
      <trkpt lat="19.08873" lon="98.93688">
        <time>2019-09-06T08:36:44Z</time>
      </trkpt>
      <trkpt lat="19.08856" lon="98.93688">
        <time>2019-09-06T08:36:45Z</time>
      </trkpt>
      <trkpt lat="19.08839" lon="98.93689">
        <time>2019-09-06T08:36:46Z</time>
      </trkpt>
      <trkpt lat="19.08822" lon="98.93691">
        <time>2019-09-06T08:36:47Z</time>
      </trkpt>
      <trkpt lat="19.08804" lon="98.93691">
        <time>2019-09-06T08:36:48Z</time>
      </trkpt>
      <trkpt lat="19.08786" lon="98.93692">
        <time>2019-09-06T08:36:49Z</time>
      </trkpt>
      <trkpt lat="19.08767" lon="98.93693">
        <time>2019-09-06T08:36:50Z</time>
      </trkpt>
      <trkpt lat="19.08749" lon="98.93695">
        <time>2019-09-06T08:36:51Z</time>
      </trkpt>
      <trkpt lat="19.08731" lon="98.93696">
        <time>2019-09-06T08:36:52Z</time>
      </trkpt>
      <trkpt lat="19.08712" lon="98.93697">
        <time>2019-09-06T08:36:53Z</time>
      </trkpt>
      <trkpt lat="19.08693" lon="98.93698">
        <time>2019-09-06T08:36:54Z</time>
      </trkpt>
      <trkpt lat="19.08674" lon="98.93699">
        <time>2019-09-06T08:36:55Z</time>
      </trkpt>
      <trkpt lat="19.08654" lon="98.937">
        <time>2019-09-06T08:36:56Z</time>
      </trkpt>
      <trkpt lat="19.08633" lon="98.93701">
        <time>2019-09-06T08:36:57Z</time>
      </trkpt>
      <trkpt lat="19.08615" lon="98.93702">
        <time>2019-09-06T08:36:58Z</time>
      </trkpt>
      <trkpt lat="19.08596" lon="98.93702">
        <time>2019-09-06T08:36:59Z</time>
      </trkpt>
      <trkpt lat="19.08576" lon="98.93703">
        <time>2019-09-06T08:37:00Z</time>
      </trkpt>
      <trkpt lat="19.08556" lon="98.93704">
        <time>2019-09-06T08:37:01Z</time>
      </trkpt>
      <trkpt lat="19.08536" lon="98.93704">
        <time>2019-09-06T08:37:02Z</time>
      </trkpt>
      <trkpt lat="19.08517" lon="98.93706">
        <time>2019-09-06T08:37:03Z</time>
      </trkpt>
      <trkpt lat="19.08497" lon="98.93707">
        <time>2019-09-06T08:37:04Z</time>
      </trkpt>
      <trkpt lat="19.08478" lon="98.93709">
        <time>2019-09-06T08:37:05Z</time>
      </trkpt>
      <trkpt lat="19.08459" lon="98.9371">
        <time>2019-09-06T08:37:06Z</time>
      </trkpt>
      <trkpt lat="19.08439" lon="98.93711">
        <time>2019-09-06T08:37:07Z</time>
      </trkpt>
      <trkpt lat="19.08421" lon="98.93712">
        <time>2019-09-06T08:37:08Z</time>
      </trkpt>
      <trkpt lat="19.08401" lon="98.93713">
        <time>2019-09-06T08:37:09Z</time>
      </trkpt>
      <trkpt lat="19.08384" lon="98.93713">
        <time>2019-09-06T08:37:10Z</time>
      </trkpt>
      <trkpt lat="19.08365" lon="98.93714">
        <time>2019-09-06T08:37:11Z</time>
      </trkpt>
      <trkpt lat="19.08346" lon="98.93714">
        <time>2019-09-06T08:37:12Z</time>
      </trkpt>
      <trkpt lat="19.08328" lon="98.93715">
        <time>2019-09-06T08:37:13Z</time>
      </trkpt>
      <trkpt lat="19.0831" lon="98.93714">
        <time>2019-09-06T08:37:14Z</time>
      </trkpt>
      <trkpt lat="19.08293" lon="98.93715">
        <time>2019-09-06T08:37:15Z</time>
      </trkpt>
      <trkpt lat="19.08275" lon="98.93714">
        <time>2019-09-06T08:37:16Z</time>
      </trkpt>
      <trkpt lat="19.08259" lon="98.93715">
        <time>2019-09-06T08:37:17Z</time>
      </trkpt>
      <trkpt lat="19.08244" lon="98.93716">
        <time>2019-09-06T08:37:18Z</time>
      </trkpt>
      <trkpt lat="19.08226" lon="98.93715">
        <time>2019-09-06T08:37:19Z</time>
      </trkpt>
      <trkpt lat="19.0821" lon="98.93717">
        <time>2019-09-06T08:37:20Z</time>
      </trkpt>
      <trkpt lat="19.08196" lon="98.93719">
        <time>2019-09-06T08:37:21Z</time>
      </trkpt>
      <trkpt lat="19.08183" lon="98.93721">
        <time>2019-09-06T08:37:22Z</time>
      </trkpt>
      <trkpt lat="19.08167" lon="98.9372">
        <time>2019-09-06T08:37:23Z</time>
      </trkpt>
      <trkpt lat="19.08152" lon="98.9372">
        <time>2019-09-06T08:37:24Z</time>
      </trkpt>
      <trkpt lat="19.08139" lon="98.93721">
        <time>2019-09-06T08:37:25Z</time>
      </trkpt>
      <trkpt lat="19.08124" lon="98.93722">
        <time>2019-09-06T08:37:26Z</time>
      </trkpt>
      <trkpt lat="19.08112" lon="98.93725">
        <time>2019-09-06T08:37:27Z</time>
      </trkpt>
      <trkpt lat="19.08097" lon="98.93727">
        <time>2019-09-06T08:37:28Z</time>
      </trkpt>
      <trkpt lat="19.08083" lon="98.93729">
        <time>2019-09-06T08:37:29Z</time>
      </trkpt>
      <trkpt lat="19.08069" lon="98.93731">
        <time>2019-09-06T08:37:30Z</time>
      </trkpt>
      <trkpt lat="19.08055" lon="98.93733">
        <time>2019-09-06T08:37:31Z</time>
      </trkpt>
      <trkpt lat="19.08041" lon="98.93735">
        <time>2019-09-06T08:37:32Z</time>
      </trkpt>
      <trkpt lat="19.08026" lon="98.93738">
        <time>2019-09-06T08:37:33Z</time>
      </trkpt>
      <trkpt lat="19.08012" lon="98.9374">
        <time>2019-09-06T08:37:34Z</time>
      </trkpt>
      <trkpt lat="19.07997" lon="98.93743">
        <time>2019-09-06T08:37:35Z</time>
      </trkpt>
      <trkpt lat="19.0798" lon="98.93745">
        <time>2019-09-06T08:37:36Z</time>
      </trkpt>
      <trkpt lat="19.07963" lon="98.93748">
        <time>2019-09-06T08:37:37Z</time>
      </trkpt>
      <trkpt lat="19.07947" lon="98.93751">
        <time>2019-09-06T08:37:38Z</time>
      </trkpt>
      <trkpt lat="19.07931" lon="98.93755">
        <time>2019-09-06T08:37:39Z</time>
      </trkpt>
      <trkpt lat="19.07915" lon="98.93759">
        <time>2019-09-06T08:37:40Z</time>
      </trkpt>
      <trkpt lat="19.07896" lon="98.93762">
        <time>2019-09-06T08:37:41Z</time>
      </trkpt>
      <trkpt lat="19.07877" lon="98.93765">
        <time>2019-09-06T08:37:42Z</time>
      </trkpt>
      <trkpt lat="19.07859" lon="98.93769">
        <time>2019-09-06T08:37:43Z</time>
      </trkpt>
      <trkpt lat="19.07839" lon="98.93772">
        <time>2019-09-06T08:37:44Z</time>
      </trkpt>
      <trkpt lat="19.0782" lon="98.93775">
        <time>2019-09-06T08:37:45Z</time>
      </trkpt>
      <trkpt lat="19.078" lon="98.93778">
        <time>2019-09-06T08:37:46Z</time>
      </trkpt>
      <trkpt lat="19.07781" lon="98.93781">
        <time>2019-09-06T08:37:47Z</time>
      </trkpt>
      <trkpt lat="19.07761" lon="98.93784">
        <time>2019-09-06T08:37:48Z</time>
      </trkpt>
      <trkpt lat="19.07741" lon="98.93788">
        <time>2019-09-06T08:37:49Z</time>
      </trkpt>
      <trkpt lat="19.07722" lon="98.93791">
        <time>2019-09-06T08:37:50Z</time>
      </trkpt>
      <trkpt lat="19.07701" lon="98.93795">
        <time>2019-09-06T08:37:51Z</time>
      </trkpt>
      <trkpt lat="19.0768" lon="98.93797">
        <time>2019-09-06T08:37:52Z</time>
      </trkpt>
      <trkpt lat="19.0766" lon="98.93801">
        <time>2019-09-06T08:37:53Z</time>
      </trkpt>
      <trkpt lat="19.07639" lon="98.93804">
        <time>2019-09-06T08:37:54Z</time>
      </trkpt>
      <trkpt lat="19.07619" lon="98.93808">
        <time>2019-09-06T08:37:55Z</time>
      </trkpt>
      <trkpt lat="19.07599" lon="98.93812">
        <time>2019-09-06T08:37:56Z</time>
      </trkpt>
      <trkpt lat="19.07577" lon="98.93815">
        <time>2019-09-06T08:37:57Z</time>
      </trkpt>
      <trkpt lat="19.07556" lon="98.93818">
        <time>2019-09-06T08:37:58Z</time>
      </trkpt>
      <trkpt lat="19.07534" lon="98.93821">
        <time>2019-09-06T08:37:59Z</time>
      </trkpt>
      <trkpt lat="19.07513" lon="98.93825">
        <time>2019-09-06T08:38:00Z</time>
      </trkpt>
      <trkpt lat="19.07491" lon="98.93827">
        <time>2019-09-06T08:38:01Z</time>
      </trkpt>
      <trkpt lat="19.0747" lon="98.93831">
        <time>2019-09-06T08:38:02Z</time>
      </trkpt>
      <trkpt lat="19.07449" lon="98.93834">
        <time>2019-09-06T08:38:03Z</time>
      </trkpt>
      <trkpt lat="19.07427" lon="98.93837">
        <time>2019-09-06T08:38:04Z</time>
      </trkpt>
      <trkpt lat="19.07405" lon="98.93839">
        <time>2019-09-06T08:38:05Z</time>
      </trkpt>
      <trkpt lat="19.07385" lon="98.93842">
        <time>2019-09-06T08:38:06Z</time>
      </trkpt>
      <trkpt lat="19.07364" lon="98.93845">
        <time>2019-09-06T08:38:07Z</time>
      </trkpt>
      <trkpt lat="19.07343" lon="98.93847">
        <time>2019-09-06T08:38:08Z</time>
      </trkpt>
      <trkpt lat="19.07323" lon="98.93849">
        <time>2019-09-06T08:38:09Z</time>
      </trkpt>
      <trkpt lat="19.07304" lon="98.93852">
        <time>2019-09-06T08:38:10Z</time>
      </trkpt>
      <trkpt lat="19.0729" lon="98.93853">
        <time>2019-09-06T08:38:11Z</time>
      </trkpt>
      <trkpt lat="19.07279" lon="98.93854">
        <time>2019-09-06T08:38:12Z</time>
      </trkpt>
      <trkpt lat="19.07276" lon="98.93858">
        <time>2019-09-06T08:38:13Z</time>
      </trkpt>
      <trkpt lat="19.07269" lon="98.93859">
        <time>2019-09-06T08:38:14Z</time>
      </trkpt>
      <trkpt lat="19.07262" lon="98.9386">
        <time>2019-09-06T08:38:15Z</time>
      </trkpt>
      <trkpt lat="19.07258" lon="98.93863">
        <time>2019-09-06T08:38:16Z</time>
      </trkpt>
      <trkpt lat="19.07252" lon="98.93862">
        <time>2019-09-06T08:38:17Z</time>
      </trkpt>
      <trkpt lat="19.0725" lon="98.93865">
        <time>2019-09-06T08:38:18Z</time>
      </trkpt>
      <trkpt lat="19.07246" lon="98.93865">
        <time>2019-09-06T08:38:19Z</time>
      </trkpt>
      <trkpt lat="19.07244" lon="98.93865">
        <time>2019-09-06T08:38:20Z</time>
      </trkpt>
      <trkpt lat="19.07242" lon="98.93865">
        <time>2019-09-06T08:38:21Z</time>
      </trkpt>
      <trkpt lat="19.07242" lon="98.93865">
        <time>2019-09-06T08:38:22Z</time>
      </trkpt>
      <trkpt lat="19.07239" lon="98.93865">
        <time>2019-09-06T08:40:10Z</time>
      </trkpt>
      <trkpt lat="19.07235" lon="98.93864">
        <time>2019-09-06T08:40:11Z</time>
      </trkpt>
      <trkpt lat="19.07231" lon="98.93864">
        <time>2019-09-06T08:40:12Z</time>
      </trkpt>
      <trkpt lat="19.07225" lon="98.9386">
        <time>2019-09-06T08:40:13Z</time>
      </trkpt>
      <trkpt lat="19.07221" lon="98.93856">
        <time>2019-09-06T08:40:14Z</time>
      </trkpt>
      <trkpt lat="19.07219" lon="98.93846">
        <time>2019-09-06T08:40:15Z</time>
      </trkpt>
      <trkpt lat="19.07221" lon="98.93836">
        <time>2019-09-06T08:40:16Z</time>
      </trkpt>
      <trkpt lat="19.07224" lon="98.93825">
        <time>2019-09-06T08:40:17Z</time>
      </trkpt>
      <trkpt lat="19.07227" lon="98.93814">
        <time>2019-09-06T08:40:18Z</time>
      </trkpt>
      <trkpt lat="19.07231" lon="98.93801">
        <time>2019-09-06T08:40:19Z</time>
      </trkpt>
      <trkpt lat="19.07236" lon="98.93787">
        <time>2019-09-06T08:40:20Z</time>
      </trkpt>
      <trkpt lat="19.07241" lon="98.93771">
        <time>2019-09-06T08:40:21Z</time>
      </trkpt>
      <trkpt lat="19.07245" lon="98.93756">
        <time>2019-09-06T08:40:22Z</time>
      </trkpt>
      <trkpt lat="19.07249" lon="98.93739">
        <time>2019-09-06T08:40:23Z</time>
      </trkpt>
      <trkpt lat="19.07253" lon="98.93722">
        <time>2019-09-06T08:40:24Z</time>
      </trkpt>
      <trkpt lat="19.07257" lon="98.93706">
        <time>2019-09-06T08:40:25Z</time>
      </trkpt>
      <trkpt lat="19.07262" lon="98.93689">
        <time>2019-09-06T08:40:26Z</time>
      </trkpt>
      <trkpt lat="19.07265" lon="98.93673">
        <time>2019-09-06T08:40:27Z</time>
      </trkpt>
      <trkpt lat="19.0727" lon="98.93656">
        <time>2019-09-06T08:40:28Z</time>
      </trkpt>
      <trkpt lat="19.07274" lon="98.93639">
        <time>2019-09-06T08:40:29Z</time>
      </trkpt>
      <trkpt lat="19.07277" lon="98.93623">
        <time>2019-09-06T08:40:30Z</time>
      </trkpt>
      <trkpt lat="19.07281" lon="98.93606">
        <time>2019-09-06T08:40:31Z</time>
      </trkpt>
      <trkpt lat="19.07284" lon="98.93589">
        <time>2019-09-06T08:40:32Z</time>
      </trkpt>
      <trkpt lat="19.07286" lon="98.93572">
        <time>2019-09-06T08:40:33Z</time>
      </trkpt>
      <trkpt lat="19.07291" lon="98.93555">
        <time>2019-09-06T08:40:34Z</time>
      </trkpt>
      <trkpt lat="19.07295" lon="98.93539">
        <time>2019-09-06T08:40:35Z</time>
      </trkpt>
      <trkpt lat="19.07299" lon="98.93522">
        <time>2019-09-06T08:40:36Z</time>
      </trkpt>
      <trkpt lat="19.07304" lon="98.93506">
        <time>2019-09-06T08:40:37Z</time>
      </trkpt>
      <trkpt lat="19.07307" lon="98.9349">
        <time>2019-09-06T08:40:38Z</time>
      </trkpt>
      <trkpt lat="19.07312" lon="98.93473">
        <time>2019-09-06T08:40:39Z</time>
      </trkpt>
      <trkpt lat="19.07316" lon="98.93456">
        <time>2019-09-06T08:40:40Z</time>
      </trkpt>
      <trkpt lat="19.07319" lon="98.9344">
        <time>2019-09-06T08:40:41Z</time>
      </trkpt>
      <trkpt lat="19.07323" lon="98.93424">
        <time>2019-09-06T08:40:42Z</time>
      </trkpt>
      <trkpt lat="19.07327" lon="98.93408">
        <time>2019-09-06T08:40:43Z</time>
      </trkpt>
      <trkpt lat="19.07331" lon="98.93392">
        <time>2019-09-06T08:40:44Z</time>
      </trkpt>
      <trkpt lat="19.07334" lon="98.93375">
        <time>2019-09-06T08:40:45Z</time>
      </trkpt>
      <trkpt lat="19.07339" lon="98.93359">
        <time>2019-09-06T08:40:46Z</time>
      </trkpt>
      <trkpt lat="19.07344" lon="98.93342">
        <time>2019-09-06T08:40:47Z</time>
      </trkpt>
      <trkpt lat="19.07347" lon="98.93326">
        <time>2019-09-06T08:40:48Z</time>
      </trkpt>
      <trkpt lat="19.07351" lon="98.9331">
        <time>2019-09-06T08:40:49Z</time>
      </trkpt>
      <trkpt lat="19.07354" lon="98.93294">
        <time>2019-09-06T08:40:50Z</time>
      </trkpt>
      <trkpt lat="19.07358" lon="98.93279">
        <time>2019-09-06T08:40:51Z</time>
      </trkpt>
      <trkpt lat="19.0736" lon="98.93264">
        <time>2019-09-06T08:40:52Z</time>
      </trkpt>
      <trkpt lat="19.07363" lon="98.93247">
        <time>2019-09-06T08:40:53Z</time>
      </trkpt>
      <trkpt lat="19.07365" lon="98.93231">
        <time>2019-09-06T08:40:54Z</time>
      </trkpt>
      <trkpt lat="19.07369" lon="98.93215">
        <time>2019-09-06T08:40:55Z</time>
      </trkpt>
      <trkpt lat="19.07373" lon="98.93199">
        <time>2019-09-06T08:40:56Z</time>
      </trkpt>
      <trkpt lat="19.07376" lon="98.93185">
        <time>2019-09-06T08:40:57Z</time>
      </trkpt>
      <trkpt lat="19.07379" lon="98.9317">
        <time>2019-09-06T08:40:58Z</time>
      </trkpt>
      <trkpt lat="19.07382" lon="98.93156">
        <time>2019-09-06T08:40:59Z</time>
      </trkpt>
      <trkpt lat="19.07385" lon="98.93141">
        <time>2019-09-06T08:41:00Z</time>
      </trkpt>
      <trkpt lat="19.07389" lon="98.93127">
        <time>2019-09-06T08:41:01Z</time>
      </trkpt>
      <trkpt lat="19.07393" lon="98.93111">
        <time>2019-09-06T08:41:02Z</time>
      </trkpt>
      <trkpt lat="19.07396" lon="98.93094">
        <time>2019-09-06T08:41:03Z</time>
      </trkpt>
      <trkpt lat="19.07399" lon="98.93078">
        <time>2019-09-06T08:41:04Z</time>
      </trkpt>
      <trkpt lat="19.07403" lon="98.93061">
        <time>2019-09-06T08:41:05Z</time>
      </trkpt>
      <trkpt lat="19.07406" lon="98.93047">
        <time>2019-09-06T08:41:06Z</time>
      </trkpt>
      <trkpt lat="19.07408" lon="98.93037">
        <time>2019-09-06T08:41:07Z</time>
      </trkpt>
      <trkpt lat="19.0741" lon="98.93028">
        <time>2019-09-06T08:41:08Z</time>
      </trkpt>
      <trkpt lat="19.07412" lon="98.93022">
        <time>2019-09-06T08:41:09Z</time>
      </trkpt>
      <trkpt lat="19.07412" lon="98.93018">
        <time>2019-09-06T08:41:10Z</time>
      </trkpt>
      <trkpt lat="19.07413" lon="98.93016">
        <time>2019-09-06T08:41:11Z</time>
      </trkpt>
      <trkpt lat="19.07415" lon="98.93014">
        <time>2019-09-06T08:41:27Z</time>
      </trkpt>
      <trkpt lat="19.0742" lon="98.93012">
        <time>2019-09-06T08:42:17Z</time>
      </trkpt>
      <trkpt lat="19.07419" lon="98.93013">
        <time>2019-09-06T08:42:33Z</time>
      </trkpt>
      <trkpt lat="19.0742" lon="98.9301">
        <time>2019-09-06T08:42:34Z</time>
      </trkpt>
      <trkpt lat="19.0742" lon="98.93003">
        <time>2019-09-06T08:42:35Z</time>
      </trkpt>
      <trkpt lat="19.07422" lon="98.92994">
        <time>2019-09-06T08:42:36Z</time>
      </trkpt>
      <trkpt lat="19.07423" lon="98.92985">
        <time>2019-09-06T08:42:37Z</time>
      </trkpt>
      <trkpt lat="19.07425" lon="98.92973">
        <time>2019-09-06T08:42:38Z</time>
      </trkpt>
      <trkpt lat="19.0743" lon="98.92961">
        <time>2019-09-06T08:42:39Z</time>
      </trkpt>
      <trkpt lat="19.07427" lon="98.92947">
        <time>2019-09-06T08:42:40Z</time>
      </trkpt>
      <trkpt lat="19.07429" lon="98.9293">
        <time>2019-09-06T08:42:41Z</time>
      </trkpt>
      <trkpt lat="19.07438" lon="98.92915">
        <time>2019-09-06T08:42:42Z</time>
      </trkpt>
      <trkpt lat="19.0745" lon="98.92898">
        <time>2019-09-06T08:42:43Z</time>
      </trkpt>
      <trkpt lat="19.07461" lon="98.9288">
        <time>2019-09-06T08:42:44Z</time>
      </trkpt>
      <trkpt lat="19.07473" lon="98.92862">
        <time>2019-09-06T08:42:45Z</time>
      </trkpt>
      <trkpt lat="19.07481" lon="98.92844">
        <time>2019-09-06T08:42:46Z</time>
      </trkpt>
      <trkpt lat="19.07491" lon="98.92828">
        <time>2019-09-06T08:42:47Z</time>
      </trkpt>
      <trkpt lat="19.07504" lon="98.9281">
        <time>2019-09-06T08:42:48Z</time>
      </trkpt>
      <trkpt lat="19.07515" lon="98.92794">
        <time>2019-09-06T08:42:49Z</time>
      </trkpt>
      <trkpt lat="19.07525" lon="98.92778">
        <time>2019-09-06T08:42:50Z</time>
      </trkpt>
      <trkpt lat="19.07531" lon="98.92762">
        <time>2019-09-06T08:42:51Z</time>
      </trkpt>
      <trkpt lat="19.0754" lon="98.92746">
        <time>2019-09-06T08:42:52Z</time>
      </trkpt>
      <trkpt lat="19.07549" lon="98.92729">
        <time>2019-09-06T08:42:53Z</time>
      </trkpt>
      <trkpt lat="19.07557" lon="98.92715">
        <time>2019-09-06T08:42:54Z</time>
      </trkpt>
      <trkpt lat="19.07564" lon="98.927">
        <time>2019-09-06T08:42:55Z</time>
      </trkpt>
      <trkpt lat="19.0757" lon="98.92687">
        <time>2019-09-06T08:42:56Z</time>
      </trkpt>
      <trkpt lat="19.07578" lon="98.92672">
        <time>2019-09-06T08:42:57Z</time>
      </trkpt>
      <trkpt lat="19.07589" lon="98.92655">
        <time>2019-09-06T08:42:58Z</time>
      </trkpt>
      <trkpt lat="19.076" lon="98.92637">
        <time>2019-09-06T08:42:59Z</time>
      </trkpt>
      <trkpt lat="19.07607" lon="98.9262">
        <time>2019-09-06T08:43:00Z</time>
      </trkpt>
      <trkpt lat="19.07616" lon="98.926">
        <time>2019-09-06T08:43:01Z</time>
      </trkpt>
      <trkpt lat="19.07627" lon="98.9258">
        <time>2019-09-06T08:43:02Z</time>
      </trkpt>
      <trkpt lat="19.07637" lon="98.9256">
        <time>2019-09-06T08:43:03Z</time>
      </trkpt>
      <trkpt lat="19.07647" lon="98.9254">
        <time>2019-09-06T08:43:04Z</time>
      </trkpt>
      <trkpt lat="19.07658" lon="98.9252">
        <time>2019-09-06T08:43:05Z</time>
      </trkpt>
      <trkpt lat="19.07669" lon="98.92499">
        <time>2019-09-06T08:43:06Z</time>
      </trkpt>
      <trkpt lat="19.0768" lon="98.92478">
        <time>2019-09-06T08:43:07Z</time>
      </trkpt>
      <trkpt lat="19.07692" lon="98.92457">
        <time>2019-09-06T08:43:08Z</time>
      </trkpt>
      <trkpt lat="19.07703" lon="98.92436">
        <time>2019-09-06T08:43:09Z</time>
      </trkpt>
      <trkpt lat="19.07713" lon="98.92416">
        <time>2019-09-06T08:43:10Z</time>
      </trkpt>
      <trkpt lat="19.07724" lon="98.92395">
        <time>2019-09-06T08:43:11Z</time>
      </trkpt>
      <trkpt lat="19.07735" lon="98.92375">
        <time>2019-09-06T08:43:12Z</time>
      </trkpt>
      <trkpt lat="19.07745" lon="98.92353">
        <time>2019-09-06T08:43:13Z</time>
      </trkpt>
      <trkpt lat="19.07755" lon="98.92334">
        <time>2019-09-06T08:43:14Z</time>
      </trkpt>
      <trkpt lat="19.07767" lon="98.92311">
        <time>2019-09-06T08:43:15Z</time>
      </trkpt>
      <trkpt lat="19.07779" lon="98.92291">
        <time>2019-09-06T08:43:16Z</time>
      </trkpt>
      <trkpt lat="19.07793" lon="98.92269">
        <time>2019-09-06T08:43:17Z</time>
      </trkpt>
      <trkpt lat="19.07803" lon="98.92248">
        <time>2019-09-06T08:43:18Z</time>
      </trkpt>
      <trkpt lat="19.07814" lon="98.92225">
        <time>2019-09-06T08:43:19Z</time>
      </trkpt>
      <trkpt lat="19.07824" lon="98.92204">
        <time>2019-09-06T08:43:20Z</time>
      </trkpt>
      <trkpt lat="19.07837" lon="98.92181">
        <time>2019-09-06T08:43:21Z</time>
      </trkpt>
      <trkpt lat="19.07847" lon="98.92159">
        <time>2019-09-06T08:43:22Z</time>
      </trkpt>
      <trkpt lat="19.0786" lon="98.92137">
        <time>2019-09-06T08:43:23Z</time>
      </trkpt>
      <trkpt lat="19.07872" lon="98.92116">
        <time>2019-09-06T08:43:24Z</time>
      </trkpt>
      <trkpt lat="19.07885" lon="98.92094">
        <time>2019-09-06T08:43:25Z</time>
      </trkpt>
      <trkpt lat="19.07896" lon="98.92072">
        <time>2019-09-06T08:43:26Z</time>
      </trkpt>
      <trkpt lat="19.07908" lon="98.92049">
        <time>2019-09-06T08:43:27Z</time>
      </trkpt>
      <trkpt lat="19.07917" lon="98.92027">
        <time>2019-09-06T08:43:28Z</time>
      </trkpt>
      <trkpt lat="19.07926" lon="98.92006">
        <time>2019-09-06T08:43:29Z</time>
      </trkpt>
      <trkpt lat="19.07937" lon="98.91984">
        <time>2019-09-06T08:43:30Z</time>
      </trkpt>
      <trkpt lat="19.07945" lon="98.91961">
        <time>2019-09-06T08:43:31Z</time>
      </trkpt>
      <trkpt lat="19.07955" lon="98.91939">
        <time>2019-09-06T08:43:32Z</time>
      </trkpt>
      <trkpt lat="19.07967" lon="98.91916">
        <time>2019-09-06T08:43:33Z</time>
      </trkpt>
      <trkpt lat="19.07979" lon="98.91893">
        <time>2019-09-06T08:43:34Z</time>
      </trkpt>
      <trkpt lat="19.0799" lon="98.91871">
        <time>2019-09-06T08:43:35Z</time>
      </trkpt>
      <trkpt lat="19.08002" lon="98.91848">
        <time>2019-09-06T08:43:36Z</time>
      </trkpt>
      <trkpt lat="19.08014" lon="98.91823">
        <time>2019-09-06T08:43:37Z</time>
      </trkpt>
      <trkpt lat="19.08024" lon="98.91799">
        <time>2019-09-06T08:43:38Z</time>
      </trkpt>
      <trkpt lat="19.08037" lon="98.91776">
        <time>2019-09-06T08:43:39Z</time>
      </trkpt>
      <trkpt lat="19.0805" lon="98.91753">
        <time>2019-09-06T08:43:40Z</time>
      </trkpt>
      <trkpt lat="19.08062" lon="98.91729">
        <time>2019-09-06T08:43:41Z</time>
      </trkpt>
      <trkpt lat="19.08074" lon="98.91706">
        <time>2019-09-06T08:43:42Z</time>
      </trkpt>
      <trkpt lat="19.08086" lon="98.91682">
        <time>2019-09-06T08:43:43Z</time>
      </trkpt>
      <trkpt lat="19.08098" lon="98.91659">
        <time>2019-09-06T08:43:44Z</time>
      </trkpt>
      <trkpt lat="19.0811" lon="98.91635">
        <time>2019-09-06T08:43:45Z</time>
      </trkpt>
      <trkpt lat="19.08122" lon="98.91612">
        <time>2019-09-06T08:43:46Z</time>
      </trkpt>
      <trkpt lat="19.08135" lon="98.91588">
        <time>2019-09-06T08:43:47Z</time>
      </trkpt>
      <trkpt lat="19.08147" lon="98.91566">
        <time>2019-09-06T08:43:48Z</time>
      </trkpt>
      <trkpt lat="19.08159" lon="98.91543">
        <time>2019-09-06T08:43:49Z</time>
      </trkpt>
      <trkpt lat="19.08171" lon="98.9152">
        <time>2019-09-06T08:43:50Z</time>
      </trkpt>
      <trkpt lat="19.08183" lon="98.91496">
        <time>2019-09-06T08:43:51Z</time>
      </trkpt>
      <trkpt lat="19.08197" lon="98.91472">
        <time>2019-09-06T08:43:52Z</time>
      </trkpt>
      <trkpt lat="19.08208" lon="98.91451">
        <time>2019-09-06T08:43:53Z</time>
      </trkpt>
      <trkpt lat="19.08222" lon="98.91428">
        <time>2019-09-06T08:43:54Z</time>
      </trkpt>
      <trkpt lat="19.08233" lon="98.91405">
        <time>2019-09-06T08:43:55Z</time>
      </trkpt>
      <trkpt lat="19.08245" lon="98.91383">
        <time>2019-09-06T08:43:56Z</time>
      </trkpt>
      <trkpt lat="19.08259" lon="98.91359">
        <time>2019-09-06T08:43:57Z</time>
      </trkpt>
      <trkpt lat="19.08272" lon="98.91336">
        <time>2019-09-06T08:43:58Z</time>
      </trkpt>
      <trkpt lat="19.08282" lon="98.91313">
        <time>2019-09-06T08:43:59Z</time>
      </trkpt>
      <trkpt lat="19.08293" lon="98.91288">
        <time>2019-09-06T08:44:00Z</time>
      </trkpt>
      <trkpt lat="19.08307" lon="98.91264">
        <time>2019-09-06T08:44:01Z</time>
      </trkpt>
      <trkpt lat="19.08319" lon="98.91241">
        <time>2019-09-06T08:44:02Z</time>
      </trkpt>
      <trkpt lat="19.08333" lon="98.91216">
        <time>2019-09-06T08:44:03Z</time>
      </trkpt>
      <trkpt lat="19.08345" lon="98.91192">
        <time>2019-09-06T08:44:04Z</time>
      </trkpt>
      <trkpt lat="19.08356" lon="98.91169">
        <time>2019-09-06T08:44:05Z</time>
      </trkpt>
      <trkpt lat="19.08368" lon="98.91145">
        <time>2019-09-06T08:44:06Z</time>
      </trkpt>
      <trkpt lat="19.0838" lon="98.91122">
        <time>2019-09-06T08:44:07Z</time>
      </trkpt>
      <trkpt lat="19.08391" lon="98.91098">
        <time>2019-09-06T08:44:08Z</time>
      </trkpt>
      <trkpt lat="19.08403" lon="98.91075">
        <time>2019-09-06T08:44:09Z</time>
      </trkpt>
      <trkpt lat="19.08414" lon="98.91053">
        <time>2019-09-06T08:44:10Z</time>
      </trkpt>
      <trkpt lat="19.08426" lon="98.91031">
        <time>2019-09-06T08:44:11Z</time>
      </trkpt>
      <trkpt lat="19.08437" lon="98.91009">
        <time>2019-09-06T08:44:12Z</time>
      </trkpt>
      <trkpt lat="19.08447" lon="98.90987">
        <time>2019-09-06T08:44:13Z</time>
      </trkpt>
      <trkpt lat="19.08458" lon="98.90966">
        <time>2019-09-06T08:44:15Z</time>
      </trkpt>
      <trkpt lat="19.08468" lon="98.90946">
        <time>2019-09-06T08:44:15Z</time>
      </trkpt>
      <trkpt lat="19.08479" lon="98.90925">
        <time>2019-09-06T08:44:16Z</time>
      </trkpt>
      <trkpt lat="19.0849" lon="98.90904">
        <time>2019-09-06T08:44:17Z</time>
      </trkpt>
      <trkpt lat="19.08501" lon="98.90883">
        <time>2019-09-06T08:44:18Z</time>
      </trkpt>
      <trkpt lat="19.08511" lon="98.90862">
        <time>2019-09-06T08:44:19Z</time>
      </trkpt>
      <trkpt lat="19.08521" lon="98.90841">
        <time>2019-09-06T08:44:20Z</time>
      </trkpt>
      <trkpt lat="19.08531" lon="98.90821">
        <time>2019-09-06T08:44:21Z</time>
      </trkpt>
      <trkpt lat="19.08541" lon="98.90803">
        <time>2019-09-06T08:44:22Z</time>
      </trkpt>
      <trkpt lat="19.0855" lon="98.90786">
        <time>2019-09-06T08:44:23Z</time>
      </trkpt>
      <trkpt lat="19.08559" lon="98.90769">
        <time>2019-09-06T08:44:24Z</time>
      </trkpt>
      <trkpt lat="19.08567" lon="98.90753">
        <time>2019-09-06T08:44:25Z</time>
      </trkpt>
      <trkpt lat="19.08575" lon="98.90738">
        <time>2019-09-06T08:44:26Z</time>
      </trkpt>
      <trkpt lat="19.08583" lon="98.90724">
        <time>2019-09-06T08:44:27Z</time>
      </trkpt>
      <trkpt lat="19.0859" lon="98.90707">
        <time>2019-09-06T08:44:28Z</time>
      </trkpt>
      <trkpt lat="19.08596" lon="98.90692">
        <time>2019-09-06T08:44:29Z</time>
      </trkpt>
      <trkpt lat="19.08602" lon="98.90679">
        <time>2019-09-06T08:44:30Z</time>
      </trkpt>
      <trkpt lat="19.08608" lon="98.90665">
        <time>2019-09-06T08:44:31Z</time>
      </trkpt>
      <trkpt lat="19.08614" lon="98.90653">
        <time>2019-09-06T08:44:32Z</time>
      </trkpt>
      <trkpt lat="19.08618" lon="98.90641">
        <time>2019-09-06T08:44:33Z</time>
      </trkpt>
      <trkpt lat="19.08623" lon="98.90631">
        <time>2019-09-06T08:44:34Z</time>
      </trkpt>
      <trkpt lat="19.08626" lon="98.90623">
        <time>2019-09-06T08:44:35Z</time>
      </trkpt>
      <trkpt lat="19.08632" lon="98.90615">
        <time>2019-09-06T08:44:36Z</time>
      </trkpt>
      <trkpt lat="19.08636" lon="98.90607">
        <time>2019-09-06T08:44:37Z</time>
      </trkpt>
      <trkpt lat="19.08642" lon="98.90599">
        <time>2019-09-06T08:44:38Z</time>
      </trkpt>
      <trkpt lat="19.08644" lon="98.90593">
        <time>2019-09-06T08:44:39Z</time>
      </trkpt>
      <trkpt lat="19.08647" lon="98.90587">
        <time>2019-09-06T08:44:40Z</time>
      </trkpt>
      <trkpt lat="19.08651" lon="98.9058">
        <time>2019-09-06T08:44:41Z</time>
      </trkpt>
      <trkpt lat="19.08652" lon="98.90575">
        <time>2019-09-06T08:44:42Z</time>
      </trkpt>
      <trkpt lat="19.08656" lon="98.9057">
        <time>2019-09-06T08:44:43Z</time>
      </trkpt>
      <trkpt lat="19.08659" lon="98.90565">
        <time>2019-09-06T08:44:44Z</time>
      </trkpt>
      <trkpt lat="19.0866" lon="98.90562">
        <time>2019-09-06T08:44:45Z</time>
      </trkpt>
      <trkpt lat="19.08662" lon="98.9056">
        <time>2019-09-06T08:44:46Z</time>
      </trkpt>
      <trkpt lat="19.08663" lon="98.90558">
        <time>2019-09-06T08:44:47Z</time>
      </trkpt>
      <trkpt lat="19.08664" lon="98.90557">
        <time>2019-09-06T08:44:48Z</time>
      </trkpt>
      <trkpt lat="19.08665" lon="98.90556">
        <time>2019-09-06T08:44:49Z</time>
      </trkpt>
      <trkpt lat="19.08665" lon="98.90555">
        <time>2019-09-06T08:44:50Z</time>
      </trkpt>
      <trkpt lat="19.08666" lon="98.90553">
        <time>2019-09-06T08:44:51Z</time>
      </trkpt>
      <trkpt lat="19.08667" lon="98.90552">
        <time>2019-09-06T08:44:52Z</time>
      </trkpt>
      <trkpt lat="19.08668" lon="98.9055">
        <time>2019-09-06T08:45:11Z</time>
      </trkpt>
      <trkpt lat="19.08669" lon="98.90547">
        <time>2019-09-06T08:45:12Z</time>
      </trkpt>
      <trkpt lat="19.08672" lon="98.90541">
        <time>2019-09-06T08:45:13Z</time>
      </trkpt>
      <trkpt lat="19.08676" lon="98.90534">
        <time>2019-09-06T08:45:14Z</time>
      </trkpt>
      <trkpt lat="19.0868" lon="98.90527">
        <time>2019-09-06T08:45:15Z</time>
      </trkpt>
      <trkpt lat="19.08683" lon="98.90519">
        <time>2019-09-06T08:45:16Z</time>
      </trkpt>
      <trkpt lat="19.08688" lon="98.90511">
        <time>2019-09-06T08:45:17Z</time>
      </trkpt>
      <trkpt lat="19.08691" lon="98.90504">
        <time>2019-09-06T08:45:18Z</time>
      </trkpt>
      <trkpt lat="19.08695" lon="98.90495">
        <time>2019-09-06T08:45:19Z</time>
      </trkpt>
      <trkpt lat="19.08698" lon="98.90486">
        <time>2019-09-06T08:45:20Z</time>
      </trkpt>
      <trkpt lat="19.08703" lon="98.90477">
        <time>2019-09-06T08:45:21Z</time>
      </trkpt>
      <trkpt lat="19.08708" lon="98.90466">
        <time>2019-09-06T08:45:22Z</time>
      </trkpt>
      <trkpt lat="19.08713" lon="98.90454">
        <time>2019-09-06T08:45:23Z</time>
      </trkpt>
      <trkpt lat="19.0872" lon="98.90441">
        <time>2019-09-06T08:45:24Z</time>
      </trkpt>
      <trkpt lat="19.08727" lon="98.90428">
        <time>2019-09-06T08:45:25Z</time>
      </trkpt>
      <trkpt lat="19.08735" lon="98.90414">
        <time>2019-09-06T08:45:26Z</time>
      </trkpt>
      <trkpt lat="19.08743" lon="98.904">
        <time>2019-09-06T08:45:27Z</time>
      </trkpt>
      <trkpt lat="19.08752" lon="98.90385">
        <time>2019-09-06T08:45:28Z</time>
      </trkpt>
      <trkpt lat="19.0876" lon="98.90371">
        <time>2019-09-06T08:45:29Z</time>
      </trkpt>
      <trkpt lat="19.08768" lon="98.90357">
        <time>2019-09-06T08:45:30Z</time>
      </trkpt>
      <trkpt lat="19.08777" lon="98.90342">
        <time>2019-09-06T08:45:31Z</time>
      </trkpt>
      <trkpt lat="19.08783" lon="98.90328">
        <time>2019-09-06T08:45:32Z</time>
      </trkpt>
      <trkpt lat="19.0879" lon="98.90312">
        <time>2019-09-06T08:45:33Z</time>
      </trkpt>
      <trkpt lat="19.08796" lon="98.90297">
        <time>2019-09-06T08:45:34Z</time>
      </trkpt>
      <trkpt lat="19.08802" lon="98.90281">
        <time>2019-09-06T08:45:35Z</time>
      </trkpt>
      <trkpt lat="19.08805" lon="98.90266">
        <time>2019-09-06T08:45:36Z</time>
      </trkpt>
      <trkpt lat="19.08807" lon="98.90253">
        <time>2019-09-06T08:45:37Z</time>
      </trkpt>
      <trkpt lat="19.08806" lon="98.9024">
        <time>2019-09-06T08:45:38Z</time>
      </trkpt>
      <trkpt lat="19.08804" lon="98.90227">
        <time>2019-09-06T08:45:39Z</time>
      </trkpt>
      <trkpt lat="19.08798" lon="98.90215">
        <time>2019-09-06T08:45:40Z</time>
      </trkpt>
      <trkpt lat="19.0879" lon="98.90206">
        <time>2019-09-06T08:45:41Z</time>
      </trkpt>
      <trkpt lat="19.0878" lon="98.90196">
        <time>2019-09-06T08:45:42Z</time>
      </trkpt>
      <trkpt lat="19.08771" lon="98.90184">
        <time>2019-09-06T08:45:43Z</time>
      </trkpt>
      <trkpt lat="19.08763" lon="98.9017">
        <time>2019-09-06T08:45:44Z</time>
      </trkpt>
      <trkpt lat="19.08756" lon="98.90154">
        <time>2019-09-06T08:45:45Z</time>
      </trkpt>
      <trkpt lat="19.0875" lon="98.90138">
        <time>2019-09-06T08:45:46Z</time>
      </trkpt>
      <trkpt lat="19.08745" lon="98.90121">
        <time>2019-09-06T08:45:47Z</time>
      </trkpt>
      <trkpt lat="19.0874" lon="98.90104">
        <time>2019-09-06T08:45:48Z</time>
      </trkpt>
      <trkpt lat="19.08736" lon="98.90089">
        <time>2019-09-06T08:45:49Z</time>
      </trkpt>
      <trkpt lat="19.08732" lon="98.90074">
        <time>2019-09-06T08:45:50Z</time>
      </trkpt>
      <trkpt lat="19.08729" lon="98.90059">
        <time>2019-09-06T08:45:51Z</time>
      </trkpt>
      <trkpt lat="19.08728" lon="98.90044">
        <time>2019-09-06T08:45:52Z</time>
      </trkpt>
      <trkpt lat="19.08728" lon="98.90027">
        <time>2019-09-06T08:45:53Z</time>
      </trkpt>
      <trkpt lat="19.0873" lon="98.90011">
        <time>2019-09-06T08:45:54Z</time>
      </trkpt>
      <trkpt lat="19.08736" lon="98.89995">
        <time>2019-09-06T08:45:55Z</time>
      </trkpt>
      <trkpt lat="19.08738" lon="98.89979">
        <time>2019-09-06T08:45:56Z</time>
      </trkpt>
      <trkpt lat="19.08739" lon="98.89963">
        <time>2019-09-06T08:45:57Z</time>
      </trkpt>
      <trkpt lat="19.0874" lon="98.89947">
        <time>2019-09-06T08:45:58Z</time>
      </trkpt>
      <trkpt lat="19.08739" lon="98.89931">
        <time>2019-09-06T08:45:59Z</time>
      </trkpt>
      <trkpt lat="19.08739" lon="98.89916">
        <time>2019-09-06T08:46:00Z</time>
      </trkpt>
      <trkpt lat="19.08738" lon="98.89901">
        <time>2019-09-06T08:46:01Z</time>
      </trkpt>
      <trkpt lat="19.08736" lon="98.89886">
        <time>2019-09-06T08:46:02Z</time>
      </trkpt>
      <trkpt lat="19.08733" lon="98.8987">
        <time>2019-09-06T08:46:03Z</time>
      </trkpt>
      <trkpt lat="19.08728" lon="98.89854">
        <time>2019-09-06T08:46:04Z</time>
      </trkpt>
      <trkpt lat="19.08721" lon="98.89838">
        <time>2019-09-06T08:46:05Z</time>
      </trkpt>
      <trkpt lat="19.08715" lon="98.89822">
        <time>2019-09-06T08:46:06Z</time>
      </trkpt>
      <trkpt lat="19.08708" lon="98.89806">
        <time>2019-09-06T08:46:07Z</time>
      </trkpt>
      <trkpt lat="19.08701" lon="98.8979">
        <time>2019-09-06T08:46:08Z</time>
      </trkpt>
      <trkpt lat="19.08695" lon="98.89774">
        <time>2019-09-06T08:46:09Z</time>
      </trkpt>
      <trkpt lat="19.08688" lon="98.89758">
        <time>2019-09-06T08:46:10Z</time>
      </trkpt>
      <trkpt lat="19.08681" lon="98.89742">
        <time>2019-09-06T08:46:11Z</time>
      </trkpt>
      <trkpt lat="19.08674" lon="98.89726">
        <time>2019-09-06T08:46:12Z</time>
      </trkpt>
      <trkpt lat="19.08667" lon="98.8971">
        <time>2019-09-06T08:46:13Z</time>
      </trkpt>
      <trkpt lat="19.0866" lon="98.89696">
        <time>2019-09-06T08:46:14Z</time>
      </trkpt>
      <trkpt lat="19.08652" lon="98.89681">
        <time>2019-09-06T08:46:15Z</time>
      </trkpt>
      <trkpt lat="19.08646" lon="98.89666">
        <time>2019-09-06T08:46:16Z</time>
      </trkpt>
      <trkpt lat="19.08642" lon="98.89651">
        <time>2019-09-06T08:46:17Z</time>
      </trkpt>
      <trkpt lat="19.08641" lon="98.89634">
        <time>2019-09-06T08:46:18Z</time>
      </trkpt>
      <trkpt lat="19.08639" lon="98.89618">
        <time>2019-09-06T08:46:19Z</time>
      </trkpt>
      <trkpt lat="19.08642" lon="98.89601">
        <time>2019-09-06T08:46:20Z</time>
      </trkpt>
      <trkpt lat="19.08644" lon="98.89586">
        <time>2019-09-06T08:46:21Z</time>
      </trkpt>
      <trkpt lat="19.08648" lon="98.89568">
        <time>2019-09-06T08:46:22Z</time>
      </trkpt>
      <trkpt lat="19.08654" lon="98.8955">
        <time>2019-09-06T08:46:23Z</time>
      </trkpt>
      <trkpt lat="19.0866" lon="98.89532">
        <time>2019-09-06T08:46:24Z</time>
      </trkpt>
      <trkpt lat="19.08664" lon="98.89515">
        <time>2019-09-06T08:46:25Z</time>
      </trkpt>
      <trkpt lat="19.0867" lon="98.89497">
        <time>2019-09-06T08:46:26Z</time>
      </trkpt>
      <trkpt lat="19.08675" lon="98.89478">
        <time>2019-09-06T08:46:27Z</time>
      </trkpt>
      <trkpt lat="19.0868" lon="98.89459">
        <time>2019-09-06T08:46:28Z</time>
      </trkpt>
      <trkpt lat="19.08683" lon="98.89441">
        <time>2019-09-06T08:46:29Z</time>
      </trkpt>
      <trkpt lat="19.08685" lon="98.89423">
        <time>2019-09-06T08:46:30Z</time>
      </trkpt>
      <trkpt lat="19.08691" lon="98.89404">
        <time>2019-09-06T08:46:31Z</time>
      </trkpt>
      <trkpt lat="19.08695" lon="98.89386">
        <time>2019-09-06T08:46:32Z</time>
      </trkpt>
      <trkpt lat="19.08701" lon="98.89368">
        <time>2019-09-06T08:46:33Z</time>
      </trkpt>
      <trkpt lat="19.08706" lon="98.89349">
        <time>2019-09-06T08:46:34Z</time>
      </trkpt>
      <trkpt lat="19.08711" lon="98.89329">
        <time>2019-09-06T08:46:35Z</time>
      </trkpt>
      <trkpt lat="19.08716" lon="98.89311">
        <time>2019-09-06T08:46:36Z</time>
      </trkpt>
      <trkpt lat="19.08723" lon="98.89294">
        <time>2019-09-06T08:46:37Z</time>
      </trkpt>
      <trkpt lat="19.08732" lon="98.89277">
        <time>2019-09-06T08:46:38Z</time>
      </trkpt>
      <trkpt lat="19.08741" lon="98.8926">
        <time>2019-09-06T08:46:39Z</time>
      </trkpt>
      <trkpt lat="19.08749" lon="98.89243">
        <time>2019-09-06T08:46:40Z</time>
      </trkpt>
      <trkpt lat="19.08759" lon="98.89225">
        <time>2019-09-06T08:46:41Z</time>
      </trkpt>
      <trkpt lat="19.0877" lon="98.89207">
        <time>2019-09-06T08:46:42Z</time>
      </trkpt>
      <trkpt lat="19.08779" lon="98.89189">
        <time>2019-09-06T08:46:43Z</time>
      </trkpt>
      <trkpt lat="19.08788" lon="98.89172">
        <time>2019-09-06T08:46:44Z</time>
      </trkpt>
      <trkpt lat="19.08798" lon="98.89155">
        <time>2019-09-06T08:46:45Z</time>
      </trkpt>
      <trkpt lat="19.08804" lon="98.89136">
        <time>2019-09-06T08:46:46Z</time>
      </trkpt>
      <trkpt lat="19.08809" lon="98.89117">
        <time>2019-09-06T08:46:47Z</time>
      </trkpt>
      <trkpt lat="19.08811" lon="98.89097">
        <time>2019-09-06T08:46:48Z</time>
      </trkpt>
      <trkpt lat="19.08812" lon="98.89076">
        <time>2019-09-06T08:46:49Z</time>
      </trkpt>
      <trkpt lat="19.08814" lon="98.89056">
        <time>2019-09-06T08:46:50Z</time>
      </trkpt>
      <trkpt lat="19.08817" lon="98.89036">
        <time>2019-09-06T08:46:51Z</time>
      </trkpt>
      <trkpt lat="19.08823" lon="98.89017">
        <time>2019-09-06T08:46:52Z</time>
      </trkpt>
      <trkpt lat="19.08827" lon="98.88999">
        <time>2019-09-06T08:46:53Z</time>
      </trkpt>
      <trkpt lat="19.08835" lon="98.88983">
        <time>2019-09-06T08:46:54Z</time>
      </trkpt>
      <trkpt lat="19.08845" lon="98.88967">
        <time>2019-09-06T08:46:55Z</time>
      </trkpt>
      <trkpt lat="19.0886" lon="98.88951">
        <time>2019-09-06T08:46:56Z</time>
      </trkpt>
      <trkpt lat="19.08875" lon="98.88936">
        <time>2019-09-06T08:46:57Z</time>
      </trkpt>
      <trkpt lat="19.0889" lon="98.88921">
        <time>2019-09-06T08:46:58Z</time>
      </trkpt>
      <trkpt lat="19.08908" lon="98.88908">
        <time>2019-09-06T08:46:59Z</time>
      </trkpt>
      <trkpt lat="19.08924" lon="98.88896">
        <time>2019-09-06T08:47:00Z</time>
      </trkpt>
      <trkpt lat="19.0894" lon="98.88884">
        <time>2019-09-06T08:47:01Z</time>
      </trkpt>
      <trkpt lat="19.08954" lon="98.88872">
        <time>2019-09-06T08:47:02Z</time>
      </trkpt>
      <trkpt lat="19.08967" lon="98.8886">
        <time>2019-09-06T08:47:03Z</time>
      </trkpt>
      <trkpt lat="19.0898" lon="98.88846">
        <time>2019-09-06T08:47:04Z</time>
      </trkpt>
      <trkpt lat="19.08988" lon="98.88832">
        <time>2019-09-06T08:47:05Z</time>
      </trkpt>
      <trkpt lat="19.08996" lon="98.88817">
        <time>2019-09-06T08:47:06Z</time>
      </trkpt>
      <trkpt lat="19.09004" lon="98.88802">
        <time>2019-09-06T08:47:07Z</time>
      </trkpt>
      <trkpt lat="19.0901" lon="98.88788">
        <time>2019-09-06T08:47:08Z</time>
      </trkpt>
      <trkpt lat="19.09017" lon="98.88773">
        <time>2019-09-06T08:47:09Z</time>
      </trkpt>
      <trkpt lat="19.09024" lon="98.88759">
        <time>2019-09-06T08:47:10Z</time>
      </trkpt>
      <trkpt lat="19.09032" lon="98.88745">
        <time>2019-09-06T08:47:11Z</time>
      </trkpt>
      <trkpt lat="19.09041" lon="98.88731">
        <time>2019-09-06T08:47:12Z</time>
      </trkpt>
      <trkpt lat="19.09051" lon="98.88716">
        <time>2019-09-06T08:47:13Z</time>
      </trkpt>
      <trkpt lat="19.09062" lon="98.887">
        <time>2019-09-06T08:47:14Z</time>
      </trkpt>
      <trkpt lat="19.09072" lon="98.88684">
        <time>2019-09-06T08:47:15Z</time>
      </trkpt>
      <trkpt lat="19.09083" lon="98.88669">
        <time>2019-09-06T08:47:16Z</time>
      </trkpt>
      <trkpt lat="19.09094" lon="98.88652">
        <time>2019-09-06T08:47:17Z</time>
      </trkpt>
      <trkpt lat="19.09102" lon="98.88638">
        <time>2019-09-06T08:47:18Z</time>
      </trkpt>
      <trkpt lat="19.09115" lon="98.88624">
        <time>2019-09-06T08:47:19Z</time>
      </trkpt>
      <trkpt lat="19.09127" lon="98.8861">
        <time>2019-09-06T08:47:20Z</time>
      </trkpt>
      <trkpt lat="19.09142" lon="98.88594">
        <time>2019-09-06T08:47:21Z</time>
      </trkpt>
      <trkpt lat="19.09157" lon="98.88582">
        <time>2019-09-06T08:47:22Z</time>
      </trkpt>
      <trkpt lat="19.09172" lon="98.88569">
        <time>2019-09-06T08:47:23Z</time>
      </trkpt>
      <trkpt lat="19.09186" lon="98.88556">
        <time>2019-09-06T08:47:24Z</time>
      </trkpt>
      <trkpt lat="19.09198" lon="98.88544">
        <time>2019-09-06T08:47:25Z</time>
      </trkpt>
      <trkpt lat="19.09211" lon="98.88531">
        <time>2019-09-06T08:47:26Z</time>
      </trkpt>
      <trkpt lat="19.09224" lon="98.88518">
        <time>2019-09-06T08:47:27Z</time>
      </trkpt>
      <trkpt lat="19.09237" lon="98.88505">
        <time>2019-09-06T08:47:28Z</time>
      </trkpt>
      <trkpt lat="19.09251" lon="98.88492">
        <time>2019-09-06T08:47:29Z</time>
      </trkpt>
      <trkpt lat="19.09264" lon="98.88479">
        <time>2019-09-06T08:47:30Z</time>
      </trkpt>
      <trkpt lat="19.09276" lon="98.88466">
        <time>2019-09-06T08:47:31Z</time>
      </trkpt>
      <trkpt lat="19.09289" lon="98.88452">
        <time>2019-09-06T08:47:32Z</time>
      </trkpt>
      <trkpt lat="19.093" lon="98.88438">
        <time>2019-09-06T08:47:33Z</time>
      </trkpt>
      <trkpt lat="19.0931" lon="98.88424">
        <time>2019-09-06T08:47:34Z</time>
      </trkpt>
      <trkpt lat="19.09321" lon="98.8841">
        <time>2019-09-06T08:47:35Z</time>
      </trkpt>
      <trkpt lat="19.0933" lon="98.88395">
        <time>2019-09-06T08:47:36Z</time>
      </trkpt>
      <trkpt lat="19.09337" lon="98.88378">
        <time>2019-09-06T08:47:37Z</time>
      </trkpt>
      <trkpt lat="19.09341" lon="98.88363">
        <time>2019-09-06T08:47:38Z</time>
      </trkpt>
      <trkpt lat="19.09343" lon="98.88348">
        <time>2019-09-06T08:47:39Z</time>
      </trkpt>
      <trkpt lat="19.09345" lon="98.88332">
        <time>2019-09-06T08:47:40Z</time>
      </trkpt>
      <trkpt lat="19.09345" lon="98.88316">
        <time>2019-09-06T08:47:41Z</time>
      </trkpt>
      <trkpt lat="19.09345" lon="98.88299">
        <time>2019-09-06T08:47:42Z</time>
      </trkpt>
      <trkpt lat="19.09344" lon="98.88283">
        <time>2019-09-06T08:47:43Z</time>
      </trkpt>
      <trkpt lat="19.09342" lon="98.88269">
        <time>2019-09-06T08:47:44Z</time>
      </trkpt>
      <trkpt lat="19.09341" lon="98.88253">
        <time>2019-09-06T08:47:45Z</time>
      </trkpt>
      <trkpt lat="19.09338" lon="98.88241">
        <time>2019-09-06T08:47:46Z</time>
      </trkpt>
      <trkpt lat="19.09335" lon="98.88231">
        <time>2019-09-06T08:47:47Z</time>
      </trkpt>
      <trkpt lat="19.09334" lon="98.88224">
        <time>2019-09-06T08:47:48Z</time>
      </trkpt>
      <trkpt lat="19.09333" lon="98.88217">
        <time>2019-09-06T08:47:49Z</time>
      </trkpt>
      <trkpt lat="19.09332" lon="98.88211">
        <time>2019-09-06T08:47:50Z</time>
      </trkpt>
      <trkpt lat="19.0933" lon="98.8821">
        <time>2019-09-06T08:47:51Z</time>
      </trkpt>
      <trkpt lat="19.09328" lon="98.88206">
        <time>2019-09-06T08:47:52Z</time>
      </trkpt>
      <trkpt lat="19.09326" lon="98.88204">
        <time>2019-09-06T08:47:53Z</time>
      </trkpt>
      <trkpt lat="19.09323" lon="98.88202">
        <time>2019-09-06T08:47:54Z</time>
      </trkpt>
      <trkpt lat="19.09321" lon="98.88202">
        <time>2019-09-06T08:47:55Z</time>
      </trkpt>
      <trkpt lat="19.09319" lon="98.88201">
        <time>2019-09-06T08:47:56Z</time>
      </trkpt>
      <trkpt lat="19.09318" lon="98.882">
        <time>2019-09-06T08:47:57Z</time>
      </trkpt>
      <trkpt lat="19.09316" lon="98.88198">
        <time>2019-09-06T08:47:59Z</time>
      </trkpt>
      <trkpt lat="19.09315" lon="98.88196">
        <time>2019-09-06T08:48:00Z</time>
      </trkpt>
      <trkpt lat="19.09314" lon="98.88197">
        <time>2019-09-06T08:48:09Z</time>
      </trkpt>
      <trkpt lat="19.09315" lon="98.88195">
        <time>2019-09-06T08:48:55Z</time>
      </trkpt>
      <trkpt lat="19.09315" lon="98.88194">
        <time>2019-09-06T08:48:56Z</time>
      </trkpt>
      <trkpt lat="19.09315" lon="98.88192">
        <time>2019-09-06T08:48:57Z</time>
      </trkpt>
      <trkpt lat="19.09316" lon="98.8819">
        <time>2019-09-06T08:48:58Z</time>
      </trkpt>
      <trkpt lat="19.09317" lon="98.88189">
        <time>2019-09-06T08:48:59Z</time>
      </trkpt>
      <trkpt lat="19.09318" lon="98.88187">
        <time>2019-09-06T08:49:00Z</time>
      </trkpt>
      <trkpt lat="19.0932" lon="98.88187">
        <time>2019-09-06T08:49:01Z</time>
      </trkpt>
      <trkpt lat="19.09321" lon="98.88186">
        <time>2019-09-06T08:49:02Z</time>
      </trkpt>
      <trkpt lat="19.09323" lon="98.88185">
        <time>2019-09-06T08:49:03Z</time>
      </trkpt>
      <trkpt lat="19.09325" lon="98.88184">
        <time>2019-09-06T08:49:04Z</time>
      </trkpt>
      <trkpt lat="19.09327" lon="98.88182">
        <time>2019-09-06T08:49:05Z</time>
      </trkpt>
      <trkpt lat="19.0933" lon="98.88181">
        <time>2019-09-06T08:49:06Z</time>
      </trkpt>
      <trkpt lat="19.09332" lon="98.88178">
        <time>2019-09-06T08:49:07Z</time>
      </trkpt>
      <trkpt lat="19.09335" lon="98.88173">
        <time>2019-09-06T08:49:08Z</time>
      </trkpt>
      <trkpt lat="19.09338" lon="98.88164">
        <time>2019-09-06T08:49:09Z</time>
      </trkpt>
      <trkpt lat="19.09342" lon="98.88149">
        <time>2019-09-06T08:49:10Z</time>
      </trkpt>
      <trkpt lat="19.09346" lon="98.88136">
        <time>2019-09-06T08:49:11Z</time>
      </trkpt>
      <trkpt lat="19.09347" lon="98.88129">
        <time>2019-09-06T08:49:12Z</time>
      </trkpt>
      <trkpt lat="19.09354" lon="98.88105">
        <time>2019-09-06T08:49:13Z</time>
      </trkpt>
      <trkpt lat="19.09358" lon="98.88088">
        <time>2019-09-06T08:49:14Z</time>
      </trkpt>
      <trkpt lat="19.09359" lon="98.88071">
        <time>2019-09-06T08:49:15Z</time>
      </trkpt>
      <trkpt lat="19.09361" lon="98.88053">
        <time>2019-09-06T08:49:16Z</time>
      </trkpt>
      <trkpt lat="19.09361" lon="98.88032">
        <time>2019-09-06T08:49:17Z</time>
      </trkpt>
      <trkpt lat="19.09362" lon="98.88011">
        <time>2019-09-06T08:49:18Z</time>
      </trkpt>
      <trkpt lat="19.09363" lon="98.8799">
        <time>2019-09-06T08:49:19Z</time>
      </trkpt>
      <trkpt lat="19.09364" lon="98.87968">
        <time>2019-09-06T08:49:20Z</time>
      </trkpt>
      <trkpt lat="19.09367" lon="98.87947">
        <time>2019-09-06T08:49:21Z</time>
      </trkpt>
      <trkpt lat="19.09368" lon="98.87923">
        <time>2019-09-06T08:49:22Z</time>
      </trkpt>
      <trkpt lat="19.09369" lon="98.87901">
        <time>2019-09-06T08:49:23Z</time>
      </trkpt>
      <trkpt lat="19.0937" lon="98.8788">
        <time>2019-09-06T08:49:24Z</time>
      </trkpt>
      <trkpt lat="19.09371" lon="98.87861">
        <time>2019-09-06T08:49:25Z</time>
      </trkpt>
      <trkpt lat="19.09374" lon="98.87842">
        <time>2019-09-06T08:49:26Z</time>
      </trkpt>
      <trkpt lat="19.09379" lon="98.87825">
        <time>2019-09-06T08:49:27Z</time>
      </trkpt>
      <trkpt lat="19.09387" lon="98.87808">
        <time>2019-09-06T08:49:28Z</time>
      </trkpt>
      <trkpt lat="19.09395" lon="98.87792">
        <time>2019-09-06T08:49:29Z</time>
      </trkpt>
      <trkpt lat="19.09405" lon="98.87775">
        <time>2019-09-06T08:49:30Z</time>
      </trkpt>
      <trkpt lat="19.09415" lon="98.87756">
        <time>2019-09-06T08:49:31Z</time>
      </trkpt>
      <trkpt lat="19.09425" lon="98.87737">
        <time>2019-09-06T08:49:32Z</time>
      </trkpt>
      <trkpt lat="19.09435" lon="98.87717">
        <time>2019-09-06T08:49:33Z</time>
      </trkpt>
      <trkpt lat="19.09445" lon="98.87697">
        <time>2019-09-06T08:49:34Z</time>
      </trkpt>
      <trkpt lat="19.09453" lon="98.87679">
        <time>2019-09-06T08:49:35Z</time>
      </trkpt>
      <trkpt lat="19.09459" lon="98.87659">
        <time>2019-09-06T08:49:36Z</time>
      </trkpt>
      <trkpt lat="19.09464" lon="98.8764">
        <time>2019-09-06T08:49:37Z</time>
      </trkpt>
      <trkpt lat="19.09466" lon="98.8762">
        <time>2019-09-06T08:49:38Z</time>
      </trkpt>
      <trkpt lat="19.09465" lon="98.87599">
        <time>2019-09-06T08:49:39Z</time>
      </trkpt>
      <trkpt lat="19.09463" lon="98.87577">
        <time>2019-09-06T08:49:40Z</time>
      </trkpt>
      <trkpt lat="19.09462" lon="98.87555">
        <time>2019-09-06T08:49:41Z</time>
      </trkpt>
      <trkpt lat="19.09466" lon="98.87531">
        <time>2019-09-06T08:49:42Z</time>
      </trkpt>
      <trkpt lat="19.09468" lon="98.87507">
        <time>2019-09-06T08:49:43Z</time>
      </trkpt>
      <trkpt lat="19.09471" lon="98.87482">
        <time>2019-09-06T08:49:44Z</time>
      </trkpt>
      <trkpt lat="19.09472" lon="98.87457">
        <time>2019-09-06T08:49:45Z</time>
      </trkpt>
      <trkpt lat="19.09475" lon="98.87434">
        <time>2019-09-06T08:49:46Z</time>
      </trkpt>
      <trkpt lat="19.09477" lon="98.87412">
        <time>2019-09-06T08:49:47Z</time>
      </trkpt>
      <trkpt lat="19.0948" lon="98.8739">
        <time>2019-09-06T08:49:48Z</time>
      </trkpt>
      <trkpt lat="19.09482" lon="98.87371">
        <time>2019-09-06T08:49:49Z</time>
      </trkpt>
      <trkpt lat="19.09484" lon="98.8735">
        <time>2019-09-06T08:49:50Z</time>
      </trkpt>
      <trkpt lat="19.09485" lon="98.8733">
        <time>2019-09-06T08:49:51Z</time>
      </trkpt>
      <trkpt lat="19.09484" lon="98.87309">
        <time>2019-09-06T08:49:52Z</time>
      </trkpt>
      <trkpt lat="19.09479" lon="98.87288">
        <time>2019-09-06T08:49:53Z</time>
      </trkpt>
      <trkpt lat="19.09473" lon="98.87266">
        <time>2019-09-06T08:49:54Z</time>
      </trkpt>
      <trkpt lat="19.09463" lon="98.87245">
        <time>2019-09-06T08:49:55Z</time>
      </trkpt>
      <trkpt lat="19.09451" lon="98.87226">
        <time>2019-09-06T08:49:56Z</time>
      </trkpt>
      <trkpt lat="19.0944" lon="98.87207">
        <time>2019-09-06T08:49:57Z</time>
      </trkpt>
      <trkpt lat="19.09428" lon="98.87189">
        <time>2019-09-06T08:49:58Z</time>
      </trkpt>
      <trkpt lat="19.09418" lon="98.87171">
        <time>2019-09-06T08:49:59Z</time>
      </trkpt>
      <trkpt lat="19.09407" lon="98.87155">
        <time>2019-09-06T08:50:00Z</time>
      </trkpt>
      <trkpt lat="19.09397" lon="98.87138">
        <time>2019-09-06T08:50:01Z</time>
      </trkpt>
      <trkpt lat="19.09387" lon="98.87121">
        <time>2019-09-06T08:50:02Z</time>
      </trkpt>
      <trkpt lat="19.09377" lon="98.87102">
        <time>2019-09-06T08:50:03Z</time>
      </trkpt>
      <trkpt lat="19.09366" lon="98.87083">
        <time>2019-09-06T08:50:04Z</time>
      </trkpt>
      <trkpt lat="19.09355" lon="98.87064">
        <time>2019-09-06T08:50:05Z</time>
      </trkpt>
      <trkpt lat="19.09344" lon="98.87045">
        <time>2019-09-06T08:50:06Z</time>
      </trkpt>
      <trkpt lat="19.09333" lon="98.87026">
        <time>2019-09-06T08:50:07Z</time>
      </trkpt>
      <trkpt lat="19.09322" lon="98.87008">
        <time>2019-09-06T08:50:08Z</time>
      </trkpt>
      <trkpt lat="19.0931" lon="98.86991">
        <time>2019-09-06T08:50:09Z</time>
      </trkpt>
      <trkpt lat="19.09296" lon="98.86973">
        <time>2019-09-06T08:50:10Z</time>
      </trkpt>
      <trkpt lat="19.09281" lon="98.86956">
        <time>2019-09-06T08:50:11Z</time>
      </trkpt>
      <trkpt lat="19.09265" lon="98.86939">
        <time>2019-09-06T08:50:12Z</time>
      </trkpt>
      <trkpt lat="19.0925" lon="98.86923">
        <time>2019-09-06T08:50:13Z</time>
      </trkpt>
      <trkpt lat="19.09235" lon="98.86907">
        <time>2019-09-06T08:50:14Z</time>
      </trkpt>
      <trkpt lat="19.0922" lon="98.86891">
        <time>2019-09-06T08:50:15Z</time>
      </trkpt>
      <trkpt lat="19.09205" lon="98.86874">
        <time>2019-09-06T08:50:16Z</time>
      </trkpt>
      <trkpt lat="19.09189" lon="98.86856">
        <time>2019-09-06T08:50:17Z</time>
      </trkpt>
      <trkpt lat="19.09174" lon="98.86839">
        <time>2019-09-06T08:50:18Z</time>
      </trkpt>
      <trkpt lat="19.09161" lon="98.86819">
        <time>2019-09-06T08:50:19Z</time>
      </trkpt>
      <trkpt lat="19.09148" lon="98.868">
        <time>2019-09-06T08:50:20Z</time>
      </trkpt>
      <trkpt lat="19.09136" lon="98.86782">
        <time>2019-09-06T08:50:21Z</time>
      </trkpt>
      <trkpt lat="19.09124" lon="98.86763">
        <time>2019-09-06T08:50:22Z</time>
      </trkpt>
      <trkpt lat="19.09111" lon="98.86745">
        <time>2019-09-06T08:50:23Z</time>
      </trkpt>
      <trkpt lat="19.09099" lon="98.86727">
        <time>2019-09-06T08:50:24Z</time>
      </trkpt>
      <trkpt lat="19.09087" lon="98.86709">
        <time>2019-09-06T08:50:25Z</time>
      </trkpt>
      <trkpt lat="19.09074" lon="98.86691">
        <time>2019-09-06T08:50:26Z</time>
      </trkpt>
      <trkpt lat="19.09061" lon="98.86672">
        <time>2019-09-06T08:50:27Z</time>
      </trkpt>
      <trkpt lat="19.0905" lon="98.86654">
        <time>2019-09-06T08:50:28Z</time>
      </trkpt>
      <trkpt lat="19.09038" lon="98.86636">
        <time>2019-09-06T08:50:29Z</time>
      </trkpt>
      <trkpt lat="19.09028" lon="98.86621">
        <time>2019-09-06T08:50:30Z</time>
      </trkpt>
      <trkpt lat="19.09017" lon="98.86604">
        <time>2019-09-06T08:50:31Z</time>
      </trkpt>
      <trkpt lat="19.09007" lon="98.86589">
        <time>2019-09-06T08:50:32Z</time>
      </trkpt>
      <trkpt lat="19.09" lon="98.86574">
        <time>2019-09-06T08:50:33Z</time>
      </trkpt>
      <trkpt lat="19.08996" lon="98.8656">
        <time>2019-09-06T08:50:34Z</time>
      </trkpt>
      <trkpt lat="19.08993" lon="98.86545">
        <time>2019-09-06T08:50:35Z</time>
      </trkpt>
      <trkpt lat="19.08994" lon="98.8653">
        <time>2019-09-06T08:50:36Z</time>
      </trkpt>
      <trkpt lat="19.08996" lon="98.86514">
        <time>2019-09-06T08:50:37Z</time>
      </trkpt>
      <trkpt lat="19.09" lon="98.86501">
        <time>2019-09-06T08:50:38Z</time>
      </trkpt>
      <trkpt lat="19.09015" lon="98.86493">
        <time>2019-09-06T08:50:39Z</time>
      </trkpt>
      <trkpt lat="19.09029" lon="98.86485">
        <time>2019-09-06T08:50:40Z</time>
      </trkpt>
      <trkpt lat="19.09042" lon="98.86477">
        <time>2019-09-06T08:50:41Z</time>
      </trkpt>
      <trkpt lat="19.09056" lon="98.8647">
        <time>2019-09-06T08:50:42Z</time>
      </trkpt>
      <trkpt lat="19.09067" lon="98.8646">
        <time>2019-09-06T08:50:43Z</time>
      </trkpt>
      <trkpt lat="19.0908" lon="98.8645">
        <time>2019-09-06T08:50:44Z</time>
      </trkpt>
      <trkpt lat="19.0909" lon="98.86438">
        <time>2019-09-06T08:50:45Z</time>
      </trkpt>
      <trkpt lat="19.09099" lon="98.86424">
        <time>2019-09-06T08:50:46Z</time>
      </trkpt>
      <trkpt lat="19.09108" lon="98.86409">
        <time>2019-09-06T08:50:47Z</time>
      </trkpt>
      <trkpt lat="19.09115" lon="98.86395">
        <time>2019-09-06T08:50:48Z</time>
      </trkpt>
      <trkpt lat="19.09123" lon="98.8638">
        <time>2019-09-06T08:50:49Z</time>
      </trkpt>
      <trkpt lat="19.09131" lon="98.86363">
        <time>2019-09-06T08:50:50Z</time>
      </trkpt>
      <trkpt lat="19.09141" lon="98.86345">
        <time>2019-09-06T08:50:51Z</time>
      </trkpt>
      <trkpt lat="19.0915" lon="98.86327">
        <time>2019-09-06T08:50:52Z</time>
      </trkpt>
      <trkpt lat="19.09157" lon="98.8631">
        <time>2019-09-06T08:50:53Z</time>
      </trkpt>
      <trkpt lat="19.09166" lon="98.86293">
        <time>2019-09-06T08:50:54Z</time>
      </trkpt>
      <trkpt lat="19.09177" lon="98.86277">
        <time>2019-09-06T08:50:55Z</time>
      </trkpt>
      <trkpt lat="19.09185" lon="98.86263">
        <time>2019-09-06T08:50:56Z</time>
      </trkpt>
      <trkpt lat="19.09195" lon="98.86248">
        <time>2019-09-06T08:50:57Z</time>
      </trkpt>
      <trkpt lat="19.09207" lon="98.86234">
        <time>2019-09-06T08:50:58Z</time>
      </trkpt>
      <trkpt lat="19.09218" lon="98.8622">
        <time>2019-09-06T08:50:59Z</time>
      </trkpt>
      <trkpt lat="19.09227" lon="98.86205">
        <time>2019-09-06T08:51:00Z</time>
      </trkpt>
      <trkpt lat="19.09236" lon="98.8619">
        <time>2019-09-06T08:51:01Z</time>
      </trkpt>
      <trkpt lat="19.09242" lon="98.86172">
        <time>2019-09-06T08:51:02Z</time>
      </trkpt>
      <trkpt lat="19.09247" lon="98.86153">
        <time>2019-09-06T08:51:03Z</time>
      </trkpt>
      <trkpt lat="19.09246" lon="98.86131">
        <time>2019-09-06T08:51:04Z</time>
      </trkpt>
      <trkpt lat="19.09247" lon="98.86109">
        <time>2019-09-06T08:51:05Z</time>
      </trkpt>
      <trkpt lat="19.09247" lon="98.86088">
        <time>2019-09-06T08:51:06Z</time>
      </trkpt>
      <trkpt lat="19.09248" lon="98.86067">
        <time>2019-09-06T08:51:07Z</time>
      </trkpt>
      <trkpt lat="19.09249" lon="98.86047">
        <time>2019-09-06T08:51:08Z</time>
      </trkpt>
      <trkpt lat="19.0925" lon="98.86027">
        <time>2019-09-06T08:51:09Z</time>
      </trkpt>
      <trkpt lat="19.09251" lon="98.86007">
        <time>2019-09-06T08:51:10Z</time>
      </trkpt>
      <trkpt lat="19.09251" lon="98.85986">
        <time>2019-09-06T08:51:11Z</time>
      </trkpt>
      <trkpt lat="19.09252" lon="98.85965">
        <time>2019-09-06T08:51:12Z</time>
      </trkpt>
      <trkpt lat="19.09253" lon="98.85944">
        <time>2019-09-06T08:51:13Z</time>
      </trkpt>
      <trkpt lat="19.09254" lon="98.85923">
        <time>2019-09-06T08:51:14Z</time>
      </trkpt>
      <trkpt lat="19.09253" lon="98.85903">
        <time>2019-09-06T08:51:15Z</time>
      </trkpt>
      <trkpt lat="19.09254" lon="98.85883">
        <time>2019-09-06T08:51:16Z</time>
      </trkpt>
      <trkpt lat="19.09254" lon="98.85864">
        <time>2019-09-06T08:51:17Z</time>
      </trkpt>
      <trkpt lat="19.09255" lon="98.85844">
        <time>2019-09-06T08:51:18Z</time>
      </trkpt>
      <trkpt lat="19.09255" lon="98.85825">
        <time>2019-09-06T08:51:19Z</time>
      </trkpt>
      <trkpt lat="19.09256" lon="98.85807">
        <time>2019-09-06T08:51:20Z</time>
      </trkpt>
      <trkpt lat="19.09258" lon="98.8579">
        <time>2019-09-06T08:51:21Z</time>
      </trkpt>
      <trkpt lat="19.09265" lon="98.85773">
        <time>2019-09-06T08:51:22Z</time>
      </trkpt>
      <trkpt lat="19.09274" lon="98.85757">
        <time>2019-09-06T08:51:23Z</time>
      </trkpt>
      <trkpt lat="19.09283" lon="98.85742">
        <time>2019-09-06T08:51:24Z</time>
      </trkpt>
      <trkpt lat="19.09294" lon="98.85729">
        <time>2019-09-06T08:51:25Z</time>
      </trkpt>
      <trkpt lat="19.09305" lon="98.85718">
        <time>2019-09-06T08:51:26Z</time>
      </trkpt>
      <trkpt lat="19.09318" lon="98.85706">
        <time>2019-09-06T08:51:27Z</time>
      </trkpt>
      <trkpt lat="19.09332" lon="98.85693">
        <time>2019-09-06T08:51:28Z</time>
      </trkpt>
      <trkpt lat="19.09344" lon="98.85679">
        <time>2019-09-06T08:51:29Z</time>
      </trkpt>
      <trkpt lat="19.09353" lon="98.85665">
        <time>2019-09-06T08:51:30Z</time>
      </trkpt>
      <trkpt lat="19.09363" lon="98.85648">
        <time>2019-09-06T08:51:31Z</time>
      </trkpt>
      <trkpt lat="19.0937" lon="98.85631">
        <time>2019-09-06T08:51:32Z</time>
      </trkpt>
      <trkpt lat="19.09377" lon="98.85615">
        <time>2019-09-06T08:51:33Z</time>
      </trkpt>
      <trkpt lat="19.09381" lon="98.85598">
        <time>2019-09-06T08:51:34Z</time>
      </trkpt>
      <trkpt lat="19.09387" lon="98.85582">
        <time>2019-09-06T08:51:35Z</time>
      </trkpt>
      <trkpt lat="19.09392" lon="98.85565">
        <time>2019-09-06T08:51:36Z</time>
      </trkpt>
      <trkpt lat="19.09397" lon="98.85548">
        <time>2019-09-06T08:51:37Z</time>
      </trkpt>
      <trkpt lat="19.09402" lon="98.85531">
        <time>2019-09-06T08:51:38Z</time>
      </trkpt>
      <trkpt lat="19.09408" lon="98.85514">
        <time>2019-09-06T08:51:39Z</time>
      </trkpt>
      <trkpt lat="19.09415" lon="98.85496">
        <time>2019-09-06T08:51:40Z</time>
      </trkpt>
      <trkpt lat="19.09422" lon="98.85476">
        <time>2019-09-06T08:51:41Z</time>
      </trkpt>
      <trkpt lat="19.09428" lon="98.85456">
        <time>2019-09-06T08:51:42Z</time>
      </trkpt>
      <trkpt lat="19.09435" lon="98.85435">
        <time>2019-09-06T08:51:43Z</time>
      </trkpt>
      <trkpt lat="19.09442" lon="98.85413">
        <time>2019-09-06T08:51:44Z</time>
      </trkpt>
      <trkpt lat="19.09447" lon="98.85392">
        <time>2019-09-06T08:51:45Z</time>
      </trkpt>
      <trkpt lat="19.0945" lon="98.85372">
        <time>2019-09-06T08:51:46Z</time>
      </trkpt>
      <trkpt lat="19.09455" lon="98.85352">
        <time>2019-09-06T08:51:47Z</time>
      </trkpt>
      <trkpt lat="19.09459" lon="98.85333">
        <time>2019-09-06T08:51:48Z</time>
      </trkpt>
      <trkpt lat="19.09462" lon="98.85315">
        <time>2019-09-06T08:51:49Z</time>
      </trkpt>
      <trkpt lat="19.09466" lon="98.85296">
        <time>2019-09-06T08:51:50Z</time>
      </trkpt>
      <trkpt lat="19.09468" lon="98.85278">
        <time>2019-09-06T08:51:51Z</time>
      </trkpt>
      <trkpt lat="19.09471" lon="98.85261">
        <time>2019-09-06T08:51:52Z</time>
      </trkpt>
      <trkpt lat="19.09474" lon="98.85243">
        <time>2019-09-06T08:51:53Z</time>
      </trkpt>
      <trkpt lat="19.09477" lon="98.85225">
        <time>2019-09-06T08:51:54Z</time>
      </trkpt>
      <trkpt lat="19.0948" lon="98.85208">
        <time>2019-09-06T08:51:55Z</time>
      </trkpt>
      <trkpt lat="19.09484" lon="98.85191">
        <time>2019-09-06T08:51:56Z</time>
      </trkpt>
      <trkpt lat="19.09485" lon="98.85173">
        <time>2019-09-06T08:51:57Z</time>
      </trkpt>
      <trkpt lat="19.09487" lon="98.85156">
        <time>2019-09-06T08:51:58Z</time>
      </trkpt>
      <trkpt lat="19.09488" lon="98.85139">
        <time>2019-09-06T08:51:59Z</time>
      </trkpt>
      <trkpt lat="19.09487" lon="98.85122">
        <time>2019-09-06T08:52:00Z</time>
      </trkpt>
      <trkpt lat="19.09484" lon="98.85104">
        <time>2019-09-06T08:52:01Z</time>
      </trkpt>
      <trkpt lat="19.09482" lon="98.85087">
        <time>2019-09-06T08:52:02Z</time>
      </trkpt>
      <trkpt lat="19.09478" lon="98.85071">
        <time>2019-09-06T08:52:03Z</time>
      </trkpt>
      <trkpt lat="19.09475" lon="98.85056">
        <time>2019-09-06T08:52:04Z</time>
      </trkpt>
      <trkpt lat="19.09473" lon="98.85043">
        <time>2019-09-06T08:52:05Z</time>
      </trkpt>
      <trkpt lat="19.09472" lon="98.85028">
        <time>2019-09-06T08:52:06Z</time>
      </trkpt>
      <trkpt lat="19.09471" lon="98.85015">
        <time>2019-09-06T08:52:07Z</time>
      </trkpt>
      <trkpt lat="19.09474" lon="98.85001">
        <time>2019-09-06T08:52:08Z</time>
      </trkpt>
      <trkpt lat="19.09479" lon="98.84987">
        <time>2019-09-06T08:52:09Z</time>
      </trkpt>
      <trkpt lat="19.09487" lon="98.84974">
        <time>2019-09-06T08:52:10Z</time>
      </trkpt>
      <trkpt lat="19.09496" lon="98.84961">
        <time>2019-09-06T08:52:11Z</time>
      </trkpt>
      <trkpt lat="19.09505" lon="98.84948">
        <time>2019-09-06T08:52:12Z</time>
      </trkpt>
      <trkpt lat="19.09514" lon="98.84935">
        <time>2019-09-06T08:52:13Z</time>
      </trkpt>
      <trkpt lat="19.09522" lon="98.84922">
        <time>2019-09-06T08:52:14Z</time>
      </trkpt>
      <trkpt lat="19.09531" lon="98.84909">
        <time>2019-09-06T08:52:15Z</time>
      </trkpt>
      <trkpt lat="19.09539" lon="98.84897">
        <time>2019-09-06T08:52:16Z</time>
      </trkpt>
      <trkpt lat="19.09547" lon="98.84885">
        <time>2019-09-06T08:52:17Z</time>
      </trkpt>
      <trkpt lat="19.09555" lon="98.84873">
        <time>2019-09-06T08:52:18Z</time>
      </trkpt>
      <trkpt lat="19.09563" lon="98.84861">
        <time>2019-09-06T08:52:19Z</time>
      </trkpt>
      <trkpt lat="19.0957" lon="98.84847">
        <time>2019-09-06T08:52:20Z</time>
      </trkpt>
      <trkpt lat="19.09578" lon="98.84835">
        <time>2019-09-06T08:52:21Z</time>
      </trkpt>
      <trkpt lat="19.09586" lon="98.84823">
        <time>2019-09-06T08:52:22Z</time>
      </trkpt>
      <trkpt lat="19.09594" lon="98.84811">
        <time>2019-09-06T08:52:23Z</time>
      </trkpt>
      <trkpt lat="19.09602" lon="98.848">
        <time>2019-09-06T08:52:24Z</time>
      </trkpt>
      <trkpt lat="19.0961" lon="98.84789">
        <time>2019-09-06T08:52:25Z</time>
      </trkpt>
      <trkpt lat="19.09617" lon="98.8478">
        <time>2019-09-06T08:52:26Z</time>
      </trkpt>
      <trkpt lat="19.09624" lon="98.84771">
        <time>2019-09-06T08:52:27Z</time>
      </trkpt>
      <trkpt lat="19.09629" lon="98.84764">
        <time>2019-09-06T08:52:28Z</time>
      </trkpt>
      <trkpt lat="19.09635" lon="98.84757">
        <time>2019-09-06T08:52:29Z</time>
      </trkpt>
      <trkpt lat="19.09639" lon="98.84751">
        <time>2019-09-06T08:52:30Z</time>
      </trkpt>
      <trkpt lat="19.09641" lon="98.84746">
        <time>2019-09-06T08:52:31Z</time>
      </trkpt>
      <trkpt lat="19.09639" lon="98.84741">
        <time>2019-09-06T08:52:32Z</time>
      </trkpt>
      <trkpt lat="19.09634" lon="98.84737">
        <time>2019-09-06T08:52:33Z</time>
      </trkpt>
      <trkpt lat="19.09628" lon="98.84731">
        <time>2019-09-06T08:52:34Z</time>
      </trkpt>
      <trkpt lat="19.09622" lon="98.84724">
        <time>2019-09-06T08:52:35Z</time>
      </trkpt>
      <trkpt lat="19.09614" lon="98.84716">
        <time>2019-09-06T08:52:36Z</time>
      </trkpt>
      <trkpt lat="19.09606" lon="98.84707">
        <time>2019-09-06T08:52:37Z</time>
      </trkpt>
      <trkpt lat="19.09597" lon="98.84701">
        <time>2019-09-06T08:52:38Z</time>
      </trkpt>
      <trkpt lat="19.09587" lon="98.84696">
        <time>2019-09-06T08:52:39Z</time>
      </trkpt>
      <trkpt lat="19.09577" lon="98.84693">
        <time>2019-09-06T08:52:40Z</time>
      </trkpt>
      <trkpt lat="19.09566" lon="98.84693">
        <time>2019-09-06T08:52:41Z</time>
      </trkpt>
      <trkpt lat="19.09555" lon="98.84696">
        <time>2019-09-06T08:52:42Z</time>
      </trkpt>
      <trkpt lat="19.09545" lon="98.84702">
        <time>2019-09-06T08:52:43Z</time>
      </trkpt>
      <trkpt lat="19.09535" lon="98.84708">
        <time>2019-09-06T08:52:44Z</time>
      </trkpt>
      <trkpt lat="19.09524" lon="98.84714">
        <time>2019-09-06T08:52:45Z</time>
      </trkpt>
      <trkpt lat="19.09512" lon="98.84721">
        <time>2019-09-06T08:52:46Z</time>
      </trkpt>
      <trkpt lat="19.09504" lon="98.8473">
        <time>2019-09-06T08:52:47Z</time>
      </trkpt>
      <trkpt lat="19.09493" lon="98.84735">
        <time>2019-09-06T08:52:48Z</time>
      </trkpt>
      <trkpt lat="19.09479" lon="98.84745">
        <time>2019-09-06T08:52:49Z</time>
      </trkpt>
      <trkpt lat="19.09467" lon="98.84754">
        <time>2019-09-06T08:52:50Z</time>
      </trkpt>
      <trkpt lat="19.09456" lon="98.84761">
        <time>2019-09-06T08:52:51Z</time>
      </trkpt>
      <trkpt lat="19.09444" lon="98.84766">
        <time>2019-09-06T08:52:52Z</time>
      </trkpt>
      <trkpt lat="19.09431" lon="98.84772">
        <time>2019-09-06T08:52:53Z</time>
      </trkpt>
      <trkpt lat="19.0942" lon="98.84776">
        <time>2019-09-06T08:52:54Z</time>
      </trkpt>
      <trkpt lat="19.09408" lon="98.84782">
        <time>2019-09-06T08:52:55Z</time>
      </trkpt>
      <trkpt lat="19.09393" lon="98.84785">
        <time>2019-09-06T08:52:56Z</time>
      </trkpt>
      <trkpt lat="19.09375" lon="98.84785">
        <time>2019-09-06T08:52:57Z</time>
      </trkpt>
      <trkpt lat="19.09359" lon="98.84787">
        <time>2019-09-06T08:52:58Z</time>
      </trkpt>
      <trkpt lat="19.09346" lon="98.84786">
        <time>2019-09-06T08:52:59Z</time>
      </trkpt>
      <trkpt lat="19.09331" lon="98.84788">
        <time>2019-09-06T08:53:00Z</time>
      </trkpt>
      <trkpt lat="19.09322" lon="98.84786">
        <time>2019-09-06T08:53:01Z</time>
      </trkpt>
      <trkpt lat="19.09314" lon="98.84785">
        <time>2019-09-06T08:53:02Z</time>
      </trkpt>
      <trkpt lat="19.09306" lon="98.84782">
        <time>2019-09-06T08:53:03Z</time>
      </trkpt>
      <trkpt lat="19.09299" lon="98.84778">
        <time>2019-09-06T08:53:04Z</time>
      </trkpt>
      <trkpt lat="19.09293" lon="98.84765">
        <time>2019-09-06T08:53:05Z</time>
      </trkpt>
      <trkpt lat="19.09291" lon="98.8475">
        <time>2019-09-06T08:53:06Z</time>
      </trkpt>
      <trkpt lat="19.09287" lon="98.8474">
        <time>2019-09-06T08:53:07Z</time>
      </trkpt>
      <trkpt lat="19.09283" lon="98.84734">
        <time>2019-09-06T08:53:08Z</time>
      </trkpt>
      <trkpt lat="19.0928" lon="98.84727">
        <time>2019-09-06T08:53:09Z</time>
      </trkpt>
      <trkpt lat="19.09275" lon="98.84723">
        <time>2019-09-06T08:53:10Z</time>
      </trkpt>
      <trkpt lat="19.09269" lon="98.84722">
        <time>2019-09-06T08:53:11Z</time>
      </trkpt>
      <trkpt lat="19.09261" lon="98.8472">
        <time>2019-09-06T08:53:12Z</time>
      </trkpt>
      <trkpt lat="19.09248" lon="98.84726">
        <time>2019-09-06T08:53:13Z</time>
      </trkpt>
      <trkpt lat="19.09237" lon="98.84729">
        <time>2019-09-06T08:53:14Z</time>
      </trkpt>
      <trkpt lat="19.09225" lon="98.84729">
        <time>2019-09-06T08:53:15Z</time>
      </trkpt>
      <trkpt lat="19.09216" lon="98.84731">
        <time>2019-09-06T08:53:16Z</time>
      </trkpt>
      <trkpt lat="19.09205" lon="98.84734">
        <time>2019-09-06T08:53:17Z</time>
      </trkpt>
      <trkpt lat="19.09195" lon="98.84735">
        <time>2019-09-06T08:53:18Z</time>
      </trkpt>
      <trkpt lat="19.09184" lon="98.84739">
        <time>2019-09-06T08:53:19Z</time>
      </trkpt>
      <trkpt lat="19.09174" lon="98.84746">
        <time>2019-09-06T08:53:20Z</time>
      </trkpt>
      <trkpt lat="19.09162" lon="98.84758">
        <time>2019-09-06T08:53:21Z</time>
      </trkpt>
      <trkpt lat="19.09149" lon="98.8477">
        <time>2019-09-06T08:53:23Z</time>
      </trkpt>
      <trkpt lat="19.09133" lon="98.84793">
        <time>2019-09-06T08:53:23Z</time>
      </trkpt>
      <trkpt lat="19.09119" lon="98.84809">
        <time>2019-09-06T08:53:24Z</time>
      </trkpt>
      <trkpt lat="19.09106" lon="98.84824">
        <time>2019-09-06T08:53:25Z</time>
      </trkpt>
      <trkpt lat="19.09095" lon="98.84835">
        <time>2019-09-06T08:53:26Z</time>
      </trkpt>
      <trkpt lat="19.09084" lon="98.8485">
        <time>2019-09-06T08:53:27Z</time>
      </trkpt>
      <trkpt lat="19.09072" lon="98.84862">
        <time>2019-09-06T08:53:28Z</time>
      </trkpt>
      <trkpt lat="19.09061" lon="98.84874">
        <time>2019-09-06T08:53:29Z</time>
      </trkpt>
      <trkpt lat="19.09047" lon="98.84883">
        <time>2019-09-06T08:53:30Z</time>
      </trkpt>
      <trkpt lat="19.09031" lon="98.84893">
        <time>2019-09-06T08:53:31Z</time>
      </trkpt>
      <trkpt lat="19.09019" lon="98.84901">
        <time>2019-09-06T08:53:32Z</time>
      </trkpt>
      <trkpt lat="19.09003" lon="98.84899">
        <time>2019-09-06T08:53:33Z</time>
      </trkpt>
      <trkpt lat="19.08973" lon="98.84904">
        <time>2019-09-06T08:53:34Z</time>
      </trkpt>
      <trkpt lat="19.08958" lon="98.84914">
        <time>2019-09-06T08:53:35Z</time>
      </trkpt>
      <trkpt lat="19.08942" lon="98.84926">
        <time>2019-09-06T08:53:36Z</time>
      </trkpt>
      <trkpt lat="19.08926" lon="98.84937">
        <time>2019-09-06T08:53:37Z</time>
      </trkpt>
      <trkpt lat="19.08909" lon="98.84949">
        <time>2019-09-06T08:53:38Z</time>
      </trkpt>
      <trkpt lat="19.08896" lon="98.84961">
        <time>2019-09-06T08:53:39Z</time>
      </trkpt>
      <trkpt lat="19.08884" lon="98.84973">
        <time>2019-09-06T08:53:40Z</time>
      </trkpt>
      <trkpt lat="19.08872" lon="98.84984">
        <time>2019-09-06T08:53:41Z</time>
      </trkpt>
      <trkpt lat="19.08862" lon="98.84993">
        <time>2019-09-06T08:53:42Z</time>
      </trkpt>
      <trkpt lat="19.08851" lon="98.85003">
        <time>2019-09-06T08:53:43Z</time>
      </trkpt>
      <trkpt lat="19.08839" lon="98.85013">
        <time>2019-09-06T08:53:44Z</time>
      </trkpt>
      <trkpt lat="19.08826" lon="98.85022">
        <time>2019-09-06T08:53:45Z</time>
      </trkpt>
      <trkpt lat="19.08812" lon="98.8503">
        <time>2019-09-06T08:53:46Z</time>
      </trkpt>
      <trkpt lat="19.08797" lon="98.85036">
        <time>2019-09-06T08:53:47Z</time>
      </trkpt>
      <trkpt lat="19.08783" lon="98.85043">
        <time>2019-09-06T08:53:48Z</time>
      </trkpt>
      <trkpt lat="19.08769" lon="98.85051">
        <time>2019-09-06T08:53:49Z</time>
      </trkpt>
      <trkpt lat="19.08752" lon="98.85064">
        <time>2019-09-06T08:53:50Z</time>
      </trkpt>
      <trkpt lat="19.08738" lon="98.85076">
        <time>2019-09-06T08:53:51Z</time>
      </trkpt>
      <trkpt lat="19.08726" lon="98.85088">
        <time>2019-09-06T08:53:52Z</time>
      </trkpt>
      <trkpt lat="19.08713" lon="98.851">
        <time>2019-09-06T08:53:53Z</time>
      </trkpt>
      <trkpt lat="19.08702" lon="98.85111">
        <time>2019-09-06T08:53:54Z</time>
      </trkpt>
      <trkpt lat="19.08691" lon="98.85122">
        <time>2019-09-06T08:53:55Z</time>
      </trkpt>
      <trkpt lat="19.08679" lon="98.85133">
        <time>2019-09-06T08:53:56Z</time>
      </trkpt>
      <trkpt lat="19.08668" lon="98.85145">
        <time>2019-09-06T08:53:57Z</time>
      </trkpt>
      <trkpt lat="19.08659" lon="98.85158">
        <time>2019-09-06T08:53:58Z</time>
      </trkpt>
      <trkpt lat="19.08644" lon="98.85166">
        <time>2019-09-06T08:53:59Z</time>
      </trkpt>
      <trkpt lat="19.08631" lon="98.85176">
        <time>2019-09-06T08:54:00Z</time>
      </trkpt>
      <trkpt lat="19.08622" lon="98.85184">
        <time>2019-09-06T08:54:01Z</time>
      </trkpt>
      <trkpt lat="19.08611" lon="98.85191">
        <time>2019-09-06T08:54:02Z</time>
      </trkpt>
      <trkpt lat="19.08601" lon="98.85197">
        <time>2019-09-06T08:54:03Z</time>
      </trkpt>
      <trkpt lat="19.08593" lon="98.85204">
        <time>2019-09-06T08:54:04Z</time>
      </trkpt>
      <trkpt lat="19.08589" lon="98.85218">
        <time>2019-09-06T08:54:05Z</time>
      </trkpt>
      <trkpt lat="19.08584" lon="98.8523">
        <time>2019-09-06T08:54:06Z</time>
      </trkpt>
      <trkpt lat="19.08577" lon="98.85238">
        <time>2019-09-06T08:54:07Z</time>
      </trkpt>
      <trkpt lat="19.08572" lon="98.85247">
        <time>2019-09-06T08:54:08Z</time>
      </trkpt>
      <trkpt lat="19.08564" lon="98.85255">
        <time>2019-09-06T08:54:09Z</time>
      </trkpt>
      <trkpt lat="19.08557" lon="98.85259">
        <time>2019-09-06T08:54:10Z</time>
      </trkpt>
      <trkpt lat="19.08546" lon="98.85263">
        <time>2019-09-06T08:54:11Z</time>
      </trkpt>
      <trkpt lat="19.08529" lon="98.8527">
        <time>2019-09-06T08:54:12Z</time>
      </trkpt>
      <trkpt lat="19.08513" lon="98.85276">
        <time>2019-09-06T08:54:13Z</time>
      </trkpt>
      <trkpt lat="19.08498" lon="98.85281">
        <time>2019-09-06T08:54:14Z</time>
      </trkpt>
      <trkpt lat="19.08486" lon="98.85287">
        <time>2019-09-06T08:54:15Z</time>
      </trkpt>
      <trkpt lat="19.08474" lon="98.85293">
        <time>2019-09-06T08:54:16Z</time>
      </trkpt>
      <trkpt lat="19.08461" lon="98.85298">
        <time>2019-09-06T08:54:17Z</time>
      </trkpt>
      <trkpt lat="19.08448" lon="98.85306">
        <time>2019-09-06T08:54:18Z</time>
      </trkpt>
      <trkpt lat="19.08433" lon="98.85312">
        <time>2019-09-06T08:54:19Z</time>
      </trkpt>
      <trkpt lat="19.08417" lon="98.8532">
        <time>2019-09-06T08:54:20Z</time>
      </trkpt>
      <trkpt lat="19.084" lon="98.85327">
        <time>2019-09-06T08:54:21Z</time>
      </trkpt>
      <trkpt lat="19.08381" lon="98.85333">
        <time>2019-09-06T08:54:22Z</time>
      </trkpt>
      <trkpt lat="19.08364" lon="98.85339">
        <time>2019-09-06T08:54:23Z</time>
      </trkpt>
      <trkpt lat="19.08348" lon="98.85345">
        <time>2019-09-06T08:54:24Z</time>
      </trkpt>
      <trkpt lat="19.08332" lon="98.85349">
        <time>2019-09-06T08:54:25Z</time>
      </trkpt>
      <trkpt lat="19.08319" lon="98.85353">
        <time>2019-09-06T08:54:26Z</time>
      </trkpt>
      <trkpt lat="19.08306" lon="98.85356">
        <time>2019-09-06T08:54:27Z</time>
      </trkpt>
      <trkpt lat="19.08293" lon="98.85357">
        <time>2019-09-06T08:54:28Z</time>
      </trkpt>
      <trkpt lat="19.08279" lon="98.85357">
        <time>2019-09-06T08:54:29Z</time>
      </trkpt>
      <trkpt lat="19.08267" lon="98.85359">
        <time>2019-09-06T08:54:30Z</time>
      </trkpt>
      <trkpt lat="19.08253" lon="98.85361">
        <time>2019-09-06T08:54:31Z</time>
      </trkpt>
      <trkpt lat="19.08245" lon="98.85364">
        <time>2019-09-06T08:54:32Z</time>
      </trkpt>
      <trkpt lat="19.08242" lon="98.85374">
        <time>2019-09-06T08:54:33Z</time>
      </trkpt>
      <trkpt lat="19.08237" lon="98.85382">
        <time>2019-09-06T08:54:34Z</time>
      </trkpt>
      <trkpt lat="19.08235" lon="98.85392">
        <time>2019-09-06T08:54:35Z</time>
      </trkpt>
      <trkpt lat="19.08233" lon="98.85405">
        <time>2019-09-06T08:54:36Z</time>
      </trkpt>
      <trkpt lat="19.0823" lon="98.85418">
        <time>2019-09-06T08:54:37Z</time>
      </trkpt>
      <trkpt lat="19.08221" lon="98.85431">
        <time>2019-09-06T08:54:38Z</time>
      </trkpt>
      <trkpt lat="19.08213" lon="98.85442">
        <time>2019-09-06T08:54:39Z</time>
      </trkpt>
      <trkpt lat="19.08205" lon="98.85453">
        <time>2019-09-06T08:54:40Z</time>
      </trkpt>
      <trkpt lat="19.08196" lon="98.8546">
        <time>2019-09-06T08:54:41Z</time>
      </trkpt>
      <trkpt lat="19.08184" lon="98.85467">
        <time>2019-09-06T08:54:42Z</time>
      </trkpt>
      <trkpt lat="19.08173" lon="98.8547">
        <time>2019-09-06T08:54:43Z</time>
      </trkpt>
      <trkpt lat="19.08152" lon="98.85468">
        <time>2019-09-06T08:54:44Z</time>
      </trkpt>
      <trkpt lat="19.08136" lon="98.85471">
        <time>2019-09-06T08:54:45Z</time>
      </trkpt>
      <trkpt lat="19.0812" lon="98.85475">
        <time>2019-09-06T08:54:46Z</time>
      </trkpt>
      <trkpt lat="19.08105" lon="98.85479">
        <time>2019-09-06T08:54:47Z</time>
      </trkpt>
      <trkpt lat="19.0809" lon="98.85483">
        <time>2019-09-06T08:54:48Z</time>
      </trkpt>
      <trkpt lat="19.08073" lon="98.85487">
        <time>2019-09-06T08:54:49Z</time>
      </trkpt>
      <trkpt lat="19.08058" lon="98.85489">
        <time>2019-09-06T08:54:50Z</time>
      </trkpt>
      <trkpt lat="19.08041" lon="98.85491">
        <time>2019-09-06T08:54:51Z</time>
      </trkpt>
      <trkpt lat="19.08026" lon="98.85492">
        <time>2019-09-06T08:54:52Z</time>
      </trkpt>
      <trkpt lat="19.08008" lon="98.85488">
        <time>2019-09-06T08:54:53Z</time>
      </trkpt>
      <trkpt lat="19.07994" lon="98.85488">
        <time>2019-09-06T08:54:54Z</time>
      </trkpt>
      <trkpt lat="19.0798" lon="98.85487">
        <time>2019-09-06T08:54:55Z</time>
      </trkpt>
      <trkpt lat="19.07964" lon="98.85488">
        <time>2019-09-06T08:54:56Z</time>
      </trkpt>
      <trkpt lat="19.07949" lon="98.8549">
        <time>2019-09-06T08:54:57Z</time>
      </trkpt>
      <trkpt lat="19.07935" lon="98.85494">
        <time>2019-09-06T08:54:58Z</time>
      </trkpt>
      <trkpt lat="19.07916" lon="98.85499">
        <time>2019-09-06T08:54:59Z</time>
      </trkpt>
      <trkpt lat="19.07898" lon="98.85504">
        <time>2019-09-06T08:55:00Z</time>
      </trkpt>
      <trkpt lat="19.0788" lon="98.8551">
        <time>2019-09-06T08:55:01Z</time>
      </trkpt>
      <trkpt lat="19.07863" lon="98.85518">
        <time>2019-09-06T08:55:02Z</time>
      </trkpt>
      <trkpt lat="19.07846" lon="98.85524">
        <time>2019-09-06T08:55:03Z</time>
      </trkpt>
      <trkpt lat="19.0783" lon="98.85532">
        <time>2019-09-06T08:55:04Z</time>
      </trkpt>
      <trkpt lat="19.07813" lon="98.85539">
        <time>2019-09-06T08:55:05Z</time>
      </trkpt>
      <trkpt lat="19.07798" lon="98.85547">
        <time>2019-09-06T08:55:06Z</time>
      </trkpt>
      <trkpt lat="19.07783" lon="98.85554">
        <time>2019-09-06T08:55:07Z</time>
      </trkpt>
      <trkpt lat="19.07768" lon="98.8556">
        <time>2019-09-06T08:55:08Z</time>
      </trkpt>
      <trkpt lat="19.07755" lon="98.85568">
        <time>2019-09-06T08:55:09Z</time>
      </trkpt>
      <trkpt lat="19.07741" lon="98.85576">
        <time>2019-09-06T08:55:10Z</time>
      </trkpt>
      <trkpt lat="19.07725" lon="98.85585">
        <time>2019-09-06T08:55:11Z</time>
      </trkpt>
      <trkpt lat="19.07709" lon="98.85595">
        <time>2019-09-06T08:55:12Z</time>
      </trkpt>
      <trkpt lat="19.07694" lon="98.85607">
        <time>2019-09-06T08:55:13Z</time>
      </trkpt>
      <trkpt lat="19.07676" lon="98.85617">
        <time>2019-09-06T08:55:14Z</time>
      </trkpt>
      <trkpt lat="19.0766" lon="98.85628">
        <time>2019-09-06T08:55:15Z</time>
      </trkpt>
      <trkpt lat="19.07643" lon="98.8564">
        <time>2019-09-06T08:55:16Z</time>
      </trkpt>
      <trkpt lat="19.07627" lon="98.85651">
        <time>2019-09-06T08:55:17Z</time>
      </trkpt>
      <trkpt lat="19.07608" lon="98.8566">
        <time>2019-09-06T08:55:18Z</time>
      </trkpt>
      <trkpt lat="19.0759" lon="98.8567">
        <time>2019-09-06T08:55:19Z</time>
      </trkpt>
      <trkpt lat="19.0757" lon="98.85679">
        <time>2019-09-06T08:55:20Z</time>
      </trkpt>
      <trkpt lat="19.07551" lon="98.85687">
        <time>2019-09-06T08:55:21Z</time>
      </trkpt>
      <trkpt lat="19.0753" lon="98.85694">
        <time>2019-09-06T08:55:22Z</time>
      </trkpt>
      <trkpt lat="19.0751" lon="98.85701">
        <time>2019-09-06T08:55:23Z</time>
      </trkpt>
      <trkpt lat="19.0749" lon="98.85708">
        <time>2019-09-06T08:55:24Z</time>
      </trkpt>
      <trkpt lat="19.07469" lon="98.85715">
        <time>2019-09-06T08:55:25Z</time>
      </trkpt>
      <trkpt lat="19.07449" lon="98.85722">
        <time>2019-09-06T08:55:26Z</time>
      </trkpt>
      <trkpt lat="19.07429" lon="98.85728">
        <time>2019-09-06T08:55:27Z</time>
      </trkpt>
      <trkpt lat="19.07409" lon="98.85736">
        <time>2019-09-06T08:55:28Z</time>
      </trkpt>
      <trkpt lat="19.0739" lon="98.85743">
        <time>2019-09-06T08:55:29Z</time>
      </trkpt>
      <trkpt lat="19.07371" lon="98.8575">
        <time>2019-09-06T08:55:30Z</time>
      </trkpt>
      <trkpt lat="19.07353" lon="98.85759">
        <time>2019-09-06T08:55:31Z</time>
      </trkpt>
      <trkpt lat="19.07335" lon="98.85767">
        <time>2019-09-06T08:55:32Z</time>
      </trkpt>
      <trkpt lat="19.07316" lon="98.85776">
        <time>2019-09-06T08:55:33Z</time>
      </trkpt>
      <trkpt lat="19.07298" lon="98.85784">
        <time>2019-09-06T08:55:34Z</time>
      </trkpt>
      <trkpt lat="19.0728" lon="98.85793">
        <time>2019-09-06T08:55:35Z</time>
      </trkpt>
      <trkpt lat="19.07262" lon="98.85802">
        <time>2019-09-06T08:55:36Z</time>
      </trkpt>
      <trkpt lat="19.07244" lon="98.85812">
        <time>2019-09-06T08:55:37Z</time>
      </trkpt>
      <trkpt lat="19.07226" lon="98.85823">
        <time>2019-09-06T08:55:38Z</time>
      </trkpt>
      <trkpt lat="19.07209" lon="98.85834">
        <time>2019-09-06T08:55:39Z</time>
      </trkpt>
      <trkpt lat="19.07192" lon="98.85844">
        <time>2019-09-06T08:55:40Z</time>
      </trkpt>
      <trkpt lat="19.07176" lon="98.85855">
        <time>2019-09-06T08:55:41Z</time>
      </trkpt>
      <trkpt lat="19.07163" lon="98.85868">
        <time>2019-09-06T08:55:42Z</time>
      </trkpt>
      <trkpt lat="19.07151" lon="98.85879">
        <time>2019-09-06T08:55:43Z</time>
      </trkpt>
      <trkpt lat="19.07139" lon="98.8589">
        <time>2019-09-06T08:55:44Z</time>
      </trkpt>
      <trkpt lat="19.07127" lon="98.859">
        <time>2019-09-06T08:55:45Z</time>
      </trkpt>
      <trkpt lat="19.07112" lon="98.85908">
        <time>2019-09-06T08:55:46Z</time>
      </trkpt>
      <trkpt lat="19.07096" lon="98.85916">
        <time>2019-09-06T08:55:47Z</time>
      </trkpt>
      <trkpt lat="19.07079" lon="98.85923">
        <time>2019-09-06T08:55:48Z</time>
      </trkpt>
      <trkpt lat="19.07064" lon="98.85929">
        <time>2019-09-06T08:55:49Z</time>
      </trkpt>
      <trkpt lat="19.07049" lon="98.85936">
        <time>2019-09-06T08:55:50Z</time>
      </trkpt>
      <trkpt lat="19.07036" lon="98.85943">
        <time>2019-09-06T08:55:51Z</time>
      </trkpt>
      <trkpt lat="19.07023" lon="98.85952">
        <time>2019-09-06T08:55:52Z</time>
      </trkpt>
      <trkpt lat="19.07011" lon="98.85962">
        <time>2019-09-06T08:55:53Z</time>
      </trkpt>
      <trkpt lat="19.07" lon="98.85974">
        <time>2019-09-06T08:55:54Z</time>
      </trkpt>
      <trkpt lat="19.06988" lon="98.85986">
        <time>2019-09-06T08:55:55Z</time>
      </trkpt>
      <trkpt lat="19.06975" lon="98.85998">
        <time>2019-09-06T08:55:56Z</time>
      </trkpt>
      <trkpt lat="19.06961" lon="98.8601">
        <time>2019-09-06T08:55:57Z</time>
      </trkpt>
      <trkpt lat="19.06947" lon="98.86021">
        <time>2019-09-06T08:55:58Z</time>
      </trkpt>
      <trkpt lat="19.06932" lon="98.8603">
        <time>2019-09-06T08:55:59Z</time>
      </trkpt>
      <trkpt lat="19.06917" lon="98.8604">
        <time>2019-09-06T08:56:00Z</time>
      </trkpt>
      <trkpt lat="19.06899" lon="98.86053">
        <time>2019-09-06T08:56:01Z</time>
      </trkpt>
      <trkpt lat="19.06882" lon="98.86061">
        <time>2019-09-06T08:56:02Z</time>
      </trkpt>
      <trkpt lat="19.06863" lon="98.86071">
        <time>2019-09-06T08:56:03Z</time>
      </trkpt>
      <trkpt lat="19.06846" lon="98.86077">
        <time>2019-09-06T08:56:04Z</time>
      </trkpt>
      <trkpt lat="19.06831" lon="98.86087">
        <time>2019-09-06T08:56:05Z</time>
      </trkpt>
      <trkpt lat="19.06813" lon="98.86094">
        <time>2019-09-06T08:56:06Z</time>
      </trkpt>
      <trkpt lat="19.06796" lon="98.86101">
        <time>2019-09-06T08:56:07Z</time>
      </trkpt>
      <trkpt lat="19.06779" lon="98.86108">
        <time>2019-09-06T08:56:08Z</time>
      </trkpt>
      <trkpt lat="19.06761" lon="98.86115">
        <time>2019-09-06T08:56:09Z</time>
      </trkpt>
      <trkpt lat="19.06744" lon="98.86121">
        <time>2019-09-06T08:56:10Z</time>
      </trkpt>
      <trkpt lat="19.06726" lon="98.86127">
        <time>2019-09-06T08:56:11Z</time>
      </trkpt>
      <trkpt lat="19.06707" lon="98.86134">
        <time>2019-09-06T08:56:12Z</time>
      </trkpt>
      <trkpt lat="19.0669" lon="98.86142">
        <time>2019-09-06T08:56:13Z</time>
      </trkpt>
      <trkpt lat="19.06672" lon="98.8615">
        <time>2019-09-06T08:56:14Z</time>
      </trkpt>
      <trkpt lat="19.06655" lon="98.86161">
        <time>2019-09-06T08:56:15Z</time>
      </trkpt>
      <trkpt lat="19.06638" lon="98.86172">
        <time>2019-09-06T08:56:16Z</time>
      </trkpt>
      <trkpt lat="19.0662" lon="98.86181">
        <time>2019-09-06T08:56:17Z</time>
      </trkpt>
      <trkpt lat="19.06603" lon="98.86191">
        <time>2019-09-06T08:56:18Z</time>
      </trkpt>
      <trkpt lat="19.06586" lon="98.86201">
        <time>2019-09-06T08:56:19Z</time>
      </trkpt>
      <trkpt lat="19.06571" lon="98.8621">
        <time>2019-09-06T08:56:20Z</time>
      </trkpt>
      <trkpt lat="19.06556" lon="98.86218">
        <time>2019-09-06T08:56:21Z</time>
      </trkpt>
      <trkpt lat="19.06543" lon="98.86226">
        <time>2019-09-06T08:56:22Z</time>
      </trkpt>
      <trkpt lat="19.0653" lon="98.86232">
        <time>2019-09-06T08:56:23Z</time>
      </trkpt>
      <trkpt lat="19.06517" lon="98.86238">
        <time>2019-09-06T08:56:24Z</time>
      </trkpt>
      <trkpt lat="19.06501" lon="98.86242">
        <time>2019-09-06T08:56:25Z</time>
      </trkpt>
      <trkpt lat="19.06486" lon="98.86245">
        <time>2019-09-06T08:56:26Z</time>
      </trkpt>
      <trkpt lat="19.06467" lon="98.86242">
        <time>2019-09-06T08:56:27Z</time>
      </trkpt>
      <trkpt lat="19.06448" lon="98.86237">
        <time>2019-09-06T08:56:28Z</time>
      </trkpt>
      <trkpt lat="19.0643" lon="98.86234">
        <time>2019-09-06T08:56:29Z</time>
      </trkpt>
      <trkpt lat="19.06412" lon="98.86231">
        <time>2019-09-06T08:56:30Z</time>
      </trkpt>
      <trkpt lat="19.06394" lon="98.86227">
        <time>2019-09-06T08:56:31Z</time>
      </trkpt>
      <trkpt lat="19.06376" lon="98.86224">
        <time>2019-09-06T08:56:32Z</time>
      </trkpt>
      <trkpt lat="19.06358" lon="98.86221">
        <time>2019-09-06T08:56:33Z</time>
      </trkpt>
      <trkpt lat="19.06342" lon="98.86218">
        <time>2019-09-06T08:56:34Z</time>
      </trkpt>
      <trkpt lat="19.06328" lon="98.86215">
        <time>2019-09-06T08:56:35Z</time>
      </trkpt>
      <trkpt lat="19.06314" lon="98.86212">
        <time>2019-09-06T08:56:36Z</time>
      </trkpt>
      <trkpt lat="19.06302" lon="98.86211">
        <time>2019-09-06T08:56:37Z</time>
      </trkpt>
      <trkpt lat="19.0629" lon="98.86208">
        <time>2019-09-06T08:56:38Z</time>
      </trkpt>
      <trkpt lat="19.06277" lon="98.86204">
        <time>2019-09-06T08:56:39Z</time>
      </trkpt>
      <trkpt lat="19.06265" lon="98.862">
        <time>2019-09-06T08:56:40Z</time>
      </trkpt>
      <trkpt lat="19.06251" lon="98.86194">
        <time>2019-09-06T08:56:41Z</time>
      </trkpt>
      <trkpt lat="19.06237" lon="98.86189">
        <time>2019-09-06T08:56:42Z</time>
      </trkpt>
      <trkpt lat="19.06221" lon="98.86183">
        <time>2019-09-06T08:56:43Z</time>
      </trkpt>
      <trkpt lat="19.06205" lon="98.86175">
        <time>2019-09-06T08:56:44Z</time>
      </trkpt>
      <trkpt lat="19.06189" lon="98.86169">
        <time>2019-09-06T08:56:45Z</time>
      </trkpt>
      <trkpt lat="19.06173" lon="98.86162">
        <time>2019-09-06T08:56:46Z</time>
      </trkpt>
      <trkpt lat="19.06157" lon="98.86155">
        <time>2019-09-06T08:56:47Z</time>
      </trkpt>
      <trkpt lat="19.0614" lon="98.86148">
        <time>2019-09-06T08:56:48Z</time>
      </trkpt>
      <trkpt lat="19.06124" lon="98.86144">
        <time>2019-09-06T08:56:49Z</time>
      </trkpt>
      <trkpt lat="19.06107" lon="98.86139">
        <time>2019-09-06T08:56:50Z</time>
      </trkpt>
      <trkpt lat="19.0609" lon="98.86134">
        <time>2019-09-06T08:56:51Z</time>
      </trkpt>
      <trkpt lat="19.06073" lon="98.86131">
        <time>2019-09-06T08:56:52Z</time>
      </trkpt>
      <trkpt lat="19.06057" lon="98.86128">
        <time>2019-09-06T08:56:53Z</time>
      </trkpt>
      <trkpt lat="19.0604" lon="98.86123">
        <time>2019-09-06T08:56:54Z</time>
      </trkpt>
      <trkpt lat="19.06022" lon="98.86118">
        <time>2019-09-06T08:56:55Z</time>
      </trkpt>
      <trkpt lat="19.06005" lon="98.86112">
        <time>2019-09-06T08:56:56Z</time>
      </trkpt>
      <trkpt lat="19.05988" lon="98.86104">
        <time>2019-09-06T08:56:57Z</time>
      </trkpt>
      <trkpt lat="19.05971" lon="98.86097">
        <time>2019-09-06T08:56:58Z</time>
      </trkpt>
      <trkpt lat="19.05954" lon="98.86091">
        <time>2019-09-06T08:56:59Z</time>
      </trkpt>
      <trkpt lat="19.05936" lon="98.86086">
        <time>2019-09-06T08:57:00Z</time>
      </trkpt>
      <trkpt lat="19.05918" lon="98.86081">
        <time>2019-09-06T08:57:01Z</time>
      </trkpt>
      <trkpt lat="19.05901" lon="98.86078">
        <time>2019-09-06T08:57:02Z</time>
      </trkpt>
      <trkpt lat="19.05886" lon="98.86078">
        <time>2019-09-06T08:57:03Z</time>
      </trkpt>
      <trkpt lat="19.0587" lon="98.86078">
        <time>2019-09-06T08:57:04Z</time>
      </trkpt>
      <trkpt lat="19.05853" lon="98.86079">
        <time>2019-09-06T08:57:05Z</time>
      </trkpt>
      <trkpt lat="19.05837" lon="98.86086">
        <time>2019-09-06T08:57:06Z</time>
      </trkpt>
      <trkpt lat="19.05819" lon="98.86092">
        <time>2019-09-06T08:57:07Z</time>
      </trkpt>
      <trkpt lat="19.05802" lon="98.86098">
        <time>2019-09-06T08:57:08Z</time>
      </trkpt>
      <trkpt lat="19.05785" lon="98.86103">
        <time>2019-09-06T08:57:09Z</time>
      </trkpt>
      <trkpt lat="19.05774" lon="98.8611">
        <time>2019-09-06T08:57:10Z</time>
      </trkpt>
      <trkpt lat="19.05758" lon="98.86114">
        <time>2019-09-06T08:57:11Z</time>
      </trkpt>
      <trkpt lat="19.05742" lon="98.86117">
        <time>2019-09-06T08:57:12Z</time>
      </trkpt>
      <trkpt lat="19.05726" lon="98.86119">
        <time>2019-09-06T08:57:13Z</time>
      </trkpt>
      <trkpt lat="19.05708" lon="98.86121">
        <time>2019-09-06T08:57:14Z</time>
      </trkpt>
      <trkpt lat="19.05686" lon="98.86125">
        <time>2019-09-06T08:57:15Z</time>
      </trkpt>
      <trkpt lat="19.05667" lon="98.86133">
        <time>2019-09-06T08:57:16Z</time>
      </trkpt>
      <trkpt lat="19.0565" lon="98.86144">
        <time>2019-09-06T08:57:17Z</time>
      </trkpt>
      <trkpt lat="19.05634" lon="98.86156">
        <time>2019-09-06T08:57:18Z</time>
      </trkpt>
      <trkpt lat="19.0562" lon="98.86168">
        <time>2019-09-06T08:57:19Z</time>
      </trkpt>
      <trkpt lat="19.05603" lon="98.86176">
        <time>2019-09-06T08:57:20Z</time>
      </trkpt>
      <trkpt lat="19.0559" lon="98.86184">
        <time>2019-09-06T08:57:21Z</time>
      </trkpt>
      <trkpt lat="19.05577" lon="98.86196">
        <time>2019-09-06T08:57:22Z</time>
      </trkpt>
      <trkpt lat="19.05564" lon="98.86208">
        <time>2019-09-06T08:57:23Z</time>
      </trkpt>
      <trkpt lat="19.05552" lon="98.86222">
        <time>2019-09-06T08:57:24Z</time>
      </trkpt>
      <trkpt lat="19.0554" lon="98.86235">
        <time>2019-09-06T08:57:25Z</time>
      </trkpt>
      <trkpt lat="19.05529" lon="98.86248">
        <time>2019-09-06T08:57:26Z</time>
      </trkpt>
      <trkpt lat="19.05517" lon="98.86259">
        <time>2019-09-06T08:57:27Z</time>
      </trkpt>
      <trkpt lat="19.05504" lon="98.86269">
        <time>2019-09-06T08:57:28Z</time>
      </trkpt>
      <trkpt lat="19.05492" lon="98.86279">
        <time>2019-09-06T08:57:29Z</time>
      </trkpt>
      <trkpt lat="19.05474" lon="98.86288">
        <time>2019-09-06T08:57:30Z</time>
      </trkpt>
      <trkpt lat="19.05459" lon="98.86297">
        <time>2019-09-06T08:57:31Z</time>
      </trkpt>
      <trkpt lat="19.05444" lon="98.86307">
        <time>2019-09-06T08:57:32Z</time>
      </trkpt>
      <trkpt lat="19.05429" lon="98.86315">
        <time>2019-09-06T08:57:33Z</time>
      </trkpt>
      <trkpt lat="19.05415" lon="98.86324">
        <time>2019-09-06T08:57:34Z</time>
      </trkpt>
      <trkpt lat="19.054" lon="98.86334">
        <time>2019-09-06T08:57:35Z</time>
      </trkpt>
      <trkpt lat="19.05389" lon="98.86346">
        <time>2019-09-06T08:57:36Z</time>
      </trkpt>
      <trkpt lat="19.05377" lon="98.8636">
        <time>2019-09-06T08:57:37Z</time>
      </trkpt>
      <trkpt lat="19.05365" lon="98.86372">
        <time>2019-09-06T08:57:38Z</time>
      </trkpt>
      <trkpt lat="19.05354" lon="98.86385">
        <time>2019-09-06T08:57:39Z</time>
      </trkpt>
      <trkpt lat="19.05343" lon="98.86397">
        <time>2019-09-06T08:57:40Z</time>
      </trkpt>
      <trkpt lat="19.05332" lon="98.86409">
        <time>2019-09-06T08:57:41Z</time>
      </trkpt>
      <trkpt lat="19.0532" lon="98.86419">
        <time>2019-09-06T08:57:42Z</time>
      </trkpt>
      <trkpt lat="19.05307" lon="98.86427">
        <time>2019-09-06T08:57:43Z</time>
      </trkpt>
      <trkpt lat="19.05295" lon="98.86436">
        <time>2019-09-06T08:57:44Z</time>
      </trkpt>
      <trkpt lat="19.05282" lon="98.86444">
        <time>2019-09-06T08:57:45Z</time>
      </trkpt>
      <trkpt lat="19.05268" lon="98.86454">
        <time>2019-09-06T08:57:46Z</time>
      </trkpt>
      <trkpt lat="19.05255" lon="98.86463">
        <time>2019-09-06T08:57:47Z</time>
      </trkpt>
      <trkpt lat="19.0524" lon="98.86472">
        <time>2019-09-06T08:57:48Z</time>
      </trkpt>
      <trkpt lat="19.05226" lon="98.86482">
        <time>2019-09-06T08:57:49Z</time>
      </trkpt>
      <trkpt lat="19.05213" lon="98.86492">
        <time>2019-09-06T08:57:50Z</time>
      </trkpt>
      <trkpt lat="19.05199" lon="98.86504">
        <time>2019-09-06T08:57:51Z</time>
      </trkpt>
      <trkpt lat="19.05185" lon="98.86514">
        <time>2019-09-06T08:57:52Z</time>
      </trkpt>
      <trkpt lat="19.0517" lon="98.86523">
        <time>2019-09-06T08:57:53Z</time>
      </trkpt>
      <trkpt lat="19.05158" lon="98.86532">
        <time>2019-09-06T08:57:54Z</time>
      </trkpt>
      <trkpt lat="19.05145" lon="98.86539">
        <time>2019-09-06T08:57:55Z</time>
      </trkpt>
      <trkpt lat="19.05133" lon="98.86545">
        <time>2019-09-06T08:57:56Z</time>
      </trkpt>
      <trkpt lat="19.05122" lon="98.86551">
        <time>2019-09-06T08:57:57Z</time>
      </trkpt>
      <trkpt lat="19.05112" lon="98.86555">
        <time>2019-09-06T08:57:58Z</time>
      </trkpt>
      <trkpt lat="19.05104" lon="98.86558">
        <time>2019-09-06T08:57:59Z</time>
      </trkpt>
      <trkpt lat="19.05096" lon="98.8656">
        <time>2019-09-06T08:58:00Z</time>
      </trkpt>
      <trkpt lat="19.05088" lon="98.86563">
        <time>2019-09-06T08:58:01Z</time>
      </trkpt>
      <trkpt lat="19.05078" lon="98.86565">
        <time>2019-09-06T08:58:02Z</time>
      </trkpt>
      <trkpt lat="19.05067" lon="98.8657">
        <time>2019-09-06T08:58:03Z</time>
      </trkpt>
      <trkpt lat="19.05052" lon="98.86577">
        <time>2019-09-06T08:58:04Z</time>
      </trkpt>
      <trkpt lat="19.05037" lon="98.86582">
        <time>2019-09-06T08:58:05Z</time>
      </trkpt>
      <trkpt lat="19.05021" lon="98.86587">
        <time>2019-09-06T08:58:06Z</time>
      </trkpt>
      <trkpt lat="19.05004" lon="98.8659">
        <time>2019-09-06T08:58:08Z</time>
      </trkpt>
      <trkpt lat="19.04987" lon="98.86594">
        <time>2019-09-06T08:58:08Z</time>
      </trkpt>
      <trkpt lat="19.04969" lon="98.86597">
        <time>2019-09-06T08:58:09Z</time>
      </trkpt>
      <trkpt lat="19.04952" lon="98.86601">
        <time>2019-09-06T08:58:10Z</time>
      </trkpt>
      <trkpt lat="19.04936" lon="98.86605">
        <time>2019-09-06T08:58:11Z</time>
      </trkpt>
      <trkpt lat="19.04919" lon="98.86609">
        <time>2019-09-06T08:58:12Z</time>
      </trkpt>
      <trkpt lat="19.04904" lon="98.86612">
        <time>2019-09-06T08:58:13Z</time>
      </trkpt>
      <trkpt lat="19.04889" lon="98.86615">
        <time>2019-09-06T08:58:14Z</time>
      </trkpt>
      <trkpt lat="19.04877" lon="98.86616">
        <time>2019-09-06T08:58:15Z</time>
      </trkpt>
      <trkpt lat="19.0487" lon="98.8662">
        <time>2019-09-06T08:58:16Z</time>
      </trkpt>
      <trkpt lat="19.04861" lon="98.86623">
        <time>2019-09-06T08:58:17Z</time>
      </trkpt>
      <trkpt lat="19.04849" lon="98.86625">
        <time>2019-09-06T08:58:18Z</time>
      </trkpt>
      <trkpt lat="19.04836" lon="98.86629">
        <time>2019-09-06T08:58:19Z</time>
      </trkpt>
      <trkpt lat="19.04822" lon="98.86635">
        <time>2019-09-06T08:58:20Z</time>
      </trkpt>
      <trkpt lat="19.04808" lon="98.8664">
        <time>2019-09-06T08:58:21Z</time>
      </trkpt>
      <trkpt lat="19.04793" lon="98.86644">
        <time>2019-09-06T08:58:22Z</time>
      </trkpt>
      <trkpt lat="19.0478" lon="98.86649">
        <time>2019-09-06T08:58:23Z</time>
      </trkpt>
      <trkpt lat="19.04764" lon="98.86657">
        <time>2019-09-06T08:58:24Z</time>
      </trkpt>
      <trkpt lat="19.04749" lon="98.86664">
        <time>2019-09-06T08:58:25Z</time>
      </trkpt>
      <trkpt lat="19.04733" lon="98.8667">
        <time>2019-09-06T08:58:26Z</time>
      </trkpt>
      <trkpt lat="19.04718" lon="98.86675">
        <time>2019-09-06T08:58:27Z</time>
      </trkpt>
      <trkpt lat="19.04704" lon="98.86681">
        <time>2019-09-06T08:58:28Z</time>
      </trkpt>
      <trkpt lat="19.04691" lon="98.86685">
        <time>2019-09-06T08:58:29Z</time>
      </trkpt>
      <trkpt lat="19.04676" lon="98.86689">
        <time>2019-09-06T08:58:30Z</time>
      </trkpt>
      <trkpt lat="19.04661" lon="98.8669">
        <time>2019-09-06T08:58:31Z</time>
      </trkpt>
      <trkpt lat="19.04647" lon="98.86692">
        <time>2019-09-06T08:58:32Z</time>
      </trkpt>
      <trkpt lat="19.04633" lon="98.86694">
        <time>2019-09-06T08:58:33Z</time>
      </trkpt>
      <trkpt lat="19.04618" lon="98.86695">
        <time>2019-09-06T08:58:34Z</time>
      </trkpt>
      <trkpt lat="19.04602" lon="98.86698">
        <time>2019-09-06T08:58:35Z</time>
      </trkpt>
      <trkpt lat="19.04587" lon="98.86701">
        <time>2019-09-06T08:58:36Z</time>
      </trkpt>
      <trkpt lat="19.04575" lon="98.86703">
        <time>2019-09-06T08:58:37Z</time>
      </trkpt>
      <trkpt lat="19.04561" lon="98.86705">
        <time>2019-09-06T08:58:38Z</time>
      </trkpt>
      <trkpt lat="19.0455" lon="98.86707">
        <time>2019-09-06T08:58:39Z</time>
      </trkpt>
      <trkpt lat="19.04537" lon="98.86709">
        <time>2019-09-06T08:58:40Z</time>
      </trkpt>
      <trkpt lat="19.04525" lon="98.86709">
        <time>2019-09-06T08:58:41Z</time>
      </trkpt>
      <trkpt lat="19.04519" lon="98.86714">
        <time>2019-09-06T08:58:42Z</time>
      </trkpt>
      <trkpt lat="19.04509" lon="98.86718">
        <time>2019-09-06T08:58:43Z</time>
      </trkpt>
      <trkpt lat="19.04502" lon="98.86723">
        <time>2019-09-06T08:58:44Z</time>
      </trkpt>
      <trkpt lat="19.04491" lon="98.86727">
        <time>2019-09-06T08:58:46Z</time>
      </trkpt>
      <trkpt lat="19.0449" lon="98.86735">
        <time>2019-09-06T08:58:46Z</time>
      </trkpt>
      <trkpt lat="19.04484" lon="98.86743">
        <time>2019-09-06T08:58:47Z</time>
      </trkpt>
      <trkpt lat="19.0448" lon="98.86748">
        <time>2019-09-06T08:58:48Z</time>
      </trkpt>
      <trkpt lat="19.04474" lon="98.86755">
        <time>2019-09-06T08:58:49Z</time>
      </trkpt>
      <trkpt lat="19.04469" lon="98.86761">
        <time>2019-09-06T08:58:50Z</time>
      </trkpt>
      <trkpt lat="19.04464" lon="98.86765">
        <time>2019-09-06T08:58:51Z</time>
      </trkpt>
      <trkpt lat="19.04455" lon="98.8677">
        <time>2019-09-06T08:58:52Z</time>
      </trkpt>
      <trkpt lat="19.04449" lon="98.86777">
        <time>2019-09-06T08:58:53Z</time>
      </trkpt>
      <trkpt lat="19.04442" lon="98.86787">
        <time>2019-09-06T08:58:54Z</time>
      </trkpt>
      <trkpt lat="19.04432" lon="98.86793">
        <time>2019-09-06T08:58:55Z</time>
      </trkpt>
      <trkpt lat="19.04418" lon="98.86797">
        <time>2019-09-06T08:58:56Z</time>
      </trkpt>
      <trkpt lat="19.04404" lon="98.868">
        <time>2019-09-06T08:58:57Z</time>
      </trkpt>
      <trkpt lat="19.04392" lon="98.86805">
        <time>2019-09-06T08:58:58Z</time>
      </trkpt>
      <trkpt lat="19.04381" lon="98.86812">
        <time>2019-09-06T08:58:59Z</time>
      </trkpt>
      <trkpt lat="19.04371" lon="98.86819">
        <time>2019-09-06T09:00:11Z</time>
      </trkpt>
      <trkpt lat="19.04361" lon="98.86825">
        <time>2019-09-06T09:00:11Z</time>
      </trkpt>
      <trkpt lat="19.03753" lon="98.87164">
        <time>2019-09-06T09:00:11Z</time>
      </trkpt>
      <trkpt lat="19.03739" lon="98.87167">
        <time>2019-09-06T09:00:12Z</time>
      </trkpt>
      <trkpt lat="19.03724" lon="98.87172">
        <time>2019-09-06T09:00:13Z</time>
      </trkpt>
      <trkpt lat="19.03709" lon="98.8718">
        <time>2019-09-06T09:00:14Z</time>
      </trkpt>
      <trkpt lat="19.03696" lon="98.87187">
        <time>2019-09-06T09:00:15Z</time>
      </trkpt>
      <trkpt lat="19.03684" lon="98.87195">
        <time>2019-09-06T09:00:16Z</time>
      </trkpt>
      <trkpt lat="19.03671" lon="98.87203">
        <time>2019-09-06T09:00:17Z</time>
      </trkpt>
      <trkpt lat="19.03658" lon="98.87208">
        <time>2019-09-06T09:00:18Z</time>
      </trkpt>
      <trkpt lat="19.03645" lon="98.87213">
        <time>2019-09-06T09:00:19Z</time>
      </trkpt>
      <trkpt lat="19.03634" lon="98.87218">
        <time>2019-09-06T09:00:20Z</time>
      </trkpt>
      <trkpt lat="19.03618" lon="98.87208">
        <time>2019-09-06T09:00:21Z</time>
      </trkpt>
      <trkpt lat="19.03603" lon="98.87205">
        <time>2019-09-06T09:00:22Z</time>
      </trkpt>
      <trkpt lat="19.03587" lon="98.872">
        <time>2019-09-06T09:00:23Z</time>
      </trkpt>
      <trkpt lat="19.03572" lon="98.87194">
        <time>2019-09-06T09:00:24Z</time>
      </trkpt>
      <trkpt lat="19.03555" lon="98.87187">
        <time>2019-09-06T09:00:25Z</time>
      </trkpt>
      <trkpt lat="19.0354" lon="98.8718">
        <time>2019-09-06T09:00:26Z</time>
      </trkpt>
      <trkpt lat="19.03526" lon="98.87173">
        <time>2019-09-06T09:00:27Z</time>
      </trkpt>
      <trkpt lat="19.03514" lon="98.87165">
        <time>2019-09-06T09:00:28Z</time>
      </trkpt>
      <trkpt lat="19.03501" lon="98.87158">
        <time>2019-09-06T09:00:29Z</time>
      </trkpt>
      <trkpt lat="19.0349" lon="98.87155">
        <time>2019-09-06T09:00:30Z</time>
      </trkpt>
      <trkpt lat="19.03477" lon="98.87152">
        <time>2019-09-06T09:00:31Z</time>
      </trkpt>
      <trkpt lat="19.03463" lon="98.8715">
        <time>2019-09-06T09:00:32Z</time>
      </trkpt>
      <trkpt lat="19.0345" lon="98.8715">
        <time>2019-09-06T09:00:33Z</time>
      </trkpt>
      <trkpt lat="19.03438" lon="98.8715">
        <time>2019-09-06T09:00:34Z</time>
      </trkpt>
      <trkpt lat="19.03426" lon="98.87148">
        <time>2019-09-06T09:00:35Z</time>
      </trkpt>
      <trkpt lat="19.03414" lon="98.87147">
        <time>2019-09-06T09:00:36Z</time>
      </trkpt>
      <trkpt lat="19.03403" lon="98.87149">
        <time>2019-09-06T09:00:37Z</time>
      </trkpt>
      <trkpt lat="19.03392" lon="98.87153">
        <time>2019-09-06T09:00:38Z</time>
      </trkpt>
      <trkpt lat="19.03381" lon="98.87158">
        <time>2019-09-06T09:00:39Z</time>
      </trkpt>
      <trkpt lat="19.0337" lon="98.87163">
        <time>2019-09-06T09:00:40Z</time>
      </trkpt>
      <trkpt lat="19.03357" lon="98.87174">
        <time>2019-09-06T09:00:41Z</time>
      </trkpt>
      <trkpt lat="19.03346" lon="98.87187">
        <time>2019-09-06T09:00:42Z</time>
      </trkpt>
      <trkpt lat="19.03335" lon="98.87202">
        <time>2019-09-06T09:00:43Z</time>
      </trkpt>
      <trkpt lat="19.03323" lon="98.87213">
        <time>2019-09-06T09:00:44Z</time>
      </trkpt>
      <trkpt lat="19.03309" lon="98.87224">
        <time>2019-09-06T09:00:45Z</time>
      </trkpt>
      <trkpt lat="19.03295" lon="98.87236">
        <time>2019-09-06T09:00:46Z</time>
      </trkpt>
      <trkpt lat="19.03281" lon="98.87247">
        <time>2019-09-06T09:00:47Z</time>
      </trkpt>
      <trkpt lat="19.03267" lon="98.87259">
        <time>2019-09-06T09:00:48Z</time>
      </trkpt>
      <trkpt lat="19.03252" lon="98.87269">
        <time>2019-09-06T09:00:49Z</time>
      </trkpt>
      <trkpt lat="19.03238" lon="98.87281">
        <time>2019-09-06T09:00:50Z</time>
      </trkpt>
      <trkpt lat="19.03224" lon="98.8729">
        <time>2019-09-06T09:00:51Z</time>
      </trkpt>
      <trkpt lat="19.03208" lon="98.87299">
        <time>2019-09-06T09:00:52Z</time>
      </trkpt>
      <trkpt lat="19.03191" lon="98.8731">
        <time>2019-09-06T09:00:53Z</time>
      </trkpt>
      <trkpt lat="19.03175" lon="98.87312">
        <time>2019-09-06T09:00:54Z</time>
      </trkpt>
      <trkpt lat="19.03164" lon="98.87317">
        <time>2019-09-06T09:00:55Z</time>
      </trkpt>
      <trkpt lat="19.03153" lon="98.87326">
        <time>2019-09-06T09:00:56Z</time>
      </trkpt>
      <trkpt lat="19.03143" lon="98.87335">
        <time>2019-09-06T09:00:57Z</time>
      </trkpt>
      <trkpt lat="19.03135" lon="98.87348">
        <time>2019-09-06T09:00:58Z</time>
      </trkpt>
      <trkpt lat="19.03127" lon="98.8736">
        <time>2019-09-06T09:00:59Z</time>
      </trkpt>
      <trkpt lat="19.0312" lon="98.87371">
        <time>2019-09-06T09:01:00Z</time>
      </trkpt>
      <trkpt lat="19.03112" lon="98.8738">
        <time>2019-09-06T09:01:01Z</time>
      </trkpt>
      <trkpt lat="19.03103" lon="98.87387">
        <time>2019-09-06T09:01:02Z</time>
      </trkpt>
      <trkpt lat="19.03091" lon="98.87395">
        <time>2019-09-06T09:01:03Z</time>
      </trkpt>
      <trkpt lat="19.03075" lon="98.87389">
        <time>2019-09-06T09:01:04Z</time>
      </trkpt>
      <trkpt lat="19.0306" lon="98.87388">
        <time>2019-09-06T09:01:05Z</time>
      </trkpt>
      <trkpt lat="19.03048" lon="98.87389">
        <time>2019-09-06T09:01:06Z</time>
      </trkpt>
      <trkpt lat="19.03036" lon="98.87385">
        <time>2019-09-06T09:01:07Z</time>
      </trkpt>
      <trkpt lat="19.03025" lon="98.87382">
        <time>2019-09-06T09:01:08Z</time>
      </trkpt>
      <trkpt lat="19.03015" lon="98.87375">
        <time>2019-09-06T09:01:09Z</time>
      </trkpt>
      <trkpt lat="19.03005" lon="98.87367">
        <time>2019-09-06T09:01:10Z</time>
      </trkpt>
      <trkpt lat="19.02995" lon="98.87366">
        <time>2019-09-06T09:01:11Z</time>
      </trkpt>
      <trkpt lat="19.02982" lon="98.87364">
        <time>2019-09-06T09:01:12Z</time>
      </trkpt>
      <trkpt lat="19.02968" lon="98.87361">
        <time>2019-09-06T09:01:13Z</time>
      </trkpt>
      <trkpt lat="19.02955" lon="98.87365">
        <time>2019-09-06T09:01:14Z</time>
      </trkpt>
      <trkpt lat="19.02942" lon="98.87368">
        <time>2019-09-06T09:01:15Z</time>
      </trkpt>
      <trkpt lat="19.0293" lon="98.87371">
        <time>2019-09-06T09:01:16Z</time>
      </trkpt>
      <trkpt lat="19.02922" lon="98.87374">
        <time>2019-09-06T09:01:17Z</time>
      </trkpt>
      <trkpt lat="19.02912" lon="98.87377">
        <time>2019-09-06T09:01:18Z</time>
      </trkpt>
      <trkpt lat="19.02904" lon="98.87381">
        <time>2019-09-06T09:01:19Z</time>
      </trkpt>
      <trkpt lat="19.02896" lon="98.87385">
        <time>2019-09-06T09:01:20Z</time>
      </trkpt>
      <trkpt lat="19.02888" lon="98.87391">
        <time>2019-09-06T09:01:21Z</time>
      </trkpt>
      <trkpt lat="19.02879" lon="98.87401">
        <time>2019-09-06T09:01:22Z</time>
      </trkpt>
      <trkpt lat="19.02869" lon="98.87412">
        <time>2019-09-06T09:01:23Z</time>
      </trkpt>
      <trkpt lat="19.0286" lon="98.87426">
        <time>2019-09-06T09:01:24Z</time>
      </trkpt>
      <trkpt lat="19.02849" lon="98.87442">
        <time>2019-09-06T09:01:25Z</time>
      </trkpt>
      <trkpt lat="19.02839" lon="98.87457">
        <time>2019-09-06T09:01:26Z</time>
      </trkpt>
      <trkpt lat="19.02831" lon="98.87473">
        <time>2019-09-06T09:01:27Z</time>
      </trkpt>
      <trkpt lat="19.02823" lon="98.87489">
        <time>2019-09-06T09:01:28Z</time>
      </trkpt>
      <trkpt lat="19.02815" lon="98.87503">
        <time>2019-09-06T09:01:29Z</time>
      </trkpt>
      <trkpt lat="19.02806" lon="98.87516">
        <time>2019-09-06T09:01:30Z</time>
      </trkpt>
      <trkpt lat="19.02798" lon="98.8753">
        <time>2019-09-06T09:01:31Z</time>
      </trkpt>
      <trkpt lat="19.02789" lon="98.87544">
        <time>2019-09-06T09:01:32Z</time>
      </trkpt>
      <trkpt lat="19.02776" lon="98.87554">
        <time>2019-09-06T09:01:33Z</time>
      </trkpt>
      <trkpt lat="19.02762" lon="98.87565">
        <time>2019-09-06T09:01:34Z</time>
      </trkpt>
      <trkpt lat="19.02749" lon="98.87574">
        <time>2019-09-06T09:01:35Z</time>
      </trkpt>
      <trkpt lat="19.02734" lon="98.8758">
        <time>2019-09-06T09:01:36Z</time>
      </trkpt>
      <trkpt lat="19.0272" lon="98.87586">
        <time>2019-09-06T09:01:37Z</time>
      </trkpt>
      <trkpt lat="19.02703" lon="98.87587">
        <time>2019-09-06T09:01:38Z</time>
      </trkpt>
      <trkpt lat="19.02688" lon="98.8759">
        <time>2019-09-06T09:01:39Z</time>
      </trkpt>
      <trkpt lat="19.02668" lon="98.8758">
        <time>2019-09-06T09:01:40Z</time>
      </trkpt>
      <trkpt lat="19.02652" lon="98.87579">
        <time>2019-09-06T09:01:41Z</time>
      </trkpt>
      <trkpt lat="19.02635" lon="98.87576">
        <time>2019-09-06T09:01:42Z</time>
      </trkpt>
      <trkpt lat="19.02619" lon="98.87574">
        <time>2019-09-06T09:01:43Z</time>
      </trkpt>
      <trkpt lat="19.02605" lon="98.87573">
        <time>2019-09-06T09:01:44Z</time>
      </trkpt>
      <trkpt lat="19.02591" lon="98.87571">
        <time>2019-09-06T09:01:45Z</time>
      </trkpt>
      <trkpt lat="19.02577" lon="98.8757">
        <time>2019-09-06T09:01:46Z</time>
      </trkpt>
      <trkpt lat="19.02564" lon="98.87567">
        <time>2019-09-06T09:01:47Z</time>
      </trkpt>
      <trkpt lat="19.02552" lon="98.87564">
        <time>2019-09-06T09:01:48Z</time>
      </trkpt>
      <trkpt lat="19.02541" lon="98.87556">
        <time>2019-09-06T09:01:49Z</time>
      </trkpt>
      <trkpt lat="19.02529" lon="98.87545">
        <time>2019-09-06T09:01:50Z</time>
      </trkpt>
      <trkpt lat="19.02519" lon="98.87529">
        <time>2019-09-06T09:01:51Z</time>
      </trkpt>
      <trkpt lat="19.02504" lon="98.87517">
        <time>2019-09-06T09:01:52Z</time>
      </trkpt>
      <trkpt lat="19.02495" lon="98.87499">
        <time>2019-09-06T09:01:53Z</time>
      </trkpt>
      <trkpt lat="19.02483" lon="98.87484">
        <time>2019-09-06T09:01:54Z</time>
      </trkpt>
      <trkpt lat="19.02473" lon="98.87469">
        <time>2019-09-06T09:01:55Z</time>
      </trkpt>
      <trkpt lat="19.02463" lon="98.87457">
        <time>2019-09-06T09:01:57Z</time>
      </trkpt>
      <trkpt lat="19.02454" lon="98.87448">
        <time>2019-09-06T09:01:57Z</time>
      </trkpt>
      <trkpt lat="19.02444" lon="98.87439">
        <time>2019-09-06T09:01:58Z</time>
      </trkpt>
      <trkpt lat="19.02434" lon="98.87435">
        <time>2019-09-06T09:01:59Z</time>
      </trkpt>
      <trkpt lat="19.02423" lon="98.87432">
        <time>2019-09-06T09:02:00Z</time>
      </trkpt>
      <trkpt lat="19.02409" lon="98.8743">
        <time>2019-09-06T09:02:01Z</time>
      </trkpt>
      <trkpt lat="19.02397" lon="98.87427">
        <time>2019-09-06T09:02:02Z</time>
      </trkpt>
      <trkpt lat="19.02389" lon="98.87432">
        <time>2019-09-06T09:02:03Z</time>
      </trkpt>
      <trkpt lat="19.02375" lon="98.87433">
        <time>2019-09-06T09:02:04Z</time>
      </trkpt>
      <trkpt lat="19.0237" lon="98.87437">
        <time>2019-09-06T09:02:05Z</time>
      </trkpt>
      <trkpt lat="19.0236" lon="98.87438">
        <time>2019-09-06T09:02:06Z</time>
      </trkpt>
      <trkpt lat="19.02346" lon="98.87442">
        <time>2019-09-06T09:02:07Z</time>
      </trkpt>
      <trkpt lat="19.02332" lon="98.87445">
        <time>2019-09-06T09:02:08Z</time>
      </trkpt>
      <trkpt lat="19.02317" lon="98.87447">
        <time>2019-09-06T09:02:09Z</time>
      </trkpt>
      <trkpt lat="19.02303" lon="98.87449">
        <time>2019-09-06T09:02:10Z</time>
      </trkpt>
      <trkpt lat="19.02289" lon="98.8745">
        <time>2019-09-06T09:02:11Z</time>
      </trkpt>
      <trkpt lat="19.02277" lon="98.87453">
        <time>2019-09-06T09:02:12Z</time>
      </trkpt>
      <trkpt lat="19.02265" lon="98.87456">
        <time>2019-09-06T09:02:13Z</time>
      </trkpt>
      <trkpt lat="19.02252" lon="98.8746">
        <time>2019-09-06T09:02:14Z</time>
      </trkpt>
      <trkpt lat="19.02247" lon="98.87476">
        <time>2019-09-06T09:02:15Z</time>
      </trkpt>
      <trkpt lat="19.02241" lon="98.87488">
        <time>2019-09-06T09:02:16Z</time>
      </trkpt>
      <trkpt lat="19.02233" lon="98.87498">
        <time>2019-09-06T09:02:17Z</time>
      </trkpt>
      <trkpt lat="19.02228" lon="98.87513">
        <time>2019-09-06T09:02:18Z</time>
      </trkpt>
      <trkpt lat="19.0222" lon="98.87527">
        <time>2019-09-06T09:02:19Z</time>
      </trkpt>
      <trkpt lat="19.02211" lon="98.87538">
        <time>2019-09-06T09:02:20Z</time>
      </trkpt>
      <trkpt lat="19.02203" lon="98.8755">
        <time>2019-09-06T09:02:21Z</time>
      </trkpt>
      <trkpt lat="19.02194" lon="98.87562">
        <time>2019-09-06T09:02:22Z</time>
      </trkpt>
      <trkpt lat="19.02184" lon="98.8757">
        <time>2019-09-06T09:02:23Z</time>
      </trkpt>
      <trkpt lat="19.02174" lon="98.8758">
        <time>2019-09-06T09:02:24Z</time>
      </trkpt>
      <trkpt lat="19.02166" lon="98.87588">
        <time>2019-09-06T09:02:25Z</time>
      </trkpt>
      <trkpt lat="19.02152" lon="98.87596">
        <time>2019-09-06T09:02:26Z</time>
      </trkpt>
      <trkpt lat="19.02138" lon="98.87601">
        <time>2019-09-06T09:02:27Z</time>
      </trkpt>
      <trkpt lat="19.02125" lon="98.87607">
        <time>2019-09-06T09:02:28Z</time>
      </trkpt>
      <trkpt lat="19.02114" lon="98.87612">
        <time>2019-09-06T09:02:29Z</time>
      </trkpt>
      <trkpt lat="19.02098" lon="98.87615">
        <time>2019-09-06T09:02:30Z</time>
      </trkpt>
      <trkpt lat="19.02082" lon="98.87615">
        <time>2019-09-06T09:02:31Z</time>
      </trkpt>
      <trkpt lat="19.02068" lon="98.87612">
        <time>2019-09-06T09:02:32Z</time>
      </trkpt>
      <trkpt lat="19.02055" lon="98.87614">
        <time>2019-09-06T09:02:33Z</time>
      </trkpt>
      <trkpt lat="19.02045" lon="98.87615">
        <time>2019-09-06T09:02:34Z</time>
      </trkpt>
      <trkpt lat="19.02033" lon="98.87615">
        <time>2019-09-06T09:02:35Z</time>
      </trkpt>
      <trkpt lat="19.02021" lon="98.87618">
        <time>2019-09-06T09:02:36Z</time>
      </trkpt>
      <trkpt lat="19.02009" lon="98.87628">
        <time>2019-09-06T09:02:37Z</time>
      </trkpt>
      <trkpt lat="19.01994" lon="98.87634">
        <time>2019-09-06T09:02:38Z</time>
      </trkpt>
      <trkpt lat="19.0198" lon="98.8764">
        <time>2019-09-06T09:02:39Z</time>
      </trkpt>
      <trkpt lat="19.01966" lon="98.87644">
        <time>2019-09-06T09:02:40Z</time>
      </trkpt>
      <trkpt lat="19.01952" lon="98.87652">
        <time>2019-09-06T09:02:41Z</time>
      </trkpt>
      <trkpt lat="19.01941" lon="98.87663">
        <time>2019-09-06T09:02:42Z</time>
      </trkpt>
      <trkpt lat="19.01929" lon="98.87676">
        <time>2019-09-06T09:02:43Z</time>
      </trkpt>
      <trkpt lat="19.01917" lon="98.87686">
        <time>2019-09-06T09:02:44Z</time>
      </trkpt>
      <trkpt lat="19.01903" lon="98.877">
        <time>2019-09-06T09:02:45Z</time>
      </trkpt>
      <trkpt lat="19.01889" lon="98.87713">
        <time>2019-09-06T09:02:46Z</time>
      </trkpt>
      <trkpt lat="19.01876" lon="98.87724">
        <time>2019-09-06T09:02:47Z</time>
      </trkpt>
      <trkpt lat="19.01865" lon="98.87736">
        <time>2019-09-06T09:02:48Z</time>
      </trkpt>
      <trkpt lat="19.01854" lon="98.87746">
        <time>2019-09-06T09:02:49Z</time>
      </trkpt>
      <trkpt lat="19.01842" lon="98.87756">
        <time>2019-09-06T09:02:50Z</time>
      </trkpt>
      <trkpt lat="19.0183" lon="98.87765">
        <time>2019-09-06T09:02:51Z</time>
      </trkpt>
      <trkpt lat="19.01817" lon="98.87769">
        <time>2019-09-06T09:02:52Z</time>
      </trkpt>
      <trkpt lat="19.01807" lon="98.8777">
        <time>2019-09-06T09:02:53Z</time>
      </trkpt>
      <trkpt lat="19.01795" lon="98.87767">
        <time>2019-09-06T09:02:54Z</time>
      </trkpt>
      <trkpt lat="19.01784" lon="98.87766">
        <time>2019-09-06T09:02:55Z</time>
      </trkpt>
      <trkpt lat="19.01773" lon="98.87765">
        <time>2019-09-06T09:02:56Z</time>
      </trkpt>
      <trkpt lat="19.01762" lon="98.87768">
        <time>2019-09-06T09:02:57Z</time>
      </trkpt>
      <trkpt lat="19.01751" lon="98.87772">
        <time>2019-09-06T09:02:58Z</time>
      </trkpt>
      <trkpt lat="19.01741" lon="98.87775">
        <time>2019-09-06T09:02:59Z</time>
      </trkpt>
      <trkpt lat="19.0173" lon="98.87786">
        <time>2019-09-06T09:03:00Z</time>
      </trkpt>
      <trkpt lat="19.01722" lon="98.87804">
        <time>2019-09-06T09:03:01Z</time>
      </trkpt>
      <trkpt lat="19.01714" lon="98.87823">
        <time>2019-09-06T09:03:02Z</time>
      </trkpt>
      <trkpt lat="19.01707" lon="98.8784">
        <time>2019-09-06T09:03:03Z</time>
      </trkpt>
      <trkpt lat="19.01698" lon="98.87856">
        <time>2019-09-06T09:03:04Z</time>
      </trkpt>
      <trkpt lat="19.01691" lon="98.87874">
        <time>2019-09-06T09:03:05Z</time>
      </trkpt>
      <trkpt lat="19.01684" lon="98.8789">
        <time>2019-09-06T09:03:06Z</time>
      </trkpt>
      <trkpt lat="19.01678" lon="98.87906">
        <time>2019-09-06T09:03:07Z</time>
      </trkpt>
      <trkpt lat="19.01672" lon="98.87922">
        <time>2019-09-06T09:03:08Z</time>
      </trkpt>
      <trkpt lat="19.01667" lon="98.87939">
        <time>2019-09-06T09:03:09Z</time>
      </trkpt>
      <trkpt lat="19.01664" lon="98.87958">
        <time>2019-09-06T09:03:10Z</time>
      </trkpt>
      <trkpt lat="19.01659" lon="98.87976">
        <time>2019-09-06T09:03:11Z</time>
      </trkpt>
      <trkpt lat="19.01654" lon="98.87994">
        <time>2019-09-06T09:03:12Z</time>
      </trkpt>
      <trkpt lat="19.01645" lon="98.88011">
        <time>2019-09-06T09:03:13Z</time>
      </trkpt>
      <trkpt lat="19.01639" lon="98.88028">
        <time>2019-09-06T09:03:14Z</time>
      </trkpt>
      <trkpt lat="19.01632" lon="98.88043">
        <time>2019-09-06T09:03:15Z</time>
      </trkpt>
      <trkpt lat="19.01626" lon="98.88061">
        <time>2019-09-06T09:03:16Z</time>
      </trkpt>
      <trkpt lat="19.01621" lon="98.88073">
        <time>2019-09-06T09:03:17Z</time>
      </trkpt>
      <trkpt lat="19.01615" lon="98.88085">
        <time>2019-09-06T09:03:18Z</time>
      </trkpt>
      <trkpt lat="19.0161" lon="98.88099">
        <time>2019-09-06T09:03:19Z</time>
      </trkpt>
      <trkpt lat="19.01609" lon="98.88113">
        <time>2019-09-06T09:03:20Z</time>
      </trkpt>
      <trkpt lat="19.01607" lon="98.88129">
        <time>2019-09-06T09:03:21Z</time>
      </trkpt>
      <trkpt lat="19.01607" lon="98.88146">
        <time>2019-09-06T09:03:22Z</time>
      </trkpt>
      <trkpt lat="19.01607" lon="98.8816">
        <time>2019-09-06T09:03:23Z</time>
      </trkpt>
      <trkpt lat="19.01607" lon="98.88174">
        <time>2019-09-06T09:03:24Z</time>
      </trkpt>
      <trkpt lat="19.01608" lon="98.88187">
        <time>2019-09-06T09:03:25Z</time>
      </trkpt>
      <trkpt lat="19.01611" lon="98.88215">
        <time>2019-09-06T09:03:28Z</time>
      </trkpt>
      <trkpt lat="19.01613" lon="98.8823">
        <time>2019-09-06T09:03:28Z</time>
      </trkpt>
      <trkpt lat="19.01616" lon="98.88243">
        <time>2019-09-06T09:03:29Z</time>
      </trkpt>
      <trkpt lat="19.01618" lon="98.88255">
        <time>2019-09-06T09:03:30Z</time>
      </trkpt>
      <trkpt lat="19.01621" lon="98.88266">
        <time>2019-09-06T09:03:31Z</time>
      </trkpt>
      <trkpt lat="19.01623" lon="98.88276">
        <time>2019-09-06T09:03:32Z</time>
      </trkpt>
      <trkpt lat="19.01625" lon="98.88285">
        <time>2019-09-06T09:03:33Z</time>
      </trkpt>
      <trkpt lat="19.01625" lon="98.88295">
        <time>2019-09-06T09:03:34Z</time>
      </trkpt>
      <trkpt lat="19.01627" lon="98.883">
        <time>2019-09-06T09:03:35Z</time>
      </trkpt>
      <trkpt lat="19.01628" lon="98.88305">
        <time>2019-09-06T09:03:36Z</time>
      </trkpt>
      <trkpt lat="19.01628" lon="98.88311">
        <time>2019-09-06T09:03:37Z</time>
      </trkpt>
      <trkpt lat="19.01628" lon="98.88316">
        <time>2019-09-06T09:03:38Z</time>
      </trkpt>
      <trkpt lat="19.01625" lon="98.8832">
        <time>2019-09-06T09:03:39Z</time>
      </trkpt>
      <trkpt lat="19.01616" lon="98.88319">
        <time>2019-09-06T09:03:40Z</time>
      </trkpt>
      <trkpt lat="19.01608" lon="98.88318">
        <time>2019-09-06T09:03:41Z</time>
      </trkpt>
      <trkpt lat="19.01599" lon="98.88319">
        <time>2019-09-06T09:03:42Z</time>
      </trkpt>
      <trkpt lat="19.0159" lon="98.88318">
        <time>2019-09-06T09:03:43Z</time>
      </trkpt>
      <trkpt lat="19.01581" lon="98.88317">
        <time>2019-09-06T09:03:44Z</time>
      </trkpt>
      <trkpt lat="19.01571" lon="98.88318">
        <time>2019-09-06T09:03:45Z</time>
      </trkpt>
      <trkpt lat="19.01561" lon="98.88317">
        <time>2019-09-06T09:03:46Z</time>
      </trkpt>
      <trkpt lat="19.01552" lon="98.8832">
        <time>2019-09-06T09:03:47Z</time>
      </trkpt>
      <trkpt lat="19.01542" lon="98.88323">
        <time>2019-09-06T09:03:48Z</time>
      </trkpt>
      <trkpt lat="19.01532" lon="98.88325">
        <time>2019-09-06T09:03:49Z</time>
      </trkpt>
      <trkpt lat="19.0152" lon="98.88328">
        <time>2019-09-06T09:03:50Z</time>
      </trkpt>
      <trkpt lat="19.01509" lon="98.88334">
        <time>2019-09-06T09:03:51Z</time>
      </trkpt>
      <trkpt lat="19.01498" lon="98.88339">
        <time>2019-09-06T09:03:52Z</time>
      </trkpt>
      <trkpt lat="19.01488" lon="98.88342">
        <time>2019-09-06T09:03:53Z</time>
      </trkpt>
      <trkpt lat="19.01479" lon="98.88348">
        <time>2019-09-06T09:03:54Z</time>
      </trkpt>
      <trkpt lat="19.01469" lon="98.88353">
        <time>2019-09-06T09:03:55Z</time>
      </trkpt>
      <trkpt lat="19.01458" lon="98.88358">
        <time>2019-09-06T09:03:56Z</time>
      </trkpt>
      <trkpt lat="19.01449" lon="98.88364">
        <time>2019-09-06T09:03:57Z</time>
      </trkpt>
      <trkpt lat="19.01438" lon="98.88369">
        <time>2019-09-06T09:03:58Z</time>
      </trkpt>
      <trkpt lat="19.01427" lon="98.88377">
        <time>2019-09-06T09:03:59Z</time>
      </trkpt>
      <trkpt lat="19.01417" lon="98.88382">
        <time>2019-09-06T09:04:00Z</time>
      </trkpt>
      <trkpt lat="19.01408" lon="98.88389">
        <time>2019-09-06T09:04:01Z</time>
      </trkpt>
      <trkpt lat="19.01399" lon="98.88394">
        <time>2019-09-06T09:04:02Z</time>
      </trkpt>
      <trkpt lat="19.01393" lon="98.884">
        <time>2019-09-06T09:04:03Z</time>
      </trkpt>
      <trkpt lat="19.01387" lon="98.88405">
        <time>2019-09-06T09:04:04Z</time>
      </trkpt>
      <trkpt lat="19.0138" lon="98.88411">
        <time>2019-09-06T09:04:05Z</time>
      </trkpt>
      <trkpt lat="19.01375" lon="98.88413">
        <time>2019-09-06T09:04:06Z</time>
      </trkpt>
      <trkpt lat="19.01371" lon="98.88417">
        <time>2019-09-06T09:04:07Z</time>
      </trkpt>
      <trkpt lat="19.01367" lon="98.88418">
        <time>2019-09-06T09:04:08Z</time>
      </trkpt>
      <trkpt lat="19.01364" lon="98.8842">
        <time>2019-09-06T09:04:09Z</time>
      </trkpt>
      <trkpt lat="19.01361" lon="98.88422">
        <time>2019-09-06T09:04:10Z</time>
      </trkpt>
      <trkpt lat="19.01357" lon="98.88426">
        <time>2019-09-06T09:04:11Z</time>
      </trkpt>
      <trkpt lat="19.01351" lon="98.88429">
        <time>2019-09-06T09:04:12Z</time>
      </trkpt>
      <trkpt lat="19.01342" lon="98.88434">
        <time>2019-09-06T09:04:13Z</time>
      </trkpt>
      <trkpt lat="19.01334" lon="98.8844">
        <time>2019-09-06T09:04:14Z</time>
      </trkpt>
      <trkpt lat="19.01324" lon="98.88446">
        <time>2019-09-06T09:04:15Z</time>
      </trkpt>
      <trkpt lat="19.01315" lon="98.88454">
        <time>2019-09-06T09:04:16Z</time>
      </trkpt>
      <trkpt lat="19.013" lon="98.88462">
        <time>2019-09-06T09:04:17Z</time>
      </trkpt>
      <trkpt lat="19.01286" lon="98.8847">
        <time>2019-09-06T09:04:18Z</time>
      </trkpt>
      <trkpt lat="19.01273" lon="98.88477">
        <time>2019-09-06T09:04:19Z</time>
      </trkpt>
      <trkpt lat="19.01261" lon="98.88484">
        <time>2019-09-06T09:04:20Z</time>
      </trkpt>
      <trkpt lat="19.01246" lon="98.88489">
        <time>2019-09-06T09:04:21Z</time>
      </trkpt>
      <trkpt lat="19.01232" lon="98.88495">
        <time>2019-09-06T09:04:22Z</time>
      </trkpt>
      <trkpt lat="19.01214" lon="98.88501">
        <time>2019-09-06T09:04:23Z</time>
      </trkpt>
      <trkpt lat="19.01199" lon="98.88507">
        <time>2019-09-06T09:04:24Z</time>
      </trkpt>
      <trkpt lat="19.01181" lon="98.88513">
        <time>2019-09-06T09:04:25Z</time>
      </trkpt>
      <trkpt lat="19.01163" lon="98.88517">
        <time>2019-09-06T09:04:26Z</time>
      </trkpt>
      <trkpt lat="19.01145" lon="98.88522">
        <time>2019-09-06T09:04:27Z</time>
      </trkpt>
      <trkpt lat="19.01126" lon="98.88528">
        <time>2019-09-06T09:04:28Z</time>
      </trkpt>
      <trkpt lat="19.01107" lon="98.88532">
        <time>2019-09-06T09:04:29Z</time>
      </trkpt>
      <trkpt lat="19.0109" lon="98.88537">
        <time>2019-09-06T09:04:30Z</time>
      </trkpt>
      <trkpt lat="19.01071" lon="98.88541">
        <time>2019-09-06T09:04:31Z</time>
      </trkpt>
      <trkpt lat="19.01052" lon="98.88544">
        <time>2019-09-06T09:04:32Z</time>
      </trkpt>
      <trkpt lat="19.01033" lon="98.88547">
        <time>2019-09-06T09:04:33Z</time>
      </trkpt>
      <trkpt lat="19.01012" lon="98.88546">
        <time>2019-09-06T09:04:34Z</time>
      </trkpt>
      <trkpt lat="19.00992" lon="98.88547">
        <time>2019-09-06T09:04:35Z</time>
      </trkpt>
      <trkpt lat="19.00971" lon="98.88548">
        <time>2019-09-06T09:04:36Z</time>
      </trkpt>
      <trkpt lat="19.00949" lon="98.88548">
        <time>2019-09-06T09:04:37Z</time>
      </trkpt>
      <trkpt lat="19.00928" lon="98.88549">
        <time>2019-09-06T09:04:38Z</time>
      </trkpt>
      <trkpt lat="19.00905" lon="98.88549">
        <time>2019-09-06T09:04:39Z</time>
      </trkpt>
      <trkpt lat="19.00883" lon="98.88549">
        <time>2019-09-06T09:04:40Z</time>
      </trkpt>
      <trkpt lat="19.00863" lon="98.8855">
        <time>2019-09-06T09:04:41Z</time>
      </trkpt>
      <trkpt lat="19.00841" lon="98.88548">
        <time>2019-09-06T09:04:42Z</time>
      </trkpt>
      <trkpt lat="19.00819" lon="98.88549">
        <time>2019-09-06T09:04:43Z</time>
      </trkpt>
      <trkpt lat="19.00796" lon="98.88548">
        <time>2019-09-06T09:04:44Z</time>
      </trkpt>
      <trkpt lat="19.00776" lon="98.88546">
        <time>2019-09-06T09:04:45Z</time>
      </trkpt>
      <trkpt lat="19.00755" lon="98.88547">
        <time>2019-09-06T09:04:46Z</time>
      </trkpt>
      <trkpt lat="19.00734" lon="98.88547">
        <time>2019-09-06T09:04:47Z</time>
      </trkpt>
      <trkpt lat="19.00717" lon="98.88551">
        <time>2019-09-06T09:04:48Z</time>
      </trkpt>
      <trkpt lat="19.00697" lon="98.88553">
        <time>2019-09-06T09:04:49Z</time>
      </trkpt>
      <trkpt lat="19.00681" lon="98.88555">
        <time>2019-09-06T09:04:50Z</time>
      </trkpt>
      <trkpt lat="19.00662" lon="98.88561">
        <time>2019-09-06T09:04:51Z</time>
      </trkpt>
      <trkpt lat="19.0065" lon="98.88572">
        <time>2019-09-06T09:04:52Z</time>
      </trkpt>
      <trkpt lat="19.00635" lon="98.88579">
        <time>2019-09-06T09:04:53Z</time>
      </trkpt>
      <trkpt lat="19.00618" lon="98.88579">
        <time>2019-09-06T09:04:54Z</time>
      </trkpt>
      <trkpt lat="19.00604" lon="98.88584">
        <time>2019-09-06T09:04:55Z</time>
      </trkpt>
      <trkpt lat="19.00588" lon="98.88588">
        <time>2019-09-06T09:04:56Z</time>
      </trkpt>
      <trkpt lat="19.00571" lon="98.88594">
        <time>2019-09-06T09:04:57Z</time>
      </trkpt>
      <trkpt lat="19.00554" lon="98.88598">
        <time>2019-09-06T09:04:58Z</time>
      </trkpt>
      <trkpt lat="19.00536" lon="98.88604">
        <time>2019-09-06T09:04:59Z</time>
      </trkpt>
      <trkpt lat="19.00517" lon="98.88611">
        <time>2019-09-06T09:05:00Z</time>
      </trkpt>
      <trkpt lat="19.005" lon="98.88614">
        <time>2019-09-06T09:05:01Z</time>
      </trkpt>
      <trkpt lat="19.00481" lon="98.88624">
        <time>2019-09-06T09:05:02Z</time>
      </trkpt>
      <trkpt lat="19.00463" lon="98.88632">
        <time>2019-09-06T09:05:03Z</time>
      </trkpt>
      <trkpt lat="19.00444" lon="98.88639">
        <time>2019-09-06T09:05:04Z</time>
      </trkpt>
      <trkpt lat="19.00427" lon="98.88647">
        <time>2019-09-06T09:05:05Z</time>
      </trkpt>
      <trkpt lat="19.00413" lon="98.88654">
        <time>2019-09-06T09:05:06Z</time>
      </trkpt>
      <trkpt lat="19.00397" lon="98.88662">
        <time>2019-09-06T09:05:07Z</time>
      </trkpt>
      <trkpt lat="19.00382" lon="98.88671">
        <time>2019-09-06T09:05:08Z</time>
      </trkpt>
      <trkpt lat="19.00375" lon="98.88676">
        <time>2019-09-06T09:05:09Z</time>
      </trkpt>
      <trkpt lat="19.0036" lon="98.88688">
        <time>2019-09-06T09:05:10Z</time>
      </trkpt>
      <trkpt lat="19.00346" lon="98.88696">
        <time>2019-09-06T09:05:11Z</time>
      </trkpt>
      <trkpt lat="19.00333" lon="98.88704">
        <time>2019-09-06T09:05:12Z</time>
      </trkpt>
      <trkpt lat="19.00325" lon="98.8871">
        <time>2019-09-06T09:05:13Z</time>
      </trkpt>
      <trkpt lat="19.00317" lon="98.88719">
        <time>2019-09-06T09:05:14Z</time>
      </trkpt>
      <trkpt lat="19.00308" lon="98.88727">
        <time>2019-09-06T09:05:15Z</time>
      </trkpt>
      <trkpt lat="19.00294" lon="98.88737">
        <time>2019-09-06T09:05:16Z</time>
      </trkpt>
      <trkpt lat="19.00281" lon="98.88746">
        <time>2019-09-06T09:05:17Z</time>
      </trkpt>
      <trkpt lat="19.00271" lon="98.88756">
        <time>2019-09-06T09:05:18Z</time>
      </trkpt>
      <trkpt lat="19.0026" lon="98.88764">
        <time>2019-09-06T09:05:19Z</time>
      </trkpt>
      <trkpt lat="19.00248" lon="98.88786">
        <time>2019-09-06T09:05:20Z</time>
      </trkpt>
      <trkpt lat="19.00231" lon="98.88794">
        <time>2019-09-06T09:05:21Z</time>
      </trkpt>
      <trkpt lat="19.00208" lon="98.88812">
        <time>2019-09-06T09:05:22Z</time>
      </trkpt>
      <trkpt lat="19.002" lon="98.88817">
        <time>2019-09-06T09:05:23Z</time>
      </trkpt>
      <trkpt lat="19.00186" lon="98.8883">
        <time>2019-09-06T09:05:24Z</time>
      </trkpt>
      <trkpt lat="19.0017" lon="98.88833">
        <time>2019-09-06T09:05:25Z</time>
      </trkpt>
      <trkpt lat="19.00155" lon="98.88842">
        <time>2019-09-06T09:05:26Z</time>
      </trkpt>
      <trkpt lat="19.00139" lon="98.88845">
        <time>2019-09-06T09:05:27Z</time>
      </trkpt>
      <trkpt lat="19.00121" lon="98.88849">
        <time>2019-09-06T09:05:28Z</time>
      </trkpt>
      <trkpt lat="19.00105" lon="98.88852">
        <time>2019-09-06T09:05:29Z</time>
      </trkpt>
      <trkpt lat="19.00092" lon="98.88853">
        <time>2019-09-06T09:05:30Z</time>
      </trkpt>
      <trkpt lat="19.00078" lon="98.88855">
        <time>2019-09-06T09:05:31Z</time>
      </trkpt>
      <trkpt lat="19.00063" lon="98.88844">
        <time>2019-09-06T09:05:32Z</time>
      </trkpt>
      <trkpt lat="19.00049" lon="98.88836">
        <time>2019-09-06T09:05:33Z</time>
      </trkpt>
      <trkpt lat="19.00035" lon="98.8883">
        <time>2019-09-06T09:05:34Z</time>
      </trkpt>
      <trkpt lat="19.0002" lon="98.88831">
        <time>2019-09-06T09:05:35Z</time>
      </trkpt>
      <trkpt lat="19.00004" lon="98.88828">
        <time>2019-09-06T09:05:36Z</time>
      </trkpt>
      <trkpt lat="18.99987" lon="98.88829">
        <time>2019-09-06T09:05:37Z</time>
      </trkpt>
      <trkpt lat="18.99972" lon="98.8884">
        <time>2019-09-06T09:05:38Z</time>
      </trkpt>
      <trkpt lat="18.99959" lon="98.88844">
        <time>2019-09-06T09:05:39Z</time>
      </trkpt>
      <trkpt lat="18.99941" lon="98.88851">
        <time>2019-09-06T09:05:40Z</time>
      </trkpt>
      <trkpt lat="18.99924" lon="98.88859">
        <time>2019-09-06T09:05:41Z</time>
      </trkpt>
      <trkpt lat="18.99909" lon="98.88867">
        <time>2019-09-06T09:05:42Z</time>
      </trkpt>
      <trkpt lat="18.99894" lon="98.88876">
        <time>2019-09-06T09:05:43Z</time>
      </trkpt>
      <trkpt lat="18.99881" lon="98.88886">
        <time>2019-09-06T09:05:44Z</time>
      </trkpt>
      <trkpt lat="18.99867" lon="98.88892">
        <time>2019-09-06T09:05:45Z</time>
      </trkpt>
      <trkpt lat="18.99851" lon="98.88897">
        <time>2019-09-06T09:05:46Z</time>
      </trkpt>
      <trkpt lat="18.99835" lon="98.88901">
        <time>2019-09-06T09:05:48Z</time>
      </trkpt>
      <trkpt lat="18.9982" lon="98.88905">
        <time>2019-09-06T09:05:48Z</time>
      </trkpt>
      <trkpt lat="18.99803" lon="98.8891">
        <time>2019-09-06T09:05:49Z</time>
      </trkpt>
      <trkpt lat="18.99785" lon="98.88915">
        <time>2019-09-06T09:05:50Z</time>
      </trkpt>
      <trkpt lat="18.99774" lon="98.88921">
        <time>2019-09-06T09:05:51Z</time>
      </trkpt>
      <trkpt lat="18.9976" lon="98.88927">
        <time>2019-09-06T09:05:52Z</time>
      </trkpt>
      <trkpt lat="18.99745" lon="98.88935">
        <time>2019-09-06T09:05:53Z</time>
      </trkpt>
      <trkpt lat="18.9973" lon="98.88942">
        <time>2019-09-06T09:05:54Z</time>
      </trkpt>
      <trkpt lat="18.99712" lon="98.88951">
        <time>2019-09-06T09:05:55Z</time>
      </trkpt>
      <trkpt lat="18.99697" lon="98.88966">
        <time>2019-09-06T09:05:56Z</time>
      </trkpt>
      <trkpt lat="18.99687" lon="98.88973">
        <time>2019-09-06T09:05:57Z</time>
      </trkpt>
      <trkpt lat="18.99671" lon="98.88992">
        <time>2019-09-06T09:05:58Z</time>
      </trkpt>
      <trkpt lat="18.99653" lon="98.89011">
        <time>2019-09-06T09:05:59Z</time>
      </trkpt>
      <trkpt lat="18.99639" lon="98.89024">
        <time>2019-09-06T09:06:00Z</time>
      </trkpt>
      <trkpt lat="18.99621" lon="98.89037">
        <time>2019-09-06T09:06:01Z</time>
      </trkpt>
      <trkpt lat="18.99602" lon="98.89051">
        <time>2019-09-06T09:06:02Z</time>
      </trkpt>
      <trkpt lat="18.99584" lon="98.89063">
        <time>2019-09-06T09:06:03Z</time>
      </trkpt>
      <trkpt lat="18.99569" lon="98.89073">
        <time>2019-09-06T09:06:04Z</time>
      </trkpt>
      <trkpt lat="18.9955" lon="98.89085">
        <time>2019-09-06T09:06:05Z</time>
      </trkpt>
      <trkpt lat="18.99537" lon="98.89094">
        <time>2019-09-06T09:06:06Z</time>
      </trkpt>
      <trkpt lat="18.99523" lon="98.89103">
        <time>2019-09-06T09:06:07Z</time>
      </trkpt>
      <trkpt lat="18.9951" lon="98.89117">
        <time>2019-09-06T09:06:08Z</time>
      </trkpt>
      <trkpt lat="18.99498" lon="98.89132">
        <time>2019-09-06T09:06:09Z</time>
      </trkpt>
      <trkpt lat="18.99484" lon="98.89147">
        <time>2019-09-06T09:06:10Z</time>
      </trkpt>
      <trkpt lat="18.99471" lon="98.89163">
        <time>2019-09-06T09:06:12Z</time>
      </trkpt>
      <trkpt lat="18.99458" lon="98.89178">
        <time>2019-09-06T09:06:12Z</time>
      </trkpt>
      <trkpt lat="18.99446" lon="98.89191">
        <time>2019-09-06T09:06:13Z</time>
      </trkpt>
      <trkpt lat="18.99436" lon="98.89204">
        <time>2019-09-06T09:06:14Z</time>
      </trkpt>
      <trkpt lat="18.99431" lon="98.89208">
        <time>2019-09-06T09:06:15Z</time>
      </trkpt>
      <trkpt lat="18.99418" lon="98.89218">
        <time>2019-09-06T09:06:16Z</time>
      </trkpt>
      <trkpt lat="18.99403" lon="98.89224">
        <time>2019-09-06T09:06:17Z</time>
      </trkpt>
      <trkpt lat="18.99389" lon="98.89224">
        <time>2019-09-06T09:06:18Z</time>
      </trkpt>
      <trkpt lat="18.99378" lon="98.89228">
        <time>2019-09-06T09:06:19Z</time>
      </trkpt>
      <trkpt lat="18.99367" lon="98.89231">
        <time>2019-09-06T09:06:20Z</time>
      </trkpt>
      <trkpt lat="18.99353" lon="98.8923">
        <time>2019-09-06T09:06:21Z</time>
      </trkpt>
      <trkpt lat="18.99336" lon="98.89233">
        <time>2019-09-06T09:06:22Z</time>
      </trkpt>
      <trkpt lat="18.99321" lon="98.89233">
        <time>2019-09-06T09:06:23Z</time>
      </trkpt>
      <trkpt lat="18.99305" lon="98.89237">
        <time>2019-09-06T09:06:24Z</time>
      </trkpt>
      <trkpt lat="18.99293" lon="98.89243">
        <time>2019-09-06T09:06:25Z</time>
      </trkpt>
      <trkpt lat="18.99278" lon="98.8925">
        <time>2019-09-06T09:06:26Z</time>
      </trkpt>
      <trkpt lat="18.99266" lon="98.89272">
        <time>2019-09-06T09:06:27Z</time>
      </trkpt>
      <trkpt lat="18.99255" lon="98.89286">
        <time>2019-09-06T09:06:28Z</time>
      </trkpt>
      <trkpt lat="18.99246" lon="98.89298">
        <time>2019-09-06T09:06:29Z</time>
      </trkpt>
      <trkpt lat="18.99238" lon="98.89314">
        <time>2019-09-06T09:06:30Z</time>
      </trkpt>
      <trkpt lat="18.99232" lon="98.8933">
        <time>2019-09-06T09:06:31Z</time>
      </trkpt>
      <trkpt lat="18.99227" lon="98.89347">
        <time>2019-09-06T09:06:32Z</time>
      </trkpt>
      <trkpt lat="18.99221" lon="98.89363">
        <time>2019-09-06T09:06:33Z</time>
      </trkpt>
      <trkpt lat="18.99217" lon="98.89379">
        <time>2019-09-06T09:06:34Z</time>
      </trkpt>
      <trkpt lat="18.9922" lon="98.89393">
        <time>2019-09-06T09:06:35Z</time>
      </trkpt>
      <trkpt lat="18.99226" lon="98.89407">
        <time>2019-09-06T09:06:36Z</time>
      </trkpt>
      <trkpt lat="18.99231" lon="98.89426">
        <time>2019-09-06T09:06:37Z</time>
      </trkpt>
      <trkpt lat="18.99231" lon="98.8944">
        <time>2019-09-06T09:06:38Z</time>
      </trkpt>
      <trkpt lat="18.99226" lon="98.8945">
        <time>2019-09-06T09:06:39Z</time>
      </trkpt>
      <trkpt lat="18.99224" lon="98.89462">
        <time>2019-09-06T09:06:40Z</time>
      </trkpt>
      <trkpt lat="18.99219" lon="98.89472">
        <time>2019-09-06T09:06:41Z</time>
      </trkpt>
      <trkpt lat="18.99212" lon="98.89483">
        <time>2019-09-06T09:06:42Z</time>
      </trkpt>
      <trkpt lat="18.99204" lon="98.89493">
        <time>2019-09-06T09:06:43Z</time>
      </trkpt>
      <trkpt lat="18.99191" lon="98.89507">
        <time>2019-09-06T09:06:44Z</time>
      </trkpt>
      <trkpt lat="18.99176" lon="98.89512">
        <time>2019-09-06T09:06:45Z</time>
      </trkpt>
      <trkpt lat="18.9916" lon="98.89516">
        <time>2019-09-06T09:06:46Z</time>
      </trkpt>
      <trkpt lat="18.99145" lon="98.89519">
        <time>2019-09-06T09:06:47Z</time>
      </trkpt>
      <trkpt lat="18.99134" lon="98.89527">
        <time>2019-09-06T09:06:48Z</time>
      </trkpt>
      <trkpt lat="18.99125" lon="98.89531">
        <time>2019-09-06T09:06:49Z</time>
      </trkpt>
      <trkpt lat="18.99116" lon="98.89534">
        <time>2019-09-06T09:06:50Z</time>
      </trkpt>
      <trkpt lat="18.99104" lon="98.89539">
        <time>2019-09-06T09:06:51Z</time>
      </trkpt>
      <trkpt lat="18.99096" lon="98.89553">
        <time>2019-09-06T09:06:52Z</time>
      </trkpt>
      <trkpt lat="18.99088" lon="98.89568">
        <time>2019-09-06T09:06:53Z</time>
      </trkpt>
      <trkpt lat="18.99077" lon="98.89582">
        <time>2019-09-06T09:06:54Z</time>
      </trkpt>
      <trkpt lat="18.99067" lon="98.89596">
        <time>2019-09-06T09:06:55Z</time>
      </trkpt>
      <trkpt lat="18.99056" lon="98.89609">
        <time>2019-09-06T09:06:56Z</time>
      </trkpt>
      <trkpt lat="18.99044" lon="98.8962">
        <time>2019-09-06T09:06:57Z</time>
      </trkpt>
      <trkpt lat="18.99031" lon="98.89637">
        <time>2019-09-06T09:06:58Z</time>
      </trkpt>
      <trkpt lat="18.9902" lon="98.89656">
        <time>2019-09-06T09:06:59Z</time>
      </trkpt>
      <trkpt lat="18.99001" lon="98.89679">
        <time>2019-09-06T09:07:00Z</time>
      </trkpt>
      <trkpt lat="18.98985" lon="98.89697">
        <time>2019-09-06T09:07:01Z</time>
      </trkpt>
      <trkpt lat="18.9898" lon="98.89701">
        <time>2019-09-06T09:07:02Z</time>
      </trkpt>
      <trkpt lat="18.98969" lon="98.89715">
        <time>2019-09-06T09:07:03Z</time>
      </trkpt>
      <trkpt lat="18.98961" lon="98.8973">
        <time>2019-09-06T09:07:04Z</time>
      </trkpt>
      <trkpt lat="18.98953" lon="98.89746">
        <time>2019-09-06T09:07:05Z</time>
      </trkpt>
      <trkpt lat="18.98946" lon="98.89762">
        <time>2019-09-06T09:07:06Z</time>
      </trkpt>
      <trkpt lat="18.98942" lon="98.89776">
        <time>2019-09-06T09:07:07Z</time>
      </trkpt>
      <trkpt lat="18.98942" lon="98.89794">
        <time>2019-09-06T09:07:08Z</time>
      </trkpt>
      <trkpt lat="18.9894" lon="98.89814">
        <time>2019-09-06T09:07:09Z</time>
      </trkpt>
      <trkpt lat="18.98942" lon="98.89832">
        <time>2019-09-06T09:07:10Z</time>
      </trkpt>
      <trkpt lat="18.98943" lon="98.89849">
        <time>2019-09-06T09:07:11Z</time>
      </trkpt>
      <trkpt lat="18.98952" lon="98.8987">
        <time>2019-09-06T09:07:12Z</time>
      </trkpt>
      <trkpt lat="18.98957" lon="98.89892">
        <time>2019-09-06T09:07:13Z</time>
      </trkpt>
      <trkpt lat="18.98967" lon="98.89904">
        <time>2019-09-06T09:07:14Z</time>
      </trkpt>
      <trkpt lat="18.98976" lon="98.89906">
        <time>2019-09-06T09:07:15Z</time>
      </trkpt>
      <trkpt lat="18.98979" lon="98.89918">
        <time>2019-09-06T09:07:16Z</time>
      </trkpt>
      <trkpt lat="18.9898" lon="98.89934">
        <time>2019-09-06T09:07:17Z</time>
      </trkpt>
      <trkpt lat="18.9898" lon="98.89948">
        <time>2019-09-06T09:07:18Z</time>
      </trkpt>
      <trkpt lat="18.98981" lon="98.89962">
        <time>2019-09-06T09:07:19Z</time>
      </trkpt>
      <trkpt lat="18.98982" lon="98.89977">
        <time>2019-09-06T09:07:20Z</time>
      </trkpt>
      <trkpt lat="18.98981" lon="98.8999">
        <time>2019-09-06T09:07:21Z</time>
      </trkpt>
      <trkpt lat="18.98976" lon="98.90004">
        <time>2019-09-06T09:07:22Z</time>
      </trkpt>
      <trkpt lat="18.98974" lon="98.90019">
        <time>2019-09-06T09:07:23Z</time>
      </trkpt>
      <trkpt lat="18.98969" lon="98.90042">
        <time>2019-09-06T09:07:24Z</time>
      </trkpt>
      <trkpt lat="18.98966" lon="98.90058">
        <time>2019-09-06T09:07:25Z</time>
      </trkpt>
      <trkpt lat="18.98962" lon="98.9008">
        <time>2019-09-06T09:07:26Z</time>
      </trkpt>
      <trkpt lat="18.9896" lon="98.90099">
        <time>2019-09-06T09:07:27Z</time>
      </trkpt>
      <trkpt lat="18.98957" lon="98.9012">
        <time>2019-09-06T09:07:28Z</time>
      </trkpt>
      <trkpt lat="18.98954" lon="98.90136">
        <time>2019-09-06T09:07:29Z</time>
      </trkpt>
      <trkpt lat="18.98947" lon="98.90154">
        <time>2019-09-06T09:07:30Z</time>
      </trkpt>
      <trkpt lat="18.98941" lon="98.90168">
        <time>2019-09-06T09:07:31Z</time>
      </trkpt>
      <trkpt lat="18.98929" lon="98.9018">
        <time>2019-09-06T09:07:32Z</time>
      </trkpt>
      <trkpt lat="18.98928" lon="98.9019">
        <time>2019-09-06T09:07:33Z</time>
      </trkpt>
      <trkpt lat="18.98926" lon="98.90198">
        <time>2019-09-06T09:07:34Z</time>
      </trkpt>
      <trkpt lat="18.98919" lon="98.90209">
        <time>2019-09-06T09:07:35Z</time>
      </trkpt>
      <trkpt lat="18.989" lon="98.90226">
        <time>2019-09-06T09:07:36Z</time>
      </trkpt>
      <trkpt lat="18.98875" lon="98.9024">
        <time>2019-09-06T09:07:37Z</time>
      </trkpt>
      <trkpt lat="18.9886" lon="98.90247">
        <time>2019-09-06T09:07:38Z</time>
      </trkpt>
      <trkpt lat="18.98842" lon="98.90257">
        <time>2019-09-06T09:07:39Z</time>
      </trkpt>
      <trkpt lat="18.98823" lon="98.90269">
        <time>2019-09-06T09:07:40Z</time>
      </trkpt>
      <trkpt lat="18.98808" lon="98.90282">
        <time>2019-09-06T09:07:41Z</time>
      </trkpt>
      <trkpt lat="18.98795" lon="98.90294">
        <time>2019-09-06T09:07:42Z</time>
      </trkpt>
      <trkpt lat="18.98783" lon="98.90309">
        <time>2019-09-06T09:07:43Z</time>
      </trkpt>
      <trkpt lat="18.9877" lon="98.90321">
        <time>2019-09-06T09:07:44Z</time>
      </trkpt>
      <trkpt lat="18.98762" lon="98.90335">
        <time>2019-09-06T09:07:45Z</time>
      </trkpt>
      <trkpt lat="18.98752" lon="98.90349">
        <time>2019-09-06T09:07:46Z</time>
      </trkpt>
      <trkpt lat="18.98744" lon="98.90363">
        <time>2019-09-06T09:07:47Z</time>
      </trkpt>
      <trkpt lat="18.98739" lon="98.9038">
        <time>2019-09-06T09:07:48Z</time>
      </trkpt>
      <trkpt lat="18.98737" lon="98.904">
        <time>2019-09-06T09:07:49Z</time>
      </trkpt>
      <trkpt lat="18.98733" lon="98.9042">
        <time>2019-09-06T09:07:50Z</time>
      </trkpt>
      <trkpt lat="18.98727" lon="98.90436">
        <time>2019-09-06T09:07:51Z</time>
      </trkpt>
      <trkpt lat="18.98727" lon="98.90453">
        <time>2019-09-06T09:07:52Z</time>
      </trkpt>
      <trkpt lat="18.98724" lon="98.90474">
        <time>2019-09-06T09:07:53Z</time>
      </trkpt>
      <trkpt lat="18.98722" lon="98.90491">
        <time>2019-09-06T09:07:54Z</time>
      </trkpt>
      <trkpt lat="18.98717" lon="98.90506">
        <time>2019-09-06T09:07:55Z</time>
      </trkpt>
      <trkpt lat="18.98715" lon="98.90517">
        <time>2019-09-06T09:07:56Z</time>
      </trkpt>
      <trkpt lat="18.98702" lon="98.90529">
        <time>2019-09-06T09:07:57Z</time>
      </trkpt>
      <trkpt lat="18.98693" lon="98.90543">
        <time>2019-09-06T09:07:58Z</time>
      </trkpt>
      <trkpt lat="18.98689" lon="98.90558">
        <time>2019-09-06T09:07:59Z</time>
      </trkpt>
      <trkpt lat="18.98679" lon="98.90573">
        <time>2019-09-06T09:08:00Z</time>
      </trkpt>
      <trkpt lat="18.98673" lon="98.90585">
        <time>2019-09-06T09:08:01Z</time>
      </trkpt>
      <trkpt lat="18.98668" lon="98.90604">
        <time>2019-09-06T09:08:02Z</time>
      </trkpt>
      <trkpt lat="18.98663" lon="98.90621">
        <time>2019-09-06T09:08:03Z</time>
      </trkpt>
      <trkpt lat="18.98657" lon="98.90636">
        <time>2019-09-06T09:08:04Z</time>
      </trkpt>
      <trkpt lat="18.98653" lon="98.90655">
        <time>2019-09-06T09:08:05Z</time>
      </trkpt>
      <trkpt lat="18.98646" lon="98.90675">
        <time>2019-09-06T09:08:06Z</time>
      </trkpt>
      <trkpt lat="18.98636" lon="98.90689">
        <time>2019-09-06T09:08:07Z</time>
      </trkpt>
      <trkpt lat="18.98628" lon="98.90698">
        <time>2019-09-06T09:08:08Z</time>
      </trkpt>
      <trkpt lat="18.98625" lon="98.90706">
        <time>2019-09-06T09:08:09Z</time>
      </trkpt>
      <trkpt lat="18.98612" lon="98.9072">
        <time>2019-09-06T09:08:10Z</time>
      </trkpt>
      <trkpt lat="18.98597" lon="98.9073">
        <time>2019-09-06T09:08:11Z</time>
      </trkpt>
      <trkpt lat="18.98577" lon="98.9074">
        <time>2019-09-06T09:08:12Z</time>
      </trkpt>
      <trkpt lat="18.98561" lon="98.90747">
        <time>2019-09-06T09:08:13Z</time>
      </trkpt>
      <trkpt lat="18.98551" lon="98.90752">
        <time>2019-09-06T09:08:14Z</time>
      </trkpt>
      <trkpt lat="18.98533" lon="98.90761">
        <time>2019-09-06T09:08:15Z</time>
      </trkpt>
      <trkpt lat="18.98511" lon="98.90768">
        <time>2019-09-06T09:08:16Z</time>
      </trkpt>
      <trkpt lat="18.98488" lon="98.9077">
        <time>2019-09-06T09:08:17Z</time>
      </trkpt>
      <trkpt lat="18.98467" lon="98.90775">
        <time>2019-09-06T09:08:18Z</time>
      </trkpt>
      <trkpt lat="18.98449" lon="98.90781">
        <time>2019-09-06T09:08:19Z</time>
      </trkpt>
      <trkpt lat="18.98433" lon="98.90779">
        <time>2019-09-06T09:08:20Z</time>
      </trkpt>
      <trkpt lat="18.98417" lon="98.90784">
        <time>2019-09-06T09:08:21Z</time>
      </trkpt>
      <trkpt lat="18.984" lon="98.90789">
        <time>2019-09-06T09:08:22Z</time>
      </trkpt>
      <trkpt lat="18.98382" lon="98.90791">
        <time>2019-09-06T09:08:23Z</time>
      </trkpt>
      <trkpt lat="18.98365" lon="98.90794">
        <time>2019-09-06T09:08:24Z</time>
      </trkpt>
      <trkpt lat="18.98351" lon="98.90802">
        <time>2019-09-06T09:08:25Z</time>
      </trkpt>
      <trkpt lat="18.98337" lon="98.90813">
        <time>2019-09-06T09:08:26Z</time>
      </trkpt>
      <trkpt lat="18.98324" lon="98.90827">
        <time>2019-09-06T09:08:27Z</time>
      </trkpt>
      <trkpt lat="18.98315" lon="98.90848">
        <time>2019-09-06T09:08:28Z</time>
      </trkpt>
      <trkpt lat="18.98304" lon="98.90863">
        <time>2019-09-06T09:08:29Z</time>
      </trkpt>
      <trkpt lat="18.98294" lon="98.9088">
        <time>2019-09-06T09:08:30Z</time>
      </trkpt>
      <trkpt lat="18.98284" lon="98.90902">
        <time>2019-09-06T09:08:31Z</time>
      </trkpt>
      <trkpt lat="18.98272" lon="98.90919">
        <time>2019-09-06T09:08:32Z</time>
      </trkpt>
      <trkpt lat="18.98263" lon="98.90937">
        <time>2019-09-06T09:08:33Z</time>
      </trkpt>
      <trkpt lat="18.98252" lon="98.90954">
        <time>2019-09-06T09:08:34Z</time>
      </trkpt>
      <trkpt lat="18.98242" lon="98.90973">
        <time>2019-09-06T09:08:35Z</time>
      </trkpt>
      <trkpt lat="18.98232" lon="98.90992">
        <time>2019-09-06T09:08:36Z</time>
      </trkpt>
      <trkpt lat="18.98225" lon="98.91017">
        <time>2019-09-06T09:08:37Z</time>
      </trkpt>
      <trkpt lat="18.98213" lon="98.91042">
        <time>2019-09-06T09:08:38Z</time>
      </trkpt>
      <trkpt lat="18.982" lon="98.91058">
        <time>2019-09-06T09:08:39Z</time>
      </trkpt>
      <trkpt lat="18.98196" lon="98.9108">
        <time>2019-09-06T09:08:40Z</time>
      </trkpt>
      <trkpt lat="18.98192" lon="98.91095">
        <time>2019-09-06T09:08:41Z</time>
      </trkpt>
      <trkpt lat="18.98189" lon="98.91112">
        <time>2019-09-06T09:08:42Z</time>
      </trkpt>
      <trkpt lat="18.98185" lon="98.91126">
        <time>2019-09-06T09:08:43Z</time>
      </trkpt>
      <trkpt lat="18.98183" lon="98.91148">
        <time>2019-09-06T09:08:44Z</time>
      </trkpt>
      <trkpt lat="18.98191" lon="98.91164">
        <time>2019-09-06T09:08:45Z</time>
      </trkpt>
      <trkpt lat="18.98194" lon="98.91178">
        <time>2019-09-06T09:08:46Z</time>
      </trkpt>
      <trkpt lat="18.98198" lon="98.91196">
        <time>2019-09-06T09:08:48Z</time>
      </trkpt>
      <trkpt lat="18.982" lon="98.91209">
        <time>2019-09-06T09:08:48Z</time>
      </trkpt>
      <trkpt lat="18.982" lon="98.91219">
        <time>2019-09-06T09:08:49Z</time>
      </trkpt>
      <trkpt lat="18.98197" lon="98.91232">
        <time>2019-09-06T09:08:50Z</time>
      </trkpt>
      <trkpt lat="18.98194" lon="98.91243">
        <time>2019-09-06T09:08:51Z</time>
      </trkpt>
      <trkpt lat="18.98189" lon="98.91255">
        <time>2019-09-06T09:08:52Z</time>
      </trkpt>
      <trkpt lat="18.98188" lon="98.91279">
        <time>2019-09-06T09:08:53Z</time>
      </trkpt>
      <trkpt lat="18.98185" lon="98.91297">
        <time>2019-09-06T09:08:54Z</time>
      </trkpt>
      <trkpt lat="18.98184" lon="98.91305">
        <time>2019-09-06T09:08:55Z</time>
      </trkpt>
      <trkpt lat="18.98188" lon="98.91317">
        <time>2019-09-06T09:08:56Z</time>
      </trkpt>
      <trkpt lat="18.98186" lon="98.91324">
        <time>2019-09-06T09:08:57Z</time>
      </trkpt>
      <trkpt lat="18.98189" lon="98.9133">
        <time>2019-09-06T09:08:58Z</time>
      </trkpt>
      <trkpt lat="18.98187" lon="98.91344">
        <time>2019-09-06T09:08:59Z</time>
      </trkpt>
      <trkpt lat="18.98188" lon="98.91349">
        <time>2019-09-06T09:09:00Z</time>
      </trkpt>
      <trkpt lat="18.9819" lon="98.91353">
        <time>2019-09-06T09:09:01Z</time>
      </trkpt>
      <trkpt lat="18.98192" lon="98.91362">
        <time>2019-09-06T09:09:02Z</time>
      </trkpt>
      <trkpt lat="18.98195" lon="98.91369">
        <time>2019-09-06T09:09:03Z</time>
      </trkpt>
      <trkpt lat="18.98198" lon="98.9137">
        <time>2019-09-06T09:09:04Z</time>
      </trkpt>
      <trkpt lat="18.98205" lon="98.91373">
        <time>2019-09-06T09:09:05Z</time>
      </trkpt>
      <trkpt lat="18.98207" lon="98.91383">
        <time>2019-09-06T09:09:06Z</time>
      </trkpt>
      <trkpt lat="18.98215" lon="98.91385">
        <time>2019-09-06T09:09:07Z</time>
      </trkpt>
      <trkpt lat="18.98221" lon="98.91388">
        <time>2019-09-06T09:09:08Z</time>
      </trkpt>
      <trkpt lat="18.98227" lon="98.91389">
        <time>2019-09-06T09:09:09Z</time>
      </trkpt>
      <trkpt lat="18.98235" lon="98.9139">
        <time>2019-09-06T09:09:10Z</time>
      </trkpt>
      <trkpt lat="18.98243" lon="98.91391">
        <time>2019-09-06T09:09:11Z</time>
      </trkpt>
      <trkpt lat="18.98251" lon="98.91392">
        <time>2019-09-06T09:09:12Z</time>
      </trkpt>
      <trkpt lat="18.98257" lon="98.91393">
        <time>2019-09-06T09:09:13Z</time>
      </trkpt>
      <trkpt lat="18.98266" lon="98.91396">
        <time>2019-09-06T09:09:14Z</time>
      </trkpt>
      <trkpt lat="18.98273" lon="98.91398">
        <time>2019-09-06T09:09:15Z</time>
      </trkpt>
      <trkpt lat="18.9828" lon="98.914">
        <time>2019-09-06T09:09:16Z</time>
      </trkpt>
      <trkpt lat="18.98283" lon="98.91402">
        <time>2019-09-06T09:09:17Z</time>
      </trkpt>
      <trkpt lat="18.98289" lon="98.91402">
        <time>2019-09-06T09:09:18Z</time>
      </trkpt>
      <trkpt lat="18.98295" lon="98.91405">
        <time>2019-09-06T09:09:19Z</time>
      </trkpt>
      <trkpt lat="18.983" lon="98.9141">
        <time>2019-09-06T09:09:20Z</time>
      </trkpt>
      <trkpt lat="18.98304" lon="98.91414">
        <time>2019-09-06T09:09:21Z</time>
      </trkpt>
      <trkpt lat="18.98307" lon="98.91424">
        <time>2019-09-06T09:09:22Z</time>
      </trkpt>
      <trkpt lat="18.98313" lon="98.91431">
        <time>2019-09-06T09:09:23Z</time>
      </trkpt>
      <trkpt lat="18.98313" lon="98.91439">
        <time>2019-09-06T09:09:24Z</time>
      </trkpt>
      <trkpt lat="18.9831" lon="98.91448">
        <time>2019-09-06T09:09:25Z</time>
      </trkpt>
      <trkpt lat="18.9831" lon="98.91452">
        <time>2019-09-06T09:09:26Z</time>
      </trkpt>
      <trkpt lat="18.98308" lon="98.91472">
        <time>2019-09-06T09:09:28Z</time>
      </trkpt>
      <trkpt lat="18.98306" lon="98.91494">
        <time>2019-09-06T09:09:28Z</time>
      </trkpt>
      <trkpt lat="18.98305" lon="98.91505">
        <time>2019-09-06T09:09:29Z</time>
      </trkpt>
      <trkpt lat="18.98304" lon="98.9151">
        <time>2019-09-06T09:09:30Z</time>
      </trkpt>
      <trkpt lat="18.98304" lon="98.91518">
        <time>2019-09-06T09:09:31Z</time>
      </trkpt>
      <trkpt lat="18.98303" lon="98.91533">
        <time>2019-09-06T09:09:32Z</time>
      </trkpt>
      <trkpt lat="18.98303" lon="98.91546">
        <time>2019-09-06T09:09:33Z</time>
      </trkpt>
      <trkpt lat="18.98301" lon="98.91559">
        <time>2019-09-06T09:09:34Z</time>
      </trkpt>
      <trkpt lat="18.98299" lon="98.91569">
        <time>2019-09-06T09:09:35Z</time>
      </trkpt>
      <trkpt lat="18.98296" lon="98.91581">
        <time>2019-09-06T09:09:36Z</time>
      </trkpt>
      <trkpt lat="18.98296" lon="98.91591">
        <time>2019-09-06T09:09:37Z</time>
      </trkpt>
      <trkpt lat="18.98294" lon="98.91605">
        <time>2019-09-06T09:09:38Z</time>
      </trkpt>
      <trkpt lat="18.98292" lon="98.91617">
        <time>2019-09-06T09:09:39Z</time>
      </trkpt>
      <trkpt lat="18.98291" lon="98.91633">
        <time>2019-09-06T09:09:40Z</time>
      </trkpt>
      <trkpt lat="18.9829" lon="98.91643">
        <time>2019-09-06T09:09:41Z</time>
      </trkpt>
      <trkpt lat="18.98291" lon="98.91651">
        <time>2019-09-06T09:09:42Z</time>
      </trkpt>
      <trkpt lat="18.98291" lon="98.9166">
        <time>2019-09-06T09:09:43Z</time>
      </trkpt>
      <trkpt lat="18.98285" lon="98.91668">
        <time>2019-09-06T09:09:44Z</time>
      </trkpt>
      <trkpt lat="18.98282" lon="98.91675">
        <time>2019-09-06T09:09:45Z</time>
      </trkpt>
      <trkpt lat="18.98275" lon="98.91686">
        <time>2019-09-06T09:09:46Z</time>
      </trkpt>
      <trkpt lat="18.98271" lon="98.91694">
        <time>2019-09-06T09:09:47Z</time>
      </trkpt>
      <trkpt lat="18.98268" lon="98.91701">
        <time>2019-09-06T09:09:48Z</time>
      </trkpt>
      <trkpt lat="18.98258" lon="98.91715">
        <time>2019-09-06T09:09:49Z</time>
      </trkpt>
      <trkpt lat="18.98248" lon="98.91723">
        <time>2019-09-06T09:09:50Z</time>
      </trkpt>
      <trkpt lat="18.98233" lon="98.91735">
        <time>2019-09-06T09:09:51Z</time>
      </trkpt>
      <trkpt lat="18.98217" lon="98.91745">
        <time>2019-09-06T09:09:52Z</time>
      </trkpt>
      <trkpt lat="18.98199" lon="98.91757">
        <time>2019-09-06T09:09:53Z</time>
      </trkpt>
      <trkpt lat="18.98184" lon="98.91766">
        <time>2019-09-06T09:09:54Z</time>
      </trkpt>
      <trkpt lat="18.98168" lon="98.91777">
        <time>2019-09-06T09:09:55Z</time>
      </trkpt>
      <trkpt lat="18.98151" lon="98.91786">
        <time>2019-09-06T09:09:56Z</time>
      </trkpt>
      <trkpt lat="18.98131" lon="98.91786">
        <time>2019-09-06T09:09:57Z</time>
      </trkpt>
      <trkpt lat="18.98122" lon="98.91798">
        <time>2019-09-06T09:09:58Z</time>
      </trkpt>
      <trkpt lat="18.98108" lon="98.91806">
        <time>2019-09-06T09:09:59Z</time>
      </trkpt>
      <trkpt lat="18.98102" lon="98.91818">
        <time>2019-09-06T09:10:00Z</time>
      </trkpt>
      <trkpt lat="18.98096" lon="98.91831">
        <time>2019-09-06T09:10:01Z</time>
      </trkpt>
      <trkpt lat="18.98086" lon="98.91842">
        <time>2019-09-06T09:10:02Z</time>
      </trkpt>
      <trkpt lat="18.9808" lon="98.91852">
        <time>2019-09-06T09:10:03Z</time>
      </trkpt>
      <trkpt lat="18.98071" lon="98.91861">
        <time>2019-09-06T09:10:04Z</time>
      </trkpt>
      <trkpt lat="18.98062" lon="98.91863">
        <time>2019-09-06T09:10:05Z</time>
      </trkpt>
      <trkpt lat="18.98052" lon="98.91869">
        <time>2019-09-06T09:10:06Z</time>
      </trkpt>
      <trkpt lat="18.98034" lon="98.9187">
        <time>2019-09-06T09:10:07Z</time>
      </trkpt>
      <trkpt lat="18.98017" lon="98.91873">
        <time>2019-09-06T09:10:08Z</time>
      </trkpt>
      <trkpt lat="18.98002" lon="98.91874">
        <time>2019-09-06T09:10:09Z</time>
      </trkpt>
      <trkpt lat="18.9799" lon="98.91865">
        <time>2019-09-06T09:10:10Z</time>
      </trkpt>
      <trkpt lat="18.97977" lon="98.9186">
        <time>2019-09-06T09:10:11Z</time>
      </trkpt>
      <trkpt lat="18.97965" lon="98.91853">
        <time>2019-09-06T09:10:12Z</time>
      </trkpt>
      <trkpt lat="18.97954" lon="98.91834">
        <time>2019-09-06T09:10:13Z</time>
      </trkpt>
      <trkpt lat="18.97945" lon="98.91817">
        <time>2019-09-06T09:10:14Z</time>
      </trkpt>
      <trkpt lat="18.97937" lon="98.918">
        <time>2019-09-06T09:10:15Z</time>
      </trkpt>
      <trkpt lat="18.97928" lon="98.91786">
        <time>2019-09-06T09:10:16Z</time>
      </trkpt>
      <trkpt lat="18.97913" lon="98.91783">
        <time>2019-09-06T09:10:17Z</time>
      </trkpt>
      <trkpt lat="18.97898" lon="98.91775">
        <time>2019-09-06T09:10:18Z</time>
      </trkpt>
      <trkpt lat="18.97883" lon="98.91776">
        <time>2019-09-06T09:10:19Z</time>
      </trkpt>
      <trkpt lat="18.97866" lon="98.91776">
        <time>2019-09-06T09:10:20Z</time>
      </trkpt>
      <trkpt lat="18.9785" lon="98.91776">
        <time>2019-09-06T09:10:21Z</time>
      </trkpt>
      <trkpt lat="18.97833" lon="98.91779">
        <time>2019-09-06T09:10:22Z</time>
      </trkpt>
      <trkpt lat="18.97818" lon="98.9178">
        <time>2019-09-06T09:10:23Z</time>
      </trkpt>
      <trkpt lat="18.978" lon="98.91781">
        <time>2019-09-06T09:10:24Z</time>
      </trkpt>
      <trkpt lat="18.97785" lon="98.91784">
        <time>2019-09-06T09:10:25Z</time>
      </trkpt>
      <trkpt lat="18.97772" lon="98.91789">
        <time>2019-09-06T09:10:26Z</time>
      </trkpt>
      <trkpt lat="18.97753" lon="98.91796">
        <time>2019-09-06T09:10:27Z</time>
      </trkpt>
      <trkpt lat="18.97737" lon="98.918">
        <time>2019-09-06T09:10:28Z</time>
      </trkpt>
      <trkpt lat="18.97722" lon="98.91806">
        <time>2019-09-06T09:10:29Z</time>
      </trkpt>
      <trkpt lat="18.97705" lon="98.91809">
        <time>2019-09-06T09:10:30Z</time>
      </trkpt>
      <trkpt lat="18.97689" lon="98.91812">
        <time>2019-09-06T09:10:31Z</time>
      </trkpt>
      <trkpt lat="18.97675" lon="98.91815">
        <time>2019-09-06T09:10:32Z</time>
      </trkpt>
      <trkpt lat="18.97663" lon="98.91821">
        <time>2019-09-06T09:10:33Z</time>
      </trkpt>
      <trkpt lat="18.97648" lon="98.91828">
        <time>2019-09-06T09:10:34Z</time>
      </trkpt>
      <trkpt lat="18.97632" lon="98.91837">
        <time>2019-09-06T09:10:35Z</time>
      </trkpt>
      <trkpt lat="18.97618" lon="98.91846">
        <time>2019-09-06T09:10:36Z</time>
      </trkpt>
      <trkpt lat="18.97606" lon="98.91856">
        <time>2019-09-06T09:10:37Z</time>
      </trkpt>
      <trkpt lat="18.97583" lon="98.91864">
        <time>2019-09-06T09:10:38Z</time>
      </trkpt>
      <trkpt lat="18.97564" lon="98.91873">
        <time>2019-09-06T09:10:39Z</time>
      </trkpt>
      <trkpt lat="18.97545" lon="98.9188">
        <time>2019-09-06T09:10:40Z</time>
      </trkpt>
      <trkpt lat="18.97527" lon="98.91885">
        <time>2019-09-06T09:10:41Z</time>
      </trkpt>
      <trkpt lat="18.97511" lon="98.91896">
        <time>2019-09-06T09:10:42Z</time>
      </trkpt>
      <trkpt lat="18.97496" lon="98.91904">
        <time>2019-09-06T09:10:43Z</time>
      </trkpt>
      <trkpt lat="18.97483" lon="98.91916">
        <time>2019-09-06T09:10:44Z</time>
      </trkpt>
      <trkpt lat="18.97468" lon="98.91928">
        <time>2019-09-06T09:10:45Z</time>
      </trkpt>
      <trkpt lat="18.97451" lon="98.91939">
        <time>2019-09-06T09:10:46Z</time>
      </trkpt>
      <trkpt lat="18.97437" lon="98.91949">
        <time>2019-09-06T09:10:47Z</time>
      </trkpt>
      <trkpt lat="18.97419" lon="98.91958">
        <time>2019-09-06T09:10:48Z</time>
      </trkpt>
      <trkpt lat="18.97402" lon="98.91965">
        <time>2019-09-06T09:10:49Z</time>
      </trkpt>
      <trkpt lat="18.97385" lon="98.91973">
        <time>2019-09-06T09:10:50Z</time>
      </trkpt>
      <trkpt lat="18.97369" lon="98.9198">
        <time>2019-09-06T09:10:51Z</time>
      </trkpt>
      <trkpt lat="18.97354" lon="98.91987">
        <time>2019-09-06T09:10:52Z</time>
      </trkpt>
      <trkpt lat="18.97337" lon="98.91993">
        <time>2019-09-06T09:10:53Z</time>
      </trkpt>
      <trkpt lat="18.97323" lon="98.91999">
        <time>2019-09-06T09:10:54Z</time>
      </trkpt>
      <trkpt lat="18.97305" lon="98.92007">
        <time>2019-09-06T09:10:55Z</time>
      </trkpt>
      <trkpt lat="18.97287" lon="98.92012">
        <time>2019-09-06T09:10:56Z</time>
      </trkpt>
      <trkpt lat="18.97267" lon="98.92016">
        <time>2019-09-06T09:10:57Z</time>
      </trkpt>
      <trkpt lat="18.9725" lon="98.92017">
        <time>2019-09-06T09:10:58Z</time>
      </trkpt>
      <trkpt lat="18.97233" lon="98.92016">
        <time>2019-09-06T09:10:59Z</time>
      </trkpt>
      <trkpt lat="18.97218" lon="98.92015">
        <time>2019-09-06T09:11:00Z</time>
      </trkpt>
      <trkpt lat="18.97203" lon="98.92013">
        <time>2019-09-06T09:11:01Z</time>
      </trkpt>
      <trkpt lat="18.97191" lon="98.92011">
        <time>2019-09-06T09:11:02Z</time>
      </trkpt>
      <trkpt lat="18.97176" lon="98.92011">
        <time>2019-09-06T09:11:03Z</time>
      </trkpt>
      <trkpt lat="18.9716" lon="98.92009">
        <time>2019-09-06T09:11:04Z</time>
      </trkpt>
      <trkpt lat="18.97144" lon="98.92009">
        <time>2019-09-06T09:11:05Z</time>
      </trkpt>
      <trkpt lat="18.97128" lon="98.92013">
        <time>2019-09-06T09:11:06Z</time>
      </trkpt>
      <trkpt lat="18.97112" lon="98.92021">
        <time>2019-09-06T09:11:07Z</time>
      </trkpt>
      <trkpt lat="18.97096" lon="98.92024">
        <time>2019-09-06T09:11:08Z</time>
      </trkpt>
      <trkpt lat="18.9708" lon="98.92036">
        <time>2019-09-06T09:11:09Z</time>
      </trkpt>
      <trkpt lat="18.97066" lon="98.92045">
        <time>2019-09-06T09:11:10Z</time>
      </trkpt>
      <trkpt lat="18.97051" lon="98.92062">
        <time>2019-09-06T09:11:11Z</time>
      </trkpt>
      <trkpt lat="18.97035" lon="98.92075">
        <time>2019-09-06T09:11:12Z</time>
      </trkpt>
      <trkpt lat="18.97018" lon="98.92088">
        <time>2019-09-06T09:11:13Z</time>
      </trkpt>
      <trkpt lat="18.97004" lon="98.92105">
        <time>2019-09-06T09:11:14Z</time>
      </trkpt>
      <trkpt lat="18.96991" lon="98.92122">
        <time>2019-09-06T09:11:15Z</time>
      </trkpt>
      <trkpt lat="18.96982" lon="98.9213">
        <time>2019-09-06T09:11:16Z</time>
      </trkpt>
      <trkpt lat="18.96974" lon="98.92138">
        <time>2019-09-06T09:11:17Z</time>
      </trkpt>
      <trkpt lat="18.96961" lon="98.92144">
        <time>2019-09-06T09:11:18Z</time>
      </trkpt>
      <trkpt lat="18.96959" lon="98.92146">
        <time>2019-09-06T09:11:19Z</time>
      </trkpt>
      <trkpt lat="18.96947" lon="98.92151">
        <time>2019-09-06T09:11:20Z</time>
      </trkpt>
      <trkpt lat="18.96931" lon="98.92154">
        <time>2019-09-06T09:11:21Z</time>
      </trkpt>
      <trkpt lat="18.96919" lon="98.9216">
        <time>2019-09-06T09:11:22Z</time>
      </trkpt>
      <trkpt lat="18.96903" lon="98.92149">
        <time>2019-09-06T09:11:23Z</time>
      </trkpt>
      <trkpt lat="18.96886" lon="98.92141">
        <time>2019-09-06T09:11:24Z</time>
      </trkpt>
      <trkpt lat="18.96868" lon="98.92136">
        <time>2019-09-06T09:11:25Z</time>
      </trkpt>
      <trkpt lat="18.96852" lon="98.92132">
        <time>2019-09-06T09:11:26Z</time>
      </trkpt>
      <trkpt lat="18.96833" lon="98.92105">
        <time>2019-09-06T09:11:27Z</time>
      </trkpt>
      <trkpt lat="18.96814" lon="98.92091">
        <time>2019-09-06T09:11:28Z</time>
      </trkpt>
      <trkpt lat="18.96799" lon="98.92074">
        <time>2019-09-06T09:11:29Z</time>
      </trkpt>
      <trkpt lat="18.96783" lon="98.9206">
        <time>2019-09-06T09:11:30Z</time>
      </trkpt>
      <trkpt lat="18.9677" lon="98.92053">
        <time>2019-09-06T09:11:31Z</time>
      </trkpt>
      <trkpt lat="18.96756" lon="98.92045">
        <time>2019-09-06T09:11:32Z</time>
      </trkpt>
      <trkpt lat="18.9674" lon="98.92043">
        <time>2019-09-06T09:11:33Z</time>
      </trkpt>
      <trkpt lat="18.96723" lon="98.92044">
        <time>2019-09-06T09:11:34Z</time>
      </trkpt>
      <trkpt lat="18.96707" lon="98.92042">
        <time>2019-09-06T09:11:35Z</time>
      </trkpt>
      <trkpt lat="18.96691" lon="98.92045">
        <time>2019-09-06T09:11:36Z</time>
      </trkpt>
      <trkpt lat="18.96668" lon="98.92053">
        <time>2019-09-06T09:11:37Z</time>
      </trkpt>
      <trkpt lat="18.9665" lon="98.92058">
        <time>2019-09-06T09:11:38Z</time>
      </trkpt>
      <trkpt lat="18.96632" lon="98.92065">
        <time>2019-09-06T09:11:39Z</time>
      </trkpt>
      <trkpt lat="18.96616" lon="98.92074">
        <time>2019-09-06T09:11:40Z</time>
      </trkpt>
      <trkpt lat="18.966" lon="98.92083">
        <time>2019-09-06T09:11:41Z</time>
      </trkpt>
      <trkpt lat="18.96588" lon="98.92093">
        <time>2019-09-06T09:11:42Z</time>
      </trkpt>
      <trkpt lat="18.96573" lon="98.92103">
        <time>2019-09-06T09:11:43Z</time>
      </trkpt>
      <trkpt lat="18.96559" lon="98.9211">
        <time>2019-09-06T09:11:44Z</time>
      </trkpt>
      <trkpt lat="18.96546" lon="98.92114">
        <time>2019-09-06T09:11:45Z</time>
      </trkpt>
      <trkpt lat="18.96533" lon="98.92121">
        <time>2019-09-06T09:11:46Z</time>
      </trkpt>
      <trkpt lat="18.96521" lon="98.92126">
        <time>2019-09-06T09:11:47Z</time>
      </trkpt>
      <trkpt lat="18.96497" lon="98.92133">
        <time>2019-09-06T09:11:48Z</time>
      </trkpt>
      <trkpt lat="18.96485" lon="98.92137">
        <time>2019-09-06T09:11:49Z</time>
      </trkpt>
      <trkpt lat="18.96464" lon="98.92145">
        <time>2019-09-06T09:11:50Z</time>
      </trkpt>
      <trkpt lat="18.96441" lon="98.92152">
        <time>2019-09-06T09:11:51Z</time>
      </trkpt>
      <trkpt lat="18.96429" lon="98.92158">
        <time>2019-09-06T09:11:52Z</time>
      </trkpt>
      <trkpt lat="18.9641" lon="98.9217">
        <time>2019-09-06T09:11:53Z</time>
      </trkpt>
      <trkpt lat="18.96393" lon="98.92187">
        <time>2019-09-06T09:11:54Z</time>
      </trkpt>
      <trkpt lat="18.96374" lon="98.922">
        <time>2019-09-06T09:11:55Z</time>
      </trkpt>
      <trkpt lat="18.96357" lon="98.9221">
        <time>2019-09-06T09:11:56Z</time>
      </trkpt>
      <trkpt lat="18.96341" lon="98.92219">
        <time>2019-09-06T09:11:57Z</time>
      </trkpt>
      <trkpt lat="18.96321" lon="98.92229">
        <time>2019-09-06T09:11:58Z</time>
      </trkpt>
      <trkpt lat="18.963" lon="98.92238">
        <time>2019-09-06T09:11:59Z</time>
      </trkpt>
      <trkpt lat="18.96285" lon="98.92243">
        <time>2019-09-06T09:12:00Z</time>
      </trkpt>
      <trkpt lat="18.96276" lon="98.92241">
        <time>2019-09-06T09:12:01Z</time>
      </trkpt>
      <trkpt lat="18.96262" lon="98.9224">
        <time>2019-09-06T09:12:02Z</time>
      </trkpt>
      <trkpt lat="18.96248" lon="98.92237">
        <time>2019-09-06T09:12:03Z</time>
      </trkpt>
      <trkpt lat="18.96234" lon="98.92234">
        <time>2019-09-06T09:12:04Z</time>
      </trkpt>
      <trkpt lat="18.96221" lon="98.92227">
        <time>2019-09-06T09:12:05Z</time>
      </trkpt>
      <trkpt lat="18.96208" lon="98.92221">
        <time>2019-09-06T09:12:06Z</time>
      </trkpt>
      <trkpt lat="18.96196" lon="98.92215">
        <time>2019-09-06T09:12:07Z</time>
      </trkpt>
      <trkpt lat="18.96184" lon="98.92211">
        <time>2019-09-06T09:12:08Z</time>
      </trkpt>
      <trkpt lat="18.96173" lon="98.92205">
        <time>2019-09-06T09:12:09Z</time>
      </trkpt>
      <trkpt lat="18.96163" lon="98.92205">
        <time>2019-09-06T09:12:10Z</time>
      </trkpt>
      <trkpt lat="18.96153" lon="98.922">
        <time>2019-09-06T09:12:11Z</time>
      </trkpt>
      <trkpt lat="18.96143" lon="98.92196">
        <time>2019-09-06T09:12:12Z</time>
      </trkpt>
      <trkpt lat="18.96129" lon="98.92191">
        <time>2019-09-06T09:12:13Z</time>
      </trkpt>
      <trkpt lat="18.96115" lon="98.92186">
        <time>2019-09-06T09:12:14Z</time>
      </trkpt>
      <trkpt lat="18.96102" lon="98.92184">
        <time>2019-09-06T09:12:15Z</time>
      </trkpt>
      <trkpt lat="18.96088" lon="98.92183">
        <time>2019-09-06T09:12:16Z</time>
      </trkpt>
      <trkpt lat="18.96074" lon="98.92185">
        <time>2019-09-06T09:12:17Z</time>
      </trkpt>
      <trkpt lat="18.9606" lon="98.92189">
        <time>2019-09-06T09:12:18Z</time>
      </trkpt>
      <trkpt lat="18.96046" lon="98.92186">
        <time>2019-09-06T09:12:19Z</time>
      </trkpt>
      <trkpt lat="18.96033" lon="98.92185">
        <time>2019-09-06T09:12:20Z</time>
      </trkpt>
      <trkpt lat="18.96019" lon="98.92184">
        <time>2019-09-06T09:12:21Z</time>
      </trkpt>
      <trkpt lat="18.96005" lon="98.92184">
        <time>2019-09-06T09:12:22Z</time>
      </trkpt>
      <trkpt lat="18.95991" lon="98.92183">
        <time>2019-09-06T09:12:23Z</time>
      </trkpt>
      <trkpt lat="18.95976" lon="98.92178">
        <time>2019-09-06T09:12:24Z</time>
      </trkpt>
      <trkpt lat="18.95961" lon="98.92175">
        <time>2019-09-06T09:12:26Z</time>
      </trkpt>
      <trkpt lat="18.95948" lon="98.92172">
        <time>2019-09-06T09:12:26Z</time>
      </trkpt>
      <trkpt lat="18.95935" lon="98.92167">
        <time>2019-09-06T09:12:27Z</time>
      </trkpt>
      <trkpt lat="18.95923" lon="98.92159">
        <time>2019-09-06T09:12:28Z</time>
      </trkpt>
      <trkpt lat="18.95911" lon="98.92152">
        <time>2019-09-06T09:12:29Z</time>
      </trkpt>
      <trkpt lat="18.959" lon="98.92143">
        <time>2019-09-06T09:12:30Z</time>
      </trkpt>
      <trkpt lat="18.95885" lon="98.9214">
        <time>2019-09-06T09:12:31Z</time>
      </trkpt>
      <trkpt lat="18.95872" lon="98.92134">
        <time>2019-09-06T09:12:32Z</time>
      </trkpt>
      <trkpt lat="18.95857" lon="98.92128">
        <time>2019-09-06T09:12:33Z</time>
      </trkpt>
      <trkpt lat="18.95844" lon="98.92129">
        <time>2019-09-06T09:12:34Z</time>
      </trkpt>
      <trkpt lat="18.95831" lon="98.92128">
        <time>2019-09-06T09:12:35Z</time>
      </trkpt>
      <trkpt lat="18.95817" lon="98.92129">
        <time>2019-09-06T09:12:36Z</time>
      </trkpt>
      <trkpt lat="18.95804" lon="98.9213">
        <time>2019-09-06T09:12:37Z</time>
      </trkpt>
      <trkpt lat="18.95791" lon="98.92133">
        <time>2019-09-06T09:12:38Z</time>
      </trkpt>
      <trkpt lat="18.95779" lon="98.92142">
        <time>2019-09-06T09:12:39Z</time>
      </trkpt>
      <trkpt lat="18.95768" lon="98.92147">
        <time>2019-09-06T09:12:40Z</time>
      </trkpt>
      <trkpt lat="18.95756" lon="98.92154">
        <time>2019-09-06T09:12:41Z</time>
      </trkpt>
      <trkpt lat="18.95747" lon="98.92163">
        <time>2019-09-06T09:12:42Z</time>
      </trkpt>
      <trkpt lat="18.95738" lon="98.92173">
        <time>2019-09-06T09:12:43Z</time>
      </trkpt>
      <trkpt lat="18.95728" lon="98.92183">
        <time>2019-09-06T09:12:44Z</time>
      </trkpt>
      <trkpt lat="18.95718" lon="98.92193">
        <time>2019-09-06T09:12:45Z</time>
      </trkpt>
      <trkpt lat="18.95705" lon="98.92203">
        <time>2019-09-06T09:12:46Z</time>
      </trkpt>
      <trkpt lat="18.95693" lon="98.92214">
        <time>2019-09-06T09:12:47Z</time>
      </trkpt>
      <trkpt lat="18.95682" lon="98.92227">
        <time>2019-09-06T09:12:48Z</time>
      </trkpt>
      <trkpt lat="18.9567" lon="98.92236">
        <time>2019-09-06T09:12:49Z</time>
      </trkpt>
      <trkpt lat="18.95658" lon="98.92249">
        <time>2019-09-06T09:12:50Z</time>
      </trkpt>
      <trkpt lat="18.95643" lon="98.9226">
        <time>2019-09-06T09:12:51Z</time>
      </trkpt>
      <trkpt lat="18.95626" lon="98.92265">
        <time>2019-09-06T09:12:52Z</time>
      </trkpt>
      <trkpt lat="18.95611" lon="98.92273">
        <time>2019-09-06T09:12:53Z</time>
      </trkpt>
      <trkpt lat="18.95599" lon="98.92278">
        <time>2019-09-06T09:12:54Z</time>
      </trkpt>
      <trkpt lat="18.95583" lon="98.92287">
        <time>2019-09-06T09:12:55Z</time>
      </trkpt>
      <trkpt lat="18.95569" lon="98.92294">
        <time>2019-09-06T09:12:56Z</time>
      </trkpt>
      <trkpt lat="18.95555" lon="98.923">
        <time>2019-09-06T09:12:57Z</time>
      </trkpt>
      <trkpt lat="18.95547" lon="98.92309">
        <time>2019-09-06T09:12:58Z</time>
      </trkpt>
      <trkpt lat="18.95533" lon="98.92317">
        <time>2019-09-06T09:12:59Z</time>
      </trkpt>
      <trkpt lat="18.95515" lon="98.92323">
        <time>2019-09-06T09:13:00Z</time>
      </trkpt>
      <trkpt lat="18.955" lon="98.92329">
        <time>2019-09-06T09:13:01Z</time>
      </trkpt>
      <trkpt lat="18.95487" lon="98.92333">
        <time>2019-09-06T09:13:02Z</time>
      </trkpt>
      <trkpt lat="18.95474" lon="98.9234">
        <time>2019-09-06T09:13:03Z</time>
      </trkpt>
      <trkpt lat="18.9546" lon="98.92345">
        <time>2019-09-06T09:13:04Z</time>
      </trkpt>
      <trkpt lat="18.95449" lon="98.92351">
        <time>2019-09-06T09:13:05Z</time>
      </trkpt>
      <trkpt lat="18.95439" lon="98.92358">
        <time>2019-09-06T09:13:06Z</time>
      </trkpt>
      <trkpt lat="18.95429" lon="98.92362">
        <time>2019-09-06T09:13:07Z</time>
      </trkpt>
      <trkpt lat="18.95418" lon="98.92367">
        <time>2019-09-06T09:13:08Z</time>
      </trkpt>
      <trkpt lat="18.95404" lon="98.92381">
        <time>2019-09-06T09:13:09Z</time>
      </trkpt>
      <trkpt lat="18.95394" lon="98.92388">
        <time>2019-09-06T09:13:10Z</time>
      </trkpt>
      <trkpt lat="18.95382" lon="98.92396">
        <time>2019-09-06T09:13:11Z</time>
      </trkpt>
      <trkpt lat="18.95382" lon="98.92401">
        <time>2019-09-06T09:13:12Z</time>
      </trkpt>
      <trkpt lat="18.95369" lon="98.92412">
        <time>2019-09-06T09:13:13Z</time>
      </trkpt>
      <trkpt lat="18.95358" lon="98.9242">
        <time>2019-09-06T09:13:14Z</time>
      </trkpt>
      <trkpt lat="18.95348" lon="98.92427">
        <time>2019-09-06T09:13:15Z</time>
      </trkpt>
      <trkpt lat="18.9534" lon="98.92436">
        <time>2019-09-06T09:13:16Z</time>
      </trkpt>
      <trkpt lat="18.95331" lon="98.92444">
        <time>2019-09-06T09:13:17Z</time>
      </trkpt>
      <trkpt lat="18.95322" lon="98.92449">
        <time>2019-09-06T09:13:18Z</time>
      </trkpt>
      <trkpt lat="18.95313" lon="98.92453">
        <time>2019-09-06T09:13:19Z</time>
      </trkpt>
      <trkpt lat="18.95307" lon="98.92459">
        <time>2019-09-06T09:13:20Z</time>
      </trkpt>
      <trkpt lat="18.95303" lon="98.9246">
        <time>2019-09-06T09:13:21Z</time>
      </trkpt>
      <trkpt lat="18.95294" lon="98.92464">
        <time>2019-09-06T09:13:22Z</time>
      </trkpt>
      <trkpt lat="18.95283" lon="98.92466">
        <time>2019-09-06T09:13:23Z</time>
      </trkpt>
      <trkpt lat="18.95274" lon="98.92469">
        <time>2019-09-06T09:13:24Z</time>
      </trkpt>
      <trkpt lat="18.95259" lon="98.92473">
        <time>2019-09-06T09:13:25Z</time>
      </trkpt>
      <trkpt lat="18.95246" lon="98.92475">
        <time>2019-09-06T09:13:26Z</time>
      </trkpt>
      <trkpt lat="18.95232" lon="98.92478">
        <time>2019-09-06T09:13:27Z</time>
      </trkpt>
      <trkpt lat="18.95214" lon="98.92475">
        <time>2019-09-06T09:13:28Z</time>
      </trkpt>
      <trkpt lat="18.95195" lon="98.92477">
        <time>2019-09-06T09:13:29Z</time>
      </trkpt>
      <trkpt lat="18.95177" lon="98.9248">
        <time>2019-09-06T09:13:30Z</time>
      </trkpt>
      <trkpt lat="18.95156" lon="98.92484">
        <time>2019-09-06T09:13:31Z</time>
      </trkpt>
      <trkpt lat="18.95137" lon="98.92486">
        <time>2019-09-06T09:13:32Z</time>
      </trkpt>
      <trkpt lat="18.95117" lon="98.9249">
        <time>2019-09-06T09:13:33Z</time>
      </trkpt>
      <trkpt lat="18.951" lon="98.92494">
        <time>2019-09-06T09:13:34Z</time>
      </trkpt>
      <trkpt lat="18.95084" lon="98.92498">
        <time>2019-09-06T09:13:35Z</time>
      </trkpt>
      <trkpt lat="18.95067" lon="98.92502">
        <time>2019-09-06T09:13:36Z</time>
      </trkpt>
      <trkpt lat="18.95055" lon="98.92506">
        <time>2019-09-06T09:13:37Z</time>
      </trkpt>
      <trkpt lat="18.95037" lon="98.9251">
        <time>2019-09-06T09:13:38Z</time>
      </trkpt>
      <trkpt lat="18.95024" lon="98.92516">
        <time>2019-09-06T09:13:39Z</time>
      </trkpt>
      <trkpt lat="18.95012" lon="98.92519">
        <time>2019-09-06T09:13:40Z</time>
      </trkpt>
      <trkpt lat="18.94997" lon="98.92525">
        <time>2019-09-06T09:13:41Z</time>
      </trkpt>
      <trkpt lat="18.94984" lon="98.92529">
        <time>2019-09-06T09:13:42Z</time>
      </trkpt>
      <trkpt lat="18.9497" lon="98.92533">
        <time>2019-09-06T09:13:43Z</time>
      </trkpt>
      <trkpt lat="18.94962" lon="98.92534">
        <time>2019-09-06T09:13:44Z</time>
      </trkpt>
      <trkpt lat="18.94939" lon="98.92536">
        <time>2019-09-06T09:13:45Z</time>
      </trkpt>
      <trkpt lat="18.94923" lon="98.92549">
        <time>2019-09-06T09:13:46Z</time>
      </trkpt>
      <trkpt lat="18.94899" lon="98.92553">
        <time>2019-09-06T09:13:47Z</time>
      </trkpt>
      <trkpt lat="18.94881" lon="98.92561">
        <time>2019-09-06T09:13:48Z</time>
      </trkpt>
      <trkpt lat="18.94865" lon="98.92571">
        <time>2019-09-06T09:13:49Z</time>
      </trkpt>
      <trkpt lat="18.94846" lon="98.9258">
        <time>2019-09-06T09:13:50Z</time>
      </trkpt>
      <trkpt lat="18.94833" lon="98.92585">
        <time>2019-09-06T09:13:51Z</time>
      </trkpt>
      <trkpt lat="18.94818" lon="98.9259">
        <time>2019-09-06T09:13:52Z</time>
      </trkpt>
      <trkpt lat="18.94803" lon="98.92599">
        <time>2019-09-06T09:13:53Z</time>
      </trkpt>
      <trkpt lat="18.94789" lon="98.92607">
        <time>2019-09-06T09:13:54Z</time>
      </trkpt>
      <trkpt lat="18.94776" lon="98.92616">
        <time>2019-09-06T09:13:55Z</time>
      </trkpt>
      <trkpt lat="18.94768" lon="98.92618">
        <time>2019-09-06T09:13:56Z</time>
      </trkpt>
      <trkpt lat="18.94762" lon="98.92624">
        <time>2019-09-06T09:13:57Z</time>
      </trkpt>
      <trkpt lat="18.94754" lon="98.92628">
        <time>2019-09-06T09:13:58Z</time>
      </trkpt>
      <trkpt lat="18.9475" lon="98.9263">
        <time>2019-09-06T09:14:30Z</time>
      </trkpt>
      <trkpt lat="18.9475" lon="98.92629">
        <time>2019-09-06T09:14:30Z</time>
      </trkpt>
      <trkpt lat="18.94359" lon="98.92858">
        <time>2019-09-06T09:14:31Z</time>
      </trkpt>
      <trkpt lat="18.94346" lon="98.92867">
        <time>2019-09-06T09:14:32Z</time>
      </trkpt>
      <trkpt lat="18.94332" lon="98.92879">
        <time>2019-09-06T09:14:33Z</time>
      </trkpt>
      <trkpt lat="18.94317" lon="98.92888">
        <time>2019-09-06T09:14:34Z</time>
      </trkpt>
      <trkpt lat="18.94303" lon="98.92898">
        <time>2019-09-06T09:14:35Z</time>
      </trkpt>
      <trkpt lat="18.9429" lon="98.92907">
        <time>2019-09-06T09:14:36Z</time>
      </trkpt>
      <trkpt lat="18.94277" lon="98.92915">
        <time>2019-09-06T09:14:37Z</time>
      </trkpt>
      <trkpt lat="18.94264" lon="98.92922">
        <time>2019-09-06T09:14:38Z</time>
      </trkpt>
      <trkpt lat="18.94252" lon="98.92929">
        <time>2019-09-06T09:14:39Z</time>
      </trkpt>
      <trkpt lat="18.94238" lon="98.92936">
        <time>2019-09-06T09:14:40Z</time>
      </trkpt>
      <trkpt lat="18.94221" lon="98.92939">
        <time>2019-09-06T09:14:41Z</time>
      </trkpt>
      <trkpt lat="18.94207" lon="98.92942">
        <time>2019-09-06T09:14:42Z</time>
      </trkpt>
      <trkpt lat="18.94191" lon="98.92945">
        <time>2019-09-06T09:14:43Z</time>
      </trkpt>
      <trkpt lat="18.94174" lon="98.92949">
        <time>2019-09-06T09:14:44Z</time>
      </trkpt>
      <trkpt lat="18.94158" lon="98.92952">
        <time>2019-09-06T09:14:45Z</time>
      </trkpt>
      <trkpt lat="18.94144" lon="98.92954">
        <time>2019-09-06T09:14:46Z</time>
      </trkpt>
      <trkpt lat="18.94132" lon="98.92958">
        <time>2019-09-06T09:14:47Z</time>
      </trkpt>
      <trkpt lat="18.9412" lon="98.92963">
        <time>2019-09-06T09:14:48Z</time>
      </trkpt>
      <trkpt lat="18.94111" lon="98.92969">
        <time>2019-09-06T09:14:49Z</time>
      </trkpt>
      <trkpt lat="18.941" lon="98.92974">
        <time>2019-09-06T09:14:50Z</time>
      </trkpt>
      <trkpt lat="18.94091" lon="98.9298">
        <time>2019-09-06T09:14:51Z</time>
      </trkpt>
      <trkpt lat="18.94083" lon="98.92987">
        <time>2019-09-06T09:14:52Z</time>
      </trkpt>
      <trkpt lat="18.94076" lon="98.92992">
        <time>2019-09-06T09:14:53Z</time>
      </trkpt>
      <trkpt lat="18.94066" lon="98.93">
        <time>2019-09-06T09:14:54Z</time>
      </trkpt>
      <trkpt lat="18.9406" lon="98.93006">
        <time>2019-09-06T09:14:55Z</time>
      </trkpt>
      <trkpt lat="18.94049" lon="98.93015">
        <time>2019-09-06T09:14:56Z</time>
      </trkpt>
      <trkpt lat="18.94037" lon="98.93027">
        <time>2019-09-06T09:14:57Z</time>
      </trkpt>
      <trkpt lat="18.94027" lon="98.93036">
        <time>2019-09-06T09:14:58Z</time>
      </trkpt>
      <trkpt lat="18.94018" lon="98.93047">
        <time>2019-09-06T09:14:59Z</time>
      </trkpt>
      <trkpt lat="18.94007" lon="98.93057">
        <time>2019-09-06T09:15:00Z</time>
      </trkpt>
      <trkpt lat="18.93998" lon="98.93068">
        <time>2019-09-06T09:15:01Z</time>
      </trkpt>
      <trkpt lat="18.93989" lon="98.93078">
        <time>2019-09-06T09:15:02Z</time>
      </trkpt>
      <trkpt lat="18.93979" lon="98.9309">
        <time>2019-09-06T09:15:03Z</time>
      </trkpt>
      <trkpt lat="18.93967" lon="98.93098">
        <time>2019-09-06T09:15:04Z</time>
      </trkpt>
      <trkpt lat="18.93958" lon="98.9311">
        <time>2019-09-06T09:15:05Z</time>
      </trkpt>
      <trkpt lat="18.9395" lon="98.93117">
        <time>2019-09-06T09:15:06Z</time>
      </trkpt>
      <trkpt lat="18.9394" lon="98.93126">
        <time>2019-09-06T09:15:07Z</time>
      </trkpt>
      <trkpt lat="18.93927" lon="98.93137">
        <time>2019-09-06T09:15:08Z</time>
      </trkpt>
      <trkpt lat="18.93915" lon="98.93148">
        <time>2019-09-06T09:15:09Z</time>
      </trkpt>
      <trkpt lat="18.93904" lon="98.93155">
        <time>2019-09-06T09:15:10Z</time>
      </trkpt>
      <trkpt lat="18.93896" lon="98.93162">
        <time>2019-09-06T09:15:11Z</time>
      </trkpt>
      <trkpt lat="18.93882" lon="98.93169">
        <time>2019-09-06T09:15:12Z</time>
      </trkpt>
      <trkpt lat="18.9387" lon="98.93176">
        <time>2019-09-06T09:15:13Z</time>
      </trkpt>
      <trkpt lat="18.93859" lon="98.93184">
        <time>2019-09-06T09:15:14Z</time>
      </trkpt>
      <trkpt lat="18.93849" lon="98.93192">
        <time>2019-09-06T09:15:15Z</time>
      </trkpt>
      <trkpt lat="18.93839" lon="98.93199">
        <time>2019-09-06T09:15:16Z</time>
      </trkpt>
      <trkpt lat="18.93828" lon="98.93211">
        <time>2019-09-06T09:15:17Z</time>
      </trkpt>
      <trkpt lat="18.93822" lon="98.9322">
        <time>2019-09-06T09:15:18Z</time>
      </trkpt>
      <trkpt lat="18.93815" lon="98.93226">
        <time>2019-09-06T09:15:19Z</time>
      </trkpt>
      <trkpt lat="18.93806" lon="98.93232">
        <time>2019-09-06T09:15:20Z</time>
      </trkpt>
      <trkpt lat="18.93797" lon="98.93239">
        <time>2019-09-06T09:15:21Z</time>
      </trkpt>
      <trkpt lat="18.9379" lon="98.93245">
        <time>2019-09-06T09:15:22Z</time>
      </trkpt>
      <trkpt lat="18.93781" lon="98.93251">
        <time>2019-09-06T09:15:23Z</time>
      </trkpt>
      <trkpt lat="18.93775" lon="98.93255">
        <time>2019-09-06T09:15:24Z</time>
      </trkpt>
      <trkpt lat="18.93767" lon="98.9326">
        <time>2019-09-06T09:15:25Z</time>
      </trkpt>
      <trkpt lat="18.93759" lon="98.93264">
        <time>2019-09-06T09:15:26Z</time>
      </trkpt>
      <trkpt lat="18.93752" lon="98.93267">
        <time>2019-09-06T09:15:27Z</time>
      </trkpt>
      <trkpt lat="18.93744" lon="98.9327">
        <time>2019-09-06T09:15:28Z</time>
      </trkpt>
      <trkpt lat="18.93737" lon="98.93273">
        <time>2019-09-06T09:15:29Z</time>
      </trkpt>
      <trkpt lat="18.93731" lon="98.93276">
        <time>2019-09-06T09:15:30Z</time>
      </trkpt>
      <trkpt lat="18.93726" lon="98.93277">
        <time>2019-09-06T09:15:31Z</time>
      </trkpt>
      <trkpt lat="18.9372" lon="98.93279">
        <time>2019-09-06T09:15:32Z</time>
      </trkpt>
      <trkpt lat="18.93717" lon="98.93283">
        <time>2019-09-06T09:15:33Z</time>
      </trkpt>
      <trkpt lat="18.93715" lon="98.93284">
        <time>2019-09-06T09:15:34Z</time>
      </trkpt>
      <trkpt lat="18.93713" lon="98.93287">
        <time>2019-09-06T09:15:35Z</time>
      </trkpt>
      <trkpt lat="18.93713" lon="98.93292">
        <time>2019-09-06T09:15:36Z</time>
      </trkpt>
      <trkpt lat="18.93713" lon="98.93297">
        <time>2019-09-06T09:15:37Z</time>
      </trkpt>
      <trkpt lat="18.9371" lon="98.93302">
        <time>2019-09-06T09:15:38Z</time>
      </trkpt>
      <trkpt lat="18.93709" lon="98.9331">
        <time>2019-09-06T09:15:39Z</time>
      </trkpt>
      <trkpt lat="18.93709" lon="98.93319">
        <time>2019-09-06T09:15:40Z</time>
      </trkpt>
      <trkpt lat="18.93708" lon="98.93325">
        <time>2019-09-06T09:15:41Z</time>
      </trkpt>
      <trkpt lat="18.93704" lon="98.93334">
        <time>2019-09-06T09:15:42Z</time>
      </trkpt>
      <trkpt lat="18.93703" lon="98.93346">
        <time>2019-09-06T09:15:43Z</time>
      </trkpt>
      <trkpt lat="18.93704" lon="98.93356">
        <time>2019-09-06T09:15:44Z</time>
      </trkpt>
      <trkpt lat="18.93702" lon="98.93375">
        <time>2019-09-06T09:15:45Z</time>
      </trkpt>
      <trkpt lat="18.93701" lon="98.93385">
        <time>2019-09-06T09:15:46Z</time>
      </trkpt>
      <trkpt lat="18.937" lon="98.934">
        <time>2019-09-06T09:15:47Z</time>
      </trkpt>
      <trkpt lat="18.93698" lon="98.93415">
        <time>2019-09-06T09:15:48Z</time>
      </trkpt>
      <trkpt lat="18.93694" lon="98.93432">
        <time>2019-09-06T09:15:49Z</time>
      </trkpt>
      <trkpt lat="18.93691" lon="98.93449">
        <time>2019-09-06T09:15:50Z</time>
      </trkpt>
      <trkpt lat="18.93687" lon="98.93465">
        <time>2019-09-06T09:15:51Z</time>
      </trkpt>
      <trkpt lat="18.93683" lon="98.93479">
        <time>2019-09-06T09:15:52Z</time>
      </trkpt>
      <trkpt lat="18.93678" lon="98.93494">
        <time>2019-09-06T09:15:53Z</time>
      </trkpt>
      <trkpt lat="18.93671" lon="98.93508">
        <time>2019-09-06T09:15:54Z</time>
      </trkpt>
      <trkpt lat="18.93666" lon="98.93522">
        <time>2019-09-06T09:15:55Z</time>
      </trkpt>
      <trkpt lat="18.93661" lon="98.93537">
        <time>2019-09-06T09:15:56Z</time>
      </trkpt>
      <trkpt lat="18.93654" lon="98.9355">
        <time>2019-09-06T09:15:57Z</time>
      </trkpt>
      <trkpt lat="18.93655" lon="98.93559">
        <time>2019-09-06T09:15:58Z</time>
      </trkpt>
      <trkpt lat="18.9365" lon="98.93571">
        <time>2019-09-06T09:15:59Z</time>
      </trkpt>
      <trkpt lat="18.93641" lon="98.93583">
        <time>2019-09-06T09:16:00Z</time>
      </trkpt>
      <trkpt lat="18.93637" lon="98.93596">
        <time>2019-09-06T09:16:01Z</time>
      </trkpt>
      <trkpt lat="18.93632" lon="98.9361">
        <time>2019-09-06T09:16:02Z</time>
      </trkpt>
      <trkpt lat="18.93623" lon="98.93627">
        <time>2019-09-06T09:16:03Z</time>
      </trkpt>
      <trkpt lat="18.93617" lon="98.93643">
        <time>2019-09-06T09:16:04Z</time>
      </trkpt>
      <trkpt lat="18.93609" lon="98.9366">
        <time>2019-09-06T09:16:05Z</time>
      </trkpt>
      <trkpt lat="18.93602" lon="98.93679">
        <time>2019-09-06T09:16:06Z</time>
      </trkpt>
      <trkpt lat="18.93599" lon="98.937">
        <time>2019-09-06T09:16:07Z</time>
      </trkpt>
      <trkpt lat="18.93592" lon="98.93715">
        <time>2019-09-06T09:16:08Z</time>
      </trkpt>
      <trkpt lat="18.93583" lon="98.93732">
        <time>2019-09-06T09:16:09Z</time>
      </trkpt>
      <trkpt lat="18.93576" lon="98.93751">
        <time>2019-09-06T09:16:10Z</time>
      </trkpt>
      <trkpt lat="18.93567" lon="98.93764">
        <time>2019-09-06T09:16:11Z</time>
      </trkpt>
      <trkpt lat="18.93558" lon="98.93779">
        <time>2019-09-06T09:16:12Z</time>
      </trkpt>
      <trkpt lat="18.9355" lon="98.93795">
        <time>2019-09-06T09:16:13Z</time>
      </trkpt>
      <trkpt lat="18.93542" lon="98.93811">
        <time>2019-09-06T09:16:14Z</time>
      </trkpt>
      <trkpt lat="18.93531" lon="98.93823">
        <time>2019-09-06T09:16:15Z</time>
      </trkpt>
      <trkpt lat="18.93524" lon="98.93836">
        <time>2019-09-06T09:16:16Z</time>
      </trkpt>
      <trkpt lat="18.93516" lon="98.93848">
        <time>2019-09-06T09:16:17Z</time>
      </trkpt>
      <trkpt lat="18.93507" lon="98.93857">
        <time>2019-09-06T09:16:18Z</time>
      </trkpt>
      <trkpt lat="18.93502" lon="98.93868">
        <time>2019-09-06T09:16:19Z</time>
      </trkpt>
      <trkpt lat="18.93498" lon="98.93879">
        <time>2019-09-06T09:16:20Z</time>
      </trkpt>
      <trkpt lat="18.93492" lon="98.93889">
        <time>2019-09-06T09:16:21Z</time>
      </trkpt>
      <trkpt lat="18.93489" lon="98.93897">
        <time>2019-09-06T09:16:22Z</time>
      </trkpt>
      <trkpt lat="18.93484" lon="98.93906">
        <time>2019-09-06T09:16:23Z</time>
      </trkpt>
      <trkpt lat="18.93479" lon="98.93916">
        <time>2019-09-06T09:16:24Z</time>
      </trkpt>
      <trkpt lat="18.93474" lon="98.93924">
        <time>2019-09-06T09:16:25Z</time>
      </trkpt>
      <trkpt lat="18.93469" lon="98.93934">
        <time>2019-09-06T09:16:26Z</time>
      </trkpt>
      <trkpt lat="18.93464" lon="98.93944">
        <time>2019-09-06T09:16:27Z</time>
      </trkpt>
      <trkpt lat="18.93458" lon="98.93956">
        <time>2019-09-06T09:16:28Z</time>
      </trkpt>
      <trkpt lat="18.93453" lon="98.93963">
        <time>2019-09-06T09:16:29Z</time>
      </trkpt>
      <trkpt lat="18.93447" lon="98.93973">
        <time>2019-09-06T09:16:30Z</time>
      </trkpt>
      <trkpt lat="18.93442" lon="98.93981">
        <time>2019-09-06T09:16:31Z</time>
      </trkpt>
      <trkpt lat="18.93438" lon="98.93989">
        <time>2019-09-06T09:16:32Z</time>
      </trkpt>
      <trkpt lat="18.93435" lon="98.93997">
        <time>2019-09-06T09:16:33Z</time>
      </trkpt>
      <trkpt lat="18.9343" lon="98.94003">
        <time>2019-09-06T09:16:34Z</time>
      </trkpt>
      <trkpt lat="18.93425" lon="98.94008">
        <time>2019-09-06T09:16:35Z</time>
      </trkpt>
      <trkpt lat="18.93422" lon="98.94016">
        <time>2019-09-06T09:16:36Z</time>
      </trkpt>
      <trkpt lat="18.93419" lon="98.94022">
        <time>2019-09-06T09:16:37Z</time>
      </trkpt>
      <trkpt lat="18.93416" lon="98.94028">
        <time>2019-09-06T09:16:38Z</time>
      </trkpt>
      <trkpt lat="18.93413" lon="98.94035">
        <time>2019-09-06T09:16:39Z</time>
      </trkpt>
      <trkpt lat="18.93409" lon="98.94042">
        <time>2019-09-06T09:16:40Z</time>
      </trkpt>
      <trkpt lat="18.93407" lon="98.94046">
        <time>2019-09-06T09:16:41Z</time>
      </trkpt>
      <trkpt lat="18.93404" lon="98.94051">
        <time>2019-09-06T09:16:42Z</time>
      </trkpt>
      <trkpt lat="18.93402" lon="98.94057">
        <time>2019-09-06T09:16:43Z</time>
      </trkpt>
      <trkpt lat="18.93396" lon="98.94063">
        <time>2019-09-06T09:16:44Z</time>
      </trkpt>
      <trkpt lat="18.93392" lon="98.94067">
        <time>2019-09-06T09:16:45Z</time>
      </trkpt>
      <trkpt lat="18.93385" lon="98.94073">
        <time>2019-09-06T09:16:46Z</time>
      </trkpt>
      <trkpt lat="18.93384" lon="98.94073">
        <time>2019-09-06T09:16:47Z</time>
      </trkpt>
      <trkpt lat="18.9338" lon="98.94075">
        <time>2019-09-06T09:16:48Z</time>
      </trkpt>
      <trkpt lat="18.93382" lon="98.94077">
        <time>2019-09-06T09:16:49Z</time>
      </trkpt>
      <trkpt lat="18.93383" lon="98.94081">
        <time>2019-09-06T09:16:50Z</time>
      </trkpt>
      <trkpt lat="18.9338" lon="98.94084">
        <time>2019-09-06T09:16:51Z</time>
      </trkpt>
      <trkpt lat="18.9338" lon="98.94085">
        <time>2019-09-06T09:16:52Z</time>
      </trkpt>
      <trkpt lat="18.9338" lon="98.94085">
        <time>2019-09-06T09:16:53Z</time>
      </trkpt>
      <trkpt lat="18.9338" lon="98.94081">
        <time>2019-09-06T09:16:54Z</time>
      </trkpt>
      <trkpt lat="18.9338" lon="98.94084">
        <time>2019-09-06T09:16:55Z</time>
      </trkpt>
      <trkpt lat="18.93378" lon="98.94086">
        <time>2019-09-06T09:16:56Z</time>
      </trkpt>
      <trkpt lat="18.93382" lon="98.94079">
        <time>2019-09-06T09:17:05Z</time>
      </trkpt>
      <trkpt lat="18.93381" lon="98.94082">
        <time>2019-09-06T09:17:06Z</time>
      </trkpt>
      <trkpt lat="18.93379" lon="98.94085">
        <time>2019-09-06T09:17:07Z</time>
      </trkpt>
      <trkpt lat="18.93376" lon="98.94089">
        <time>2019-09-06T09:17:08Z</time>
      </trkpt>
      <trkpt lat="18.93372" lon="98.94092">
        <time>2019-09-06T09:17:09Z</time>
      </trkpt>
      <trkpt lat="18.93354" lon="98.94086">
        <time>2019-09-06T09:17:10Z</time>
      </trkpt>
      <trkpt lat="18.93348" lon="98.9408">
        <time>2019-09-06T09:17:11Z</time>
      </trkpt>
      <trkpt lat="18.93342" lon="98.94081">
        <time>2019-09-06T09:17:12Z</time>
      </trkpt>
      <trkpt lat="18.9333" lon="98.94073">
        <time>2019-09-06T09:17:13Z</time>
      </trkpt>
      <trkpt lat="18.93321" lon="98.94068">
        <time>2019-09-06T09:17:14Z</time>
      </trkpt>
      <trkpt lat="18.93311" lon="98.94063">
        <time>2019-09-06T09:17:15Z</time>
      </trkpt>
      <trkpt lat="18.933" lon="98.94057">
        <time>2019-09-06T09:17:16Z</time>
      </trkpt>
      <trkpt lat="18.93289" lon="98.94054">
        <time>2019-09-06T09:17:17Z</time>
      </trkpt>
      <trkpt lat="18.93279" lon="98.94051">
        <time>2019-09-06T09:17:18Z</time>
      </trkpt>
      <trkpt lat="18.93268" lon="98.94047">
        <time>2019-09-06T09:17:19Z</time>
      </trkpt>
      <trkpt lat="18.93255" lon="98.94041">
        <time>2019-09-06T09:17:20Z</time>
      </trkpt>
      <trkpt lat="18.93239" lon="98.94038">
        <time>2019-09-06T09:17:21Z</time>
      </trkpt>
      <trkpt lat="18.93224" lon="98.94035">
        <time>2019-09-06T09:17:22Z</time>
      </trkpt>
      <trkpt lat="18.93208" lon="98.94033">
        <time>2019-09-06T09:17:23Z</time>
      </trkpt>
      <trkpt lat="18.9319" lon="98.94032">
        <time>2019-09-06T09:17:24Z</time>
      </trkpt>
      <trkpt lat="18.93174" lon="98.94031">
        <time>2019-09-06T09:17:25Z</time>
      </trkpt>
      <trkpt lat="18.93157" lon="98.9403">
        <time>2019-09-06T09:17:26Z</time>
      </trkpt>
      <trkpt lat="18.93141" lon="98.9403">
        <time>2019-09-06T09:17:27Z</time>
      </trkpt>
      <trkpt lat="18.93124" lon="98.94032">
        <time>2019-09-06T09:17:28Z</time>
      </trkpt>
      <trkpt lat="18.93107" lon="98.94032">
        <time>2019-09-06T09:17:29Z</time>
      </trkpt>
      <trkpt lat="18.93088" lon="98.94036">
        <time>2019-09-06T09:17:30Z</time>
      </trkpt>
      <trkpt lat="18.93072" lon="98.9404">
        <time>2019-09-06T09:17:31Z</time>
      </trkpt>
      <trkpt lat="18.93056" lon="98.94044">
        <time>2019-09-06T09:17:32Z</time>
      </trkpt>
      <trkpt lat="18.93039" lon="98.94048">
        <time>2019-09-06T09:17:33Z</time>
      </trkpt>
      <trkpt lat="18.93023" lon="98.9405">
        <time>2019-09-06T09:17:34Z</time>
      </trkpt>
      <trkpt lat="18.93007" lon="98.94053">
        <time>2019-09-06T09:17:35Z</time>
      </trkpt>
      <trkpt lat="18.92988" lon="98.94051">
        <time>2019-09-06T09:17:36Z</time>
      </trkpt>
      <trkpt lat="18.9297" lon="98.9405">
        <time>2019-09-06T09:17:37Z</time>
      </trkpt>
      <trkpt lat="18.92952" lon="98.94048">
        <time>2019-09-06T09:17:38Z</time>
      </trkpt>
      <trkpt lat="18.92935" lon="98.94045">
        <time>2019-09-06T09:17:39Z</time>
      </trkpt>
      <trkpt lat="18.92919" lon="98.94041">
        <time>2019-09-06T09:17:40Z</time>
      </trkpt>
      <trkpt lat="18.92899" lon="98.94034">
        <time>2019-09-06T09:17:41Z</time>
      </trkpt>
      <trkpt lat="18.92878" lon="98.94025">
        <time>2019-09-06T09:17:42Z</time>
      </trkpt>
      <trkpt lat="18.92858" lon="98.9402">
        <time>2019-09-06T09:17:43Z</time>
      </trkpt>
      <trkpt lat="18.92838" lon="98.94014">
        <time>2019-09-06T09:17:44Z</time>
      </trkpt>
      <trkpt lat="18.92817" lon="98.94007">
        <time>2019-09-06T09:17:45Z</time>
      </trkpt>
      <trkpt lat="18.92798" lon="98.94">
        <time>2019-09-06T09:17:46Z</time>
      </trkpt>
      <trkpt lat="18.92779" lon="98.93993">
        <time>2019-09-06T09:17:47Z</time>
      </trkpt>
      <trkpt lat="18.92759" lon="98.93986">
        <time>2019-09-06T09:17:48Z</time>
      </trkpt>
      <trkpt lat="18.9274" lon="98.93978">
        <time>2019-09-06T09:17:49Z</time>
      </trkpt>
      <trkpt lat="18.9272" lon="98.93972">
        <time>2019-09-06T09:17:50Z</time>
      </trkpt>
      <trkpt lat="18.927" lon="98.93967">
        <time>2019-09-06T09:17:51Z</time>
      </trkpt>
      <trkpt lat="18.9268" lon="98.93961">
        <time>2019-09-06T09:17:52Z</time>
      </trkpt>
      <trkpt lat="18.92661" lon="98.93957">
        <time>2019-09-06T09:17:53Z</time>
      </trkpt>
      <trkpt lat="18.92642" lon="98.93954">
        <time>2019-09-06T09:17:54Z</time>
      </trkpt>
      <trkpt lat="18.92626" lon="98.93953">
        <time>2019-09-06T09:17:55Z</time>
      </trkpt>
      <trkpt lat="18.92609" lon="98.9395">
        <time>2019-09-06T09:17:56Z</time>
      </trkpt>
      <trkpt lat="18.92593" lon="98.93946">
        <time>2019-09-06T09:17:57Z</time>
      </trkpt>
      <trkpt lat="18.92579" lon="98.93944">
        <time>2019-09-06T09:17:58Z</time>
      </trkpt>
      <trkpt lat="18.92564" lon="98.93942">
        <time>2019-09-06T09:17:59Z</time>
      </trkpt>
      <trkpt lat="18.9255" lon="98.93939">
        <time>2019-09-06T09:18:00Z</time>
      </trkpt>
      <trkpt lat="18.92537" lon="98.93935">
        <time>2019-09-06T09:18:01Z</time>
      </trkpt>
      <trkpt lat="18.92523" lon="98.93933">
        <time>2019-09-06T09:18:02Z</time>
      </trkpt>
      <trkpt lat="18.9251" lon="98.93933">
        <time>2019-09-06T09:18:03Z</time>
      </trkpt>
      <trkpt lat="18.92497" lon="98.93934">
        <time>2019-09-06T09:18:04Z</time>
      </trkpt>
      <trkpt lat="18.92486" lon="98.93938">
        <time>2019-09-06T09:18:05Z</time>
      </trkpt>
      <trkpt lat="18.92474" lon="98.93941">
        <time>2019-09-06T09:18:06Z</time>
      </trkpt>
      <trkpt lat="18.92462" lon="98.93945">
        <time>2019-09-06T09:18:07Z</time>
      </trkpt>
      <trkpt lat="18.92451" lon="98.93951">
        <time>2019-09-06T09:18:08Z</time>
      </trkpt>
      <trkpt lat="18.92441" lon="98.93955">
        <time>2019-09-06T09:18:09Z</time>
      </trkpt>
      <trkpt lat="18.9243" lon="98.93963">
        <time>2019-09-06T09:18:10Z</time>
      </trkpt>
      <trkpt lat="18.92418" lon="98.9397">
        <time>2019-09-06T09:18:11Z</time>
      </trkpt>
      <trkpt lat="18.92408" lon="98.93976">
        <time>2019-09-06T09:18:12Z</time>
      </trkpt>
      <trkpt lat="18.92395" lon="98.93983">
        <time>2019-09-06T09:18:13Z</time>
      </trkpt>
      <trkpt lat="18.92385" lon="98.93987">
        <time>2019-09-06T09:18:14Z</time>
      </trkpt>
      <trkpt lat="18.92375" lon="98.93992">
        <time>2019-09-06T09:18:15Z</time>
      </trkpt>
      <trkpt lat="18.92366" lon="98.93996">
        <time>2019-09-06T09:18:16Z</time>
      </trkpt>
      <trkpt lat="18.92361" lon="98.94002">
        <time>2019-09-06T09:18:17Z</time>
      </trkpt>
      <trkpt lat="18.92352" lon="98.94008">
        <time>2019-09-06T09:18:18Z</time>
      </trkpt>
      <trkpt lat="18.92343" lon="98.94013">
        <time>2019-09-06T09:18:19Z</time>
      </trkpt>
      <trkpt lat="18.92337" lon="98.94016">
        <time>2019-09-06T09:18:20Z</time>
      </trkpt>
      <trkpt lat="18.92326" lon="98.94023">
        <time>2019-09-06T09:18:21Z</time>
      </trkpt>
      <trkpt lat="18.92316" lon="98.94029">
        <time>2019-09-06T09:18:22Z</time>
      </trkpt>
      <trkpt lat="18.92305" lon="98.94036">
        <time>2019-09-06T09:18:23Z</time>
      </trkpt>
      <trkpt lat="18.92294" lon="98.94043">
        <time>2019-09-06T09:18:24Z</time>
      </trkpt>
      <trkpt lat="18.92284" lon="98.94051">
        <time>2019-09-06T09:18:25Z</time>
      </trkpt>
      <trkpt lat="18.92272" lon="98.94058">
        <time>2019-09-06T09:18:26Z</time>
      </trkpt>
      <trkpt lat="18.9226" lon="98.94064">
        <time>2019-09-06T09:18:27Z</time>
      </trkpt>
      <trkpt lat="18.92248" lon="98.94071">
        <time>2019-09-06T09:18:28Z</time>
      </trkpt>
      <trkpt lat="18.92237" lon="98.94078">
        <time>2019-09-06T09:18:29Z</time>
      </trkpt>
      <trkpt lat="18.92227" lon="98.94085">
        <time>2019-09-06T09:18:30Z</time>
      </trkpt>
      <trkpt lat="18.92214" lon="98.94094">
        <time>2019-09-06T09:18:31Z</time>
      </trkpt>
      <trkpt lat="18.92204" lon="98.94102">
        <time>2019-09-06T09:18:32Z</time>
      </trkpt>
      <trkpt lat="18.92192" lon="98.94111">
        <time>2019-09-06T09:18:33Z</time>
      </trkpt>
      <trkpt lat="18.92181" lon="98.94119">
        <time>2019-09-06T09:18:34Z</time>
      </trkpt>
      <trkpt lat="18.92166" lon="98.94129">
        <time>2019-09-06T09:18:35Z</time>
      </trkpt>
      <trkpt lat="18.92151" lon="98.94138">
        <time>2019-09-06T09:18:36Z</time>
      </trkpt>
      <trkpt lat="18.92136" lon="98.94148">
        <time>2019-09-06T09:18:37Z</time>
      </trkpt>
      <trkpt lat="18.92119" lon="98.94156">
        <time>2019-09-06T09:18:38Z</time>
      </trkpt>
      <trkpt lat="18.92102" lon="98.94167">
        <time>2019-09-06T09:18:39Z</time>
      </trkpt>
      <trkpt lat="18.92085" lon="98.94177">
        <time>2019-09-06T09:18:40Z</time>
      </trkpt>
      <trkpt lat="18.92069" lon="98.94189">
        <time>2019-09-06T09:18:41Z</time>
      </trkpt>
      <trkpt lat="18.92048" lon="98.94199">
        <time>2019-09-06T09:18:42Z</time>
      </trkpt>
      <trkpt lat="18.92032" lon="98.94209">
        <time>2019-09-06T09:18:43Z</time>
      </trkpt>
      <trkpt lat="18.92014" lon="98.9422">
        <time>2019-09-06T09:18:44Z</time>
      </trkpt>
      <trkpt lat="18.91996" lon="98.94232">
        <time>2019-09-06T09:18:45Z</time>
      </trkpt>
      <trkpt lat="18.91978" lon="98.94243">
        <time>2019-09-06T09:18:46Z</time>
      </trkpt>
      <trkpt lat="18.91961" lon="98.94253">
        <time>2019-09-06T09:18:47Z</time>
      </trkpt>
      <trkpt lat="18.91944" lon="98.94265">
        <time>2019-09-06T09:18:48Z</time>
      </trkpt>
      <trkpt lat="18.91929" lon="98.94274">
        <time>2019-09-06T09:18:49Z</time>
      </trkpt>
      <trkpt lat="18.91913" lon="98.94283">
        <time>2019-09-06T09:18:50Z</time>
      </trkpt>
      <trkpt lat="18.91901" lon="98.94292">
        <time>2019-09-06T09:18:51Z</time>
      </trkpt>
      <trkpt lat="18.91888" lon="98.943">
        <time>2019-09-06T09:18:52Z</time>
      </trkpt>
      <trkpt lat="18.91877" lon="98.94307">
        <time>2019-09-06T09:18:53Z</time>
      </trkpt>
      <trkpt lat="18.91865" lon="98.94314">
        <time>2019-09-06T09:18:54Z</time>
      </trkpt>
      <trkpt lat="18.91852" lon="98.94322">
        <time>2019-09-06T09:18:55Z</time>
      </trkpt>
      <trkpt lat="18.9184" lon="98.9433">
        <time>2019-09-06T09:18:56Z</time>
      </trkpt>
      <trkpt lat="18.91829" lon="98.94337">
        <time>2019-09-06T09:18:57Z</time>
      </trkpt>
      <trkpt lat="18.91818" lon="98.94343">
        <time>2019-09-06T09:18:58Z</time>
      </trkpt>
      <trkpt lat="18.91808" lon="98.94351">
        <time>2019-09-06T09:18:59Z</time>
      </trkpt>
      <trkpt lat="18.91799" lon="98.94357">
        <time>2019-09-06T09:19:00Z</time>
      </trkpt>
      <trkpt lat="18.9179" lon="98.94362">
        <time>2019-09-06T09:19:01Z</time>
      </trkpt>
      <trkpt lat="18.91782" lon="98.94367">
        <time>2019-09-06T09:19:02Z</time>
      </trkpt>
      <trkpt lat="18.91777" lon="98.94371">
        <time>2019-09-06T09:19:03Z</time>
      </trkpt>
      <trkpt lat="18.9177" lon="98.94375">
        <time>2019-09-06T09:19:04Z</time>
      </trkpt>
      <trkpt lat="18.91762" lon="98.9438">
        <time>2019-09-06T09:19:05Z</time>
      </trkpt>
      <trkpt lat="18.91754" lon="98.94385">
        <time>2019-09-06T09:19:06Z</time>
      </trkpt>
      <trkpt lat="18.91745" lon="98.9439">
        <time>2019-09-06T09:19:07Z</time>
      </trkpt>
      <trkpt lat="18.91736" lon="98.94394">
        <time>2019-09-06T09:19:08Z</time>
      </trkpt>
      <trkpt lat="18.91727" lon="98.94399">
        <time>2019-09-06T09:19:09Z</time>
      </trkpt>
      <trkpt lat="18.91719" lon="98.94403">
        <time>2019-09-06T09:19:10Z</time>
      </trkpt>
      <trkpt lat="18.91711" lon="98.94409">
        <time>2019-09-06T09:19:11Z</time>
      </trkpt>
      <trkpt lat="18.91702" lon="98.94414">
        <time>2019-09-06T09:19:12Z</time>
      </trkpt>
      <trkpt lat="18.91695" lon="98.94417">
        <time>2019-09-06T09:19:13Z</time>
      </trkpt>
      <trkpt lat="18.91687" lon="98.94422">
        <time>2019-09-06T09:19:14Z</time>
      </trkpt>
      <trkpt lat="18.9168" lon="98.94425">
        <time>2019-09-06T09:19:15Z</time>
      </trkpt>
      <trkpt lat="18.91673" lon="98.94428">
        <time>2019-09-06T09:19:16Z</time>
      </trkpt>
      <trkpt lat="18.91666" lon="98.94432">
        <time>2019-09-06T09:19:17Z</time>
      </trkpt>
      <trkpt lat="18.9166" lon="98.94436">
        <time>2019-09-06T09:19:18Z</time>
      </trkpt>
      <trkpt lat="18.91654" lon="98.9444">
        <time>2019-09-06T09:19:19Z</time>
      </trkpt>
      <trkpt lat="18.91647" lon="98.94442">
        <time>2019-09-06T09:19:20Z</time>
      </trkpt>
      <trkpt lat="18.91642" lon="98.94445">
        <time>2019-09-06T09:19:21Z</time>
      </trkpt>
      <trkpt lat="18.9164" lon="98.94446">
        <time>2019-09-06T09:19:22Z</time>
      </trkpt>
      <trkpt lat="18.91635" lon="98.94449">
        <time>2019-09-06T09:19:23Z</time>
      </trkpt>
      <trkpt lat="18.91633" lon="98.94449">
        <time>2019-09-06T09:19:24Z</time>
      </trkpt>
      <trkpt lat="18.91626" lon="98.94456">
        <time>2019-09-06T09:19:25Z</time>
      </trkpt>
      <trkpt lat="18.91623" lon="98.9446">
        <time>2019-09-06T09:19:26Z</time>
      </trkpt>
      <trkpt lat="18.91615" lon="98.94466">
        <time>2019-09-06T09:19:27Z</time>
      </trkpt>
      <trkpt lat="18.9161" lon="98.9447">
        <time>2019-09-06T09:19:28Z</time>
      </trkpt>
      <trkpt lat="18.91602" lon="98.94471">
        <time>2019-09-06T09:19:29Z</time>
      </trkpt>
      <trkpt lat="18.91594" lon="98.94471">
        <time>2019-09-06T09:19:30Z</time>
      </trkpt>
      <trkpt lat="18.91583" lon="98.94477">
        <time>2019-09-06T09:19:31Z</time>
      </trkpt>
      <trkpt lat="18.91572" lon="98.94483">
        <time>2019-09-06T09:19:32Z</time>
      </trkpt>
      <trkpt lat="18.91564" lon="98.94485">
        <time>2019-09-06T09:19:33Z</time>
      </trkpt>
      <trkpt lat="18.91552" lon="98.9449">
        <time>2019-09-06T09:19:34Z</time>
      </trkpt>
      <trkpt lat="18.91538" lon="98.94494">
        <time>2019-09-06T09:19:35Z</time>
      </trkpt>
      <trkpt lat="18.91526" lon="98.945">
        <time>2019-09-06T09:19:36Z</time>
      </trkpt>
      <trkpt lat="18.91514" lon="98.94508">
        <time>2019-09-06T09:19:37Z</time>
      </trkpt>
      <trkpt lat="18.91496" lon="98.94516">
        <time>2019-09-06T09:19:38Z</time>
      </trkpt>
      <trkpt lat="18.91483" lon="98.94523">
        <time>2019-09-06T09:19:39Z</time>
      </trkpt>
      <trkpt lat="18.91468" lon="98.94528">
        <time>2019-09-06T09:19:40Z</time>
      </trkpt>
      <trkpt lat="18.91453" lon="98.94533">
        <time>2019-09-06T09:19:41Z</time>
      </trkpt>
      <trkpt lat="18.91437" lon="98.94536">
        <time>2019-09-06T09:19:42Z</time>
      </trkpt>
      <trkpt lat="18.91424" lon="98.94541">
        <time>2019-09-06T09:19:43Z</time>
      </trkpt>
      <trkpt lat="18.91411" lon="98.94547">
        <time>2019-09-06T09:19:44Z</time>
      </trkpt>
      <trkpt lat="18.91395" lon="98.9455">
        <time>2019-09-06T09:19:45Z</time>
      </trkpt>
      <trkpt lat="18.91386" lon="98.94557">
        <time>2019-09-06T09:19:46Z</time>
      </trkpt>
      <trkpt lat="18.91374" lon="98.94561">
        <time>2019-09-06T09:19:47Z</time>
      </trkpt>
      <trkpt lat="18.91362" lon="98.94563">
        <time>2019-09-06T09:19:48Z</time>
      </trkpt>
      <trkpt lat="18.91353" lon="98.94567">
        <time>2019-09-06T09:19:49Z</time>
      </trkpt>
      <trkpt lat="18.91342" lon="98.9457">
        <time>2019-09-06T09:19:50Z</time>
      </trkpt>
      <trkpt lat="18.91332" lon="98.94574">
        <time>2019-09-06T09:19:51Z</time>
      </trkpt>
      <trkpt lat="18.91323" lon="98.94577">
        <time>2019-09-06T09:19:52Z</time>
      </trkpt>
      <trkpt lat="18.91317" lon="98.94581">
        <time>2019-09-06T09:19:53Z</time>
      </trkpt>
      <trkpt lat="18.9131" lon="98.94585">
        <time>2019-09-06T09:19:54Z</time>
      </trkpt>
      <trkpt lat="18.91298" lon="98.94587">
        <time>2019-09-06T09:19:55Z</time>
      </trkpt>
      <trkpt lat="18.91285" lon="98.94584">
        <time>2019-09-06T09:19:56Z</time>
      </trkpt>
      <trkpt lat="18.91274" lon="98.94584">
        <time>2019-09-06T09:19:57Z</time>
      </trkpt>
      <trkpt lat="18.9127" lon="98.94585">
        <time>2019-09-06T09:19:58Z</time>
      </trkpt>
      <trkpt lat="18.91263" lon="98.9459">
        <time>2019-09-06T09:19:59Z</time>
      </trkpt>
      <trkpt lat="18.91257" lon="98.94596">
        <time>2019-09-06T09:20:00Z</time>
      </trkpt>
      <trkpt lat="18.91251" lon="98.946">
        <time>2019-09-06T09:20:01Z</time>
      </trkpt>
      <trkpt lat="18.91246" lon="98.94601">
        <time>2019-09-06T09:20:02Z</time>
      </trkpt>
      <trkpt lat="18.91236" lon="98.94604">
        <time>2019-09-06T09:20:03Z</time>
      </trkpt>
      <trkpt lat="18.91224" lon="98.94608">
        <time>2019-09-06T09:20:04Z</time>
      </trkpt>
      <trkpt lat="18.91214" lon="98.94612">
        <time>2019-09-06T09:20:05Z</time>
      </trkpt>
      <trkpt lat="18.91207" lon="98.94616">
        <time>2019-09-06T09:20:06Z</time>
      </trkpt>
      <trkpt lat="18.91202" lon="98.94619">
        <time>2019-09-06T09:20:07Z</time>
      </trkpt>
      <trkpt lat="18.91195" lon="98.94622">
        <time>2019-09-06T09:20:08Z</time>
      </trkpt>
      <trkpt lat="18.91189" lon="98.94627">
        <time>2019-09-06T09:20:09Z</time>
      </trkpt>
      <trkpt lat="18.9118" lon="98.94632">
        <time>2019-09-06T09:20:10Z</time>
      </trkpt>
      <trkpt lat="18.91175" lon="98.94636">
        <time>2019-09-06T09:20:11Z</time>
      </trkpt>
      <trkpt lat="18.91166" lon="98.94639">
        <time>2019-09-06T09:20:12Z</time>
      </trkpt>
      <trkpt lat="18.91157" lon="98.94643">
        <time>2019-09-06T09:20:13Z</time>
      </trkpt>
      <trkpt lat="18.91148" lon="98.94644">
        <time>2019-09-06T09:20:14Z</time>
      </trkpt>
      <trkpt lat="18.9114" lon="98.94648">
        <time>2019-09-06T09:20:15Z</time>
      </trkpt>
      <trkpt lat="18.91129" lon="98.9465">
        <time>2019-09-06T09:20:16Z</time>
      </trkpt>
      <trkpt lat="18.9112" lon="98.94652">
        <time>2019-09-06T09:20:17Z</time>
      </trkpt>
      <trkpt lat="18.91113" lon="98.9466">
        <time>2019-09-06T09:20:18Z</time>
      </trkpt>
      <trkpt lat="18.91109" lon="98.94659">
        <time>2019-09-06T09:20:19Z</time>
      </trkpt>
      <trkpt lat="18.91105" lon="98.94662">
        <time>2019-09-06T09:20:20Z</time>
      </trkpt>
      <trkpt lat="18.911" lon="98.94662">
        <time>2019-09-06T09:20:21Z</time>
      </trkpt>
      <trkpt lat="18.91098" lon="98.94664">
        <time>2019-09-06T09:20:22Z</time>
      </trkpt>
      <trkpt lat="18.91096" lon="98.94664">
        <time>2019-09-06T09:20:23Z</time>
      </trkpt>
      <trkpt lat="18.91097" lon="98.94664">
        <time>2019-09-06T09:20:24Z</time>
      </trkpt>
      <trkpt lat="18.91095" lon="98.94666">
        <time>2019-09-06T09:20:25Z</time>
      </trkpt>
      <trkpt lat="18.91093" lon="98.9467">
        <time>2019-09-06T09:20:26Z</time>
      </trkpt>
      <trkpt lat="18.91091" lon="98.9467">
        <time>2019-09-06T09:20:27Z</time>
      </trkpt>
      <trkpt lat="18.91087" lon="98.94669">
        <time>2019-09-06T09:20:28Z</time>
      </trkpt>
      <trkpt lat="18.91083" lon="98.9467">
        <time>2019-09-06T09:20:29Z</time>
      </trkpt>
      <trkpt lat="18.9108" lon="98.94673">
        <time>2019-09-06T09:20:30Z</time>
      </trkpt>
      <trkpt lat="18.91077" lon="98.94673">
        <time>2019-09-06T09:20:31Z</time>
      </trkpt>
      <trkpt lat="18.91071" lon="98.94673">
        <time>2019-09-06T09:20:32Z</time>
      </trkpt>
      <trkpt lat="18.91066" lon="98.94675">
        <time>2019-09-06T09:20:33Z</time>
      </trkpt>
      <trkpt lat="18.91062" lon="98.94675">
        <time>2019-09-06T09:20:34Z</time>
      </trkpt>
      <trkpt lat="18.91058" lon="98.94676">
        <time>2019-09-06T09:20:35Z</time>
      </trkpt>
      <trkpt lat="18.91057" lon="98.94682">
        <time>2019-09-06T09:20:36Z</time>
      </trkpt>
      <trkpt lat="18.91052" lon="98.94683">
        <time>2019-09-06T09:20:37Z</time>
      </trkpt>
      <trkpt lat="18.91046" lon="98.94684">
        <time>2019-09-06T09:20:38Z</time>
      </trkpt>
      <trkpt lat="18.91041" lon="98.94686">
        <time>2019-09-06T09:20:39Z</time>
      </trkpt>
      <trkpt lat="18.91032" lon="98.94691">
        <time>2019-09-06T09:20:40Z</time>
      </trkpt>
      <trkpt lat="18.91027" lon="98.94694">
        <time>2019-09-06T09:20:41Z</time>
      </trkpt>
      <trkpt lat="18.91022" lon="98.94697">
        <time>2019-09-06T09:20:42Z</time>
      </trkpt>
      <trkpt lat="18.91017" lon="98.947">
        <time>2019-09-06T09:20:43Z</time>
      </trkpt>
      <trkpt lat="18.9101" lon="98.94702">
        <time>2019-09-06T09:20:44Z</time>
      </trkpt>
      <trkpt lat="18.91004" lon="98.94705">
        <time>2019-09-06T09:20:45Z</time>
      </trkpt>
      <trkpt lat="18.90998" lon="98.94706">
        <time>2019-09-06T09:20:46Z</time>
      </trkpt>
      <trkpt lat="18.90994" lon="98.94711">
        <time>2019-09-06T09:20:47Z</time>
      </trkpt>
      <trkpt lat="18.90988" lon="98.94712">
        <time>2019-09-06T09:20:48Z</time>
      </trkpt>
      <trkpt lat="18.90982" lon="98.94715">
        <time>2019-09-06T09:20:49Z</time>
      </trkpt>
      <trkpt lat="18.90974" lon="98.94716">
        <time>2019-09-06T09:20:50Z</time>
      </trkpt>
      <trkpt lat="18.90968" lon="98.94719">
        <time>2019-09-06T09:20:51Z</time>
      </trkpt>
      <trkpt lat="18.90959" lon="98.94723">
        <time>2019-09-06T09:20:52Z</time>
      </trkpt>
      <trkpt lat="18.9095" lon="98.94726">
        <time>2019-09-06T09:20:53Z</time>
      </trkpt>
      <trkpt lat="18.90943" lon="98.94729">
        <time>2019-09-06T09:20:54Z</time>
      </trkpt>
      <trkpt lat="18.9094" lon="98.94733">
        <time>2019-09-06T09:20:55Z</time>
      </trkpt>
      <trkpt lat="18.9093" lon="98.94736">
        <time>2019-09-06T09:20:57Z</time>
      </trkpt>
      <trkpt lat="18.9092" lon="98.94739">
        <time>2019-09-06T09:20:57Z</time>
      </trkpt>
      <trkpt lat="18.90909" lon="98.94741">
        <time>2019-09-06T09:20:58Z</time>
      </trkpt>
      <trkpt lat="18.90903" lon="98.94743">
        <time>2019-09-06T09:20:59Z</time>
      </trkpt>
      <trkpt lat="18.90893" lon="98.94745">
        <time>2019-09-06T09:21:00Z</time>
      </trkpt>
      <trkpt lat="18.90884" lon="98.94748">
        <time>2019-09-06T09:21:01Z</time>
      </trkpt>
      <trkpt lat="18.90878" lon="98.94752">
        <time>2019-09-06T09:21:02Z</time>
      </trkpt>
      <trkpt lat="18.90873" lon="98.94757">
        <time>2019-09-06T09:21:03Z</time>
      </trkpt>
      <trkpt lat="18.90867" lon="98.94761">
        <time>2019-09-06T09:21:04Z</time>
      </trkpt>
      <trkpt lat="18.90863" lon="98.94765">
        <time>2019-09-06T09:21:05Z</time>
      </trkpt>
      <trkpt lat="18.90859" lon="98.94767">
        <time>2019-09-06T09:21:06Z</time>
      </trkpt>
      <trkpt lat="18.9085" lon="98.9477">
        <time>2019-09-06T09:21:07Z</time>
      </trkpt>
      <trkpt lat="18.90847" lon="98.94771">
        <time>2019-09-06T09:21:08Z</time>
      </trkpt>
      <trkpt lat="18.90837" lon="98.94772">
        <time>2019-09-06T09:21:09Z</time>
      </trkpt>
      <trkpt lat="18.9083" lon="98.94777">
        <time>2019-09-06T09:21:10Z</time>
      </trkpt>
      <trkpt lat="18.90823" lon="98.94783">
        <time>2019-09-06T09:21:11Z</time>
      </trkpt>
      <trkpt lat="18.90816" lon="98.94785">
        <time>2019-09-06T09:21:12Z</time>
      </trkpt>
      <trkpt lat="18.90812" lon="98.94786">
        <time>2019-09-06T09:21:13Z</time>
      </trkpt>
      <trkpt lat="18.90808" lon="98.94788">
        <time>2019-09-06T09:21:14Z</time>
      </trkpt>
      <trkpt lat="18.90805" lon="98.94788">
        <time>2019-09-06T09:21:15Z</time>
      </trkpt>
      <trkpt lat="18.90802" lon="98.9479">
        <time>2019-09-06T09:21:16Z</time>
      </trkpt>
      <trkpt lat="18.90801" lon="98.9479">
        <time>2019-09-06T09:21:17Z</time>
      </trkpt>
      <trkpt lat="18.90799" lon="98.94791">
        <time>2019-09-06T09:21:18Z</time>
      </trkpt>
      <trkpt lat="18.90796" lon="98.94791">
        <time>2019-09-06T09:21:19Z</time>
      </trkpt>
      <trkpt lat="18.90794" lon="98.94792">
        <time>2019-09-06T09:21:20Z</time>
      </trkpt>
      <trkpt lat="18.90793" lon="98.94792">
        <time>2019-09-06T09:21:21Z</time>
      </trkpt>
      <trkpt lat="18.90791" lon="98.94792">
        <time>2019-09-06T09:21:22Z</time>
      </trkpt>
      <trkpt lat="18.90791" lon="98.94791">
        <time>2019-09-06T09:21:23Z</time>
      </trkpt>
      <trkpt lat="18.9079" lon="98.94791">
        <time>2019-09-06T09:21:24Z</time>
      </trkpt>
      <trkpt lat="18.90788" lon="98.94788">
        <time>2019-09-06T09:23:01Z</time>
      </trkpt>
      <trkpt lat="18.90785" lon="98.9479">
        <time>2019-09-06T09:23:02Z</time>
      </trkpt>
      <trkpt lat="18.9078" lon="98.94796">
        <time>2019-09-06T09:23:03Z</time>
      </trkpt>
      <trkpt lat="18.90766" lon="98.94798">
        <time>2019-09-06T09:23:04Z</time>
      </trkpt>
      <trkpt lat="18.90754" lon="98.94801">
        <time>2019-09-06T09:23:05Z</time>
      </trkpt>
      <trkpt lat="18.9074" lon="98.94805">
        <time>2019-09-06T09:23:06Z</time>
      </trkpt>
      <trkpt lat="18.90725" lon="98.9481">
        <time>2019-09-06T09:23:07Z</time>
      </trkpt>
      <trkpt lat="18.9071" lon="98.94817">
        <time>2019-09-06T09:23:08Z</time>
      </trkpt>
      <trkpt lat="18.90694" lon="98.94822">
        <time>2019-09-06T09:23:09Z</time>
      </trkpt>
      <trkpt lat="18.90678" lon="98.9483">
        <time>2019-09-06T09:23:10Z</time>
      </trkpt>
      <trkpt lat="18.9066" lon="98.94837">
        <time>2019-09-06T09:23:11Z</time>
      </trkpt>
      <trkpt lat="18.90642" lon="98.94845">
        <time>2019-09-06T09:23:12Z</time>
      </trkpt>
      <trkpt lat="18.90625" lon="98.94851">
        <time>2019-09-06T09:23:13Z</time>
      </trkpt>
      <trkpt lat="18.90609" lon="98.94858">
        <time>2019-09-06T09:23:14Z</time>
      </trkpt>
      <trkpt lat="18.90592" lon="98.94864">
        <time>2019-09-06T09:23:15Z</time>
      </trkpt>
      <trkpt lat="18.90576" lon="98.94871">
        <time>2019-09-06T09:23:16Z</time>
      </trkpt>
      <trkpt lat="18.90561" lon="98.94878">
        <time>2019-09-06T09:23:17Z</time>
      </trkpt>
      <trkpt lat="18.90546" lon="98.94885">
        <time>2019-09-06T09:23:18Z</time>
      </trkpt>
      <trkpt lat="18.90529" lon="98.94891">
        <time>2019-09-06T09:23:19Z</time>
      </trkpt>
      <trkpt lat="18.90512" lon="98.94899">
        <time>2019-09-06T09:23:20Z</time>
      </trkpt>
      <trkpt lat="18.90493" lon="98.94907">
        <time>2019-09-06T09:23:21Z</time>
      </trkpt>
      <trkpt lat="18.90474" lon="98.94914">
        <time>2019-09-06T09:23:22Z</time>
      </trkpt>
      <trkpt lat="18.90457" lon="98.94921">
        <time>2019-09-06T09:23:23Z</time>
      </trkpt>
      <trkpt lat="18.90443" lon="98.94927">
        <time>2019-09-06T09:23:24Z</time>
      </trkpt>
      <trkpt lat="18.9043" lon="98.94933">
        <time>2019-09-06T09:23:25Z</time>
      </trkpt>
      <trkpt lat="18.90418" lon="98.94937">
        <time>2019-09-06T09:23:26Z</time>
      </trkpt>
      <trkpt lat="18.90407" lon="98.94941">
        <time>2019-09-06T09:23:27Z</time>
      </trkpt>
      <trkpt lat="18.90397" lon="98.94944">
        <time>2019-09-06T09:23:28Z</time>
      </trkpt>
      <trkpt lat="18.90388" lon="98.94947">
        <time>2019-09-06T09:23:29Z</time>
      </trkpt>
      <trkpt lat="18.90378" lon="98.94951">
        <time>2019-09-06T09:23:30Z</time>
      </trkpt>
      <trkpt lat="18.90366" lon="98.94954">
        <time>2019-09-06T09:23:31Z</time>
      </trkpt>
      <trkpt lat="18.90355" lon="98.94957">
        <time>2019-09-06T09:23:32Z</time>
      </trkpt>
      <trkpt lat="18.90344" lon="98.9496">
        <time>2019-09-06T09:23:33Z</time>
      </trkpt>
      <trkpt lat="18.90332" lon="98.94963">
        <time>2019-09-06T09:23:34Z</time>
      </trkpt>
      <trkpt lat="18.90318" lon="98.94966">
        <time>2019-09-06T09:23:35Z</time>
      </trkpt>
      <trkpt lat="18.90302" lon="98.94971">
        <time>2019-09-06T09:23:36Z</time>
      </trkpt>
      <trkpt lat="18.90285" lon="98.94978">
        <time>2019-09-06T09:23:37Z</time>
      </trkpt>
      <trkpt lat="18.90225" lon="98.94998">
        <time>2019-09-06T09:23:41Z</time>
      </trkpt>
      <trkpt lat="18.90205" lon="98.95006">
        <time>2019-09-06T09:23:41Z</time>
      </trkpt>
      <trkpt lat="18.90186" lon="98.95013">
        <time>2019-09-06T09:23:42Z</time>
      </trkpt>
      <trkpt lat="18.90167" lon="98.95019">
        <time>2019-09-06T09:23:43Z</time>
      </trkpt>
      <trkpt lat="18.90148" lon="98.95025">
        <time>2019-09-06T09:23:44Z</time>
      </trkpt>
      <trkpt lat="18.90127" lon="98.95032">
        <time>2019-09-06T09:23:45Z</time>
      </trkpt>
      <trkpt lat="18.90108" lon="98.95039">
        <time>2019-09-06T09:23:46Z</time>
      </trkpt>
      <trkpt lat="18.90087" lon="98.95046">
        <time>2019-09-06T09:23:47Z</time>
      </trkpt>
      <trkpt lat="18.90065" lon="98.95053">
        <time>2019-09-06T09:23:48Z</time>
      </trkpt>
      <trkpt lat="18.90043" lon="98.9506">
        <time>2019-09-06T09:23:49Z</time>
      </trkpt>
      <trkpt lat="18.90021" lon="98.95069">
        <time>2019-09-06T09:23:50Z</time>
      </trkpt>
      <trkpt lat="18.89999" lon="98.95076">
        <time>2019-09-06T09:23:51Z</time>
      </trkpt>
      <trkpt lat="18.89977" lon="98.95083">
        <time>2019-09-06T09:23:52Z</time>
      </trkpt>
      <trkpt lat="18.89956" lon="98.9509">
        <time>2019-09-06T09:23:53Z</time>
      </trkpt>
      <trkpt lat="18.89935" lon="98.95098">
        <time>2019-09-06T09:23:54Z</time>
      </trkpt>
      <trkpt lat="18.89915" lon="98.95105">
        <time>2019-09-06T09:23:55Z</time>
      </trkpt>
      <trkpt lat="18.89894" lon="98.95113">
        <time>2019-09-06T09:23:56Z</time>
      </trkpt>
      <trkpt lat="18.89873" lon="98.9512">
        <time>2019-09-06T09:23:57Z</time>
      </trkpt>
      <trkpt lat="18.89852" lon="98.95127">
        <time>2019-09-06T09:23:58Z</time>
      </trkpt>
      <trkpt lat="18.8983" lon="98.95133">
        <time>2019-09-06T09:23:59Z</time>
      </trkpt>
      <trkpt lat="18.89808" lon="98.9514">
        <time>2019-09-06T09:24:00Z</time>
      </trkpt>
      <trkpt lat="18.89787" lon="98.95146">
        <time>2019-09-06T09:24:01Z</time>
      </trkpt>
      <trkpt lat="18.89766" lon="98.95154">
        <time>2019-09-06T09:24:02Z</time>
      </trkpt>
      <trkpt lat="18.89744" lon="98.9516">
        <time>2019-09-06T09:24:03Z</time>
      </trkpt>
      <trkpt lat="18.89721" lon="98.95167">
        <time>2019-09-06T09:24:04Z</time>
      </trkpt>
      <trkpt lat="18.89699" lon="98.95176">
        <time>2019-09-06T09:24:05Z</time>
      </trkpt>
      <trkpt lat="18.89677" lon="98.95182">
        <time>2019-09-06T09:24:06Z</time>
      </trkpt>
      <trkpt lat="18.89655" lon="98.95189">
        <time>2019-09-06T09:24:07Z</time>
      </trkpt>
      <trkpt lat="18.89633" lon="98.95196">
        <time>2019-09-06T09:24:08Z</time>
      </trkpt>
      <trkpt lat="18.8961" lon="98.95204">
        <time>2019-09-06T09:24:09Z</time>
      </trkpt>
      <trkpt lat="18.89588" lon="98.9521">
        <time>2019-09-06T09:24:10Z</time>
      </trkpt>
      <trkpt lat="18.89566" lon="98.95219">
        <time>2019-09-06T09:24:11Z</time>
      </trkpt>
      <trkpt lat="18.89544" lon="98.95225">
        <time>2019-09-06T09:24:12Z</time>
      </trkpt>
      <trkpt lat="18.89521" lon="98.95233">
        <time>2019-09-06T09:24:13Z</time>
      </trkpt>
      <trkpt lat="18.895" lon="98.9524">
        <time>2019-09-06T09:24:14Z</time>
      </trkpt>
      <trkpt lat="18.89478" lon="98.95247">
        <time>2019-09-06T09:24:15Z</time>
      </trkpt>
      <trkpt lat="18.89457" lon="98.95255">
        <time>2019-09-06T09:24:16Z</time>
      </trkpt>
      <trkpt lat="18.89434" lon="98.95263">
        <time>2019-09-06T09:24:17Z</time>
      </trkpt>
      <trkpt lat="18.89413" lon="98.95272">
        <time>2019-09-06T09:24:18Z</time>
      </trkpt>
      <trkpt lat="18.89391" lon="98.95279">
        <time>2019-09-06T09:24:19Z</time>
      </trkpt>
      <trkpt lat="18.89369" lon="98.95286">
        <time>2019-09-06T09:24:20Z</time>
      </trkpt>
      <trkpt lat="18.89347" lon="98.95293">
        <time>2019-09-06T09:24:21Z</time>
      </trkpt>
      <trkpt lat="18.89325" lon="98.953">
        <time>2019-09-06T09:24:22Z</time>
      </trkpt>
      <trkpt lat="18.89303" lon="98.95308">
        <time>2019-09-06T09:24:23Z</time>
      </trkpt>
      <trkpt lat="18.89283" lon="98.95316">
        <time>2019-09-06T09:24:24Z</time>
      </trkpt>
      <trkpt lat="18.89262" lon="98.95325">
        <time>2019-09-06T09:24:25Z</time>
      </trkpt>
      <trkpt lat="18.89241" lon="98.95334">
        <time>2019-09-06T09:24:26Z</time>
      </trkpt>
      <trkpt lat="18.8922" lon="98.95343">
        <time>2019-09-06T09:24:27Z</time>
      </trkpt>
      <trkpt lat="18.892" lon="98.95353">
        <time>2019-09-06T09:24:28Z</time>
      </trkpt>
      <trkpt lat="18.89178" lon="98.95362">
        <time>2019-09-06T09:24:29Z</time>
      </trkpt>
      <trkpt lat="18.89158" lon="98.95371">
        <time>2019-09-06T09:24:30Z</time>
      </trkpt>
      <trkpt lat="18.89137" lon="98.9538">
        <time>2019-09-06T09:24:31Z</time>
      </trkpt>
      <trkpt lat="18.89115" lon="98.9539">
        <time>2019-09-06T09:24:32Z</time>
      </trkpt>
      <trkpt lat="18.89094" lon="98.95398">
        <time>2019-09-06T09:24:33Z</time>
      </trkpt>
      <trkpt lat="18.89073" lon="98.95408">
        <time>2019-09-06T09:24:34Z</time>
      </trkpt>
      <trkpt lat="18.89051" lon="98.95418">
        <time>2019-09-06T09:24:35Z</time>
      </trkpt>
      <trkpt lat="18.89029" lon="98.95428">
        <time>2019-09-06T09:24:36Z</time>
      </trkpt>
      <trkpt lat="18.89008" lon="98.95436">
        <time>2019-09-06T09:24:37Z</time>
      </trkpt>
      <trkpt lat="18.88985" lon="98.95446">
        <time>2019-09-06T09:24:38Z</time>
      </trkpt>
      <trkpt lat="18.88964" lon="98.95455">
        <time>2019-09-06T09:24:39Z</time>
      </trkpt>
      <trkpt lat="18.88943" lon="98.95464">
        <time>2019-09-06T09:24:40Z</time>
      </trkpt>
      <trkpt lat="18.88921" lon="98.95474">
        <time>2019-09-06T09:24:41Z</time>
      </trkpt>
      <trkpt lat="18.889" lon="98.95483">
        <time>2019-09-06T09:24:42Z</time>
      </trkpt>
      <trkpt lat="18.88879" lon="98.95493">
        <time>2019-09-06T09:24:43Z</time>
      </trkpt>
      <trkpt lat="18.88859" lon="98.95502">
        <time>2019-09-06T09:24:44Z</time>
      </trkpt>
      <trkpt lat="18.88837" lon="98.95511">
        <time>2019-09-06T09:24:45Z</time>
      </trkpt>
      <trkpt lat="18.88817" lon="98.95522">
        <time>2019-09-06T09:24:46Z</time>
      </trkpt>
      <trkpt lat="18.88797" lon="98.95533">
        <time>2019-09-06T09:24:47Z</time>
      </trkpt>
      <trkpt lat="18.88777" lon="98.95546">
        <time>2019-09-06T09:24:48Z</time>
      </trkpt>
      <trkpt lat="18.88759" lon="98.95558">
        <time>2019-09-06T09:24:49Z</time>
      </trkpt>
      <trkpt lat="18.8874" lon="98.95572">
        <time>2019-09-06T09:24:50Z</time>
      </trkpt>
      <trkpt lat="18.88721" lon="98.95585">
        <time>2019-09-06T09:24:51Z</time>
      </trkpt>
      <trkpt lat="18.88702" lon="98.95598">
        <time>2019-09-06T09:24:52Z</time>
      </trkpt>
      <trkpt lat="18.88683" lon="98.95611">
        <time>2019-09-06T09:24:53Z</time>
      </trkpt>
      <trkpt lat="18.88664" lon="98.95624">
        <time>2019-09-06T09:24:54Z</time>
      </trkpt>
      <trkpt lat="18.88647" lon="98.95638">
        <time>2019-09-06T09:24:55Z</time>
      </trkpt>
      <trkpt lat="18.88628" lon="98.9565">
        <time>2019-09-06T09:24:56Z</time>
      </trkpt>
      <trkpt lat="18.8861" lon="98.95663">
        <time>2019-09-06T09:24:57Z</time>
      </trkpt>
      <trkpt lat="18.8859" lon="98.95675">
        <time>2019-09-06T09:24:58Z</time>
      </trkpt>
      <trkpt lat="18.88571" lon="98.95688">
        <time>2019-09-06T09:24:59Z</time>
      </trkpt>
      <trkpt lat="18.88552" lon="98.95702">
        <time>2019-09-06T09:25:00Z</time>
      </trkpt>
      <trkpt lat="18.88533" lon="98.95715">
        <time>2019-09-06T09:25:01Z</time>
      </trkpt>
      <trkpt lat="18.88514" lon="98.95729">
        <time>2019-09-06T09:25:02Z</time>
      </trkpt>
      <trkpt lat="18.88493" lon="98.95742">
        <time>2019-09-06T09:25:03Z</time>
      </trkpt>
      <trkpt lat="18.88473" lon="98.95756">
        <time>2019-09-06T09:25:04Z</time>
      </trkpt>
      <trkpt lat="18.88455" lon="98.95772">
        <time>2019-09-06T09:25:05Z</time>
      </trkpt>
      <trkpt lat="18.88435" lon="98.95786">
        <time>2019-09-06T09:25:06Z</time>
      </trkpt>
      <trkpt lat="18.88414" lon="98.958">
        <time>2019-09-06T09:25:07Z</time>
      </trkpt>
      <trkpt lat="18.88394" lon="98.95814">
        <time>2019-09-06T09:25:08Z</time>
      </trkpt>
      <trkpt lat="18.88373" lon="98.95829">
        <time>2019-09-06T09:25:09Z</time>
      </trkpt>
      <trkpt lat="18.88351" lon="98.95844">
        <time>2019-09-06T09:25:10Z</time>
      </trkpt>
      <trkpt lat="18.8833" lon="98.95858">
        <time>2019-09-06T09:25:11Z</time>
      </trkpt>
      <trkpt lat="18.88308" lon="98.95872">
        <time>2019-09-06T09:25:12Z</time>
      </trkpt>
      <trkpt lat="18.88287" lon="98.95885">
        <time>2019-09-06T09:25:13Z</time>
      </trkpt>
      <trkpt lat="18.88266" lon="98.95899">
        <time>2019-09-06T09:25:14Z</time>
      </trkpt>
      <trkpt lat="18.88245" lon="98.95912">
        <time>2019-09-06T09:25:15Z</time>
      </trkpt>
      <trkpt lat="18.88223" lon="98.95925">
        <time>2019-09-06T09:25:16Z</time>
      </trkpt>
      <trkpt lat="18.88201" lon="98.95938">
        <time>2019-09-06T09:25:17Z</time>
      </trkpt>
      <trkpt lat="18.8818" lon="98.95951">
        <time>2019-09-06T09:25:18Z</time>
      </trkpt>
      <trkpt lat="18.88159" lon="98.95965">
        <time>2019-09-06T09:25:19Z</time>
      </trkpt>
      <trkpt lat="18.88138" lon="98.95978">
        <time>2019-09-06T09:25:20Z</time>
      </trkpt>
      <trkpt lat="18.88118" lon="98.95991">
        <time>2019-09-06T09:25:21Z</time>
      </trkpt>
      <trkpt lat="18.88097" lon="98.96004">
        <time>2019-09-06T09:25:22Z</time>
      </trkpt>
      <trkpt lat="18.88077" lon="98.96017">
        <time>2019-09-06T09:25:23Z</time>
      </trkpt>
      <trkpt lat="18.88057" lon="98.9603">
        <time>2019-09-06T09:25:24Z</time>
      </trkpt>
      <trkpt lat="18.88037" lon="98.96042">
        <time>2019-09-06T09:25:25Z</time>
      </trkpt>
      <trkpt lat="18.88017" lon="98.96054">
        <time>2019-09-06T09:25:26Z</time>
      </trkpt>
      <trkpt lat="18.87997" lon="98.96065">
        <time>2019-09-06T09:25:27Z</time>
      </trkpt>
      <trkpt lat="18.87978" lon="98.96076">
        <time>2019-09-06T09:25:28Z</time>
      </trkpt>
      <trkpt lat="18.87959" lon="98.96087">
        <time>2019-09-06T09:25:29Z</time>
      </trkpt>
      <trkpt lat="18.8794" lon="98.96098">
        <time>2019-09-06T09:25:30Z</time>
      </trkpt>
      <trkpt lat="18.87919" lon="98.9611">
        <time>2019-09-06T09:25:31Z</time>
      </trkpt>
      <trkpt lat="18.87899" lon="98.96121">
        <time>2019-09-06T09:25:32Z</time>
      </trkpt>
      <trkpt lat="18.87881" lon="98.96131">
        <time>2019-09-06T09:25:33Z</time>
      </trkpt>
      <trkpt lat="18.87862" lon="98.96141">
        <time>2019-09-06T09:25:34Z</time>
      </trkpt>
      <trkpt lat="18.87844" lon="98.96151">
        <time>2019-09-06T09:25:35Z</time>
      </trkpt>
      <trkpt lat="18.87824" lon="98.96162">
        <time>2019-09-06T09:25:36Z</time>
      </trkpt>
      <trkpt lat="18.87802" lon="98.96172">
        <time>2019-09-06T09:25:37Z</time>
      </trkpt>
      <trkpt lat="18.87781" lon="98.96181">
        <time>2019-09-06T09:25:38Z</time>
      </trkpt>
      <trkpt lat="18.87759" lon="98.96189">
        <time>2019-09-06T09:25:39Z</time>
      </trkpt>
      <trkpt lat="18.87736" lon="98.96197">
        <time>2019-09-06T09:25:40Z</time>
      </trkpt>
      <trkpt lat="18.87715" lon="98.96204">
        <time>2019-09-06T09:25:41Z</time>
      </trkpt>
      <trkpt lat="18.87695" lon="98.96209">
        <time>2019-09-06T09:25:42Z</time>
      </trkpt>
      <trkpt lat="18.87676" lon="98.96215">
        <time>2019-09-06T09:25:43Z</time>
      </trkpt>
      <trkpt lat="18.87656" lon="98.96221">
        <time>2019-09-06T09:25:44Z</time>
      </trkpt>
      <trkpt lat="18.87637" lon="98.96226">
        <time>2019-09-06T09:25:45Z</time>
      </trkpt>
      <trkpt lat="18.87618" lon="98.96231">
        <time>2019-09-06T09:25:46Z</time>
      </trkpt>
      <trkpt lat="18.87597" lon="98.96237">
        <time>2019-09-06T09:25:47Z</time>
      </trkpt>
      <trkpt lat="18.87577" lon="98.96242">
        <time>2019-09-06T09:25:48Z</time>
      </trkpt>
      <trkpt lat="18.87557" lon="98.96247">
        <time>2019-09-06T09:25:49Z</time>
      </trkpt>
      <trkpt lat="18.87537" lon="98.96253">
        <time>2019-09-06T09:25:50Z</time>
      </trkpt>
      <trkpt lat="18.87518" lon="98.96257">
        <time>2019-09-06T09:25:51Z</time>
      </trkpt>
      <trkpt lat="18.87499" lon="98.96261">
        <time>2019-09-06T09:25:52Z</time>
      </trkpt>
      <trkpt lat="18.87482" lon="98.96264">
        <time>2019-09-06T09:25:53Z</time>
      </trkpt>
      <trkpt lat="18.87465" lon="98.96268">
        <time>2019-09-06T09:25:54Z</time>
      </trkpt>
      <trkpt lat="18.87446" lon="98.96271">
        <time>2019-09-06T09:25:55Z</time>
      </trkpt>
      <trkpt lat="18.87427" lon="98.96274">
        <time>2019-09-06T09:25:56Z</time>
      </trkpt>
      <trkpt lat="18.87409" lon="98.96277">
        <time>2019-09-06T09:25:57Z</time>
      </trkpt>
      <trkpt lat="18.87389" lon="98.96281">
        <time>2019-09-06T09:25:58Z</time>
      </trkpt>
      <trkpt lat="18.8737" lon="98.96285">
        <time>2019-09-06T09:25:59Z</time>
      </trkpt>
      <trkpt lat="18.8735" lon="98.96289">
        <time>2019-09-06T09:26:00Z</time>
      </trkpt>
      <trkpt lat="18.87329" lon="98.96294">
        <time>2019-09-06T09:26:01Z</time>
      </trkpt>
      <trkpt lat="18.87308" lon="98.963">
        <time>2019-09-06T09:26:02Z</time>
      </trkpt>
      <trkpt lat="18.87286" lon="98.96304">
        <time>2019-09-06T09:26:03Z</time>
      </trkpt>
      <trkpt lat="18.87263" lon="98.96309">
        <time>2019-09-06T09:26:04Z</time>
      </trkpt>
      <trkpt lat="18.87239" lon="98.96313">
        <time>2019-09-06T09:26:05Z</time>
      </trkpt>
      <trkpt lat="18.87215" lon="98.96317">
        <time>2019-09-06T09:26:06Z</time>
      </trkpt>
      <trkpt lat="18.87192" lon="98.96322">
        <time>2019-09-06T09:26:07Z</time>
      </trkpt>
      <trkpt lat="18.87169" lon="98.96327">
        <time>2019-09-06T09:26:08Z</time>
      </trkpt>
      <trkpt lat="18.87148" lon="98.96329">
        <time>2019-09-06T09:26:09Z</time>
      </trkpt>
      <trkpt lat="18.87126" lon="98.96333">
        <time>2019-09-06T09:26:10Z</time>
      </trkpt>
      <trkpt lat="18.87105" lon="98.96336">
        <time>2019-09-06T09:26:11Z</time>
      </trkpt>
      <trkpt lat="18.87086" lon="98.96341">
        <time>2019-09-06T09:26:12Z</time>
      </trkpt>
      <trkpt lat="18.87067" lon="98.96345">
        <time>2019-09-06T09:26:13Z</time>
      </trkpt>
      <trkpt lat="18.87047" lon="98.96349">
        <time>2019-09-06T09:26:14Z</time>
      </trkpt>
      <trkpt lat="18.87028" lon="98.96353">
        <time>2019-09-06T09:26:15Z</time>
      </trkpt>
      <trkpt lat="18.87009" lon="98.96358">
        <time>2019-09-06T09:26:16Z</time>
      </trkpt>
      <trkpt lat="18.86989" lon="98.96361">
        <time>2019-09-06T09:26:17Z</time>
      </trkpt>
      <trkpt lat="18.86969" lon="98.96365">
        <time>2019-09-06T09:26:18Z</time>
      </trkpt>
      <trkpt lat="18.86948" lon="98.9637">
        <time>2019-09-06T09:26:19Z</time>
      </trkpt>
      <trkpt lat="18.86926" lon="98.96376">
        <time>2019-09-06T09:26:20Z</time>
      </trkpt>
      <trkpt lat="18.86903" lon="98.96381">
        <time>2019-09-06T09:26:21Z</time>
      </trkpt>
      <trkpt lat="18.86879" lon="98.96385">
        <time>2019-09-06T09:26:22Z</time>
      </trkpt>
      <trkpt lat="18.86854" lon="98.9639">
        <time>2019-09-06T09:26:23Z</time>
      </trkpt>
      <trkpt lat="18.86828" lon="98.96395">
        <time>2019-09-06T09:26:24Z</time>
      </trkpt>
      <trkpt lat="18.86803" lon="98.964">
        <time>2019-09-06T09:26:25Z</time>
      </trkpt>
      <trkpt lat="18.86778" lon="98.96405">
        <time>2019-09-06T09:26:26Z</time>
      </trkpt>
      <trkpt lat="18.86753" lon="98.96411">
        <time>2019-09-06T09:26:27Z</time>
      </trkpt>
      <trkpt lat="18.86728" lon="98.96416">
        <time>2019-09-06T09:26:28Z</time>
      </trkpt>
      <trkpt lat="18.86703" lon="98.96422">
        <time>2019-09-06T09:26:29Z</time>
      </trkpt>
      <trkpt lat="18.86679" lon="98.96428">
        <time>2019-09-06T09:26:30Z</time>
      </trkpt>
      <trkpt lat="18.86653" lon="98.96433">
        <time>2019-09-06T09:26:31Z</time>
      </trkpt>
      <trkpt lat="18.86629" lon="98.96438">
        <time>2019-09-06T09:26:32Z</time>
      </trkpt>
      <trkpt lat="18.86604" lon="98.96444">
        <time>2019-09-06T09:26:33Z</time>
      </trkpt>
      <trkpt lat="18.86584" lon="98.96458">
        <time>2019-09-06T09:26:34Z</time>
      </trkpt>
      <trkpt lat="18.86561" lon="98.96461">
        <time>2019-09-06T09:26:35Z</time>
      </trkpt>
      <trkpt lat="18.8654" lon="98.96468">
        <time>2019-09-06T09:26:36Z</time>
      </trkpt>
      <trkpt lat="18.86519" lon="98.96476">
        <time>2019-09-06T09:26:37Z</time>
      </trkpt>
      <trkpt lat="18.86499" lon="98.96483">
        <time>2019-09-06T09:26:38Z</time>
      </trkpt>
      <trkpt lat="18.86478" lon="98.96489">
        <time>2019-09-06T09:26:39Z</time>
      </trkpt>
      <trkpt lat="18.86457" lon="98.96497">
        <time>2019-09-06T09:26:40Z</time>
      </trkpt>
      <trkpt lat="18.86436" lon="98.96504">
        <time>2019-09-06T09:26:41Z</time>
      </trkpt>
      <trkpt lat="18.86413" lon="98.96511">
        <time>2019-09-06T09:26:42Z</time>
      </trkpt>
      <trkpt lat="18.8639" lon="98.96519">
        <time>2019-09-06T09:26:43Z</time>
      </trkpt>
      <trkpt lat="18.86368" lon="98.96526">
        <time>2019-09-06T09:26:44Z</time>
      </trkpt>
      <trkpt lat="18.86348" lon="98.96534">
        <time>2019-09-06T09:26:45Z</time>
      </trkpt>
      <trkpt lat="18.86326" lon="98.96541">
        <time>2019-09-06T09:26:46Z</time>
      </trkpt>
      <trkpt lat="18.86305" lon="98.96549">
        <time>2019-09-06T09:26:47Z</time>
      </trkpt>
      <trkpt lat="18.86285" lon="98.96556">
        <time>2019-09-06T09:26:48Z</time>
      </trkpt>
      <trkpt lat="18.86267" lon="98.96562">
        <time>2019-09-06T09:26:49Z</time>
      </trkpt>
      <trkpt lat="18.86248" lon="98.96567">
        <time>2019-09-06T09:26:50Z</time>
      </trkpt>
      <trkpt lat="18.86229" lon="98.96574">
        <time>2019-09-06T09:26:51Z</time>
      </trkpt>
      <trkpt lat="18.8621" lon="98.9658">
        <time>2019-09-06T09:26:52Z</time>
      </trkpt>
      <trkpt lat="18.86188" lon="98.96588">
        <time>2019-09-06T09:26:53Z</time>
      </trkpt>
      <trkpt lat="18.86167" lon="98.96595">
        <time>2019-09-06T09:26:54Z</time>
      </trkpt>
      <trkpt lat="18.86145" lon="98.96601">
        <time>2019-09-06T09:26:55Z</time>
      </trkpt>
      <trkpt lat="18.86122" lon="98.96607">
        <time>2019-09-06T09:26:56Z</time>
      </trkpt>
      <trkpt lat="18.861" lon="98.96614">
        <time>2019-09-06T09:26:57Z</time>
      </trkpt>
      <trkpt lat="18.86078" lon="98.96622">
        <time>2019-09-06T09:26:58Z</time>
      </trkpt>
      <trkpt lat="18.86057" lon="98.9663">
        <time>2019-09-06T09:26:59Z</time>
      </trkpt>
      <trkpt lat="18.86034" lon="98.96638">
        <time>2019-09-06T09:27:00Z</time>
      </trkpt>
      <trkpt lat="18.86011" lon="98.96644">
        <time>2019-09-06T09:27:01Z</time>
      </trkpt>
      <trkpt lat="18.85989" lon="98.96651">
        <time>2019-09-06T09:27:02Z</time>
      </trkpt>
      <trkpt lat="18.85967" lon="98.96658">
        <time>2019-09-06T09:27:03Z</time>
      </trkpt>
      <trkpt lat="18.85945" lon="98.96664">
        <time>2019-09-06T09:27:04Z</time>
      </trkpt>
      <trkpt lat="18.85923" lon="98.96672">
        <time>2019-09-06T09:27:05Z</time>
      </trkpt>
      <trkpt lat="18.859" lon="98.96678">
        <time>2019-09-06T09:27:06Z</time>
      </trkpt>
      <trkpt lat="18.85877" lon="98.96684">
        <time>2019-09-06T09:27:07Z</time>
      </trkpt>
      <trkpt lat="18.85854" lon="98.9669">
        <time>2019-09-06T09:27:08Z</time>
      </trkpt>
      <trkpt lat="18.85831" lon="98.96697">
        <time>2019-09-06T09:27:09Z</time>
      </trkpt>
      <trkpt lat="18.85808" lon="98.96705">
        <time>2019-09-06T09:27:10Z</time>
      </trkpt>
      <trkpt lat="18.85785" lon="98.96712">
        <time>2019-09-06T09:27:11Z</time>
      </trkpt>
      <trkpt lat="18.85762" lon="98.96718">
        <time>2019-09-06T09:27:12Z</time>
      </trkpt>
      <trkpt lat="18.85738" lon="98.96725">
        <time>2019-09-06T09:27:13Z</time>
      </trkpt>
      <trkpt lat="18.85716" lon="98.96732">
        <time>2019-09-06T09:27:14Z</time>
      </trkpt>
      <trkpt lat="18.85693" lon="98.9674">
        <time>2019-09-06T09:27:15Z</time>
      </trkpt>
      <trkpt lat="18.85671" lon="98.96748">
        <time>2019-09-06T09:27:16Z</time>
      </trkpt>
      <trkpt lat="18.85648" lon="98.96755">
        <time>2019-09-06T09:27:17Z</time>
      </trkpt>
      <trkpt lat="18.85625" lon="98.96763">
        <time>2019-09-06T09:27:18Z</time>
      </trkpt>
      <trkpt lat="18.85602" lon="98.96771">
        <time>2019-09-06T09:27:19Z</time>
      </trkpt>
      <trkpt lat="18.85579" lon="98.96777">
        <time>2019-09-06T09:27:20Z</time>
      </trkpt>
      <trkpt lat="18.85556" lon="98.96784">
        <time>2019-09-06T09:27:21Z</time>
      </trkpt>
      <trkpt lat="18.85533" lon="98.96792">
        <time>2019-09-06T09:27:22Z</time>
      </trkpt>
      <trkpt lat="18.8551" lon="98.96799">
        <time>2019-09-06T09:27:23Z</time>
      </trkpt>
      <trkpt lat="18.85488" lon="98.96806">
        <time>2019-09-06T09:27:24Z</time>
      </trkpt>
      <trkpt lat="18.85465" lon="98.96813">
        <time>2019-09-06T09:27:25Z</time>
      </trkpt>
      <trkpt lat="18.85444" lon="98.96821">
        <time>2019-09-06T09:27:26Z</time>
      </trkpt>
      <trkpt lat="18.85422" lon="98.96829">
        <time>2019-09-06T09:27:27Z</time>
      </trkpt>
      <trkpt lat="18.854" lon="98.96837">
        <time>2019-09-06T09:27:28Z</time>
      </trkpt>
      <trkpt lat="18.85379" lon="98.96844">
        <time>2019-09-06T09:27:29Z</time>
      </trkpt>
      <trkpt lat="18.85357" lon="98.96851">
        <time>2019-09-06T09:27:30Z</time>
      </trkpt>
      <trkpt lat="18.85336" lon="98.96859">
        <time>2019-09-06T09:27:31Z</time>
      </trkpt>
      <trkpt lat="18.85316" lon="98.96867">
        <time>2019-09-06T09:27:32Z</time>
      </trkpt>
      <trkpt lat="18.85296" lon="98.96874">
        <time>2019-09-06T09:27:33Z</time>
      </trkpt>
      <trkpt lat="18.85275" lon="98.96882">
        <time>2019-09-06T09:27:34Z</time>
      </trkpt>
      <trkpt lat="18.85256" lon="98.9689">
        <time>2019-09-06T09:27:35Z</time>
      </trkpt>
      <trkpt lat="18.85236" lon="98.96897">
        <time>2019-09-06T09:27:36Z</time>
      </trkpt>
      <trkpt lat="18.85217" lon="98.96904">
        <time>2019-09-06T09:27:37Z</time>
      </trkpt>
      <trkpt lat="18.85198" lon="98.96911">
        <time>2019-09-06T09:27:38Z</time>
      </trkpt>
      <trkpt lat="18.85178" lon="98.96918">
        <time>2019-09-06T09:27:39Z</time>
      </trkpt>
      <trkpt lat="18.85158" lon="98.96926">
        <time>2019-09-06T09:27:40Z</time>
      </trkpt>
      <trkpt lat="18.85139" lon="98.96933">
        <time>2019-09-06T09:27:41Z</time>
      </trkpt>
      <trkpt lat="18.85119" lon="98.96941">
        <time>2019-09-06T09:27:42Z</time>
      </trkpt>
      <trkpt lat="18.85101" lon="98.96948">
        <time>2019-09-06T09:27:43Z</time>
      </trkpt>
      <trkpt lat="18.85081" lon="98.96955">
        <time>2019-09-06T09:27:44Z</time>
      </trkpt>
      <trkpt lat="18.85061" lon="98.96963">
        <time>2019-09-06T09:27:45Z</time>
      </trkpt>
      <trkpt lat="18.85041" lon="98.96971">
        <time>2019-09-06T09:27:46Z</time>
      </trkpt>
      <trkpt lat="18.85022" lon="98.96978">
        <time>2019-09-06T09:27:47Z</time>
      </trkpt>
      <trkpt lat="18.85003" lon="98.96985">
        <time>2019-09-06T09:27:48Z</time>
      </trkpt>
      <trkpt lat="18.84983" lon="98.96992">
        <time>2019-09-06T09:27:49Z</time>
      </trkpt>
      <trkpt lat="18.84964" lon="98.96999">
        <time>2019-09-06T09:27:50Z</time>
      </trkpt>
      <trkpt lat="18.84945" lon="98.97006">
        <time>2019-09-06T09:27:51Z</time>
      </trkpt>
      <trkpt lat="18.84924" lon="98.97013">
        <time>2019-09-06T09:27:52Z</time>
      </trkpt>
      <trkpt lat="18.84903" lon="98.97021">
        <time>2019-09-06T09:27:53Z</time>
      </trkpt>
      <trkpt lat="18.84881" lon="98.9703">
        <time>2019-09-06T09:27:54Z</time>
      </trkpt>
      <trkpt lat="18.84859" lon="98.97039">
        <time>2019-09-06T09:27:55Z</time>
      </trkpt>
      <trkpt lat="18.84837" lon="98.97048">
        <time>2019-09-06T09:27:56Z</time>
      </trkpt>
      <trkpt lat="18.84816" lon="98.97056">
        <time>2019-09-06T09:27:57Z</time>
      </trkpt>
      <trkpt lat="18.84796" lon="98.97064">
        <time>2019-09-06T09:27:58Z</time>
      </trkpt>
      <trkpt lat="18.84776" lon="98.97072">
        <time>2019-09-06T09:27:59Z</time>
      </trkpt>
      <trkpt lat="18.84758" lon="98.97079">
        <time>2019-09-06T09:28:00Z</time>
      </trkpt>
      <trkpt lat="18.8474" lon="98.97086">
        <time>2019-09-06T09:28:01Z</time>
      </trkpt>
      <trkpt lat="18.84723" lon="98.97092">
        <time>2019-09-06T09:28:02Z</time>
      </trkpt>
      <trkpt lat="18.84706" lon="98.97098">
        <time>2019-09-06T09:28:03Z</time>
      </trkpt>
      <trkpt lat="18.8469" lon="98.97105">
        <time>2019-09-06T09:28:04Z</time>
      </trkpt>
      <trkpt lat="18.84679" lon="98.97108">
        <time>2019-09-06T09:28:05Z</time>
      </trkpt>
      <trkpt lat="18.84668" lon="98.97112">
        <time>2019-09-06T09:28:06Z</time>
      </trkpt>
      <trkpt lat="18.84659" lon="98.97116">
        <time>2019-09-06T09:28:07Z</time>
      </trkpt>
      <trkpt lat="18.8465" lon="98.97119">
        <time>2019-09-06T09:28:08Z</time>
      </trkpt>
      <trkpt lat="18.84641" lon="98.97123">
        <time>2019-09-06T09:28:09Z</time>
      </trkpt>
      <trkpt lat="18.84633" lon="98.97125">
        <time>2019-09-06T09:28:10Z</time>
      </trkpt>
      <trkpt lat="18.84626" lon="98.97128">
        <time>2019-09-06T09:28:11Z</time>
      </trkpt>
      <trkpt lat="18.84618" lon="98.97132">
        <time>2019-09-06T09:28:12Z</time>
      </trkpt>
      <trkpt lat="18.8461" lon="98.97135">
        <time>2019-09-06T09:28:13Z</time>
      </trkpt>
      <trkpt lat="18.84602" lon="98.97138">
        <time>2019-09-06T09:28:14Z</time>
      </trkpt>
      <trkpt lat="18.84595" lon="98.97142">
        <time>2019-09-06T09:28:15Z</time>
      </trkpt>
      <trkpt lat="18.84587" lon="98.97145">
        <time>2019-09-06T09:28:16Z</time>
      </trkpt>
      <trkpt lat="18.84581" lon="98.97147">
        <time>2019-09-06T09:28:17Z</time>
      </trkpt>
      <trkpt lat="18.84575" lon="98.9715">
        <time>2019-09-06T09:28:18Z</time>
      </trkpt>
      <trkpt lat="18.84569" lon="98.97152">
        <time>2019-09-06T09:28:19Z</time>
      </trkpt>
      <trkpt lat="18.84563" lon="98.97154">
        <time>2019-09-06T09:28:20Z</time>
      </trkpt>
      <trkpt lat="18.8456" lon="98.97155">
        <time>2019-09-06T09:28:21Z</time>
      </trkpt>
      <trkpt lat="18.84556" lon="98.97156">
        <time>2019-09-06T09:28:22Z</time>
      </trkpt>
      <trkpt lat="18.84553" lon="98.97158">
        <time>2019-09-06T09:28:23Z</time>
      </trkpt>
      <trkpt lat="18.84551" lon="98.9716">
        <time>2019-09-06T09:28:24Z</time>
      </trkpt>
      <trkpt lat="18.8455" lon="98.9716">
        <time>2019-09-06T09:28:26Z</time>
      </trkpt>
      <trkpt lat="18.84549" lon="98.97161">
        <time>2019-09-06T09:28:26Z</time>
      </trkpt>
      <trkpt lat="18.84548" lon="98.97161">
        <time>2019-09-06T09:28:27Z</time>
      </trkpt>
      <trkpt lat="18.84547" lon="98.9716">
        <time>2019-09-06T09:28:28Z</time>
      </trkpt>
      <trkpt lat="18.84546" lon="98.97161">
        <time>2019-09-06T09:28:29Z</time>
      </trkpt>
      <trkpt lat="18.84544" lon="98.97161">
        <time>2019-09-06T09:28:32Z</time>
      </trkpt>
      <trkpt lat="18.84542" lon="98.97161">
        <time>2019-09-06T09:28:33Z</time>
      </trkpt>
      <trkpt lat="18.84539" lon="98.97162">
        <time>2019-09-06T09:28:34Z</time>
      </trkpt>
      <trkpt lat="18.84535" lon="98.97163">
        <time>2019-09-06T09:28:35Z</time>
      </trkpt>
      <trkpt lat="18.84524" lon="98.97169">
        <time>2019-09-06T09:28:36Z</time>
      </trkpt>
      <trkpt lat="18.84517" lon="98.97173">
        <time>2019-09-06T09:28:37Z</time>
      </trkpt>
      <trkpt lat="18.84508" lon="98.97176">
        <time>2019-09-06T09:28:38Z</time>
      </trkpt>
      <trkpt lat="18.84502" lon="98.97179">
        <time>2019-09-06T09:28:39Z</time>
      </trkpt>
      <trkpt lat="18.84493" lon="98.97182">
        <time>2019-09-06T09:28:40Z</time>
      </trkpt>
      <trkpt lat="18.84484" lon="98.97186">
        <time>2019-09-06T09:28:41Z</time>
      </trkpt>
      <trkpt lat="18.84474" lon="98.9719">
        <time>2019-09-06T09:28:42Z</time>
      </trkpt>
      <trkpt lat="18.84463" lon="98.97196">
        <time>2019-09-06T09:28:43Z</time>
      </trkpt>
      <trkpt lat="18.84449" lon="98.97202">
        <time>2019-09-06T09:28:44Z</time>
      </trkpt>
      <trkpt lat="18.84432" lon="98.97209">
        <time>2019-09-06T09:28:45Z</time>
      </trkpt>
      <trkpt lat="18.84417" lon="98.97216">
        <time>2019-09-06T09:28:46Z</time>
      </trkpt>
      <trkpt lat="18.84402" lon="98.97221">
        <time>2019-09-06T09:28:47Z</time>
      </trkpt>
      <trkpt lat="18.8439" lon="98.97227">
        <time>2019-09-06T09:28:48Z</time>
      </trkpt>
      <trkpt lat="18.84377" lon="98.97233">
        <time>2019-09-06T09:28:49Z</time>
      </trkpt>
      <trkpt lat="18.84366" lon="98.97237">
        <time>2019-09-06T09:28:50Z</time>
      </trkpt>
      <trkpt lat="18.84354" lon="98.97241">
        <time>2019-09-06T09:28:51Z</time>
      </trkpt>
      <trkpt lat="18.84344" lon="98.97245">
        <time>2019-09-06T09:28:52Z</time>
      </trkpt>
      <trkpt lat="18.84335" lon="98.97248">
        <time>2019-09-06T09:28:53Z</time>
      </trkpt>
      <trkpt lat="18.84326" lon="98.97251">
        <time>2019-09-06T09:28:54Z</time>
      </trkpt>
      <trkpt lat="18.84318" lon="98.97254">
        <time>2019-09-06T09:28:55Z</time>
      </trkpt>
      <trkpt lat="18.84314" lon="98.97257">
        <time>2019-09-06T09:28:56Z</time>
      </trkpt>
      <trkpt lat="18.84308" lon="98.97259">
        <time>2019-09-06T09:28:57Z</time>
      </trkpt>
      <trkpt lat="18.84303" lon="98.97261">
        <time>2019-09-06T09:28:58Z</time>
      </trkpt>
      <trkpt lat="18.84298" lon="98.97264">
        <time>2019-09-06T09:28:59Z</time>
      </trkpt>
      <trkpt lat="18.84295" lon="98.97265">
        <time>2019-09-06T09:29:00Z</time>
      </trkpt>
      <trkpt lat="18.84291" lon="98.97267">
        <time>2019-09-06T09:29:01Z</time>
      </trkpt>
      <trkpt lat="18.84287" lon="98.97268">
        <time>2019-09-06T09:29:02Z</time>
      </trkpt>
      <trkpt lat="18.84285" lon="98.97269">
        <time>2019-09-06T09:29:03Z</time>
      </trkpt>
      <trkpt lat="18.84283" lon="98.9727">
        <time>2019-09-06T09:29:04Z</time>
      </trkpt>
      <trkpt lat="18.84283" lon="98.97271">
        <time>2019-09-06T09:29:05Z</time>
      </trkpt>
      <trkpt lat="18.84281" lon="98.97273">
        <time>2019-09-06T09:29:16Z</time>
      </trkpt>
      <trkpt lat="18.84274" lon="98.97275">
        <time>2019-09-06T09:29:17Z</time>
      </trkpt>
      <trkpt lat="18.84267" lon="98.97277">
        <time>2019-09-06T09:29:18Z</time>
      </trkpt>
      <trkpt lat="18.84259" lon="98.97281">
        <time>2019-09-06T09:29:19Z</time>
      </trkpt>
      <trkpt lat="18.84248" lon="98.97285">
        <time>2019-09-06T09:29:20Z</time>
      </trkpt>
      <trkpt lat="18.84236" lon="98.9729">
        <time>2019-09-06T09:29:21Z</time>
      </trkpt>
      <trkpt lat="18.84222" lon="98.97295">
        <time>2019-09-06T09:29:22Z</time>
      </trkpt>
      <trkpt lat="18.84207" lon="98.97302">
        <time>2019-09-06T09:29:23Z</time>
      </trkpt>
      <trkpt lat="18.84192" lon="98.97308">
        <time>2019-09-06T09:29:24Z</time>
      </trkpt>
      <trkpt lat="18.84177" lon="98.97315">
        <time>2019-09-06T09:29:25Z</time>
      </trkpt>
      <trkpt lat="18.84161" lon="98.97321">
        <time>2019-09-06T09:29:26Z</time>
      </trkpt>
      <trkpt lat="18.84144" lon="98.97328">
        <time>2019-09-06T09:29:27Z</time>
      </trkpt>
      <trkpt lat="18.84128" lon="98.97335">
        <time>2019-09-06T09:29:28Z</time>
      </trkpt>
      <trkpt lat="18.84112" lon="98.97342">
        <time>2019-09-06T09:29:29Z</time>
      </trkpt>
      <trkpt lat="18.84097" lon="98.97348">
        <time>2019-09-06T09:29:30Z</time>
      </trkpt>
      <trkpt lat="18.84082" lon="98.97354">
        <time>2019-09-06T09:29:31Z</time>
      </trkpt>
      <trkpt lat="18.84066" lon="98.9736">
        <time>2019-09-06T09:29:32Z</time>
      </trkpt>
      <trkpt lat="18.84052" lon="98.97365">
        <time>2019-09-06T09:29:33Z</time>
      </trkpt>
      <trkpt lat="18.84038" lon="98.97371">
        <time>2019-09-06T09:29:34Z</time>
      </trkpt>
      <trkpt lat="18.84027" lon="98.97377">
        <time>2019-09-06T09:29:35Z</time>
      </trkpt>
      <trkpt lat="18.84018" lon="98.97383">
        <time>2019-09-06T09:29:36Z</time>
      </trkpt>
      <trkpt lat="18.84008" lon="98.9739">
        <time>2019-09-06T09:29:37Z</time>
      </trkpt>
      <trkpt lat="18.84003" lon="98.974">
        <time>2019-09-06T09:29:38Z</time>
      </trkpt>
      <trkpt lat="18.83998" lon="98.97411">
        <time>2019-09-06T09:29:39Z</time>
      </trkpt>
      <trkpt lat="18.83995" lon="98.97422">
        <time>2019-09-06T09:29:40Z</time>
      </trkpt>
      <trkpt lat="18.83994" lon="98.97437">
        <time>2019-09-06T09:29:41Z</time>
      </trkpt>
      <trkpt lat="18.83995" lon="98.97453">
        <time>2019-09-06T09:29:42Z</time>
      </trkpt>
      <trkpt lat="18.83995" lon="98.97467">
        <time>2019-09-06T09:29:43Z</time>
      </trkpt>
      <trkpt lat="18.84003" lon="98.9749">
        <time>2019-09-06T09:29:44Z</time>
      </trkpt>
      <trkpt lat="18.84009" lon="98.97502">
        <time>2019-09-06T09:29:45Z</time>
      </trkpt>
      <trkpt lat="18.84016" lon="98.9752">
        <time>2019-09-06T09:29:46Z</time>
      </trkpt>
      <trkpt lat="18.84018" lon="98.9754">
        <time>2019-09-06T09:29:47Z</time>
      </trkpt>
      <trkpt lat="18.84025" lon="98.97557">
        <time>2019-09-06T09:29:48Z</time>
      </trkpt>
      <trkpt lat="18.84034" lon="98.97573">
        <time>2019-09-06T09:29:49Z</time>
      </trkpt>
      <trkpt lat="18.84038" lon="98.97597">
        <time>2019-09-06T09:29:50Z</time>
      </trkpt>
      <trkpt lat="18.84042" lon="98.97618">
        <time>2019-09-06T09:29:51Z</time>
      </trkpt>
      <trkpt lat="18.84044" lon="98.97641">
        <time>2019-09-06T09:29:52Z</time>
      </trkpt>
      <trkpt lat="18.8405" lon="98.97661">
        <time>2019-09-06T09:29:53Z</time>
      </trkpt>
      <trkpt lat="18.84056" lon="98.9768">
        <time>2019-09-06T09:29:54Z</time>
      </trkpt>
      <trkpt lat="18.84056" lon="98.97699">
        <time>2019-09-06T09:29:55Z</time>
      </trkpt>
      <trkpt lat="18.8406" lon="98.97717">
        <time>2019-09-06T09:29:56Z</time>
      </trkpt>
      <trkpt lat="18.84061" lon="98.97743">
        <time>2019-09-06T09:29:57Z</time>
      </trkpt>
      <trkpt lat="18.84063" lon="98.97763">
        <time>2019-09-06T09:29:58Z</time>
      </trkpt>
      <trkpt lat="18.84065" lon="98.97787">
        <time>2019-09-06T09:29:59Z</time>
      </trkpt>
      <trkpt lat="18.84067" lon="98.97809">
        <time>2019-09-06T09:30:00Z</time>
      </trkpt>
      <trkpt lat="18.84074" lon="98.97823">
        <time>2019-09-06T09:30:01Z</time>
      </trkpt>
      <trkpt lat="18.84081" lon="98.97845">
        <time>2019-09-06T09:30:02Z</time>
      </trkpt>
      <trkpt lat="18.84088" lon="98.9787">
        <time>2019-09-06T09:30:03Z</time>
      </trkpt>
      <trkpt lat="18.84097" lon="98.97892">
        <time>2019-09-06T09:30:04Z</time>
      </trkpt>
      <trkpt lat="18.84108" lon="98.97912">
        <time>2019-09-06T09:30:05Z</time>
      </trkpt>
      <trkpt lat="18.84122" lon="98.97928">
        <time>2019-09-06T09:30:06Z</time>
      </trkpt>
      <trkpt lat="18.84135" lon="98.97943">
        <time>2019-09-06T09:30:07Z</time>
      </trkpt>
      <trkpt lat="18.84148" lon="98.97962">
        <time>2019-09-06T09:30:08Z</time>
      </trkpt>
      <trkpt lat="18.84158" lon="98.97987">
        <time>2019-09-06T09:30:09Z</time>
      </trkpt>
      <trkpt lat="18.84169" lon="98.98009">
        <time>2019-09-06T09:30:10Z</time>
      </trkpt>
      <trkpt lat="18.8418" lon="98.98027">
        <time>2019-09-06T09:30:11Z</time>
      </trkpt>
      <trkpt lat="18.8419" lon="98.98051">
        <time>2019-09-06T09:30:12Z</time>
      </trkpt>
      <trkpt lat="18.84203" lon="98.98066">
        <time>2019-09-06T09:30:13Z</time>
      </trkpt>
      <trkpt lat="18.84214" lon="98.98087">
        <time>2019-09-06T09:30:14Z</time>
      </trkpt>
      <trkpt lat="18.84223" lon="98.98106">
        <time>2019-09-06T09:30:15Z</time>
      </trkpt>
      <trkpt lat="18.84233" lon="98.98127">
        <time>2019-09-06T09:30:16Z</time>
      </trkpt>
      <trkpt lat="18.84245" lon="98.98145">
        <time>2019-09-06T09:30:17Z</time>
      </trkpt>
      <trkpt lat="18.84258" lon="98.98167">
        <time>2019-09-06T09:30:18Z</time>
      </trkpt>
      <trkpt lat="18.84268" lon="98.98191">
        <time>2019-09-06T09:30:19Z</time>
      </trkpt>
      <trkpt lat="18.84279" lon="98.98211">
        <time>2019-09-06T09:30:20Z</time>
      </trkpt>
      <trkpt lat="18.8429" lon="98.9823">
        <time>2019-09-06T09:30:21Z</time>
      </trkpt>
      <trkpt lat="18.84302" lon="98.98248">
        <time>2019-09-06T09:30:22Z</time>
      </trkpt>
      <trkpt lat="18.84311" lon="98.98274">
        <time>2019-09-06T09:30:23Z</time>
      </trkpt>
      <trkpt lat="18.84323" lon="98.98292">
        <time>2019-09-06T09:30:24Z</time>
      </trkpt>
      <trkpt lat="18.84334" lon="98.98315">
        <time>2019-09-06T09:30:25Z</time>
      </trkpt>
      <trkpt lat="18.84344" lon="98.98337">
        <time>2019-09-06T09:30:26Z</time>
      </trkpt>
      <trkpt lat="18.84354" lon="98.98362">
        <time>2019-09-06T09:30:27Z</time>
      </trkpt>
      <trkpt lat="18.84365" lon="98.98385">
        <time>2019-09-06T09:30:28Z</time>
      </trkpt>
      <trkpt lat="18.84377" lon="98.98402">
        <time>2019-09-06T09:30:29Z</time>
      </trkpt>
      <trkpt lat="18.84386" lon="98.98426">
        <time>2019-09-06T09:30:30Z</time>
      </trkpt>
      <trkpt lat="18.84399" lon="98.98448">
        <time>2019-09-06T09:30:31Z</time>
      </trkpt>
      <trkpt lat="18.84409" lon="98.98472">
        <time>2019-09-06T09:30:32Z</time>
      </trkpt>
      <trkpt lat="18.84421" lon="98.98493">
        <time>2019-09-06T09:30:33Z</time>
      </trkpt>
      <trkpt lat="18.8443" lon="98.98517">
        <time>2019-09-06T09:30:34Z</time>
      </trkpt>
      <trkpt lat="18.84441" lon="98.9854">
        <time>2019-09-06T09:30:35Z</time>
      </trkpt>
      <trkpt lat="18.84454" lon="98.9856">
        <time>2019-09-06T09:30:36Z</time>
      </trkpt>
      <trkpt lat="18.84465" lon="98.98583">
        <time>2019-09-06T09:30:37Z</time>
      </trkpt>
      <trkpt lat="18.84474" lon="98.9861">
        <time>2019-09-06T09:30:38Z</time>
      </trkpt>
      <trkpt lat="18.84485" lon="98.98631">
        <time>2019-09-06T09:30:39Z</time>
      </trkpt>
      <trkpt lat="18.84496" lon="98.98654">
        <time>2019-09-06T09:30:40Z</time>
      </trkpt>
      <trkpt lat="18.84507" lon="98.98674">
        <time>2019-09-06T09:30:41Z</time>
      </trkpt>
      <trkpt lat="18.84515" lon="98.98703">
        <time>2019-09-06T09:30:42Z</time>
      </trkpt>
      <trkpt lat="18.84524" lon="98.98724">
        <time>2019-09-06T09:30:43Z</time>
      </trkpt>
      <trkpt lat="18.84534" lon="98.98743">
        <time>2019-09-06T09:30:44Z</time>
      </trkpt>
      <trkpt lat="18.84542" lon="98.98761">
        <time>2019-09-06T09:30:45Z</time>
      </trkpt>
      <trkpt lat="18.84553" lon="98.98776">
        <time>2019-09-06T09:30:46Z</time>
      </trkpt>
      <trkpt lat="18.84562" lon="98.98787">
        <time>2019-09-06T09:30:47Z</time>
      </trkpt>
      <trkpt lat="18.84569" lon="98.98807">
        <time>2019-09-06T09:30:48Z</time>
      </trkpt>
      <trkpt lat="18.84576" lon="98.98822">
        <time>2019-09-06T09:30:49Z</time>
      </trkpt>
      <trkpt lat="18.84585" lon="98.98838">
        <time>2019-09-06T09:30:50Z</time>
      </trkpt>
      <trkpt lat="18.84593" lon="98.98856">
        <time>2019-09-06T09:30:51Z</time>
      </trkpt>
      <trkpt lat="18.84604" lon="98.9887">
        <time>2019-09-06T09:30:52Z</time>
      </trkpt>
      <trkpt lat="18.84611" lon="98.98886">
        <time>2019-09-06T09:30:53Z</time>
      </trkpt>
      <trkpt lat="18.84618" lon="98.98901">
        <time>2019-09-06T09:30:54Z</time>
      </trkpt>
      <trkpt lat="18.84625" lon="98.98919">
        <time>2019-09-06T09:30:55Z</time>
      </trkpt>
      <trkpt lat="18.84632" lon="98.98933">
        <time>2019-09-06T09:30:56Z</time>
      </trkpt>
      <trkpt lat="18.8464" lon="98.98945">
        <time>2019-09-06T09:30:57Z</time>
      </trkpt>
      <trkpt lat="18.84645" lon="98.98966">
        <time>2019-09-06T09:30:58Z</time>
      </trkpt>
      <trkpt lat="18.84649" lon="98.98993">
        <time>2019-09-06T09:30:59Z</time>
      </trkpt>
      <trkpt lat="18.84655" lon="98.99013">
        <time>2019-09-06T09:31:00Z</time>
      </trkpt>
      <trkpt lat="18.84657" lon="98.99034">
        <time>2019-09-06T09:31:01Z</time>
      </trkpt>
      <trkpt lat="18.84659" lon="98.99058">
        <time>2019-09-06T09:31:02Z</time>
      </trkpt>
      <trkpt lat="18.84662" lon="98.9908">
        <time>2019-09-06T09:31:03Z</time>
      </trkpt>
      <trkpt lat="18.84665" lon="98.99096">
        <time>2019-09-06T09:31:04Z</time>
      </trkpt>
      <trkpt lat="18.84662" lon="98.99117">
        <time>2019-09-06T09:31:05Z</time>
      </trkpt>
      <trkpt lat="18.84664" lon="98.99135">
        <time>2019-09-06T09:31:06Z</time>
      </trkpt>
      <trkpt lat="18.84661" lon="98.99149">
        <time>2019-09-06T09:31:07Z</time>
      </trkpt>
      <trkpt lat="18.84659" lon="98.99174">
        <time>2019-09-06T09:31:08Z</time>
      </trkpt>
      <trkpt lat="18.84657" lon="98.99197">
        <time>2019-09-06T09:31:09Z</time>
      </trkpt>
      <trkpt lat="18.8465" lon="98.99222">
        <time>2019-09-06T09:31:10Z</time>
      </trkpt>
      <trkpt lat="18.84645" lon="98.99245">
        <time>2019-09-06T09:31:11Z</time>
      </trkpt>
      <trkpt lat="18.84637" lon="98.99266">
        <time>2019-09-06T09:31:12Z</time>
      </trkpt>
      <trkpt lat="18.84632" lon="98.99289">
        <time>2019-09-06T09:31:13Z</time>
      </trkpt>
      <trkpt lat="18.84629" lon="98.9931">
        <time>2019-09-06T09:31:14Z</time>
      </trkpt>
      <trkpt lat="18.8462" lon="98.99321">
        <time>2019-09-06T09:31:15Z</time>
      </trkpt>
      <trkpt lat="18.84612" lon="98.99335">
        <time>2019-09-06T09:31:16Z</time>
      </trkpt>
      <trkpt lat="18.84607" lon="98.99347">
        <time>2019-09-06T09:31:17Z</time>
      </trkpt>
      <trkpt lat="18.8459" lon="98.99361">
        <time>2019-09-06T09:31:18Z</time>
      </trkpt>
      <trkpt lat="18.8458" lon="98.99375">
        <time>2019-09-06T09:31:19Z</time>
      </trkpt>
      <trkpt lat="18.8457" lon="98.99391">
        <time>2019-09-06T09:31:20Z</time>
      </trkpt>
      <trkpt lat="18.84562" lon="98.99402">
        <time>2019-09-06T09:31:21Z</time>
      </trkpt>
      <trkpt lat="18.84558" lon="98.99413">
        <time>2019-09-06T09:31:22Z</time>
      </trkpt>
      <trkpt lat="18.84548" lon="98.99426">
        <time>2019-09-06T09:31:23Z</time>
      </trkpt>
      <trkpt lat="18.84542" lon="98.99437">
        <time>2019-09-06T09:31:24Z</time>
      </trkpt>
      <trkpt lat="18.84526" lon="98.9945">
        <time>2019-09-06T09:31:25Z</time>
      </trkpt>
      <trkpt lat="18.84517" lon="98.99463">
        <time>2019-09-06T09:31:26Z</time>
      </trkpt>
      <trkpt lat="18.84509" lon="98.99472">
        <time>2019-09-06T09:31:27Z</time>
      </trkpt>
      <trkpt lat="18.84499" lon="98.9948">
        <time>2019-09-06T09:31:28Z</time>
      </trkpt>
      <trkpt lat="18.84486" lon="98.99491">
        <time>2019-09-06T09:31:29Z</time>
      </trkpt>
      <trkpt lat="18.84475" lon="98.995">
        <time>2019-09-06T09:31:30Z</time>
      </trkpt>
      <trkpt lat="18.84461" lon="98.9951">
        <time>2019-09-06T09:31:31Z</time>
      </trkpt>
      <trkpt lat="18.84447" lon="98.9952">
        <time>2019-09-06T09:31:32Z</time>
      </trkpt>
      <trkpt lat="18.84432" lon="98.99529">
        <time>2019-09-06T09:31:33Z</time>
      </trkpt>
      <trkpt lat="18.8442" lon="98.9954">
        <time>2019-09-06T09:31:34Z</time>
      </trkpt>
      <trkpt lat="18.84408" lon="98.99551">
        <time>2019-09-06T09:31:35Z</time>
      </trkpt>
      <trkpt lat="18.84395" lon="98.9956">
        <time>2019-09-06T09:31:36Z</time>
      </trkpt>
      <trkpt lat="18.84378" lon="98.99573">
        <time>2019-09-06T09:31:37Z</time>
      </trkpt>
      <trkpt lat="18.84368" lon="98.99586">
        <time>2019-09-06T09:31:38Z</time>
      </trkpt>
      <trkpt lat="18.84354" lon="98.99599">
        <time>2019-09-06T09:31:39Z</time>
      </trkpt>
      <trkpt lat="18.84342" lon="98.99611">
        <time>2019-09-06T09:31:40Z</time>
      </trkpt>
      <trkpt lat="18.84329" lon="98.99624">
        <time>2019-09-06T09:31:41Z</time>
      </trkpt>
      <trkpt lat="18.84313" lon="98.99638">
        <time>2019-09-06T09:31:42Z</time>
      </trkpt>
      <trkpt lat="18.84299" lon="98.99652">
        <time>2019-09-06T09:31:43Z</time>
      </trkpt>
      <trkpt lat="18.84287" lon="98.99667">
        <time>2019-09-06T09:31:44Z</time>
      </trkpt>
      <trkpt lat="18.84271" lon="98.99682">
        <time>2019-09-06T09:31:45Z</time>
      </trkpt>
      <trkpt lat="18.84247" lon="98.99696">
        <time>2019-09-06T09:31:46Z</time>
      </trkpt>
      <trkpt lat="18.84228" lon="98.99707">
        <time>2019-09-06T09:31:47Z</time>
      </trkpt>
      <trkpt lat="18.84209" lon="98.99724">
        <time>2019-09-06T09:31:48Z</time>
      </trkpt>
      <trkpt lat="18.8419" lon="98.99739">
        <time>2019-09-06T09:31:49Z</time>
      </trkpt>
      <trkpt lat="18.84173" lon="98.99755">
        <time>2019-09-06T09:31:50Z</time>
      </trkpt>
      <trkpt lat="18.84154" lon="98.99772">
        <time>2019-09-06T09:31:51Z</time>
      </trkpt>
      <trkpt lat="18.84135" lon="98.99786">
        <time>2019-09-06T09:31:52Z</time>
      </trkpt>
      <trkpt lat="18.84118" lon="98.99801">
        <time>2019-09-06T09:31:53Z</time>
      </trkpt>
      <trkpt lat="18.84101" lon="98.99816">
        <time>2019-09-06T09:31:54Z</time>
      </trkpt>
      <trkpt lat="18.84083" lon="98.9983">
        <time>2019-09-06T09:31:55Z</time>
      </trkpt>
      <trkpt lat="18.84064" lon="98.99846">
        <time>2019-09-06T09:31:56Z</time>
      </trkpt>
      <trkpt lat="18.84049" lon="98.99862">
        <time>2019-09-06T09:31:57Z</time>
      </trkpt>
      <trkpt lat="18.8403" lon="98.99877">
        <time>2019-09-06T09:31:58Z</time>
      </trkpt>
      <trkpt lat="18.84012" lon="98.99891">
        <time>2019-09-06T09:31:59Z</time>
      </trkpt>
      <trkpt lat="18.83994" lon="98.99903">
        <time>2019-09-06T09:32:00Z</time>
      </trkpt>
      <trkpt lat="18.83985" lon="98.99919">
        <time>2019-09-06T09:32:01Z</time>
      </trkpt>
      <trkpt lat="18.83969" lon="98.99933">
        <time>2019-09-06T09:32:02Z</time>
      </trkpt>
      <trkpt lat="18.8395" lon="98.99951">
        <time>2019-09-06T09:32:03Z</time>
      </trkpt>
      <trkpt lat="18.83932" lon="98.99966">
        <time>2019-09-06T09:32:04Z</time>
      </trkpt>
      <trkpt lat="18.83915" lon="98.99983">
        <time>2019-09-06T09:32:05Z</time>
      </trkpt>
      <trkpt lat="18.83896" lon="98.99997">
        <time>2019-09-06T09:32:06Z</time>
      </trkpt>
      <trkpt lat="18.8388" lon="99.00013">
        <time>2019-09-06T09:32:07Z</time>
      </trkpt>
      <trkpt lat="18.83865" lon="99.0003">
        <time>2019-09-06T09:32:08Z</time>
      </trkpt>
      <trkpt lat="18.83846" lon="99.00045">
        <time>2019-09-06T09:32:09Z</time>
      </trkpt>
      <trkpt lat="18.83827" lon="99.00062">
        <time>2019-09-06T09:32:10Z</time>
      </trkpt>
      <trkpt lat="18.83804" lon="99.0008">
        <time>2019-09-06T09:32:11Z</time>
      </trkpt>
      <trkpt lat="18.83783" lon="99.00096">
        <time>2019-09-06T09:32:12Z</time>
      </trkpt>
      <trkpt lat="18.83759" lon="99.00107">
        <time>2019-09-06T09:32:13Z</time>
      </trkpt>
      <trkpt lat="18.83741" lon="99.00125">
        <time>2019-09-06T09:32:14Z</time>
      </trkpt>
      <trkpt lat="18.83725" lon="99.00137">
        <time>2019-09-06T09:32:15Z</time>
      </trkpt>
      <trkpt lat="18.83711" lon="99.00149">
        <time>2019-09-06T09:32:16Z</time>
      </trkpt>
      <trkpt lat="18.83696" lon="99.00163">
        <time>2019-09-06T09:32:17Z</time>
      </trkpt>
      <trkpt lat="18.83675" lon="99.00173">
        <time>2019-09-06T09:32:18Z</time>
      </trkpt>
      <trkpt lat="18.83658" lon="99.00185">
        <time>2019-09-06T09:32:19Z</time>
      </trkpt>
      <trkpt lat="18.8365" lon="99.00196">
        <time>2019-09-06T09:32:20Z</time>
      </trkpt>
      <trkpt lat="18.83637" lon="99.00204">
        <time>2019-09-06T09:32:21Z</time>
      </trkpt>
      <trkpt lat="18.83619" lon="99.00215">
        <time>2019-09-06T09:32:22Z</time>
      </trkpt>
      <trkpt lat="18.83604" lon="99.00225">
        <time>2019-09-06T09:32:23Z</time>
      </trkpt>
      <trkpt lat="18.83588" lon="99.00233">
        <time>2019-09-06T09:32:24Z</time>
      </trkpt>
      <trkpt lat="18.83571" lon="99.00241">
        <time>2019-09-06T09:32:25Z</time>
      </trkpt>
      <trkpt lat="18.83558" lon="99.00249">
        <time>2019-09-06T09:32:26Z</time>
      </trkpt>
      <trkpt lat="18.83543" lon="99.00256">
        <time>2019-09-06T09:32:27Z</time>
      </trkpt>
      <trkpt lat="18.8353" lon="99.00263">
        <time>2019-09-06T09:32:28Z</time>
      </trkpt>
      <trkpt lat="18.83516" lon="99.00272">
        <time>2019-09-06T09:32:29Z</time>
      </trkpt>
      <trkpt lat="18.83503" lon="99.0028">
        <time>2019-09-06T09:32:30Z</time>
      </trkpt>
      <trkpt lat="18.83486" lon="99.00288">
        <time>2019-09-06T09:32:31Z</time>
      </trkpt>
      <trkpt lat="18.83472" lon="99.00297">
        <time>2019-09-06T09:32:32Z</time>
      </trkpt>
      <trkpt lat="18.83454" lon="99.00307">
        <time>2019-09-06T09:32:33Z</time>
      </trkpt>
      <trkpt lat="18.83436" lon="99.00318">
        <time>2019-09-06T09:32:34Z</time>
      </trkpt>
      <trkpt lat="18.83418" lon="99.00329">
        <time>2019-09-06T09:32:35Z</time>
      </trkpt>
      <trkpt lat="18.83398" lon="99.0034">
        <time>2019-09-06T09:32:36Z</time>
      </trkpt>
      <trkpt lat="18.83378" lon="99.0035">
        <time>2019-09-06T09:32:37Z</time>
      </trkpt>
      <trkpt lat="18.83356" lon="99.00361">
        <time>2019-09-06T09:32:38Z</time>
      </trkpt>
      <trkpt lat="18.83336" lon="99.00374">
        <time>2019-09-06T09:32:39Z</time>
      </trkpt>
      <trkpt lat="18.83316" lon="99.00385">
        <time>2019-09-06T09:32:40Z</time>
      </trkpt>
      <trkpt lat="18.83294" lon="99.00395">
        <time>2019-09-06T09:32:41Z</time>
      </trkpt>
      <trkpt lat="18.83276" lon="99.00407">
        <time>2019-09-06T09:32:42Z</time>
      </trkpt>
      <trkpt lat="18.83255" lon="99.00419">
        <time>2019-09-06T09:32:43Z</time>
      </trkpt>
      <trkpt lat="18.83237" lon="99.00432">
        <time>2019-09-06T09:32:44Z</time>
      </trkpt>
      <trkpt lat="18.83217" lon="99.00444">
        <time>2019-09-06T09:32:45Z</time>
      </trkpt>
      <trkpt lat="18.83197" lon="99.00454">
        <time>2019-09-06T09:32:46Z</time>
      </trkpt>
      <trkpt lat="18.83176" lon="99.00466">
        <time>2019-09-06T09:32:47Z</time>
      </trkpt>
      <trkpt lat="18.83155" lon="99.00478">
        <time>2019-09-06T09:32:48Z</time>
      </trkpt>
      <trkpt lat="18.83132" lon="99.00488">
        <time>2019-09-06T09:32:49Z</time>
      </trkpt>
      <trkpt lat="18.83114" lon="99.00499">
        <time>2019-09-06T09:32:50Z</time>
      </trkpt>
      <trkpt lat="18.83093" lon="99.00511">
        <time>2019-09-06T09:32:51Z</time>
      </trkpt>
      <trkpt lat="18.83072" lon="99.00522">
        <time>2019-09-06T09:32:52Z</time>
      </trkpt>
      <trkpt lat="18.83053" lon="99.00534">
        <time>2019-09-06T09:32:53Z</time>
      </trkpt>
      <trkpt lat="18.83029" lon="99.00542">
        <time>2019-09-06T09:32:54Z</time>
      </trkpt>
      <trkpt lat="18.8301" lon="99.00551">
        <time>2019-09-06T09:32:55Z</time>
      </trkpt>
      <trkpt lat="18.8299" lon="99.00561">
        <time>2019-09-06T09:32:56Z</time>
      </trkpt>
      <trkpt lat="18.82968" lon="99.00571">
        <time>2019-09-06T09:32:57Z</time>
      </trkpt>
      <trkpt lat="18.82946" lon="99.0058">
        <time>2019-09-06T09:32:58Z</time>
      </trkpt>
      <trkpt lat="18.82922" lon="99.00589">
        <time>2019-09-06T09:32:59Z</time>
      </trkpt>
      <trkpt lat="18.82902" lon="99.00598">
        <time>2019-09-06T09:33:00Z</time>
      </trkpt>
      <trkpt lat="18.8288" lon="99.00607">
        <time>2019-09-06T09:33:01Z</time>
      </trkpt>
      <trkpt lat="18.82859" lon="99.00616">
        <time>2019-09-06T09:33:02Z</time>
      </trkpt>
      <trkpt lat="18.82837" lon="99.00625">
        <time>2019-09-06T09:33:03Z</time>
      </trkpt>
      <trkpt lat="18.82817" lon="99.00632">
        <time>2019-09-06T09:33:04Z</time>
      </trkpt>
      <trkpt lat="18.82797" lon="99.00641">
        <time>2019-09-06T09:33:05Z</time>
      </trkpt>
      <trkpt lat="18.82775" lon="99.00649">
        <time>2019-09-06T09:33:06Z</time>
      </trkpt>
      <trkpt lat="18.82754" lon="99.00658">
        <time>2019-09-06T09:33:07Z</time>
      </trkpt>
      <trkpt lat="18.82735" lon="99.00666">
        <time>2019-09-06T09:33:08Z</time>
      </trkpt>
      <trkpt lat="18.82717" lon="99.00675">
        <time>2019-09-06T09:33:09Z</time>
      </trkpt>
      <trkpt lat="18.82698" lon="99.00682">
        <time>2019-09-06T09:33:10Z</time>
      </trkpt>
      <trkpt lat="18.82681" lon="99.00691">
        <time>2019-09-06T09:33:11Z</time>
      </trkpt>
      <trkpt lat="18.82663" lon="99.00698">
        <time>2019-09-06T09:33:12Z</time>
      </trkpt>
      <trkpt lat="18.82643" lon="99.00703">
        <time>2019-09-06T09:33:13Z</time>
      </trkpt>
      <trkpt lat="18.82626" lon="99.0071">
        <time>2019-09-06T09:33:14Z</time>
      </trkpt>
      <trkpt lat="18.82608" lon="99.00716">
        <time>2019-09-06T09:33:15Z</time>
      </trkpt>
      <trkpt lat="18.82592" lon="99.00723">
        <time>2019-09-06T09:33:16Z</time>
      </trkpt>
      <trkpt lat="18.82576" lon="99.00731">
        <time>2019-09-06T09:33:17Z</time>
      </trkpt>
      <trkpt lat="18.82562" lon="99.00739">
        <time>2019-09-06T09:33:18Z</time>
      </trkpt>
      <trkpt lat="18.82549" lon="99.00745">
        <time>2019-09-06T09:33:19Z</time>
      </trkpt>
      <trkpt lat="18.82536" lon="99.00752">
        <time>2019-09-06T09:33:20Z</time>
      </trkpt>
      <trkpt lat="18.82523" lon="99.00757">
        <time>2019-09-06T09:33:21Z</time>
      </trkpt>
      <trkpt lat="18.82511" lon="99.00764">
        <time>2019-09-06T09:33:22Z</time>
      </trkpt>
      <trkpt lat="18.82501" lon="99.0077">
        <time>2019-09-06T09:33:23Z</time>
      </trkpt>
      <trkpt lat="18.82491" lon="99.00778">
        <time>2019-09-06T09:33:24Z</time>
      </trkpt>
      <trkpt lat="18.82482" lon="99.00786">
        <time>2019-09-06T09:33:25Z</time>
      </trkpt>
      <trkpt lat="18.82472" lon="99.00792">
        <time>2019-09-06T09:33:26Z</time>
      </trkpt>
      <trkpt lat="18.82465" lon="99.008">
        <time>2019-09-06T09:33:27Z</time>
      </trkpt>
      <trkpt lat="18.82456" lon="99.00807">
        <time>2019-09-06T09:33:28Z</time>
      </trkpt>
      <trkpt lat="18.82448" lon="99.00812">
        <time>2019-09-06T09:33:29Z</time>
      </trkpt>
      <trkpt lat="18.82442" lon="99.00818">
        <time>2019-09-06T09:33:30Z</time>
      </trkpt>
      <trkpt lat="18.82442" lon="99.00819">
        <time>2019-09-06T09:33:31Z</time>
      </trkpt>
      <trkpt lat="18.82439" lon="99.00821">
        <time>2019-09-06T09:33:32Z</time>
      </trkpt>
      <trkpt lat="18.82436" lon="99.00824">
        <time>2019-09-06T09:33:33Z</time>
      </trkpt>
      <trkpt lat="18.82432" lon="99.00827">
        <time>2019-09-06T09:33:34Z</time>
      </trkpt>
      <trkpt lat="18.82428" lon="99.00831">
        <time>2019-09-06T09:33:35Z</time>
      </trkpt>
      <trkpt lat="18.82421" lon="99.00837">
        <time>2019-09-06T09:33:36Z</time>
      </trkpt>
      <trkpt lat="18.82416" lon="99.00844">
        <time>2019-09-06T09:33:37Z</time>
      </trkpt>
      <trkpt lat="18.82409" lon="99.00854">
        <time>2019-09-06T09:33:38Z</time>
      </trkpt>
      <trkpt lat="18.82403" lon="99.00862">
        <time>2019-09-06T09:33:39Z</time>
      </trkpt>
      <trkpt lat="18.82397" lon="99.00871">
        <time>2019-09-06T09:33:40Z</time>
      </trkpt>
      <trkpt lat="18.8239" lon="99.00878">
        <time>2019-09-06T09:33:41Z</time>
      </trkpt>
      <trkpt lat="18.82384" lon="99.00885">
        <time>2019-09-06T09:33:42Z</time>
      </trkpt>
      <trkpt lat="18.82378" lon="99.00892">
        <time>2019-09-06T09:33:43Z</time>
      </trkpt>
      <trkpt lat="18.82373" lon="99.009">
        <time>2019-09-06T09:33:44Z</time>
      </trkpt>
      <trkpt lat="18.82368" lon="99.00911">
        <time>2019-09-06T09:33:45Z</time>
      </trkpt>
      <trkpt lat="18.82362" lon="99.00922">
        <time>2019-09-06T09:33:46Z</time>
      </trkpt>
      <trkpt lat="18.82359" lon="99.00933">
        <time>2019-09-06T09:33:47Z</time>
      </trkpt>
      <trkpt lat="18.82354" lon="99.00946">
        <time>2019-09-06T09:33:48Z</time>
      </trkpt>
      <trkpt lat="18.82348" lon="99.00958">
        <time>2019-09-06T09:33:49Z</time>
      </trkpt>
      <trkpt lat="18.82345" lon="99.00969">
        <time>2019-09-06T09:33:50Z</time>
      </trkpt>
      <trkpt lat="18.82344" lon="99.00982">
        <time>2019-09-06T09:33:51Z</time>
      </trkpt>
      <trkpt lat="18.82339" lon="99.00991">
        <time>2019-09-06T09:33:52Z</time>
      </trkpt>
      <trkpt lat="18.82335" lon="99.00997">
        <time>2019-09-06T09:33:53Z</time>
      </trkpt>
      <trkpt lat="18.82337" lon="99.01002">
        <time>2019-09-06T09:33:54Z</time>
      </trkpt>
      <trkpt lat="18.82335" lon="99.01008">
        <time>2019-09-06T09:33:55Z</time>
      </trkpt>
      <trkpt lat="18.82333" lon="99.01016">
        <time>2019-09-06T09:33:56Z</time>
      </trkpt>
      <trkpt lat="18.8233" lon="99.01023">
        <time>2019-09-06T09:33:57Z</time>
      </trkpt>
      <trkpt lat="18.82329" lon="99.0103">
        <time>2019-09-06T09:33:58Z</time>
      </trkpt>
      <trkpt lat="18.82329" lon="99.01037">
        <time>2019-09-06T09:33:59Z</time>
      </trkpt>
      <trkpt lat="18.8233" lon="99.01046">
        <time>2019-09-06T09:34:00Z</time>
      </trkpt>
      <trkpt lat="18.8233" lon="99.01054">
        <time>2019-09-06T09:34:01Z</time>
      </trkpt>
      <trkpt lat="18.82328" lon="99.01062">
        <time>2019-09-06T09:34:02Z</time>
      </trkpt>
      <trkpt lat="18.8233" lon="99.01069">
        <time>2019-09-06T09:34:03Z</time>
      </trkpt>
      <trkpt lat="18.8233" lon="99.01076">
        <time>2019-09-06T09:34:04Z</time>
      </trkpt>
      <trkpt lat="18.82333" lon="99.01084">
        <time>2019-09-06T09:34:05Z</time>
      </trkpt>
      <trkpt lat="18.82333" lon="99.01093">
        <time>2019-09-06T09:34:06Z</time>
      </trkpt>
      <trkpt lat="18.82331" lon="99.01102">
        <time>2019-09-06T09:34:07Z</time>
      </trkpt>
      <trkpt lat="18.82331" lon="99.01104">
        <time>2019-09-06T09:34:08Z</time>
      </trkpt>
      <trkpt lat="18.8233" lon="99.01114">
        <time>2019-09-06T09:34:09Z</time>
      </trkpt>
      <trkpt lat="18.82329" lon="99.01125">
        <time>2019-09-06T09:34:10Z</time>
      </trkpt>
      <trkpt lat="18.8233" lon="99.01132">
        <time>2019-09-06T09:34:11Z</time>
      </trkpt>
      <trkpt lat="18.82326" lon="99.01139">
        <time>2019-09-06T09:34:12Z</time>
      </trkpt>
      <trkpt lat="18.82327" lon="99.01145">
        <time>2019-09-06T09:34:13Z</time>
      </trkpt>
      <trkpt lat="18.82325" lon="99.01154">
        <time>2019-09-06T09:34:14Z</time>
      </trkpt>
      <trkpt lat="18.82325" lon="99.01156">
        <time>2019-09-06T09:34:15Z</time>
      </trkpt>
      <trkpt lat="18.82326" lon="99.01157">
        <time>2019-09-06T09:34:16Z</time>
      </trkpt>
      <trkpt lat="18.82326" lon="99.01157">
        <time>2019-09-06T09:34:17Z</time>
      </trkpt>
      <trkpt lat="18.82324" lon="99.01155">
        <time>2019-09-06T09:34:18Z</time>
      </trkpt>
      <trkpt lat="18.82329" lon="99.0116">
        <time>2019-09-06T09:34:19Z</time>
      </trkpt>
    </trkseg>
  </trk>
</gpx>
